<?xml version="1.0" encoding="UTF-8" standalone="no" ?>
<gpx xmlns="http://www.topografix.com/GPX/1/1" xmlns:xsi="http://www.w3.org/2001/XMLSchema-instance" xsi:schemaLocation="http://www.topografix.com/GPX/1/1 http://www.topografix.com/GPX/1/1/gpx.xsd" version="1.1" creator="VisuGPX - https://www.visugpx.com">
  <metadata>
    <name>villard project 2</name>
  </metadata>
  <trk>
    <name><![CDATA[villard project]]></name>
    <extensions>
      <line xmlns="http://www.topografix.com/GPX/gpx_style/0/2">
        <color>00FF00</color>
        <width>4</width>
      </line>
    </extensions>
    <trkseg>
      <trkpt lat="45.07099" lon="5.54797">
        <ele>1130.4</ele>
        <time>1970-01-01T00:00:23.000Z</time>
      </trkpt>
      <trkpt lat="45.07101" lon="5.54799">
        <ele>1131.6</ele>
        <time>1970-01-01T00:00:30.000Z</time>
      </trkpt>
      <trkpt lat="45.07102" lon="5.548">
        <ele>1132.6</ele>
        <time>1970-01-01T00:00:36.000Z</time>
      </trkpt>
      <trkpt lat="45.07104" lon="5.54801">
        <ele>1133</ele>
        <time>1970-01-01T00:00:38.000Z</time>
      </trkpt>
      <trkpt lat="45.07111" lon="5.54805">
        <ele>1133.2</ele>
        <time>1970-01-01T00:00:44.000Z</time>
      </trkpt>
      <trkpt lat="45.07118" lon="5.54807">
        <ele>1133.8</ele>
        <time>1970-01-01T00:00:52.000Z</time>
      </trkpt>
      <trkpt lat="45.07129" lon="5.54813">
        <ele>1134.4</ele>
        <time>1970-01-01T00:01:06.000Z</time>
      </trkpt>
      <trkpt lat="45.07137" lon="5.54817">
        <ele>1134</ele>
        <time>1970-01-01T00:01:14.000Z</time>
      </trkpt>
      <trkpt lat="45.07141" lon="5.54818">
        <ele>1133.8</ele>
        <time>1970-01-01T00:01:19.000Z</time>
      </trkpt>
      <trkpt lat="45.0715" lon="5.54819">
        <ele>1133.2</ele>
        <time>1970-01-01T00:01:26.000Z</time>
      </trkpt>
      <trkpt lat="45.07158" lon="5.54819">
        <ele>1132.6</ele>
        <time>1970-01-01T00:01:34.000Z</time>
      </trkpt>
      <trkpt lat="45.07171" lon="5.54826">
        <ele>1131.6</ele>
        <time>1970-01-01T00:01:47.000Z</time>
      </trkpt>
      <trkpt lat="45.07173" lon="5.54827">
        <ele>1131.4</ele>
        <time>1970-01-01T00:01:49.000Z</time>
      </trkpt>
      <trkpt lat="45.07182" lon="5.5483">
        <ele>1130.8</ele>
        <time>1970-01-01T00:01:57.000Z</time>
      </trkpt>
      <trkpt lat="45.07185" lon="5.54833">
        <ele>1130.4</ele>
        <time>1970-01-01T00:02:02.000Z</time>
      </trkpt>
      <trkpt lat="45.07191" lon="5.54837">
        <ele>1129.4</ele>
        <time>1970-01-01T00:02:09.000Z</time>
      </trkpt>
      <trkpt lat="45.07195" lon="5.54842">
        <ele>1129</ele>
        <time>1970-01-01T00:02:14.000Z</time>
      </trkpt>
      <trkpt lat="45.07197" lon="5.54847">
        <ele>1128.8</ele>
        <time>1970-01-01T00:02:18.000Z</time>
      </trkpt>
      <trkpt lat="45.07196" lon="5.54863">
        <ele>1129</ele>
        <time>1970-01-01T00:02:29.000Z</time>
      </trkpt>
      <trkpt lat="45.07195" lon="5.54874">
        <ele>1130</ele>
        <time>1970-01-01T00:02:39.000Z</time>
      </trkpt>
      <trkpt lat="45.07192" lon="5.54882">
        <ele>1130.6</ele>
        <time>1970-01-01T00:02:44.000Z</time>
      </trkpt>
      <trkpt lat="45.07187" lon="5.54893">
        <ele>1131.6</ele>
        <time>1970-01-01T00:02:53.000Z</time>
      </trkpt>
      <trkpt lat="45.07184" lon="5.54897">
        <ele>1131.8</ele>
        <time>1970-01-01T00:02:56.000Z</time>
      </trkpt>
      <trkpt lat="45.07183" lon="5.54903">
        <ele>1132.2</ele>
        <time>1970-01-01T00:03:00.000Z</time>
      </trkpt>
      <trkpt lat="45.07181" lon="5.54906">
        <ele>1132.6</ele>
        <time>1970-01-01T00:03:04.000Z</time>
      </trkpt>
      <trkpt lat="45.07176" lon="5.54915">
        <ele>1134.2</ele>
        <time>1970-01-01T00:03:20.000Z</time>
      </trkpt>
      <trkpt lat="45.07173" lon="5.54918">
        <ele>1134.8</ele>
        <time>1970-01-01T00:03:24.000Z</time>
      </trkpt>
      <trkpt lat="45.0717" lon="5.54925">
        <ele>1135.4</ele>
        <time>1970-01-01T00:03:29.000Z</time>
      </trkpt>
      <trkpt lat="45.07169" lon="5.54929">
        <ele>1136</ele>
        <time>1970-01-01T00:03:33.000Z</time>
      </trkpt>
      <trkpt lat="45.07167" lon="5.54932">
        <ele>1136.4</ele>
        <time>1970-01-01T00:03:36.000Z</time>
      </trkpt>
      <trkpt lat="45.07167" lon="5.54934">
        <ele>1136.6</ele>
        <time>1970-01-01T00:03:39.000Z</time>
      </trkpt>
      <trkpt lat="45.07166" lon="5.54938">
        <ele>1137.2</ele>
        <time>1970-01-01T00:03:43.000Z</time>
      </trkpt>
      <trkpt lat="45.07165" lon="5.54939">
        <ele>1137.4</ele>
        <time>1970-01-01T00:03:45.000Z</time>
      </trkpt>
      <trkpt lat="45.07162" lon="5.54943">
        <ele>1138</ele>
        <time>1970-01-01T00:03:48.000Z</time>
      </trkpt>
      <trkpt lat="45.07158" lon="5.54945">
        <ele>1138.6</ele>
        <time>1970-01-01T00:03:52.000Z</time>
      </trkpt>
      <trkpt lat="45.07156" lon="5.54946">
        <ele>1138.8</ele>
        <time>1970-01-01T00:03:54.000Z</time>
      </trkpt>
      <trkpt lat="45.07153" lon="5.54948">
        <ele>1139.4</ele>
        <time>1970-01-01T00:03:58.000Z</time>
      </trkpt>
      <trkpt lat="45.07152" lon="5.54951">
        <ele>1139.8</ele>
        <time>1970-01-01T00:04:01.000Z</time>
      </trkpt>
      <trkpt lat="45.07151" lon="5.54953">
        <ele>1140</ele>
        <time>1970-01-01T00:04:03.000Z</time>
      </trkpt>
      <trkpt lat="45.07151" lon="5.54954">
        <ele>1140.4</ele>
        <time>1970-01-01T00:04:05.000Z</time>
      </trkpt>
      <trkpt lat="45.07149" lon="5.54959">
        <ele>1140.8</ele>
        <time>1970-01-01T00:04:10.000Z</time>
      </trkpt>
      <trkpt lat="45.07145" lon="5.54965">
        <ele>1141</ele>
        <time>1970-01-01T00:04:15.000Z</time>
      </trkpt>
      <trkpt lat="45.07143" lon="5.54967">
        <ele>1140.8</ele>
        <time>1970-01-01T00:04:18.000Z</time>
      </trkpt>
      <trkpt lat="45.0714" lon="5.54971">
        <ele>1141.4</ele>
        <time>1970-01-01T00:04:24.000Z</time>
      </trkpt>
      <trkpt lat="45.07138" lon="5.54974">
        <ele>1141.8</ele>
        <time>1970-01-01T00:04:28.000Z</time>
      </trkpt>
      <trkpt lat="45.07136" lon="5.54977">
        <ele>1142.2</ele>
        <time>1970-01-01T00:04:31.000Z</time>
      </trkpt>
      <trkpt lat="45.07134" lon="5.54981">
        <ele>1142.6</ele>
        <time>1970-01-01T00:04:35.000Z</time>
      </trkpt>
      <trkpt lat="45.07133" lon="5.54985">
        <ele>1143</ele>
        <time>1970-01-01T00:04:39.000Z</time>
      </trkpt>
      <trkpt lat="45.07133" lon="5.54986">
        <ele>1143.2</ele>
        <time>1970-01-01T00:04:40.000Z</time>
      </trkpt>
      <trkpt lat="45.07133" lon="5.54988">
        <ele>1143.4</ele>
        <time>1970-01-01T00:04:42.000Z</time>
      </trkpt>
      <trkpt lat="45.07133" lon="5.54993">
        <ele>1143.6</ele>
        <time>1970-01-01T00:04:46.000Z</time>
      </trkpt>
      <trkpt lat="45.07133" lon="5.54994">
        <ele>1144</ele>
        <time>1970-01-01T00:04:47.000Z</time>
      </trkpt>
      <trkpt lat="45.07133" lon="5.54996">
        <ele>1144</ele>
        <time>1970-01-01T00:04:49.000Z</time>
      </trkpt>
      <trkpt lat="45.0713" lon="5.55004">
        <ele>1144.4</ele>
        <time>1970-01-01T00:04:56.000Z</time>
      </trkpt>
      <trkpt lat="45.07128" lon="5.55014">
        <ele>1145</ele>
        <time>1970-01-01T00:05:02.000Z</time>
      </trkpt>
      <trkpt lat="45.07125" lon="5.55018">
        <ele>1145.2</ele>
        <time>1970-01-01T00:05:05.000Z</time>
      </trkpt>
      <trkpt lat="45.07124" lon="5.55019">
        <ele>1145.4</ele>
        <time>1970-01-01T00:05:06.000Z</time>
      </trkpt>
      <trkpt lat="45.07123" lon="5.5502">
        <ele>1145.4</ele>
        <time>1970-01-01T00:05:07.000Z</time>
      </trkpt>
      <trkpt lat="45.07122" lon="5.55021">
        <ele>1145.6</ele>
        <time>1970-01-01T00:05:08.000Z</time>
      </trkpt>
      <trkpt lat="45.07121" lon="5.55021">
        <ele>1145.6</ele>
        <time>1970-01-01T00:05:09.000Z</time>
      </trkpt>
      <trkpt lat="45.07118" lon="5.55023">
        <ele>1145.8</ele>
        <time>1970-01-01T00:05:12.000Z</time>
      </trkpt>
      <trkpt lat="45.07117" lon="5.55023">
        <ele>1145.8</ele>
        <time>1970-01-01T00:05:13.000Z</time>
      </trkpt>
      <trkpt lat="45.07116" lon="5.55023">
        <ele>1145.8</ele>
        <time>1970-01-01T00:05:14.000Z</time>
      </trkpt>
      <trkpt lat="45.07115" lon="5.55024">
        <ele>1145.8</ele>
        <time>1970-01-01T00:05:16.000Z</time>
      </trkpt>
      <trkpt lat="45.07114" lon="5.55024">
        <ele>1145.8</ele>
        <time>1970-01-01T00:05:17.000Z</time>
      </trkpt>
      <trkpt lat="45.07113" lon="5.55024">
        <ele>1146.4</ele>
        <time>1970-01-01T00:05:20.000Z</time>
      </trkpt>
      <trkpt lat="45.0711" lon="5.55025">
        <ele>1146.4</ele>
        <time>1970-01-01T00:05:26.000Z</time>
      </trkpt>
      <trkpt lat="45.07109" lon="5.55026">
        <ele>1146.4</ele>
        <time>1970-01-01T00:05:27.000Z</time>
      </trkpt>
      <trkpt lat="45.07108" lon="5.55028">
        <ele>1146.4</ele>
        <time>1970-01-01T00:05:29.000Z</time>
      </trkpt>
      <trkpt lat="45.07104" lon="5.55034">
        <ele>1146.8</ele>
        <time>1970-01-01T00:05:35.000Z</time>
      </trkpt>
      <trkpt lat="45.07103" lon="5.55035">
        <ele>1146.8</ele>
        <time>1970-01-01T00:05:37.000Z</time>
      </trkpt>
      <trkpt lat="45.07103" lon="5.55037">
        <ele>1146.8</ele>
        <time>1970-01-01T00:05:40.000Z</time>
      </trkpt>
      <trkpt lat="45.07104" lon="5.55037">
        <ele>1147</ele>
        <time>1970-01-01T00:05:42.000Z</time>
      </trkpt>
      <trkpt lat="45.07103" lon="5.55038">
        <ele>1147</ele>
        <time>1970-01-01T00:05:44.000Z</time>
      </trkpt>
      <trkpt lat="45.07103" lon="5.55043">
        <ele>1147.4</ele>
        <time>1970-01-01T00:05:48.000Z</time>
      </trkpt>
      <trkpt lat="45.07107" lon="5.55055">
        <ele>1148</ele>
        <time>1970-01-01T00:05:54.000Z</time>
      </trkpt>
      <trkpt lat="45.07107" lon="5.55056">
        <ele>1148.4</ele>
        <time>1970-01-01T00:05:55.000Z</time>
      </trkpt>
      <trkpt lat="45.07107" lon="5.55057">
        <ele>1148.6</ele>
        <time>1970-01-01T00:05:56.000Z</time>
      </trkpt>
      <trkpt lat="45.07105" lon="5.5506">
        <ele>1149</ele>
        <time>1970-01-01T00:05:59.000Z</time>
      </trkpt>
      <trkpt lat="45.07105" lon="5.55061">
        <ele>1149.2</ele>
        <time>1970-01-01T00:06:00.000Z</time>
      </trkpt>
      <trkpt lat="45.07105" lon="5.55062">
        <ele>1149.4</ele>
        <time>1970-01-01T00:06:01.000Z</time>
      </trkpt>
      <trkpt lat="45.07104" lon="5.55063">
        <ele>1149.6</ele>
        <time>1970-01-01T00:06:03.000Z</time>
      </trkpt>
      <trkpt lat="45.07102" lon="5.55067">
        <ele>1150.2</ele>
        <time>1970-01-01T00:06:07.000Z</time>
      </trkpt>
      <trkpt lat="45.07097" lon="5.5507">
        <ele>1150.4</ele>
        <time>1970-01-01T00:06:11.000Z</time>
      </trkpt>
      <trkpt lat="45.07093" lon="5.55073">
        <ele>1150.6</ele>
        <time>1970-01-01T00:06:14.000Z</time>
      </trkpt>
      <trkpt lat="45.0709" lon="5.55077">
        <ele>1151.2</ele>
        <time>1970-01-01T00:06:21.000Z</time>
      </trkpt>
      <trkpt lat="45.07089" lon="5.55079">
        <ele>1151.4</ele>
        <time>1970-01-01T00:06:23.000Z</time>
      </trkpt>
      <trkpt lat="45.07089" lon="5.5508">
        <ele>1151.4</ele>
        <time>1970-01-01T00:06:24.000Z</time>
      </trkpt>
      <trkpt lat="45.07088" lon="5.55085">
        <ele>1151.8</ele>
        <time>1970-01-01T00:06:27.000Z</time>
      </trkpt>
      <trkpt lat="45.07088" lon="5.55086">
        <ele>1151.8</ele>
        <time>1970-01-01T00:06:28.000Z</time>
      </trkpt>
      <trkpt lat="45.07088" lon="5.55088">
        <ele>1151.8</ele>
        <time>1970-01-01T00:06:29.000Z</time>
      </trkpt>
      <trkpt lat="45.07089" lon="5.55093">
        <ele>1152</ele>
        <time>1970-01-01T00:06:32.000Z</time>
      </trkpt>
      <trkpt lat="45.07089" lon="5.55098">
        <ele>1152.2</ele>
        <time>1970-01-01T00:06:35.000Z</time>
      </trkpt>
      <trkpt lat="45.07088" lon="5.55101">
        <ele>1152.4</ele>
        <time>1970-01-01T00:06:37.000Z</time>
      </trkpt>
      <trkpt lat="45.07083" lon="5.55107">
        <ele>1153.2</ele>
        <time>1970-01-01T00:06:43.000Z</time>
      </trkpt>
      <trkpt lat="45.07082" lon="5.55108">
        <ele>1153.4</ele>
        <time>1970-01-01T00:06:44.000Z</time>
      </trkpt>
      <trkpt lat="45.0708" lon="5.55109">
        <ele>1153.6</ele>
        <time>1970-01-01T00:06:45.000Z</time>
      </trkpt>
      <trkpt lat="45.07079" lon="5.5511">
        <ele>1153.6</ele>
        <time>1970-01-01T00:06:47.000Z</time>
      </trkpt>
      <trkpt lat="45.07076" lon="5.5511">
        <ele>1154</ele>
        <time>1970-01-01T00:06:50.000Z</time>
      </trkpt>
      <trkpt lat="45.07071" lon="5.55108">
        <ele>1154.2</ele>
        <time>1970-01-01T00:06:53.000Z</time>
      </trkpt>
      <trkpt lat="45.07069" lon="5.55108">
        <ele>1154.2</ele>
        <time>1970-01-01T00:06:55.000Z</time>
      </trkpt>
      <trkpt lat="45.07067" lon="5.5511">
        <ele>1154.4</ele>
        <time>1970-01-01T00:06:59.000Z</time>
      </trkpt>
      <trkpt lat="45.07074" lon="5.55118">
        <ele>1154</ele>
        <time>1970-01-01T00:07:08.000Z</time>
      </trkpt>
      <trkpt lat="45.07072" lon="5.55118">
        <ele>1154</ele>
        <time>1970-01-01T00:07:10.000Z</time>
      </trkpt>
      <trkpt lat="45.0707" lon="5.55119">
        <ele>1154</ele>
        <time>1970-01-01T00:07:13.000Z</time>
      </trkpt>
      <trkpt lat="45.07069" lon="5.55121">
        <ele>1154</ele>
        <time>1970-01-01T00:07:15.000Z</time>
      </trkpt>
      <trkpt lat="45.07068" lon="5.55122">
        <ele>1154</ele>
        <time>1970-01-01T00:07:16.000Z</time>
      </trkpt>
      <trkpt lat="45.07064" lon="5.55125">
        <ele>1154.4</ele>
        <time>1970-01-01T00:07:19.000Z</time>
      </trkpt>
      <trkpt lat="45.07063" lon="5.55126">
        <ele>1154.4</ele>
        <time>1970-01-01T00:07:20.000Z</time>
      </trkpt>
      <trkpt lat="45.07059" lon="5.5513">
        <ele>1154.4</ele>
        <time>1970-01-01T00:07:23.000Z</time>
      </trkpt>
      <trkpt lat="45.07057" lon="5.55134">
        <ele>1154.8</ele>
        <time>1970-01-01T00:07:27.000Z</time>
      </trkpt>
      <trkpt lat="45.07054" lon="5.5514">
        <ele>1155</ele>
        <time>1970-01-01T00:07:32.000Z</time>
      </trkpt>
      <trkpt lat="45.0705" lon="5.5514">
        <ele>1155</ele>
        <time>1970-01-01T00:07:35.000Z</time>
      </trkpt>
      <trkpt lat="45.07047" lon="5.55142">
        <ele>1155.2</ele>
        <time>1970-01-01T00:07:37.000Z</time>
      </trkpt>
      <trkpt lat="45.07046" lon="5.55143">
        <ele>1155.4</ele>
        <time>1970-01-01T00:07:38.000Z</time>
      </trkpt>
      <trkpt lat="45.07044" lon="5.55144">
        <ele>1155.4</ele>
        <time>1970-01-01T00:07:40.000Z</time>
      </trkpt>
      <trkpt lat="45.07044" lon="5.55143">
        <ele>1155.4</ele>
        <time>1970-01-01T00:07:43.000Z</time>
      </trkpt>
      <trkpt lat="45.07044" lon="5.55145">
        <ele>1155.4</ele>
        <time>1970-01-01T00:07:45.000Z</time>
      </trkpt>
      <trkpt lat="45.07047" lon="5.55153">
        <ele>1155.6</ele>
        <time>1970-01-01T00:07:53.000Z</time>
      </trkpt>
      <trkpt lat="45.07046" lon="5.55161">
        <ele>1156.2</ele>
        <time>1970-01-01T00:07:59.000Z</time>
      </trkpt>
      <trkpt lat="45.07046" lon="5.55163">
        <ele>1156.4</ele>
        <time>1970-01-01T00:08:02.000Z</time>
      </trkpt>
      <trkpt lat="45.07046" lon="5.55164">
        <ele>1156.6</ele>
        <time>1970-01-01T00:08:04.000Z</time>
      </trkpt>
      <trkpt lat="45.07045" lon="5.55164">
        <ele>1156.6</ele>
        <time>1970-01-01T00:08:05.000Z</time>
      </trkpt>
      <trkpt lat="45.07046" lon="5.55164">
        <ele>1157</ele>
        <time>1970-01-01T00:08:10.000Z</time>
      </trkpt>
      <trkpt lat="45.07046" lon="5.55165">
        <ele>1156.8</ele>
        <time>1970-01-01T00:08:12.000Z</time>
      </trkpt>
      <trkpt lat="45.07045" lon="5.55166">
        <ele>1157</ele>
        <time>1970-01-01T00:08:16.000Z</time>
      </trkpt>
      <trkpt lat="45.07043" lon="5.55166">
        <ele>1157.2</ele>
        <time>1970-01-01T00:08:23.000Z</time>
      </trkpt>
      <trkpt lat="45.07045" lon="5.55161">
        <ele>1157.2</ele>
        <time>1970-01-01T00:08:29.000Z</time>
      </trkpt>
      <trkpt lat="45.07049" lon="5.55157">
        <ele>1157</ele>
        <time>1970-01-01T00:08:38.000Z</time>
      </trkpt>
      <trkpt lat="45.0705" lon="5.55153">
        <ele>1157</ele>
        <time>1970-01-01T00:08:44.000Z</time>
      </trkpt>
      <trkpt lat="45.07046" lon="5.55149">
        <ele>1156.4</ele>
        <time>1970-01-01T00:08:52.000Z</time>
      </trkpt>
      <trkpt lat="45.07045" lon="5.55155">
        <ele>1156.4</ele>
        <time>1970-01-01T00:08:59.000Z</time>
      </trkpt>
      <trkpt lat="45.07046" lon="5.55155">
        <ele>1156.4</ele>
        <time>1970-01-01T00:09:00.000Z</time>
      </trkpt>
      <trkpt lat="45.07047" lon="5.55156">
        <ele>1156.4</ele>
        <time>1970-01-01T00:09:01.000Z</time>
      </trkpt>
      <trkpt lat="45.07048" lon="5.55156">
        <ele>1156.4</ele>
        <time>1970-01-01T00:09:03.000Z</time>
      </trkpt>
      <trkpt lat="45.07051" lon="5.55158">
        <ele>1156.4</ele>
        <time>1970-01-01T00:09:06.000Z</time>
      </trkpt>
      <trkpt lat="45.07057" lon="5.55158">
        <ele>1156.2</ele>
        <time>1970-01-01T00:09:13.000Z</time>
      </trkpt>
      <trkpt lat="45.07059" lon="5.55157">
        <ele>1156.2</ele>
        <time>1970-01-01T00:09:14.000Z</time>
      </trkpt>
      <trkpt lat="45.07061" lon="5.55159">
        <ele>1155.8</ele>
        <time>1970-01-01T00:09:18.000Z</time>
      </trkpt>
      <trkpt lat="45.07062" lon="5.55159">
        <ele>1156</ele>
        <time>1970-01-01T00:09:22.000Z</time>
      </trkpt>
      <trkpt lat="45.07061" lon="5.55157">
        <ele>1156.6</ele>
        <time>1970-01-01T00:09:27.000Z</time>
      </trkpt>
      <trkpt lat="45.07061" lon="5.55156">
        <ele>1156.6</ele>
        <time>1970-01-01T00:09:29.000Z</time>
      </trkpt>
      <trkpt lat="45.07061" lon="5.55155">
        <ele>1156.8</ele>
        <time>1970-01-01T00:09:36.000Z</time>
      </trkpt>
      <trkpt lat="45.07062" lon="5.55156">
        <ele>1156.8</ele>
        <time>1970-01-01T00:09:39.000Z</time>
      </trkpt>
      <trkpt lat="45.07064" lon="5.55156">
        <ele>1156.6</ele>
        <time>1970-01-01T00:09:43.000Z</time>
      </trkpt>
      <trkpt lat="45.07061" lon="5.55153">
        <ele>1156.4</ele>
        <time>1970-01-01T00:09:52.000Z</time>
      </trkpt>
      <trkpt lat="45.07058" lon="5.55158">
        <ele>1156.8</ele>
        <time>1970-01-01T00:09:59.000Z</time>
      </trkpt>
      <trkpt lat="45.07056" lon="5.55152">
        <ele>1156.8</ele>
        <time>1970-01-01T00:10:03.000Z</time>
      </trkpt>
      <trkpt lat="45.07055" lon="5.55154">
        <ele>1156.8</ele>
        <time>1970-01-01T00:10:06.000Z</time>
      </trkpt>
      <trkpt lat="45.07051" lon="5.55152">
        <ele>1153.2</ele>
        <time>1970-01-01T00:10:13.000Z</time>
      </trkpt>
      <trkpt lat="45.0705" lon="5.55151">
        <ele>1153.2</ele>
        <time>1970-01-01T00:10:14.000Z</time>
      </trkpt>
      <trkpt lat="45.07049" lon="5.55152">
        <ele>1153.2</ele>
        <time>1970-01-01T00:10:15.000Z</time>
      </trkpt>
      <trkpt lat="45.07048" lon="5.55152">
        <ele>1155.2</ele>
        <time>1970-01-01T00:10:17.000Z</time>
      </trkpt>
      <trkpt lat="45.07041" lon="5.55151">
        <ele>1157.2</ele>
        <time>1970-01-01T00:10:22.000Z</time>
      </trkpt>
      <trkpt lat="45.0705" lon="5.55149">
        <ele>1157.2</ele>
        <time>1970-01-01T00:10:27.000Z</time>
      </trkpt>
      <trkpt lat="45.07046" lon="5.55152">
        <ele>1157.2</ele>
        <time>1970-01-01T00:10:38.000Z</time>
      </trkpt>
      <trkpt lat="45.07047" lon="5.55156">
        <ele>1157.2</ele>
        <time>1970-01-01T00:10:43.000Z</time>
      </trkpt>
      <trkpt lat="45.07044" lon="5.55159">
        <ele>1157.2</ele>
        <time>1970-01-01T00:10:45.000Z</time>
      </trkpt>
      <trkpt lat="45.07041" lon="5.55162">
        <ele>1157</ele>
        <time>1970-01-01T00:10:49.000Z</time>
      </trkpt>
      <trkpt lat="45.07049" lon="5.55158">
        <ele>1157</ele>
        <time>1970-01-01T00:10:54.000Z</time>
      </trkpt>
      <trkpt lat="45.07038" lon="5.55152">
        <ele>1157</ele>
        <time>1970-01-01T00:17:59.000Z</time>
      </trkpt>
      <trkpt lat="45.07036" lon="5.55152">
        <ele>1157</ele>
        <time>1970-01-01T00:18:01.000Z</time>
      </trkpt>
      <trkpt lat="45.07036" lon="5.55154">
        <ele>1157</ele>
        <time>1970-01-01T00:18:07.000Z</time>
      </trkpt>
      <trkpt lat="45.07036" lon="5.55155">
        <ele>1157</ele>
        <time>1970-01-01T00:18:08.000Z</time>
      </trkpt>
      <trkpt lat="45.07036" lon="5.55156">
        <ele>1157</ele>
        <time>1970-01-01T00:18:09.000Z</time>
      </trkpt>
      <trkpt lat="45.07041" lon="5.55159">
        <ele>1156.4</ele>
        <time>1970-01-01T00:18:15.000Z</time>
      </trkpt>
      <trkpt lat="45.07044" lon="5.55159">
        <ele>1156.4</ele>
        <time>1970-01-01T00:18:18.000Z</time>
      </trkpt>
      <trkpt lat="45.07046" lon="5.55158">
        <ele>1156.4</ele>
        <time>1970-01-01T00:18:23.000Z</time>
      </trkpt>
      <trkpt lat="45.07046" lon="5.55159">
        <ele>1156.2</ele>
        <time>1970-01-01T00:18:30.000Z</time>
      </trkpt>
      <trkpt lat="45.07046" lon="5.55157">
        <ele>1156.6</ele>
        <time>1970-01-01T00:18:37.000Z</time>
      </trkpt>
      <trkpt lat="45.07046" lon="5.55156">
        <ele>1156.6</ele>
        <time>1970-01-01T00:18:43.000Z</time>
      </trkpt>
      <trkpt lat="45.07043" lon="5.55156">
        <ele>1156.6</ele>
        <time>1970-01-01T00:18:49.000Z</time>
      </trkpt>
      <trkpt lat="45.07041" lon="5.55155">
        <ele>1156.6</ele>
        <time>1970-01-01T00:18:55.000Z</time>
      </trkpt>
      <trkpt lat="45.0704" lon="5.55153">
        <ele>1156.6</ele>
        <time>1970-01-01T00:19:06.000Z</time>
      </trkpt>
      <trkpt lat="45.07039" lon="5.55154">
        <ele>1156.4</ele>
        <time>1970-01-01T00:19:11.000Z</time>
      </trkpt>
      <trkpt lat="45.07039" lon="5.55155">
        <ele>1156.2</ele>
        <time>1970-01-01T00:19:12.000Z</time>
      </trkpt>
      <trkpt lat="45.07036" lon="5.55157">
        <ele>1156</ele>
        <time>1970-01-01T00:19:15.000Z</time>
      </trkpt>
      <trkpt lat="45.07035" lon="5.55164">
        <ele>1156.6</ele>
        <time>1970-01-01T00:19:21.000Z</time>
      </trkpt>
      <trkpt lat="45.07036" lon="5.55167">
        <ele>1156.6</ele>
        <time>1970-01-01T00:19:26.000Z</time>
      </trkpt>
      <trkpt lat="45.07036" lon="5.55166">
        <ele>1156.6</ele>
        <time>1970-01-01T00:19:33.000Z</time>
      </trkpt>
      <trkpt lat="45.07035" lon="5.55167">
        <ele>1156.6</ele>
        <time>1970-01-01T00:19:34.000Z</time>
      </trkpt>
      <trkpt lat="45.07035" lon="5.55169">
        <ele>1156.6</ele>
        <time>1970-01-01T00:19:36.000Z</time>
      </trkpt>
      <trkpt lat="45.07034" lon="5.55172">
        <ele>1156.6</ele>
        <time>1970-01-01T00:19:38.000Z</time>
      </trkpt>
      <trkpt lat="45.07034" lon="5.55174">
        <ele>1156.6</ele>
        <time>1970-01-01T00:19:40.000Z</time>
      </trkpt>
      <trkpt lat="45.07034" lon="5.55178">
        <ele>1156.6</ele>
        <time>1970-01-01T00:19:44.000Z</time>
      </trkpt>
      <trkpt lat="45.07034" lon="5.55179">
        <ele>1156.6</ele>
        <time>1970-01-01T00:19:45.000Z</time>
      </trkpt>
      <trkpt lat="45.07034" lon="5.5518">
        <ele>1156.6</ele>
        <time>1970-01-01T00:19:46.000Z</time>
      </trkpt>
      <trkpt lat="45.07034" lon="5.55181">
        <ele>1156.6</ele>
        <time>1970-01-01T00:19:47.000Z</time>
      </trkpt>
      <trkpt lat="45.07035" lon="5.55181">
        <ele>1156.6</ele>
        <time>1970-01-01T00:19:49.000Z</time>
      </trkpt>
      <trkpt lat="45.07034" lon="5.55186">
        <ele>1156.8</ele>
        <time>1970-01-01T00:19:51.000Z</time>
      </trkpt>
      <trkpt lat="45.07033" lon="5.55187">
        <ele>1156.8</ele>
        <time>1970-01-01T00:19:52.000Z</time>
      </trkpt>
      <trkpt lat="45.07034" lon="5.55188">
        <ele>1156.8</ele>
        <time>1970-01-01T00:19:53.000Z</time>
      </trkpt>
      <trkpt lat="45.07033" lon="5.55196">
        <ele>1156.8</ele>
        <time>1970-01-01T00:19:59.000Z</time>
      </trkpt>
      <trkpt lat="45.07034" lon="5.55204">
        <ele>1157</ele>
        <time>1970-01-01T00:20:05.000Z</time>
      </trkpt>
      <trkpt lat="45.07034" lon="5.55209">
        <ele>1157.2</ele>
        <time>1970-01-01T00:20:08.000Z</time>
      </trkpt>
      <trkpt lat="45.07034" lon="5.55211">
        <ele>1157.4</ele>
        <time>1970-01-01T00:20:09.000Z</time>
      </trkpt>
      <trkpt lat="45.07032" lon="5.55218">
        <ele>1157.8</ele>
        <time>1970-01-01T00:20:12.000Z</time>
      </trkpt>
      <trkpt lat="45.07032" lon="5.5522">
        <ele>1157.8</ele>
        <time>1970-01-01T00:20:13.000Z</time>
      </trkpt>
      <trkpt lat="45.07032" lon="5.55224">
        <ele>1158.4</ele>
        <time>1970-01-01T00:20:16.000Z</time>
      </trkpt>
      <trkpt lat="45.07031" lon="5.55225">
        <ele>1158.4</ele>
        <time>1970-01-01T00:20:17.000Z</time>
      </trkpt>
      <trkpt lat="45.0703" lon="5.5523">
        <ele>1158</ele>
        <time>1970-01-01T00:20:22.000Z</time>
      </trkpt>
      <trkpt lat="45.07029" lon="5.55233">
        <ele>1158</ele>
        <time>1970-01-01T00:20:24.000Z</time>
      </trkpt>
      <trkpt lat="45.07029" lon="5.55236">
        <ele>1158.2</ele>
        <time>1970-01-01T00:20:28.000Z</time>
      </trkpt>
      <trkpt lat="45.07028" lon="5.55237">
        <ele>1158.2</ele>
        <time>1970-01-01T00:20:29.000Z</time>
      </trkpt>
      <trkpt lat="45.07028" lon="5.55238">
        <ele>1158.2</ele>
        <time>1970-01-01T00:20:31.000Z</time>
      </trkpt>
      <trkpt lat="45.07026" lon="5.5524">
        <ele>1158.4</ele>
        <time>1970-01-01T00:20:33.000Z</time>
      </trkpt>
      <trkpt lat="45.07024" lon="5.55244">
        <ele>1158.6</ele>
        <time>1970-01-01T00:20:36.000Z</time>
      </trkpt>
      <trkpt lat="45.07023" lon="5.55245">
        <ele>1159</ele>
        <time>1970-01-01T00:20:40.000Z</time>
      </trkpt>
      <trkpt lat="45.07022" lon="5.55245">
        <ele>1159</ele>
        <time>1970-01-01T00:20:41.000Z</time>
      </trkpt>
      <trkpt lat="45.07022" lon="5.55246">
        <ele>1159.2</ele>
        <time>1970-01-01T00:20:42.000Z</time>
      </trkpt>
      <trkpt lat="45.07018" lon="5.55253">
        <ele>1159</ele>
        <time>1970-01-01T00:20:51.000Z</time>
      </trkpt>
      <trkpt lat="45.07018" lon="5.55254">
        <ele>1159</ele>
        <time>1970-01-01T00:20:52.000Z</time>
      </trkpt>
      <trkpt lat="45.07017" lon="5.55255">
        <ele>1159</ele>
        <time>1970-01-01T00:20:53.000Z</time>
      </trkpt>
      <trkpt lat="45.07017" lon="5.55257">
        <ele>1159</ele>
        <time>1970-01-01T00:20:56.000Z</time>
      </trkpt>
      <trkpt lat="45.07018" lon="5.55261">
        <ele>1159</ele>
        <time>1970-01-01T00:21:00.000Z</time>
      </trkpt>
      <trkpt lat="45.07017" lon="5.55268">
        <ele>1159</ele>
        <time>1970-01-01T00:21:06.000Z</time>
      </trkpt>
      <trkpt lat="45.07017" lon="5.55269">
        <ele>1159</ele>
        <time>1970-01-01T00:21:07.000Z</time>
      </trkpt>
      <trkpt lat="45.07017" lon="5.5527">
        <ele>1159.4</ele>
        <time>1970-01-01T00:21:08.000Z</time>
      </trkpt>
      <trkpt lat="45.07016" lon="5.55273">
        <ele>1159.6</ele>
        <time>1970-01-01T00:21:10.000Z</time>
      </trkpt>
      <trkpt lat="45.07016" lon="5.55275">
        <ele>1159.6</ele>
        <time>1970-01-01T00:21:12.000Z</time>
      </trkpt>
      <trkpt lat="45.07016" lon="5.55277">
        <ele>1159.6</ele>
        <time>1970-01-01T00:21:13.000Z</time>
      </trkpt>
      <trkpt lat="45.07017" lon="5.55286">
        <ele>1159.6</ele>
        <time>1970-01-01T00:21:19.000Z</time>
      </trkpt>
      <trkpt lat="45.07019" lon="5.55289">
        <ele>1159.8</ele>
        <time>1970-01-01T00:21:21.000Z</time>
      </trkpt>
      <trkpt lat="45.0702" lon="5.55296">
        <ele>1160.2</ele>
        <time>1970-01-01T00:21:27.000Z</time>
      </trkpt>
      <trkpt lat="45.0702" lon="5.55298">
        <ele>1160.2</ele>
        <time>1970-01-01T00:21:29.000Z</time>
      </trkpt>
      <trkpt lat="45.0702" lon="5.55303">
        <ele>1160.2</ele>
        <time>1970-01-01T00:21:33.000Z</time>
      </trkpt>
      <trkpt lat="45.0702" lon="5.55316">
        <ele>1160.2</ele>
        <time>1970-01-01T00:21:40.000Z</time>
      </trkpt>
      <trkpt lat="45.07019" lon="5.5532">
        <ele>1160</ele>
        <time>1970-01-01T00:21:43.000Z</time>
      </trkpt>
      <trkpt lat="45.07019" lon="5.55325">
        <ele>1160.2</ele>
        <time>1970-01-01T00:21:47.000Z</time>
      </trkpt>
      <trkpt lat="45.07019" lon="5.55327">
        <ele>1160.4</ele>
        <time>1970-01-01T00:21:49.000Z</time>
      </trkpt>
      <trkpt lat="45.07016" lon="5.55332">
        <ele>1160.8</ele>
        <time>1970-01-01T00:21:54.000Z</time>
      </trkpt>
      <trkpt lat="45.07016" lon="5.55337">
        <ele>1160.8</ele>
        <time>1970-01-01T00:22:00.000Z</time>
      </trkpt>
      <trkpt lat="45.07016" lon="5.55338">
        <ele>1161.2</ele>
        <time>1970-01-01T00:22:01.000Z</time>
      </trkpt>
      <trkpt lat="45.07016" lon="5.55341">
        <ele>1161.6</ele>
        <time>1970-01-01T00:22:03.000Z</time>
      </trkpt>
      <trkpt lat="45.07016" lon="5.55342">
        <ele>1161.6</ele>
        <time>1970-01-01T00:22:04.000Z</time>
      </trkpt>
      <trkpt lat="45.07015" lon="5.55347">
        <ele>1162</ele>
        <time>1970-01-01T00:22:07.000Z</time>
      </trkpt>
      <trkpt lat="45.07014" lon="5.55351">
        <ele>1162.4</ele>
        <time>1970-01-01T00:22:09.000Z</time>
      </trkpt>
      <trkpt lat="45.07014" lon="5.55356">
        <ele>1162.6</ele>
        <time>1970-01-01T00:22:11.000Z</time>
      </trkpt>
      <trkpt lat="45.07015" lon="5.55358">
        <ele>1162.8</ele>
        <time>1970-01-01T00:22:12.000Z</time>
      </trkpt>
      <trkpt lat="45.07015" lon="5.5536">
        <ele>1162.8</ele>
        <time>1970-01-01T00:22:13.000Z</time>
      </trkpt>
      <trkpt lat="45.07013" lon="5.55372">
        <ele>1162.8</ele>
        <time>1970-01-01T00:22:18.000Z</time>
      </trkpt>
      <trkpt lat="45.07012" lon="5.55376">
        <ele>1162.8</ele>
        <time>1970-01-01T00:22:20.000Z</time>
      </trkpt>
      <trkpt lat="45.07012" lon="5.55377">
        <ele>1162.8</ele>
        <time>1970-01-01T00:22:21.000Z</time>
      </trkpt>
      <trkpt lat="45.07012" lon="5.5538">
        <ele>1163</ele>
        <time>1970-01-01T00:22:23.000Z</time>
      </trkpt>
      <trkpt lat="45.07012" lon="5.55383">
        <ele>1163</ele>
        <time>1970-01-01T00:22:24.000Z</time>
      </trkpt>
      <trkpt lat="45.07011" lon="5.55392">
        <ele>1163.4</ele>
        <time>1970-01-01T00:22:30.000Z</time>
      </trkpt>
      <trkpt lat="45.07011" lon="5.55397">
        <ele>1163.6</ele>
        <time>1970-01-01T00:22:33.000Z</time>
      </trkpt>
      <trkpt lat="45.07011" lon="5.55398">
        <ele>1163.6</ele>
        <time>1970-01-01T00:22:34.000Z</time>
      </trkpt>
      <trkpt lat="45.0701" lon="5.55401">
        <ele>1163.4</ele>
        <time>1970-01-01T00:22:38.000Z</time>
      </trkpt>
      <trkpt lat="45.0701" lon="5.55406">
        <ele>1163.6</ele>
        <time>1970-01-01T00:22:41.000Z</time>
      </trkpt>
      <trkpt lat="45.07011" lon="5.55409">
        <ele>1164.2</ele>
        <time>1970-01-01T00:22:44.000Z</time>
      </trkpt>
      <trkpt lat="45.07011" lon="5.55414">
        <ele>1164.4</ele>
        <time>1970-01-01T00:22:47.000Z</time>
      </trkpt>
      <trkpt lat="45.07011" lon="5.55417">
        <ele>1164.8</ele>
        <time>1970-01-01T00:22:50.000Z</time>
      </trkpt>
      <trkpt lat="45.07011" lon="5.55418">
        <ele>1164.8</ele>
        <time>1970-01-01T00:22:51.000Z</time>
      </trkpt>
      <trkpt lat="45.07011" lon="5.55422">
        <ele>1165.4</ele>
        <time>1970-01-01T00:22:54.000Z</time>
      </trkpt>
      <trkpt lat="45.07011" lon="5.55425">
        <ele>1165.2</ele>
        <time>1970-01-01T00:22:56.000Z</time>
      </trkpt>
      <trkpt lat="45.07011" lon="5.55426">
        <ele>1165</ele>
        <time>1970-01-01T00:22:57.000Z</time>
      </trkpt>
      <trkpt lat="45.07013" lon="5.55433">
        <ele>1164.8</ele>
        <time>1970-01-01T00:23:02.000Z</time>
      </trkpt>
      <trkpt lat="45.07013" lon="5.55436">
        <ele>1164.8</ele>
        <time>1970-01-01T00:23:03.000Z</time>
      </trkpt>
      <trkpt lat="45.07016" lon="5.5544">
        <ele>1165.2</ele>
        <time>1970-01-01T00:23:05.000Z</time>
      </trkpt>
      <trkpt lat="45.07016" lon="5.55447">
        <ele>1165.2</ele>
        <time>1970-01-01T00:23:07.000Z</time>
      </trkpt>
      <trkpt lat="45.07017" lon="5.55454">
        <ele>1165.2</ele>
        <time>1970-01-01T00:23:10.000Z</time>
      </trkpt>
      <trkpt lat="45.07022" lon="5.55455">
        <ele>1165.6</ele>
        <time>1970-01-01T00:23:16.000Z</time>
      </trkpt>
      <trkpt lat="45.07023" lon="5.55456">
        <ele>1165.6</ele>
        <time>1970-01-01T00:23:17.000Z</time>
      </trkpt>
      <trkpt lat="45.07025" lon="5.55459">
        <ele>1165.6</ele>
        <time>1970-01-01T00:23:19.000Z</time>
      </trkpt>
      <trkpt lat="45.07026" lon="5.5546">
        <ele>1165.6</ele>
        <time>1970-01-01T00:23:21.000Z</time>
      </trkpt>
      <trkpt lat="45.07027" lon="5.5546">
        <ele>1165.4</ele>
        <time>1970-01-01T00:23:23.000Z</time>
      </trkpt>
      <trkpt lat="45.07028" lon="5.55461">
        <ele>1165.4</ele>
        <time>1970-01-01T00:23:25.000Z</time>
      </trkpt>
      <trkpt lat="45.07047" lon="5.55481">
        <ele>1164.4</ele>
        <time>1970-01-01T00:24:39.000Z</time>
      </trkpt>
      <trkpt lat="45.0705" lon="5.55479">
        <ele>1164.8</ele>
        <time>1970-01-01T00:24:41.000Z</time>
      </trkpt>
      <trkpt lat="45.07058" lon="5.55483">
        <ele>1164.6</ele>
        <time>1970-01-01T00:24:47.000Z</time>
      </trkpt>
      <trkpt lat="45.07074" lon="5.5549">
        <ele>1164.6</ele>
        <time>1970-01-01T00:24:58.000Z</time>
      </trkpt>
      <trkpt lat="45.07086" lon="5.55492">
        <ele>1164.6</ele>
        <time>1970-01-01T00:25:05.000Z</time>
      </trkpt>
      <trkpt lat="45.07096" lon="5.55492">
        <ele>1165</ele>
        <time>1970-01-01T00:25:11.000Z</time>
      </trkpt>
      <trkpt lat="45.07098" lon="5.5549">
        <ele>1164.8</ele>
        <time>1970-01-01T00:25:13.000Z</time>
      </trkpt>
      <trkpt lat="45.07101" lon="5.55493">
        <ele>1164</ele>
        <time>1970-01-01T00:25:19.000Z</time>
      </trkpt>
      <trkpt lat="45.07103" lon="5.55496">
        <ele>1164.2</ele>
        <time>1970-01-01T00:25:23.000Z</time>
      </trkpt>
      <trkpt lat="45.07102" lon="5.55506">
        <ele>1164.6</ele>
        <time>1970-01-01T00:25:29.000Z</time>
      </trkpt>
      <trkpt lat="45.07102" lon="5.55507">
        <ele>1164.6</ele>
        <time>1970-01-01T00:25:30.000Z</time>
      </trkpt>
      <trkpt lat="45.07099" lon="5.5551">
        <ele>1164.8</ele>
        <time>1970-01-01T00:25:33.000Z</time>
      </trkpt>
      <trkpt lat="45.07098" lon="5.55513">
        <ele>1165</ele>
        <time>1970-01-01T00:25:35.000Z</time>
      </trkpt>
      <trkpt lat="45.071" lon="5.5552">
        <ele>1165.4</ele>
        <time>1970-01-01T00:25:39.000Z</time>
      </trkpt>
      <trkpt lat="45.07103" lon="5.55536">
        <ele>1166</ele>
        <time>1970-01-01T00:25:49.000Z</time>
      </trkpt>
      <trkpt lat="45.07103" lon="5.55537">
        <ele>1166</ele>
        <time>1970-01-01T00:25:50.000Z</time>
      </trkpt>
      <trkpt lat="45.07101" lon="5.55538">
        <ele>1166.2</ele>
        <time>1970-01-01T00:25:52.000Z</time>
      </trkpt>
      <trkpt lat="45.071" lon="5.55539">
        <ele>1166.4</ele>
        <time>1970-01-01T00:25:53.000Z</time>
      </trkpt>
      <trkpt lat="45.07098" lon="5.55542">
        <ele>1166.6</ele>
        <time>1970-01-01T00:25:56.000Z</time>
      </trkpt>
      <trkpt lat="45.07098" lon="5.55545">
        <ele>1166.6</ele>
        <time>1970-01-01T00:25:58.000Z</time>
      </trkpt>
      <trkpt lat="45.07098" lon="5.55548">
        <ele>1167.2</ele>
        <time>1970-01-01T00:26:00.000Z</time>
      </trkpt>
      <trkpt lat="45.07097" lon="5.55549">
        <ele>1167.4</ele>
        <time>1970-01-01T00:26:01.000Z</time>
      </trkpt>
      <trkpt lat="45.07096" lon="5.5555">
        <ele>1167.6</ele>
        <time>1970-01-01T00:26:04.000Z</time>
      </trkpt>
      <trkpt lat="45.07097" lon="5.5556">
        <ele>1168</ele>
        <time>1970-01-01T00:26:12.000Z</time>
      </trkpt>
      <trkpt lat="45.07097" lon="5.55562">
        <ele>1168</ele>
        <time>1970-01-01T00:26:14.000Z</time>
      </trkpt>
      <trkpt lat="45.07097" lon="5.55563">
        <ele>1168</ele>
        <time>1970-01-01T00:26:15.000Z</time>
      </trkpt>
      <trkpt lat="45.07095" lon="5.55568">
        <ele>1168.2</ele>
        <time>1970-01-01T00:26:19.000Z</time>
      </trkpt>
      <trkpt lat="45.07093" lon="5.55569">
        <ele>1168.4</ele>
        <time>1970-01-01T00:26:21.000Z</time>
      </trkpt>
      <trkpt lat="45.07091" lon="5.55574">
        <ele>1169.2</ele>
        <time>1970-01-01T00:26:26.000Z</time>
      </trkpt>
      <trkpt lat="45.07089" lon="5.55577">
        <ele>1169.2</ele>
        <time>1970-01-01T00:26:28.000Z</time>
      </trkpt>
      <trkpt lat="45.07086" lon="5.55581">
        <ele>1169.6</ele>
        <time>1970-01-01T00:26:31.000Z</time>
      </trkpt>
      <trkpt lat="45.0708" lon="5.55591">
        <ele>1170</ele>
        <time>1970-01-01T00:26:39.000Z</time>
      </trkpt>
      <trkpt lat="45.07079" lon="5.55593">
        <ele>1170.4</ele>
        <time>1970-01-01T00:26:42.000Z</time>
      </trkpt>
      <trkpt lat="45.07074" lon="5.55605">
        <ele>1171</ele>
        <time>1970-01-01T00:26:51.000Z</time>
      </trkpt>
      <trkpt lat="45.07074" lon="5.55606">
        <ele>1171</ele>
        <time>1970-01-01T00:26:52.000Z</time>
      </trkpt>
      <trkpt lat="45.07073" lon="5.55613">
        <ele>1171.4</ele>
        <time>1970-01-01T00:26:55.000Z</time>
      </trkpt>
      <trkpt lat="45.07072" lon="5.55614">
        <ele>1171.6</ele>
        <time>1970-01-01T00:26:56.000Z</time>
      </trkpt>
      <trkpt lat="45.07071" lon="5.55616">
        <ele>1171.8</ele>
        <time>1970-01-01T00:26:58.000Z</time>
      </trkpt>
      <trkpt lat="45.0707" lon="5.55616">
        <ele>1171.8</ele>
        <time>1970-01-01T00:26:59.000Z</time>
      </trkpt>
      <trkpt lat="45.07069" lon="5.55616">
        <ele>1172</ele>
        <time>1970-01-01T00:27:00.000Z</time>
      </trkpt>
      <trkpt lat="45.07066" lon="5.55615">
        <ele>1172.2</ele>
        <time>1970-01-01T00:27:02.000Z</time>
      </trkpt>
      <trkpt lat="45.07065" lon="5.55618">
        <ele>1172.4</ele>
        <time>1970-01-01T00:27:07.000Z</time>
      </trkpt>
      <trkpt lat="45.07065" lon="5.55621">
        <ele>1172.6</ele>
        <time>1970-01-01T00:27:09.000Z</time>
      </trkpt>
      <trkpt lat="45.07065" lon="5.55631">
        <ele>1173</ele>
        <time>1970-01-01T00:27:15.000Z</time>
      </trkpt>
      <trkpt lat="45.07058" lon="5.55637">
        <ele>1173.4</ele>
        <time>1970-01-01T00:27:21.000Z</time>
      </trkpt>
      <trkpt lat="45.07056" lon="5.55639">
        <ele>1173.6</ele>
        <time>1970-01-01T00:27:23.000Z</time>
      </trkpt>
      <trkpt lat="45.07054" lon="5.55644">
        <ele>1174.2</ele>
        <time>1970-01-01T00:29:35.000Z</time>
      </trkpt>
      <trkpt lat="45.07055" lon="5.55644">
        <ele>1174.2</ele>
        <time>1970-01-01T00:29:36.000Z</time>
      </trkpt>
      <trkpt lat="45.07055" lon="5.55646">
        <ele>1174</ele>
        <time>1970-01-01T00:29:48.000Z</time>
      </trkpt>
      <trkpt lat="45.07054" lon="5.55646">
        <ele>1174.2</ele>
        <time>1970-01-01T00:29:49.000Z</time>
      </trkpt>
      <trkpt lat="45.07051" lon="5.55651">
        <ele>1174.4</ele>
        <time>1970-01-01T00:29:54.000Z</time>
      </trkpt>
      <trkpt lat="45.07049" lon="5.55651">
        <ele>1174.6</ele>
        <time>1970-01-01T00:29:56.000Z</time>
      </trkpt>
      <trkpt lat="45.07048" lon="5.55651">
        <ele>1174.6</ele>
        <time>1970-01-01T00:29:57.000Z</time>
      </trkpt>
      <trkpt lat="45.07042" lon="5.55662">
        <ele>1174.4</ele>
        <time>1970-01-01T00:30:06.000Z</time>
      </trkpt>
      <trkpt lat="45.07041" lon="5.55663">
        <ele>1174.6</ele>
        <time>1970-01-01T00:30:07.000Z</time>
      </trkpt>
      <trkpt lat="45.07038" lon="5.55664">
        <ele>1174.8</ele>
        <time>1970-01-01T00:30:09.000Z</time>
      </trkpt>
      <trkpt lat="45.07037" lon="5.55664">
        <ele>1174.8</ele>
        <time>1970-01-01T00:30:10.000Z</time>
      </trkpt>
      <trkpt lat="45.07033" lon="5.55674">
        <ele>1174.6</ele>
        <time>1970-01-01T00:30:22.000Z</time>
      </trkpt>
      <trkpt lat="45.07033" lon="5.55681">
        <ele>1176</ele>
        <time>1970-01-01T00:30:26.000Z</time>
      </trkpt>
      <trkpt lat="45.06904" lon="5.55858">
        <ele>1059.3</ele>
      </trkpt>
      <trkpt lat="45.06807" lon="5.55975">
        <ele>1070</ele>
      </trkpt>
      <trkpt lat="45.06809" lon="5.55871">
        <ele>1065</ele>
      </trkpt>
      <trkpt lat="45.06566" lon="5.56149">
        <ele>1088.8</ele>
      </trkpt>
      <trkpt lat="45.06451" lon="5.56482">
        <ele>1105.7</ele>
      </trkpt>
      <trkpt lat="45.06259" lon="5.5666">
        <ele>1105.7</ele>
      </trkpt>
      <trkpt lat="45.06324" lon="5.56693">
        <ele>1117.2</ele>
      </trkpt>
      <trkpt lat="45.06456" lon="5.56627">
        <ele>1130.6</ele>
      </trkpt>
      <trkpt lat="45.06585" lon="5.56672">
        <ele>1111.9</ele>
      </trkpt>
      <trkpt lat="45.06538" lon="5.56744">
        <ele>1125</ele>
      </trkpt>
      <trkpt lat="45.06622" lon="5.57174">
        <ele>1174.1</ele>
      </trkpt>
      <trkpt lat="45.06575" lon="5.5718">
        <ele>1185.6</ele>
      </trkpt>
      <trkpt lat="45.06571" lon="5.5727">
        <ele>1198.4</ele>
      </trkpt>
      <trkpt lat="45.06449" lon="5.57583">
        <ele>1242.3</ele>
      </trkpt>
      <trkpt lat="45.06405" lon="5.57629">
        <ele>1257.8</ele>
      </trkpt>
      <trkpt lat="45.06222" lon="5.57736">
        <ele>1273</ele>
      </trkpt>
      <trkpt lat="45.06226" lon="5.57741">
        <ele>1396.8</ele>
        <time>1970-01-01T01:20:07.000Z</time>
      </trkpt>
      <trkpt lat="45.06226" lon="5.57745">
        <ele>1397.8</ele>
        <time>1970-01-01T01:20:13.000Z</time>
      </trkpt>
      <trkpt lat="45.06226" lon="5.57746">
        <ele>1397.8</ele>
        <time>1970-01-01T01:20:14.000Z</time>
      </trkpt>
      <trkpt lat="45.06227" lon="5.57747">
        <ele>1398.2</ele>
        <time>1970-01-01T01:20:17.000Z</time>
      </trkpt>
      <trkpt lat="45.06228" lon="5.57747">
        <ele>1398.4</ele>
        <time>1970-01-01T01:20:21.000Z</time>
      </trkpt>
      <trkpt lat="45.06227" lon="5.57748">
        <ele>1398.8</ele>
        <time>1970-01-01T01:20:25.000Z</time>
      </trkpt>
      <trkpt lat="45.06228" lon="5.57752">
        <ele>1399</ele>
        <time>1970-01-01T01:20:29.000Z</time>
      </trkpt>
      <trkpt lat="45.06225" lon="5.57758">
        <ele>1399</ele>
        <time>1970-01-01T01:20:34.000Z</time>
      </trkpt>
      <trkpt lat="45.06223" lon="5.57761">
        <ele>1399.2</ele>
        <time>1970-01-01T01:20:36.000Z</time>
      </trkpt>
      <trkpt lat="45.06222" lon="5.57762">
        <ele>1399.2</ele>
        <time>1970-01-01T01:20:37.000Z</time>
      </trkpt>
      <trkpt lat="45.0622" lon="5.57769">
        <ele>1399.8</ele>
        <time>1970-01-01T01:20:43.000Z</time>
      </trkpt>
      <trkpt lat="45.06219" lon="5.57771">
        <ele>1399.8</ele>
        <time>1970-01-01T01:20:44.000Z</time>
      </trkpt>
      <trkpt lat="45.06219" lon="5.57776">
        <ele>1400</ele>
        <time>1970-01-01T01:20:48.000Z</time>
      </trkpt>
      <trkpt lat="45.06219" lon="5.57777">
        <ele>1400.2</ele>
        <time>1970-01-01T01:20:50.000Z</time>
      </trkpt>
      <trkpt lat="45.06219" lon="5.57779">
        <ele>1400.2</ele>
        <time>1970-01-01T01:20:52.000Z</time>
      </trkpt>
      <trkpt lat="45.06218" lon="5.57781">
        <ele>1401</ele>
        <time>1970-01-01T01:20:55.000Z</time>
      </trkpt>
      <trkpt lat="45.06217" lon="5.57783">
        <ele>1401.2</ele>
        <time>1970-01-01T01:20:57.000Z</time>
      </trkpt>
      <trkpt lat="45.06218" lon="5.57784">
        <ele>1401.4</ele>
        <time>1970-01-01T01:20:59.000Z</time>
      </trkpt>
      <trkpt lat="45.06217" lon="5.57786">
        <ele>1402</ele>
        <time>1970-01-01T01:21:15.000Z</time>
      </trkpt>
      <trkpt lat="45.06216" lon="5.57788">
        <ele>1401.8</ele>
        <time>1970-01-01T01:21:24.000Z</time>
      </trkpt>
      <trkpt lat="45.06216" lon="5.5779">
        <ele>1401.8</ele>
        <time>1970-01-01T01:21:31.000Z</time>
      </trkpt>
      <trkpt lat="45.06214" lon="5.57796">
        <ele>1402.4</ele>
        <time>1970-01-01T01:21:37.000Z</time>
      </trkpt>
      <trkpt lat="45.06215" lon="5.57797">
        <ele>1402.4</ele>
        <time>1970-01-01T01:21:40.000Z</time>
      </trkpt>
      <trkpt lat="45.06214" lon="5.57803">
        <ele>1402.4</ele>
        <time>1970-01-01T01:21:45.000Z</time>
      </trkpt>
      <trkpt lat="45.0621" lon="5.57809">
        <ele>1402.8</ele>
        <time>1970-01-01T01:21:52.000Z</time>
      </trkpt>
      <trkpt lat="45.06209" lon="5.5781">
        <ele>1403</ele>
        <time>1970-01-01T01:21:54.000Z</time>
      </trkpt>
      <trkpt lat="45.06208" lon="5.57811">
        <ele>1403.6</ele>
        <time>1970-01-01T01:21:58.000Z</time>
      </trkpt>
      <trkpt lat="45.06207" lon="5.57812">
        <ele>1404.2</ele>
        <time>1970-01-01T01:22:02.000Z</time>
      </trkpt>
      <trkpt lat="45.06207" lon="5.57813">
        <ele>1404.4</ele>
        <time>1970-01-01T01:22:03.000Z</time>
      </trkpt>
      <trkpt lat="45.06205" lon="5.57817">
        <ele>1404.6</ele>
        <time>1970-01-01T01:22:06.000Z</time>
      </trkpt>
      <trkpt lat="45.06204" lon="5.57819">
        <ele>1404.8</ele>
        <time>1970-01-01T01:22:07.000Z</time>
      </trkpt>
      <trkpt lat="45.06204" lon="5.5782">
        <ele>1404.8</ele>
        <time>1970-01-01T01:22:08.000Z</time>
      </trkpt>
      <trkpt lat="45.06204" lon="5.57823">
        <ele>1405</ele>
        <time>1970-01-01T01:22:11.000Z</time>
      </trkpt>
      <trkpt lat="45.06203" lon="5.57823">
        <ele>1405.2</ele>
        <time>1970-01-01T01:22:12.000Z</time>
      </trkpt>
      <trkpt lat="45.06202" lon="5.57825">
        <ele>1405.4</ele>
        <time>1970-01-01T01:22:14.000Z</time>
      </trkpt>
      <trkpt lat="45.06201" lon="5.57827">
        <ele>1405.6</ele>
        <time>1970-01-01T01:22:16.000Z</time>
      </trkpt>
      <trkpt lat="45.062" lon="5.57828">
        <ele>1405.8</ele>
        <time>1970-01-01T01:22:17.000Z</time>
      </trkpt>
      <trkpt lat="45.06198" lon="5.57831">
        <ele>1406.2</ele>
        <time>1970-01-01T01:22:21.000Z</time>
      </trkpt>
      <trkpt lat="45.06197" lon="5.57832">
        <ele>1406.4</ele>
        <time>1970-01-01T01:22:22.000Z</time>
      </trkpt>
      <trkpt lat="45.06195" lon="5.57835">
        <ele>1407</ele>
        <time>1970-01-01T01:22:27.000Z</time>
      </trkpt>
      <trkpt lat="45.06193" lon="5.57837">
        <ele>1407.4</ele>
        <time>1970-01-01T01:22:30.000Z</time>
      </trkpt>
      <trkpt lat="45.06192" lon="5.57838">
        <ele>1407.8</ele>
        <time>1970-01-01T01:22:32.000Z</time>
      </trkpt>
      <trkpt lat="45.0619" lon="5.57839">
        <ele>1408</ele>
        <time>1970-01-01T01:22:34.000Z</time>
      </trkpt>
      <trkpt lat="45.06189" lon="5.57842">
        <ele>1408.2</ele>
        <time>1970-01-01T01:22:36.000Z</time>
      </trkpt>
      <trkpt lat="45.06188" lon="5.57843">
        <ele>1408.4</ele>
        <time>1970-01-01T01:22:37.000Z</time>
      </trkpt>
      <trkpt lat="45.06187" lon="5.57844">
        <ele>1408.8</ele>
        <time>1970-01-01T01:22:39.000Z</time>
      </trkpt>
      <trkpt lat="45.06186" lon="5.57846">
        <ele>1409</ele>
        <time>1970-01-01T01:22:41.000Z</time>
      </trkpt>
      <trkpt lat="45.06186" lon="5.57848">
        <ele>1409.4</ele>
        <time>1970-01-01T01:22:43.000Z</time>
      </trkpt>
      <trkpt lat="45.06185" lon="5.57852">
        <ele>1410.4</ele>
        <time>1970-01-01T01:22:48.000Z</time>
      </trkpt>
      <trkpt lat="45.06185" lon="5.57853">
        <ele>1410.4</ele>
        <time>1970-01-01T01:22:49.000Z</time>
      </trkpt>
      <trkpt lat="45.06185" lon="5.57854">
        <ele>1410.6</ele>
        <time>1970-01-01T01:22:51.000Z</time>
      </trkpt>
      <trkpt lat="45.06186" lon="5.57857">
        <ele>1411.6</ele>
        <time>1970-01-01T01:22:56.000Z</time>
      </trkpt>
      <trkpt lat="45.06187" lon="5.57858">
        <ele>1411.8</ele>
        <time>1970-01-01T01:22:58.000Z</time>
      </trkpt>
      <trkpt lat="45.06187" lon="5.57862">
        <ele>1412.2</ele>
        <time>1970-01-01T01:23:03.000Z</time>
      </trkpt>
      <trkpt lat="45.06185" lon="5.57863">
        <ele>1413</ele>
        <time>1970-01-01T01:23:09.000Z</time>
      </trkpt>
      <trkpt lat="45.06184" lon="5.57864">
        <ele>1413.2</ele>
        <time>1970-01-01T01:23:12.000Z</time>
      </trkpt>
      <trkpt lat="45.06181" lon="5.5787">
        <ele>1414</ele>
        <time>1970-01-01T01:23:18.000Z</time>
      </trkpt>
      <trkpt lat="45.06181" lon="5.57869">
        <ele>1414.6</ele>
        <time>1970-01-01T01:23:22.000Z</time>
      </trkpt>
      <trkpt lat="45.06185" lon="5.57865">
        <ele>1414.6</ele>
        <time>1970-01-01T01:23:25.000Z</time>
      </trkpt>
      <trkpt lat="45.06185" lon="5.5787">
        <ele>1414.4</ele>
        <time>1970-01-01T01:23:35.000Z</time>
      </trkpt>
      <trkpt lat="45.06183" lon="5.57869">
        <ele>1414.4</ele>
        <time>1970-01-01T01:23:37.000Z</time>
      </trkpt>
      <trkpt lat="45.06185" lon="5.57864">
        <ele>1414.4</ele>
        <time>1970-01-01T01:23:42.000Z</time>
      </trkpt>
      <trkpt lat="45.06184" lon="5.57865">
        <ele>1414.4</ele>
        <time>1970-01-01T01:23:49.000Z</time>
      </trkpt>
      <trkpt lat="45.06183" lon="5.57864">
        <ele>1414.6</ele>
        <time>1970-01-01T01:23:51.000Z</time>
      </trkpt>
      <trkpt lat="45.06182" lon="5.5786">
        <ele>1414.2</ele>
        <time>1970-01-01T01:24:00.000Z</time>
      </trkpt>
      <trkpt lat="45.06175" lon="5.57857">
        <ele>1414.6</ele>
        <time>1970-01-01T01:24:09.000Z</time>
      </trkpt>
      <trkpt lat="45.0617" lon="5.57859">
        <ele>1414.2</ele>
        <time>1970-01-01T01:24:14.000Z</time>
      </trkpt>
      <trkpt lat="45.06169" lon="5.5786">
        <ele>1414.2</ele>
        <time>1970-01-01T01:24:17.000Z</time>
      </trkpt>
      <trkpt lat="45.06168" lon="5.5786">
        <ele>1414.2</ele>
        <time>1970-01-01T01:24:18.000Z</time>
      </trkpt>
      <trkpt lat="45.06167" lon="5.57859">
        <ele>1414.4</ele>
        <time>1970-01-01T01:24:21.000Z</time>
      </trkpt>
      <trkpt lat="45.06169" lon="5.57862">
        <ele>1414.4</ele>
        <time>1970-01-01T01:24:25.000Z</time>
      </trkpt>
      <trkpt lat="45.06171" lon="5.57864">
        <ele>1414.2</ele>
        <time>1970-01-01T01:24:32.000Z</time>
      </trkpt>
      <trkpt lat="45.06169" lon="5.5786">
        <ele>1414.2</ele>
        <time>1970-01-01T01:24:36.000Z</time>
      </trkpt>
      <trkpt lat="45.06169" lon="5.57859">
        <ele>1414.4</ele>
        <time>1970-01-01T01:24:37.000Z</time>
      </trkpt>
      <trkpt lat="45.06169" lon="5.57858">
        <ele>1414.4</ele>
        <time>1970-01-01T01:24:42.000Z</time>
      </trkpt>
      <trkpt lat="45.06168" lon="5.57857">
        <ele>1414.4</ele>
        <time>1970-01-01T01:24:43.000Z</time>
      </trkpt>
      <trkpt lat="45.06167" lon="5.57852">
        <ele>1414.2</ele>
        <time>1970-01-01T01:24:47.000Z</time>
      </trkpt>
      <trkpt lat="45.06169" lon="5.57851">
        <ele>1414.8</ele>
        <time>1970-01-01T01:24:56.000Z</time>
      </trkpt>
      <trkpt lat="45.0617" lon="5.57851">
        <ele>1414.8</ele>
        <time>1970-01-01T01:24:57.000Z</time>
      </trkpt>
      <trkpt lat="45.06171" lon="5.57851">
        <ele>1414.8</ele>
        <time>1970-01-01T01:24:59.000Z</time>
      </trkpt>
      <trkpt lat="45.06175" lon="5.57854">
        <ele>1414.8</ele>
        <time>1970-01-01T01:25:04.000Z</time>
      </trkpt>
      <trkpt lat="45.06176" lon="5.57854">
        <ele>1415</ele>
        <time>1970-01-01T01:25:07.000Z</time>
      </trkpt>
      <trkpt lat="45.06176" lon="5.57856">
        <ele>1415</ele>
        <time>1970-01-01T01:25:11.000Z</time>
      </trkpt>
      <trkpt lat="45.06178" lon="5.57859">
        <ele>1415</ele>
        <time>1970-01-01T01:25:14.000Z</time>
      </trkpt>
      <trkpt lat="45.06179" lon="5.57861">
        <ele>1415.2</ele>
        <time>1970-01-01T01:25:15.000Z</time>
      </trkpt>
      <trkpt lat="45.06181" lon="5.57869">
        <ele>1415.2</ele>
        <time>1970-01-01T01:25:18.000Z</time>
      </trkpt>
      <trkpt lat="45.0618" lon="5.57872">
        <ele>1415</ele>
        <time>1970-01-01T01:25:26.000Z</time>
      </trkpt>
      <trkpt lat="45.06177" lon="5.57873">
        <ele>1415.2</ele>
        <time>1970-01-01T01:25:33.000Z</time>
      </trkpt>
      <trkpt lat="45.06176" lon="5.5787">
        <ele>1415</ele>
        <time>1970-01-01T01:25:38.000Z</time>
      </trkpt>
      <trkpt lat="45.06176" lon="5.57868">
        <ele>1415.2</ele>
        <time>1970-01-01T01:25:41.000Z</time>
      </trkpt>
      <trkpt lat="45.06175" lon="5.57867">
        <ele>1415.2</ele>
        <time>1970-01-01T01:25:43.000Z</time>
      </trkpt>
      <trkpt lat="45.06175" lon="5.57866">
        <ele>1414.4</ele>
        <time>1970-01-01T01:26:00.000Z</time>
      </trkpt>
      <trkpt lat="45.06172" lon="5.5787">
        <ele>1414.4</ele>
        <time>1970-01-01T01:26:02.000Z</time>
      </trkpt>
      <trkpt lat="45.06173" lon="5.57862">
        <ele>1414.4</ele>
        <time>1970-01-01T01:26:11.000Z</time>
      </trkpt>
      <trkpt lat="45.06175" lon="5.57859">
        <ele>1414.4</ele>
        <time>1970-01-01T01:26:17.000Z</time>
      </trkpt>
      <trkpt lat="45.06174" lon="5.5786">
        <ele>1414.4</ele>
        <time>1970-01-01T01:26:19.000Z</time>
      </trkpt>
      <trkpt lat="45.06175" lon="5.57862">
        <ele>1414.4</ele>
        <time>1970-01-01T01:26:20.000Z</time>
      </trkpt>
      <trkpt lat="45.06174" lon="5.57863">
        <ele>1414.4</ele>
        <time>1970-01-01T01:26:21.000Z</time>
      </trkpt>
      <trkpt lat="45.06172" lon="5.57868">
        <ele>1414.4</ele>
        <time>1970-01-01T01:26:24.000Z</time>
      </trkpt>
      <trkpt lat="45.06167" lon="5.57872">
        <ele>1414.2</ele>
        <time>1970-01-01T01:26:30.000Z</time>
      </trkpt>
      <trkpt lat="45.06166" lon="5.57873">
        <ele>1414.4</ele>
        <time>1970-01-01T01:26:31.000Z</time>
      </trkpt>
      <trkpt lat="45.06164" lon="5.57876">
        <ele>1414.4</ele>
        <time>1970-01-01T01:26:33.000Z</time>
      </trkpt>
      <trkpt lat="45.06163" lon="5.57878">
        <ele>1415</ele>
        <time>1970-01-01T01:26:35.000Z</time>
      </trkpt>
      <trkpt lat="45.06162" lon="5.57882">
        <ele>1415.4</ele>
        <time>1970-01-01T01:26:37.000Z</time>
      </trkpt>
      <trkpt lat="45.0616" lon="5.57886">
        <ele>1415.6</ele>
        <time>1970-01-01T01:26:40.000Z</time>
      </trkpt>
      <trkpt lat="45.06157" lon="5.57891">
        <ele>1415.4</ele>
        <time>1970-01-01T01:26:44.000Z</time>
      </trkpt>
      <trkpt lat="45.06156" lon="5.57892">
        <ele>1415.6</ele>
        <time>1970-01-01T01:26:45.000Z</time>
      </trkpt>
      <trkpt lat="45.06153" lon="5.57899">
        <ele>1416.4</ele>
        <time>1970-01-01T01:26:50.000Z</time>
      </trkpt>
      <trkpt lat="45.06151" lon="5.57901">
        <ele>1416.6</ele>
        <time>1970-01-01T01:26:52.000Z</time>
      </trkpt>
      <trkpt lat="45.06149" lon="5.57904">
        <ele>1417.2</ele>
        <time>1970-01-01T01:26:59.000Z</time>
      </trkpt>
      <trkpt lat="45.06148" lon="5.57904">
        <ele>1417.2</ele>
        <time>1970-01-01T01:27:00.000Z</time>
      </trkpt>
      <trkpt lat="45.06145" lon="5.57907">
        <ele>1417.4</ele>
        <time>1970-01-01T01:27:05.000Z</time>
      </trkpt>
      <trkpt lat="45.06144" lon="5.57908">
        <ele>1417.4</ele>
        <time>1970-01-01T01:27:06.000Z</time>
      </trkpt>
      <trkpt lat="45.06144" lon="5.57909">
        <ele>1417.6</ele>
        <time>1970-01-01T01:27:07.000Z</time>
      </trkpt>
      <trkpt lat="45.06143" lon="5.57909">
        <ele>1417.8</ele>
        <time>1970-01-01T01:27:09.000Z</time>
      </trkpt>
      <trkpt lat="45.06139" lon="5.57911">
        <ele>1417.8</ele>
        <time>1970-01-01T01:27:14.000Z</time>
      </trkpt>
      <trkpt lat="45.06138" lon="5.57911">
        <ele>1417.8</ele>
        <time>1970-01-01T01:27:15.000Z</time>
      </trkpt>
      <trkpt lat="45.06134" lon="5.57911">
        <ele>1418</ele>
        <time>1970-01-01T01:27:21.000Z</time>
      </trkpt>
      <trkpt lat="45.06133" lon="5.57911">
        <ele>1418.2</ele>
        <time>1970-01-01T01:27:22.000Z</time>
      </trkpt>
      <trkpt lat="45.06132" lon="5.57912">
        <ele>1418.4</ele>
        <time>1970-01-01T01:27:24.000Z</time>
      </trkpt>
      <trkpt lat="45.06131" lon="5.57913">
        <ele>1418.4</ele>
        <time>1970-01-01T01:27:26.000Z</time>
      </trkpt>
      <trkpt lat="45.0613" lon="5.57914">
        <ele>1418.6</ele>
        <time>1970-01-01T01:27:27.000Z</time>
      </trkpt>
      <trkpt lat="45.06125" lon="5.57917">
        <ele>1418.4</ele>
        <time>1970-01-01T01:27:31.000Z</time>
      </trkpt>
      <trkpt lat="45.06124" lon="5.57919">
        <ele>1418.4</ele>
        <time>1970-01-01T01:27:34.000Z</time>
      </trkpt>
      <trkpt lat="45.06123" lon="5.57919">
        <ele>1418.4</ele>
        <time>1970-01-01T01:27:35.000Z</time>
      </trkpt>
      <trkpt lat="45.06121" lon="5.57921">
        <ele>1418.8</ele>
        <time>1970-01-01T01:27:37.000Z</time>
      </trkpt>
      <trkpt lat="45.06119" lon="5.57922">
        <ele>1418.8</ele>
        <time>1970-01-01T01:27:39.000Z</time>
      </trkpt>
      <trkpt lat="45.06118" lon="5.57923">
        <ele>1419</ele>
        <time>1970-01-01T01:27:41.000Z</time>
      </trkpt>
      <trkpt lat="45.06116" lon="5.57925">
        <ele>1419</ele>
        <time>1970-01-01T01:27:43.000Z</time>
      </trkpt>
      <trkpt lat="45.06115" lon="5.57932">
        <ele>1419</ele>
        <time>1970-01-01T01:27:48.000Z</time>
      </trkpt>
      <trkpt lat="45.06112" lon="5.57935">
        <ele>1419.4</ele>
        <time>1970-01-01T01:27:53.000Z</time>
      </trkpt>
      <trkpt lat="45.06111" lon="5.57936">
        <ele>1419.4</ele>
        <time>1970-01-01T01:27:54.000Z</time>
      </trkpt>
      <trkpt lat="45.06109" lon="5.57938">
        <ele>1420</ele>
        <time>1970-01-01T01:27:57.000Z</time>
      </trkpt>
      <trkpt lat="45.06109" lon="5.57939">
        <ele>1420.2</ele>
        <time>1970-01-01T01:27:58.000Z</time>
      </trkpt>
      <trkpt lat="45.06108" lon="5.5794">
        <ele>1420.4</ele>
        <time>1970-01-01T01:28:00.000Z</time>
      </trkpt>
      <trkpt lat="45.06107" lon="5.57941">
        <ele>1420.4</ele>
        <time>1970-01-01T01:28:01.000Z</time>
      </trkpt>
      <trkpt lat="45.06105" lon="5.57942">
        <ele>1420.4</ele>
        <time>1970-01-01T01:28:04.000Z</time>
      </trkpt>
      <trkpt lat="45.06104" lon="5.57943">
        <ele>1420.4</ele>
        <time>1970-01-01T01:28:06.000Z</time>
      </trkpt>
      <trkpt lat="45.06102" lon="5.57946">
        <ele>1420.8</ele>
        <time>1970-01-01T01:28:11.000Z</time>
      </trkpt>
      <trkpt lat="45.06102" lon="5.57947">
        <ele>1421.2</ele>
        <time>1970-01-01T01:28:13.000Z</time>
      </trkpt>
      <trkpt lat="45.06101" lon="5.57947">
        <ele>1421.6</ele>
        <time>1970-01-01T01:28:17.000Z</time>
      </trkpt>
      <trkpt lat="45.06101" lon="5.57945">
        <ele>1421.6</ele>
        <time>1970-01-01T01:28:28.000Z</time>
      </trkpt>
      <trkpt lat="45.06101" lon="5.57944">
        <ele>1421.8</ele>
        <time>1970-01-01T01:28:29.000Z</time>
      </trkpt>
      <trkpt lat="45.06101" lon="5.57943">
        <ele>1421.8</ele>
        <time>1970-01-01T01:28:30.000Z</time>
      </trkpt>
      <trkpt lat="45.06102" lon="5.57938">
        <ele>1422</ele>
        <time>1970-01-01T01:28:35.000Z</time>
      </trkpt>
      <trkpt lat="45.06103" lon="5.57935">
        <ele>1421.6</ele>
        <time>1970-01-01T01:28:39.000Z</time>
      </trkpt>
      <trkpt lat="45.06104" lon="5.5793">
        <ele>1421.8</ele>
        <time>1970-01-01T01:28:45.000Z</time>
      </trkpt>
      <trkpt lat="45.06103" lon="5.57931">
        <ele>1421.8</ele>
        <time>1970-01-01T01:28:47.000Z</time>
      </trkpt>
      <trkpt lat="45.06102" lon="5.57931">
        <ele>1421.8</ele>
        <time>1970-01-01T01:28:48.000Z</time>
      </trkpt>
      <trkpt lat="45.06101" lon="5.57935">
        <ele>1421.4</ele>
        <time>1970-01-01T01:28:55.000Z</time>
      </trkpt>
      <trkpt lat="45.06101" lon="5.57938">
        <ele>1421.2</ele>
        <time>1970-01-01T01:28:57.000Z</time>
      </trkpt>
      <trkpt lat="45.06101" lon="5.57941">
        <ele>1421.2</ele>
        <time>1970-01-01T01:28:59.000Z</time>
      </trkpt>
      <trkpt lat="45.061" lon="5.57943">
        <ele>1421.6</ele>
        <time>1970-01-01T01:29:02.000Z</time>
      </trkpt>
      <trkpt lat="45.06101" lon="5.57944">
        <ele>1421.8</ele>
        <time>1970-01-01T01:29:04.000Z</time>
      </trkpt>
      <trkpt lat="45.06101" lon="5.57946">
        <ele>1421.8</ele>
        <time>1970-01-01T01:29:06.000Z</time>
      </trkpt>
      <trkpt lat="45.061" lon="5.57952">
        <ele>1421.8</ele>
        <time>1970-01-01T01:29:10.000Z</time>
      </trkpt>
      <trkpt lat="45.061" lon="5.57953">
        <ele>1421.8</ele>
        <time>1970-01-01T01:29:11.000Z</time>
      </trkpt>
      <trkpt lat="45.061" lon="5.57954">
        <ele>1421.6</ele>
        <time>1970-01-01T01:29:12.000Z</time>
      </trkpt>
      <trkpt lat="45.06098" lon="5.57952">
        <ele>1421.8</ele>
        <time>1970-01-01T01:29:22.000Z</time>
      </trkpt>
      <trkpt lat="45.06097" lon="5.57952">
        <ele>1421.8</ele>
        <time>1970-01-01T01:29:23.000Z</time>
      </trkpt>
      <trkpt lat="45.06095" lon="5.57955">
        <ele>1421.8</ele>
        <time>1970-01-01T01:29:28.000Z</time>
      </trkpt>
      <trkpt lat="45.06094" lon="5.57957">
        <ele>1422</ele>
        <time>1970-01-01T01:29:32.000Z</time>
      </trkpt>
      <trkpt lat="45.06093" lon="5.57957">
        <ele>1422.4</ele>
        <time>1970-01-01T01:29:34.000Z</time>
      </trkpt>
      <trkpt lat="45.06087" lon="5.57964">
        <ele>1422.8</ele>
        <time>1970-01-01T01:29:42.000Z</time>
      </trkpt>
      <trkpt lat="45.06086" lon="5.57965">
        <ele>1422.8</ele>
        <time>1970-01-01T01:29:43.000Z</time>
      </trkpt>
      <trkpt lat="45.06084" lon="5.57966">
        <ele>1423</ele>
        <time>1970-01-01T01:29:45.000Z</time>
      </trkpt>
      <trkpt lat="45.06082" lon="5.57968">
        <ele>1423.4</ele>
        <time>1970-01-01T01:29:47.000Z</time>
      </trkpt>
      <trkpt lat="45.06081" lon="5.57969">
        <ele>1423.4</ele>
        <time>1970-01-01T01:29:48.000Z</time>
      </trkpt>
      <trkpt lat="45.0608" lon="5.5797">
        <ele>1423.4</ele>
        <time>1970-01-01T01:29:50.000Z</time>
      </trkpt>
      <trkpt lat="45.06079" lon="5.57971">
        <ele>1423.4</ele>
        <time>1970-01-01T01:29:51.000Z</time>
      </trkpt>
      <trkpt lat="45.06076" lon="5.57975">
        <ele>1423.4</ele>
        <time>1970-01-01T01:29:54.000Z</time>
      </trkpt>
      <trkpt lat="45.06073" lon="5.57977">
        <ele>1423.4</ele>
        <time>1970-01-01T01:29:57.000Z</time>
      </trkpt>
      <trkpt lat="45.06072" lon="5.57978">
        <ele>1423.4</ele>
        <time>1970-01-01T01:29:59.000Z</time>
      </trkpt>
      <trkpt lat="45.0607" lon="5.5798">
        <ele>1423.4</ele>
        <time>1970-01-01T01:30:01.000Z</time>
      </trkpt>
      <trkpt lat="45.06069" lon="5.5798">
        <ele>1423.6</ele>
        <time>1970-01-01T01:30:03.000Z</time>
      </trkpt>
      <trkpt lat="45.06067" lon="5.57981">
        <ele>1423.8</ele>
        <time>1970-01-01T01:30:05.000Z</time>
      </trkpt>
      <trkpt lat="45.06064" lon="5.57983">
        <ele>1424</ele>
        <time>1970-01-01T01:30:08.000Z</time>
      </trkpt>
      <trkpt lat="45.06061" lon="5.57986">
        <ele>1424.2</ele>
        <time>1970-01-01T01:30:12.000Z</time>
      </trkpt>
      <trkpt lat="45.06059" lon="5.57988">
        <ele>1424.4</ele>
        <time>1970-01-01T01:30:14.000Z</time>
      </trkpt>
      <trkpt lat="45.06058" lon="5.57988">
        <ele>1424.4</ele>
        <time>1970-01-01T01:30:15.000Z</time>
      </trkpt>
      <trkpt lat="45.06055" lon="5.57988">
        <ele>1424.8</ele>
        <time>1970-01-01T01:30:19.000Z</time>
      </trkpt>
      <trkpt lat="45.06053" lon="5.57989">
        <ele>1425</ele>
        <time>1970-01-01T01:30:22.000Z</time>
      </trkpt>
      <trkpt lat="45.0605" lon="5.57992">
        <ele>1425.2</ele>
        <time>1970-01-01T01:30:26.000Z</time>
      </trkpt>
      <trkpt lat="45.06049" lon="5.57993">
        <ele>1425.4</ele>
        <time>1970-01-01T01:30:27.000Z</time>
      </trkpt>
      <trkpt lat="45.06048" lon="5.57994">
        <ele>1425.4</ele>
        <time>1970-01-01T01:30:28.000Z</time>
      </trkpt>
      <trkpt lat="45.06047" lon="5.57997">
        <ele>1425.8</ele>
        <time>1970-01-01T01:30:31.000Z</time>
      </trkpt>
      <trkpt lat="45.06046" lon="5.58">
        <ele>1426.2</ele>
        <time>1970-01-01T01:30:34.000Z</time>
      </trkpt>
      <trkpt lat="45.06047" lon="5.58001">
        <ele>1426.4</ele>
        <time>1970-01-01T01:30:36.000Z</time>
      </trkpt>
      <trkpt lat="45.06047" lon="5.58003">
        <ele>1426.6</ele>
        <time>1970-01-01T01:30:38.000Z</time>
      </trkpt>
      <trkpt lat="45.06048" lon="5.58004">
        <ele>1426.8</ele>
        <time>1970-01-01T01:30:41.000Z</time>
      </trkpt>
      <trkpt lat="45.06048" lon="5.58005">
        <ele>1427</ele>
        <time>1970-01-01T01:30:42.000Z</time>
      </trkpt>
      <trkpt lat="45.06048" lon="5.58006">
        <ele>1427.2</ele>
        <time>1970-01-01T01:30:43.000Z</time>
      </trkpt>
      <trkpt lat="45.06048" lon="5.58008">
        <ele>1427.4</ele>
        <time>1970-01-01T01:30:45.000Z</time>
      </trkpt>
      <trkpt lat="45.06047" lon="5.58011">
        <ele>1427.6</ele>
        <time>1970-01-01T01:30:47.000Z</time>
      </trkpt>
      <trkpt lat="45.06046" lon="5.58012">
        <ele>1427.8</ele>
        <time>1970-01-01T01:30:48.000Z</time>
      </trkpt>
      <trkpt lat="45.06046" lon="5.58013">
        <ele>1428</ele>
        <time>1970-01-01T01:30:49.000Z</time>
      </trkpt>
      <trkpt lat="45.06046" lon="5.58014">
        <ele>1428</ele>
        <time>1970-01-01T01:30:50.000Z</time>
      </trkpt>
      <trkpt lat="45.06045" lon="5.58017">
        <ele>1428.2</ele>
        <time>1970-01-01T01:30:52.000Z</time>
      </trkpt>
      <trkpt lat="45.06045" lon="5.58019">
        <ele>1428.6</ele>
        <time>1970-01-01T01:30:54.000Z</time>
      </trkpt>
      <trkpt lat="45.06044" lon="5.5802">
        <ele>1428.6</ele>
        <time>1970-01-01T01:30:55.000Z</time>
      </trkpt>
      <trkpt lat="45.06043" lon="5.58024">
        <ele>1429</ele>
        <time>1970-01-01T01:30:57.000Z</time>
      </trkpt>
      <trkpt lat="45.06043" lon="5.58025">
        <ele>1429.2</ele>
        <time>1970-01-01T01:30:58.000Z</time>
      </trkpt>
      <trkpt lat="45.06042" lon="5.58028">
        <ele>1429.6</ele>
        <time>1970-01-01T01:31:01.000Z</time>
      </trkpt>
      <trkpt lat="45.06042" lon="5.58029">
        <ele>1430</ele>
        <time>1970-01-01T01:31:03.000Z</time>
      </trkpt>
      <trkpt lat="45.06035" lon="5.58039">
        <ele>1430.4</ele>
        <time>1970-01-01T01:31:11.000Z</time>
      </trkpt>
      <trkpt lat="45.06034" lon="5.5804">
        <ele>1430.6</ele>
        <time>1970-01-01T01:31:12.000Z</time>
      </trkpt>
      <trkpt lat="45.06033" lon="5.58041">
        <ele>1430.8</ele>
        <time>1970-01-01T01:31:13.000Z</time>
      </trkpt>
      <trkpt lat="45.06033" lon="5.58043">
        <ele>1430.8</ele>
        <time>1970-01-01T01:31:14.000Z</time>
      </trkpt>
      <trkpt lat="45.0603" lon="5.58048">
        <ele>1431</ele>
        <time>1970-01-01T01:31:17.000Z</time>
      </trkpt>
      <trkpt lat="45.06029" lon="5.58049">
        <ele>1431.2</ele>
        <time>1970-01-01T01:31:18.000Z</time>
      </trkpt>
      <trkpt lat="45.06028" lon="5.58052">
        <ele>1431.4</ele>
        <time>1970-01-01T01:31:20.000Z</time>
      </trkpt>
      <trkpt lat="45.06027" lon="5.58055">
        <ele>1431.8</ele>
        <time>1970-01-01T01:31:23.000Z</time>
      </trkpt>
      <trkpt lat="45.06026" lon="5.58057">
        <ele>1432</ele>
        <time>1970-01-01T01:31:26.000Z</time>
      </trkpt>
      <trkpt lat="45.06025" lon="5.58057">
        <ele>1432.2</ele>
        <time>1970-01-01T01:31:29.000Z</time>
      </trkpt>
      <trkpt lat="45.06023" lon="5.58059">
        <ele>1432.6</ele>
        <time>1970-01-01T01:31:32.000Z</time>
      </trkpt>
      <trkpt lat="45.06013" lon="5.58075">
        <ele>1435.2</ele>
        <time>1970-01-01T02:10:39.000Z</time>
      </trkpt>
      <trkpt lat="45.06014" lon="5.58076">
        <ele>1436</ele>
        <time>1970-01-01T02:10:43.000Z</time>
      </trkpt>
      <trkpt lat="45.06012" lon="5.58076">
        <ele>1436.2</ele>
        <time>1970-01-01T02:11:54.000Z</time>
      </trkpt>
      <trkpt lat="45.06005" lon="5.58091">
        <ele>1436</ele>
        <time>1970-01-01T02:12:39.000Z</time>
      </trkpt>
      <trkpt lat="45.05977" lon="5.58126">
        <ele>1440.8</ele>
        <time>1970-01-01T02:13:26.000Z</time>
      </trkpt>
      <trkpt lat="45.05972" lon="5.58128">
        <ele>1441.4</ele>
        <time>1970-01-01T02:13:30.000Z</time>
      </trkpt>
      <trkpt lat="45.0597" lon="5.58129">
        <ele>1441.4</ele>
        <time>1970-01-01T02:13:31.000Z</time>
      </trkpt>
      <trkpt lat="45.05969" lon="5.58129">
        <ele>1441.4</ele>
        <time>1970-01-01T02:13:32.000Z</time>
      </trkpt>
      <trkpt lat="45.05968" lon="5.5813">
        <ele>1441.4</ele>
        <time>1970-01-01T02:13:33.000Z</time>
      </trkpt>
      <trkpt lat="45.05965" lon="5.58134">
        <ele>1441.8</ele>
        <time>1970-01-01T02:13:37.000Z</time>
      </trkpt>
      <trkpt lat="45.05962" lon="5.58137">
        <ele>1441.8</ele>
        <time>1970-01-01T02:13:40.000Z</time>
      </trkpt>
      <trkpt lat="45.05961" lon="5.58139">
        <ele>1442.2</ele>
        <time>1970-01-01T02:13:42.000Z</time>
      </trkpt>
      <trkpt lat="45.05961" lon="5.58141">
        <ele>1442.4</ele>
        <time>1970-01-01T02:13:43.000Z</time>
      </trkpt>
      <trkpt lat="45.0596" lon="5.58143">
        <ele>1442.8</ele>
        <time>1970-01-01T02:13:46.000Z</time>
      </trkpt>
      <trkpt lat="45.0596" lon="5.58144">
        <ele>1442.8</ele>
        <time>1970-01-01T02:13:47.000Z</time>
      </trkpt>
      <trkpt lat="45.05958" lon="5.58146">
        <ele>1443.2</ele>
        <time>1970-01-01T02:13:50.000Z</time>
      </trkpt>
      <trkpt lat="45.05956" lon="5.58145">
        <ele>1443.4</ele>
        <time>1970-01-01T02:13:53.000Z</time>
      </trkpt>
      <trkpt lat="45.05956" lon="5.58146">
        <ele>1443.4</ele>
        <time>1970-01-01T02:13:54.000Z</time>
      </trkpt>
      <trkpt lat="45.05954" lon="5.58147">
        <ele>1443.4</ele>
        <time>1970-01-01T02:13:56.000Z</time>
      </trkpt>
      <trkpt lat="45.05951" lon="5.5815">
        <ele>1443.8</ele>
        <time>1970-01-01T02:14:00.000Z</time>
      </trkpt>
      <trkpt lat="45.05951" lon="5.58151">
        <ele>1443.8</ele>
        <time>1970-01-01T02:14:01.000Z</time>
      </trkpt>
      <trkpt lat="45.05951" lon="5.58152">
        <ele>1444</ele>
        <time>1970-01-01T02:14:02.000Z</time>
      </trkpt>
      <trkpt lat="45.0595" lon="5.58156">
        <ele>1444.2</ele>
        <time>1970-01-01T02:14:07.000Z</time>
      </trkpt>
      <trkpt lat="45.05949" lon="5.58157">
        <ele>1444.6</ele>
        <time>1970-01-01T02:14:09.000Z</time>
      </trkpt>
      <trkpt lat="45.05946" lon="5.5816">
        <ele>1445.4</ele>
        <time>1970-01-01T02:14:12.000Z</time>
      </trkpt>
      <trkpt lat="45.05944" lon="5.58161">
        <ele>1445.6</ele>
        <time>1970-01-01T02:14:14.000Z</time>
      </trkpt>
      <trkpt lat="45.05943" lon="5.58161">
        <ele>1445.8</ele>
        <time>1970-01-01T02:14:15.000Z</time>
      </trkpt>
      <trkpt lat="45.05943" lon="5.58162">
        <ele>1445.8</ele>
        <time>1970-01-01T02:14:16.000Z</time>
      </trkpt>
      <trkpt lat="45.0594" lon="5.58163">
        <ele>1446.4</ele>
        <time>1970-01-01T02:14:19.000Z</time>
      </trkpt>
      <trkpt lat="45.05938" lon="5.58165">
        <ele>1446.4</ele>
        <time>1970-01-01T02:14:21.000Z</time>
      </trkpt>
      <trkpt lat="45.05937" lon="5.58165">
        <ele>1446.4</ele>
        <time>1970-01-01T02:14:22.000Z</time>
      </trkpt>
      <trkpt lat="45.05936" lon="5.58166">
        <ele>1446.4</ele>
        <time>1970-01-01T02:14:23.000Z</time>
      </trkpt>
      <trkpt lat="45.05934" lon="5.58167">
        <ele>1446.8</ele>
        <time>1970-01-01T02:14:25.000Z</time>
      </trkpt>
      <trkpt lat="45.05932" lon="5.58168">
        <ele>1447.2</ele>
        <time>1970-01-01T02:14:27.000Z</time>
      </trkpt>
      <trkpt lat="45.05931" lon="5.58168">
        <ele>1447.4</ele>
        <time>1970-01-01T02:14:29.000Z</time>
      </trkpt>
      <trkpt lat="45.05929" lon="5.58172">
        <ele>1447.8</ele>
        <time>1970-01-01T02:14:34.000Z</time>
      </trkpt>
      <trkpt lat="45.05928" lon="5.58173">
        <ele>1447.8</ele>
        <time>1970-01-01T02:14:35.000Z</time>
      </trkpt>
      <trkpt lat="45.05928" lon="5.58174">
        <ele>1448</ele>
        <time>1970-01-01T02:14:37.000Z</time>
      </trkpt>
      <trkpt lat="45.05927" lon="5.58175">
        <ele>1448</ele>
        <time>1970-01-01T02:14:38.000Z</time>
      </trkpt>
      <trkpt lat="45.05927" lon="5.58176">
        <ele>1448.2</ele>
        <time>1970-01-01T02:14:39.000Z</time>
      </trkpt>
      <trkpt lat="45.05926" lon="5.58178">
        <ele>1448.2</ele>
        <time>1970-01-01T02:14:41.000Z</time>
      </trkpt>
      <trkpt lat="45.05926" lon="5.58179">
        <ele>1448.4</ele>
        <time>1970-01-01T02:14:43.000Z</time>
      </trkpt>
      <trkpt lat="45.05925" lon="5.5818">
        <ele>1448.6</ele>
        <time>1970-01-01T02:14:45.000Z</time>
      </trkpt>
      <trkpt lat="45.05924" lon="5.58182">
        <ele>1448.8</ele>
        <time>1970-01-01T02:14:47.000Z</time>
      </trkpt>
      <trkpt lat="45.05924" lon="5.58183">
        <ele>1449</ele>
        <time>1970-01-01T02:14:50.000Z</time>
      </trkpt>
      <trkpt lat="45.05924" lon="5.58184">
        <ele>1449.8</ele>
        <time>1970-01-01T02:14:54.000Z</time>
      </trkpt>
      <trkpt lat="45.05919" lon="5.58187">
        <ele>1449.8</ele>
        <time>1970-01-01T02:14:58.000Z</time>
      </trkpt>
      <trkpt lat="45.05916" lon="5.5819">
        <ele>1449.8</ele>
        <time>1970-01-01T02:15:02.000Z</time>
      </trkpt>
      <trkpt lat="45.05915" lon="5.58192">
        <ele>1450</ele>
        <time>1970-01-01T02:15:04.000Z</time>
      </trkpt>
      <trkpt lat="45.05915" lon="5.58193">
        <ele>1450.2</ele>
        <time>1970-01-01T02:15:05.000Z</time>
      </trkpt>
      <trkpt lat="45.05914" lon="5.58194">
        <ele>1450.6</ele>
        <time>1970-01-01T02:15:06.000Z</time>
      </trkpt>
      <trkpt lat="45.05913" lon="5.58195">
        <ele>1451</ele>
        <time>1970-01-01T02:15:08.000Z</time>
      </trkpt>
      <trkpt lat="45.05913" lon="5.58197">
        <ele>1451.2</ele>
        <time>1970-01-01T02:15:09.000Z</time>
      </trkpt>
      <trkpt lat="45.05913" lon="5.58198">
        <ele>1451.4</ele>
        <time>1970-01-01T02:15:11.000Z</time>
      </trkpt>
      <trkpt lat="45.05912" lon="5.58198">
        <ele>1451.4</ele>
        <time>1970-01-01T02:15:12.000Z</time>
      </trkpt>
      <trkpt lat="45.05913" lon="5.58199">
        <ele>1451.4</ele>
        <time>1970-01-01T02:15:14.000Z</time>
      </trkpt>
      <trkpt lat="45.05913" lon="5.58202">
        <ele>1452.2</ele>
        <time>1970-01-01T02:15:18.000Z</time>
      </trkpt>
      <trkpt lat="45.05913" lon="5.58203">
        <ele>1452.2</ele>
        <time>1970-01-01T02:15:19.000Z</time>
      </trkpt>
      <trkpt lat="45.05913" lon="5.58204">
        <ele>1452.4</ele>
        <time>1970-01-01T02:15:22.000Z</time>
      </trkpt>
      <trkpt lat="45.05908" lon="5.58202">
        <ele>1453.4</ele>
        <time>1970-01-01T02:15:29.000Z</time>
      </trkpt>
      <trkpt lat="45.05907" lon="5.58203">
        <ele>1453.2</ele>
        <time>1970-01-01T02:15:42.000Z</time>
      </trkpt>
      <trkpt lat="45.05906" lon="5.58205">
        <ele>1452.8</ele>
        <time>1970-01-01T02:15:57.000Z</time>
      </trkpt>
      <trkpt lat="45.059" lon="5.5821">
        <ele>1453.8</ele>
        <time>1970-01-01T02:16:04.000Z</time>
      </trkpt>
      <trkpt lat="45.05899" lon="5.58211">
        <ele>1454.2</ele>
        <time>1970-01-01T02:16:06.000Z</time>
      </trkpt>
      <trkpt lat="45.05824" lon="5.58271">
        <ele>1464.8</ele>
        <time>1970-01-01T02:20:07.000Z</time>
      </trkpt>
      <trkpt lat="45.0582" lon="5.58274">
        <ele>1465</ele>
        <time>1970-01-01T02:20:13.000Z</time>
      </trkpt>
      <trkpt lat="45.05819" lon="5.58274">
        <ele>1465.2</ele>
        <time>1970-01-01T02:20:17.000Z</time>
      </trkpt>
      <trkpt lat="45.0582" lon="5.58277">
        <ele>1465.2</ele>
        <time>1970-01-01T02:20:21.000Z</time>
      </trkpt>
      <trkpt lat="45.05821" lon="5.58279">
        <ele>1465.2</ele>
        <time>1970-01-01T02:20:26.000Z</time>
      </trkpt>
      <trkpt lat="45.05822" lon="5.58278">
        <ele>1465.2</ele>
        <time>1970-01-01T02:20:28.000Z</time>
      </trkpt>
      <trkpt lat="45.05821" lon="5.58278">
        <ele>1465.6</ele>
        <time>1970-01-01T02:20:34.000Z</time>
      </trkpt>
      <trkpt lat="45.0582" lon="5.58279">
        <ele>1465.4</ele>
        <time>1970-01-01T02:20:37.000Z</time>
      </trkpt>
      <trkpt lat="45.05812" lon="5.58278">
        <ele>1465.4</ele>
        <time>1970-01-01T02:20:55.000Z</time>
      </trkpt>
      <trkpt lat="45.05707" lon="5.5833">
        <ele>1470.6</ele>
        <time>1970-01-01T02:23:01.000Z</time>
      </trkpt>
      <trkpt lat="45.05705" lon="5.58331">
        <ele>1470.8</ele>
        <time>1970-01-01T02:23:04.000Z</time>
      </trkpt>
      <trkpt lat="45.05704" lon="5.58332">
        <ele>1470.8</ele>
        <time>1970-01-01T02:23:06.000Z</time>
      </trkpt>
      <trkpt lat="45.05703" lon="5.58332">
        <ele>1471</ele>
        <time>1970-01-01T02:23:07.000Z</time>
      </trkpt>
      <trkpt lat="45.05701" lon="5.58333">
        <ele>1471.2</ele>
        <time>1970-01-01T02:23:09.000Z</time>
      </trkpt>
      <trkpt lat="45.057" lon="5.58333">
        <ele>1471.2</ele>
        <time>1970-01-01T02:23:10.000Z</time>
      </trkpt>
      <trkpt lat="45.05695" lon="5.58334">
        <ele>1471.8</ele>
        <time>1970-01-01T02:23:18.000Z</time>
      </trkpt>
      <trkpt lat="45.05688" lon="5.58338">
        <ele>1472</ele>
        <time>1970-01-01T02:23:24.000Z</time>
      </trkpt>
      <trkpt lat="45.05686" lon="5.58339">
        <ele>1472</ele>
        <time>1970-01-01T02:23:26.000Z</time>
      </trkpt>
      <trkpt lat="45.05685" lon="5.58339">
        <ele>1472</ele>
        <time>1970-01-01T02:23:27.000Z</time>
      </trkpt>
      <trkpt lat="45.05684" lon="5.58339">
        <ele>1472.2</ele>
        <time>1970-01-01T02:23:29.000Z</time>
      </trkpt>
      <trkpt lat="45.05678" lon="5.58338">
        <ele>1472.4</ele>
        <time>1970-01-01T02:23:34.000Z</time>
      </trkpt>
      <trkpt lat="45.05675" lon="5.58339">
        <ele>1472.6</ele>
        <time>1970-01-01T02:23:37.000Z</time>
      </trkpt>
      <trkpt lat="45.05674" lon="5.58339">
        <ele>1472.6</ele>
        <time>1970-01-01T02:23:39.000Z</time>
      </trkpt>
      <trkpt lat="45.05673" lon="5.58339">
        <ele>1473</ele>
        <time>1970-01-01T02:23:41.000Z</time>
      </trkpt>
      <trkpt lat="45.05672" lon="5.58339">
        <ele>1473</ele>
        <time>1970-01-01T02:23:42.000Z</time>
      </trkpt>
      <trkpt lat="45.05672" lon="5.58338">
        <ele>1473.2</ele>
        <time>1970-01-01T02:23:43.000Z</time>
      </trkpt>
      <trkpt lat="45.05671" lon="5.58338">
        <ele>1473.2</ele>
        <time>1970-01-01T02:23:44.000Z</time>
      </trkpt>
      <trkpt lat="45.05669" lon="5.58338">
        <ele>1473.4</ele>
        <time>1970-01-01T02:23:46.000Z</time>
      </trkpt>
      <trkpt lat="45.05667" lon="5.5834">
        <ele>1473.6</ele>
        <time>1970-01-01T02:23:48.000Z</time>
      </trkpt>
      <trkpt lat="45.05666" lon="5.58338">
        <ele>1473.8</ele>
        <time>1970-01-01T02:23:50.000Z</time>
      </trkpt>
      <trkpt lat="45.05665" lon="5.58338">
        <ele>1473.8</ele>
        <time>1970-01-01T02:23:51.000Z</time>
      </trkpt>
      <trkpt lat="45.05663" lon="5.58336">
        <ele>1474.4</ele>
        <time>1970-01-01T02:23:54.000Z</time>
      </trkpt>
      <trkpt lat="45.05661" lon="5.58336">
        <ele>1474.4</ele>
        <time>1970-01-01T02:23:56.000Z</time>
      </trkpt>
      <trkpt lat="45.0566" lon="5.58336">
        <ele>1474.4</ele>
        <time>1970-01-01T02:23:57.000Z</time>
      </trkpt>
      <trkpt lat="45.05658" lon="5.58335">
        <ele>1474.8</ele>
        <time>1970-01-01T02:24:00.000Z</time>
      </trkpt>
      <trkpt lat="45.05656" lon="5.58333">
        <ele>1475</ele>
        <time>1970-01-01T02:24:04.000Z</time>
      </trkpt>
      <trkpt lat="45.05655" lon="5.58333">
        <ele>1475.2</ele>
        <time>1970-01-01T02:24:05.000Z</time>
      </trkpt>
      <trkpt lat="45.05654" lon="5.58332">
        <ele>1475.2</ele>
        <time>1970-01-01T02:24:07.000Z</time>
      </trkpt>
      <trkpt lat="45.05653" lon="5.58332">
        <ele>1475.4</ele>
        <time>1970-01-01T02:24:08.000Z</time>
      </trkpt>
      <trkpt lat="45.05651" lon="5.58332">
        <ele>1475.6</ele>
        <time>1970-01-01T02:24:10.000Z</time>
      </trkpt>
      <trkpt lat="45.0565" lon="5.58333">
        <ele>1475.6</ele>
        <time>1970-01-01T02:24:12.000Z</time>
      </trkpt>
      <trkpt lat="45.05647" lon="5.58333">
        <ele>1476.2</ele>
        <time>1970-01-01T02:24:16.000Z</time>
      </trkpt>
      <trkpt lat="45.05645" lon="5.58334">
        <ele>1476.4</ele>
        <time>1970-01-01T02:24:18.000Z</time>
      </trkpt>
      <trkpt lat="45.05644" lon="5.58334">
        <ele>1476.4</ele>
        <time>1970-01-01T02:24:19.000Z</time>
      </trkpt>
      <trkpt lat="45.05643" lon="5.58334">
        <ele>1476.6</ele>
        <time>1970-01-01T02:24:21.000Z</time>
      </trkpt>
      <trkpt lat="45.0564" lon="5.58335">
        <ele>1477</ele>
        <time>1970-01-01T02:24:26.000Z</time>
      </trkpt>
      <trkpt lat="45.05637" lon="5.58336">
        <ele>1477.4</ele>
        <time>1970-01-01T02:24:30.000Z</time>
      </trkpt>
      <trkpt lat="45.05636" lon="5.58336">
        <ele>1477.6</ele>
        <time>1970-01-01T02:24:32.000Z</time>
      </trkpt>
      <trkpt lat="45.05634" lon="5.58335">
        <ele>1477.6</ele>
        <time>1970-01-01T02:24:36.000Z</time>
      </trkpt>
      <trkpt lat="45.05632" lon="5.58335">
        <ele>1477.8</ele>
        <time>1970-01-01T02:24:38.000Z</time>
      </trkpt>
      <trkpt lat="45.05632" lon="5.58333">
        <ele>1478.2</ele>
        <time>1970-01-01T02:24:40.000Z</time>
      </trkpt>
      <trkpt lat="45.0563" lon="5.58334">
        <ele>1478.4</ele>
        <time>1970-01-01T02:24:43.000Z</time>
      </trkpt>
      <trkpt lat="45.05629" lon="5.58335">
        <ele>1478.4</ele>
        <time>1970-01-01T02:24:45.000Z</time>
      </trkpt>
      <trkpt lat="45.05626" lon="5.58335">
        <ele>1478.6</ele>
        <time>1970-01-01T02:24:49.000Z</time>
      </trkpt>
      <trkpt lat="45.05618" lon="5.58329">
        <ele>1479.2</ele>
        <time>1970-01-01T02:24:57.000Z</time>
      </trkpt>
      <trkpt lat="45.05616" lon="5.58329">
        <ele>1479.2</ele>
        <time>1970-01-01T02:25:00.000Z</time>
      </trkpt>
      <trkpt lat="45.05614" lon="5.58329">
        <ele>1479.6</ele>
        <time>1970-01-01T02:25:02.000Z</time>
      </trkpt>
      <trkpt lat="45.05611" lon="5.58329">
        <ele>1480.2</ele>
        <time>1970-01-01T02:25:04.000Z</time>
      </trkpt>
      <trkpt lat="45.05604" lon="5.5833">
        <ele>1480.6</ele>
        <time>1970-01-01T02:25:09.000Z</time>
      </trkpt>
      <trkpt lat="45.05602" lon="5.58331">
        <ele>1480.6</ele>
        <time>1970-01-01T02:25:11.000Z</time>
      </trkpt>
      <trkpt lat="45.056" lon="5.58332">
        <ele>1480.8</ele>
        <time>1970-01-01T02:25:13.000Z</time>
      </trkpt>
      <trkpt lat="45.05598" lon="5.58332">
        <ele>1481</ele>
        <time>1970-01-01T02:25:15.000Z</time>
      </trkpt>
      <trkpt lat="45.05594" lon="5.58333">
        <ele>1481.6</ele>
        <time>1970-01-01T02:25:18.000Z</time>
      </trkpt>
      <trkpt lat="45.05591" lon="5.58333">
        <ele>1481.6</ele>
        <time>1970-01-01T02:25:21.000Z</time>
      </trkpt>
      <trkpt lat="45.05589" lon="5.58335">
        <ele>1481.8</ele>
        <time>1970-01-01T02:25:23.000Z</time>
      </trkpt>
      <trkpt lat="45.05583" lon="5.58337">
        <ele>1482.6</ele>
        <time>1970-01-01T02:25:28.000Z</time>
      </trkpt>
      <trkpt lat="45.05582" lon="5.58338">
        <ele>1482.8</ele>
        <time>1970-01-01T02:25:29.000Z</time>
      </trkpt>
      <trkpt lat="45.05581" lon="5.58338">
        <ele>1482.8</ele>
        <time>1970-01-01T02:25:30.000Z</time>
      </trkpt>
      <trkpt lat="45.05578" lon="5.5834">
        <ele>1483.4</ele>
        <time>1970-01-01T02:25:33.000Z</time>
      </trkpt>
      <trkpt lat="45.05577" lon="5.58341">
        <ele>1483.4</ele>
        <time>1970-01-01T02:25:34.000Z</time>
      </trkpt>
      <trkpt lat="45.05575" lon="5.58341">
        <ele>1484</ele>
        <time>1970-01-01T02:25:37.000Z</time>
      </trkpt>
      <trkpt lat="45.05573" lon="5.58341">
        <ele>1484.6</ele>
        <time>1970-01-01T02:25:41.000Z</time>
      </trkpt>
      <trkpt lat="45.05571" lon="5.5834">
        <ele>1485</ele>
        <time>1970-01-01T02:25:44.000Z</time>
      </trkpt>
      <trkpt lat="45.0557" lon="5.5834">
        <ele>1485.4</ele>
        <time>1970-01-01T02:25:47.000Z</time>
      </trkpt>
      <trkpt lat="45.05569" lon="5.5834">
        <ele>1485.8</ele>
        <time>1970-01-01T02:25:50.000Z</time>
      </trkpt>
      <trkpt lat="45.05569" lon="5.58339">
        <ele>1486.4</ele>
        <time>1970-01-01T02:25:53.000Z</time>
      </trkpt>
      <trkpt lat="45.05569" lon="5.58338">
        <ele>1486.6</ele>
        <time>1970-01-01T02:25:55.000Z</time>
      </trkpt>
      <trkpt lat="45.05568" lon="5.58335">
        <ele>1487.4</ele>
        <time>1970-01-01T02:25:59.000Z</time>
      </trkpt>
      <trkpt lat="45.05566" lon="5.58334">
        <ele>1487.8</ele>
        <time>1970-01-01T02:26:02.000Z</time>
      </trkpt>
      <trkpt lat="45.05565" lon="5.58336">
        <ele>1488.4</ele>
        <time>1970-01-01T02:26:05.000Z</time>
      </trkpt>
      <trkpt lat="45.05564" lon="5.58337">
        <ele>1488.8</ele>
        <time>1970-01-01T02:26:08.000Z</time>
      </trkpt>
      <trkpt lat="45.05563" lon="5.58339">
        <ele>1489.6</ele>
        <time>1970-01-01T02:26:11.000Z</time>
      </trkpt>
      <trkpt lat="45.05562" lon="5.58341">
        <ele>1489.8</ele>
        <time>1970-01-01T02:26:15.000Z</time>
      </trkpt>
      <trkpt lat="45.05561" lon="5.58342">
        <ele>1489.8</ele>
        <time>1970-01-01T02:26:16.000Z</time>
      </trkpt>
      <trkpt lat="45.05561" lon="5.58343">
        <ele>1490.2</ele>
        <time>1970-01-01T02:26:17.000Z</time>
      </trkpt>
      <trkpt lat="45.05559" lon="5.58346">
        <ele>1490.6</ele>
        <time>1970-01-01T02:26:22.000Z</time>
      </trkpt>
      <trkpt lat="45.05558" lon="5.58346">
        <ele>1491</ele>
        <time>1970-01-01T02:26:24.000Z</time>
      </trkpt>
      <trkpt lat="45.05556" lon="5.58345">
        <ele>1491.6</ele>
        <time>1970-01-01T02:26:27.000Z</time>
      </trkpt>
      <trkpt lat="45.05555" lon="5.58345">
        <ele>1491.8</ele>
        <time>1970-01-01T02:26:28.000Z</time>
      </trkpt>
      <trkpt lat="45.05553" lon="5.58343">
        <ele>1492.2</ele>
        <time>1970-01-01T02:26:31.000Z</time>
      </trkpt>
      <trkpt lat="45.05552" lon="5.58342">
        <ele>1492.2</ele>
        <time>1970-01-01T02:26:33.000Z</time>
      </trkpt>
      <trkpt lat="45.05551" lon="5.58341">
        <ele>1492.6</ele>
        <time>1970-01-01T02:26:35.000Z</time>
      </trkpt>
      <trkpt lat="45.0555" lon="5.5834">
        <ele>1492.6</ele>
        <time>1970-01-01T02:26:36.000Z</time>
      </trkpt>
      <trkpt lat="45.05542" lon="5.58338">
        <ele>1493.6</ele>
        <time>1970-01-01T02:26:42.000Z</time>
      </trkpt>
      <trkpt lat="45.05541" lon="5.58338">
        <ele>1493.8</ele>
        <time>1970-01-01T02:26:43.000Z</time>
      </trkpt>
      <trkpt lat="45.05541" lon="5.58337">
        <ele>1494.4</ele>
        <time>1970-01-01T02:26:46.000Z</time>
      </trkpt>
      <trkpt lat="45.05541" lon="5.58336">
        <ele>1494.8</ele>
        <time>1970-01-01T02:26:48.000Z</time>
      </trkpt>
      <trkpt lat="45.05541" lon="5.58338">
        <ele>1495.2</ele>
        <time>1970-01-01T02:26:52.000Z</time>
      </trkpt>
      <trkpt lat="45.05541" lon="5.58341">
        <ele>1495.4</ele>
        <time>1970-01-01T02:26:57.000Z</time>
      </trkpt>
      <trkpt lat="45.05537" lon="5.58343">
        <ele>1495.2</ele>
        <time>1970-01-01T02:27:05.000Z</time>
      </trkpt>
      <trkpt lat="45.05532" lon="5.58342">
        <ele>1495.6</ele>
        <time>1970-01-01T02:27:09.000Z</time>
      </trkpt>
      <trkpt lat="45.05532" lon="5.58341">
        <ele>1495.6</ele>
        <time>1970-01-01T02:27:12.000Z</time>
      </trkpt>
      <trkpt lat="45.05534" lon="5.58337">
        <ele>1495.4</ele>
        <time>1970-01-01T02:27:18.000Z</time>
      </trkpt>
      <trkpt lat="45.05542" lon="5.58331">
        <ele>1495.6</ele>
        <time>1970-01-01T02:27:26.000Z</time>
      </trkpt>
      <trkpt lat="45.05542" lon="5.58333">
        <ele>1495.6</ele>
        <time>1970-01-01T02:27:29.000Z</time>
      </trkpt>
      <trkpt lat="45.05541" lon="5.58334">
        <ele>1495.6</ele>
        <time>1970-01-01T02:27:36.000Z</time>
      </trkpt>
      <trkpt lat="45.05541" lon="5.58335">
        <ele>1495.6</ele>
        <time>1970-01-01T02:27:39.000Z</time>
      </trkpt>
      <trkpt lat="45.05542" lon="5.58337">
        <ele>1495.6</ele>
        <time>1970-01-01T02:27:43.000Z</time>
      </trkpt>
      <trkpt lat="45.05541" lon="5.58335">
        <ele>1495.4</ele>
        <time>1970-01-01T02:27:49.000Z</time>
      </trkpt>
      <trkpt lat="45.0554" lon="5.58332">
        <ele>1495.4</ele>
        <time>1970-01-01T02:27:54.000Z</time>
      </trkpt>
      <trkpt lat="45.0554" lon="5.58331">
        <ele>1495.4</ele>
        <time>1970-01-01T02:27:55.000Z</time>
      </trkpt>
      <trkpt lat="45.0554" lon="5.58329">
        <ele>1495.6</ele>
        <time>1970-01-01T02:27:58.000Z</time>
      </trkpt>
      <trkpt lat="45.05541" lon="5.5833">
        <ele>1496</ele>
        <time>1970-01-01T02:28:00.000Z</time>
      </trkpt>
      <trkpt lat="45.05541" lon="5.58329">
        <ele>1496</ele>
        <time>1970-01-01T02:28:02.000Z</time>
      </trkpt>
      <trkpt lat="45.0554" lon="5.58331">
        <ele>1496</ele>
        <time>1970-01-01T02:28:09.000Z</time>
      </trkpt>
      <trkpt lat="45.0554" lon="5.5833">
        <ele>1496</ele>
        <time>1970-01-01T02:28:12.000Z</time>
      </trkpt>
      <trkpt lat="45.0554" lon="5.58328">
        <ele>1496</ele>
        <time>1970-01-01T02:28:15.000Z</time>
      </trkpt>
      <trkpt lat="45.0554" lon="5.58326">
        <ele>1496</ele>
        <time>1970-01-01T02:28:16.000Z</time>
      </trkpt>
      <trkpt lat="45.05543" lon="5.58314">
        <ele>1495.6</ele>
        <time>1970-01-01T02:28:23.000Z</time>
      </trkpt>
      <trkpt lat="45.05545" lon="5.58311">
        <ele>1494.8</ele>
        <time>1970-01-01T02:28:29.000Z</time>
      </trkpt>
      <trkpt lat="45.05547" lon="5.58306">
        <ele>1494.4</ele>
        <time>1970-01-01T02:28:36.000Z</time>
      </trkpt>
      <trkpt lat="45.0555" lon="5.58301">
        <ele>1493.6</ele>
        <time>1970-01-01T02:28:41.000Z</time>
      </trkpt>
      <trkpt lat="45.05551" lon="5.583">
        <ele>1493.2</ele>
        <time>1970-01-01T02:28:43.000Z</time>
      </trkpt>
      <trkpt lat="45.05552" lon="5.58297">
        <ele>1493</ele>
        <time>1970-01-01T02:28:45.000Z</time>
      </trkpt>
      <trkpt lat="45.05553" lon="5.58292">
        <ele>1492.8</ele>
        <time>1970-01-01T02:28:48.000Z</time>
      </trkpt>
      <trkpt lat="45.05554" lon="5.5829">
        <ele>1492.6</ele>
        <time>1970-01-01T02:28:50.000Z</time>
      </trkpt>
      <trkpt lat="45.05555" lon="5.58286">
        <ele>1492.2</ele>
        <time>1970-01-01T02:28:53.000Z</time>
      </trkpt>
      <trkpt lat="45.0556" lon="5.5828">
        <ele>1491.4</ele>
        <time>1970-01-01T02:28:58.000Z</time>
      </trkpt>
      <trkpt lat="45.05561" lon="5.58278">
        <ele>1491.4</ele>
        <time>1970-01-01T02:28:59.000Z</time>
      </trkpt>
      <trkpt lat="45.05564" lon="5.58274">
        <ele>1491.2</ele>
        <time>1970-01-01T02:29:02.000Z</time>
      </trkpt>
      <trkpt lat="45.05566" lon="5.58272">
        <ele>1490.8</ele>
        <time>1970-01-01T02:29:05.000Z</time>
      </trkpt>
      <trkpt lat="45.05567" lon="5.58271">
        <ele>1490.8</ele>
        <time>1970-01-01T02:29:06.000Z</time>
      </trkpt>
      <trkpt lat="45.05569" lon="5.5827">
        <ele>1490.4</ele>
        <time>1970-01-01T02:29:08.000Z</time>
      </trkpt>
      <trkpt lat="45.05569" lon="5.58269">
        <ele>1490.2</ele>
        <time>1970-01-01T02:29:09.000Z</time>
      </trkpt>
      <trkpt lat="45.05571" lon="5.58267">
        <ele>1490</ele>
        <time>1970-01-01T02:29:11.000Z</time>
      </trkpt>
      <trkpt lat="45.05572" lon="5.58266">
        <ele>1489.6</ele>
        <time>1970-01-01T02:29:13.000Z</time>
      </trkpt>
      <trkpt lat="45.05575" lon="5.58264">
        <ele>1489</ele>
        <time>1970-01-01T02:29:17.000Z</time>
      </trkpt>
      <trkpt lat="45.05575" lon="5.58263">
        <ele>1488.8</ele>
        <time>1970-01-01T02:29:18.000Z</time>
      </trkpt>
      <trkpt lat="45.05576" lon="5.58262">
        <ele>1488.6</ele>
        <time>1970-01-01T02:29:21.000Z</time>
      </trkpt>
      <trkpt lat="45.05577" lon="5.5826">
        <ele>1488.2</ele>
        <time>1970-01-01T02:29:23.000Z</time>
      </trkpt>
      <trkpt lat="45.05577" lon="5.58259">
        <ele>1488.2</ele>
        <time>1970-01-01T02:29:24.000Z</time>
      </trkpt>
      <trkpt lat="45.05578" lon="5.58258">
        <ele>1488</ele>
        <time>1970-01-01T02:29:25.000Z</time>
      </trkpt>
      <trkpt lat="45.05579" lon="5.58255">
        <ele>1487.8</ele>
        <time>1970-01-01T02:29:28.000Z</time>
      </trkpt>
      <trkpt lat="45.05579" lon="5.58254">
        <ele>1487.2</ele>
        <time>1970-01-01T02:29:30.000Z</time>
      </trkpt>
      <trkpt lat="45.0558" lon="5.58252">
        <ele>1486.8</ele>
        <time>1970-01-01T02:29:33.000Z</time>
      </trkpt>
      <trkpt lat="45.0558" lon="5.58249">
        <ele>1486.4</ele>
        <time>1970-01-01T02:29:36.000Z</time>
      </trkpt>
      <trkpt lat="45.05584" lon="5.58243">
        <ele>1486</ele>
        <time>1970-01-01T02:29:44.000Z</time>
      </trkpt>
      <trkpt lat="45.05585" lon="5.58242">
        <ele>1485.6</ele>
        <time>1970-01-01T02:29:45.000Z</time>
      </trkpt>
      <trkpt lat="45.05586" lon="5.58239">
        <ele>1485</ele>
        <time>1970-01-01T02:29:49.000Z</time>
      </trkpt>
      <trkpt lat="45.05587" lon="5.58238">
        <ele>1484.8</ele>
        <time>1970-01-01T02:29:50.000Z</time>
      </trkpt>
      <trkpt lat="45.05588" lon="5.58236">
        <ele>1484.4</ele>
        <time>1970-01-01T02:29:52.000Z</time>
      </trkpt>
      <trkpt lat="45.0559" lon="5.58235">
        <ele>1484.2</ele>
        <time>1970-01-01T02:29:55.000Z</time>
      </trkpt>
      <trkpt lat="45.0559" lon="5.58234">
        <ele>1484</ele>
        <time>1970-01-01T02:29:57.000Z</time>
      </trkpt>
      <trkpt lat="45.05592" lon="5.58232">
        <ele>1483.4</ele>
        <time>1970-01-01T02:30:00.000Z</time>
      </trkpt>
      <trkpt lat="45.05592" lon="5.58231">
        <ele>1483.4</ele>
        <time>1970-01-01T02:30:01.000Z</time>
      </trkpt>
      <trkpt lat="45.05594" lon="5.58229">
        <ele>1483.2</ele>
        <time>1970-01-01T02:30:04.000Z</time>
      </trkpt>
      <trkpt lat="45.05595" lon="5.58228">
        <ele>1483.2</ele>
        <time>1970-01-01T02:30:05.000Z</time>
      </trkpt>
      <trkpt lat="45.05596" lon="5.58226">
        <ele>1483.4</ele>
        <time>1970-01-01T02:30:07.000Z</time>
      </trkpt>
      <trkpt lat="45.05598" lon="5.58223">
        <ele>1482.6</ele>
        <time>1970-01-01T02:30:11.000Z</time>
      </trkpt>
      <trkpt lat="45.05599" lon="5.5822">
        <ele>1482.4</ele>
        <time>1970-01-01T02:30:14.000Z</time>
      </trkpt>
      <trkpt lat="45.05601" lon="5.58218">
        <ele>1481.8</ele>
        <time>1970-01-01T02:30:16.000Z</time>
      </trkpt>
      <trkpt lat="45.05601" lon="5.58216">
        <ele>1481.2</ele>
        <time>1970-01-01T02:30:18.000Z</time>
      </trkpt>
      <trkpt lat="45.05602" lon="5.58215">
        <ele>1481</ele>
        <time>1970-01-01T02:30:20.000Z</time>
      </trkpt>
      <trkpt lat="45.05604" lon="5.58212">
        <ele>1480.6</ele>
        <time>1970-01-01T02:30:23.000Z</time>
      </trkpt>
      <trkpt lat="45.05605" lon="5.58211">
        <ele>1480.4</ele>
        <time>1970-01-01T02:30:24.000Z</time>
      </trkpt>
      <trkpt lat="45.05606" lon="5.58209">
        <ele>1480</ele>
        <time>1970-01-01T02:30:26.000Z</time>
      </trkpt>
      <trkpt lat="45.0561" lon="5.58207">
        <ele>1479.4</ele>
        <time>1970-01-01T02:30:30.000Z</time>
      </trkpt>
      <trkpt lat="45.05613" lon="5.58205">
        <ele>1479</ele>
        <time>1970-01-01T02:30:33.000Z</time>
      </trkpt>
      <trkpt lat="45.05617" lon="5.58202">
        <ele>1478.4</ele>
        <time>1970-01-01T02:30:37.000Z</time>
      </trkpt>
      <trkpt lat="45.05619" lon="5.58201">
        <ele>1477.8</ele>
        <time>1970-01-01T02:30:39.000Z</time>
      </trkpt>
      <trkpt lat="45.05622" lon="5.582">
        <ele>1477.6</ele>
        <time>1970-01-01T02:30:42.000Z</time>
      </trkpt>
      <trkpt lat="45.05623" lon="5.58201">
        <ele>1477.4</ele>
        <time>1970-01-01T02:30:44.000Z</time>
      </trkpt>
      <trkpt lat="45.05624" lon="5.58201">
        <ele>1477.4</ele>
        <time>1970-01-01T02:30:45.000Z</time>
      </trkpt>
      <trkpt lat="45.05625" lon="5.58202">
        <ele>1477.2</ele>
        <time>1970-01-01T02:30:46.000Z</time>
      </trkpt>
      <trkpt lat="45.05626" lon="5.58202">
        <ele>1476.6</ele>
        <time>1970-01-01T02:30:48.000Z</time>
      </trkpt>
      <trkpt lat="45.05628" lon="5.58202">
        <ele>1476.2</ele>
        <time>1970-01-01T02:30:50.000Z</time>
      </trkpt>
      <trkpt lat="45.0563" lon="5.58202">
        <ele>1476</ele>
        <time>1970-01-01T02:30:52.000Z</time>
      </trkpt>
      <trkpt lat="45.05632" lon="5.58202">
        <ele>1475.8</ele>
        <time>1970-01-01T02:30:54.000Z</time>
      </trkpt>
      <trkpt lat="45.05634" lon="5.58202">
        <ele>1475.4</ele>
        <time>1970-01-01T02:30:55.000Z</time>
      </trkpt>
      <trkpt lat="45.05638" lon="5.58201">
        <ele>1475.2</ele>
        <time>1970-01-01T02:30:58.000Z</time>
      </trkpt>
      <trkpt lat="45.05639" lon="5.582">
        <ele>1475</ele>
        <time>1970-01-01T02:30:59.000Z</time>
      </trkpt>
      <trkpt lat="45.0564" lon="5.582">
        <ele>1475</ele>
        <time>1970-01-01T02:31:00.000Z</time>
      </trkpt>
      <trkpt lat="45.05642" lon="5.58199">
        <ele>1474.8</ele>
        <time>1970-01-01T02:31:02.000Z</time>
      </trkpt>
      <trkpt lat="45.05643" lon="5.58199">
        <ele>1474.8</ele>
        <time>1970-01-01T02:31:03.000Z</time>
      </trkpt>
      <trkpt lat="45.05646" lon="5.58197">
        <ele>1474.6</ele>
        <time>1970-01-01T02:31:05.000Z</time>
      </trkpt>
      <trkpt lat="45.05648" lon="5.58197">
        <ele>1474.2</ele>
        <time>1970-01-01T02:31:08.000Z</time>
      </trkpt>
      <trkpt lat="45.05651" lon="5.58196">
        <ele>1473.8</ele>
        <time>1970-01-01T02:31:12.000Z</time>
      </trkpt>
      <trkpt lat="45.05652" lon="5.58195">
        <ele>1473.8</ele>
        <time>1970-01-01T02:31:14.000Z</time>
      </trkpt>
      <trkpt lat="45.05655" lon="5.58194">
        <ele>1473.6</ele>
        <time>1970-01-01T02:31:17.000Z</time>
      </trkpt>
      <trkpt lat="45.05658" lon="5.58193">
        <ele>1473.6</ele>
        <time>1970-01-01T02:31:19.000Z</time>
      </trkpt>
      <trkpt lat="45.05659" lon="5.58193">
        <ele>1473.6</ele>
        <time>1970-01-01T02:31:20.000Z</time>
      </trkpt>
      <trkpt lat="45.05661" lon="5.58191">
        <ele>1473.6</ele>
        <time>1970-01-01T02:31:22.000Z</time>
      </trkpt>
      <trkpt lat="45.05662" lon="5.58191">
        <ele>1473.6</ele>
        <time>1970-01-01T02:31:23.000Z</time>
      </trkpt>
      <trkpt lat="45.05664" lon="5.5819">
        <ele>1473.4</ele>
        <time>1970-01-01T02:31:25.000Z</time>
      </trkpt>
      <trkpt lat="45.05665" lon="5.58189">
        <ele>1473.4</ele>
        <time>1970-01-01T02:31:27.000Z</time>
      </trkpt>
      <trkpt lat="45.05665" lon="5.58188">
        <ele>1473.4</ele>
        <time>1970-01-01T02:31:28.000Z</time>
      </trkpt>
      <trkpt lat="45.05667" lon="5.58188">
        <ele>1473.2</ele>
        <time>1970-01-01T02:31:29.000Z</time>
      </trkpt>
      <trkpt lat="45.05668" lon="5.58186">
        <ele>1473</ele>
        <time>1970-01-01T02:31:31.000Z</time>
      </trkpt>
      <trkpt lat="45.0567" lon="5.58185">
        <ele>1473</ele>
        <time>1970-01-01T02:31:33.000Z</time>
      </trkpt>
      <trkpt lat="45.05671" lon="5.58185">
        <ele>1473</ele>
        <time>1970-01-01T02:31:34.000Z</time>
      </trkpt>
      <trkpt lat="45.05677" lon="5.58184">
        <ele>1472.2</ele>
        <time>1970-01-01T02:31:41.000Z</time>
      </trkpt>
      <trkpt lat="45.05678" lon="5.58184">
        <ele>1472.2</ele>
        <time>1970-01-01T02:31:42.000Z</time>
      </trkpt>
      <trkpt lat="45.05679" lon="5.5818">
        <ele>1472.4</ele>
        <time>1970-01-01T02:31:49.000Z</time>
      </trkpt>
      <trkpt lat="45.05679" lon="5.58178">
        <ele>1472.8</ele>
        <time>1970-01-01T02:31:57.000Z</time>
      </trkpt>
      <trkpt lat="45.0568" lon="5.58173">
        <ele>1472.2</ele>
        <time>1970-01-01T02:32:06.000Z</time>
      </trkpt>
      <trkpt lat="45.05681" lon="5.58172">
        <ele>1472.2</ele>
        <time>1970-01-01T02:32:07.000Z</time>
      </trkpt>
      <trkpt lat="45.05681" lon="5.58171">
        <ele>1472.4</ele>
        <time>1970-01-01T02:32:08.000Z</time>
      </trkpt>
      <trkpt lat="45.0568" lon="5.58171">
        <ele>1470.8</ele>
        <time>1970-01-01T02:32:20.000Z</time>
      </trkpt>
      <trkpt lat="45.05681" lon="5.58167">
        <ele>1469.6</ele>
        <time>1970-01-01T02:32:22.000Z</time>
      </trkpt>
      <trkpt lat="45.05682" lon="5.58165">
        <ele>1469</ele>
        <time>1970-01-01T02:32:23.000Z</time>
      </trkpt>
      <trkpt lat="45.05683" lon="5.58164">
        <ele>1468.6</ele>
        <time>1970-01-01T02:32:24.000Z</time>
      </trkpt>
      <trkpt lat="45.05683" lon="5.58163">
        <ele>1468.2</ele>
        <time>1970-01-01T02:32:25.000Z</time>
      </trkpt>
      <trkpt lat="45.05684" lon="5.58161">
        <ele>1467.8</ele>
        <time>1970-01-01T02:32:28.000Z</time>
      </trkpt>
      <trkpt lat="45.05685" lon="5.58161">
        <ele>1467.8</ele>
        <time>1970-01-01T02:32:29.000Z</time>
      </trkpt>
      <trkpt lat="45.05687" lon="5.58159">
        <ele>1467.6</ele>
        <time>1970-01-01T02:32:31.000Z</time>
      </trkpt>
      <trkpt lat="45.05688" lon="5.58157">
        <ele>1467.6</ele>
        <time>1970-01-01T02:32:33.000Z</time>
      </trkpt>
      <trkpt lat="45.05689" lon="5.58156">
        <ele>1467.4</ele>
        <time>1970-01-01T02:32:34.000Z</time>
      </trkpt>
      <trkpt lat="45.05691" lon="5.58154">
        <ele>1466.8</ele>
        <time>1970-01-01T02:32:37.000Z</time>
      </trkpt>
      <trkpt lat="45.05691" lon="5.58153">
        <ele>1466.8</ele>
        <time>1970-01-01T02:32:38.000Z</time>
      </trkpt>
      <trkpt lat="45.05692" lon="5.58152">
        <ele>1466.6</ele>
        <time>1970-01-01T02:32:39.000Z</time>
      </trkpt>
      <trkpt lat="45.05693" lon="5.5815">
        <ele>1466.2</ele>
        <time>1970-01-01T02:32:41.000Z</time>
      </trkpt>
      <trkpt lat="45.05695" lon="5.58147">
        <ele>1465.8</ele>
        <time>1970-01-01T02:32:43.000Z</time>
      </trkpt>
      <trkpt lat="45.05696" lon="5.58146">
        <ele>1465</ele>
        <time>1970-01-01T02:32:45.000Z</time>
      </trkpt>
      <trkpt lat="45.05697" lon="5.58146">
        <ele>1464.8</ele>
        <time>1970-01-01T02:32:46.000Z</time>
      </trkpt>
      <trkpt lat="45.05698" lon="5.58145">
        <ele>1464.6</ele>
        <time>1970-01-01T02:32:47.000Z</time>
      </trkpt>
      <trkpt lat="45.05699" lon="5.58145">
        <ele>1464.6</ele>
        <time>1970-01-01T02:32:48.000Z</time>
      </trkpt>
      <trkpt lat="45.05701" lon="5.58145">
        <ele>1464</ele>
        <time>1970-01-01T02:32:51.000Z</time>
      </trkpt>
      <trkpt lat="45.05703" lon="5.58144">
        <ele>1463.4</ele>
        <time>1970-01-01T02:32:53.000Z</time>
      </trkpt>
      <trkpt lat="45.05704" lon="5.58143">
        <ele>1463.2</ele>
        <time>1970-01-01T02:32:54.000Z</time>
      </trkpt>
      <trkpt lat="45.05709" lon="5.5814">
        <ele>1462.8</ele>
        <time>1970-01-01T02:32:57.000Z</time>
      </trkpt>
      <trkpt lat="45.05711" lon="5.58139">
        <ele>1462.2</ele>
        <time>1970-01-01T02:32:59.000Z</time>
      </trkpt>
      <trkpt lat="45.05713" lon="5.58139">
        <ele>1461.8</ele>
        <time>1970-01-01T02:33:01.000Z</time>
      </trkpt>
      <trkpt lat="45.05718" lon="5.58136">
        <ele>1460.6</ele>
        <time>1970-01-01T02:33:06.000Z</time>
      </trkpt>
      <trkpt lat="45.05719" lon="5.58136">
        <ele>1460.4</ele>
        <time>1970-01-01T02:33:07.000Z</time>
      </trkpt>
      <trkpt lat="45.0572" lon="5.58135">
        <ele>1459.8</ele>
        <time>1970-01-01T02:33:09.000Z</time>
      </trkpt>
      <trkpt lat="45.05722" lon="5.58135">
        <ele>1459.2</ele>
        <time>1970-01-01T02:33:11.000Z</time>
      </trkpt>
      <trkpt lat="45.05723" lon="5.58135">
        <ele>1459</ele>
        <time>1970-01-01T02:33:13.000Z</time>
      </trkpt>
      <trkpt lat="45.05726" lon="5.58132">
        <ele>1458.2</ele>
        <time>1970-01-01T02:33:17.000Z</time>
      </trkpt>
      <trkpt lat="45.05727" lon="5.58131">
        <ele>1458</ele>
        <time>1970-01-01T02:33:18.000Z</time>
      </trkpt>
      <trkpt lat="45.0573" lon="5.5813">
        <ele>1457.6</ele>
        <time>1970-01-01T02:33:21.000Z</time>
      </trkpt>
      <trkpt lat="45.05732" lon="5.58128">
        <ele>1457.2</ele>
        <time>1970-01-01T02:33:24.000Z</time>
      </trkpt>
      <trkpt lat="45.05733" lon="5.58127">
        <ele>1457</ele>
        <time>1970-01-01T02:33:25.000Z</time>
      </trkpt>
      <trkpt lat="45.05738" lon="5.58123">
        <ele>1456.2</ele>
        <time>1970-01-01T02:33:30.000Z</time>
      </trkpt>
      <trkpt lat="45.05739" lon="5.58122">
        <ele>1456</ele>
        <time>1970-01-01T02:33:31.000Z</time>
      </trkpt>
      <trkpt lat="45.0574" lon="5.58121">
        <ele>1455.8</ele>
        <time>1970-01-01T02:33:33.000Z</time>
      </trkpt>
      <trkpt lat="45.05742" lon="5.5812">
        <ele>1455.6</ele>
        <time>1970-01-01T02:33:35.000Z</time>
      </trkpt>
      <trkpt lat="45.05743" lon="5.5812">
        <ele>1455.4</ele>
        <time>1970-01-01T02:33:36.000Z</time>
      </trkpt>
      <trkpt lat="45.05744" lon="5.58119">
        <ele>1455</ele>
        <time>1970-01-01T02:33:38.000Z</time>
      </trkpt>
      <trkpt lat="45.05745" lon="5.58119">
        <ele>1454.6</ele>
        <time>1970-01-01T02:33:40.000Z</time>
      </trkpt>
      <trkpt lat="45.05747" lon="5.58118">
        <ele>1454.4</ele>
        <time>1970-01-01T02:33:42.000Z</time>
      </trkpt>
      <trkpt lat="45.05748" lon="5.58118">
        <ele>1454.4</ele>
        <time>1970-01-01T02:33:43.000Z</time>
      </trkpt>
      <trkpt lat="45.0575" lon="5.58116">
        <ele>1453.8</ele>
        <time>1970-01-01T02:33:45.000Z</time>
      </trkpt>
      <trkpt lat="45.05752" lon="5.58115">
        <ele>1453.4</ele>
        <time>1970-01-01T02:33:47.000Z</time>
      </trkpt>
      <trkpt lat="45.05753" lon="5.58115">
        <ele>1453.2</ele>
        <time>1970-01-01T02:33:48.000Z</time>
      </trkpt>
      <trkpt lat="45.05754" lon="5.58115">
        <ele>1453</ele>
        <time>1970-01-01T02:33:50.000Z</time>
      </trkpt>
      <trkpt lat="45.05755" lon="5.58116">
        <ele>1452.6</ele>
        <time>1970-01-01T02:33:52.000Z</time>
      </trkpt>
      <trkpt lat="45.05759" lon="5.58116">
        <ele>1452.2</ele>
        <time>1970-01-01T02:33:57.000Z</time>
      </trkpt>
      <trkpt lat="45.05763" lon="5.58114">
        <ele>1451.6</ele>
        <time>1970-01-01T02:34:03.000Z</time>
      </trkpt>
      <trkpt lat="45.05762" lon="5.58113">
        <ele>1451.6</ele>
        <time>1970-01-01T02:34:06.000Z</time>
      </trkpt>
      <trkpt lat="45.05758" lon="5.58105">
        <ele>1451.6</ele>
        <time>1970-01-01T02:34:12.000Z</time>
      </trkpt>
      <trkpt lat="45.05758" lon="5.58098">
        <ele>1450.4</ele>
        <time>1970-01-01T02:34:16.000Z</time>
      </trkpt>
      <trkpt lat="45.05758" lon="5.58096">
        <ele>1450</ele>
        <time>1970-01-01T02:34:17.000Z</time>
      </trkpt>
      <trkpt lat="45.05759" lon="5.58094">
        <ele>1449.6</ele>
        <time>1970-01-01T02:34:18.000Z</time>
      </trkpt>
      <trkpt lat="45.05758" lon="5.58093">
        <ele>1449.4</ele>
        <time>1970-01-01T02:34:19.000Z</time>
      </trkpt>
      <trkpt lat="45.05758" lon="5.5809">
        <ele>1448.8</ele>
        <time>1970-01-01T02:34:21.000Z</time>
      </trkpt>
      <trkpt lat="45.05759" lon="5.58086">
        <ele>1448.2</ele>
        <time>1970-01-01T02:34:23.000Z</time>
      </trkpt>
      <trkpt lat="45.0576" lon="5.58083">
        <ele>1447.6</ele>
        <time>1970-01-01T02:34:26.000Z</time>
      </trkpt>
      <trkpt lat="45.05761" lon="5.58082">
        <ele>1446.8</ele>
        <time>1970-01-01T02:34:28.000Z</time>
      </trkpt>
      <trkpt lat="45.05764" lon="5.5808">
        <ele>1446.2</ele>
        <time>1970-01-01T02:34:32.000Z</time>
      </trkpt>
      <trkpt lat="45.05767" lon="5.58078">
        <ele>1445.8</ele>
        <time>1970-01-01T02:34:34.000Z</time>
      </trkpt>
      <trkpt lat="45.05773" lon="5.58075">
        <ele>1444.8</ele>
        <time>1970-01-01T02:34:38.000Z</time>
      </trkpt>
      <trkpt lat="45.05775" lon="5.58072">
        <ele>1444.4</ele>
        <time>1970-01-01T02:34:40.000Z</time>
      </trkpt>
      <trkpt lat="45.05777" lon="5.58067">
        <ele>1443.6</ele>
        <time>1970-01-01T02:34:43.000Z</time>
      </trkpt>
      <trkpt lat="45.05777" lon="5.58066">
        <ele>1443.4</ele>
        <time>1970-01-01T02:34:44.000Z</time>
      </trkpt>
      <trkpt lat="45.05778" lon="5.58065">
        <ele>1443</ele>
        <time>1970-01-01T02:34:45.000Z</time>
      </trkpt>
      <trkpt lat="45.05779" lon="5.58063">
        <ele>1442.6</ele>
        <time>1970-01-01T02:34:47.000Z</time>
      </trkpt>
      <trkpt lat="45.0578" lon="5.58062">
        <ele>1442.4</ele>
        <time>1970-01-01T02:34:48.000Z</time>
      </trkpt>
      <trkpt lat="45.0578" lon="5.5806">
        <ele>1442</ele>
        <time>1970-01-01T02:34:50.000Z</time>
      </trkpt>
      <trkpt lat="45.05781" lon="5.5806">
        <ele>1441.8</ele>
        <time>1970-01-01T02:34:52.000Z</time>
      </trkpt>
      <trkpt lat="45.05782" lon="5.5806">
        <ele>1441.2</ele>
        <time>1970-01-01T02:34:55.000Z</time>
      </trkpt>
      <trkpt lat="45.05782" lon="5.58062">
        <ele>1441</ele>
        <time>1970-01-01T02:34:57.000Z</time>
      </trkpt>
      <trkpt lat="45.05783" lon="5.5806">
        <ele>1440.6</ele>
        <time>1970-01-01T02:34:59.000Z</time>
      </trkpt>
      <trkpt lat="45.05784" lon="5.58057">
        <ele>1440.2</ele>
        <time>1970-01-01T02:35:01.000Z</time>
      </trkpt>
      <trkpt lat="45.05786" lon="5.58055">
        <ele>1440</ele>
        <time>1970-01-01T02:35:03.000Z</time>
      </trkpt>
      <trkpt lat="45.05787" lon="5.58054">
        <ele>1439.6</ele>
        <time>1970-01-01T02:35:05.000Z</time>
      </trkpt>
      <trkpt lat="45.05791" lon="5.58051">
        <ele>1439.2</ele>
        <time>1970-01-01T02:35:09.000Z</time>
      </trkpt>
      <trkpt lat="45.05795" lon="5.58049">
        <ele>1438.6</ele>
        <time>1970-01-01T02:35:11.000Z</time>
      </trkpt>
      <trkpt lat="45.05797" lon="5.58049">
        <ele>1438.4</ele>
        <time>1970-01-01T02:35:13.000Z</time>
      </trkpt>
      <trkpt lat="45.05799" lon="5.58049">
        <ele>1438</ele>
        <time>1970-01-01T02:35:15.000Z</time>
      </trkpt>
      <trkpt lat="45.05801" lon="5.58049">
        <ele>1437.8</ele>
        <time>1970-01-01T02:35:16.000Z</time>
      </trkpt>
      <trkpt lat="45.05805" lon="5.58048">
        <ele>1436.8</ele>
        <time>1970-01-01T02:35:20.000Z</time>
      </trkpt>
      <trkpt lat="45.05808" lon="5.58043">
        <ele>1436</ele>
        <time>1970-01-01T02:35:24.000Z</time>
      </trkpt>
      <trkpt lat="45.0581" lon="5.58042">
        <ele>1435.8</ele>
        <time>1970-01-01T02:35:25.000Z</time>
      </trkpt>
      <trkpt lat="45.05811" lon="5.58041">
        <ele>1435.6</ele>
        <time>1970-01-01T02:35:26.000Z</time>
      </trkpt>
      <trkpt lat="45.05813" lon="5.58039">
        <ele>1435</ele>
        <time>1970-01-01T02:35:28.000Z</time>
      </trkpt>
      <trkpt lat="45.05815" lon="5.58037">
        <ele>1434.4</ele>
        <time>1970-01-01T02:35:31.000Z</time>
      </trkpt>
      <trkpt lat="45.05816" lon="5.58035">
        <ele>1434.2</ele>
        <time>1970-01-01T02:35:33.000Z</time>
      </trkpt>
      <trkpt lat="45.05817" lon="5.58033">
        <ele>1433.8</ele>
        <time>1970-01-01T02:35:35.000Z</time>
      </trkpt>
      <trkpt lat="45.05817" lon="5.58031">
        <ele>1433.2</ele>
        <time>1970-01-01T02:35:37.000Z</time>
      </trkpt>
      <trkpt lat="45.05819" lon="5.5803">
        <ele>1432.6</ele>
        <time>1970-01-01T02:35:42.000Z</time>
      </trkpt>
      <trkpt lat="45.05819" lon="5.58027">
        <ele>1432.4</ele>
        <time>1970-01-01T02:35:44.000Z</time>
      </trkpt>
      <trkpt lat="45.0582" lon="5.58025">
        <ele>1432.4</ele>
        <time>1970-01-01T02:35:46.000Z</time>
      </trkpt>
      <trkpt lat="45.0582" lon="5.58023">
        <ele>1432.2</ele>
        <time>1970-01-01T02:35:47.000Z</time>
      </trkpt>
      <trkpt lat="45.0582" lon="5.58022">
        <ele>1431.8</ele>
        <time>1970-01-01T02:35:49.000Z</time>
      </trkpt>
      <trkpt lat="45.05822" lon="5.58021">
        <ele>1431.2</ele>
        <time>1970-01-01T02:35:52.000Z</time>
      </trkpt>
      <trkpt lat="45.05822" lon="5.5802">
        <ele>1430.8</ele>
        <time>1970-01-01T02:35:53.000Z</time>
      </trkpt>
      <trkpt lat="45.05823" lon="5.58019">
        <ele>1430.6</ele>
        <time>1970-01-01T02:35:55.000Z</time>
      </trkpt>
      <trkpt lat="45.05824" lon="5.58016">
        <ele>1430.4</ele>
        <time>1970-01-01T02:35:57.000Z</time>
      </trkpt>
      <trkpt lat="45.05825" lon="5.58015">
        <ele>1430.2</ele>
        <time>1970-01-01T02:35:58.000Z</time>
      </trkpt>
      <trkpt lat="45.05826" lon="5.58014">
        <ele>1430</ele>
        <time>1970-01-01T02:35:59.000Z</time>
      </trkpt>
      <trkpt lat="45.05827" lon="5.58014">
        <ele>1429.8</ele>
        <time>1970-01-01T02:36:01.000Z</time>
      </trkpt>
      <trkpt lat="45.0583" lon="5.58013">
        <ele>1429</ele>
        <time>1970-01-01T02:36:06.000Z</time>
      </trkpt>
      <trkpt lat="45.05831" lon="5.58012">
        <ele>1428.8</ele>
        <time>1970-01-01T02:36:07.000Z</time>
      </trkpt>
      <trkpt lat="45.05834" lon="5.58008">
        <ele>1428.2</ele>
        <time>1970-01-01T02:36:11.000Z</time>
      </trkpt>
      <trkpt lat="45.05835" lon="5.58007">
        <ele>1427.8</ele>
        <time>1970-01-01T02:36:12.000Z</time>
      </trkpt>
      <trkpt lat="45.05837" lon="5.58004">
        <ele>1427.4</ele>
        <time>1970-01-01T02:36:15.000Z</time>
      </trkpt>
      <trkpt lat="45.05839" lon="5.58003">
        <ele>1426.8</ele>
        <time>1970-01-01T02:36:17.000Z</time>
      </trkpt>
      <trkpt lat="45.05839" lon="5.58001">
        <ele>1425.8</ele>
        <time>1970-01-01T02:36:20.000Z</time>
      </trkpt>
      <trkpt lat="45.05839" lon="5.58">
        <ele>1425.6</ele>
        <time>1970-01-01T02:36:21.000Z</time>
      </trkpt>
      <trkpt lat="45.0584" lon="5.57998">
        <ele>1425.2</ele>
        <time>1970-01-01T02:36:23.000Z</time>
      </trkpt>
      <trkpt lat="45.05843" lon="5.57994">
        <ele>1424.6</ele>
        <time>1970-01-01T02:36:26.000Z</time>
      </trkpt>
      <trkpt lat="45.05843" lon="5.5799">
        <ele>1424.2</ele>
        <time>1970-01-01T02:36:29.000Z</time>
      </trkpt>
      <trkpt lat="45.05844" lon="5.57987">
        <ele>1423.6</ele>
        <time>1970-01-01T02:36:32.000Z</time>
      </trkpt>
      <trkpt lat="45.05846" lon="5.57984">
        <ele>1422.8</ele>
        <time>1970-01-01T02:36:36.000Z</time>
      </trkpt>
      <trkpt lat="45.05846" lon="5.57982">
        <ele>1422.6</ele>
        <time>1970-01-01T02:36:38.000Z</time>
      </trkpt>
      <trkpt lat="45.05847" lon="5.57979">
        <ele>1422</ele>
        <time>1970-01-01T02:36:40.000Z</time>
      </trkpt>
      <trkpt lat="45.05848" lon="5.57977">
        <ele>1421.4</ele>
        <time>1970-01-01T02:36:42.000Z</time>
      </trkpt>
      <trkpt lat="45.05848" lon="5.57976">
        <ele>1421.2</ele>
        <time>1970-01-01T02:36:43.000Z</time>
      </trkpt>
      <trkpt lat="45.05848" lon="5.57974">
        <ele>1421.2</ele>
        <time>1970-01-01T02:36:44.000Z</time>
      </trkpt>
      <trkpt lat="45.0585" lon="5.57973">
        <ele>1420.8</ele>
        <time>1970-01-01T02:36:46.000Z</time>
      </trkpt>
      <trkpt lat="45.05851" lon="5.57971">
        <ele>1420.6</ele>
        <time>1970-01-01T02:36:47.000Z</time>
      </trkpt>
      <trkpt lat="45.05852" lon="5.5797">
        <ele>1420.4</ele>
        <time>1970-01-01T02:36:48.000Z</time>
      </trkpt>
      <trkpt lat="45.05852" lon="5.57969">
        <ele>1420.2</ele>
        <time>1970-01-01T02:36:49.000Z</time>
      </trkpt>
      <trkpt lat="45.05853" lon="5.57968">
        <ele>1420</ele>
        <time>1970-01-01T02:36:50.000Z</time>
      </trkpt>
      <trkpt lat="45.05854" lon="5.57967">
        <ele>1419.8</ele>
        <time>1970-01-01T02:36:51.000Z</time>
      </trkpt>
      <trkpt lat="45.05854" lon="5.57965">
        <ele>1419.6</ele>
        <time>1970-01-01T02:36:52.000Z</time>
      </trkpt>
      <trkpt lat="45.05856" lon="5.57962">
        <ele>1418.6</ele>
        <time>1970-01-01T02:36:55.000Z</time>
      </trkpt>
      <trkpt lat="45.05857" lon="5.5796">
        <ele>1418.2</ele>
        <time>1970-01-01T02:36:57.000Z</time>
      </trkpt>
      <trkpt lat="45.05859" lon="5.57958">
        <ele>1417.6</ele>
        <time>1970-01-01T02:37:02.000Z</time>
      </trkpt>
      <trkpt lat="45.05861" lon="5.57956">
        <ele>1417.4</ele>
        <time>1970-01-01T02:37:04.000Z</time>
      </trkpt>
      <trkpt lat="45.05862" lon="5.57955">
        <ele>1417</ele>
        <time>1970-01-01T02:37:05.000Z</time>
      </trkpt>
      <trkpt lat="45.05863" lon="5.57954">
        <ele>1416.6</ele>
        <time>1970-01-01T02:37:07.000Z</time>
      </trkpt>
      <trkpt lat="45.05865" lon="5.57952">
        <ele>1415.4</ele>
        <time>1970-01-01T02:37:11.000Z</time>
      </trkpt>
      <trkpt lat="45.05866" lon="5.57951">
        <ele>1415.2</ele>
        <time>1970-01-01T02:37:12.000Z</time>
      </trkpt>
      <trkpt lat="45.05866" lon="5.5795">
        <ele>1415.2</ele>
        <time>1970-01-01T02:37:14.000Z</time>
      </trkpt>
      <trkpt lat="45.05867" lon="5.57949">
        <ele>1414.6</ele>
        <time>1970-01-01T02:37:16.000Z</time>
      </trkpt>
      <trkpt lat="45.05867" lon="5.57948">
        <ele>1414.2</ele>
        <time>1970-01-01T02:37:18.000Z</time>
      </trkpt>
      <trkpt lat="45.05867" lon="5.57945">
        <ele>1413.6</ele>
        <time>1970-01-01T02:37:21.000Z</time>
      </trkpt>
      <trkpt lat="45.05868" lon="5.57943">
        <ele>1413.2</ele>
        <time>1970-01-01T02:37:23.000Z</time>
      </trkpt>
      <trkpt lat="45.05869" lon="5.57941">
        <ele>1413.2</ele>
        <time>1970-01-01T02:37:25.000Z</time>
      </trkpt>
      <trkpt lat="45.05873" lon="5.57933">
        <ele>1412</ele>
        <time>1970-01-01T02:37:31.000Z</time>
      </trkpt>
      <trkpt lat="45.05874" lon="5.57931">
        <ele>1411.6</ele>
        <time>1970-01-01T02:37:33.000Z</time>
      </trkpt>
      <trkpt lat="45.05876" lon="5.57926">
        <ele>1411</ele>
        <time>1970-01-01T02:37:36.000Z</time>
      </trkpt>
      <trkpt lat="45.05877" lon="5.57926">
        <ele>1411</ele>
        <time>1970-01-01T02:37:37.000Z</time>
      </trkpt>
      <trkpt lat="45.05877" lon="5.57924">
        <ele>1410.8</ele>
        <time>1970-01-01T02:37:39.000Z</time>
      </trkpt>
      <trkpt lat="45.05877" lon="5.57923">
        <ele>1410.8</ele>
        <time>1970-01-01T02:37:40.000Z</time>
      </trkpt>
      <trkpt lat="45.05877" lon="5.57922">
        <ele>1410.6</ele>
        <time>1970-01-01T02:37:41.000Z</time>
      </trkpt>
      <trkpt lat="45.05878" lon="5.57918">
        <ele>1409.8</ele>
        <time>1970-01-01T02:37:44.000Z</time>
      </trkpt>
      <trkpt lat="45.05878" lon="5.57916">
        <ele>1409</ele>
        <time>1970-01-01T02:37:47.000Z</time>
      </trkpt>
      <trkpt lat="45.05879" lon="5.57915">
        <ele>1408.6</ele>
        <time>1970-01-01T02:37:48.000Z</time>
      </trkpt>
      <trkpt lat="45.05879" lon="5.57914">
        <ele>1408.4</ele>
        <time>1970-01-01T02:37:49.000Z</time>
      </trkpt>
      <trkpt lat="45.0588" lon="5.57908">
        <ele>1408.2</ele>
        <time>1970-01-01T02:37:52.000Z</time>
      </trkpt>
      <trkpt lat="45.05882" lon="5.57903">
        <ele>1407.6</ele>
        <time>1970-01-01T02:37:56.000Z</time>
      </trkpt>
      <trkpt lat="45.05883" lon="5.57901">
        <ele>1407.4</ele>
        <time>1970-01-01T02:37:58.000Z</time>
      </trkpt>
      <trkpt lat="45.05883" lon="5.579">
        <ele>1407.2</ele>
        <time>1970-01-01T02:37:59.000Z</time>
      </trkpt>
      <trkpt lat="45.05883" lon="5.57899">
        <ele>1407</ele>
        <time>1970-01-01T02:38:00.000Z</time>
      </trkpt>
      <trkpt lat="45.05882" lon="5.57899">
        <ele>1406.6</ele>
        <time>1970-01-01T02:38:03.000Z</time>
      </trkpt>
      <trkpt lat="45.05882" lon="5.579">
        <ele>1406.2</ele>
        <time>1970-01-01T02:38:05.000Z</time>
      </trkpt>
      <trkpt lat="45.05881" lon="5.57901">
        <ele>1405.8</ele>
        <time>1970-01-01T02:38:07.000Z</time>
      </trkpt>
      <trkpt lat="45.05882" lon="5.57901">
        <ele>1405.4</ele>
        <time>1970-01-01T02:38:10.000Z</time>
      </trkpt>
      <trkpt lat="45.05882" lon="5.57902">
        <ele>1405.6</ele>
        <time>1970-01-01T02:38:15.000Z</time>
      </trkpt>
      <trkpt lat="45.05882" lon="5.579">
        <ele>1405.4</ele>
        <time>1970-01-01T02:38:19.000Z</time>
      </trkpt>
      <trkpt lat="45.05883" lon="5.57894">
        <ele>1405.4</ele>
        <time>1970-01-01T02:38:24.000Z</time>
      </trkpt>
      <trkpt lat="45.05885" lon="5.57892">
        <ele>1405.2</ele>
        <time>1970-01-01T02:38:28.000Z</time>
      </trkpt>
      <trkpt lat="45.05887" lon="5.57891">
        <ele>1404.6</ele>
        <time>1970-01-01T02:38:31.000Z</time>
      </trkpt>
      <trkpt lat="45.05887" lon="5.5789">
        <ele>1404.4</ele>
        <time>1970-01-01T02:38:32.000Z</time>
      </trkpt>
      <trkpt lat="45.05887" lon="5.57891">
        <ele>1404.2</ele>
        <time>1970-01-01T02:38:34.000Z</time>
      </trkpt>
      <trkpt lat="45.05888" lon="5.57885">
        <ele>1403.8</ele>
        <time>1970-01-01T02:38:40.000Z</time>
      </trkpt>
      <trkpt lat="45.05891" lon="5.57883">
        <ele>1403</ele>
        <time>1970-01-01T02:38:43.000Z</time>
      </trkpt>
      <trkpt lat="45.05895" lon="5.57881">
        <ele>1402.4</ele>
        <time>1970-01-01T02:38:47.000Z</time>
      </trkpt>
      <trkpt lat="45.05898" lon="5.57876">
        <ele>1402</ele>
        <time>1970-01-01T02:38:51.000Z</time>
      </trkpt>
      <trkpt lat="45.05899" lon="5.57875">
        <ele>1401.8</ele>
        <time>1970-01-01T02:38:52.000Z</time>
      </trkpt>
      <trkpt lat="45.059" lon="5.57873">
        <ele>1401.4</ele>
        <time>1970-01-01T02:38:54.000Z</time>
      </trkpt>
      <trkpt lat="45.05903" lon="5.5787">
        <ele>1401</ele>
        <time>1970-01-01T02:38:56.000Z</time>
      </trkpt>
      <trkpt lat="45.05903" lon="5.57869">
        <ele>1400.6</ele>
        <time>1970-01-01T02:38:57.000Z</time>
      </trkpt>
      <trkpt lat="45.05905" lon="5.57866">
        <ele>1400.2</ele>
        <time>1970-01-01T02:39:00.000Z</time>
      </trkpt>
      <trkpt lat="45.05906" lon="5.57866">
        <ele>1400.2</ele>
        <time>1970-01-01T02:39:01.000Z</time>
      </trkpt>
      <trkpt lat="45.05907" lon="5.57864">
        <ele>1399.6</ele>
        <time>1970-01-01T02:39:05.000Z</time>
      </trkpt>
      <trkpt lat="45.05909" lon="5.57862">
        <ele>1399</ele>
        <time>1970-01-01T02:39:08.000Z</time>
      </trkpt>
      <trkpt lat="45.0591" lon="5.5786">
        <ele>1398.6</ele>
        <time>1970-01-01T02:39:10.000Z</time>
      </trkpt>
      <trkpt lat="45.0591" lon="5.57859">
        <ele>1398.4</ele>
        <time>1970-01-01T02:39:11.000Z</time>
      </trkpt>
      <trkpt lat="45.05911" lon="5.57856">
        <ele>1398.2</ele>
        <time>1970-01-01T02:39:13.000Z</time>
      </trkpt>
      <trkpt lat="45.05912" lon="5.57854">
        <ele>1398.2</ele>
        <time>1970-01-01T02:39:15.000Z</time>
      </trkpt>
      <trkpt lat="45.05913" lon="5.57849">
        <ele>1397.4</ele>
        <time>1970-01-01T02:39:19.000Z</time>
      </trkpt>
      <trkpt lat="45.05914" lon="5.57846">
        <ele>1397.2</ele>
        <time>1970-01-01T02:39:22.000Z</time>
      </trkpt>
      <trkpt lat="45.05918" lon="5.57844">
        <ele>1396.6</ele>
        <time>1970-01-01T02:39:26.000Z</time>
      </trkpt>
      <trkpt lat="45.05919" lon="5.57842">
        <ele>1396</ele>
        <time>1970-01-01T02:39:29.000Z</time>
      </trkpt>
      <trkpt lat="45.0592" lon="5.57842">
        <ele>1395.8</ele>
        <time>1970-01-01T02:39:30.000Z</time>
      </trkpt>
      <trkpt lat="45.05921" lon="5.57841">
        <ele>1395.6</ele>
        <time>1970-01-01T02:39:33.000Z</time>
      </trkpt>
      <trkpt lat="45.05922" lon="5.57841">
        <ele>1395.2</ele>
        <time>1970-01-01T02:39:34.000Z</time>
      </trkpt>
      <trkpt lat="45.05923" lon="5.57837">
        <ele>1394.6</ele>
        <time>1970-01-01T02:39:37.000Z</time>
      </trkpt>
      <trkpt lat="45.05923" lon="5.57836">
        <ele>1394.4</ele>
        <time>1970-01-01T02:39:38.000Z</time>
      </trkpt>
      <trkpt lat="45.05922" lon="5.57833">
        <ele>1394.2</ele>
        <time>1970-01-01T02:39:41.000Z</time>
      </trkpt>
      <trkpt lat="45.05922" lon="5.57832">
        <ele>1394</ele>
        <time>1970-01-01T02:39:42.000Z</time>
      </trkpt>
      <trkpt lat="45.05923" lon="5.5783">
        <ele>1393.4</ele>
        <time>1970-01-01T02:39:45.000Z</time>
      </trkpt>
      <trkpt lat="45.05923" lon="5.57829">
        <ele>1393.2</ele>
        <time>1970-01-01T02:39:46.000Z</time>
      </trkpt>
      <trkpt lat="45.05924" lon="5.57828">
        <ele>1393.2</ele>
        <time>1970-01-01T02:39:47.000Z</time>
      </trkpt>
      <trkpt lat="45.05925" lon="5.57825">
        <ele>1392.6</ele>
        <time>1970-01-01T02:39:50.000Z</time>
      </trkpt>
      <trkpt lat="45.05927" lon="5.5782">
        <ele>1392</ele>
        <time>1970-01-01T02:39:53.000Z</time>
      </trkpt>
      <trkpt lat="45.05927" lon="5.57819">
        <ele>1391.8</ele>
        <time>1970-01-01T02:39:54.000Z</time>
      </trkpt>
      <trkpt lat="45.05928" lon="5.57819">
        <ele>1391.6</ele>
        <time>1970-01-01T02:39:55.000Z</time>
      </trkpt>
      <trkpt lat="45.05926" lon="5.57813">
        <ele>1391.4</ele>
        <time>1970-01-01T02:40:01.000Z</time>
      </trkpt>
      <trkpt lat="45.05925" lon="5.57811">
        <ele>1391.4</ele>
        <time>1970-01-01T02:40:03.000Z</time>
      </trkpt>
      <trkpt lat="45.05925" lon="5.5781">
        <ele>1391.2</ele>
        <time>1970-01-01T02:40:04.000Z</time>
      </trkpt>
      <trkpt lat="45.05925" lon="5.57808">
        <ele>1390.8</ele>
        <time>1970-01-01T02:40:06.000Z</time>
      </trkpt>
      <trkpt lat="45.05925" lon="5.57803">
        <ele>1389.8</ele>
        <time>1970-01-01T02:40:13.000Z</time>
      </trkpt>
      <trkpt lat="45.05925" lon="5.57802">
        <ele>1389.4</ele>
        <time>1970-01-01T02:40:14.000Z</time>
      </trkpt>
      <trkpt lat="45.05925" lon="5.578">
        <ele>1389</ele>
        <time>1970-01-01T02:40:17.000Z</time>
      </trkpt>
      <trkpt lat="45.05926" lon="5.57799">
        <ele>1389</ele>
        <time>1970-01-01T02:40:19.000Z</time>
      </trkpt>
      <trkpt lat="45.05927" lon="5.57795">
        <ele>1388.6</ele>
        <time>1970-01-01T02:40:22.000Z</time>
      </trkpt>
      <trkpt lat="45.05931" lon="5.57789">
        <ele>1387.6</ele>
        <time>1970-01-01T02:40:30.000Z</time>
      </trkpt>
      <trkpt lat="45.05932" lon="5.57787">
        <ele>1386.8</ele>
        <time>1970-01-01T02:40:34.000Z</time>
      </trkpt>
      <trkpt lat="45.05933" lon="5.57786">
        <ele>1386.6</ele>
        <time>1970-01-01T02:40:35.000Z</time>
      </trkpt>
      <trkpt lat="45.05933" lon="5.57784">
        <ele>1386.4</ele>
        <time>1970-01-01T02:40:36.000Z</time>
      </trkpt>
      <trkpt lat="45.05934" lon="5.57782">
        <ele>1386.2</ele>
        <time>1970-01-01T02:40:38.000Z</time>
      </trkpt>
      <trkpt lat="45.05935" lon="5.57775">
        <ele>1385.2</ele>
        <time>1970-01-01T02:40:45.000Z</time>
      </trkpt>
      <trkpt lat="45.05936" lon="5.57772">
        <ele>1384.6</ele>
        <time>1970-01-01T02:40:47.000Z</time>
      </trkpt>
      <trkpt lat="45.05934" lon="5.57767">
        <ele>1384.2</ele>
        <time>1970-01-01T02:40:50.000Z</time>
      </trkpt>
      <trkpt lat="45.05934" lon="5.57765">
        <ele>1384</ele>
        <time>1970-01-01T02:40:52.000Z</time>
      </trkpt>
      <trkpt lat="45.05933" lon="5.57763">
        <ele>1383.6</ele>
        <time>1970-01-01T02:40:54.000Z</time>
      </trkpt>
      <trkpt lat="45.05932" lon="5.57761">
        <ele>1383.4</ele>
        <time>1970-01-01T02:40:57.000Z</time>
      </trkpt>
      <trkpt lat="45.05935" lon="5.57758">
        <ele>1383.2</ele>
        <time>1970-01-01T02:41:02.000Z</time>
      </trkpt>
      <trkpt lat="45.05935" lon="5.57757">
        <ele>1383</ele>
        <time>1970-01-01T02:41:03.000Z</time>
      </trkpt>
      <trkpt lat="45.05937" lon="5.57751">
        <ele>1382.2</ele>
        <time>1970-01-01T02:41:09.000Z</time>
      </trkpt>
      <trkpt lat="45.05938" lon="5.57749">
        <ele>1382.2</ele>
        <time>1970-01-01T02:41:11.000Z</time>
      </trkpt>
      <trkpt lat="45.05938" lon="5.57748">
        <ele>1382</ele>
        <time>1970-01-01T02:41:12.000Z</time>
      </trkpt>
      <trkpt lat="45.05939" lon="5.57745">
        <ele>1381.2</ele>
        <time>1970-01-01T02:41:17.000Z</time>
      </trkpt>
      <trkpt lat="45.0594" lon="5.57742">
        <ele>1380.8</ele>
        <time>1970-01-01T02:41:19.000Z</time>
      </trkpt>
      <trkpt lat="45.05941" lon="5.57738">
        <ele>1380.4</ele>
        <time>1970-01-01T02:41:22.000Z</time>
      </trkpt>
      <trkpt lat="45.05943" lon="5.57737">
        <ele>1380</ele>
        <time>1970-01-01T02:41:24.000Z</time>
      </trkpt>
      <trkpt lat="45.05943" lon="5.57735">
        <ele>1379.8</ele>
        <time>1970-01-01T02:41:25.000Z</time>
      </trkpt>
      <trkpt lat="45.05945" lon="5.5773">
        <ele>1379.2</ele>
        <time>1970-01-01T02:41:29.000Z</time>
      </trkpt>
      <trkpt lat="45.05943" lon="5.57726">
        <ele>1378.8</ele>
        <time>1970-01-01T02:41:33.000Z</time>
      </trkpt>
      <trkpt lat="45.05943" lon="5.57725">
        <ele>1378.6</ele>
        <time>1970-01-01T02:41:34.000Z</time>
      </trkpt>
      <trkpt lat="45.05943" lon="5.57724">
        <ele>1378.6</ele>
        <time>1970-01-01T02:41:35.000Z</time>
      </trkpt>
      <trkpt lat="45.05945" lon="5.57718">
        <ele>1377.8</ele>
        <time>1970-01-01T02:41:40.000Z</time>
      </trkpt>
      <trkpt lat="45.05945" lon="5.57717">
        <ele>1377.8</ele>
        <time>1970-01-01T02:41:41.000Z</time>
      </trkpt>
      <trkpt lat="45.05946" lon="5.57716">
        <ele>1377.6</ele>
        <time>1970-01-01T02:41:42.000Z</time>
      </trkpt>
      <trkpt lat="45.05948" lon="5.5771">
        <ele>1376.6</ele>
        <time>1970-01-01T02:41:48.000Z</time>
      </trkpt>
      <trkpt lat="45.05948" lon="5.57708">
        <ele>1376.6</ele>
        <time>1970-01-01T02:41:50.000Z</time>
      </trkpt>
      <trkpt lat="45.05948" lon="5.57703">
        <ele>1375.4</ele>
        <time>1970-01-01T02:41:57.000Z</time>
      </trkpt>
      <trkpt lat="45.05946" lon="5.577">
        <ele>1374.4</ele>
        <time>1970-01-01T02:42:03.000Z</time>
      </trkpt>
      <trkpt lat="45.05946" lon="5.57699">
        <ele>1374.2</ele>
        <time>1970-01-01T02:42:04.000Z</time>
      </trkpt>
      <trkpt lat="45.05946" lon="5.57695">
        <ele>1374.2</ele>
        <time>1970-01-01T02:42:11.000Z</time>
      </trkpt>
      <trkpt lat="45.05946" lon="5.57696">
        <ele>1374.2</ele>
        <time>1970-01-01T02:42:12.000Z</time>
      </trkpt>
      <trkpt lat="45.05946" lon="5.577">
        <ele>1374.2</ele>
        <time>1970-01-01T02:42:16.000Z</time>
      </trkpt>
      <trkpt lat="45.05946" lon="5.57701">
        <ele>1374</ele>
        <time>1970-01-01T02:42:17.000Z</time>
      </trkpt>
      <trkpt lat="45.05947" lon="5.57701">
        <ele>1373.8</ele>
        <time>1970-01-01T02:42:18.000Z</time>
      </trkpt>
      <trkpt lat="45.05949" lon="5.57703">
        <ele>1373.8</ele>
        <time>1970-01-01T02:42:25.000Z</time>
      </trkpt>
      <trkpt lat="45.05949" lon="5.57704">
        <ele>1374.2</ele>
        <time>1970-01-01T02:42:29.000Z</time>
      </trkpt>
      <trkpt lat="45.0595" lon="5.57704">
        <ele>1374.2</ele>
        <time>1970-01-01T02:42:31.000Z</time>
      </trkpt>
      <trkpt lat="45.05956" lon="5.57705">
        <ele>1373.8</ele>
        <time>1970-01-01T02:42:39.000Z</time>
      </trkpt>
      <trkpt lat="45.05958" lon="5.57706">
        <ele>1374</ele>
        <time>1970-01-01T02:42:42.000Z</time>
      </trkpt>
      <trkpt lat="45.05958" lon="5.57705">
        <ele>1374.2</ele>
        <time>1970-01-01T02:42:44.000Z</time>
      </trkpt>
      <trkpt lat="45.05959" lon="5.57704">
        <ele>1374.2</ele>
        <time>1970-01-01T02:42:45.000Z</time>
      </trkpt>
      <trkpt lat="45.05959" lon="5.57703">
        <ele>1374.2</ele>
        <time>1970-01-01T02:42:46.000Z</time>
      </trkpt>
      <trkpt lat="45.05959" lon="5.57702">
        <ele>1374.2</ele>
        <time>1970-01-01T02:42:49.000Z</time>
      </trkpt>
      <trkpt lat="45.05954" lon="5.57703">
        <ele>1374.2</ele>
        <time>1970-01-01T02:42:54.000Z</time>
      </trkpt>
      <trkpt lat="45.05948" lon="5.57708">
        <ele>1374.2</ele>
        <time>1970-01-01T02:43:00.000Z</time>
      </trkpt>
      <trkpt lat="45.05948" lon="5.57709">
        <ele>1374</ele>
        <time>1970-01-01T02:43:01.000Z</time>
      </trkpt>
      <trkpt lat="45.05947" lon="5.57709">
        <ele>1373.8</ele>
        <time>1970-01-01T02:43:03.000Z</time>
      </trkpt>
      <trkpt lat="45.05945" lon="5.57712">
        <ele>1373.8</ele>
        <time>1970-01-01T02:43:06.000Z</time>
      </trkpt>
      <trkpt lat="45.05942" lon="5.57716">
        <ele>1373.2</ele>
        <time>1970-01-01T02:43:10.000Z</time>
      </trkpt>
      <trkpt lat="45.05941" lon="5.57717">
        <ele>1373</ele>
        <time>1970-01-01T02:43:11.000Z</time>
      </trkpt>
      <trkpt lat="45.05941" lon="5.57718">
        <ele>1372.6</ele>
        <time>1970-01-01T02:43:12.000Z</time>
      </trkpt>
      <trkpt lat="45.0594" lon="5.57718">
        <ele>1372.4</ele>
        <time>1970-01-01T02:43:13.000Z</time>
      </trkpt>
      <trkpt lat="45.05938" lon="5.57719">
        <ele>1372.2</ele>
        <time>1970-01-01T02:43:16.000Z</time>
      </trkpt>
      <trkpt lat="45.05936" lon="5.57721">
        <ele>1371.8</ele>
        <time>1970-01-01T02:43:19.000Z</time>
      </trkpt>
      <trkpt lat="45.05934" lon="5.57723">
        <ele>1371.4</ele>
        <time>1970-01-01T02:43:23.000Z</time>
      </trkpt>
      <trkpt lat="45.05933" lon="5.57725">
        <ele>1371.4</ele>
        <time>1970-01-01T02:43:25.000Z</time>
      </trkpt>
      <trkpt lat="45.05929" lon="5.57729">
        <ele>1371.2</ele>
        <time>1970-01-01T02:43:31.000Z</time>
      </trkpt>
      <trkpt lat="45.05926" lon="5.57732">
        <ele>1370.2</ele>
        <time>1970-01-01T02:43:36.000Z</time>
      </trkpt>
      <trkpt lat="45.05924" lon="5.57735">
        <ele>1369.8</ele>
        <time>1970-01-01T02:43:38.000Z</time>
      </trkpt>
      <trkpt lat="45.05923" lon="5.57737">
        <ele>1369.6</ele>
        <time>1970-01-01T02:43:39.000Z</time>
      </trkpt>
      <trkpt lat="45.05921" lon="5.57741">
        <ele>1369.4</ele>
        <time>1970-01-01T02:43:41.000Z</time>
      </trkpt>
      <trkpt lat="45.0592" lon="5.57742">
        <ele>1369.4</ele>
        <time>1970-01-01T02:43:42.000Z</time>
      </trkpt>
      <trkpt lat="45.05917" lon="5.57746">
        <ele>1369.2</ele>
        <time>1970-01-01T02:43:46.000Z</time>
      </trkpt>
      <trkpt lat="45.05915" lon="5.5775">
        <ele>1368.8</ele>
        <time>1970-01-01T02:43:51.000Z</time>
      </trkpt>
      <trkpt lat="45.05914" lon="5.5775">
        <ele>1368.6</ele>
        <time>1970-01-01T02:43:52.000Z</time>
      </trkpt>
      <trkpt lat="45.05913" lon="5.5775">
        <ele>1368.6</ele>
        <time>1970-01-01T02:43:53.000Z</time>
      </trkpt>
      <trkpt lat="45.05913" lon="5.57751">
        <ele>1368.4</ele>
        <time>1970-01-01T02:43:54.000Z</time>
      </trkpt>
      <trkpt lat="45.05911" lon="5.57753">
        <ele>1368</ele>
        <time>1970-01-01T02:43:57.000Z</time>
      </trkpt>
      <trkpt lat="45.0591" lon="5.57755">
        <ele>1367.8</ele>
        <time>1970-01-01T02:43:59.000Z</time>
      </trkpt>
      <trkpt lat="45.05909" lon="5.57756">
        <ele>1367.8</ele>
        <time>1970-01-01T02:44:00.000Z</time>
      </trkpt>
      <trkpt lat="45.05908" lon="5.57759">
        <ele>1367.8</ele>
        <time>1970-01-01T02:44:02.000Z</time>
      </trkpt>
      <trkpt lat="45.05906" lon="5.57761">
        <ele>1368</ele>
        <time>1970-01-01T02:44:05.000Z</time>
      </trkpt>
      <trkpt lat="45.05904" lon="5.57763">
        <ele>1367.8</ele>
        <time>1970-01-01T02:44:07.000Z</time>
      </trkpt>
      <trkpt lat="45.05903" lon="5.57765">
        <ele>1367.8</ele>
        <time>1970-01-01T02:44:09.000Z</time>
      </trkpt>
      <trkpt lat="45.05902" lon="5.57766">
        <ele>1367.6</ele>
        <time>1970-01-01T02:44:10.000Z</time>
      </trkpt>
      <trkpt lat="45.05901" lon="5.57771">
        <ele>1367.6</ele>
        <time>1970-01-01T02:44:13.000Z</time>
      </trkpt>
      <trkpt lat="45.059" lon="5.57771">
        <ele>1367.4</ele>
        <time>1970-01-01T02:44:14.000Z</time>
      </trkpt>
      <trkpt lat="45.05899" lon="5.57773">
        <ele>1367.4</ele>
        <time>1970-01-01T02:44:15.000Z</time>
      </trkpt>
      <trkpt lat="45.05898" lon="5.57774">
        <ele>1367.2</ele>
        <time>1970-01-01T02:44:18.000Z</time>
      </trkpt>
      <trkpt lat="45.05898" lon="5.57773">
        <ele>1367</ele>
        <time>1970-01-01T02:44:22.000Z</time>
      </trkpt>
      <trkpt lat="45.05899" lon="5.57773">
        <ele>1367</ele>
        <time>1970-01-01T02:44:26.000Z</time>
      </trkpt>
      <trkpt lat="45.05899" lon="5.57772">
        <ele>1367</ele>
        <time>1970-01-01T02:44:29.000Z</time>
      </trkpt>
      <trkpt lat="45.05897" lon="5.57769">
        <ele>1367.2</ele>
        <time>1970-01-01T02:44:32.000Z</time>
      </trkpt>
      <trkpt lat="45.05896" lon="5.57769">
        <ele>1367.4</ele>
        <time>1970-01-01T02:44:35.000Z</time>
      </trkpt>
      <trkpt lat="45.05893" lon="5.57769">
        <ele>1366.8</ele>
        <time>1970-01-01T02:44:40.000Z</time>
      </trkpt>
      <trkpt lat="45.05892" lon="5.57769">
        <ele>1366.8</ele>
        <time>1970-01-01T02:44:41.000Z</time>
      </trkpt>
      <trkpt lat="45.05887" lon="5.57774">
        <ele>1367.2</ele>
        <time>1970-01-01T02:44:46.000Z</time>
      </trkpt>
      <trkpt lat="45.05882" lon="5.5778">
        <ele>1366.8</ele>
        <time>1970-01-01T02:44:53.000Z</time>
      </trkpt>
      <trkpt lat="45.05881" lon="5.57781">
        <ele>1366.8</ele>
        <time>1970-01-01T02:44:54.000Z</time>
      </trkpt>
      <trkpt lat="45.05881" lon="5.57784">
        <ele>1366.8</ele>
        <time>1970-01-01T02:44:56.000Z</time>
      </trkpt>
      <trkpt lat="45.05879" lon="5.57788">
        <ele>1366.8</ele>
        <time>1970-01-01T02:44:59.000Z</time>
      </trkpt>
      <trkpt lat="45.05879" lon="5.57789">
        <ele>1366.8</ele>
        <time>1970-01-01T02:45:00.000Z</time>
      </trkpt>
      <trkpt lat="45.05877" lon="5.57793">
        <ele>1367.2</ele>
        <time>1970-01-01T02:45:02.000Z</time>
      </trkpt>
      <trkpt lat="45.05873" lon="5.57797">
        <ele>1366.8</ele>
        <time>1970-01-01T02:45:06.000Z</time>
      </trkpt>
      <trkpt lat="45.05871" lon="5.57799">
        <ele>1366.4</ele>
        <time>1970-01-01T02:45:08.000Z</time>
      </trkpt>
      <trkpt lat="45.05869" lon="5.578">
        <ele>1366.2</ele>
        <time>1970-01-01T02:45:10.000Z</time>
      </trkpt>
      <trkpt lat="45.05866" lon="5.57801">
        <ele>1365.8</ele>
        <time>1970-01-01T02:45:12.000Z</time>
      </trkpt>
      <trkpt lat="45.05863" lon="5.57803">
        <ele>1365.4</ele>
        <time>1970-01-01T02:45:14.000Z</time>
      </trkpt>
      <trkpt lat="45.05862" lon="5.57804">
        <ele>1365.4</ele>
        <time>1970-01-01T02:45:15.000Z</time>
      </trkpt>
      <trkpt lat="45.0586" lon="5.57805">
        <ele>1365.2</ele>
        <time>1970-01-01T02:45:17.000Z</time>
      </trkpt>
      <trkpt lat="45.05857" lon="5.5781">
        <ele>1364.8</ele>
        <time>1970-01-01T02:45:22.000Z</time>
      </trkpt>
      <trkpt lat="45.05856" lon="5.5781">
        <ele>1364.6</ele>
        <time>1970-01-01T02:45:23.000Z</time>
      </trkpt>
      <trkpt lat="45.05854" lon="5.57813">
        <ele>1364.6</ele>
        <time>1970-01-01T02:45:26.000Z</time>
      </trkpt>
      <trkpt lat="45.05852" lon="5.57814">
        <ele>1364.6</ele>
        <time>1970-01-01T02:45:28.000Z</time>
      </trkpt>
      <trkpt lat="45.0585" lon="5.57814">
        <ele>1364.2</ele>
        <time>1970-01-01T02:45:29.000Z</time>
      </trkpt>
      <trkpt lat="45.05846" lon="5.57814">
        <ele>1363.8</ele>
        <time>1970-01-01T02:45:32.000Z</time>
      </trkpt>
      <trkpt lat="45.05845" lon="5.57814">
        <ele>1363.8</ele>
        <time>1970-01-01T02:45:33.000Z</time>
      </trkpt>
      <trkpt lat="45.05843" lon="5.57814">
        <ele>1363.4</ele>
        <time>1970-01-01T02:45:35.000Z</time>
      </trkpt>
      <trkpt lat="45.05841" lon="5.57816">
        <ele>1363.2</ele>
        <time>1970-01-01T02:45:37.000Z</time>
      </trkpt>
      <trkpt lat="45.05838" lon="5.57817">
        <ele>1363</ele>
        <time>1970-01-01T02:45:40.000Z</time>
      </trkpt>
      <trkpt lat="45.05834" lon="5.57816">
        <ele>1362.6</ele>
        <time>1970-01-01T02:45:44.000Z</time>
      </trkpt>
      <trkpt lat="45.05833" lon="5.57816">
        <ele>1362.6</ele>
        <time>1970-01-01T02:45:48.000Z</time>
      </trkpt>
      <trkpt lat="45.05831" lon="5.57813">
        <ele>1362.8</ele>
        <time>1970-01-01T02:45:55.000Z</time>
      </trkpt>
      <trkpt lat="45.05831" lon="5.57815">
        <ele>1363</ele>
        <time>1970-01-01T02:46:04.000Z</time>
      </trkpt>
      <trkpt lat="45.05834" lon="5.57817">
        <ele>1362.6</ele>
        <time>1970-01-01T02:46:12.000Z</time>
      </trkpt>
      <trkpt lat="45.05834" lon="5.57818">
        <ele>1362.4</ele>
        <time>1970-01-01T02:46:15.000Z</time>
      </trkpt>
      <trkpt lat="45.05834" lon="5.5782">
        <ele>1362.6</ele>
        <time>1970-01-01T02:46:24.000Z</time>
      </trkpt>
      <trkpt lat="45.0583" lon="5.57821">
        <ele>1362.6</ele>
        <time>1970-01-01T02:46:28.000Z</time>
      </trkpt>
      <trkpt lat="45.05829" lon="5.5782">
        <ele>1362.6</ele>
        <time>1970-01-01T02:46:29.000Z</time>
      </trkpt>
      <trkpt lat="45.05825" lon="5.57822">
        <ele>1361.8</ele>
        <time>1970-01-01T02:46:34.000Z</time>
      </trkpt>
      <trkpt lat="45.05824" lon="5.57823">
        <ele>1361.6</ele>
        <time>1970-01-01T02:46:35.000Z</time>
      </trkpt>
      <trkpt lat="45.05822" lon="5.57826">
        <ele>1360.8</ele>
        <time>1970-01-01T02:46:39.000Z</time>
      </trkpt>
      <trkpt lat="45.05821" lon="5.57826">
        <ele>1360.6</ele>
        <time>1970-01-01T02:46:40.000Z</time>
      </trkpt>
      <trkpt lat="45.05819" lon="5.57827">
        <ele>1360.6</ele>
        <time>1970-01-01T02:46:42.000Z</time>
      </trkpt>
      <trkpt lat="45.05814" lon="5.57829">
        <ele>1360.4</ele>
        <time>1970-01-01T02:46:46.000Z</time>
      </trkpt>
      <trkpt lat="45.05813" lon="5.57829">
        <ele>1360.4</ele>
        <time>1970-01-01T02:46:47.000Z</time>
      </trkpt>
      <trkpt lat="45.0581" lon="5.57831">
        <ele>1360.2</ele>
        <time>1970-01-01T02:46:49.000Z</time>
      </trkpt>
      <trkpt lat="45.05808" lon="5.57833">
        <ele>1359.6</ele>
        <time>1970-01-01T02:46:52.000Z</time>
      </trkpt>
      <trkpt lat="45.05804" lon="5.57835">
        <ele>1359.4</ele>
        <time>1970-01-01T02:46:55.000Z</time>
      </trkpt>
      <trkpt lat="45.05799" lon="5.57841">
        <ele>1359.4</ele>
        <time>1970-01-01T02:47:00.000Z</time>
      </trkpt>
      <trkpt lat="45.05796" lon="5.57843">
        <ele>1359.4</ele>
        <time>1970-01-01T02:47:02.000Z</time>
      </trkpt>
      <trkpt lat="45.05786" lon="5.57852">
        <ele>1360.6</ele>
        <time>1970-01-01T02:47:11.000Z</time>
      </trkpt>
      <trkpt lat="45.05783" lon="5.57855">
        <ele>1361</ele>
        <time>1970-01-01T02:47:16.000Z</time>
      </trkpt>
      <trkpt lat="45.0578" lon="5.57857">
        <ele>1361.4</ele>
        <time>1970-01-01T02:47:19.000Z</time>
      </trkpt>
      <trkpt lat="45.05779" lon="5.5786">
        <ele>1361.6</ele>
        <time>1970-01-01T02:47:21.000Z</time>
      </trkpt>
      <trkpt lat="45.05778" lon="5.5786">
        <ele>1361.6</ele>
        <time>1970-01-01T02:47:22.000Z</time>
      </trkpt>
      <trkpt lat="45.05776" lon="5.57862">
        <ele>1361.8</ele>
        <time>1970-01-01T02:47:24.000Z</time>
      </trkpt>
      <trkpt lat="45.05774" lon="5.57862">
        <ele>1361.8</ele>
        <time>1970-01-01T02:47:25.000Z</time>
      </trkpt>
      <trkpt lat="45.05771" lon="5.57864">
        <ele>1362</ele>
        <time>1970-01-01T02:47:28.000Z</time>
      </trkpt>
      <trkpt lat="45.05768" lon="5.57864">
        <ele>1362.2</ele>
        <time>1970-01-01T02:47:31.000Z</time>
      </trkpt>
      <trkpt lat="45.05765" lon="5.57867">
        <ele>1362.6</ele>
        <time>1970-01-01T02:47:35.000Z</time>
      </trkpt>
      <trkpt lat="45.05763" lon="5.57869">
        <ele>1362.8</ele>
        <time>1970-01-01T02:47:37.000Z</time>
      </trkpt>
      <trkpt lat="45.05757" lon="5.57869">
        <ele>1363.2</ele>
        <time>1970-01-01T02:47:41.000Z</time>
      </trkpt>
      <trkpt lat="45.05753" lon="5.57868">
        <ele>1363.2</ele>
        <time>1970-01-01T02:47:44.000Z</time>
      </trkpt>
      <trkpt lat="45.05748" lon="5.57872">
        <ele>1362.8</ele>
        <time>1970-01-01T02:47:49.000Z</time>
      </trkpt>
      <trkpt lat="45.05744" lon="5.57873">
        <ele>1362.6</ele>
        <time>1970-01-01T02:47:52.000Z</time>
      </trkpt>
      <trkpt lat="45.05738" lon="5.57875">
        <ele>1362.4</ele>
        <time>1970-01-01T02:47:57.000Z</time>
      </trkpt>
      <trkpt lat="45.05735" lon="5.57876">
        <ele>1362.2</ele>
        <time>1970-01-01T02:48:00.000Z</time>
      </trkpt>
      <trkpt lat="45.05728" lon="5.57877">
        <ele>1362.2</ele>
        <time>1970-01-01T02:48:05.000Z</time>
      </trkpt>
      <trkpt lat="45.05725" lon="5.57878">
        <ele>1362.4</ele>
        <time>1970-01-01T02:48:07.000Z</time>
      </trkpt>
      <trkpt lat="45.05723" lon="5.57879">
        <ele>1362.6</ele>
        <time>1970-01-01T02:48:09.000Z</time>
      </trkpt>
      <trkpt lat="45.0572" lon="5.5788">
        <ele>1362.8</ele>
        <time>1970-01-01T02:48:12.000Z</time>
      </trkpt>
      <trkpt lat="45.05717" lon="5.5788">
        <ele>1363</ele>
        <time>1970-01-01T02:48:14.000Z</time>
      </trkpt>
      <trkpt lat="45.05716" lon="5.5788">
        <ele>1363</ele>
        <time>1970-01-01T02:48:15.000Z</time>
      </trkpt>
      <trkpt lat="45.05714" lon="5.57881">
        <ele>1363.2</ele>
        <time>1970-01-01T02:48:17.000Z</time>
      </trkpt>
      <trkpt lat="45.05712" lon="5.57881">
        <ele>1363.2</ele>
        <time>1970-01-01T02:48:20.000Z</time>
      </trkpt>
      <trkpt lat="45.0571" lon="5.57881">
        <ele>1363.4</ele>
        <time>1970-01-01T02:48:22.000Z</time>
      </trkpt>
      <trkpt lat="45.0571" lon="5.5788">
        <ele>1363.6</ele>
        <time>1970-01-01T02:48:23.000Z</time>
      </trkpt>
      <trkpt lat="45.05709" lon="5.5788">
        <ele>1363.8</ele>
        <time>1970-01-01T02:48:24.000Z</time>
      </trkpt>
      <trkpt lat="45.05707" lon="5.5788">
        <ele>1364.2</ele>
        <time>1970-01-01T02:48:27.000Z</time>
      </trkpt>
      <trkpt lat="45.05707" lon="5.57881">
        <ele>1364.2</ele>
        <time>1970-01-01T02:48:28.000Z</time>
      </trkpt>
      <trkpt lat="45.05706" lon="5.57882">
        <ele>1364.2</ele>
        <time>1970-01-01T02:48:29.000Z</time>
      </trkpt>
      <trkpt lat="45.05705" lon="5.57882">
        <ele>1364.2</ele>
        <time>1970-01-01T02:48:31.000Z</time>
      </trkpt>
      <trkpt lat="45.05704" lon="5.57882">
        <ele>1364</ele>
        <time>1970-01-01T02:48:34.000Z</time>
      </trkpt>
      <trkpt lat="45.05702" lon="5.57886">
        <ele>1364.2</ele>
        <time>1970-01-01T02:48:49.000Z</time>
      </trkpt>
      <trkpt lat="45.05698" lon="5.57886">
        <ele>1363.8</ele>
        <time>1970-01-01T02:48:58.000Z</time>
      </trkpt>
      <trkpt lat="45.05697" lon="5.57884">
        <ele>1363.8</ele>
        <time>1970-01-01T02:49:01.000Z</time>
      </trkpt>
      <trkpt lat="45.05695" lon="5.57884">
        <ele>1364</ele>
        <time>1970-01-01T02:49:05.000Z</time>
      </trkpt>
      <trkpt lat="45.05689" lon="5.57883">
        <ele>1364</ele>
        <time>1970-01-01T02:49:11.000Z</time>
      </trkpt>
      <trkpt lat="45.05688" lon="5.57883">
        <ele>1364</ele>
        <time>1970-01-01T02:49:12.000Z</time>
      </trkpt>
      <trkpt lat="45.05684" lon="5.57878">
        <ele>1363.6</ele>
        <time>1970-01-01T02:49:19.000Z</time>
      </trkpt>
      <trkpt lat="45.05683" lon="5.57875">
        <ele>1363.4</ele>
        <time>1970-01-01T02:49:21.000Z</time>
      </trkpt>
      <trkpt lat="45.05681" lon="5.57871">
        <ele>1363</ele>
        <time>1970-01-01T02:49:29.000Z</time>
      </trkpt>
      <trkpt lat="45.05682" lon="5.57873">
        <ele>1363</ele>
        <time>1970-01-01T02:49:36.000Z</time>
      </trkpt>
      <trkpt lat="45.05683" lon="5.57873">
        <ele>1363</ele>
        <time>1970-01-01T02:49:38.000Z</time>
      </trkpt>
      <trkpt lat="45.05683" lon="5.57872">
        <ele>1363</ele>
        <time>1970-01-01T02:49:44.000Z</time>
      </trkpt>
      <trkpt lat="45.05683" lon="5.5787">
        <ele>1363</ele>
        <time>1970-01-01T02:49:47.000Z</time>
      </trkpt>
      <trkpt lat="45.05682" lon="5.57868">
        <ele>1362.4</ele>
        <time>1970-01-01T02:49:50.000Z</time>
      </trkpt>
      <trkpt lat="45.05681" lon="5.57868">
        <ele>1362.2</ele>
        <time>1970-01-01T02:49:51.000Z</time>
      </trkpt>
      <trkpt lat="45.05678" lon="5.57867">
        <ele>1361.8</ele>
        <time>1970-01-01T02:49:53.000Z</time>
      </trkpt>
      <trkpt lat="45.05676" lon="5.57867">
        <ele>1361.2</ele>
        <time>1970-01-01T02:49:55.000Z</time>
      </trkpt>
      <trkpt lat="45.05675" lon="5.57866">
        <ele>1361</ele>
        <time>1970-01-01T02:49:57.000Z</time>
      </trkpt>
      <trkpt lat="45.05674" lon="5.57865">
        <ele>1360.8</ele>
        <time>1970-01-01T02:49:59.000Z</time>
      </trkpt>
      <trkpt lat="45.05672" lon="5.57863">
        <ele>1360.8</ele>
        <time>1970-01-01T02:50:01.000Z</time>
      </trkpt>
      <trkpt lat="45.05671" lon="5.5786">
        <ele>1360.6</ele>
        <time>1970-01-01T02:50:04.000Z</time>
      </trkpt>
      <trkpt lat="45.0567" lon="5.57858">
        <ele>1360.8</ele>
        <time>1970-01-01T02:50:06.000Z</time>
      </trkpt>
      <trkpt lat="45.05668" lon="5.57855">
        <ele>1360.6</ele>
        <time>1970-01-01T02:50:08.000Z</time>
      </trkpt>
      <trkpt lat="45.05664" lon="5.5785">
        <ele>1360.2</ele>
        <time>1970-01-01T02:50:10.000Z</time>
      </trkpt>
      <trkpt lat="45.05663" lon="5.57846">
        <ele>1359.8</ele>
        <time>1970-01-01T02:50:12.000Z</time>
      </trkpt>
      <trkpt lat="45.05662" lon="5.57844">
        <ele>1359.6</ele>
        <time>1970-01-01T02:50:13.000Z</time>
      </trkpt>
      <trkpt lat="45.05659" lon="5.57838">
        <ele>1359.2</ele>
        <time>1970-01-01T02:50:17.000Z</time>
      </trkpt>
      <trkpt lat="45.05658" lon="5.57836">
        <ele>1358.8</ele>
        <time>1970-01-01T02:50:19.000Z</time>
      </trkpt>
      <trkpt lat="45.05652" lon="5.57831">
        <ele>1358</ele>
        <time>1970-01-01T02:50:25.000Z</time>
      </trkpt>
      <trkpt lat="45.05651" lon="5.57831">
        <ele>1357.8</ele>
        <time>1970-01-01T02:50:26.000Z</time>
      </trkpt>
      <trkpt lat="45.05647" lon="5.57829">
        <ele>1357.2</ele>
        <time>1970-01-01T02:50:31.000Z</time>
      </trkpt>
      <trkpt lat="45.05646" lon="5.57828">
        <ele>1356.8</ele>
        <time>1970-01-01T02:50:33.000Z</time>
      </trkpt>
      <trkpt lat="45.05646" lon="5.57827">
        <ele>1356.6</ele>
        <time>1970-01-01T02:50:34.000Z</time>
      </trkpt>
      <trkpt lat="45.05646" lon="5.57824">
        <ele>1356.2</ele>
        <time>1970-01-01T02:50:36.000Z</time>
      </trkpt>
      <trkpt lat="45.05645" lon="5.57822">
        <ele>1355.6</ele>
        <time>1970-01-01T02:50:38.000Z</time>
      </trkpt>
      <trkpt lat="45.05644" lon="5.5782">
        <ele>1355</ele>
        <time>1970-01-01T02:50:40.000Z</time>
      </trkpt>
      <trkpt lat="45.05644" lon="5.57815">
        <ele>1354.6</ele>
        <time>1970-01-01T02:50:42.000Z</time>
      </trkpt>
      <trkpt lat="45.05644" lon="5.57813">
        <ele>1354.6</ele>
        <time>1970-01-01T02:50:43.000Z</time>
      </trkpt>
      <trkpt lat="45.05643" lon="5.5781">
        <ele>1354.4</ele>
        <time>1970-01-01T02:50:45.000Z</time>
      </trkpt>
      <trkpt lat="45.05642" lon="5.57807">
        <ele>1354.4</ele>
        <time>1970-01-01T02:50:47.000Z</time>
      </trkpt>
      <trkpt lat="45.0564" lon="5.57805">
        <ele>1354</ele>
        <time>1970-01-01T02:50:49.000Z</time>
      </trkpt>
      <trkpt lat="45.05637" lon="5.57802">
        <ele>1353.8</ele>
        <time>1970-01-01T02:50:52.000Z</time>
      </trkpt>
      <trkpt lat="45.05634" lon="5.57798">
        <ele>1354</ele>
        <time>1970-01-01T02:50:56.000Z</time>
      </trkpt>
      <trkpt lat="45.05634" lon="5.57795">
        <ele>1353.6</ele>
        <time>1970-01-01T02:50:59.000Z</time>
      </trkpt>
      <trkpt lat="45.05634" lon="5.57793">
        <ele>1353.4</ele>
        <time>1970-01-01T02:51:03.000Z</time>
      </trkpt>
      <trkpt lat="45.05634" lon="5.5779">
        <ele>1354</ele>
        <time>1970-01-01T02:51:06.000Z</time>
      </trkpt>
      <trkpt lat="45.05636" lon="5.57787">
        <ele>1353.8</ele>
        <time>1970-01-01T02:51:12.000Z</time>
      </trkpt>
      <trkpt lat="45.05637" lon="5.5778">
        <ele>1354.2</ele>
        <time>1970-01-01T02:51:17.000Z</time>
      </trkpt>
      <trkpt lat="45.05638" lon="5.57778">
        <ele>1354.2</ele>
        <time>1970-01-01T02:51:19.000Z</time>
      </trkpt>
      <trkpt lat="45.05638" lon="5.57775">
        <ele>1354.2</ele>
        <time>1970-01-01T02:51:21.000Z</time>
      </trkpt>
      <trkpt lat="45.05639" lon="5.57771">
        <ele>1354.2</ele>
        <time>1970-01-01T02:51:23.000Z</time>
      </trkpt>
      <trkpt lat="45.0564" lon="5.57769">
        <ele>1354.2</ele>
        <time>1970-01-01T02:51:25.000Z</time>
      </trkpt>
      <trkpt lat="45.05641" lon="5.57765">
        <ele>1354.6</ele>
        <time>1970-01-01T02:51:28.000Z</time>
      </trkpt>
      <trkpt lat="45.05642" lon="5.57764">
        <ele>1354.6</ele>
        <time>1970-01-01T02:51:29.000Z</time>
      </trkpt>
      <trkpt lat="45.05645" lon="5.57761">
        <ele>1355</ele>
        <time>1970-01-01T02:51:33.000Z</time>
      </trkpt>
      <trkpt lat="45.05648" lon="5.57757">
        <ele>1355</ele>
        <time>1970-01-01T02:51:35.000Z</time>
      </trkpt>
      <trkpt lat="45.05651" lon="5.57753">
        <ele>1355</ele>
        <time>1970-01-01T02:51:38.000Z</time>
      </trkpt>
      <trkpt lat="45.05656" lon="5.57745">
        <ele>1355.4</ele>
        <time>1970-01-01T02:51:42.000Z</time>
      </trkpt>
      <trkpt lat="45.05657" lon="5.57741">
        <ele>1355.8</ele>
        <time>1970-01-01T02:51:44.000Z</time>
      </trkpt>
      <trkpt lat="45.05658" lon="5.5774">
        <ele>1355.8</ele>
        <time>1970-01-01T02:51:45.000Z</time>
      </trkpt>
      <trkpt lat="45.0566" lon="5.57736">
        <ele>1356.8</ele>
        <time>1970-01-01T02:51:47.000Z</time>
      </trkpt>
      <trkpt lat="45.0566" lon="5.57733">
        <ele>1357</ele>
        <time>1970-01-01T02:51:48.000Z</time>
      </trkpt>
      <trkpt lat="45.05661" lon="5.57732">
        <ele>1357.4</ele>
        <time>1970-01-01T02:51:49.000Z</time>
      </trkpt>
      <trkpt lat="45.05661" lon="5.57731">
        <ele>1357.6</ele>
        <time>1970-01-01T02:51:50.000Z</time>
      </trkpt>
      <trkpt lat="45.05662" lon="5.5773">
        <ele>1357.6</ele>
        <time>1970-01-01T02:51:51.000Z</time>
      </trkpt>
      <trkpt lat="45.05663" lon="5.57728">
        <ele>1357.8</ele>
        <time>1970-01-01T02:51:52.000Z</time>
      </trkpt>
      <trkpt lat="45.05665" lon="5.57726">
        <ele>1358.6</ele>
        <time>1970-01-01T02:51:54.000Z</time>
      </trkpt>
      <trkpt lat="45.05667" lon="5.57724">
        <ele>1358.8</ele>
        <time>1970-01-01T02:51:55.000Z</time>
      </trkpt>
      <trkpt lat="45.05667" lon="5.57723">
        <ele>1359</ele>
        <time>1970-01-01T02:51:56.000Z</time>
      </trkpt>
      <trkpt lat="45.05668" lon="5.57723">
        <ele>1359.2</ele>
        <time>1970-01-01T02:51:57.000Z</time>
      </trkpt>
      <trkpt lat="45.05669" lon="5.57722">
        <ele>1359.8</ele>
        <time>1970-01-01T02:51:59.000Z</time>
      </trkpt>
      <trkpt lat="45.0567" lon="5.57721">
        <ele>1360</ele>
        <time>1970-01-01T02:52:02.000Z</time>
      </trkpt>
      <trkpt lat="45.0567" lon="5.5772">
        <ele>1360</ele>
        <time>1970-01-01T02:52:03.000Z</time>
      </trkpt>
      <trkpt lat="45.05669" lon="5.57719">
        <ele>1359.8</ele>
        <time>1970-01-01T02:52:04.000Z</time>
      </trkpt>
      <trkpt lat="45.05668" lon="5.57714">
        <ele>1360.4</ele>
        <time>1970-01-01T02:52:10.000Z</time>
      </trkpt>
      <trkpt lat="45.05667" lon="5.57714">
        <ele>1360.4</ele>
        <time>1970-01-01T02:52:11.000Z</time>
      </trkpt>
      <trkpt lat="45.05667" lon="5.57712">
        <ele>1360.4</ele>
        <time>1970-01-01T02:52:14.000Z</time>
      </trkpt>
      <trkpt lat="45.05667" lon="5.57708">
        <ele>1360.2</ele>
        <time>1970-01-01T02:52:19.000Z</time>
      </trkpt>
      <trkpt lat="45.05667" lon="5.57703">
        <ele>1360.8</ele>
        <time>1970-01-01T02:52:23.000Z</time>
      </trkpt>
      <trkpt lat="45.05667" lon="5.57702">
        <ele>1361</ele>
        <time>1970-01-01T02:52:25.000Z</time>
      </trkpt>
      <trkpt lat="45.05667" lon="5.577">
        <ele>1361.2</ele>
        <time>1970-01-01T02:52:29.000Z</time>
      </trkpt>
      <trkpt lat="45.05667" lon="5.57697">
        <ele>1361.6</ele>
        <time>1970-01-01T02:52:33.000Z</time>
      </trkpt>
      <trkpt lat="45.05668" lon="5.57696">
        <ele>1362</ele>
        <time>1970-01-01T02:52:38.000Z</time>
      </trkpt>
      <trkpt lat="45.05667" lon="5.57697">
        <ele>1362</ele>
        <time>1970-01-01T02:52:40.000Z</time>
      </trkpt>
      <trkpt lat="45.0566" lon="5.57699">
        <ele>1362</ele>
        <time>1970-01-01T02:52:47.000Z</time>
      </trkpt>
      <trkpt lat="45.0566" lon="5.57693">
        <ele>1362.6</ele>
        <time>1970-01-01T02:52:56.000Z</time>
      </trkpt>
      <trkpt lat="45.05662" lon="5.57691">
        <ele>1362.2</ele>
        <time>1970-01-01T02:52:59.000Z</time>
      </trkpt>
      <trkpt lat="45.05665" lon="5.57688">
        <ele>1362.2</ele>
        <time>1970-01-01T02:53:07.000Z</time>
      </trkpt>
      <trkpt lat="45.05667" lon="5.57686">
        <ele>1362.6</ele>
        <time>1970-01-01T02:53:19.000Z</time>
      </trkpt>
      <trkpt lat="45.05669" lon="5.57684">
        <ele>1362.6</ele>
        <time>1970-01-01T02:53:23.000Z</time>
      </trkpt>
      <trkpt lat="45.0567" lon="5.57678">
        <ele>1362.2</ele>
        <time>1970-01-01T02:53:30.000Z</time>
      </trkpt>
      <trkpt lat="45.05669" lon="5.57677">
        <ele>1362.2</ele>
        <time>1970-01-01T02:53:31.000Z</time>
      </trkpt>
      <trkpt lat="45.05667" lon="5.57671">
        <ele>1362</ele>
        <time>1970-01-01T02:53:36.000Z</time>
      </trkpt>
      <trkpt lat="45.05667" lon="5.57669">
        <ele>1362</ele>
        <time>1970-01-01T02:53:37.000Z</time>
      </trkpt>
      <trkpt lat="45.05665" lon="5.57668">
        <ele>1362</ele>
        <time>1970-01-01T02:53:41.000Z</time>
      </trkpt>
      <trkpt lat="45.05664" lon="5.57667">
        <ele>1362</ele>
        <time>1970-01-01T02:53:44.000Z</time>
      </trkpt>
      <trkpt lat="45.05665" lon="5.57666">
        <ele>1362.4</ele>
        <time>1970-01-01T02:53:49.000Z</time>
      </trkpt>
      <trkpt lat="45.0567" lon="5.57664">
        <ele>1362.8</ele>
        <time>1970-01-01T02:53:56.000Z</time>
      </trkpt>
      <trkpt lat="45.05672" lon="5.57664">
        <ele>1363.4</ele>
        <time>1970-01-01T02:53:59.000Z</time>
      </trkpt>
      <trkpt lat="45.05675" lon="5.57665">
        <ele>1363.6</ele>
        <time>1970-01-01T02:54:02.000Z</time>
      </trkpt>
      <trkpt lat="45.05677" lon="5.57666">
        <ele>1363.8</ele>
        <time>1970-01-01T02:54:04.000Z</time>
      </trkpt>
      <trkpt lat="45.05678" lon="5.57666">
        <ele>1363.8</ele>
        <time>1970-01-01T02:54:05.000Z</time>
      </trkpt>
      <trkpt lat="45.0568" lon="5.57667">
        <ele>1364</ele>
        <time>1970-01-01T02:54:07.000Z</time>
      </trkpt>
      <trkpt lat="45.05681" lon="5.57668">
        <ele>1364</ele>
        <time>1970-01-01T02:54:08.000Z</time>
      </trkpt>
      <trkpt lat="45.05683" lon="5.57669">
        <ele>1364.4</ele>
        <time>1970-01-01T02:54:10.000Z</time>
      </trkpt>
      <trkpt lat="45.05684" lon="5.5767">
        <ele>1364.6</ele>
        <time>1970-01-01T02:54:11.000Z</time>
      </trkpt>
      <trkpt lat="45.05686" lon="5.57671">
        <ele>1365.2</ele>
        <time>1970-01-01T02:54:14.000Z</time>
      </trkpt>
      <trkpt lat="45.05689" lon="5.5767">
        <ele>1365.4</ele>
        <time>1970-01-01T02:54:17.000Z</time>
      </trkpt>
      <trkpt lat="45.0569" lon="5.57669">
        <ele>1365.4</ele>
        <time>1970-01-01T02:54:18.000Z</time>
      </trkpt>
      <trkpt lat="45.05691" lon="5.57669">
        <ele>1365.4</ele>
        <time>1970-01-01T02:54:19.000Z</time>
      </trkpt>
      <trkpt lat="45.05693" lon="5.57668">
        <ele>1365.6</ele>
        <time>1970-01-01T02:54:21.000Z</time>
      </trkpt>
      <trkpt lat="45.05695" lon="5.57667">
        <ele>1365.8</ele>
        <time>1970-01-01T02:54:23.000Z</time>
      </trkpt>
      <trkpt lat="45.05696" lon="5.57666">
        <ele>1365.8</ele>
        <time>1970-01-01T02:54:24.000Z</time>
      </trkpt>
      <trkpt lat="45.05697" lon="5.57666">
        <ele>1365.8</ele>
        <time>1970-01-01T02:54:25.000Z</time>
      </trkpt>
      <trkpt lat="45.057" lon="5.57666">
        <ele>1365.4</ele>
        <time>1970-01-01T02:54:28.000Z</time>
      </trkpt>
      <trkpt lat="45.05702" lon="5.57666">
        <ele>1365.2</ele>
        <time>1970-01-01T02:54:30.000Z</time>
      </trkpt>
      <trkpt lat="45.05705" lon="5.57667">
        <ele>1365.4</ele>
        <time>1970-01-01T02:54:33.000Z</time>
      </trkpt>
      <trkpt lat="45.05707" lon="5.57667">
        <ele>1365.4</ele>
        <time>1970-01-01T02:54:35.000Z</time>
      </trkpt>
      <trkpt lat="45.05709" lon="5.57668">
        <ele>1365</ele>
        <time>1970-01-01T02:54:37.000Z</time>
      </trkpt>
      <trkpt lat="45.0571" lon="5.57668">
        <ele>1364.8</ele>
        <time>1970-01-01T02:54:38.000Z</time>
      </trkpt>
      <trkpt lat="45.05712" lon="5.57669">
        <ele>1364.4</ele>
        <time>1970-01-01T02:54:41.000Z</time>
      </trkpt>
      <trkpt lat="45.05716" lon="5.57668">
        <ele>1364.4</ele>
        <time>1970-01-01T02:54:43.000Z</time>
      </trkpt>
      <trkpt lat="45.0572" lon="5.57669">
        <ele>1364.4</ele>
        <time>1970-01-01T02:54:46.000Z</time>
      </trkpt>
      <trkpt lat="45.05721" lon="5.5767">
        <ele>1364.4</ele>
        <time>1970-01-01T02:54:47.000Z</time>
      </trkpt>
      <trkpt lat="45.05724" lon="5.57671">
        <ele>1364.4</ele>
        <time>1970-01-01T02:54:49.000Z</time>
      </trkpt>
      <trkpt lat="45.05727" lon="5.57674">
        <ele>1363.8</ele>
        <time>1970-01-01T02:54:53.000Z</time>
      </trkpt>
      <trkpt lat="45.05728" lon="5.57674">
        <ele>1363.6</ele>
        <time>1970-01-01T02:54:54.000Z</time>
      </trkpt>
      <trkpt lat="45.0573" lon="5.57676">
        <ele>1363.4</ele>
        <time>1970-01-01T02:54:57.000Z</time>
      </trkpt>
      <trkpt lat="45.05732" lon="5.57677">
        <ele>1363.2</ele>
        <time>1970-01-01T02:54:58.000Z</time>
      </trkpt>
      <trkpt lat="45.05733" lon="5.57677">
        <ele>1363</ele>
        <time>1970-01-01T02:54:59.000Z</time>
      </trkpt>
      <trkpt lat="45.05735" lon="5.57677">
        <ele>1362.8</ele>
        <time>1970-01-01T02:55:01.000Z</time>
      </trkpt>
      <trkpt lat="45.05736" lon="5.57677">
        <ele>1362.2</ele>
        <time>1970-01-01T02:55:02.000Z</time>
      </trkpt>
      <trkpt lat="45.05736" lon="5.57678">
        <ele>1362</ele>
        <time>1970-01-01T02:55:03.000Z</time>
      </trkpt>
      <trkpt lat="45.05737" lon="5.57678">
        <ele>1361.8</ele>
        <time>1970-01-01T02:55:04.000Z</time>
      </trkpt>
      <trkpt lat="45.05738" lon="5.57679">
        <ele>1361.6</ele>
        <time>1970-01-01T02:55:06.000Z</time>
      </trkpt>
      <trkpt lat="45.05739" lon="5.57679">
        <ele>1361.4</ele>
        <time>1970-01-01T02:55:08.000Z</time>
      </trkpt>
      <trkpt lat="45.05741" lon="5.5768">
        <ele>1361.2</ele>
        <time>1970-01-01T02:55:10.000Z</time>
      </trkpt>
      <trkpt lat="45.05742" lon="5.57681">
        <ele>1361</ele>
        <time>1970-01-01T02:55:13.000Z</time>
      </trkpt>
      <trkpt lat="45.05743" lon="5.57681">
        <ele>1360.8</ele>
        <time>1970-01-01T02:55:14.000Z</time>
      </trkpt>
      <trkpt lat="45.05747" lon="5.5768">
        <ele>1360.4</ele>
        <time>1970-01-01T02:55:19.000Z</time>
      </trkpt>
      <trkpt lat="45.05748" lon="5.5768">
        <ele>1360.2</ele>
        <time>1970-01-01T02:55:21.000Z</time>
      </trkpt>
      <trkpt lat="45.05749" lon="5.57681">
        <ele>1359.8</ele>
        <time>1970-01-01T02:55:22.000Z</time>
      </trkpt>
      <trkpt lat="45.05757" lon="5.57678">
        <ele>1358</ele>
        <time>1970-01-01T02:55:34.000Z</time>
      </trkpt>
      <trkpt lat="45.05758" lon="5.57677">
        <ele>1358</ele>
        <time>1970-01-01T02:55:35.000Z</time>
      </trkpt>
      <trkpt lat="45.05759" lon="5.57678">
        <ele>1357.8</ele>
        <time>1970-01-01T02:55:38.000Z</time>
      </trkpt>
      <trkpt lat="45.05762" lon="5.57673">
        <ele>1356.2</ele>
        <time>1970-01-01T02:56:25.000Z</time>
      </trkpt>
      <trkpt lat="45.05767" lon="5.57668">
        <ele>1356</ele>
        <time>1970-01-01T02:56:28.000Z</time>
      </trkpt>
      <trkpt lat="45.05768" lon="5.57668">
        <ele>1355.8</ele>
        <time>1970-01-01T02:56:29.000Z</time>
      </trkpt>
      <trkpt lat="45.05772" lon="5.57667">
        <ele>1355.2</ele>
        <time>1970-01-01T02:56:33.000Z</time>
      </trkpt>
      <trkpt lat="45.05772" lon="5.57666">
        <ele>1355</ele>
        <time>1970-01-01T02:56:34.000Z</time>
      </trkpt>
      <trkpt lat="45.05773" lon="5.57666">
        <ele>1354.8</ele>
        <time>1970-01-01T02:56:36.000Z</time>
      </trkpt>
      <trkpt lat="45.05777" lon="5.57663">
        <ele>1354.4</ele>
        <time>1970-01-01T02:56:39.000Z</time>
      </trkpt>
      <trkpt lat="45.05783" lon="5.57661">
        <ele>1354.4</ele>
        <time>1970-01-01T02:56:43.000Z</time>
      </trkpt>
      <trkpt lat="45.05786" lon="5.57659">
        <ele>1354.2</ele>
        <time>1970-01-01T02:56:46.000Z</time>
      </trkpt>
      <trkpt lat="45.05787" lon="5.57658">
        <ele>1354.2</ele>
        <time>1970-01-01T02:56:47.000Z</time>
      </trkpt>
      <trkpt lat="45.05789" lon="5.57656">
        <ele>1353.8</ele>
        <time>1970-01-01T02:56:50.000Z</time>
      </trkpt>
      <trkpt lat="45.0579" lon="5.57655">
        <ele>1353.8</ele>
        <time>1970-01-01T02:56:52.000Z</time>
      </trkpt>
      <trkpt lat="45.05791" lon="5.57654">
        <ele>1353.6</ele>
        <time>1970-01-01T02:56:53.000Z</time>
      </trkpt>
      <trkpt lat="45.05792" lon="5.57652">
        <ele>1352.8</ele>
        <time>1970-01-01T02:56:58.000Z</time>
      </trkpt>
      <trkpt lat="45.05792" lon="5.57651">
        <ele>1352.8</ele>
        <time>1970-01-01T02:56:59.000Z</time>
      </trkpt>
      <trkpt lat="45.05788" lon="5.57646">
        <ele>1352.4</ele>
        <time>1970-01-01T02:57:05.000Z</time>
      </trkpt>
      <trkpt lat="45.05787" lon="5.57645">
        <ele>1352.6</ele>
        <time>1970-01-01T02:57:06.000Z</time>
      </trkpt>
      <trkpt lat="45.05787" lon="5.57644">
        <ele>1352</ele>
        <time>1970-01-01T02:57:57.000Z</time>
      </trkpt>
      <trkpt lat="45.05792" lon="5.57642">
        <ele>1352.2</ele>
        <time>1970-01-01T02:57:59.000Z</time>
      </trkpt>
      <trkpt lat="45.05794" lon="5.57643">
        <ele>1352.2</ele>
        <time>1970-01-01T02:58:00.000Z</time>
      </trkpt>
      <trkpt lat="45.05796" lon="5.57643">
        <ele>1352.2</ele>
        <time>1970-01-01T02:58:01.000Z</time>
      </trkpt>
      <trkpt lat="45.05799" lon="5.57643">
        <ele>1352.4</ele>
        <time>1970-01-01T02:58:05.000Z</time>
      </trkpt>
      <trkpt lat="45.058" lon="5.57643">
        <ele>1352.4</ele>
        <time>1970-01-01T02:58:06.000Z</time>
      </trkpt>
      <trkpt lat="45.05803" lon="5.57642">
        <ele>1351.8</ele>
        <time>1970-01-01T02:58:10.000Z</time>
      </trkpt>
      <trkpt lat="45.05806" lon="5.57643">
        <ele>1351</ele>
        <time>1970-01-01T02:58:13.000Z</time>
      </trkpt>
      <trkpt lat="45.05807" lon="5.57644">
        <ele>1351</ele>
        <time>1970-01-01T02:58:14.000Z</time>
      </trkpt>
      <trkpt lat="45.05808" lon="5.57644">
        <ele>1350.8</ele>
        <time>1970-01-01T02:58:16.000Z</time>
      </trkpt>
      <trkpt lat="45.05809" lon="5.57643">
        <ele>1350.4</ele>
        <time>1970-01-01T02:58:18.000Z</time>
      </trkpt>
      <trkpt lat="45.0581" lon="5.57643">
        <ele>1350.2</ele>
        <time>1970-01-01T02:58:19.000Z</time>
      </trkpt>
      <trkpt lat="45.05812" lon="5.57643">
        <ele>1349.8</ele>
        <time>1970-01-01T02:58:23.000Z</time>
      </trkpt>
      <trkpt lat="45.05814" lon="5.57642">
        <ele>1349.6</ele>
        <time>1970-01-01T02:58:25.000Z</time>
      </trkpt>
      <trkpt lat="45.05817" lon="5.5764">
        <ele>1349.4</ele>
        <time>1970-01-01T02:58:29.000Z</time>
      </trkpt>
      <trkpt lat="45.05819" lon="5.5764">
        <ele>1349</ele>
        <time>1970-01-01T02:58:31.000Z</time>
      </trkpt>
      <trkpt lat="45.05821" lon="5.57638">
        <ele>1349</ele>
        <time>1970-01-01T02:58:33.000Z</time>
      </trkpt>
      <trkpt lat="45.05822" lon="5.57637">
        <ele>1348.6</ele>
        <time>1970-01-01T02:58:35.000Z</time>
      </trkpt>
      <trkpt lat="45.05824" lon="5.57637">
        <ele>1348.6</ele>
        <time>1970-01-01T02:58:37.000Z</time>
      </trkpt>
      <trkpt lat="45.05827" lon="5.57633">
        <ele>1348.6</ele>
        <time>1970-01-01T02:58:41.000Z</time>
      </trkpt>
      <trkpt lat="45.05829" lon="5.57632">
        <ele>1348.6</ele>
        <time>1970-01-01T02:58:43.000Z</time>
      </trkpt>
      <trkpt lat="45.0583" lon="5.57633">
        <ele>1348.4</ele>
        <time>1970-01-01T02:58:44.000Z</time>
      </trkpt>
      <trkpt lat="45.05834" lon="5.57634">
        <ele>1347.6</ele>
        <time>1970-01-01T02:58:47.000Z</time>
      </trkpt>
      <trkpt lat="45.05836" lon="5.57633">
        <ele>1347</ele>
        <time>1970-01-01T02:58:49.000Z</time>
      </trkpt>
      <trkpt lat="45.05837" lon="5.57633">
        <ele>1347</ele>
        <time>1970-01-01T02:58:50.000Z</time>
      </trkpt>
      <trkpt lat="45.05839" lon="5.57631">
        <ele>1346.4</ele>
        <time>1970-01-01T02:58:52.000Z</time>
      </trkpt>
      <trkpt lat="45.0584" lon="5.5763">
        <ele>1345.4</ele>
        <time>1970-01-01T02:58:54.000Z</time>
      </trkpt>
      <trkpt lat="45.0584" lon="5.57629">
        <ele>1345.2</ele>
        <time>1970-01-01T02:58:55.000Z</time>
      </trkpt>
      <trkpt lat="45.05841" lon="5.57628">
        <ele>1344.4</ele>
        <time>1970-01-01T02:58:58.000Z</time>
      </trkpt>
      <trkpt lat="45.05841" lon="5.57627">
        <ele>1343.8</ele>
        <time>1970-01-01T02:59:00.000Z</time>
      </trkpt>
      <trkpt lat="45.0584" lon="5.57626">
        <ele>1343.6</ele>
        <time>1970-01-01T02:59:02.000Z</time>
      </trkpt>
      <trkpt lat="45.0584" lon="5.57625">
        <ele>1343.4</ele>
        <time>1970-01-01T02:59:04.000Z</time>
      </trkpt>
      <trkpt lat="45.05839" lon="5.57625">
        <ele>1343.4</ele>
        <time>1970-01-01T02:59:06.000Z</time>
      </trkpt>
      <trkpt lat="45.05837" lon="5.57625">
        <ele>1343.4</ele>
        <time>1970-01-01T02:59:09.000Z</time>
      </trkpt>
      <trkpt lat="45.05836" lon="5.57623">
        <ele>1343.2</ele>
        <time>1970-01-01T02:59:12.000Z</time>
      </trkpt>
      <trkpt lat="45.05836" lon="5.5762">
        <ele>1342.8</ele>
        <time>1970-01-01T02:59:15.000Z</time>
      </trkpt>
      <trkpt lat="45.05838" lon="5.57615">
        <ele>1342</ele>
        <time>1970-01-01T02:59:21.000Z</time>
      </trkpt>
      <trkpt lat="45.05838" lon="5.57614">
        <ele>1341.6</ele>
        <time>1970-01-01T02:59:22.000Z</time>
      </trkpt>
      <trkpt lat="45.05837" lon="5.57612">
        <ele>1341</ele>
        <time>1970-01-01T02:59:25.000Z</time>
      </trkpt>
      <trkpt lat="45.05837" lon="5.57611">
        <ele>1340.8</ele>
        <time>1970-01-01T02:59:26.000Z</time>
      </trkpt>
      <trkpt lat="45.05838" lon="5.5761">
        <ele>1340.6</ele>
        <time>1970-01-01T02:59:29.000Z</time>
      </trkpt>
      <trkpt lat="45.05839" lon="5.57609">
        <ele>1339.8</ele>
        <time>1970-01-01T02:59:32.000Z</time>
      </trkpt>
      <trkpt lat="45.05839" lon="5.57608">
        <ele>1338.2</ele>
        <time>1970-01-01T02:59:37.000Z</time>
      </trkpt>
      <trkpt lat="45.05841" lon="5.57606">
        <ele>1337.4</ele>
        <time>1970-01-01T02:59:40.000Z</time>
      </trkpt>
      <trkpt lat="45.05843" lon="5.57605">
        <ele>1336.8</ele>
        <time>1970-01-01T02:59:43.000Z</time>
      </trkpt>
      <trkpt lat="45.05845" lon="5.57604">
        <ele>1336.2</ele>
        <time>1970-01-01T02:59:45.000Z</time>
      </trkpt>
      <trkpt lat="45.05847" lon="5.57604">
        <ele>1336</ele>
        <time>1970-01-01T02:59:46.000Z</time>
      </trkpt>
      <trkpt lat="45.05854" lon="5.57607">
        <ele>1335.2</ele>
        <time>1970-01-01T02:59:50.000Z</time>
      </trkpt>
      <trkpt lat="45.05855" lon="5.57607">
        <ele>1335</ele>
        <time>1970-01-01T02:59:52.000Z</time>
      </trkpt>
      <trkpt lat="45.05869" lon="5.57589">
        <ele>1319.4</ele>
        <time>1970-01-01T03:09:21.000Z</time>
      </trkpt>
      <trkpt lat="45.05867" lon="5.57587">
        <ele>1319.4</ele>
        <time>1970-01-01T03:09:23.000Z</time>
      </trkpt>
      <trkpt lat="45.05877" lon="5.57584">
        <ele>1319.2</ele>
        <time>1970-01-01T03:09:27.000Z</time>
      </trkpt>
      <trkpt lat="45.05874" lon="5.57573">
        <ele>1319.2</ele>
        <time>1970-01-01T03:09:30.000Z</time>
      </trkpt>
      <trkpt lat="45.05875" lon="5.57572">
        <ele>1319</ele>
        <time>1970-01-01T03:09:33.000Z</time>
      </trkpt>
      <trkpt lat="45.05876" lon="5.57572">
        <ele>1318.8</ele>
        <time>1970-01-01T03:09:35.000Z</time>
      </trkpt>
      <trkpt lat="45.05878" lon="5.57571">
        <ele>1318.4</ele>
        <time>1970-01-01T03:09:37.000Z</time>
      </trkpt>
      <trkpt lat="45.05879" lon="5.57573">
        <ele>1318.2</ele>
        <time>1970-01-01T03:09:41.000Z</time>
      </trkpt>
      <trkpt lat="45.0588" lon="5.57574">
        <ele>1318.2</ele>
        <time>1970-01-01T03:09:42.000Z</time>
      </trkpt>
      <trkpt lat="45.0588" lon="5.57575">
        <ele>1318.2</ele>
        <time>1970-01-01T03:09:43.000Z</time>
      </trkpt>
      <trkpt lat="45.0588" lon="5.57574">
        <ele>1317.8</ele>
        <time>1970-01-01T03:10:49.000Z</time>
      </trkpt>
      <trkpt lat="45.0588" lon="5.57572">
        <ele>1318</ele>
        <time>1970-01-01T03:10:57.000Z</time>
      </trkpt>
      <trkpt lat="45.05881" lon="5.57565">
        <ele>1317.4</ele>
        <time>1970-01-01T03:11:03.000Z</time>
      </trkpt>
      <trkpt lat="45.05881" lon="5.57563">
        <ele>1317.2</ele>
        <time>1970-01-01T03:11:05.000Z</time>
      </trkpt>
      <trkpt lat="45.05881" lon="5.57555">
        <ele>1317.4</ele>
        <time>1970-01-01T03:11:13.000Z</time>
      </trkpt>
      <trkpt lat="45.05878" lon="5.5755">
        <ele>1317.4</ele>
        <time>1970-01-01T03:11:19.000Z</time>
      </trkpt>
      <trkpt lat="45.05878" lon="5.57548">
        <ele>1317.4</ele>
        <time>1970-01-01T03:11:20.000Z</time>
      </trkpt>
      <trkpt lat="45.05877" lon="5.57545">
        <ele>1317.4</ele>
        <time>1970-01-01T03:11:22.000Z</time>
      </trkpt>
      <trkpt lat="45.05873" lon="5.57538">
        <ele>1317.4</ele>
        <time>1970-01-01T03:11:27.000Z</time>
      </trkpt>
      <trkpt lat="45.05871" lon="5.57535">
        <ele>1317.4</ele>
        <time>1970-01-01T03:11:29.000Z</time>
      </trkpt>
      <trkpt lat="45.05869" lon="5.57532">
        <ele>1317.4</ele>
        <time>1970-01-01T03:11:32.000Z</time>
      </trkpt>
      <trkpt lat="45.05866" lon="5.57527">
        <ele>1316.8</ele>
        <time>1970-01-01T03:11:36.000Z</time>
      </trkpt>
      <trkpt lat="45.05865" lon="5.57522">
        <ele>1316.2</ele>
        <time>1970-01-01T03:11:40.000Z</time>
      </trkpt>
      <trkpt lat="45.05865" lon="5.57519">
        <ele>1315.8</ele>
        <time>1970-01-01T03:11:42.000Z</time>
      </trkpt>
      <trkpt lat="45.05866" lon="5.57516">
        <ele>1315.2</ele>
        <time>1970-01-01T03:11:44.000Z</time>
      </trkpt>
      <trkpt lat="45.05866" lon="5.57515">
        <ele>1315</ele>
        <time>1970-01-01T03:11:45.000Z</time>
      </trkpt>
      <trkpt lat="45.05865" lon="5.57513">
        <ele>1314.8</ele>
        <time>1970-01-01T03:11:46.000Z</time>
      </trkpt>
      <trkpt lat="45.05865" lon="5.57511">
        <ele>1314.6</ele>
        <time>1970-01-01T03:11:47.000Z</time>
      </trkpt>
      <trkpt lat="45.05865" lon="5.5751">
        <ele>1314.6</ele>
        <time>1970-01-01T03:11:48.000Z</time>
      </trkpt>
      <trkpt lat="45.05865" lon="5.57508">
        <ele>1314.6</ele>
        <time>1970-01-01T03:11:49.000Z</time>
      </trkpt>
      <trkpt lat="45.05864" lon="5.57502">
        <ele>1314.4</ele>
        <time>1970-01-01T03:11:52.000Z</time>
      </trkpt>
      <trkpt lat="45.05863" lon="5.575">
        <ele>1314.2</ele>
        <time>1970-01-01T03:11:54.000Z</time>
      </trkpt>
      <trkpt lat="45.05863" lon="5.57499">
        <ele>1314</ele>
        <time>1970-01-01T03:11:55.000Z</time>
      </trkpt>
      <trkpt lat="45.05863" lon="5.57497">
        <ele>1314</ele>
        <time>1970-01-01T03:11:57.000Z</time>
      </trkpt>
      <trkpt lat="45.05862" lon="5.57496">
        <ele>1313.8</ele>
        <time>1970-01-01T03:11:58.000Z</time>
      </trkpt>
      <trkpt lat="45.05861" lon="5.57494">
        <ele>1313.6</ele>
        <time>1970-01-01T03:12:01.000Z</time>
      </trkpt>
      <trkpt lat="45.0586" lon="5.57493">
        <ele>1313.4</ele>
        <time>1970-01-01T03:12:02.000Z</time>
      </trkpt>
      <trkpt lat="45.05859" lon="5.57492">
        <ele>1313.4</ele>
        <time>1970-01-01T03:12:03.000Z</time>
      </trkpt>
      <trkpt lat="45.05858" lon="5.57492">
        <ele>1313.2</ele>
        <time>1970-01-01T03:12:04.000Z</time>
      </trkpt>
      <trkpt lat="45.05857" lon="5.57491">
        <ele>1313.2</ele>
        <time>1970-01-01T03:12:05.000Z</time>
      </trkpt>
      <trkpt lat="45.05855" lon="5.57488">
        <ele>1313.2</ele>
        <time>1970-01-01T03:12:08.000Z</time>
      </trkpt>
      <trkpt lat="45.05854" lon="5.57486">
        <ele>1313.2</ele>
        <time>1970-01-01T03:12:10.000Z</time>
      </trkpt>
      <trkpt lat="45.05853" lon="5.57484">
        <ele>1313.2</ele>
        <time>1970-01-01T03:12:12.000Z</time>
      </trkpt>
      <trkpt lat="45.05853" lon="5.5748">
        <ele>1313.2</ele>
        <time>1970-01-01T03:12:15.000Z</time>
      </trkpt>
      <trkpt lat="45.05853" lon="5.57478">
        <ele>1313.4</ele>
        <time>1970-01-01T03:12:17.000Z</time>
      </trkpt>
      <trkpt lat="45.05853" lon="5.57474">
        <ele>1313.4</ele>
        <time>1970-01-01T03:12:20.000Z</time>
      </trkpt>
      <trkpt lat="45.05853" lon="5.5747">
        <ele>1313.8</ele>
        <time>1970-01-01T03:12:23.000Z</time>
      </trkpt>
      <trkpt lat="45.05846" lon="5.57412">
        <ele>1308.2</ele>
        <time>1970-01-01T03:13:28.000Z</time>
      </trkpt>
      <trkpt lat="45.05845" lon="5.57408">
        <ele>1308.6</ele>
        <time>1970-01-01T03:13:30.000Z</time>
      </trkpt>
      <trkpt lat="45.05845" lon="5.57407">
        <ele>1308.6</ele>
        <time>1970-01-01T03:13:31.000Z</time>
      </trkpt>
      <trkpt lat="45.05845" lon="5.574">
        <ele>1309</ele>
        <time>1970-01-01T03:13:35.000Z</time>
      </trkpt>
      <trkpt lat="45.05844" lon="5.57395">
        <ele>1308.8</ele>
        <time>1970-01-01T03:13:37.000Z</time>
      </trkpt>
      <trkpt lat="45.05843" lon="5.5739">
        <ele>1308.6</ele>
        <time>1970-01-01T03:13:39.000Z</time>
      </trkpt>
      <trkpt lat="45.05841" lon="5.57384">
        <ele>1307.8</ele>
        <time>1970-01-01T03:13:42.000Z</time>
      </trkpt>
      <trkpt lat="45.0584" lon="5.57383">
        <ele>1307.6</ele>
        <time>1970-01-01T03:13:43.000Z</time>
      </trkpt>
      <trkpt lat="45.0584" lon="5.5738">
        <ele>1307.4</ele>
        <time>1970-01-01T03:13:45.000Z</time>
      </trkpt>
      <trkpt lat="45.05839" lon="5.57374">
        <ele>1307.4</ele>
        <time>1970-01-01T03:13:48.000Z</time>
      </trkpt>
      <trkpt lat="45.05839" lon="5.57371">
        <ele>1307</ele>
        <time>1970-01-01T03:13:50.000Z</time>
      </trkpt>
      <trkpt lat="45.05838" lon="5.57367">
        <ele>1306.6</ele>
        <time>1970-01-01T03:13:52.000Z</time>
      </trkpt>
      <trkpt lat="45.05836" lon="5.57364">
        <ele>1306.2</ele>
        <time>1970-01-01T03:13:54.000Z</time>
      </trkpt>
      <trkpt lat="45.05835" lon="5.57363">
        <ele>1306.2</ele>
        <time>1970-01-01T03:13:56.000Z</time>
      </trkpt>
      <trkpt lat="45.05834" lon="5.57362">
        <ele>1306</ele>
        <time>1970-01-01T03:13:57.000Z</time>
      </trkpt>
      <trkpt lat="45.05833" lon="5.57362">
        <ele>1306</ele>
        <time>1970-01-01T03:13:58.000Z</time>
      </trkpt>
      <trkpt lat="45.05833" lon="5.57361">
        <ele>1306</ele>
        <time>1970-01-01T03:13:59.000Z</time>
      </trkpt>
      <trkpt lat="45.05832" lon="5.57357">
        <ele>1306.2</ele>
        <time>1970-01-01T03:14:04.000Z</time>
      </trkpt>
      <trkpt lat="45.05831" lon="5.5735">
        <ele>1306</ele>
        <time>1970-01-01T03:14:10.000Z</time>
      </trkpt>
      <trkpt lat="45.0583" lon="5.57345">
        <ele>1305.8</ele>
        <time>1970-01-01T03:14:13.000Z</time>
      </trkpt>
      <trkpt lat="45.05829" lon="5.57342">
        <ele>1305.6</ele>
        <time>1970-01-01T03:14:16.000Z</time>
      </trkpt>
      <trkpt lat="45.05828" lon="5.57341">
        <ele>1305.6</ele>
        <time>1970-01-01T03:14:17.000Z</time>
      </trkpt>
      <trkpt lat="45.05827" lon="5.57338">
        <ele>1305.6</ele>
        <time>1970-01-01T03:14:19.000Z</time>
      </trkpt>
      <trkpt lat="45.05827" lon="5.57336">
        <ele>1305.4</ele>
        <time>1970-01-01T03:14:20.000Z</time>
      </trkpt>
      <trkpt lat="45.05825" lon="5.57333">
        <ele>1304.6</ele>
        <time>1970-01-01T03:14:23.000Z</time>
      </trkpt>
      <trkpt lat="45.05824" lon="5.57332">
        <ele>1304.4</ele>
        <time>1970-01-01T03:14:24.000Z</time>
      </trkpt>
      <trkpt lat="45.05824" lon="5.5733">
        <ele>1304.4</ele>
        <time>1970-01-01T03:14:26.000Z</time>
      </trkpt>
      <trkpt lat="45.05823" lon="5.5733">
        <ele>1304.4</ele>
        <time>1970-01-01T03:14:27.000Z</time>
      </trkpt>
      <trkpt lat="45.05822" lon="5.57329">
        <ele>1304.6</ele>
        <time>1970-01-01T03:14:30.000Z</time>
      </trkpt>
      <trkpt lat="45.05819" lon="5.57323">
        <ele>1304.2</ele>
        <time>1970-01-01T03:14:37.000Z</time>
      </trkpt>
      <trkpt lat="45.05819" lon="5.57321">
        <ele>1303.8</ele>
        <time>1970-01-01T03:14:38.000Z</time>
      </trkpt>
      <trkpt lat="45.05818" lon="5.5732">
        <ele>1303.8</ele>
        <time>1970-01-01T03:14:40.000Z</time>
      </trkpt>
      <trkpt lat="45.05818" lon="5.57317">
        <ele>1303.4</ele>
        <time>1970-01-01T03:14:42.000Z</time>
      </trkpt>
      <trkpt lat="45.05817" lon="5.57316">
        <ele>1303.4</ele>
        <time>1970-01-01T03:14:43.000Z</time>
      </trkpt>
      <trkpt lat="45.05817" lon="5.57313">
        <ele>1303.4</ele>
        <time>1970-01-01T03:14:45.000Z</time>
      </trkpt>
      <trkpt lat="45.0582" lon="5.57303">
        <ele>1302.8</ele>
        <time>1970-01-01T03:14:50.000Z</time>
      </trkpt>
      <trkpt lat="45.05821" lon="5.57299">
        <ele>1303</ele>
        <time>1970-01-01T03:14:52.000Z</time>
      </trkpt>
      <trkpt lat="45.05821" lon="5.57292">
        <ele>1303.2</ele>
        <time>1970-01-01T03:14:56.000Z</time>
      </trkpt>
      <trkpt lat="45.05818" lon="5.57284">
        <ele>1303</ele>
        <time>1970-01-01T03:15:01.000Z</time>
      </trkpt>
      <trkpt lat="45.05818" lon="5.57282">
        <ele>1302.8</ele>
        <time>1970-01-01T03:15:02.000Z</time>
      </trkpt>
      <trkpt lat="45.05817" lon="5.57279">
        <ele>1303</ele>
        <time>1970-01-01T03:15:04.000Z</time>
      </trkpt>
      <trkpt lat="45.05817" lon="5.57277">
        <ele>1303</ele>
        <time>1970-01-01T03:15:05.000Z</time>
      </trkpt>
      <trkpt lat="45.05817" lon="5.57271">
        <ele>1303</ele>
        <time>1970-01-01T03:15:09.000Z</time>
      </trkpt>
      <trkpt lat="45.05817" lon="5.57268">
        <ele>1303</ele>
        <time>1970-01-01T03:15:11.000Z</time>
      </trkpt>
      <trkpt lat="45.05817" lon="5.57267">
        <ele>1303</ele>
        <time>1970-01-01T03:15:12.000Z</time>
      </trkpt>
      <trkpt lat="45.05817" lon="5.57266">
        <ele>1303.2</ele>
        <time>1970-01-01T03:15:13.000Z</time>
      </trkpt>
      <trkpt lat="45.05817" lon="5.57263">
        <ele>1303.2</ele>
        <time>1970-01-01T03:15:15.000Z</time>
      </trkpt>
      <trkpt lat="45.05817" lon="5.57262">
        <ele>1303.2</ele>
        <time>1970-01-01T03:15:16.000Z</time>
      </trkpt>
      <trkpt lat="45.05817" lon="5.5726">
        <ele>1303.2</ele>
        <time>1970-01-01T03:15:17.000Z</time>
      </trkpt>
      <trkpt lat="45.05816" lon="5.5725">
        <ele>1303.4</ele>
        <time>1970-01-01T03:15:22.000Z</time>
      </trkpt>
      <trkpt lat="45.05816" lon="5.57248">
        <ele>1303.4</ele>
        <time>1970-01-01T03:15:23.000Z</time>
      </trkpt>
      <trkpt lat="45.05816" lon="5.5724">
        <ele>1303.2</ele>
        <time>1970-01-01T03:15:27.000Z</time>
      </trkpt>
      <trkpt lat="45.05816" lon="5.57236">
        <ele>1303.2</ele>
        <time>1970-01-01T03:15:29.000Z</time>
      </trkpt>
      <trkpt lat="45.05814" lon="5.57233">
        <ele>1303</ele>
        <time>1970-01-01T03:15:30.000Z</time>
      </trkpt>
      <trkpt lat="45.05814" lon="5.57226">
        <ele>1303.4</ele>
        <time>1970-01-01T03:15:35.000Z</time>
      </trkpt>
      <trkpt lat="45.05814" lon="5.57225">
        <ele>1303.4</ele>
        <time>1970-01-01T03:15:36.000Z</time>
      </trkpt>
      <trkpt lat="45.05815" lon="5.57218">
        <ele>1303.4</ele>
        <time>1970-01-01T03:15:40.000Z</time>
      </trkpt>
      <trkpt lat="45.05815" lon="5.57212">
        <ele>1303.6</ele>
        <time>1970-01-01T03:15:43.000Z</time>
      </trkpt>
      <trkpt lat="45.05817" lon="5.57202">
        <ele>1303.4</ele>
        <time>1970-01-01T03:15:49.000Z</time>
      </trkpt>
      <trkpt lat="45.05817" lon="5.57201">
        <ele>1303.4</ele>
        <time>1970-01-01T03:15:50.000Z</time>
      </trkpt>
      <trkpt lat="45.05817" lon="5.57199">
        <ele>1303.2</ele>
        <time>1970-01-01T03:15:52.000Z</time>
      </trkpt>
      <trkpt lat="45.05818" lon="5.57197">
        <ele>1303</ele>
        <time>1970-01-01T03:15:54.000Z</time>
      </trkpt>
      <trkpt lat="45.05818" lon="5.57196">
        <ele>1303</ele>
        <time>1970-01-01T03:15:55.000Z</time>
      </trkpt>
      <trkpt lat="45.05819" lon="5.5719">
        <ele>1302.6</ele>
        <time>1970-01-01T03:16:01.000Z</time>
      </trkpt>
      <trkpt lat="45.05821" lon="5.57176">
        <ele>1303.2</ele>
        <time>1970-01-01T03:16:09.000Z</time>
      </trkpt>
      <trkpt lat="45.05821" lon="5.57172">
        <ele>1303.4</ele>
        <time>1970-01-01T03:16:11.000Z</time>
      </trkpt>
      <trkpt lat="45.05822" lon="5.5717">
        <ele>1303.4</ele>
        <time>1970-01-01T03:16:12.000Z</time>
      </trkpt>
      <trkpt lat="45.05823" lon="5.57161">
        <ele>1302.6</ele>
        <time>1970-01-01T03:16:17.000Z</time>
      </trkpt>
      <trkpt lat="45.05823" lon="5.57159">
        <ele>1302.6</ele>
        <time>1970-01-01T03:16:18.000Z</time>
      </trkpt>
      <trkpt lat="45.05824" lon="5.57158">
        <ele>1302.4</ele>
        <time>1970-01-01T03:16:20.000Z</time>
      </trkpt>
      <trkpt lat="45.05824" lon="5.57156">
        <ele>1302.2</ele>
        <time>1970-01-01T03:16:22.000Z</time>
      </trkpt>
      <trkpt lat="45.05825" lon="5.57153">
        <ele>1301.8</ele>
        <time>1970-01-01T03:16:24.000Z</time>
      </trkpt>
      <trkpt lat="45.05826" lon="5.57147">
        <ele>1301.2</ele>
        <time>1970-01-01T03:16:28.000Z</time>
      </trkpt>
      <trkpt lat="45.05827" lon="5.57145">
        <ele>1301</ele>
        <time>1970-01-01T03:16:29.000Z</time>
      </trkpt>
      <trkpt lat="45.05828" lon="5.57144">
        <ele>1301</ele>
        <time>1970-01-01T03:16:30.000Z</time>
      </trkpt>
      <trkpt lat="45.05829" lon="5.57142">
        <ele>1301</ele>
        <time>1970-01-01T03:16:32.000Z</time>
      </trkpt>
      <trkpt lat="45.05831" lon="5.57139">
        <ele>1300.6</ele>
        <time>1970-01-01T03:16:34.000Z</time>
      </trkpt>
      <trkpt lat="45.05835" lon="5.57133">
        <ele>1300.2</ele>
        <time>1970-01-01T03:16:39.000Z</time>
      </trkpt>
      <trkpt lat="45.05838" lon="5.57131">
        <ele>1299.6</ele>
        <time>1970-01-01T03:16:43.000Z</time>
      </trkpt>
      <trkpt lat="45.05839" lon="5.5713">
        <ele>1299.6</ele>
        <time>1970-01-01T03:16:44.000Z</time>
      </trkpt>
      <trkpt lat="45.05841" lon="5.5713">
        <ele>1299.2</ele>
        <time>1970-01-01T03:16:46.000Z</time>
      </trkpt>
      <trkpt lat="45.05841" lon="5.57129">
        <ele>1299.2</ele>
        <time>1970-01-01T03:16:47.000Z</time>
      </trkpt>
      <trkpt lat="45.05842" lon="5.57129">
        <ele>1299</ele>
        <time>1970-01-01T03:16:48.000Z</time>
      </trkpt>
      <trkpt lat="45.05844" lon="5.57128">
        <ele>1298.6</ele>
        <time>1970-01-01T03:16:51.000Z</time>
      </trkpt>
      <trkpt lat="45.05845" lon="5.57127">
        <ele>1298.4</ele>
        <time>1970-01-01T03:16:52.000Z</time>
      </trkpt>
      <trkpt lat="45.05847" lon="5.57126">
        <ele>1298.2</ele>
        <time>1970-01-01T03:16:54.000Z</time>
      </trkpt>
      <trkpt lat="45.05849" lon="5.57125">
        <ele>1297.8</ele>
        <time>1970-01-01T03:16:56.000Z</time>
      </trkpt>
      <trkpt lat="45.0585" lon="5.57123">
        <ele>1297.8</ele>
        <time>1970-01-01T03:16:57.000Z</time>
      </trkpt>
      <trkpt lat="45.05851" lon="5.57122">
        <ele>1297.8</ele>
        <time>1970-01-01T03:16:58.000Z</time>
      </trkpt>
      <trkpt lat="45.05853" lon="5.57119">
        <ele>1297.4</ele>
        <time>1970-01-01T03:17:00.000Z</time>
      </trkpt>
      <trkpt lat="45.05856" lon="5.57114">
        <ele>1297.2</ele>
        <time>1970-01-01T03:17:04.000Z</time>
      </trkpt>
      <trkpt lat="45.05861" lon="5.57111">
        <ele>1297</ele>
        <time>1970-01-01T03:17:08.000Z</time>
      </trkpt>
      <trkpt lat="45.05862" lon="5.5711">
        <ele>1296.8</ele>
        <time>1970-01-01T03:17:10.000Z</time>
      </trkpt>
      <trkpt lat="45.05867" lon="5.57107">
        <ele>1296.2</ele>
        <time>1970-01-01T03:17:15.000Z</time>
      </trkpt>
      <trkpt lat="45.05869" lon="5.57106">
        <ele>1296.2</ele>
        <time>1970-01-01T03:17:17.000Z</time>
      </trkpt>
      <trkpt lat="45.05879" lon="5.57096">
        <ele>1294.6</ele>
        <time>1970-01-01T03:17:52.000Z</time>
      </trkpt>
      <trkpt lat="45.05887" lon="5.57065">
        <ele>1171.9</ele>
      </trkpt>
      <trkpt lat="45.05919" lon="5.5703">
        <ele>1164.7</ele>
      </trkpt>
      <trkpt lat="45.05957" lon="5.56986">
        <ele>1154.1</ele>
      </trkpt>
      <trkpt lat="45.05989" lon="5.56927">
        <ele>1150.9</ele>
      </trkpt>
      <trkpt lat="45.06003" lon="5.56894">
        <ele>1150.3</ele>
      </trkpt>
      <trkpt lat="45.06064" lon="5.56829">
        <ele>1136.5</ele>
      </trkpt>
      <trkpt lat="45.06187" lon="5.56717">
        <ele>1237.8</ele>
        <time>1970-01-01T03:26:06.000Z</time>
      </trkpt>
      <trkpt lat="45.06191" lon="5.56712">
        <ele>1237.4</ele>
        <time>1970-01-01T03:26:12.000Z</time>
      </trkpt>
      <trkpt lat="45.06192" lon="5.56708">
        <ele>1237.2</ele>
        <time>1970-01-01T03:26:14.000Z</time>
      </trkpt>
      <trkpt lat="45.06194" lon="5.56703">
        <ele>1237.6</ele>
        <time>1970-01-01T03:26:18.000Z</time>
      </trkpt>
      <trkpt lat="45.06194" lon="5.567">
        <ele>1237.4</ele>
        <time>1970-01-01T03:26:20.000Z</time>
      </trkpt>
      <trkpt lat="45.06195" lon="5.56696">
        <ele>1237.2</ele>
        <time>1970-01-01T03:26:22.000Z</time>
      </trkpt>
      <trkpt lat="45.06196" lon="5.56694">
        <ele>1237.2</ele>
        <time>1970-01-01T03:26:23.000Z</time>
      </trkpt>
      <trkpt lat="45.06196" lon="5.56693">
        <ele>1237.2</ele>
        <time>1970-01-01T03:26:24.000Z</time>
      </trkpt>
      <trkpt lat="45.06196" lon="5.56691">
        <ele>1237.2</ele>
        <time>1970-01-01T03:26:25.000Z</time>
      </trkpt>
      <trkpt lat="45.06197" lon="5.56689">
        <ele>1237</ele>
        <time>1970-01-01T03:26:27.000Z</time>
      </trkpt>
      <trkpt lat="45.06196" lon="5.56686">
        <ele>1237</ele>
        <time>1970-01-01T03:26:29.000Z</time>
      </trkpt>
      <trkpt lat="45.06196" lon="5.56685">
        <ele>1237</ele>
        <time>1970-01-01T03:26:30.000Z</time>
      </trkpt>
      <trkpt lat="45.06199" lon="5.56681">
        <ele>1237.2</ele>
        <time>1970-01-01T03:26:34.000Z</time>
      </trkpt>
      <trkpt lat="45.062" lon="5.56679">
        <ele>1237</ele>
        <time>1970-01-01T03:26:35.000Z</time>
      </trkpt>
      <trkpt lat="45.06204" lon="5.56672">
        <ele>1237</ele>
        <time>1970-01-01T03:26:40.000Z</time>
      </trkpt>
      <trkpt lat="45.06205" lon="5.5667">
        <ele>1237</ele>
        <time>1970-01-01T03:26:42.000Z</time>
      </trkpt>
      <trkpt lat="45.06206" lon="5.56669">
        <ele>1237</ele>
        <time>1970-01-01T03:26:43.000Z</time>
      </trkpt>
      <trkpt lat="45.06209" lon="5.56667">
        <ele>1237</ele>
        <time>1970-01-01T03:26:46.000Z</time>
      </trkpt>
      <trkpt lat="45.0621" lon="5.56666">
        <ele>1236.8</ele>
        <time>1970-01-01T03:26:48.000Z</time>
      </trkpt>
      <trkpt lat="45.0621" lon="5.56665">
        <ele>1236.8</ele>
        <time>1970-01-01T03:26:49.000Z</time>
      </trkpt>
      <trkpt lat="45.06211" lon="5.56663">
        <ele>1237</ele>
        <time>1970-01-01T03:26:51.000Z</time>
      </trkpt>
      <trkpt lat="45.06213" lon="5.56659">
        <ele>1237</ele>
        <time>1970-01-01T03:26:54.000Z</time>
      </trkpt>
      <trkpt lat="45.06213" lon="5.56658">
        <ele>1236.8</ele>
        <time>1970-01-01T03:26:55.000Z</time>
      </trkpt>
      <trkpt lat="45.06216" lon="5.56651">
        <ele>1236.4</ele>
        <time>1970-01-01T03:26:59.000Z</time>
      </trkpt>
      <trkpt lat="45.06217" lon="5.56649">
        <ele>1236.2</ele>
        <time>1970-01-01T03:27:00.000Z</time>
      </trkpt>
      <trkpt lat="45.06217" lon="5.56647">
        <ele>1236.2</ele>
        <time>1970-01-01T03:27:01.000Z</time>
      </trkpt>
      <trkpt lat="45.06219" lon="5.56642">
        <ele>1236</ele>
        <time>1970-01-01T03:27:04.000Z</time>
      </trkpt>
      <trkpt lat="45.06221" lon="5.56639">
        <ele>1236</ele>
        <time>1970-01-01T03:27:06.000Z</time>
      </trkpt>
      <trkpt lat="45.06223" lon="5.56635">
        <ele>1236</ele>
        <time>1970-01-01T03:27:08.000Z</time>
      </trkpt>
      <trkpt lat="45.06226" lon="5.56632">
        <ele>1236</ele>
        <time>1970-01-01T03:27:11.000Z</time>
      </trkpt>
      <trkpt lat="45.06228" lon="5.5663">
        <ele>1236</ele>
        <time>1970-01-01T03:27:15.000Z</time>
      </trkpt>
      <trkpt lat="45.0623" lon="5.56626">
        <ele>1236</ele>
        <time>1970-01-01T03:27:19.000Z</time>
      </trkpt>
      <trkpt lat="45.06232" lon="5.56622">
        <ele>1236.2</ele>
        <time>1970-01-01T03:27:22.000Z</time>
      </trkpt>
      <trkpt lat="45.06233" lon="5.5662">
        <ele>1236.2</ele>
        <time>1970-01-01T03:27:23.000Z</time>
      </trkpt>
      <trkpt lat="45.06234" lon="5.56619">
        <ele>1236.2</ele>
        <time>1970-01-01T03:27:24.000Z</time>
      </trkpt>
      <trkpt lat="45.06234" lon="5.56618">
        <ele>1236.2</ele>
        <time>1970-01-01T03:27:25.000Z</time>
      </trkpt>
      <trkpt lat="45.06235" lon="5.56615">
        <ele>1236.2</ele>
        <time>1970-01-01T03:27:27.000Z</time>
      </trkpt>
      <trkpt lat="45.06235" lon="5.56613">
        <ele>1236.2</ele>
        <time>1970-01-01T03:27:28.000Z</time>
      </trkpt>
      <trkpt lat="45.06235" lon="5.5661">
        <ele>1236.6</ele>
        <time>1970-01-01T03:27:30.000Z</time>
      </trkpt>
      <trkpt lat="45.06236" lon="5.56606">
        <ele>1236.8</ele>
        <time>1970-01-01T03:27:32.000Z</time>
      </trkpt>
      <trkpt lat="45.06237" lon="5.56602">
        <ele>1237</ele>
        <time>1970-01-01T03:27:35.000Z</time>
      </trkpt>
      <trkpt lat="45.06238" lon="5.566">
        <ele>1237.2</ele>
        <time>1970-01-01T03:27:37.000Z</time>
      </trkpt>
      <trkpt lat="45.0624" lon="5.56597">
        <ele>1237.4</ele>
        <time>1970-01-01T03:27:41.000Z</time>
      </trkpt>
      <trkpt lat="45.06242" lon="5.56596">
        <ele>1237.4</ele>
        <time>1970-01-01T03:27:43.000Z</time>
      </trkpt>
      <trkpt lat="45.06245" lon="5.56592">
        <ele>1237.8</ele>
        <time>1970-01-01T03:27:47.000Z</time>
      </trkpt>
      <trkpt lat="45.06247" lon="5.56588">
        <ele>1238</ele>
        <time>1970-01-01T03:27:50.000Z</time>
      </trkpt>
      <trkpt lat="45.0625" lon="5.56581">
        <ele>1239</ele>
        <time>1970-01-01T03:27:56.000Z</time>
      </trkpt>
      <trkpt lat="45.06251" lon="5.56579">
        <ele>1239.2</ele>
        <time>1970-01-01T03:27:57.000Z</time>
      </trkpt>
      <trkpt lat="45.06251" lon="5.56576">
        <ele>1239.4</ele>
        <time>1970-01-01T03:27:59.000Z</time>
      </trkpt>
      <trkpt lat="45.06251" lon="5.56573">
        <ele>1239.4</ele>
        <time>1970-01-01T03:28:02.000Z</time>
      </trkpt>
      <trkpt lat="45.06251" lon="5.56572">
        <ele>1239.4</ele>
        <time>1970-01-01T03:28:03.000Z</time>
      </trkpt>
      <trkpt lat="45.0625" lon="5.5657">
        <ele>1239.4</ele>
        <time>1970-01-01T03:28:05.000Z</time>
      </trkpt>
      <trkpt lat="45.0625" lon="5.56562">
        <ele>1240</ele>
        <time>1970-01-01T03:28:09.000Z</time>
      </trkpt>
      <trkpt lat="45.06251" lon="5.5656">
        <ele>1240</ele>
        <time>1970-01-01T03:28:10.000Z</time>
      </trkpt>
      <trkpt lat="45.0625" lon="5.5655">
        <ele>1239.8</ele>
        <time>1970-01-01T03:28:17.000Z</time>
      </trkpt>
      <trkpt lat="45.0625" lon="5.56549">
        <ele>1239.8</ele>
        <time>1970-01-01T03:28:18.000Z</time>
      </trkpt>
      <trkpt lat="45.0625" lon="5.56546">
        <ele>1239.8</ele>
        <time>1970-01-01T03:28:20.000Z</time>
      </trkpt>
      <trkpt lat="45.06251" lon="5.56543">
        <ele>1239.8</ele>
        <time>1970-01-01T03:28:22.000Z</time>
      </trkpt>
      <trkpt lat="45.06251" lon="5.56541">
        <ele>1240</ele>
        <time>1970-01-01T03:28:23.000Z</time>
      </trkpt>
      <trkpt lat="45.06252" lon="5.5654">
        <ele>1240</ele>
        <time>1970-01-01T03:28:24.000Z</time>
      </trkpt>
      <trkpt lat="45.06254" lon="5.56535">
        <ele>1240</ele>
        <time>1970-01-01T03:28:28.000Z</time>
      </trkpt>
      <trkpt lat="45.06254" lon="5.56534">
        <ele>1239.8</ele>
        <time>1970-01-01T03:28:29.000Z</time>
      </trkpt>
      <trkpt lat="45.06255" lon="5.56533">
        <ele>1239.8</ele>
        <time>1970-01-01T03:28:30.000Z</time>
      </trkpt>
      <trkpt lat="45.06254" lon="5.5653">
        <ele>1239.6</ele>
        <time>1970-01-01T03:28:32.000Z</time>
      </trkpt>
      <trkpt lat="45.06254" lon="5.56529">
        <ele>1239.6</ele>
        <time>1970-01-01T03:28:33.000Z</time>
      </trkpt>
      <trkpt lat="45.06254" lon="5.56525">
        <ele>1239.8</ele>
        <time>1970-01-01T03:28:36.000Z</time>
      </trkpt>
      <trkpt lat="45.06254" lon="5.56524">
        <ele>1239.8</ele>
        <time>1970-01-01T03:28:37.000Z</time>
      </trkpt>
      <trkpt lat="45.06255" lon="5.56518">
        <ele>1239.8</ele>
        <time>1970-01-01T03:28:41.000Z</time>
      </trkpt>
      <trkpt lat="45.06255" lon="5.56516">
        <ele>1239.4</ele>
        <time>1970-01-01T03:28:43.000Z</time>
      </trkpt>
      <trkpt lat="45.06256" lon="5.56512">
        <ele>1239.4</ele>
        <time>1970-01-01T03:28:45.000Z</time>
      </trkpt>
      <trkpt lat="45.06256" lon="5.56509">
        <ele>1239.2</ele>
        <time>1970-01-01T03:28:47.000Z</time>
      </trkpt>
      <trkpt lat="45.06258" lon="5.56505">
        <ele>1239</ele>
        <time>1970-01-01T03:28:50.000Z</time>
      </trkpt>
      <trkpt lat="45.06258" lon="5.56502">
        <ele>1239</ele>
        <time>1970-01-01T03:28:52.000Z</time>
      </trkpt>
      <trkpt lat="45.06259" lon="5.56492">
        <ele>1238.4</ele>
        <time>1970-01-01T03:29:00.000Z</time>
      </trkpt>
      <trkpt lat="45.06257" lon="5.56487">
        <ele>1238.4</ele>
        <time>1970-01-01T03:29:03.000Z</time>
      </trkpt>
      <trkpt lat="45.06256" lon="5.56484">
        <ele>1238.6</ele>
        <time>1970-01-01T03:29:05.000Z</time>
      </trkpt>
      <trkpt lat="45.06254" lon="5.56481">
        <ele>1238.6</ele>
        <time>1970-01-01T03:29:08.000Z</time>
      </trkpt>
      <trkpt lat="45.06253" lon="5.56475">
        <ele>1238.6</ele>
        <time>1970-01-01T03:29:11.000Z</time>
      </trkpt>
      <trkpt lat="45.06252" lon="5.56474">
        <ele>1238.2</ele>
        <time>1970-01-01T03:29:12.000Z</time>
      </trkpt>
      <trkpt lat="45.06251" lon="5.5647">
        <ele>1237.8</ele>
        <time>1970-01-01T03:29:15.000Z</time>
      </trkpt>
      <trkpt lat="45.06249" lon="5.56466">
        <ele>1237.8</ele>
        <time>1970-01-01T03:29:17.000Z</time>
      </trkpt>
      <trkpt lat="45.06246" lon="5.56461">
        <ele>1237.4</ele>
        <time>1970-01-01T03:29:21.000Z</time>
      </trkpt>
      <trkpt lat="45.06245" lon="5.5646">
        <ele>1237.4</ele>
        <time>1970-01-01T03:29:22.000Z</time>
      </trkpt>
      <trkpt lat="45.06244" lon="5.56456">
        <ele>1237.4</ele>
        <time>1970-01-01T03:29:25.000Z</time>
      </trkpt>
      <trkpt lat="45.06243" lon="5.56453">
        <ele>1237.2</ele>
        <time>1970-01-01T03:29:27.000Z</time>
      </trkpt>
      <trkpt lat="45.06243" lon="5.56449">
        <ele>1237.2</ele>
        <time>1970-01-01T03:29:30.000Z</time>
      </trkpt>
      <trkpt lat="45.06243" lon="5.56448">
        <ele>1237.2</ele>
        <time>1970-01-01T03:29:31.000Z</time>
      </trkpt>
      <trkpt lat="45.06244" lon="5.56441">
        <ele>1237.2</ele>
        <time>1970-01-01T03:29:36.000Z</time>
      </trkpt>
      <trkpt lat="45.06245" lon="5.56438">
        <ele>1237.2</ele>
        <time>1970-01-01T03:29:38.000Z</time>
      </trkpt>
      <trkpt lat="45.06245" lon="5.56436">
        <ele>1237.2</ele>
        <time>1970-01-01T03:29:39.000Z</time>
      </trkpt>
      <trkpt lat="45.06246" lon="5.5643">
        <ele>1237.2</ele>
        <time>1970-01-01T03:29:42.000Z</time>
      </trkpt>
      <trkpt lat="45.06246" lon="5.56423">
        <ele>1237.2</ele>
        <time>1970-01-01T03:29:45.000Z</time>
      </trkpt>
      <trkpt lat="45.06246" lon="5.56417">
        <ele>1236.6</ele>
        <time>1970-01-01T03:29:49.000Z</time>
      </trkpt>
      <trkpt lat="45.06246" lon="5.56412">
        <ele>1236.4</ele>
        <time>1970-01-01T03:29:51.000Z</time>
      </trkpt>
      <trkpt lat="45.06246" lon="5.5641">
        <ele>1236.4</ele>
        <time>1970-01-01T03:29:52.000Z</time>
      </trkpt>
      <trkpt lat="45.06246" lon="5.56408">
        <ele>1236.4</ele>
        <time>1970-01-01T03:29:53.000Z</time>
      </trkpt>
      <trkpt lat="45.06247" lon="5.56405">
        <ele>1236.2</ele>
        <time>1970-01-01T03:29:55.000Z</time>
      </trkpt>
      <trkpt lat="45.06248" lon="5.564">
        <ele>1235.8</ele>
        <time>1970-01-01T03:29:59.000Z</time>
      </trkpt>
      <trkpt lat="45.06248" lon="5.56397">
        <ele>1235.6</ele>
        <time>1970-01-01T03:30:01.000Z</time>
      </trkpt>
      <trkpt lat="45.06248" lon="5.56394">
        <ele>1235.6</ele>
        <time>1970-01-01T03:30:03.000Z</time>
      </trkpt>
      <trkpt lat="45.06247" lon="5.56386">
        <ele>1235.6</ele>
        <time>1970-01-01T03:30:08.000Z</time>
      </trkpt>
      <trkpt lat="45.06248" lon="5.56384">
        <ele>1235.6</ele>
        <time>1970-01-01T03:30:10.000Z</time>
      </trkpt>
      <trkpt lat="45.06248" lon="5.56382">
        <ele>1235.4</ele>
        <time>1970-01-01T03:30:11.000Z</time>
      </trkpt>
      <trkpt lat="45.06248" lon="5.56381">
        <ele>1235.2</ele>
        <time>1970-01-01T03:30:12.000Z</time>
      </trkpt>
      <trkpt lat="45.06248" lon="5.56376">
        <ele>1235</ele>
        <time>1970-01-01T03:30:16.000Z</time>
      </trkpt>
      <trkpt lat="45.06249" lon="5.56374">
        <ele>1235</ele>
        <time>1970-01-01T03:30:17.000Z</time>
      </trkpt>
      <trkpt lat="45.06249" lon="5.56372">
        <ele>1235</ele>
        <time>1970-01-01T03:30:18.000Z</time>
      </trkpt>
      <trkpt lat="45.06248" lon="5.56369">
        <ele>1235</ele>
        <time>1970-01-01T03:30:19.000Z</time>
      </trkpt>
      <trkpt lat="45.0625" lon="5.56363">
        <ele>1234.8</ele>
        <time>1970-01-01T03:30:23.000Z</time>
      </trkpt>
      <trkpt lat="45.0625" lon="5.56362">
        <ele>1234.8</ele>
        <time>1970-01-01T03:30:24.000Z</time>
      </trkpt>
      <trkpt lat="45.06251" lon="5.56359">
        <ele>1234.6</ele>
        <time>1970-01-01T03:30:26.000Z</time>
      </trkpt>
      <trkpt lat="45.06252" lon="5.56358">
        <ele>1234.4</ele>
        <time>1970-01-01T03:30:28.000Z</time>
      </trkpt>
      <trkpt lat="45.06254" lon="5.56354">
        <ele>1234.4</ele>
        <time>1970-01-01T03:30:31.000Z</time>
      </trkpt>
      <trkpt lat="45.06254" lon="5.56353">
        <ele>1234.2</ele>
        <time>1970-01-01T03:30:32.000Z</time>
      </trkpt>
      <trkpt lat="45.06255" lon="5.5635">
        <ele>1234.4</ele>
        <time>1970-01-01T03:30:34.000Z</time>
      </trkpt>
      <trkpt lat="45.06256" lon="5.56347">
        <ele>1234.4</ele>
        <time>1970-01-01T03:30:36.000Z</time>
      </trkpt>
      <trkpt lat="45.06257" lon="5.56345">
        <ele>1234.6</ele>
        <time>1970-01-01T03:30:38.000Z</time>
      </trkpt>
      <trkpt lat="45.06259" lon="5.56341">
        <ele>1234.6</ele>
        <time>1970-01-01T03:30:40.000Z</time>
      </trkpt>
      <trkpt lat="45.06261" lon="5.56337">
        <ele>1234.4</ele>
        <time>1970-01-01T03:30:43.000Z</time>
      </trkpt>
      <trkpt lat="45.06261" lon="5.56336">
        <ele>1234.4</ele>
        <time>1970-01-01T03:30:44.000Z</time>
      </trkpt>
      <trkpt lat="45.06262" lon="5.56334">
        <ele>1234.2</ele>
        <time>1970-01-01T03:30:45.000Z</time>
      </trkpt>
      <trkpt lat="45.06262" lon="5.56333">
        <ele>1234.2</ele>
        <time>1970-01-01T03:30:46.000Z</time>
      </trkpt>
      <trkpt lat="45.06263" lon="5.56329">
        <ele>1234</ele>
        <time>1970-01-01T03:30:49.000Z</time>
      </trkpt>
      <trkpt lat="45.06263" lon="5.56327">
        <ele>1234</ele>
        <time>1970-01-01T03:30:50.000Z</time>
      </trkpt>
      <trkpt lat="45.06264" lon="5.56324">
        <ele>1234</ele>
        <time>1970-01-01T03:30:52.000Z</time>
      </trkpt>
      <trkpt lat="45.06265" lon="5.56322">
        <ele>1233.8</ele>
        <time>1970-01-01T03:30:53.000Z</time>
      </trkpt>
      <trkpt lat="45.06265" lon="5.56321">
        <ele>1233.6</ele>
        <time>1970-01-01T03:30:54.000Z</time>
      </trkpt>
      <trkpt lat="45.06265" lon="5.56319">
        <ele>1233.6</ele>
        <time>1970-01-01T03:30:55.000Z</time>
      </trkpt>
      <trkpt lat="45.06266" lon="5.56316">
        <ele>1233.4</ele>
        <time>1970-01-01T03:30:57.000Z</time>
      </trkpt>
      <trkpt lat="45.06266" lon="5.56312">
        <ele>1233</ele>
        <time>1970-01-01T03:31:00.000Z</time>
      </trkpt>
      <trkpt lat="45.06266" lon="5.56311">
        <ele>1232.8</ele>
        <time>1970-01-01T03:31:01.000Z</time>
      </trkpt>
      <trkpt lat="45.06266" lon="5.56309">
        <ele>1232.6</ele>
        <time>1970-01-01T03:31:02.000Z</time>
      </trkpt>
      <trkpt lat="45.06266" lon="5.56303">
        <ele>1232.2</ele>
        <time>1970-01-01T03:31:07.000Z</time>
      </trkpt>
      <trkpt lat="45.06266" lon="5.56302">
        <ele>1232</ele>
        <time>1970-01-01T03:31:08.000Z</time>
      </trkpt>
      <trkpt lat="45.06266" lon="5.56298">
        <ele>1231.6</ele>
        <time>1970-01-01T03:31:10.000Z</time>
      </trkpt>
      <trkpt lat="45.06267" lon="5.56291">
        <ele>1231.4</ele>
        <time>1970-01-01T03:31:15.000Z</time>
      </trkpt>
      <trkpt lat="45.06268" lon="5.5629">
        <ele>1231.2</ele>
        <time>1970-01-01T03:31:16.000Z</time>
      </trkpt>
      <trkpt lat="45.06268" lon="5.56288">
        <ele>1231.2</ele>
        <time>1970-01-01T03:31:17.000Z</time>
      </trkpt>
      <trkpt lat="45.06268" lon="5.56284">
        <ele>1231</ele>
        <time>1970-01-01T03:31:19.000Z</time>
      </trkpt>
      <trkpt lat="45.06268" lon="5.56282">
        <ele>1230.8</ele>
        <time>1970-01-01T03:31:21.000Z</time>
      </trkpt>
      <trkpt lat="45.06268" lon="5.5628">
        <ele>1230.6</ele>
        <time>1970-01-01T03:31:22.000Z</time>
      </trkpt>
      <trkpt lat="45.06268" lon="5.56279">
        <ele>1230.4</ele>
        <time>1970-01-01T03:31:23.000Z</time>
      </trkpt>
      <trkpt lat="45.0627" lon="5.56273">
        <ele>1230</ele>
        <time>1970-01-01T03:31:27.000Z</time>
      </trkpt>
      <trkpt lat="45.06271" lon="5.56269">
        <ele>1229.8</ele>
        <time>1970-01-01T03:31:29.000Z</time>
      </trkpt>
      <trkpt lat="45.06274" lon="5.56261">
        <ele>1229.4</ele>
        <time>1970-01-01T03:31:35.000Z</time>
      </trkpt>
      <trkpt lat="45.06274" lon="5.56259">
        <ele>1229.4</ele>
        <time>1970-01-01T03:31:37.000Z</time>
      </trkpt>
      <trkpt lat="45.06274" lon="5.56257">
        <ele>1229.4</ele>
        <time>1970-01-01T03:31:38.000Z</time>
      </trkpt>
      <trkpt lat="45.06274" lon="5.56252">
        <ele>1229.4</ele>
        <time>1970-01-01T03:31:42.000Z</time>
      </trkpt>
      <trkpt lat="45.06274" lon="5.56249">
        <ele>1229.4</ele>
        <time>1970-01-01T03:31:44.000Z</time>
      </trkpt>
      <trkpt lat="45.06274" lon="5.56247">
        <ele>1229.4</ele>
        <time>1970-01-01T03:31:46.000Z</time>
      </trkpt>
      <trkpt lat="45.06274" lon="5.56239">
        <ele>1229.2</ele>
        <time>1970-01-01T03:31:52.000Z</time>
      </trkpt>
      <trkpt lat="45.06274" lon="5.56233">
        <ele>1228.8</ele>
        <time>1970-01-01T03:31:56.000Z</time>
      </trkpt>
      <trkpt lat="45.06276" lon="5.56229">
        <ele>1228.4</ele>
        <time>1970-01-01T03:31:59.000Z</time>
      </trkpt>
      <trkpt lat="45.06276" lon="5.56227">
        <ele>1228.4</ele>
        <time>1970-01-01T03:32:00.000Z</time>
      </trkpt>
      <trkpt lat="45.06279" lon="5.56218">
        <ele>1228</ele>
        <time>1970-01-01T03:32:05.000Z</time>
      </trkpt>
      <trkpt lat="45.06279" lon="5.56215">
        <ele>1227.8</ele>
        <time>1970-01-01T03:32:07.000Z</time>
      </trkpt>
      <trkpt lat="45.0628" lon="5.56213">
        <ele>1227.8</ele>
        <time>1970-01-01T03:32:08.000Z</time>
      </trkpt>
      <trkpt lat="45.0628" lon="5.56211">
        <ele>1227.6</ele>
        <time>1970-01-01T03:32:09.000Z</time>
      </trkpt>
      <trkpt lat="45.06281" lon="5.56204">
        <ele>1227.2</ele>
        <time>1970-01-01T03:32:13.000Z</time>
      </trkpt>
      <trkpt lat="45.06281" lon="5.56202">
        <ele>1227</ele>
        <time>1970-01-01T03:32:15.000Z</time>
      </trkpt>
      <trkpt lat="45.06282" lon="5.56201">
        <ele>1227</ele>
        <time>1970-01-01T03:32:16.000Z</time>
      </trkpt>
      <trkpt lat="45.06283" lon="5.56198">
        <ele>1227</ele>
        <time>1970-01-01T03:32:19.000Z</time>
      </trkpt>
      <trkpt lat="45.06285" lon="5.56196">
        <ele>1226.6</ele>
        <time>1970-01-01T03:32:21.000Z</time>
      </trkpt>
      <trkpt lat="45.06286" lon="5.56196">
        <ele>1226.4</ele>
        <time>1970-01-01T03:32:24.000Z</time>
      </trkpt>
      <trkpt lat="45.06286" lon="5.56195">
        <ele>1226.4</ele>
        <time>1970-01-01T03:32:26.000Z</time>
      </trkpt>
      <trkpt lat="45.06288" lon="5.56192">
        <ele>1226.4</ele>
        <time>1970-01-01T03:32:29.000Z</time>
      </trkpt>
      <trkpt lat="45.06289" lon="5.56189">
        <ele>1226.4</ele>
        <time>1970-01-01T03:32:31.000Z</time>
      </trkpt>
      <trkpt lat="45.0629" lon="5.56188">
        <ele>1226.4</ele>
        <time>1970-01-01T03:32:32.000Z</time>
      </trkpt>
      <trkpt lat="45.0629" lon="5.56187">
        <ele>1226.4</ele>
        <time>1970-01-01T03:32:33.000Z</time>
      </trkpt>
      <trkpt lat="45.06291" lon="5.56184">
        <ele>1226.2</ele>
        <time>1970-01-01T03:32:36.000Z</time>
      </trkpt>
      <trkpt lat="45.06292" lon="5.56181">
        <ele>1226</ele>
        <time>1970-01-01T03:32:38.000Z</time>
      </trkpt>
      <trkpt lat="45.06292" lon="5.56179">
        <ele>1226</ele>
        <time>1970-01-01T03:32:39.000Z</time>
      </trkpt>
      <trkpt lat="45.06293" lon="5.56175">
        <ele>1226</ele>
        <time>1970-01-01T03:32:41.000Z</time>
      </trkpt>
      <trkpt lat="45.06294" lon="5.56166">
        <ele>1226</ele>
        <time>1970-01-01T03:32:45.000Z</time>
      </trkpt>
      <trkpt lat="45.06294" lon="5.56164">
        <ele>1226</ele>
        <time>1970-01-01T03:32:46.000Z</time>
      </trkpt>
      <trkpt lat="45.06294" lon="5.56163">
        <ele>1226</ele>
        <time>1970-01-01T03:32:47.000Z</time>
      </trkpt>
      <trkpt lat="45.06295" lon="5.5616">
        <ele>1225.8</ele>
        <time>1970-01-01T03:32:49.000Z</time>
      </trkpt>
      <trkpt lat="45.06295" lon="5.56157">
        <ele>1225.4</ele>
        <time>1970-01-01T03:32:51.000Z</time>
      </trkpt>
      <trkpt lat="45.06296" lon="5.56152">
        <ele>1225</ele>
        <time>1970-01-01T03:32:54.000Z</time>
      </trkpt>
      <trkpt lat="45.06296" lon="5.56149">
        <ele>1225</ele>
        <time>1970-01-01T03:32:56.000Z</time>
      </trkpt>
      <trkpt lat="45.06297" lon="5.56147">
        <ele>1224.6</ele>
        <time>1970-01-01T03:32:57.000Z</time>
      </trkpt>
      <trkpt lat="45.06298" lon="5.56144">
        <ele>1224.4</ele>
        <time>1970-01-01T03:32:59.000Z</time>
      </trkpt>
      <trkpt lat="45.06301" lon="5.56136">
        <ele>1223.8</ele>
        <time>1970-01-01T03:33:04.000Z</time>
      </trkpt>
      <trkpt lat="45.06302" lon="5.56131">
        <ele>1223.6</ele>
        <time>1970-01-01T03:33:08.000Z</time>
      </trkpt>
      <trkpt lat="45.06302" lon="5.5613">
        <ele>1223.6</ele>
        <time>1970-01-01T03:33:09.000Z</time>
      </trkpt>
      <trkpt lat="45.06302" lon="5.56129">
        <ele>1223.4</ele>
        <time>1970-01-01T03:33:10.000Z</time>
      </trkpt>
      <trkpt lat="45.06302" lon="5.56127">
        <ele>1223.4</ele>
        <time>1970-01-01T03:33:11.000Z</time>
      </trkpt>
      <trkpt lat="45.06302" lon="5.56126">
        <ele>1223.4</ele>
        <time>1970-01-01T03:33:12.000Z</time>
      </trkpt>
      <trkpt lat="45.06302" lon="5.56124">
        <ele>1223.4</ele>
        <time>1970-01-01T03:33:13.000Z</time>
      </trkpt>
      <trkpt lat="45.06302" lon="5.56122">
        <ele>1223.2</ele>
        <time>1970-01-01T03:33:14.000Z</time>
      </trkpt>
      <trkpt lat="45.06304" lon="5.56117">
        <ele>1222.8</ele>
        <time>1970-01-01T03:33:18.000Z</time>
      </trkpt>
      <trkpt lat="45.06304" lon="5.56115">
        <ele>1222.4</ele>
        <time>1970-01-01T03:33:20.000Z</time>
      </trkpt>
      <trkpt lat="45.06305" lon="5.5611">
        <ele>1222.2</ele>
        <time>1970-01-01T03:33:23.000Z</time>
      </trkpt>
      <trkpt lat="45.06305" lon="5.56105">
        <ele>1222.2</ele>
        <time>1970-01-01T03:33:26.000Z</time>
      </trkpt>
      <trkpt lat="45.06305" lon="5.56104">
        <ele>1222</ele>
        <time>1970-01-01T03:33:27.000Z</time>
      </trkpt>
      <trkpt lat="45.06304" lon="5.56102">
        <ele>1221.8</ele>
        <time>1970-01-01T03:33:29.000Z</time>
      </trkpt>
      <trkpt lat="45.06303" lon="5.56098">
        <ele>1221.8</ele>
        <time>1970-01-01T03:33:33.000Z</time>
      </trkpt>
      <trkpt lat="45.06303" lon="5.56097">
        <ele>1221.4</ele>
        <time>1970-01-01T03:33:36.000Z</time>
      </trkpt>
      <trkpt lat="45.06301" lon="5.56091">
        <ele>1221.2</ele>
        <time>1970-01-01T03:33:39.000Z</time>
      </trkpt>
      <trkpt lat="45.063" lon="5.56089">
        <ele>1221</ele>
        <time>1970-01-01T03:33:40.000Z</time>
      </trkpt>
      <trkpt lat="45.06299" lon="5.56087">
        <ele>1220.4</ele>
        <time>1970-01-01T03:33:42.000Z</time>
      </trkpt>
      <trkpt lat="45.06298" lon="5.56083">
        <ele>1220.2</ele>
        <time>1970-01-01T03:33:44.000Z</time>
      </trkpt>
      <trkpt lat="45.06295" lon="5.56077">
        <ele>1219.4</ele>
        <time>1970-01-01T03:33:48.000Z</time>
      </trkpt>
      <trkpt lat="45.06295" lon="5.56073">
        <ele>1219</ele>
        <time>1970-01-01T03:33:50.000Z</time>
      </trkpt>
      <trkpt lat="45.06294" lon="5.56073">
        <ele>1219</ele>
        <time>1970-01-01T03:33:51.000Z</time>
      </trkpt>
      <trkpt lat="45.06294" lon="5.56071">
        <ele>1218.8</ele>
        <time>1970-01-01T03:33:52.000Z</time>
      </trkpt>
      <trkpt lat="45.06292" lon="5.56067">
        <ele>1218.6</ele>
        <time>1970-01-01T03:33:56.000Z</time>
      </trkpt>
      <trkpt lat="45.06292" lon="5.56066">
        <ele>1218.6</ele>
        <time>1970-01-01T03:33:57.000Z</time>
      </trkpt>
      <trkpt lat="45.06292" lon="5.56065">
        <ele>1218.2</ele>
        <time>1970-01-01T03:33:58.000Z</time>
      </trkpt>
      <trkpt lat="45.06291" lon="5.56062">
        <ele>1218</ele>
        <time>1970-01-01T03:34:00.000Z</time>
      </trkpt>
      <trkpt lat="45.06291" lon="5.56059">
        <ele>1218</ele>
        <time>1970-01-01T03:34:02.000Z</time>
      </trkpt>
      <trkpt lat="45.06292" lon="5.56058">
        <ele>1218</ele>
        <time>1970-01-01T03:34:04.000Z</time>
      </trkpt>
      <trkpt lat="45.06292" lon="5.56057">
        <ele>1218</ele>
        <time>1970-01-01T03:34:05.000Z</time>
      </trkpt>
      <trkpt lat="45.06292" lon="5.56056">
        <ele>1217.4</ele>
        <time>1970-01-01T03:34:07.000Z</time>
      </trkpt>
      <trkpt lat="45.06292" lon="5.56052">
        <ele>1216.8</ele>
        <time>1970-01-01T03:34:10.000Z</time>
      </trkpt>
      <trkpt lat="45.06292" lon="5.56049">
        <ele>1216.6</ele>
        <time>1970-01-01T03:34:12.000Z</time>
      </trkpt>
      <trkpt lat="45.06291" lon="5.56045">
        <ele>1216.2</ele>
        <time>1970-01-01T03:34:16.000Z</time>
      </trkpt>
      <trkpt lat="45.0629" lon="5.56042">
        <ele>1216.2</ele>
        <time>1970-01-01T03:34:17.000Z</time>
      </trkpt>
      <trkpt lat="45.0629" lon="5.5604">
        <ele>1216</ele>
        <time>1970-01-01T03:34:19.000Z</time>
      </trkpt>
      <trkpt lat="45.06289" lon="5.56037">
        <ele>1216.2</ele>
        <time>1970-01-01T03:34:21.000Z</time>
      </trkpt>
      <trkpt lat="45.06288" lon="5.56034">
        <ele>1216.4</ele>
        <time>1970-01-01T03:34:24.000Z</time>
      </trkpt>
      <trkpt lat="45.06288" lon="5.56032">
        <ele>1216.6</ele>
        <time>1970-01-01T03:34:25.000Z</time>
      </trkpt>
      <trkpt lat="45.06287" lon="5.56031">
        <ele>1217</ele>
        <time>1970-01-01T03:34:27.000Z</time>
      </trkpt>
      <trkpt lat="45.06288" lon="5.56026">
        <ele>1217.2</ele>
        <time>1970-01-01T03:34:29.000Z</time>
      </trkpt>
      <trkpt lat="45.06286" lon="5.56023">
        <ele>1217.4</ele>
        <time>1970-01-01T03:34:32.000Z</time>
      </trkpt>
      <trkpt lat="45.06284" lon="5.5602">
        <ele>1217.2</ele>
        <time>1970-01-01T03:34:35.000Z</time>
      </trkpt>
      <trkpt lat="45.06284" lon="5.56017">
        <ele>1217.2</ele>
        <time>1970-01-01T03:34:38.000Z</time>
      </trkpt>
      <trkpt lat="45.06283" lon="5.56013">
        <ele>1217.2</ele>
        <time>1970-01-01T03:34:40.000Z</time>
      </trkpt>
      <trkpt lat="45.06275" lon="5.56027">
        <ele>1096.1</ele>
      </trkpt>
      <trkpt lat="45.0626" lon="5.56048">
        <ele>1099.9</ele>
      </trkpt>
      <trkpt lat="45.06252" lon="5.56084">
        <ele>1106.8</ele>
      </trkpt>
      <trkpt lat="45.06248" lon="5.56103">
        <ele>1109.8</ele>
      </trkpt>
      <trkpt lat="45.06251" lon="5.56121">
        <ele>1112.1</ele>
      </trkpt>
      <trkpt lat="45.06231" lon="5.56175">
        <ele>1121.9</ele>
      </trkpt>
      <trkpt lat="45.06189" lon="5.56284">
        <ele>1137.1</ele>
      </trkpt>
      <trkpt lat="45.06134" lon="5.56382">
        <ele>1152.9</ele>
      </trkpt>
      <trkpt lat="45.06048" lon="5.56432">
        <ele>1159.7</ele>
      </trkpt>
      <trkpt lat="45.05961" lon="5.56473">
        <ele>1179.5</ele>
      </trkpt>
      <trkpt lat="45.05942" lon="5.56479">
        <ele>1185.1</ele>
      </trkpt>
      <trkpt lat="45.05934" lon="5.56465">
        <ele>1184.9</ele>
      </trkpt>
      <trkpt lat="45.05923" lon="5.56421">
        <ele>1184.3</ele>
      </trkpt>
      <trkpt lat="45.05887" lon="5.56482">
        <ele>1198.8</ele>
      </trkpt>
      <trkpt lat="45.05877" lon="5.56541">
        <ele>1206.5</ele>
      </trkpt>
      <trkpt lat="45.05986" lon="5.56608">
        <ele>1223.1</ele>
      </trkpt>
      <trkpt lat="45.06005" lon="5.56641">
        <ele>1223.7</ele>
      </trkpt>
      <trkpt lat="45.06004" lon="5.56674">
        <ele>1220.2</ele>
      </trkpt>
      <trkpt lat="45.05908" lon="5.56679">
        <ele>1237.9</ele>
      </trkpt>
      <trkpt lat="45.05847" lon="5.56701">
        <ele>1241.4</ele>
      </trkpt>
      <trkpt lat="45.05808" lon="5.56731">
        <ele>1244.9</ele>
      </trkpt>
      <trkpt lat="45.05807" lon="5.56853">
        <ele>1246.5</ele>
      </trkpt>
      <trkpt lat="45.05698" lon="5.56965">
        <ele>1244.8</ele>
      </trkpt>
      <trkpt lat="45.05599" lon="5.57077">
        <ele>1250.8</ele>
      </trkpt>
      <trkpt lat="45.05564" lon="5.57345">
        <ele>1283.7</ele>
      </trkpt>
      <trkpt lat="45.05372" lon="5.5721">
        <ele>1310.3</ele>
      </trkpt>
      <trkpt lat="45.05183" lon="5.57061">
        <ele>1320</ele>
      </trkpt>
      <trkpt lat="45.05054" lon="5.5708">
        <ele>1329</ele>
      </trkpt>
      <trkpt lat="45.04863" lon="5.56994">
        <ele>1326.5</ele>
      </trkpt>
      <trkpt lat="45.04774" lon="5.57202">
        <ele>1328.8</ele>
      </trkpt>
      <trkpt lat="45.04785" lon="5.57374">
        <ele>1332.6</ele>
      </trkpt>
      <trkpt lat="45.04719" lon="5.57215">
        <ele>1316</ele>
      </trkpt>
      <trkpt lat="45.04688" lon="5.57136">
        <ele>1325</ele>
      </trkpt>
      <trkpt lat="45.04618" lon="5.57099">
        <ele>1333.7</ele>
      </trkpt>
      <trkpt lat="45.04563" lon="5.57194">
        <ele>1359.2</ele>
      </trkpt>
      <trkpt lat="45.04534" lon="5.5727">
        <ele>1373.1</ele>
      </trkpt>
      <trkpt lat="45.04479" lon="5.57275">
        <ele>1387.4</ele>
      </trkpt>
      <trkpt lat="45.04431" lon="5.5727">
        <ele>1400.2</ele>
      </trkpt>
      <trkpt lat="45.04412" lon="5.5727">
        <ele>1405.2</ele>
      </trkpt>
      <trkpt lat="45.04362" lon="5.57247">
        <ele>1414.6</ele>
      </trkpt>
      <trkpt lat="45.04364" lon="5.57204">
        <ele>1409.1</ele>
      </trkpt>
      <trkpt lat="45.04409" lon="5.57173">
        <ele>1401.7</ele>
      </trkpt>
      <trkpt lat="45.04358" lon="5.57111">
        <ele>1396.6</ele>
      </trkpt>
      <trkpt lat="45.04403" lon="5.57063">
        <ele>1386.2</ele>
      </trkpt>
      <trkpt lat="45.04412" lon="5.57005">
        <ele>1381.6</ele>
      </trkpt>
      <trkpt lat="45.0439" lon="5.56949">
        <ele>1389.5</ele>
      </trkpt>
      <trkpt lat="45.04335" lon="5.56923">
        <ele>1401.6</ele>
      </trkpt>
      <trkpt lat="45.04284" lon="5.56855">
        <ele>1410.2</ele>
      </trkpt>
      <trkpt lat="45.04142" lon="5.56902">
        <ele>1439.4</ele>
      </trkpt>
      <trkpt lat="45.04078" lon="5.56835">
        <ele>1446.3</ele>
      </trkpt>
      <trkpt lat="45.04036" lon="5.56754">
        <ele>1451.1</ele>
      </trkpt>
      <trkpt lat="45.03923" lon="5.56694">
        <ele>1469.6</ele>
      </trkpt>
      <trkpt lat="45.03882" lon="5.56709">
        <ele>1479.2</ele>
      </trkpt>
      <trkpt lat="45.03886" lon="5.56739">
        <ele>1484.4</ele>
      </trkpt>
      <trkpt lat="45.03853" lon="5.5672">
        <ele>1486.2</ele>
      </trkpt>
      <trkpt lat="45.03853" lon="5.5669">
        <ele>1480.6</ele>
      </trkpt>
      <trkpt lat="45.03892" lon="5.56674">
        <ele>1470.2</ele>
      </trkpt>
      <trkpt lat="45.03924" lon="5.56645">
        <ele>1459.3</ele>
      </trkpt>
      <trkpt lat="45.03882" lon="5.56572">
        <ele>1448.5</ele>
      </trkpt>
      <trkpt lat="45.03906" lon="5.56551">
        <ele>1439.5</ele>
      </trkpt>
      <trkpt lat="45.03875" lon="5.56476">
        <ele>1428.3</ele>
      </trkpt>
      <trkpt lat="45.03861" lon="5.56269">
        <ele>1386</ele>
      </trkpt>
      <trkpt lat="45.03812" lon="5.56191">
        <ele>1379.1</ele>
      </trkpt>
      <trkpt lat="45.03752" lon="5.56173">
        <ele>1377.9</ele>
      </trkpt>
      <trkpt lat="45.03675" lon="5.56178">
        <ele>1375.1</ele>
      </trkpt>
      <trkpt lat="45.03645" lon="5.56101">
        <ele>1347.9</ele>
      </trkpt>
      <trkpt lat="45.03657" lon="5.56014">
        <ele>1325.5</ele>
      </trkpt>
      <trkpt lat="45.03738" lon="5.55936">
        <ele>1316</ele>
      </trkpt>
      <trkpt lat="45.0379" lon="5.5588">
        <ele>1300.5</ele>
      </trkpt>
      <trkpt lat="45.03794" lon="5.55792">
        <ele>1275.1</ele>
      </trkpt>
      <trkpt lat="45.03847" lon="5.55744">
        <ele>1260.9</ele>
      </trkpt>
      <trkpt lat="45.0419" lon="5.55844">
        <ele>1212.2</ele>
      </trkpt>
      <trkpt lat="45.04287" lon="5.55788">
        <ele>1183.6</ele>
      </trkpt>
      <trkpt lat="45.04218" lon="5.55608">
        <ele>1181.6</ele>
      </trkpt>
      <trkpt lat="45.04288" lon="5.55473">
        <ele>1074</ele>
        <time>1970-01-01T00:26:12.000Z</time>
      </trkpt>
      <trkpt lat="45.04282" lon="5.55463">
        <ele>1074</ele>
        <time>1970-01-01T00:26:16.000Z</time>
      </trkpt>
      <trkpt lat="45.04276" lon="5.55444">
        <ele>1074</ele>
        <time>1970-01-01T00:26:21.000Z</time>
      </trkpt>
      <trkpt lat="45.04265" lon="5.55422">
        <ele>1074</ele>
        <time>1970-01-01T00:26:27.000Z</time>
      </trkpt>
      <trkpt lat="45.04252" lon="5.55398">
        <ele>1074</ele>
        <time>1970-01-01T00:26:34.000Z</time>
      </trkpt>
      <trkpt lat="45.04246" lon="5.55392">
        <ele>1074.6</ele>
        <time>1970-01-01T00:26:36.000Z</time>
      </trkpt>
      <trkpt lat="45.04244" lon="5.55389">
        <ele>1075</ele>
        <time>1970-01-01T00:26:37.000Z</time>
      </trkpt>
      <trkpt lat="45.04242" lon="5.55385">
        <ele>1075.4</ele>
        <time>1970-01-01T00:26:38.000Z</time>
      </trkpt>
      <trkpt lat="45.04239" lon="5.55379">
        <ele>1075.8</ele>
        <time>1970-01-01T00:26:39.000Z</time>
      </trkpt>
      <trkpt lat="45.04235" lon="5.55374">
        <ele>1076.2</ele>
        <time>1970-01-01T00:26:40.000Z</time>
      </trkpt>
      <trkpt lat="45.04223" lon="5.55348">
        <ele>1076.2</ele>
        <time>1970-01-01T00:26:44.000Z</time>
      </trkpt>
      <trkpt lat="45.04217" lon="5.55333">
        <ele>1076.2</ele>
        <time>1970-01-01T00:26:46.000Z</time>
      </trkpt>
      <trkpt lat="45.04214" lon="5.55326">
        <ele>1075.8</ele>
        <time>1970-01-01T00:26:47.000Z</time>
      </trkpt>
      <trkpt lat="45.04211" lon="5.55318">
        <ele>1075.2</ele>
        <time>1970-01-01T00:26:48.000Z</time>
      </trkpt>
      <trkpt lat="45.04208" lon="5.5531">
        <ele>1074.8</ele>
        <time>1970-01-01T00:26:49.000Z</time>
      </trkpt>
      <trkpt lat="45.04205" lon="5.55303">
        <ele>1074.4</ele>
        <time>1970-01-01T00:26:50.000Z</time>
      </trkpt>
      <trkpt lat="45.04203" lon="5.55296">
        <ele>1073.8</ele>
        <time>1970-01-01T00:26:51.000Z</time>
      </trkpt>
      <trkpt lat="45.04196" lon="5.55281">
        <ele>1073.8</ele>
        <time>1970-01-01T00:26:53.000Z</time>
      </trkpt>
      <trkpt lat="45.04189" lon="5.55269">
        <ele>1073.8</ele>
        <time>1970-01-01T00:26:55.000Z</time>
      </trkpt>
      <trkpt lat="45.04178" lon="5.55251">
        <ele>1073.8</ele>
        <time>1970-01-01T00:26:58.000Z</time>
      </trkpt>
      <trkpt lat="45.0417" lon="5.55244">
        <ele>1073.4</ele>
        <time>1970-01-01T00:27:00.000Z</time>
      </trkpt>
      <trkpt lat="45.04165" lon="5.55242">
        <ele>1073</ele>
        <time>1970-01-01T00:27:01.000Z</time>
      </trkpt>
      <trkpt lat="45.04162" lon="5.55238">
        <ele>1072.6</ele>
        <time>1970-01-01T00:27:02.000Z</time>
      </trkpt>
      <trkpt lat="45.04158" lon="5.55233">
        <ele>1072.2</ele>
        <time>1970-01-01T00:27:03.000Z</time>
      </trkpt>
      <trkpt lat="45.04155" lon="5.55228">
        <ele>1071.8</ele>
        <time>1970-01-01T00:27:04.000Z</time>
      </trkpt>
      <trkpt lat="45.04152" lon="5.55224">
        <ele>1071.8</ele>
        <time>1970-01-01T00:27:05.000Z</time>
      </trkpt>
      <trkpt lat="45.0415" lon="5.55219">
        <ele>1071.8</ele>
        <time>1970-01-01T00:27:06.000Z</time>
      </trkpt>
      <trkpt lat="45.04148" lon="5.55212">
        <ele>1071.2</ele>
        <time>1970-01-01T00:27:07.000Z</time>
      </trkpt>
      <trkpt lat="45.04147" lon="5.55205">
        <ele>1070.8</ele>
        <time>1970-01-01T00:27:08.000Z</time>
      </trkpt>
      <trkpt lat="45.04147" lon="5.55197">
        <ele>1070.2</ele>
        <time>1970-01-01T00:27:09.000Z</time>
      </trkpt>
      <trkpt lat="45.04148" lon="5.55184">
        <ele>1069.4</ele>
        <time>1970-01-01T00:27:10.000Z</time>
      </trkpt>
      <trkpt lat="45.0415" lon="5.55172">
        <ele>1068.6</ele>
        <time>1970-01-01T00:27:11.000Z</time>
      </trkpt>
      <trkpt lat="45.04153" lon="5.5516">
        <ele>1067.8</ele>
        <time>1970-01-01T00:27:12.000Z</time>
      </trkpt>
      <trkpt lat="45.04156" lon="5.55148">
        <ele>1066.8</ele>
        <time>1970-01-01T00:27:13.000Z</time>
      </trkpt>
      <trkpt lat="45.04158" lon="5.55138">
        <ele>1065.8</ele>
        <time>1970-01-01T00:27:14.000Z</time>
      </trkpt>
      <trkpt lat="45.04157" lon="5.55127">
        <ele>1064.8</ele>
        <time>1970-01-01T00:27:15.000Z</time>
      </trkpt>
      <trkpt lat="45.04152" lon="5.55115">
        <ele>1063.8</ele>
        <time>1970-01-01T00:27:16.000Z</time>
      </trkpt>
      <trkpt lat="45.04146" lon="5.55104">
        <ele>1062.8</ele>
        <time>1970-01-01T00:27:17.000Z</time>
      </trkpt>
      <trkpt lat="45.04142" lon="5.55094">
        <ele>1062</ele>
        <time>1970-01-01T00:27:18.000Z</time>
      </trkpt>
      <trkpt lat="45.0414" lon="5.55082">
        <ele>1061</ele>
        <time>1970-01-01T00:27:19.000Z</time>
      </trkpt>
      <trkpt lat="45.04139" lon="5.55071">
        <ele>1060</ele>
        <time>1970-01-01T00:27:20.000Z</time>
      </trkpt>
      <trkpt lat="45.04141" lon="5.55062">
        <ele>1058</ele>
        <time>1970-01-01T00:27:21.000Z</time>
      </trkpt>
      <trkpt lat="45.04144" lon="5.55053">
        <ele>1057</ele>
        <time>1970-01-01T00:27:22.000Z</time>
      </trkpt>
      <trkpt lat="45.04157" lon="5.55033">
        <ele>1057</ele>
        <time>1970-01-01T00:27:25.000Z</time>
      </trkpt>
      <trkpt lat="45.04161" lon="5.55027">
        <ele>1057</ele>
        <time>1970-01-01T00:27:26.000Z</time>
      </trkpt>
      <trkpt lat="45.0417" lon="5.55014">
        <ele>1056.6</ele>
        <time>1970-01-01T00:27:28.000Z</time>
      </trkpt>
      <trkpt lat="45.04174" lon="5.55009">
        <ele>1056.2</ele>
        <time>1970-01-01T00:27:29.000Z</time>
      </trkpt>
      <trkpt lat="45.04179" lon="5.55003">
        <ele>1055.6</ele>
        <time>1970-01-01T00:27:30.000Z</time>
      </trkpt>
      <trkpt lat="45.04183" lon="5.54998">
        <ele>1055.2</ele>
        <time>1970-01-01T00:27:31.000Z</time>
      </trkpt>
      <trkpt lat="45.04187" lon="5.54992">
        <ele>1054.6</ele>
        <time>1970-01-01T00:27:32.000Z</time>
      </trkpt>
      <trkpt lat="45.04196" lon="5.54982">
        <ele>1054.6</ele>
        <time>1970-01-01T00:27:34.000Z</time>
      </trkpt>
      <trkpt lat="45.04212" lon="5.54965">
        <ele>1054.6</ele>
        <time>1970-01-01T00:27:37.000Z</time>
      </trkpt>
      <trkpt lat="45.04236" lon="5.54936">
        <ele>1054.6</ele>
        <time>1970-01-01T00:27:41.000Z</time>
      </trkpt>
      <trkpt lat="45.04242" lon="5.54927">
        <ele>1054.6</ele>
        <time>1970-01-01T00:27:42.000Z</time>
      </trkpt>
      <trkpt lat="45.04257" lon="5.54893">
        <ele>1054.6</ele>
        <time>1970-01-01T00:27:47.000Z</time>
      </trkpt>
      <trkpt lat="45.0426" lon="5.54881">
        <ele>1054.6</ele>
        <time>1970-01-01T00:27:49.000Z</time>
      </trkpt>
      <trkpt lat="45.04264" lon="5.54866">
        <ele>1054.6</ele>
        <time>1970-01-01T00:27:51.000Z</time>
      </trkpt>
      <trkpt lat="45.04267" lon="5.54858">
        <ele>1054.2</ele>
        <time>1970-01-01T00:27:52.000Z</time>
      </trkpt>
      <trkpt lat="45.04271" lon="5.5485">
        <ele>1053.8</ele>
        <time>1970-01-01T00:27:53.000Z</time>
      </trkpt>
      <trkpt lat="45.04273" lon="5.54842">
        <ele>1053.4</ele>
        <time>1970-01-01T00:27:54.000Z</time>
      </trkpt>
      <trkpt lat="45.04272" lon="5.54835">
        <ele>1053</ele>
        <time>1970-01-01T00:27:55.000Z</time>
      </trkpt>
      <trkpt lat="45.04268" lon="5.54829">
        <ele>1052.6</ele>
        <time>1970-01-01T00:27:56.000Z</time>
      </trkpt>
      <trkpt lat="45.04252" lon="5.54818">
        <ele>1052.6</ele>
        <time>1970-01-01T00:27:59.000Z</time>
      </trkpt>
      <trkpt lat="45.04246" lon="5.54817">
        <ele>1052.2</ele>
        <time>1970-01-01T00:28:00.000Z</time>
      </trkpt>
      <trkpt lat="45.04239" lon="5.54816">
        <ele>1051.8</ele>
        <time>1970-01-01T00:28:01.000Z</time>
      </trkpt>
      <trkpt lat="45.04232" lon="5.54814">
        <ele>1051.2</ele>
        <time>1970-01-01T00:28:02.000Z</time>
      </trkpt>
      <trkpt lat="45.04224" lon="5.54813">
        <ele>1050.8</ele>
        <time>1970-01-01T00:28:03.000Z</time>
      </trkpt>
      <trkpt lat="45.04215" lon="5.54812">
        <ele>1050.4</ele>
        <time>1970-01-01T00:28:04.000Z</time>
      </trkpt>
      <trkpt lat="45.04205" lon="5.54811">
        <ele>1050</ele>
        <time>1970-01-01T00:28:05.000Z</time>
      </trkpt>
      <trkpt lat="45.04195" lon="5.54813">
        <ele>1049.4</ele>
        <time>1970-01-01T00:28:06.000Z</time>
      </trkpt>
      <trkpt lat="45.04186" lon="5.54814">
        <ele>1049</ele>
        <time>1970-01-01T00:28:07.000Z</time>
      </trkpt>
      <trkpt lat="45.04177" lon="5.54816">
        <ele>1048.2</ele>
        <time>1970-01-01T00:28:08.000Z</time>
      </trkpt>
      <trkpt lat="45.04169" lon="5.54814">
        <ele>1047.4</ele>
        <time>1970-01-01T00:28:09.000Z</time>
      </trkpt>
      <trkpt lat="45.04161" lon="5.5481">
        <ele>1046.6</ele>
        <time>1970-01-01T00:28:10.000Z</time>
      </trkpt>
      <trkpt lat="45.04154" lon="5.54805">
        <ele>1044.8</ele>
        <time>1970-01-01T00:28:11.000Z</time>
      </trkpt>
      <trkpt lat="45.04147" lon="5.54795">
        <ele>1044</ele>
        <time>1970-01-01T00:28:12.000Z</time>
      </trkpt>
      <trkpt lat="45.04141" lon="5.54783">
        <ele>1043.2</ele>
        <time>1970-01-01T00:28:13.000Z</time>
      </trkpt>
      <trkpt lat="45.04135" lon="5.5477">
        <ele>1042.4</ele>
        <time>1970-01-01T00:28:14.000Z</time>
      </trkpt>
      <trkpt lat="45.04131" lon="5.54758">
        <ele>1041.6</ele>
        <time>1970-01-01T00:28:15.000Z</time>
      </trkpt>
      <trkpt lat="45.04139" lon="5.5474">
        <ele>1040.8</ele>
        <time>1970-01-01T00:28:16.000Z</time>
      </trkpt>
      <trkpt lat="45.04137" lon="5.54728">
        <ele>1040</ele>
        <time>1970-01-01T00:28:17.000Z</time>
      </trkpt>
      <trkpt lat="45.04135" lon="5.54717">
        <ele>1039</ele>
        <time>1970-01-01T00:28:18.000Z</time>
      </trkpt>
      <trkpt lat="45.0414" lon="5.54703">
        <ele>1038.2</ele>
        <time>1970-01-01T00:28:19.000Z</time>
      </trkpt>
      <trkpt lat="45.04143" lon="5.54691">
        <ele>1037.2</ele>
        <time>1970-01-01T00:28:20.000Z</time>
      </trkpt>
      <trkpt lat="45.04148" lon="5.54682">
        <ele>1036.4</ele>
        <time>1970-01-01T00:28:21.000Z</time>
      </trkpt>
      <trkpt lat="45.04152" lon="5.54673">
        <ele>1035.6</ele>
        <time>1970-01-01T00:28:22.000Z</time>
      </trkpt>
      <trkpt lat="45.04158" lon="5.54662">
        <ele>1034.8</ele>
        <time>1970-01-01T00:28:23.000Z</time>
      </trkpt>
      <trkpt lat="45.04164" lon="5.54651">
        <ele>1033.8</ele>
        <time>1970-01-01T00:28:24.000Z</time>
      </trkpt>
      <trkpt lat="45.04171" lon="5.54641">
        <ele>1033</ele>
        <time>1970-01-01T00:28:25.000Z</time>
      </trkpt>
      <trkpt lat="45.0418" lon="5.5463">
        <ele>1032.2</ele>
        <time>1970-01-01T00:28:26.000Z</time>
      </trkpt>
      <trkpt lat="45.04193" lon="5.54619">
        <ele>1031.4</ele>
        <time>1970-01-01T00:28:27.000Z</time>
      </trkpt>
      <trkpt lat="45.04204" lon="5.54608">
        <ele>1030.6</ele>
        <time>1970-01-01T00:28:28.000Z</time>
      </trkpt>
      <trkpt lat="45.04213" lon="5.54598">
        <ele>1029.8</ele>
        <time>1970-01-01T00:28:29.000Z</time>
      </trkpt>
      <trkpt lat="45.04221" lon="5.54586">
        <ele>1029</ele>
        <time>1970-01-01T00:28:30.000Z</time>
      </trkpt>
      <trkpt lat="45.04227" lon="5.54575">
        <ele>1028.2</ele>
        <time>1970-01-01T00:28:31.000Z</time>
      </trkpt>
      <trkpt lat="45.04231" lon="5.54558">
        <ele>1027.4</ele>
        <time>1970-01-01T00:28:32.000Z</time>
      </trkpt>
      <trkpt lat="45.04236" lon="5.5454">
        <ele>1026.6</ele>
        <time>1970-01-01T00:28:33.000Z</time>
      </trkpt>
      <trkpt lat="45.04241" lon="5.54524">
        <ele>1024.8</ele>
        <time>1970-01-01T00:28:34.000Z</time>
      </trkpt>
      <trkpt lat="45.04245" lon="5.5451">
        <ele>1024</ele>
        <time>1970-01-01T00:28:35.000Z</time>
      </trkpt>
      <trkpt lat="45.04248" lon="5.54495">
        <ele>1023.2</ele>
        <time>1970-01-01T00:28:36.000Z</time>
      </trkpt>
      <trkpt lat="45.0425" lon="5.54481">
        <ele>1022.4</ele>
        <time>1970-01-01T00:28:37.000Z</time>
      </trkpt>
      <trkpt lat="45.04251" lon="5.54466">
        <ele>1021.6</ele>
        <time>1970-01-01T00:28:38.000Z</time>
      </trkpt>
      <trkpt lat="45.04248" lon="5.54452">
        <ele>1020.8</ele>
        <time>1970-01-01T00:28:39.000Z</time>
      </trkpt>
      <trkpt lat="45.04246" lon="5.54439">
        <ele>1019.8</ele>
        <time>1970-01-01T00:28:40.000Z</time>
      </trkpt>
      <trkpt lat="45.04244" lon="5.54424">
        <ele>1019</ele>
        <time>1970-01-01T00:28:41.000Z</time>
      </trkpt>
      <trkpt lat="45.04241" lon="5.54409">
        <ele>1018</ele>
        <time>1970-01-01T00:28:42.000Z</time>
      </trkpt>
      <trkpt lat="45.04237" lon="5.54396">
        <ele>1017.2</ele>
        <time>1970-01-01T00:28:43.000Z</time>
      </trkpt>
      <trkpt lat="45.04235" lon="5.54382">
        <ele>1016.2</ele>
        <time>1970-01-01T00:28:44.000Z</time>
      </trkpt>
      <trkpt lat="45.04234" lon="5.54368">
        <ele>1015.2</ele>
        <time>1970-01-01T00:28:45.000Z</time>
      </trkpt>
      <trkpt lat="45.04229" lon="5.54354">
        <ele>1014.2</ele>
        <time>1970-01-01T00:28:46.000Z</time>
      </trkpt>
      <trkpt lat="45.04226" lon="5.5434">
        <ele>1013.6</ele>
        <time>1970-01-01T00:28:47.000Z</time>
      </trkpt>
      <trkpt lat="45.04222" lon="5.54325">
        <ele>1012.8</ele>
        <time>1970-01-01T00:28:48.000Z</time>
      </trkpt>
      <trkpt lat="45.04216" lon="5.54309">
        <ele>1011.8</ele>
        <time>1970-01-01T00:28:49.000Z</time>
      </trkpt>
      <trkpt lat="45.04214" lon="5.54294">
        <ele>1011</ele>
        <time>1970-01-01T00:28:50.000Z</time>
      </trkpt>
      <trkpt lat="45.04212" lon="5.54283">
        <ele>1010</ele>
        <time>1970-01-01T00:28:51.000Z</time>
      </trkpt>
      <trkpt lat="45.04211" lon="5.54274">
        <ele>1009.2</ele>
        <time>1970-01-01T00:28:52.000Z</time>
      </trkpt>
      <trkpt lat="45.04209" lon="5.54266">
        <ele>1008.6</ele>
        <time>1970-01-01T00:28:53.000Z</time>
      </trkpt>
      <trkpt lat="45.04206" lon="5.54256">
        <ele>1008</ele>
        <time>1970-01-01T00:28:54.000Z</time>
      </trkpt>
      <trkpt lat="45.04204" lon="5.54247">
        <ele>1007.4</ele>
        <time>1970-01-01T00:28:55.000Z</time>
      </trkpt>
      <trkpt lat="45.04202" lon="5.54237">
        <ele>1006.8</ele>
        <time>1970-01-01T00:28:56.000Z</time>
      </trkpt>
      <trkpt lat="45.04201" lon="5.54231">
        <ele>1006.2</ele>
        <time>1970-01-01T00:28:57.000Z</time>
      </trkpt>
      <trkpt lat="45.042" lon="5.54213">
        <ele>1006.2</ele>
        <time>1970-01-01T00:29:00.000Z</time>
      </trkpt>
      <trkpt lat="45.04197" lon="5.54198">
        <ele>1006.2</ele>
        <time>1970-01-01T00:29:02.000Z</time>
      </trkpt>
      <trkpt lat="45.04195" lon="5.54192">
        <ele>1006.2</ele>
        <time>1970-01-01T00:29:03.000Z</time>
      </trkpt>
      <trkpt lat="45.04184" lon="5.54183">
        <ele>1006.2</ele>
        <time>1970-01-01T00:29:05.000Z</time>
      </trkpt>
      <trkpt lat="45.04153" lon="5.54165">
        <ele>1006.2</ele>
        <time>1970-01-01T00:29:09.000Z</time>
      </trkpt>
      <trkpt lat="45.04142" lon="5.54139">
        <ele>1006.2</ele>
        <time>1970-01-01T00:29:13.000Z</time>
      </trkpt>
      <trkpt lat="45.04141" lon="5.54123">
        <ele>1006.2</ele>
        <time>1970-01-01T00:29:16.000Z</time>
      </trkpt>
      <trkpt lat="45.04141" lon="5.54119">
        <ele>1006.2</ele>
        <time>1970-01-01T00:29:17.000Z</time>
      </trkpt>
      <trkpt lat="45.04142" lon="5.54109">
        <ele>1006.8</ele>
        <time>1970-01-01T00:29:19.000Z</time>
      </trkpt>
      <trkpt lat="45.04143" lon="5.54104">
        <ele>1007.2</ele>
        <time>1970-01-01T00:29:20.000Z</time>
      </trkpt>
      <trkpt lat="45.04143" lon="5.541">
        <ele>1007.6</ele>
        <time>1970-01-01T00:29:21.000Z</time>
      </trkpt>
      <trkpt lat="45.04143" lon="5.54095">
        <ele>1008</ele>
        <time>1970-01-01T00:29:22.000Z</time>
      </trkpt>
      <trkpt lat="45.04144" lon="5.54092">
        <ele>1008.6</ele>
        <time>1970-01-01T00:29:23.000Z</time>
      </trkpt>
      <trkpt lat="45.04144" lon="5.54088">
        <ele>1008.6</ele>
        <time>1970-01-01T00:29:24.000Z</time>
      </trkpt>
      <trkpt lat="45.04144" lon="5.54084">
        <ele>1009</ele>
        <time>1970-01-01T00:29:25.000Z</time>
      </trkpt>
      <trkpt lat="45.04144" lon="5.5408">
        <ele>1009.4</ele>
        <time>1970-01-01T00:29:26.000Z</time>
      </trkpt>
      <trkpt lat="45.04144" lon="5.54076">
        <ele>1009.8</ele>
        <time>1970-01-01T00:29:27.000Z</time>
      </trkpt>
      <trkpt lat="45.04144" lon="5.5407">
        <ele>1010.2</ele>
        <time>1970-01-01T00:29:28.000Z</time>
      </trkpt>
      <trkpt lat="45.04144" lon="5.54064">
        <ele>1010.6</ele>
        <time>1970-01-01T00:29:29.000Z</time>
      </trkpt>
      <trkpt lat="45.04144" lon="5.54054">
        <ele>1010.6</ele>
        <time>1970-01-01T00:29:31.000Z</time>
      </trkpt>
      <trkpt lat="45.04142" lon="5.54027">
        <ele>1010.6</ele>
        <time>1970-01-01T00:29:37.000Z</time>
      </trkpt>
      <trkpt lat="45.04136" lon="5.54001">
        <ele>1010.6</ele>
        <time>1970-01-01T00:29:43.000Z</time>
      </trkpt>
      <trkpt lat="45.04126" lon="5.53976">
        <ele>1010.6</ele>
        <time>1970-01-01T00:29:49.000Z</time>
      </trkpt>
      <trkpt lat="45.04125" lon="5.53969">
        <ele>1010.6</ele>
        <time>1970-01-01T00:29:50.000Z</time>
      </trkpt>
      <trkpt lat="45.04123" lon="5.53958">
        <ele>1010.6</ele>
        <time>1970-01-01T00:29:52.000Z</time>
      </trkpt>
      <trkpt lat="45.04122" lon="5.53946">
        <ele>1010.6</ele>
        <time>1970-01-01T00:29:54.000Z</time>
      </trkpt>
      <trkpt lat="45.04117" lon="5.53917">
        <ele>1010.6</ele>
        <time>1970-01-01T00:30:00.000Z</time>
      </trkpt>
      <trkpt lat="45.04117" lon="5.53913">
        <ele>1011</ele>
        <time>1970-01-01T00:30:01.000Z</time>
      </trkpt>
      <trkpt lat="45.04116" lon="5.53909">
        <ele>1011.4</ele>
        <time>1970-01-01T00:30:02.000Z</time>
      </trkpt>
      <trkpt lat="45.04116" lon="5.53904">
        <ele>1011.8</ele>
        <time>1970-01-01T00:30:03.000Z</time>
      </trkpt>
      <trkpt lat="45.04116" lon="5.539">
        <ele>1012.2</ele>
        <time>1970-01-01T00:30:04.000Z</time>
      </trkpt>
      <trkpt lat="45.04115" lon="5.53896">
        <ele>1012.6</ele>
        <time>1970-01-01T00:30:05.000Z</time>
      </trkpt>
      <trkpt lat="45.04111" lon="5.53884">
        <ele>1013</ele>
        <time>1970-01-01T00:30:10.000Z</time>
      </trkpt>
      <trkpt lat="45.0411" lon="5.53882">
        <ele>1013.4</ele>
        <time>1970-01-01T00:30:11.000Z</time>
      </trkpt>
      <trkpt lat="45.04108" lon="5.53879">
        <ele>1013.8</ele>
        <time>1970-01-01T00:30:12.000Z</time>
      </trkpt>
      <trkpt lat="45.04107" lon="5.53876">
        <ele>1014.8</ele>
        <time>1970-01-01T00:30:13.000Z</time>
      </trkpt>
      <trkpt lat="45.041" lon="5.5387">
        <ele>1014.8</ele>
        <time>1970-01-01T00:30:16.000Z</time>
      </trkpt>
      <trkpt lat="45.04076" lon="5.5386">
        <ele>1014.8</ele>
        <time>1970-01-01T00:30:22.000Z</time>
      </trkpt>
      <trkpt lat="45.04063" lon="5.53851">
        <ele>1015.2</ele>
        <time>1970-01-01T00:30:26.000Z</time>
      </trkpt>
      <trkpt lat="45.04059" lon="5.53849">
        <ele>1015.6</ele>
        <time>1970-01-01T00:30:27.000Z</time>
      </trkpt>
      <trkpt lat="45.04056" lon="5.53847">
        <ele>1016</ele>
        <time>1970-01-01T00:30:28.000Z</time>
      </trkpt>
      <trkpt lat="45.04052" lon="5.53845">
        <ele>1016.4</ele>
        <time>1970-01-01T00:30:29.000Z</time>
      </trkpt>
      <trkpt lat="45.04049" lon="5.53842">
        <ele>1016.8</ele>
        <time>1970-01-01T00:30:30.000Z</time>
      </trkpt>
      <trkpt lat="45.04035" lon="5.53828">
        <ele>1016.8</ele>
        <time>1970-01-01T00:30:35.000Z</time>
      </trkpt>
      <trkpt lat="45.04015" lon="5.53809">
        <ele>1016.8</ele>
        <time>1970-01-01T00:30:41.000Z</time>
      </trkpt>
      <trkpt lat="45.03998" lon="5.53795">
        <ele>1016.8</ele>
        <time>1970-01-01T00:30:45.000Z</time>
      </trkpt>
      <trkpt lat="45.03989" lon="5.53786">
        <ele>1016.8</ele>
        <time>1970-01-01T00:30:47.000Z</time>
      </trkpt>
      <trkpt lat="45.03979" lon="5.53773">
        <ele>1016.8</ele>
        <time>1970-01-01T00:30:50.000Z</time>
      </trkpt>
      <trkpt lat="45.03964" lon="5.5375">
        <ele>1016.8</ele>
        <time>1970-01-01T00:30:55.000Z</time>
      </trkpt>
      <trkpt lat="45.03959" lon="5.53745">
        <ele>1016.8</ele>
        <time>1970-01-01T00:30:56.000Z</time>
      </trkpt>
      <trkpt lat="45.03927" lon="5.53717">
        <ele>1016.4</ele>
        <time>1970-01-01T00:31:02.000Z</time>
      </trkpt>
      <trkpt lat="45.03918" lon="5.53712">
        <ele>1015.8</ele>
        <time>1970-01-01T00:31:03.000Z</time>
      </trkpt>
      <trkpt lat="45.03911" lon="5.53707">
        <ele>1015.4</ele>
        <time>1970-01-01T00:31:04.000Z</time>
      </trkpt>
      <trkpt lat="45.03906" lon="5.53702">
        <ele>1014.8</ele>
        <time>1970-01-01T00:31:05.000Z</time>
      </trkpt>
      <trkpt lat="45.039" lon="5.53696">
        <ele>1014.4</ele>
        <time>1970-01-01T00:31:06.000Z</time>
      </trkpt>
      <trkpt lat="45.03892" lon="5.53689">
        <ele>1013.8</ele>
        <time>1970-01-01T00:31:07.000Z</time>
      </trkpt>
      <trkpt lat="45.03885" lon="5.53682">
        <ele>1013.4</ele>
        <time>1970-01-01T00:31:08.000Z</time>
      </trkpt>
      <trkpt lat="45.03877" lon="5.53673">
        <ele>1012.8</ele>
        <time>1970-01-01T00:31:09.000Z</time>
      </trkpt>
      <trkpt lat="45.03869" lon="5.53667">
        <ele>1012.2</ele>
        <time>1970-01-01T00:31:10.000Z</time>
      </trkpt>
      <trkpt lat="45.03862" lon="5.5366">
        <ele>1011.6</ele>
        <time>1970-01-01T00:31:11.000Z</time>
      </trkpt>
      <trkpt lat="45.03856" lon="5.53654">
        <ele>1011</ele>
        <time>1970-01-01T00:31:12.000Z</time>
      </trkpt>
      <trkpt lat="45.0385" lon="5.53648">
        <ele>1010.4</ele>
        <time>1970-01-01T00:31:13.000Z</time>
      </trkpt>
      <trkpt lat="45.03844" lon="5.53642">
        <ele>1010</ele>
        <time>1970-01-01T00:31:14.000Z</time>
      </trkpt>
      <trkpt lat="45.03831" lon="5.53626">
        <ele>1010</ele>
        <time>1970-01-01T00:31:17.000Z</time>
      </trkpt>
      <trkpt lat="45.03799" lon="5.5359">
        <ele>1010</ele>
        <time>1970-01-01T00:31:24.000Z</time>
      </trkpt>
      <trkpt lat="45.03762" lon="5.53554">
        <ele>1010</ele>
        <time>1970-01-01T00:31:31.000Z</time>
      </trkpt>
      <trkpt lat="45.03724" lon="5.53523">
        <ele>1010</ele>
        <time>1970-01-01T00:31:38.000Z</time>
      </trkpt>
      <trkpt lat="45.037" lon="5.535">
        <ele>1010</ele>
        <time>1970-01-01T00:31:43.000Z</time>
      </trkpt>
      <trkpt lat="45.03696" lon="5.53493">
        <ele>1010</ele>
        <time>1970-01-01T00:31:44.000Z</time>
      </trkpt>
      <trkpt lat="45.03675" lon="5.53464">
        <ele>1010</ele>
        <time>1970-01-01T00:31:49.000Z</time>
      </trkpt>
      <trkpt lat="45.03668" lon="5.53451">
        <ele>1010</ele>
        <time>1970-01-01T00:31:51.000Z</time>
      </trkpt>
      <trkpt lat="45.03655" lon="5.53425">
        <ele>1010</ele>
        <time>1970-01-01T00:31:55.000Z</time>
      </trkpt>
      <trkpt lat="45.03653" lon="5.53417">
        <ele>1009.6</ele>
        <time>1970-01-01T00:31:56.000Z</time>
      </trkpt>
      <trkpt lat="45.0365" lon="5.53411">
        <ele>1009.2</ele>
        <time>1970-01-01T00:31:57.000Z</time>
      </trkpt>
      <trkpt lat="45.03647" lon="5.53403">
        <ele>1008.6</ele>
        <time>1970-01-01T00:31:58.000Z</time>
      </trkpt>
      <trkpt lat="45.03643" lon="5.53397">
        <ele>1008.2</ele>
        <time>1970-01-01T00:31:59.000Z</time>
      </trkpt>
      <trkpt lat="45.03639" lon="5.53392">
        <ele>1007.8</ele>
        <time>1970-01-01T00:32:00.000Z</time>
      </trkpt>
      <trkpt lat="45.03623" lon="5.53383">
        <ele>1007.8</ele>
        <time>1970-01-01T00:32:03.000Z</time>
      </trkpt>
      <trkpt lat="45.03588" lon="5.53373">
        <ele>1007.8</ele>
        <time>1970-01-01T00:32:10.000Z</time>
      </trkpt>
      <trkpt lat="45.03583" lon="5.53371">
        <ele>1007.8</ele>
        <time>1970-01-01T00:32:11.000Z</time>
      </trkpt>
      <trkpt lat="45.03562" lon="5.53366">
        <ele>1007.8</ele>
        <time>1970-01-01T00:32:15.000Z</time>
      </trkpt>
      <trkpt lat="45.03537" lon="5.53361">
        <ele>1007.8</ele>
        <time>1970-01-01T00:32:20.000Z</time>
      </trkpt>
      <trkpt lat="45.03533" lon="5.5336">
        <ele>1007.8</ele>
        <time>1970-01-01T00:32:21.000Z</time>
      </trkpt>
      <trkpt lat="45.03527" lon="5.53358">
        <ele>1007.8</ele>
        <time>1970-01-01T00:32:22.000Z</time>
      </trkpt>
      <trkpt lat="45.03505" lon="5.53352">
        <ele>1007.8</ele>
        <time>1970-01-01T00:32:27.000Z</time>
      </trkpt>
      <trkpt lat="45.03469" lon="5.53337">
        <ele>1007.8</ele>
        <time>1970-01-01T00:32:35.000Z</time>
      </trkpt>
      <trkpt lat="45.03445" lon="5.5332">
        <ele>1008.4</ele>
        <time>1970-01-01T00:32:41.000Z</time>
      </trkpt>
      <trkpt lat="45.03442" lon="5.53318">
        <ele>1008.8</ele>
        <time>1970-01-01T00:32:42.000Z</time>
      </trkpt>
      <trkpt lat="45.03438" lon="5.53315">
        <ele>1009.2</ele>
        <time>1970-01-01T00:32:43.000Z</time>
      </trkpt>
      <trkpt lat="45.03434" lon="5.53312">
        <ele>1009.6</ele>
        <time>1970-01-01T00:32:44.000Z</time>
      </trkpt>
      <trkpt lat="45.0343" lon="5.53309">
        <ele>1010</ele>
        <time>1970-01-01T00:32:45.000Z</time>
      </trkpt>
      <trkpt lat="45.0341" lon="5.53293">
        <ele>1010</ele>
        <time>1970-01-01T00:32:50.000Z</time>
      </trkpt>
      <trkpt lat="45.03392" lon="5.53274">
        <ele>1010</ele>
        <time>1970-01-01T00:32:55.000Z</time>
      </trkpt>
      <trkpt lat="45.03389" lon="5.53269">
        <ele>1010</ele>
        <time>1970-01-01T00:32:56.000Z</time>
      </trkpt>
      <trkpt lat="45.03379" lon="5.53256">
        <ele>1010</ele>
        <time>1970-01-01T00:32:59.000Z</time>
      </trkpt>
      <trkpt lat="45.03374" lon="5.53245">
        <ele>1010</ele>
        <time>1970-01-01T00:33:01.000Z</time>
      </trkpt>
      <trkpt lat="45.03369" lon="5.53234">
        <ele>1010</ele>
        <time>1970-01-01T00:33:03.000Z</time>
      </trkpt>
      <trkpt lat="45.03351" lon="5.5319">
        <ele>1010</ele>
        <time>1970-01-01T00:33:11.000Z</time>
      </trkpt>
      <trkpt lat="45.03345" lon="5.53161">
        <ele>1010.4</ele>
        <time>1970-01-01T00:33:16.000Z</time>
      </trkpt>
      <trkpt lat="45.03344" lon="5.53155">
        <ele>1010.8</ele>
        <time>1970-01-01T00:33:17.000Z</time>
      </trkpt>
      <trkpt lat="45.03343" lon="5.53149">
        <ele>1011.2</ele>
        <time>1970-01-01T00:33:18.000Z</time>
      </trkpt>
      <trkpt lat="45.03342" lon="5.53144">
        <ele>1011.6</ele>
        <time>1970-01-01T00:33:19.000Z</time>
      </trkpt>
      <trkpt lat="45.0334" lon="5.53138">
        <ele>1012</ele>
        <time>1970-01-01T00:33:20.000Z</time>
      </trkpt>
      <trkpt lat="45.03332" lon="5.53125">
        <ele>1012</ele>
        <time>1970-01-01T00:33:23.000Z</time>
      </trkpt>
      <trkpt lat="45.03316" lon="5.53126">
        <ele>1012</ele>
        <time>1970-01-01T00:33:27.000Z</time>
      </trkpt>
      <trkpt lat="45.03309" lon="5.5313">
        <ele>1012.4</ele>
        <time>1970-01-01T00:33:29.000Z</time>
      </trkpt>
      <trkpt lat="45.03303" lon="5.53135">
        <ele>1013.2</ele>
        <time>1970-01-01T00:33:31.000Z</time>
      </trkpt>
      <trkpt lat="45.03301" lon="5.53138">
        <ele>1013.8</ele>
        <time>1970-01-01T00:33:32.000Z</time>
      </trkpt>
      <trkpt lat="45.03298" lon="5.5314">
        <ele>1014.2</ele>
        <time>1970-01-01T00:33:33.000Z</time>
      </trkpt>
      <trkpt lat="45.03291" lon="5.53145">
        <ele>1014.6</ele>
        <time>1970-01-01T00:33:36.000Z</time>
      </trkpt>
      <trkpt lat="45.03288" lon="5.53146">
        <ele>1015</ele>
        <time>1970-01-01T00:33:37.000Z</time>
      </trkpt>
      <trkpt lat="45.03286" lon="5.53145">
        <ele>1015.4</ele>
        <time>1970-01-01T00:33:38.000Z</time>
      </trkpt>
      <trkpt lat="45.03282" lon="5.53144">
        <ele>1015.8</ele>
        <time>1970-01-01T00:33:39.000Z</time>
      </trkpt>
      <trkpt lat="45.0328" lon="5.53143">
        <ele>1016.4</ele>
        <time>1970-01-01T00:33:40.000Z</time>
      </trkpt>
      <trkpt lat="45.03274" lon="5.53137">
        <ele>1016.4</ele>
        <time>1970-01-01T00:33:42.000Z</time>
      </trkpt>
      <trkpt lat="45.03257" lon="5.53109">
        <ele>1016.4</ele>
        <time>1970-01-01T00:33:49.000Z</time>
      </trkpt>
      <trkpt lat="45.03241" lon="5.53083">
        <ele>1016.8</ele>
        <time>1970-01-01T00:33:56.000Z</time>
      </trkpt>
      <trkpt lat="45.03239" lon="5.5308">
        <ele>1017.2</ele>
        <time>1970-01-01T00:33:57.000Z</time>
      </trkpt>
      <trkpt lat="45.03236" lon="5.53078">
        <ele>1017.6</ele>
        <time>1970-01-01T00:33:58.000Z</time>
      </trkpt>
      <trkpt lat="45.03232" lon="5.53075">
        <ele>1018</ele>
        <time>1970-01-01T00:33:59.000Z</time>
      </trkpt>
      <trkpt lat="45.03229" lon="5.53072">
        <ele>1018.4</ele>
        <time>1970-01-01T00:34:00.000Z</time>
      </trkpt>
      <trkpt lat="45.03224" lon="5.53067">
        <ele>1018.4</ele>
        <time>1970-01-01T00:34:02.000Z</time>
      </trkpt>
      <trkpt lat="45.03209" lon="5.53058">
        <ele>1018.8</ele>
        <time>1970-01-01T00:34:07.000Z</time>
      </trkpt>
      <trkpt lat="45.03206" lon="5.53056">
        <ele>1019.2</ele>
        <time>1970-01-01T00:34:08.000Z</time>
      </trkpt>
      <trkpt lat="45.03203" lon="5.53055">
        <ele>1019.6</ele>
        <time>1970-01-01T00:34:09.000Z</time>
      </trkpt>
      <trkpt lat="45.03201" lon="5.53053">
        <ele>1020</ele>
        <time>1970-01-01T00:34:10.000Z</time>
      </trkpt>
      <trkpt lat="45.03198" lon="5.53051">
        <ele>1020.4</ele>
        <time>1970-01-01T00:34:11.000Z</time>
      </trkpt>
      <trkpt lat="45.03181" lon="5.53039">
        <ele>1020.4</ele>
        <time>1970-01-01T00:34:17.000Z</time>
      </trkpt>
      <trkpt lat="45.03177" lon="5.53033">
        <ele>1020.4</ele>
        <time>1970-01-01T00:34:19.000Z</time>
      </trkpt>
      <trkpt lat="45.03177" lon="5.53022">
        <ele>1020.4</ele>
        <time>1970-01-01T00:34:21.000Z</time>
      </trkpt>
      <trkpt lat="45.03178" lon="5.53008">
        <ele>1020.4</ele>
        <time>1970-01-01T00:34:23.000Z</time>
      </trkpt>
      <trkpt lat="45.03174" lon="5.52993">
        <ele>1020.4</ele>
        <time>1970-01-01T00:34:25.000Z</time>
      </trkpt>
      <trkpt lat="45.03169" lon="5.52978">
        <ele>1020.4</ele>
        <time>1970-01-01T00:34:27.000Z</time>
      </trkpt>
      <trkpt lat="45.03162" lon="5.52963">
        <ele>1020.4</ele>
        <time>1970-01-01T00:34:29.000Z</time>
      </trkpt>
      <trkpt lat="45.03158" lon="5.52956">
        <ele>1020.4</ele>
        <time>1970-01-01T00:34:30.000Z</time>
      </trkpt>
      <trkpt lat="45.03153" lon="5.5295">
        <ele>1020</ele>
        <time>1970-01-01T00:34:31.000Z</time>
      </trkpt>
      <trkpt lat="45.03149" lon="5.52944">
        <ele>1019.4</ele>
        <time>1970-01-01T00:34:32.000Z</time>
      </trkpt>
      <trkpt lat="45.03144" lon="5.5294">
        <ele>1019</ele>
        <time>1970-01-01T00:34:33.000Z</time>
      </trkpt>
      <trkpt lat="45.0314" lon="5.52936">
        <ele>1018.6</ele>
        <time>1970-01-01T00:34:34.000Z</time>
      </trkpt>
      <trkpt lat="45.03135" lon="5.52932">
        <ele>1018.2</ele>
        <time>1970-01-01T00:34:35.000Z</time>
      </trkpt>
      <trkpt lat="45.03119" lon="5.52913">
        <ele>1018.2</ele>
        <time>1970-01-01T00:34:39.000Z</time>
      </trkpt>
      <trkpt lat="45.03113" lon="5.52902">
        <ele>1018.2</ele>
        <time>1970-01-01T00:34:41.000Z</time>
      </trkpt>
      <trkpt lat="45.03106" lon="5.52875">
        <ele>1018.2</ele>
        <time>1970-01-01T00:34:45.000Z</time>
      </trkpt>
      <trkpt lat="45.03105" lon="5.5286">
        <ele>1018.2</ele>
        <time>1970-01-01T00:34:47.000Z</time>
      </trkpt>
      <trkpt lat="45.03103" lon="5.52825">
        <ele>1018.2</ele>
        <time>1970-01-01T00:34:52.000Z</time>
      </trkpt>
      <trkpt lat="45.03099" lon="5.52782">
        <ele>1018.2</ele>
        <time>1970-01-01T00:34:59.000Z</time>
      </trkpt>
      <trkpt lat="45.03095" lon="5.52746">
        <ele>1018.2</ele>
        <time>1970-01-01T00:35:06.000Z</time>
      </trkpt>
      <trkpt lat="45.03098" lon="5.52736">
        <ele>1018.6</ele>
        <time>1970-01-01T00:35:08.000Z</time>
      </trkpt>
      <trkpt lat="45.03101" lon="5.52732">
        <ele>1019</ele>
        <time>1970-01-01T00:35:09.000Z</time>
      </trkpt>
      <trkpt lat="45.03103" lon="5.52729">
        <ele>1019.4</ele>
        <time>1970-01-01T00:35:10.000Z</time>
      </trkpt>
      <trkpt lat="45.03106" lon="5.52727">
        <ele>1019.8</ele>
        <time>1970-01-01T00:35:11.000Z</time>
      </trkpt>
      <trkpt lat="45.03109" lon="5.52724">
        <ele>1020.2</ele>
        <time>1970-01-01T00:35:12.000Z</time>
      </trkpt>
      <trkpt lat="45.03118" lon="5.52714">
        <ele>1020.2</ele>
        <time>1970-01-01T00:35:16.000Z</time>
      </trkpt>
      <trkpt lat="45.0313" lon="5.52705">
        <ele>1020.6</ele>
        <time>1970-01-01T00:35:20.000Z</time>
      </trkpt>
      <trkpt lat="45.03132" lon="5.52703">
        <ele>1021.2</ele>
        <time>1970-01-01T00:35:21.000Z</time>
      </trkpt>
      <trkpt lat="45.03134" lon="5.52701">
        <ele>1021.6</ele>
        <time>1970-01-01T00:35:22.000Z</time>
      </trkpt>
      <trkpt lat="45.03137" lon="5.52698">
        <ele>1022</ele>
        <time>1970-01-01T00:35:23.000Z</time>
      </trkpt>
      <trkpt lat="45.03139" lon="5.52695">
        <ele>1022.4</ele>
        <time>1970-01-01T00:35:24.000Z</time>
      </trkpt>
      <trkpt lat="45.03146" lon="5.5269">
        <ele>1022.4</ele>
        <time>1970-01-01T00:35:27.000Z</time>
      </trkpt>
      <trkpt lat="45.03154" lon="5.52686">
        <ele>1022.8</ele>
        <time>1970-01-01T00:35:32.000Z</time>
      </trkpt>
      <trkpt lat="45.03157" lon="5.52685">
        <ele>1023.2</ele>
        <time>1970-01-01T00:35:33.000Z</time>
      </trkpt>
      <trkpt lat="45.03159" lon="5.52684">
        <ele>1023.6</ele>
        <time>1970-01-01T00:35:34.000Z</time>
      </trkpt>
      <trkpt lat="45.03161" lon="5.52682">
        <ele>1024</ele>
        <time>1970-01-01T00:35:35.000Z</time>
      </trkpt>
      <trkpt lat="45.03164" lon="5.5268">
        <ele>1024.4</ele>
        <time>1970-01-01T00:35:36.000Z</time>
      </trkpt>
      <trkpt lat="45.03166" lon="5.52677">
        <ele>1024.4</ele>
        <time>1970-01-01T00:35:37.000Z</time>
      </trkpt>
      <trkpt lat="45.03178" lon="5.52656">
        <ele>1024.4</ele>
        <time>1970-01-01T00:35:42.000Z</time>
      </trkpt>
      <trkpt lat="45.03187" lon="5.52636">
        <ele>1024</ele>
        <time>1970-01-01T00:35:45.000Z</time>
      </trkpt>
      <trkpt lat="45.0319" lon="5.52628">
        <ele>1023.6</ele>
        <time>1970-01-01T00:35:46.000Z</time>
      </trkpt>
      <trkpt lat="45.03194" lon="5.52619">
        <ele>1023.2</ele>
        <time>1970-01-01T00:35:47.000Z</time>
      </trkpt>
      <trkpt lat="45.03197" lon="5.52611">
        <ele>1022.8</ele>
        <time>1970-01-01T00:35:48.000Z</time>
      </trkpt>
      <trkpt lat="45.03201" lon="5.52602">
        <ele>1022.2</ele>
        <time>1970-01-01T00:35:49.000Z</time>
      </trkpt>
      <trkpt lat="45.03212" lon="5.52579">
        <ele>1021.8</ele>
        <time>1970-01-01T00:35:52.000Z</time>
      </trkpt>
      <trkpt lat="45.03215" lon="5.52572">
        <ele>1021.4</ele>
        <time>1970-01-01T00:35:53.000Z</time>
      </trkpt>
      <trkpt lat="45.03219" lon="5.52564">
        <ele>1021</ele>
        <time>1970-01-01T00:35:54.000Z</time>
      </trkpt>
      <trkpt lat="45.03222" lon="5.52557">
        <ele>1020.6</ele>
        <time>1970-01-01T00:35:55.000Z</time>
      </trkpt>
      <trkpt lat="45.03225" lon="5.52549">
        <ele>1020.2</ele>
        <time>1970-01-01T00:35:56.000Z</time>
      </trkpt>
      <trkpt lat="45.03231" lon="5.52535">
        <ele>1020.2</ele>
        <time>1970-01-01T00:35:58.000Z</time>
      </trkpt>
      <trkpt lat="45.03249" lon="5.52488">
        <ele>1020.2</ele>
        <time>1970-01-01T00:36:05.000Z</time>
      </trkpt>
      <trkpt lat="45.03264" lon="5.52445">
        <ele>1020.2</ele>
        <time>1970-01-01T00:36:11.000Z</time>
      </trkpt>
      <trkpt lat="45.03279" lon="5.52409">
        <ele>1020.2</ele>
        <time>1970-01-01T00:36:16.000Z</time>
      </trkpt>
      <trkpt lat="45.03282" lon="5.52402">
        <ele>1020.2</ele>
        <time>1970-01-01T00:36:17.000Z</time>
      </trkpt>
      <trkpt lat="45.03301" lon="5.52367">
        <ele>1020.2</ele>
        <time>1970-01-01T00:36:23.000Z</time>
      </trkpt>
      <trkpt lat="45.03316" lon="5.52341">
        <ele>1020.2</ele>
        <time>1970-01-01T00:36:30.000Z</time>
      </trkpt>
      <trkpt lat="45.03321" lon="5.52334">
        <ele>1020.6</ele>
        <time>1970-01-01T00:36:33.000Z</time>
      </trkpt>
      <trkpt lat="45.03322" lon="5.52332">
        <ele>1021</ele>
        <time>1970-01-01T00:36:34.000Z</time>
      </trkpt>
      <trkpt lat="45.03324" lon="5.5233">
        <ele>1021.4</ele>
        <time>1970-01-01T00:36:35.000Z</time>
      </trkpt>
      <trkpt lat="45.03325" lon="5.52328">
        <ele>1021.8</ele>
        <time>1970-01-01T00:36:36.000Z</time>
      </trkpt>
      <trkpt lat="45.03327" lon="5.52326">
        <ele>1022.2</ele>
        <time>1970-01-01T00:36:37.000Z</time>
      </trkpt>
      <trkpt lat="45.03334" lon="5.52316">
        <ele>1022.8</ele>
        <time>1970-01-01T00:36:41.000Z</time>
      </trkpt>
      <trkpt lat="45.03336" lon="5.52313">
        <ele>1023.2</ele>
        <time>1970-01-01T00:36:42.000Z</time>
      </trkpt>
      <trkpt lat="45.03337" lon="5.52311">
        <ele>1023.6</ele>
        <time>1970-01-01T00:36:43.000Z</time>
      </trkpt>
      <trkpt lat="45.0334" lon="5.52309">
        <ele>1024</ele>
        <time>1970-01-01T00:36:44.000Z</time>
      </trkpt>
      <trkpt lat="45.03343" lon="5.52308">
        <ele>1024.4</ele>
        <time>1970-01-01T00:36:45.000Z</time>
      </trkpt>
      <trkpt lat="45.03349" lon="5.52308">
        <ele>1024.4</ele>
        <time>1970-01-01T00:36:47.000Z</time>
      </trkpt>
      <trkpt lat="45.03369" lon="5.52311">
        <ele>1024.4</ele>
        <time>1970-01-01T00:36:53.000Z</time>
      </trkpt>
      <trkpt lat="45.0339" lon="5.52323">
        <ele>1024.4</ele>
        <time>1970-01-01T00:36:59.000Z</time>
      </trkpt>
      <trkpt lat="45.03417" lon="5.5234">
        <ele>1024.4</ele>
        <time>1970-01-01T00:37:06.000Z</time>
      </trkpt>
      <trkpt lat="45.03444" lon="5.52354">
        <ele>1024.4</ele>
        <time>1970-01-01T00:37:13.000Z</time>
      </trkpt>
      <trkpt lat="45.03452" lon="5.52357">
        <ele>1024.4</ele>
        <time>1970-01-01T00:37:15.000Z</time>
      </trkpt>
      <trkpt lat="45.03468" lon="5.52368">
        <ele>1024.4</ele>
        <time>1970-01-01T00:37:19.000Z</time>
      </trkpt>
      <trkpt lat="45.03481" lon="5.52386">
        <ele>1024.4</ele>
        <time>1970-01-01T00:37:23.000Z</time>
      </trkpt>
      <trkpt lat="45.03484" lon="5.52391">
        <ele>1024.4</ele>
        <time>1970-01-01T00:37:24.000Z</time>
      </trkpt>
      <trkpt lat="45.03491" lon="5.5241">
        <ele>1024.4</ele>
        <time>1970-01-01T00:37:27.000Z</time>
      </trkpt>
      <trkpt lat="45.03496" lon="5.5243">
        <ele>1024.4</ele>
        <time>1970-01-01T00:37:30.000Z</time>
      </trkpt>
      <trkpt lat="45.03506" lon="5.52456">
        <ele>1024.4</ele>
        <time>1970-01-01T00:37:35.000Z</time>
      </trkpt>
      <trkpt lat="45.03515" lon="5.5247">
        <ele>1024.8</ele>
        <time>1970-01-01T00:37:39.000Z</time>
      </trkpt>
      <trkpt lat="45.03517" lon="5.52473">
        <ele>1025.2</ele>
        <time>1970-01-01T00:37:40.000Z</time>
      </trkpt>
      <trkpt lat="45.03519" lon="5.52475">
        <ele>1025.6</ele>
        <time>1970-01-01T00:37:41.000Z</time>
      </trkpt>
      <trkpt lat="45.03521" lon="5.52477">
        <ele>1026.2</ele>
        <time>1970-01-01T00:37:42.000Z</time>
      </trkpt>
      <trkpt lat="45.03524" lon="5.5248">
        <ele>1026.6</ele>
        <time>1970-01-01T00:37:43.000Z</time>
      </trkpt>
      <trkpt lat="45.03532" lon="5.52488">
        <ele>1026.6</ele>
        <time>1970-01-01T00:37:46.000Z</time>
      </trkpt>
      <trkpt lat="45.03547" lon="5.52507">
        <ele>1026.6</ele>
        <time>1970-01-01T00:37:51.000Z</time>
      </trkpt>
      <trkpt lat="45.03564" lon="5.52536">
        <ele>1026.6</ele>
        <time>1970-01-01T00:37:55.000Z</time>
      </trkpt>
      <trkpt lat="45.03568" lon="5.52544">
        <ele>1026.2</ele>
        <time>1970-01-01T00:37:56.000Z</time>
      </trkpt>
      <trkpt lat="45.03573" lon="5.52552">
        <ele>1025.8</ele>
        <time>1970-01-01T00:37:57.000Z</time>
      </trkpt>
      <trkpt lat="45.03576" lon="5.5256">
        <ele>1025.4</ele>
        <time>1970-01-01T00:37:58.000Z</time>
      </trkpt>
      <trkpt lat="45.0358" lon="5.52565">
        <ele>1024.8</ele>
        <time>1970-01-01T00:37:59.000Z</time>
      </trkpt>
      <trkpt lat="45.03584" lon="5.5257">
        <ele>1024</ele>
        <time>1970-01-01T00:38:00.000Z</time>
      </trkpt>
      <trkpt lat="45.03589" lon="5.52573">
        <ele>1023.4</ele>
        <time>1970-01-01T00:38:01.000Z</time>
      </trkpt>
      <trkpt lat="45.03594" lon="5.52575">
        <ele>1022.2</ele>
        <time>1970-01-01T00:38:02.000Z</time>
      </trkpt>
      <trkpt lat="45.03599" lon="5.52575">
        <ele>1021.8</ele>
        <time>1970-01-01T00:38:03.000Z</time>
      </trkpt>
      <trkpt lat="45.03604" lon="5.52575">
        <ele>1021.4</ele>
        <time>1970-01-01T00:38:04.000Z</time>
      </trkpt>
      <trkpt lat="45.03609" lon="5.52575">
        <ele>1020.8</ele>
        <time>1970-01-01T00:38:05.000Z</time>
      </trkpt>
      <trkpt lat="45.03613" lon="5.52575">
        <ele>1020.4</ele>
        <time>1970-01-01T00:38:06.000Z</time>
      </trkpt>
      <trkpt lat="45.03618" lon="5.52576">
        <ele>1020</ele>
        <time>1970-01-01T00:38:07.000Z</time>
      </trkpt>
      <trkpt lat="45.03622" lon="5.52577">
        <ele>1020</ele>
        <time>1970-01-01T00:38:08.000Z</time>
      </trkpt>
      <trkpt lat="45.03635" lon="5.52582">
        <ele>1020</ele>
        <time>1970-01-01T00:38:11.000Z</time>
      </trkpt>
      <trkpt lat="45.03643" lon="5.52587">
        <ele>1020</ele>
        <time>1970-01-01T00:38:13.000Z</time>
      </trkpt>
      <trkpt lat="45.03666" lon="5.52608">
        <ele>1020</ele>
        <time>1970-01-01T00:38:20.000Z</time>
      </trkpt>
      <trkpt lat="45.03685" lon="5.52618">
        <ele>1020</ele>
        <time>1970-01-01T00:38:25.000Z</time>
      </trkpt>
      <trkpt lat="45.03689" lon="5.52619">
        <ele>1020</ele>
        <time>1970-01-01T00:38:26.000Z</time>
      </trkpt>
      <trkpt lat="45.03697" lon="5.52617">
        <ele>1020.4</ele>
        <time>1970-01-01T00:38:28.000Z</time>
      </trkpt>
      <trkpt lat="45.03701" lon="5.52616">
        <ele>1020.8</ele>
        <time>1970-01-01T00:38:29.000Z</time>
      </trkpt>
      <trkpt lat="45.03705" lon="5.52615">
        <ele>1021.2</ele>
        <time>1970-01-01T00:38:30.000Z</time>
      </trkpt>
      <trkpt lat="45.03708" lon="5.52613">
        <ele>1021.6</ele>
        <time>1970-01-01T00:38:31.000Z</time>
      </trkpt>
      <trkpt lat="45.03712" lon="5.52611">
        <ele>1022</ele>
        <time>1970-01-01T00:38:32.000Z</time>
      </trkpt>
      <trkpt lat="45.03724" lon="5.52608">
        <ele>1022</ele>
        <time>1970-01-01T00:38:35.000Z</time>
      </trkpt>
      <trkpt lat="45.03751" lon="5.52609">
        <ele>1022.4</ele>
        <time>1970-01-01T00:38:42.000Z</time>
      </trkpt>
      <trkpt lat="45.03755" lon="5.5261">
        <ele>1022.8</ele>
        <time>1970-01-01T00:38:43.000Z</time>
      </trkpt>
      <trkpt lat="45.03759" lon="5.52611">
        <ele>1023.2</ele>
        <time>1970-01-01T00:38:44.000Z</time>
      </trkpt>
      <trkpt lat="45.03763" lon="5.52611">
        <ele>1023.6</ele>
        <time>1970-01-01T00:38:45.000Z</time>
      </trkpt>
      <trkpt lat="45.03768" lon="5.52611">
        <ele>1024</ele>
        <time>1970-01-01T00:38:46.000Z</time>
      </trkpt>
      <trkpt lat="45.0378" lon="5.52613">
        <ele>1024</ele>
        <time>1970-01-01T00:38:49.000Z</time>
      </trkpt>
      <trkpt lat="45.03802" lon="5.52607">
        <ele>1024</ele>
        <time>1970-01-01T00:38:55.000Z</time>
      </trkpt>
      <trkpt lat="45.03823" lon="5.52592">
        <ele>1024</ele>
        <time>1970-01-01T00:39:01.000Z</time>
      </trkpt>
      <trkpt lat="45.0383" lon="5.52586">
        <ele>1024.6</ele>
        <time>1970-01-01T00:39:03.000Z</time>
      </trkpt>
      <trkpt lat="45.03833" lon="5.52583">
        <ele>1025</ele>
        <time>1970-01-01T00:39:04.000Z</time>
      </trkpt>
      <trkpt lat="45.03836" lon="5.5258">
        <ele>1025.4</ele>
        <time>1970-01-01T00:39:05.000Z</time>
      </trkpt>
      <trkpt lat="45.0384" lon="5.52578">
        <ele>1025.8</ele>
        <time>1970-01-01T00:39:06.000Z</time>
      </trkpt>
      <trkpt lat="45.03843" lon="5.52576">
        <ele>1026.2</ele>
        <time>1970-01-01T00:39:07.000Z</time>
      </trkpt>
      <trkpt lat="45.03846" lon="5.52575">
        <ele>1026.2</ele>
        <time>1970-01-01T00:39:08.000Z</time>
      </trkpt>
      <trkpt lat="45.03866" lon="5.52568">
        <ele>1026.2</ele>
        <time>1970-01-01T00:39:14.000Z</time>
      </trkpt>
      <trkpt lat="45.03872" lon="5.52567">
        <ele>1027.2</ele>
        <time>1970-01-01T00:39:16.000Z</time>
      </trkpt>
      <trkpt lat="45.03875" lon="5.52566">
        <ele>1027.6</ele>
        <time>1970-01-01T00:39:17.000Z</time>
      </trkpt>
      <trkpt lat="45.03878" lon="5.52565">
        <ele>1028</ele>
        <time>1970-01-01T00:39:18.000Z</time>
      </trkpt>
      <trkpt lat="45.03882" lon="5.52565">
        <ele>1028.4</ele>
        <time>1970-01-01T00:39:19.000Z</time>
      </trkpt>
      <trkpt lat="45.03885" lon="5.52564">
        <ele>1028.4</ele>
        <time>1970-01-01T00:39:20.000Z</time>
      </trkpt>
      <trkpt lat="45.03905" lon="5.52561">
        <ele>1028.8</ele>
        <time>1970-01-01T00:39:27.000Z</time>
      </trkpt>
      <trkpt lat="45.03908" lon="5.5256">
        <ele>1029.2</ele>
        <time>1970-01-01T00:39:28.000Z</time>
      </trkpt>
      <trkpt lat="45.03911" lon="5.52559">
        <ele>1029.6</ele>
        <time>1970-01-01T00:39:29.000Z</time>
      </trkpt>
      <trkpt lat="45.03914" lon="5.52559">
        <ele>1030</ele>
        <time>1970-01-01T00:39:30.000Z</time>
      </trkpt>
      <trkpt lat="45.03917" lon="5.52558">
        <ele>1030.4</ele>
        <time>1970-01-01T00:39:31.000Z</time>
      </trkpt>
      <trkpt lat="45.0393" lon="5.52554">
        <ele>1030.4</ele>
        <time>1970-01-01T00:39:35.000Z</time>
      </trkpt>
      <trkpt lat="45.03943" lon="5.52548">
        <ele>1030.8</ele>
        <time>1970-01-01T00:39:39.000Z</time>
      </trkpt>
      <trkpt lat="45.03945" lon="5.52546">
        <ele>1031.2</ele>
        <time>1970-01-01T00:39:40.000Z</time>
      </trkpt>
      <trkpt lat="45.03948" lon="5.52544">
        <ele>1032</ele>
        <time>1970-01-01T00:39:41.000Z</time>
      </trkpt>
      <trkpt lat="45.0395" lon="5.52542">
        <ele>1032.4</ele>
        <time>1970-01-01T00:39:42.000Z</time>
      </trkpt>
      <trkpt lat="45.03953" lon="5.5254">
        <ele>1032.4</ele>
        <time>1970-01-01T00:39:43.000Z</time>
      </trkpt>
      <trkpt lat="45.03963" lon="5.52533">
        <ele>1033</ele>
        <time>1970-01-01T00:39:47.000Z</time>
      </trkpt>
      <trkpt lat="45.03965" lon="5.52532">
        <ele>1033.4</ele>
        <time>1970-01-01T00:39:48.000Z</time>
      </trkpt>
      <trkpt lat="45.03967" lon="5.5253">
        <ele>1033.8</ele>
        <time>1970-01-01T00:39:49.000Z</time>
      </trkpt>
      <trkpt lat="45.03969" lon="5.52528">
        <ele>1034.2</ele>
        <time>1970-01-01T00:39:50.000Z</time>
      </trkpt>
      <trkpt lat="45.03971" lon="5.52527">
        <ele>1034.6</ele>
        <time>1970-01-01T00:39:51.000Z</time>
      </trkpt>
      <trkpt lat="45.03986" lon="5.52519">
        <ele>1035</ele>
        <time>1970-01-01T00:39:58.000Z</time>
      </trkpt>
      <trkpt lat="45.03989" lon="5.52518">
        <ele>1035.4</ele>
        <time>1970-01-01T00:39:59.000Z</time>
      </trkpt>
      <trkpt lat="45.03991" lon="5.52517">
        <ele>1035.8</ele>
        <time>1970-01-01T00:40:00.000Z</time>
      </trkpt>
      <trkpt lat="45.03993" lon="5.52516">
        <ele>1036.2</ele>
        <time>1970-01-01T00:40:01.000Z</time>
      </trkpt>
      <trkpt lat="45.03996" lon="5.52515">
        <ele>1036.6</ele>
        <time>1970-01-01T00:40:02.000Z</time>
      </trkpt>
      <trkpt lat="45.04007" lon="5.52512">
        <ele>1037</ele>
        <time>1970-01-01T00:40:07.000Z</time>
      </trkpt>
      <trkpt lat="45.04009" lon="5.52511">
        <ele>1037.4</ele>
        <time>1970-01-01T00:40:08.000Z</time>
      </trkpt>
      <trkpt lat="45.04011" lon="5.52511">
        <ele>1037.8</ele>
        <time>1970-01-01T00:40:09.000Z</time>
      </trkpt>
      <trkpt lat="45.04013" lon="5.52511">
        <ele>1038.2</ele>
        <time>1970-01-01T00:40:10.000Z</time>
      </trkpt>
      <trkpt lat="45.04016" lon="5.5251">
        <ele>1038.8</ele>
        <time>1970-01-01T00:40:11.000Z</time>
      </trkpt>
      <trkpt lat="45.04025" lon="5.5251">
        <ele>1038.8</ele>
        <time>1970-01-01T00:40:15.000Z</time>
      </trkpt>
      <trkpt lat="45.04032" lon="5.5251">
        <ele>1039.2</ele>
        <time>1970-01-01T00:40:18.000Z</time>
      </trkpt>
      <trkpt lat="45.04035" lon="5.5251">
        <ele>1039.6</ele>
        <time>1970-01-01T00:40:19.000Z</time>
      </trkpt>
      <trkpt lat="45.04037" lon="5.52509">
        <ele>1040</ele>
        <time>1970-01-01T00:40:20.000Z</time>
      </trkpt>
      <trkpt lat="45.0404" lon="5.52509">
        <ele>1040.4</ele>
        <time>1970-01-01T00:40:21.000Z</time>
      </trkpt>
      <trkpt lat="45.04042" lon="5.52509">
        <ele>1040.8</ele>
        <time>1970-01-01T00:40:22.000Z</time>
      </trkpt>
      <trkpt lat="45.04057" lon="5.52507">
        <ele>1041.2</ele>
        <time>1970-01-01T00:40:29.000Z</time>
      </trkpt>
      <trkpt lat="45.0406" lon="5.52507">
        <ele>1042</ele>
        <time>1970-01-01T00:40:30.000Z</time>
      </trkpt>
      <trkpt lat="45.04062" lon="5.52507">
        <ele>1042.6</ele>
        <time>1970-01-01T00:40:31.000Z</time>
      </trkpt>
      <trkpt lat="45.04064" lon="5.52506">
        <ele>1043</ele>
        <time>1970-01-01T00:40:32.000Z</time>
      </trkpt>
      <trkpt lat="45.04075" lon="5.52504">
        <ele>1043</ele>
        <time>1970-01-01T00:40:37.000Z</time>
      </trkpt>
      <trkpt lat="45.0408" lon="5.52504">
        <ele>1043.4</ele>
        <time>1970-01-01T00:40:39.000Z</time>
      </trkpt>
      <trkpt lat="45.04082" lon="5.52504">
        <ele>1043.8</ele>
        <time>1970-01-01T00:40:40.000Z</time>
      </trkpt>
      <trkpt lat="45.04085" lon="5.52504">
        <ele>1044.2</ele>
        <time>1970-01-01T00:40:41.000Z</time>
      </trkpt>
      <trkpt lat="45.04087" lon="5.52503">
        <ele>1044.6</ele>
        <time>1970-01-01T00:40:42.000Z</time>
      </trkpt>
      <trkpt lat="45.04089" lon="5.52502">
        <ele>1045</ele>
        <time>1970-01-01T00:40:43.000Z</time>
      </trkpt>
      <trkpt lat="45.04096" lon="5.52501">
        <ele>1045</ele>
        <time>1970-01-01T00:40:46.000Z</time>
      </trkpt>
      <trkpt lat="45.04109" lon="5.52501">
        <ele>1045</ele>
        <time>1970-01-01T00:40:52.000Z</time>
      </trkpt>
      <trkpt lat="45.04117" lon="5.525">
        <ele>1045.8</ele>
        <time>1970-01-01T00:40:55.000Z</time>
      </trkpt>
      <trkpt lat="45.04119" lon="5.525">
        <ele>1046.2</ele>
        <time>1970-01-01T00:40:56.000Z</time>
      </trkpt>
      <trkpt lat="45.04121" lon="5.52499">
        <ele>1046.8</ele>
        <time>1970-01-01T00:40:57.000Z</time>
      </trkpt>
      <trkpt lat="45.04124" lon="5.52499">
        <ele>1047.2</ele>
        <time>1970-01-01T00:40:58.000Z</time>
      </trkpt>
      <trkpt lat="45.04126" lon="5.52499">
        <ele>1047.2</ele>
        <time>1970-01-01T00:40:59.000Z</time>
      </trkpt>
      <trkpt lat="45.04143" lon="5.52494">
        <ele>1047.2</ele>
        <time>1970-01-01T00:41:06.000Z</time>
      </trkpt>
      <trkpt lat="45.04153" lon="5.52492">
        <ele>1047.6</ele>
        <time>1970-01-01T00:41:10.000Z</time>
      </trkpt>
      <trkpt lat="45.04155" lon="5.52492">
        <ele>1048</ele>
        <time>1970-01-01T00:41:11.000Z</time>
      </trkpt>
      <trkpt lat="45.04158" lon="5.52492">
        <ele>1048.4</ele>
        <time>1970-01-01T00:41:12.000Z</time>
      </trkpt>
      <trkpt lat="45.04161" lon="5.52492">
        <ele>1048.8</ele>
        <time>1970-01-01T00:41:13.000Z</time>
      </trkpt>
      <trkpt lat="45.04163" lon="5.52492">
        <ele>1049.2</ele>
        <time>1970-01-01T00:41:14.000Z</time>
      </trkpt>
      <trkpt lat="45.0418" lon="5.52488">
        <ele>1049.2</ele>
        <time>1970-01-01T00:41:20.000Z</time>
      </trkpt>
      <trkpt lat="45.042" lon="5.52486">
        <ele>1049.8</ele>
        <time>1970-01-01T00:41:27.000Z</time>
      </trkpt>
      <trkpt lat="45.04203" lon="5.52485">
        <ele>1050.2</ele>
        <time>1970-01-01T00:41:28.000Z</time>
      </trkpt>
      <trkpt lat="45.04206" lon="5.52485">
        <ele>1050.6</ele>
        <time>1970-01-01T00:41:29.000Z</time>
      </trkpt>
      <trkpt lat="45.04209" lon="5.52484">
        <ele>1051</ele>
        <time>1970-01-01T00:41:30.000Z</time>
      </trkpt>
      <trkpt lat="45.04212" lon="5.52484">
        <ele>1051.4</ele>
        <time>1970-01-01T00:41:31.000Z</time>
      </trkpt>
      <trkpt lat="45.04235" lon="5.52484">
        <ele>1051.4</ele>
        <time>1970-01-01T00:41:39.000Z</time>
      </trkpt>
      <trkpt lat="45.0425" lon="5.52488">
        <ele>1051.8</ele>
        <time>1970-01-01T00:41:44.000Z</time>
      </trkpt>
      <trkpt lat="45.04253" lon="5.52488">
        <ele>1052.2</ele>
        <time>1970-01-01T00:41:45.000Z</time>
      </trkpt>
      <trkpt lat="45.04256" lon="5.52489">
        <ele>1052.6</ele>
        <time>1970-01-01T00:41:46.000Z</time>
      </trkpt>
      <trkpt lat="45.04259" lon="5.52489">
        <ele>1053</ele>
        <time>1970-01-01T00:41:47.000Z</time>
      </trkpt>
      <trkpt lat="45.04261" lon="5.5249">
        <ele>1053.4</ele>
        <time>1970-01-01T00:41:48.000Z</time>
      </trkpt>
      <trkpt lat="45.04278" lon="5.52494">
        <ele>1053.4</ele>
        <time>1970-01-01T00:41:54.000Z</time>
      </trkpt>
      <trkpt lat="45.04294" lon="5.52498">
        <ele>1053.8</ele>
        <time>1970-01-01T00:42:00.000Z</time>
      </trkpt>
      <trkpt lat="45.04297" lon="5.52499">
        <ele>1054.2</ele>
        <time>1970-01-01T00:42:01.000Z</time>
      </trkpt>
      <trkpt lat="45.043" lon="5.52499">
        <ele>1054.6</ele>
        <time>1970-01-01T00:42:02.000Z</time>
      </trkpt>
      <trkpt lat="45.04302" lon="5.525">
        <ele>1055</ele>
        <time>1970-01-01T00:42:03.000Z</time>
      </trkpt>
      <trkpt lat="45.04305" lon="5.52501">
        <ele>1055.4</ele>
        <time>1970-01-01T00:42:04.000Z</time>
      </trkpt>
      <trkpt lat="45.04319" lon="5.52505">
        <ele>1055.4</ele>
        <time>1970-01-01T00:42:09.000Z</time>
      </trkpt>
      <trkpt lat="45.04338" lon="5.5251">
        <ele>1055.8</ele>
        <time>1970-01-01T00:42:16.000Z</time>
      </trkpt>
      <trkpt lat="45.04341" lon="5.52511">
        <ele>1056.2</ele>
        <time>1970-01-01T00:42:17.000Z</time>
      </trkpt>
      <trkpt lat="45.04344" lon="5.52512">
        <ele>1056.6</ele>
        <time>1970-01-01T00:42:18.000Z</time>
      </trkpt>
      <trkpt lat="45.04346" lon="5.52513">
        <ele>1057</ele>
        <time>1970-01-01T00:42:19.000Z</time>
      </trkpt>
      <trkpt lat="45.04349" lon="5.52514">
        <ele>1057.6</ele>
        <time>1970-01-01T00:42:20.000Z</time>
      </trkpt>
      <trkpt lat="45.04357" lon="5.52517">
        <ele>1057.6</ele>
        <time>1970-01-01T00:42:23.000Z</time>
      </trkpt>
      <trkpt lat="45.04374" lon="5.52521">
        <ele>1058</ele>
        <time>1970-01-01T00:42:29.000Z</time>
      </trkpt>
      <trkpt lat="45.04377" lon="5.52521">
        <ele>1058.4</ele>
        <time>1970-01-01T00:42:30.000Z</time>
      </trkpt>
      <trkpt lat="45.04379" lon="5.52522">
        <ele>1058.8</ele>
        <time>1970-01-01T00:42:31.000Z</time>
      </trkpt>
      <trkpt lat="45.04382" lon="5.52523">
        <ele>1059.2</ele>
        <time>1970-01-01T00:42:32.000Z</time>
      </trkpt>
      <trkpt lat="45.04385" lon="5.52525">
        <ele>1059.6</ele>
        <time>1970-01-01T00:42:33.000Z</time>
      </trkpt>
      <trkpt lat="45.04398" lon="5.52529">
        <ele>1059.6</ele>
        <time>1970-01-01T00:42:38.000Z</time>
      </trkpt>
      <trkpt lat="45.04411" lon="5.52533">
        <ele>1060</ele>
        <time>1970-01-01T00:42:43.000Z</time>
      </trkpt>
      <trkpt lat="45.04413" lon="5.52534">
        <ele>1060.4</ele>
        <time>1970-01-01T00:42:44.000Z</time>
      </trkpt>
      <trkpt lat="45.04416" lon="5.52535">
        <ele>1061</ele>
        <time>1970-01-01T00:42:45.000Z</time>
      </trkpt>
      <trkpt lat="45.04419" lon="5.52536">
        <ele>1061.4</ele>
        <time>1970-01-01T00:42:46.000Z</time>
      </trkpt>
      <trkpt lat="45.04421" lon="5.52536">
        <ele>1061.8</ele>
        <time>1970-01-01T00:42:47.000Z</time>
      </trkpt>
      <trkpt lat="45.0443" lon="5.52539">
        <ele>1061.8</ele>
        <time>1970-01-01T00:42:51.000Z</time>
      </trkpt>
      <trkpt lat="45.04439" lon="5.52544">
        <ele>1062.2</ele>
        <time>1970-01-01T00:42:55.000Z</time>
      </trkpt>
      <trkpt lat="45.04441" lon="5.52545">
        <ele>1062.6</ele>
        <time>1970-01-01T00:42:56.000Z</time>
      </trkpt>
      <trkpt lat="45.04443" lon="5.52546">
        <ele>1063.4</ele>
        <time>1970-01-01T00:42:57.000Z</time>
      </trkpt>
      <trkpt lat="45.04445" lon="5.52547">
        <ele>1063.8</ele>
        <time>1970-01-01T00:42:58.000Z</time>
      </trkpt>
      <trkpt lat="45.04448" lon="5.52548">
        <ele>1063.8</ele>
        <time>1970-01-01T00:42:59.000Z</time>
      </trkpt>
      <trkpt lat="45.04464" lon="5.52555">
        <ele>1063.8</ele>
        <time>1970-01-01T00:43:06.000Z</time>
      </trkpt>
      <trkpt lat="45.04466" lon="5.52556">
        <ele>1064.2</ele>
        <time>1970-01-01T00:43:07.000Z</time>
      </trkpt>
      <trkpt lat="45.04469" lon="5.52557">
        <ele>1064.6</ele>
        <time>1970-01-01T00:43:08.000Z</time>
      </trkpt>
      <trkpt lat="45.04471" lon="5.52557">
        <ele>1065</ele>
        <time>1970-01-01T00:43:09.000Z</time>
      </trkpt>
      <trkpt lat="45.04474" lon="5.52558">
        <ele>1065.4</ele>
        <time>1970-01-01T00:43:10.000Z</time>
      </trkpt>
      <trkpt lat="45.04476" lon="5.52559">
        <ele>1065.8</ele>
        <time>1970-01-01T00:43:11.000Z</time>
      </trkpt>
      <trkpt lat="45.04495" lon="5.52565">
        <ele>1065.8</ele>
        <time>1970-01-01T00:43:19.000Z</time>
      </trkpt>
      <trkpt lat="45.045" lon="5.52566">
        <ele>1066.4</ele>
        <time>1970-01-01T00:43:21.000Z</time>
      </trkpt>
      <trkpt lat="45.04502" lon="5.52567">
        <ele>1067.2</ele>
        <time>1970-01-01T00:43:22.000Z</time>
      </trkpt>
      <trkpt lat="45.04504" lon="5.52567">
        <ele>1067.6</ele>
        <time>1970-01-01T00:43:23.000Z</time>
      </trkpt>
      <trkpt lat="45.04506" lon="5.52568">
        <ele>1068</ele>
        <time>1970-01-01T00:43:24.000Z</time>
      </trkpt>
      <trkpt lat="45.04508" lon="5.52569">
        <ele>1068</ele>
        <time>1970-01-01T00:43:25.000Z</time>
      </trkpt>
      <trkpt lat="45.04524" lon="5.52576">
        <ele>1068</ele>
        <time>1970-01-01T00:43:32.000Z</time>
      </trkpt>
      <trkpt lat="45.04533" lon="5.52576">
        <ele>1068.4</ele>
        <time>1970-01-01T00:43:36.000Z</time>
      </trkpt>
      <trkpt lat="45.04536" lon="5.52576">
        <ele>1068.8</ele>
        <time>1970-01-01T00:43:37.000Z</time>
      </trkpt>
      <trkpt lat="45.04538" lon="5.52576">
        <ele>1069.2</ele>
        <time>1970-01-01T00:43:38.000Z</time>
      </trkpt>
      <trkpt lat="45.04541" lon="5.52576">
        <ele>1069.6</ele>
        <time>1970-01-01T00:43:39.000Z</time>
      </trkpt>
      <trkpt lat="45.04543" lon="5.52576">
        <ele>1070</ele>
        <time>1970-01-01T00:43:40.000Z</time>
      </trkpt>
      <trkpt lat="45.04554" lon="5.52579">
        <ele>1070</ele>
        <time>1970-01-01T00:43:45.000Z</time>
      </trkpt>
      <trkpt lat="45.04556" lon="5.52579">
        <ele>1070.4</ele>
        <time>1970-01-01T00:43:46.000Z</time>
      </trkpt>
      <trkpt lat="45.04558" lon="5.52579">
        <ele>1071.2</ele>
        <time>1970-01-01T00:43:47.000Z</time>
      </trkpt>
      <trkpt lat="45.0456" lon="5.5258">
        <ele>1071.6</ele>
        <time>1970-01-01T00:43:48.000Z</time>
      </trkpt>
      <trkpt lat="45.04562" lon="5.5258">
        <ele>1072</ele>
        <time>1970-01-01T00:43:49.000Z</time>
      </trkpt>
      <trkpt lat="45.04569" lon="5.52581">
        <ele>1072</ele>
        <time>1970-01-01T00:43:52.000Z</time>
      </trkpt>
      <trkpt lat="45.04573" lon="5.52583">
        <ele>1072</ele>
        <time>1970-01-01T00:43:54.000Z</time>
      </trkpt>
      <trkpt lat="45.04575" lon="5.52583">
        <ele>1072.4</ele>
        <time>1970-01-01T00:43:55.000Z</time>
      </trkpt>
      <trkpt lat="45.04576" lon="5.52584">
        <ele>1072.8</ele>
        <time>1970-01-01T00:43:56.000Z</time>
      </trkpt>
      <trkpt lat="45.04578" lon="5.52585">
        <ele>1073.4</ele>
        <time>1970-01-01T00:43:57.000Z</time>
      </trkpt>
      <trkpt lat="45.0458" lon="5.52585">
        <ele>1073.8</ele>
        <time>1970-01-01T00:43:58.000Z</time>
      </trkpt>
      <trkpt lat="45.04582" lon="5.52586">
        <ele>1074.2</ele>
        <time>1970-01-01T00:43:59.000Z</time>
      </trkpt>
      <trkpt lat="45.04588" lon="5.52587">
        <ele>1074.2</ele>
        <time>1970-01-01T00:44:02.000Z</time>
      </trkpt>
      <trkpt lat="45.04592" lon="5.52587">
        <ele>1074.6</ele>
        <time>1970-01-01T00:44:04.000Z</time>
      </trkpt>
      <trkpt lat="45.04594" lon="5.52588">
        <ele>1075</ele>
        <time>1970-01-01T00:44:05.000Z</time>
      </trkpt>
      <trkpt lat="45.04597" lon="5.52589">
        <ele>1075.4</ele>
        <time>1970-01-01T00:44:06.000Z</time>
      </trkpt>
      <trkpt lat="45.04599" lon="5.52589">
        <ele>1075.8</ele>
        <time>1970-01-01T00:44:07.000Z</time>
      </trkpt>
      <trkpt lat="45.04601" lon="5.5259">
        <ele>1076.2</ele>
        <time>1970-01-01T00:44:08.000Z</time>
      </trkpt>
      <trkpt lat="45.04613" lon="5.52592">
        <ele>1076.6</ele>
        <time>1970-01-01T00:44:14.000Z</time>
      </trkpt>
      <trkpt lat="45.04615" lon="5.52592">
        <ele>1077</ele>
        <time>1970-01-01T00:44:15.000Z</time>
      </trkpt>
      <trkpt lat="45.04617" lon="5.52593">
        <ele>1077.4</ele>
        <time>1970-01-01T00:44:16.000Z</time>
      </trkpt>
      <trkpt lat="45.04619" lon="5.52593">
        <ele>1077.8</ele>
        <time>1970-01-01T00:44:17.000Z</time>
      </trkpt>
      <trkpt lat="45.04621" lon="5.52593">
        <ele>1078.2</ele>
        <time>1970-01-01T00:44:18.000Z</time>
      </trkpt>
      <trkpt lat="45.04627" lon="5.52594">
        <ele>1078.2</ele>
        <time>1970-01-01T00:44:21.000Z</time>
      </trkpt>
      <trkpt lat="45.04634" lon="5.52595">
        <ele>1078.8</ele>
        <time>1970-01-01T00:44:25.000Z</time>
      </trkpt>
      <trkpt lat="45.04637" lon="5.52595">
        <ele>1079.2</ele>
        <time>1970-01-01T00:44:26.000Z</time>
      </trkpt>
      <trkpt lat="45.04639" lon="5.52596">
        <ele>1079.6</ele>
        <time>1970-01-01T00:44:27.000Z</time>
      </trkpt>
      <trkpt lat="45.04641" lon="5.52596">
        <ele>1080</ele>
        <time>1970-01-01T00:44:28.000Z</time>
      </trkpt>
      <trkpt lat="45.04643" lon="5.52597">
        <ele>1080.4</ele>
        <time>1970-01-01T00:44:29.000Z</time>
      </trkpt>
      <trkpt lat="45.04654" lon="5.52599">
        <ele>1080.4</ele>
        <time>1970-01-01T00:44:35.000Z</time>
      </trkpt>
      <trkpt lat="45.04656" lon="5.526">
        <ele>1081.4</ele>
        <time>1970-01-01T00:44:36.000Z</time>
      </trkpt>
      <trkpt lat="45.04658" lon="5.526">
        <ele>1081.8</ele>
        <time>1970-01-01T00:44:37.000Z</time>
      </trkpt>
      <trkpt lat="45.0466" lon="5.526">
        <ele>1082.2</ele>
        <time>1970-01-01T00:44:38.000Z</time>
      </trkpt>
      <trkpt lat="45.04662" lon="5.52601">
        <ele>1082.6</ele>
        <time>1970-01-01T00:44:39.000Z</time>
      </trkpt>
      <trkpt lat="45.04668" lon="5.52601">
        <ele>1082.6</ele>
        <time>1970-01-01T00:44:42.000Z</time>
      </trkpt>
      <trkpt lat="45.04677" lon="5.52602">
        <ele>1083</ele>
        <time>1970-01-01T00:44:47.000Z</time>
      </trkpt>
      <trkpt lat="45.04679" lon="5.52602">
        <ele>1083.4</ele>
        <time>1970-01-01T00:44:48.000Z</time>
      </trkpt>
      <trkpt lat="45.04681" lon="5.52602">
        <ele>1083.8</ele>
        <time>1970-01-01T00:44:49.000Z</time>
      </trkpt>
      <trkpt lat="45.04683" lon="5.52602">
        <ele>1084.2</ele>
        <time>1970-01-01T00:44:50.000Z</time>
      </trkpt>
      <trkpt lat="45.04685" lon="5.52602">
        <ele>1084.6</ele>
        <time>1970-01-01T00:44:51.000Z</time>
      </trkpt>
      <trkpt lat="45.04691" lon="5.52602">
        <ele>1084.6</ele>
        <time>1970-01-01T00:44:54.000Z</time>
      </trkpt>
      <trkpt lat="45.04703" lon="5.52601">
        <ele>1085</ele>
        <time>1970-01-01T00:45:00.000Z</time>
      </trkpt>
      <trkpt lat="45.04704" lon="5.52601">
        <ele>1086</ele>
        <time>1970-01-01T00:45:01.000Z</time>
      </trkpt>
      <trkpt lat="45.04706" lon="5.52602">
        <ele>1086.4</ele>
        <time>1970-01-01T00:45:02.000Z</time>
      </trkpt>
      <trkpt lat="45.04708" lon="5.52602">
        <ele>1086.8</ele>
        <time>1970-01-01T00:45:03.000Z</time>
      </trkpt>
      <trkpt lat="45.04714" lon="5.52604">
        <ele>1086.8</ele>
        <time>1970-01-01T00:45:06.000Z</time>
      </trkpt>
      <trkpt lat="45.0472" lon="5.52605">
        <ele>1087.2</ele>
        <time>1970-01-01T00:45:09.000Z</time>
      </trkpt>
      <trkpt lat="45.04722" lon="5.52606">
        <ele>1087.6</ele>
        <time>1970-01-01T00:45:10.000Z</time>
      </trkpt>
      <trkpt lat="45.04725" lon="5.52607">
        <ele>1088</ele>
        <time>1970-01-01T00:45:11.000Z</time>
      </trkpt>
      <trkpt lat="45.04727" lon="5.52608">
        <ele>1088.4</ele>
        <time>1970-01-01T00:45:12.000Z</time>
      </trkpt>
      <trkpt lat="45.04729" lon="5.52608">
        <ele>1088.8</ele>
        <time>1970-01-01T00:45:13.000Z</time>
      </trkpt>
      <trkpt lat="45.04731" lon="5.52608">
        <ele>1088.8</ele>
        <time>1970-01-01T00:45:14.000Z</time>
      </trkpt>
      <trkpt lat="45.04744" lon="5.5261">
        <ele>1088.8</ele>
        <time>1970-01-01T00:45:20.000Z</time>
      </trkpt>
      <trkpt lat="45.04747" lon="5.52612">
        <ele>1089.2</ele>
        <time>1970-01-01T00:45:22.000Z</time>
      </trkpt>
      <trkpt lat="45.04749" lon="5.52612">
        <ele>1089.6</ele>
        <time>1970-01-01T00:45:23.000Z</time>
      </trkpt>
      <trkpt lat="45.04751" lon="5.52613">
        <ele>1090</ele>
        <time>1970-01-01T00:45:24.000Z</time>
      </trkpt>
      <trkpt lat="45.04753" lon="5.52614">
        <ele>1090.6</ele>
        <time>1970-01-01T00:45:25.000Z</time>
      </trkpt>
      <trkpt lat="45.04755" lon="5.52614">
        <ele>1091</ele>
        <time>1970-01-01T00:45:26.000Z</time>
      </trkpt>
      <trkpt lat="45.04757" lon="5.52615">
        <ele>1091</ele>
        <time>1970-01-01T00:45:27.000Z</time>
      </trkpt>
      <trkpt lat="45.04769" lon="5.52619">
        <ele>1091.4</ele>
        <time>1970-01-01T00:45:33.000Z</time>
      </trkpt>
      <trkpt lat="45.04771" lon="5.52619">
        <ele>1091.8</ele>
        <time>1970-01-01T00:45:34.000Z</time>
      </trkpt>
      <trkpt lat="45.04773" lon="5.5262">
        <ele>1092.2</ele>
        <time>1970-01-01T00:45:35.000Z</time>
      </trkpt>
      <trkpt lat="45.04775" lon="5.5262">
        <ele>1092.6</ele>
        <time>1970-01-01T00:45:36.000Z</time>
      </trkpt>
      <trkpt lat="45.04777" lon="5.5262">
        <ele>1093.2</ele>
        <time>1970-01-01T00:45:37.000Z</time>
      </trkpt>
      <trkpt lat="45.04783" lon="5.52622">
        <ele>1093.2</ele>
        <time>1970-01-01T00:45:40.000Z</time>
      </trkpt>
      <trkpt lat="45.04795" lon="5.52626">
        <ele>1093.6</ele>
        <time>1970-01-01T00:45:46.000Z</time>
      </trkpt>
      <trkpt lat="45.04797" lon="5.52627">
        <ele>1094</ele>
        <time>1970-01-01T00:45:47.000Z</time>
      </trkpt>
      <trkpt lat="45.04799" lon="5.52627">
        <ele>1094.4</ele>
        <time>1970-01-01T00:45:48.000Z</time>
      </trkpt>
      <trkpt lat="45.04801" lon="5.52628">
        <ele>1094.8</ele>
        <time>1970-01-01T00:45:49.000Z</time>
      </trkpt>
      <trkpt lat="45.04803" lon="5.52628">
        <ele>1095.2</ele>
        <time>1970-01-01T00:45:50.000Z</time>
      </trkpt>
      <trkpt lat="45.04812" lon="5.52631">
        <ele>1095.2</ele>
        <time>1970-01-01T00:45:54.000Z</time>
      </trkpt>
      <trkpt lat="45.04827" lon="5.52639">
        <ele>1095.6</ele>
        <time>1970-01-01T00:46:01.000Z</time>
      </trkpt>
      <trkpt lat="45.04829" lon="5.52641">
        <ele>1096</ele>
        <time>1970-01-01T00:46:02.000Z</time>
      </trkpt>
      <trkpt lat="45.04831" lon="5.52642">
        <ele>1096.4</ele>
        <time>1970-01-01T00:46:03.000Z</time>
      </trkpt>
      <trkpt lat="45.04833" lon="5.52644">
        <ele>1096.8</ele>
        <time>1970-01-01T00:46:04.000Z</time>
      </trkpt>
      <trkpt lat="45.04835" lon="5.52646">
        <ele>1097.2</ele>
        <time>1970-01-01T00:46:05.000Z</time>
      </trkpt>
      <trkpt lat="45.04842" lon="5.52651">
        <ele>1097.2</ele>
        <time>1970-01-01T00:46:09.000Z</time>
      </trkpt>
      <trkpt lat="45.04854" lon="5.52661">
        <ele>1097.2</ele>
        <time>1970-01-01T00:46:15.000Z</time>
      </trkpt>
      <trkpt lat="45.04862" lon="5.52667">
        <ele>1097.8</ele>
        <time>1970-01-01T00:46:19.000Z</time>
      </trkpt>
      <trkpt lat="45.04864" lon="5.52669">
        <ele>1098.2</ele>
        <time>1970-01-01T00:46:20.000Z</time>
      </trkpt>
      <trkpt lat="45.04865" lon="5.52671">
        <ele>1098.6</ele>
        <time>1970-01-01T00:46:21.000Z</time>
      </trkpt>
      <trkpt lat="45.04867" lon="5.52673">
        <ele>1099</ele>
        <time>1970-01-01T00:46:22.000Z</time>
      </trkpt>
      <trkpt lat="45.04869" lon="5.52674">
        <ele>1099.4</ele>
        <time>1970-01-01T00:46:23.000Z</time>
      </trkpt>
      <trkpt lat="45.04876" lon="5.52678">
        <ele>1099.4</ele>
        <time>1970-01-01T00:46:27.000Z</time>
      </trkpt>
      <trkpt lat="45.04882" lon="5.52679">
        <ele>1099.8</ele>
        <time>1970-01-01T00:46:30.000Z</time>
      </trkpt>
      <trkpt lat="45.04884" lon="5.5268">
        <ele>1100.2</ele>
        <time>1970-01-01T00:46:31.000Z</time>
      </trkpt>
      <trkpt lat="45.04885" lon="5.52681">
        <ele>1100.6</ele>
        <time>1970-01-01T00:46:32.000Z</time>
      </trkpt>
      <trkpt lat="45.04887" lon="5.52681">
        <ele>1101</ele>
        <time>1970-01-01T00:46:33.000Z</time>
      </trkpt>
      <trkpt lat="45.04889" lon="5.52681">
        <ele>1101.4</ele>
        <time>1970-01-01T00:46:34.000Z</time>
      </trkpt>
      <trkpt lat="45.04898" lon="5.52683">
        <ele>1101.4</ele>
        <time>1970-01-01T00:46:39.000Z</time>
      </trkpt>
      <trkpt lat="45.049" lon="5.52684">
        <ele>1102.4</ele>
        <time>1970-01-01T00:46:40.000Z</time>
      </trkpt>
      <trkpt lat="45.04902" lon="5.52685">
        <ele>1102.8</ele>
        <time>1970-01-01T00:46:41.000Z</time>
      </trkpt>
      <trkpt lat="45.04903" lon="5.52685">
        <ele>1103.2</ele>
        <time>1970-01-01T00:46:42.000Z</time>
      </trkpt>
      <trkpt lat="45.04905" lon="5.52685">
        <ele>1103.6</ele>
        <time>1970-01-01T00:46:43.000Z</time>
      </trkpt>
      <trkpt lat="45.04909" lon="5.52686">
        <ele>1103.6</ele>
        <time>1970-01-01T00:46:45.000Z</time>
      </trkpt>
      <trkpt lat="45.0492" lon="5.52688">
        <ele>1104</ele>
        <time>1970-01-01T00:46:50.000Z</time>
      </trkpt>
      <trkpt lat="45.04921" lon="5.52688">
        <ele>1104.4</ele>
        <time>1970-01-01T00:46:51.000Z</time>
      </trkpt>
      <trkpt lat="45.04923" lon="5.52687">
        <ele>1104.8</ele>
        <time>1970-01-01T00:46:52.000Z</time>
      </trkpt>
      <trkpt lat="45.04925" lon="5.52687">
        <ele>1105.2</ele>
        <time>1970-01-01T00:46:53.000Z</time>
      </trkpt>
      <trkpt lat="45.04927" lon="5.52687">
        <ele>1105.6</ele>
        <time>1970-01-01T00:46:54.000Z</time>
      </trkpt>
      <trkpt lat="45.04934" lon="5.52687">
        <ele>1105.6</ele>
        <time>1970-01-01T00:46:58.000Z</time>
      </trkpt>
      <trkpt lat="45.04936" lon="5.52686">
        <ele>1105.6</ele>
        <time>1970-01-01T00:46:59.000Z</time>
      </trkpt>
      <trkpt lat="45.04939" lon="5.52684">
        <ele>1106.2</ele>
        <time>1970-01-01T00:47:01.000Z</time>
      </trkpt>
      <trkpt lat="45.0494" lon="5.52683">
        <ele>1106.6</ele>
        <time>1970-01-01T00:47:02.000Z</time>
      </trkpt>
      <trkpt lat="45.04942" lon="5.52683">
        <ele>1107</ele>
        <time>1970-01-01T00:47:03.000Z</time>
      </trkpt>
      <trkpt lat="45.04944" lon="5.52682">
        <ele>1107.4</ele>
        <time>1970-01-01T00:47:04.000Z</time>
      </trkpt>
      <trkpt lat="45.04945" lon="5.52681">
        <ele>1107.8</ele>
        <time>1970-01-01T00:47:05.000Z</time>
      </trkpt>
      <trkpt lat="45.04952" lon="5.52678">
        <ele>1107.8</ele>
        <time>1970-01-01T00:47:09.000Z</time>
      </trkpt>
      <trkpt lat="45.04954" lon="5.52678">
        <ele>1108.2</ele>
        <time>1970-01-01T00:47:10.000Z</time>
      </trkpt>
      <trkpt lat="45.04956" lon="5.52677">
        <ele>1108.8</ele>
        <time>1970-01-01T00:47:11.000Z</time>
      </trkpt>
      <trkpt lat="45.04958" lon="5.52676">
        <ele>1109.2</ele>
        <time>1970-01-01T00:47:12.000Z</time>
      </trkpt>
      <trkpt lat="45.0496" lon="5.52675">
        <ele>1109.6</ele>
        <time>1970-01-01T00:47:13.000Z</time>
      </trkpt>
      <trkpt lat="45.04962" lon="5.52675">
        <ele>1110</ele>
        <time>1970-01-01T00:47:14.000Z</time>
      </trkpt>
      <trkpt lat="45.04964" lon="5.52675">
        <ele>1110</ele>
        <time>1970-01-01T00:47:15.000Z</time>
      </trkpt>
      <trkpt lat="45.04974" lon="5.52674">
        <ele>1110</ele>
        <time>1970-01-01T00:47:21.000Z</time>
      </trkpt>
      <trkpt lat="45.04981" lon="5.52673">
        <ele>1110.4</ele>
        <time>1970-01-01T00:47:24.000Z</time>
      </trkpt>
      <trkpt lat="45.04982" lon="5.52673">
        <ele>1110.8</ele>
        <time>1970-01-01T00:47:25.000Z</time>
      </trkpt>
      <trkpt lat="45.04984" lon="5.52674">
        <ele>1111.2</ele>
        <time>1970-01-01T00:47:26.000Z</time>
      </trkpt>
      <trkpt lat="45.04986" lon="5.52674">
        <ele>1111.6</ele>
        <time>1970-01-01T00:47:27.000Z</time>
      </trkpt>
      <trkpt lat="45.04988" lon="5.52673">
        <ele>1112</ele>
        <time>1970-01-01T00:47:28.000Z</time>
      </trkpt>
      <trkpt lat="45.04989" lon="5.52674">
        <ele>1112</ele>
        <time>1970-01-01T00:47:29.000Z</time>
      </trkpt>
      <trkpt lat="45.04997" lon="5.52675">
        <ele>1112.4</ele>
        <time>1970-01-01T00:47:33.000Z</time>
      </trkpt>
      <trkpt lat="45.04998" lon="5.52675">
        <ele>1113</ele>
        <time>1970-01-01T00:47:34.000Z</time>
      </trkpt>
      <trkpt lat="45.05" lon="5.52675">
        <ele>1113.4</ele>
        <time>1970-01-01T00:47:35.000Z</time>
      </trkpt>
      <trkpt lat="45.05001" lon="5.52675">
        <ele>1113.8</ele>
        <time>1970-01-01T00:47:36.000Z</time>
      </trkpt>
      <trkpt lat="45.05003" lon="5.52675">
        <ele>1114.2</ele>
        <time>1970-01-01T00:47:37.000Z</time>
      </trkpt>
      <trkpt lat="45.05015" lon="5.52671">
        <ele>1114.6</ele>
        <time>1970-01-01T00:47:43.000Z</time>
      </trkpt>
      <trkpt lat="45.05017" lon="5.52669">
        <ele>1115</ele>
        <time>1970-01-01T00:47:44.000Z</time>
      </trkpt>
      <trkpt lat="45.05018" lon="5.52668">
        <ele>1115.4</ele>
        <time>1970-01-01T00:47:45.000Z</time>
      </trkpt>
      <trkpt lat="45.05019" lon="5.52667">
        <ele>1115.8</ele>
        <time>1970-01-01T00:47:46.000Z</time>
      </trkpt>
      <trkpt lat="45.05021" lon="5.52666">
        <ele>1116.2</ele>
        <time>1970-01-01T00:47:47.000Z</time>
      </trkpt>
      <trkpt lat="45.05023" lon="5.52666">
        <ele>1116.2</ele>
        <time>1970-01-01T00:47:48.000Z</time>
      </trkpt>
      <trkpt lat="45.05034" lon="5.52664">
        <ele>1116.6</ele>
        <time>1970-01-01T00:47:54.000Z</time>
      </trkpt>
      <trkpt lat="45.05036" lon="5.52663">
        <ele>1117.4</ele>
        <time>1970-01-01T00:47:55.000Z</time>
      </trkpt>
      <trkpt lat="45.05038" lon="5.52663">
        <ele>1117.8</ele>
        <time>1970-01-01T00:47:56.000Z</time>
      </trkpt>
      <trkpt lat="45.0504" lon="5.52663">
        <ele>1118.2</ele>
        <time>1970-01-01T00:47:57.000Z</time>
      </trkpt>
      <trkpt lat="45.05051" lon="5.52661">
        <ele>1118.2</ele>
        <time>1970-01-01T00:48:03.000Z</time>
      </trkpt>
      <trkpt lat="45.05053" lon="5.52661">
        <ele>1118.6</ele>
        <time>1970-01-01T00:48:04.000Z</time>
      </trkpt>
      <trkpt lat="45.05054" lon="5.5266">
        <ele>1119.2</ele>
        <time>1970-01-01T00:48:05.000Z</time>
      </trkpt>
      <trkpt lat="45.05056" lon="5.5266">
        <ele>1119.6</ele>
        <time>1970-01-01T00:48:06.000Z</time>
      </trkpt>
      <trkpt lat="45.05058" lon="5.5266">
        <ele>1120</ele>
        <time>1970-01-01T00:48:07.000Z</time>
      </trkpt>
      <trkpt lat="45.0506" lon="5.52659">
        <ele>1120.4</ele>
        <time>1970-01-01T00:48:08.000Z</time>
      </trkpt>
      <trkpt lat="45.05063" lon="5.52658">
        <ele>1120.4</ele>
        <time>1970-01-01T00:48:10.000Z</time>
      </trkpt>
      <trkpt lat="45.05071" lon="5.52658">
        <ele>1120.8</ele>
        <time>1970-01-01T00:48:14.000Z</time>
      </trkpt>
      <trkpt lat="45.05073" lon="5.52658">
        <ele>1121.2</ele>
        <time>1970-01-01T00:48:15.000Z</time>
      </trkpt>
      <trkpt lat="45.05075" lon="5.52658">
        <ele>1121.6</ele>
        <time>1970-01-01T00:48:16.000Z</time>
      </trkpt>
      <trkpt lat="45.05076" lon="5.52658">
        <ele>1122</ele>
        <time>1970-01-01T00:48:17.000Z</time>
      </trkpt>
      <trkpt lat="45.05078" lon="5.52658">
        <ele>1122.4</ele>
        <time>1970-01-01T00:48:18.000Z</time>
      </trkpt>
      <trkpt lat="45.05091" lon="5.52656">
        <ele>1122.4</ele>
        <time>1970-01-01T00:48:25.000Z</time>
      </trkpt>
      <trkpt lat="45.05099" lon="5.52654">
        <ele>1122.8</ele>
        <time>1970-01-01T00:48:30.000Z</time>
      </trkpt>
      <trkpt lat="45.05101" lon="5.52654">
        <ele>1123.2</ele>
        <time>1970-01-01T00:48:31.000Z</time>
      </trkpt>
      <trkpt lat="45.05103" lon="5.52653">
        <ele>1123.6</ele>
        <time>1970-01-01T00:48:32.000Z</time>
      </trkpt>
      <trkpt lat="45.05104" lon="5.52653">
        <ele>1124</ele>
        <time>1970-01-01T00:48:33.000Z</time>
      </trkpt>
      <trkpt lat="45.05106" lon="5.52653">
        <ele>1124.4</ele>
        <time>1970-01-01T00:48:34.000Z</time>
      </trkpt>
      <trkpt lat="45.05114" lon="5.52654">
        <ele>1124.8</ele>
        <time>1970-01-01T00:48:39.000Z</time>
      </trkpt>
      <trkpt lat="45.05116" lon="5.52654">
        <ele>1125.2</ele>
        <time>1970-01-01T00:48:40.000Z</time>
      </trkpt>
      <trkpt lat="45.05117" lon="5.52654">
        <ele>1125.6</ele>
        <time>1970-01-01T00:48:41.000Z</time>
      </trkpt>
      <trkpt lat="45.05118" lon="5.52654">
        <ele>1126.2</ele>
        <time>1970-01-01T00:48:42.000Z</time>
      </trkpt>
      <trkpt lat="45.0512" lon="5.52654">
        <ele>1126.6</ele>
        <time>1970-01-01T00:48:43.000Z</time>
      </trkpt>
      <trkpt lat="45.05126" lon="5.52654">
        <ele>1127</ele>
        <time>1970-01-01T00:48:47.000Z</time>
      </trkpt>
      <trkpt lat="45.05127" lon="5.52654">
        <ele>1127.4</ele>
        <time>1970-01-01T00:48:48.000Z</time>
      </trkpt>
      <trkpt lat="45.05129" lon="5.52654">
        <ele>1127.8</ele>
        <time>1970-01-01T00:48:49.000Z</time>
      </trkpt>
      <trkpt lat="45.0513" lon="5.52654">
        <ele>1128.2</ele>
        <time>1970-01-01T00:48:50.000Z</time>
      </trkpt>
      <trkpt lat="45.05131" lon="5.52654">
        <ele>1128.6</ele>
        <time>1970-01-01T00:48:51.000Z</time>
      </trkpt>
      <trkpt lat="45.05135" lon="5.52654">
        <ele>1128.6</ele>
        <time>1970-01-01T00:48:54.000Z</time>
      </trkpt>
      <trkpt lat="45.05136" lon="5.52654">
        <ele>1129</ele>
        <time>1970-01-01T00:48:55.000Z</time>
      </trkpt>
      <trkpt lat="45.05137" lon="5.52654">
        <ele>1129.4</ele>
        <time>1970-01-01T00:48:56.000Z</time>
      </trkpt>
      <trkpt lat="45.05139" lon="5.52654">
        <ele>1129.8</ele>
        <time>1970-01-01T00:48:57.000Z</time>
      </trkpt>
      <trkpt lat="45.0514" lon="5.52654">
        <ele>1130.2</ele>
        <time>1970-01-01T00:48:58.000Z</time>
      </trkpt>
      <trkpt lat="45.05142" lon="5.52654">
        <ele>1130.6</ele>
        <time>1970-01-01T00:48:59.000Z</time>
      </trkpt>
      <trkpt lat="45.05147" lon="5.52654">
        <ele>1130.6</ele>
        <time>1970-01-01T00:49:02.000Z</time>
      </trkpt>
      <trkpt lat="45.05154" lon="5.52655">
        <ele>1131.2</ele>
        <time>1970-01-01T00:49:06.000Z</time>
      </trkpt>
      <trkpt lat="45.05155" lon="5.52656">
        <ele>1131.6</ele>
        <time>1970-01-01T00:49:07.000Z</time>
      </trkpt>
      <trkpt lat="45.05157" lon="5.52656">
        <ele>1132</ele>
        <time>1970-01-01T00:49:08.000Z</time>
      </trkpt>
      <trkpt lat="45.05158" lon="5.52657">
        <ele>1132.8</ele>
        <time>1970-01-01T00:49:09.000Z</time>
      </trkpt>
      <trkpt lat="45.05162" lon="5.52657">
        <ele>1132.8</ele>
        <time>1970-01-01T00:49:12.000Z</time>
      </trkpt>
      <trkpt lat="45.05165" lon="5.52656">
        <ele>1132.8</ele>
        <time>1970-01-01T00:49:15.000Z</time>
      </trkpt>
      <trkpt lat="45.05166" lon="5.52657">
        <ele>1133.2</ele>
        <time>1970-01-01T00:49:16.000Z</time>
      </trkpt>
      <trkpt lat="45.05168" lon="5.52657">
        <ele>1134.2</ele>
        <time>1970-01-01T00:49:18.000Z</time>
      </trkpt>
      <trkpt lat="45.0517" lon="5.52658">
        <ele>1134.6</ele>
        <time>1970-01-01T00:49:19.000Z</time>
      </trkpt>
      <trkpt lat="45.05171" lon="5.52658">
        <ele>1135</ele>
        <time>1970-01-01T00:49:20.000Z</time>
      </trkpt>
      <trkpt lat="45.05172" lon="5.52658">
        <ele>1135</ele>
        <time>1970-01-01T00:49:21.000Z</time>
      </trkpt>
      <trkpt lat="45.05176" lon="5.52658">
        <ele>1135.4</ele>
        <time>1970-01-01T00:49:24.000Z</time>
      </trkpt>
      <trkpt lat="45.05177" lon="5.52658">
        <ele>1135.8</ele>
        <time>1970-01-01T00:49:25.000Z</time>
      </trkpt>
      <trkpt lat="45.05178" lon="5.52659">
        <ele>1136.2</ele>
        <time>1970-01-01T00:49:26.000Z</time>
      </trkpt>
      <trkpt lat="45.05179" lon="5.5266">
        <ele>1136.6</ele>
        <time>1970-01-01T00:49:27.000Z</time>
      </trkpt>
      <trkpt lat="45.05181" lon="5.52659">
        <ele>1137.2</ele>
        <time>1970-01-01T00:49:28.000Z</time>
      </trkpt>
      <trkpt lat="45.05185" lon="5.52658">
        <ele>1137.2</ele>
        <time>1970-01-01T00:49:31.000Z</time>
      </trkpt>
      <trkpt lat="45.05188" lon="5.52658">
        <ele>1138</ele>
        <time>1970-01-01T00:49:33.000Z</time>
      </trkpt>
      <trkpt lat="45.0519" lon="5.52658">
        <ele>1138.4</ele>
        <time>1970-01-01T00:49:34.000Z</time>
      </trkpt>
      <trkpt lat="45.05192" lon="5.52658">
        <ele>1138.8</ele>
        <time>1970-01-01T00:49:35.000Z</time>
      </trkpt>
      <trkpt lat="45.05194" lon="5.52659">
        <ele>1139.4</ele>
        <time>1970-01-01T00:49:36.000Z</time>
      </trkpt>
      <trkpt lat="45.05203" lon="5.52663">
        <ele>1139.4</ele>
        <time>1970-01-01T00:49:40.000Z</time>
      </trkpt>
      <trkpt lat="45.05216" lon="5.52666">
        <ele>1139.4</ele>
        <time>1970-01-01T00:49:47.000Z</time>
      </trkpt>
      <trkpt lat="45.05218" lon="5.52666">
        <ele>1139.8</ele>
        <time>1970-01-01T00:49:48.000Z</time>
      </trkpt>
      <trkpt lat="45.0522" lon="5.52666">
        <ele>1140.2</ele>
        <time>1970-01-01T00:49:49.000Z</time>
      </trkpt>
      <trkpt lat="45.05222" lon="5.52667">
        <ele>1140.6</ele>
        <time>1970-01-01T00:49:50.000Z</time>
      </trkpt>
      <trkpt lat="45.05224" lon="5.52667">
        <ele>1141</ele>
        <time>1970-01-01T00:49:51.000Z</time>
      </trkpt>
      <trkpt lat="45.05225" lon="5.52668">
        <ele>1141.4</ele>
        <time>1970-01-01T00:49:52.000Z</time>
      </trkpt>
      <trkpt lat="45.05226" lon="5.52668">
        <ele>1141.4</ele>
        <time>1970-01-01T00:49:53.000Z</time>
      </trkpt>
      <trkpt lat="45.05232" lon="5.52665">
        <ele>1141.8</ele>
        <time>1970-01-01T00:49:58.000Z</time>
      </trkpt>
      <trkpt lat="45.05233" lon="5.52665">
        <ele>1142.2</ele>
        <time>1970-01-01T00:49:59.000Z</time>
      </trkpt>
      <trkpt lat="45.05234" lon="5.52665">
        <ele>1142.6</ele>
        <time>1970-01-01T00:50:00.000Z</time>
      </trkpt>
      <trkpt lat="45.05236" lon="5.52664">
        <ele>1143</ele>
        <time>1970-01-01T00:50:01.000Z</time>
      </trkpt>
      <trkpt lat="45.05237" lon="5.52665">
        <ele>1143.4</ele>
        <time>1970-01-01T00:50:02.000Z</time>
      </trkpt>
      <trkpt lat="45.05244" lon="5.52664">
        <ele>1143.4</ele>
        <time>1970-01-01T00:50:07.000Z</time>
      </trkpt>
      <trkpt lat="45.05251" lon="5.52662">
        <ele>1143.4</ele>
        <time>1970-01-01T00:50:11.000Z</time>
      </trkpt>
      <trkpt lat="45.05254" lon="5.52662">
        <ele>1143.4</ele>
        <time>1970-01-01T00:50:13.000Z</time>
      </trkpt>
      <trkpt lat="45.05256" lon="5.52662">
        <ele>1143.8</ele>
        <time>1970-01-01T00:50:14.000Z</time>
      </trkpt>
      <trkpt lat="45.05258" lon="5.52661">
        <ele>1144.2</ele>
        <time>1970-01-01T00:50:15.000Z</time>
      </trkpt>
      <trkpt lat="45.05261" lon="5.52661">
        <ele>1144.6</ele>
        <time>1970-01-01T00:50:16.000Z</time>
      </trkpt>
      <trkpt lat="45.05263" lon="5.5266">
        <ele>1145.2</ele>
        <time>1970-01-01T00:50:17.000Z</time>
      </trkpt>
      <trkpt lat="45.05265" lon="5.5266">
        <ele>1145.6</ele>
        <time>1970-01-01T00:50:18.000Z</time>
      </trkpt>
      <trkpt lat="45.05277" lon="5.52656">
        <ele>1145.6</ele>
        <time>1970-01-01T00:50:25.000Z</time>
      </trkpt>
      <trkpt lat="45.05289" lon="5.52648">
        <ele>1145.6</ele>
        <time>1970-01-01T00:50:31.000Z</time>
      </trkpt>
      <trkpt lat="45.05294" lon="5.52645">
        <ele>1146</ele>
        <time>1970-01-01T00:50:35.000Z</time>
      </trkpt>
      <trkpt lat="45.05296" lon="5.52644">
        <ele>1146.4</ele>
        <time>1970-01-01T00:50:36.000Z</time>
      </trkpt>
      <trkpt lat="45.05297" lon="5.52643">
        <ele>1146.8</ele>
        <time>1970-01-01T00:50:37.000Z</time>
      </trkpt>
      <trkpt lat="45.05299" lon="5.52641">
        <ele>1147.2</ele>
        <time>1970-01-01T00:50:38.000Z</time>
      </trkpt>
      <trkpt lat="45.05301" lon="5.5264">
        <ele>1147.6</ele>
        <time>1970-01-01T00:50:39.000Z</time>
      </trkpt>
      <trkpt lat="45.05303" lon="5.52638">
        <ele>1147.6</ele>
        <time>1970-01-01T00:50:40.000Z</time>
      </trkpt>
      <trkpt lat="45.05314" lon="5.52624">
        <ele>1147.6</ele>
        <time>1970-01-01T00:50:45.000Z</time>
      </trkpt>
      <trkpt lat="45.05323" lon="5.52605">
        <ele>1147.6</ele>
        <time>1970-01-01T00:50:51.000Z</time>
      </trkpt>
      <trkpt lat="45.05328" lon="5.52583">
        <ele>1147.6</ele>
        <time>1970-01-01T00:50:58.000Z</time>
      </trkpt>
      <trkpt lat="45.05329" lon="5.52575">
        <ele>1147.6</ele>
        <time>1970-01-01T00:51:01.000Z</time>
      </trkpt>
      <trkpt lat="45.05327" lon="5.52571">
        <ele>1148</ele>
        <time>1970-01-01T00:51:04.000Z</time>
      </trkpt>
      <trkpt lat="45.05326" lon="5.5257">
        <ele>1148.4</ele>
        <time>1970-01-01T00:51:05.000Z</time>
      </trkpt>
      <trkpt lat="45.05324" lon="5.52569">
        <ele>1149</ele>
        <time>1970-01-01T00:51:06.000Z</time>
      </trkpt>
      <trkpt lat="45.05323" lon="5.52568">
        <ele>1149.8</ele>
        <time>1970-01-01T00:51:08.000Z</time>
      </trkpt>
      <trkpt lat="45.0532" lon="5.52565">
        <ele>1149.8</ele>
        <time>1970-01-01T00:51:10.000Z</time>
      </trkpt>
      <trkpt lat="45.0531" lon="5.52554">
        <ele>1150.2</ele>
        <time>1970-01-01T00:51:17.000Z</time>
      </trkpt>
      <trkpt lat="45.05309" lon="5.52553">
        <ele>1150.6</ele>
        <time>1970-01-01T00:51:18.000Z</time>
      </trkpt>
      <trkpt lat="45.05307" lon="5.52551">
        <ele>1151</ele>
        <time>1970-01-01T00:51:19.000Z</time>
      </trkpt>
      <trkpt lat="45.05306" lon="5.52549">
        <ele>1151.4</ele>
        <time>1970-01-01T00:51:20.000Z</time>
      </trkpt>
      <trkpt lat="45.05305" lon="5.52548">
        <ele>1151.8</ele>
        <time>1970-01-01T00:51:21.000Z</time>
      </trkpt>
      <trkpt lat="45.05298" lon="5.52541">
        <ele>1151.8</ele>
        <time>1970-01-01T00:51:25.000Z</time>
      </trkpt>
      <trkpt lat="45.05283" lon="5.52522">
        <ele>1151.8</ele>
        <time>1970-01-01T00:51:33.000Z</time>
      </trkpt>
      <trkpt lat="45.05268" lon="5.52503">
        <ele>1151.8</ele>
        <time>1970-01-01T00:51:40.000Z</time>
      </trkpt>
      <trkpt lat="45.05263" lon="5.52497">
        <ele>1152.2</ele>
        <time>1970-01-01T00:51:42.000Z</time>
      </trkpt>
      <trkpt lat="45.05261" lon="5.52494">
        <ele>1152.6</ele>
        <time>1970-01-01T00:51:43.000Z</time>
      </trkpt>
      <trkpt lat="45.05259" lon="5.5249">
        <ele>1153</ele>
        <time>1970-01-01T00:51:44.000Z</time>
      </trkpt>
      <trkpt lat="45.05257" lon="5.52487">
        <ele>1153.4</ele>
        <time>1970-01-01T00:51:45.000Z</time>
      </trkpt>
      <trkpt lat="45.05254" lon="5.52485">
        <ele>1154</ele>
        <time>1970-01-01T00:51:46.000Z</time>
      </trkpt>
      <trkpt lat="45.05251" lon="5.52482">
        <ele>1154</ele>
        <time>1970-01-01T00:51:47.000Z</time>
      </trkpt>
      <trkpt lat="45.05241" lon="5.5247">
        <ele>1154</ele>
        <time>1970-01-01T00:51:52.000Z</time>
      </trkpt>
      <trkpt lat="45.05232" lon="5.52458">
        <ele>1154.4</ele>
        <time>1970-01-01T00:51:57.000Z</time>
      </trkpt>
      <trkpt lat="45.0523" lon="5.52455">
        <ele>1154.8</ele>
        <time>1970-01-01T00:51:58.000Z</time>
      </trkpt>
      <trkpt lat="45.05228" lon="5.52452">
        <ele>1155.2</ele>
        <time>1970-01-01T00:51:59.000Z</time>
      </trkpt>
      <trkpt lat="45.05226" lon="5.52449">
        <ele>1155.6</ele>
        <time>1970-01-01T00:52:00.000Z</time>
      </trkpt>
      <trkpt lat="45.05224" lon="5.52447">
        <ele>1156</ele>
        <time>1970-01-01T00:52:01.000Z</time>
      </trkpt>
      <trkpt lat="45.05214" lon="5.52434">
        <ele>1156</ele>
        <time>1970-01-01T00:52:06.000Z</time>
      </trkpt>
      <trkpt lat="45.0521" lon="5.5243">
        <ele>1156.4</ele>
        <time>1970-01-01T00:52:08.000Z</time>
      </trkpt>
      <trkpt lat="45.05208" lon="5.52429">
        <ele>1156.8</ele>
        <time>1970-01-01T00:52:09.000Z</time>
      </trkpt>
      <trkpt lat="45.05205" lon="5.52427">
        <ele>1157.2</ele>
        <time>1970-01-01T00:52:10.000Z</time>
      </trkpt>
      <trkpt lat="45.05203" lon="5.52426">
        <ele>1157.6</ele>
        <time>1970-01-01T00:52:11.000Z</time>
      </trkpt>
      <trkpt lat="45.05201" lon="5.52424">
        <ele>1158</ele>
        <time>1970-01-01T00:52:12.000Z</time>
      </trkpt>
      <trkpt lat="45.05198" lon="5.52423">
        <ele>1158</ele>
        <time>1970-01-01T00:52:13.000Z</time>
      </trkpt>
      <trkpt lat="45.05177" lon="5.52409">
        <ele>1158</ele>
        <time>1970-01-01T00:52:20.000Z</time>
      </trkpt>
      <trkpt lat="45.05171" lon="5.52406">
        <ele>1158.4</ele>
        <time>1970-01-01T00:52:22.000Z</time>
      </trkpt>
      <trkpt lat="45.05169" lon="5.52405">
        <ele>1158.8</ele>
        <time>1970-01-01T00:52:23.000Z</time>
      </trkpt>
      <trkpt lat="45.05167" lon="5.52403">
        <ele>1159.4</ele>
        <time>1970-01-01T00:52:24.000Z</time>
      </trkpt>
      <trkpt lat="45.05164" lon="5.52402">
        <ele>1159.8</ele>
        <time>1970-01-01T00:52:25.000Z</time>
      </trkpt>
      <trkpt lat="45.05162" lon="5.52401">
        <ele>1160.2</ele>
        <time>1970-01-01T00:52:26.000Z</time>
      </trkpt>
      <trkpt lat="45.05159" lon="5.524">
        <ele>1160.2</ele>
        <time>1970-01-01T00:52:27.000Z</time>
      </trkpt>
      <trkpt lat="45.0514" lon="5.52392">
        <ele>1160.2</ele>
        <time>1970-01-01T00:52:34.000Z</time>
      </trkpt>
      <trkpt lat="45.05122" lon="5.52386">
        <ele>1160.2</ele>
        <time>1970-01-01T00:52:40.000Z</time>
      </trkpt>
      <trkpt lat="45.05107" lon="5.52384">
        <ele>1160.2</ele>
        <time>1970-01-01T00:52:45.000Z</time>
      </trkpt>
      <trkpt lat="45.05085" lon="5.52383">
        <ele>1160.2</ele>
        <time>1970-01-01T00:52:51.000Z</time>
      </trkpt>
      <trkpt lat="45.05073" lon="5.52382">
        <ele>1160.2</ele>
        <time>1970-01-01T00:52:54.000Z</time>
      </trkpt>
      <trkpt lat="45.05059" lon="5.52382">
        <ele>1160.2</ele>
        <time>1970-01-01T00:52:57.000Z</time>
      </trkpt>
      <trkpt lat="45.05027" lon="5.52383">
        <ele>1160.2</ele>
        <time>1970-01-01T00:53:03.000Z</time>
      </trkpt>
      <trkpt lat="45.05" lon="5.52377">
        <ele>1160.2</ele>
        <time>1970-01-01T00:53:09.000Z</time>
      </trkpt>
      <trkpt lat="45.04996" lon="5.52375">
        <ele>1160.2</ele>
        <time>1970-01-01T00:53:10.000Z</time>
      </trkpt>
      <trkpt lat="45.04983" lon="5.52366">
        <ele>1160.2</ele>
        <time>1970-01-01T00:53:13.000Z</time>
      </trkpt>
      <trkpt lat="45.04968" lon="5.5235">
        <ele>1160.2</ele>
        <time>1970-01-01T00:53:18.000Z</time>
      </trkpt>
      <trkpt lat="45.04957" lon="5.52339">
        <ele>1160.2</ele>
        <time>1970-01-01T00:53:23.000Z</time>
      </trkpt>
      <trkpt lat="45.04945" lon="5.52323">
        <ele>1160.2</ele>
        <time>1970-01-01T00:53:29.000Z</time>
      </trkpt>
      <trkpt lat="45.04927" lon="5.52305">
        <ele>1160.2</ele>
        <time>1970-01-01T00:53:34.000Z</time>
      </trkpt>
      <trkpt lat="45.04909" lon="5.52296">
        <ele>1160.2</ele>
        <time>1970-01-01T00:53:38.000Z</time>
      </trkpt>
      <trkpt lat="45.04904" lon="5.52296">
        <ele>1160.2</ele>
        <time>1970-01-01T00:53:39.000Z</time>
      </trkpt>
      <trkpt lat="45.0489" lon="5.52292">
        <ele>1160.2</ele>
        <time>1970-01-01T00:53:42.000Z</time>
      </trkpt>
      <trkpt lat="45.04883" lon="5.52284">
        <ele>1160.2</ele>
        <time>1970-01-01T00:53:44.000Z</time>
      </trkpt>
      <trkpt lat="45.04874" lon="5.52262">
        <ele>1160.2</ele>
        <time>1970-01-01T00:53:48.000Z</time>
      </trkpt>
      <trkpt lat="45.04868" lon="5.52238">
        <ele>1160.2</ele>
        <time>1970-01-01T00:53:53.000Z</time>
      </trkpt>
      <trkpt lat="45.04859" lon="5.52212">
        <ele>1160.2</ele>
        <time>1970-01-01T00:54:00.000Z</time>
      </trkpt>
      <trkpt lat="45.04853" lon="5.52197">
        <ele>1160.6</ele>
        <time>1970-01-01T00:54:05.000Z</time>
      </trkpt>
      <trkpt lat="45.04852" lon="5.52193">
        <ele>1161.4</ele>
        <time>1970-01-01T00:54:06.000Z</time>
      </trkpt>
      <trkpt lat="45.0485" lon="5.52188">
        <ele>1161.8</ele>
        <time>1970-01-01T00:54:07.000Z</time>
      </trkpt>
      <trkpt lat="45.04848" lon="5.52184">
        <ele>1162.2</ele>
        <time>1970-01-01T00:54:08.000Z</time>
      </trkpt>
      <trkpt lat="45.04838" lon="5.52155">
        <ele>1162.2</ele>
        <time>1970-01-01T00:54:14.000Z</time>
      </trkpt>
      <trkpt lat="45.0483" lon="5.5212">
        <ele>1162.2</ele>
        <time>1970-01-01T00:54:20.000Z</time>
      </trkpt>
      <trkpt lat="45.04827" lon="5.52114">
        <ele>1162.2</ele>
        <time>1970-01-01T00:54:21.000Z</time>
      </trkpt>
      <trkpt lat="45.0482" lon="5.52108">
        <ele>1161.8</ele>
        <time>1970-01-01T00:54:23.000Z</time>
      </trkpt>
      <trkpt lat="45.04814" lon="5.52105">
        <ele>1161.4</ele>
        <time>1970-01-01T00:54:24.000Z</time>
      </trkpt>
      <trkpt lat="45.04808" lon="5.52103">
        <ele>1161</ele>
        <time>1970-01-01T00:54:25.000Z</time>
      </trkpt>
      <trkpt lat="45.04801" lon="5.52102">
        <ele>1160.2</ele>
        <time>1970-01-01T00:54:26.000Z</time>
      </trkpt>
      <trkpt lat="45.04795" lon="5.52101">
        <ele>1159.4</ele>
        <time>1970-01-01T00:54:27.000Z</time>
      </trkpt>
      <trkpt lat="45.04787" lon="5.52102">
        <ele>1158.8</ele>
        <time>1970-01-01T00:54:28.000Z</time>
      </trkpt>
      <trkpt lat="45.04779" lon="5.52104">
        <ele>1158</ele>
        <time>1970-01-01T00:54:29.000Z</time>
      </trkpt>
      <trkpt lat="45.04771" lon="5.52107">
        <ele>1157.2</ele>
        <time>1970-01-01T00:54:30.000Z</time>
      </trkpt>
      <trkpt lat="45.04764" lon="5.5211">
        <ele>1155.8</ele>
        <time>1970-01-01T00:54:31.000Z</time>
      </trkpt>
      <trkpt lat="45.04757" lon="5.52113">
        <ele>1155</ele>
        <time>1970-01-01T00:54:32.000Z</time>
      </trkpt>
      <trkpt lat="45.04751" lon="5.52114">
        <ele>1155</ele>
        <time>1970-01-01T00:54:33.000Z</time>
      </trkpt>
      <trkpt lat="45.04745" lon="5.52116">
        <ele>1154.6</ele>
        <time>1970-01-01T00:54:34.000Z</time>
      </trkpt>
      <trkpt lat="45.04739" lon="5.52118">
        <ele>1154.2</ele>
        <time>1970-01-01T00:54:35.000Z</time>
      </trkpt>
      <trkpt lat="45.04732" lon="5.5212">
        <ele>1153.8</ele>
        <time>1970-01-01T00:54:36.000Z</time>
      </trkpt>
      <trkpt lat="45.04727" lon="5.52122">
        <ele>1153.4</ele>
        <time>1970-01-01T00:54:37.000Z</time>
      </trkpt>
      <trkpt lat="45.04721" lon="5.52124">
        <ele>1152.8</ele>
        <time>1970-01-01T00:54:38.000Z</time>
      </trkpt>
      <trkpt lat="45.04716" lon="5.52126">
        <ele>1152.4</ele>
        <time>1970-01-01T00:54:39.000Z</time>
      </trkpt>
      <trkpt lat="45.0471" lon="5.52128">
        <ele>1152</ele>
        <time>1970-01-01T00:54:40.000Z</time>
      </trkpt>
      <trkpt lat="45.04704" lon="5.52131">
        <ele>1151.6</ele>
        <time>1970-01-01T00:54:41.000Z</time>
      </trkpt>
      <trkpt lat="45.04699" lon="5.52135">
        <ele>1151</ele>
        <time>1970-01-01T00:54:42.000Z</time>
      </trkpt>
      <trkpt lat="45.04694" lon="5.52139">
        <ele>1150.4</ele>
        <time>1970-01-01T00:54:43.000Z</time>
      </trkpt>
      <trkpt lat="45.04688" lon="5.52144">
        <ele>1149.8</ele>
        <time>1970-01-01T00:54:44.000Z</time>
      </trkpt>
      <trkpt lat="45.04682" lon="5.52148">
        <ele>1149.2</ele>
        <time>1970-01-01T00:54:45.000Z</time>
      </trkpt>
      <trkpt lat="45.04676" lon="5.52153">
        <ele>1148.4</ele>
        <time>1970-01-01T00:54:46.000Z</time>
      </trkpt>
      <trkpt lat="45.04672" lon="5.52157">
        <ele>1148.4</ele>
        <time>1970-01-01T00:54:47.000Z</time>
      </trkpt>
      <trkpt lat="45.04667" lon="5.52162">
        <ele>1148.4</ele>
        <time>1970-01-01T00:54:48.000Z</time>
      </trkpt>
      <trkpt lat="45.04663" lon="5.52165">
        <ele>1148.4</ele>
        <time>1970-01-01T00:54:49.000Z</time>
      </trkpt>
      <trkpt lat="45.04651" lon="5.52168">
        <ele>1148.4</ele>
        <time>1970-01-01T00:54:52.000Z</time>
      </trkpt>
      <trkpt lat="45.04646" lon="5.52167">
        <ele>1148.4</ele>
        <time>1970-01-01T00:54:54.000Z</time>
      </trkpt>
      <trkpt lat="45.04638" lon="5.52167">
        <ele>1148.4</ele>
        <time>1970-01-01T00:54:57.000Z</time>
      </trkpt>
      <trkpt lat="45.04633" lon="5.52167">
        <ele>1148.8</ele>
        <time>1970-01-01T00:54:59.000Z</time>
      </trkpt>
      <trkpt lat="45.0463" lon="5.52167">
        <ele>1149.4</ele>
        <time>1970-01-01T00:55:00.000Z</time>
      </trkpt>
      <trkpt lat="45.04627" lon="5.52168">
        <ele>1149.8</ele>
        <time>1970-01-01T00:55:01.000Z</time>
      </trkpt>
      <trkpt lat="45.04625" lon="5.52168">
        <ele>1150.2</ele>
        <time>1970-01-01T00:55:02.000Z</time>
      </trkpt>
      <trkpt lat="45.04623" lon="5.52169">
        <ele>1150.6</ele>
        <time>1970-01-01T00:55:03.000Z</time>
      </trkpt>
      <trkpt lat="45.04621" lon="5.5217">
        <ele>1150.6</ele>
        <time>1970-01-01T00:55:04.000Z</time>
      </trkpt>
      <trkpt lat="45.0461" lon="5.52169">
        <ele>1151</ele>
        <time>1970-01-01T00:55:09.000Z</time>
      </trkpt>
      <trkpt lat="45.04608" lon="5.52169">
        <ele>1151.4</ele>
        <time>1970-01-01T00:55:10.000Z</time>
      </trkpt>
      <trkpt lat="45.04606" lon="5.52169">
        <ele>1151.8</ele>
        <time>1970-01-01T00:55:11.000Z</time>
      </trkpt>
      <trkpt lat="45.04606" lon="5.5217">
        <ele>1152.2</ele>
        <time>1970-01-01T00:55:12.000Z</time>
      </trkpt>
      <trkpt lat="45.04605" lon="5.52171">
        <ele>1152.6</ele>
        <time>1970-01-01T00:55:13.000Z</time>
      </trkpt>
      <trkpt lat="45.04604" lon="5.52172">
        <ele>1152.6</ele>
        <time>1970-01-01T00:55:14.000Z</time>
      </trkpt>
      <trkpt lat="45.046" lon="5.52171">
        <ele>1152.6</ele>
        <time>1970-01-01T00:55:17.000Z</time>
      </trkpt>
      <trkpt lat="45.04598" lon="5.52171">
        <ele>1152.6</ele>
        <time>1970-01-01T00:55:19.000Z</time>
      </trkpt>
      <trkpt lat="45.04598" lon="5.5217">
        <ele>1153</ele>
        <time>1970-01-01T00:55:20.000Z</time>
      </trkpt>
      <trkpt lat="45.04598" lon="5.52166">
        <ele>1155.6</ele>
        <time>1970-01-01T00:55:27.000Z</time>
      </trkpt>
      <trkpt lat="45.04598" lon="5.52163">
        <ele>1156.8</ele>
        <time>1970-01-01T00:55:34.000Z</time>
      </trkpt>
      <trkpt lat="45.04599" lon="5.5216">
        <ele>1156.8</ele>
        <time>1970-01-01T00:55:37.000Z</time>
      </trkpt>
      <trkpt lat="45.04599" lon="5.52156">
        <ele>1156.8</ele>
        <time>1970-01-01T00:55:39.000Z</time>
      </trkpt>
      <trkpt lat="45.04598" lon="5.52152">
        <ele>1157.2</ele>
        <time>1970-01-01T00:55:42.000Z</time>
      </trkpt>
      <trkpt lat="45.04598" lon="5.5215">
        <ele>1157.6</ele>
        <time>1970-01-01T00:55:43.000Z</time>
      </trkpt>
      <trkpt lat="45.04598" lon="5.52149">
        <ele>1158</ele>
        <time>1970-01-01T00:55:44.000Z</time>
      </trkpt>
      <trkpt lat="45.04598" lon="5.52148">
        <ele>1159</ele>
        <time>1970-01-01T00:55:45.000Z</time>
      </trkpt>
      <trkpt lat="45.04599" lon="5.52144">
        <ele>1159</ele>
        <time>1970-01-01T00:55:47.000Z</time>
      </trkpt>
      <trkpt lat="45.04601" lon="5.5214">
        <ele>1159</ele>
        <time>1970-01-01T00:55:49.000Z</time>
      </trkpt>
      <trkpt lat="45.04602" lon="5.5213">
        <ele>1159</ele>
        <time>1970-01-01T00:55:51.000Z</time>
      </trkpt>
      <trkpt lat="45.04603" lon="5.52115">
        <ele>1159</ele>
        <time>1970-01-01T00:55:53.000Z</time>
      </trkpt>
      <trkpt lat="45.04606" lon="5.52103">
        <ele>1159</ele>
        <time>1970-01-01T00:55:55.000Z</time>
      </trkpt>
      <trkpt lat="45.04609" lon="5.52089">
        <ele>1158.6</ele>
        <time>1970-01-01T00:55:57.000Z</time>
      </trkpt>
      <trkpt lat="45.0461" lon="5.52082">
        <ele>1158</ele>
        <time>1970-01-01T00:55:58.000Z</time>
      </trkpt>
      <trkpt lat="45.0461" lon="5.52075">
        <ele>1157.6</ele>
        <time>1970-01-01T00:55:59.000Z</time>
      </trkpt>
      <trkpt lat="45.0461" lon="5.5207">
        <ele>1157.2</ele>
        <time>1970-01-01T00:56:00.000Z</time>
      </trkpt>
      <trkpt lat="45.0461" lon="5.52064">
        <ele>1156.8</ele>
        <time>1970-01-01T00:56:01.000Z</time>
      </trkpt>
      <trkpt lat="45.0461" lon="5.52058">
        <ele>1156.8</ele>
        <time>1970-01-01T00:56:02.000Z</time>
      </trkpt>
      <trkpt lat="45.04611" lon="5.52019">
        <ele>1156.8</ele>
        <time>1970-01-01T00:56:07.000Z</time>
      </trkpt>
      <trkpt lat="45.04611" lon="5.51997">
        <ele>1156.8</ele>
        <time>1970-01-01T00:56:11.000Z</time>
      </trkpt>
      <trkpt lat="45.04611" lon="5.51975">
        <ele>1156.8</ele>
        <time>1970-01-01T00:56:16.000Z</time>
      </trkpt>
      <trkpt lat="45.04611" lon="5.51971">
        <ele>1157.2</ele>
        <time>1970-01-01T00:56:17.000Z</time>
      </trkpt>
      <trkpt lat="45.04611" lon="5.51968">
        <ele>1157.6</ele>
        <time>1970-01-01T00:56:18.000Z</time>
      </trkpt>
      <trkpt lat="45.0461" lon="5.51965">
        <ele>1158</ele>
        <time>1970-01-01T00:56:19.000Z</time>
      </trkpt>
      <trkpt lat="45.04609" lon="5.51962">
        <ele>1158.4</ele>
        <time>1970-01-01T00:56:20.000Z</time>
      </trkpt>
      <trkpt lat="45.04609" lon="5.51959">
        <ele>1158.8</ele>
        <time>1970-01-01T00:56:21.000Z</time>
      </trkpt>
      <trkpt lat="45.04608" lon="5.51955">
        <ele>1159.2</ele>
        <time>1970-01-01T00:56:23.000Z</time>
      </trkpt>
      <trkpt lat="45.04607" lon="5.51952">
        <ele>1159.8</ele>
        <time>1970-01-01T00:56:24.000Z</time>
      </trkpt>
      <trkpt lat="45.04607" lon="5.5195">
        <ele>1160.2</ele>
        <time>1970-01-01T00:56:25.000Z</time>
      </trkpt>
      <trkpt lat="45.04607" lon="5.51947">
        <ele>1160.6</ele>
        <time>1970-01-01T00:56:26.000Z</time>
      </trkpt>
      <trkpt lat="45.04607" lon="5.51945">
        <ele>1161</ele>
        <time>1970-01-01T00:56:27.000Z</time>
      </trkpt>
      <trkpt lat="45.04607" lon="5.51942">
        <ele>1161</ele>
        <time>1970-01-01T00:56:28.000Z</time>
      </trkpt>
      <trkpt lat="45.04606" lon="5.51936">
        <ele>1161.6</ele>
        <time>1970-01-01T00:56:31.000Z</time>
      </trkpt>
      <trkpt lat="45.04605" lon="5.51934">
        <ele>1162</ele>
        <time>1970-01-01T00:56:32.000Z</time>
      </trkpt>
      <trkpt lat="45.04604" lon="5.51931">
        <ele>1162.4</ele>
        <time>1970-01-01T00:56:33.000Z</time>
      </trkpt>
      <trkpt lat="45.04603" lon="5.51929">
        <ele>1163.2</ele>
        <time>1970-01-01T00:56:34.000Z</time>
      </trkpt>
      <trkpt lat="45.04602" lon="5.51927">
        <ele>1163.2</ele>
        <time>1970-01-01T00:56:35.000Z</time>
      </trkpt>
      <trkpt lat="45.04594" lon="5.51906">
        <ele>1163.2</ele>
        <time>1970-01-01T00:56:41.000Z</time>
      </trkpt>
      <trkpt lat="45.04592" lon="5.51875">
        <ele>1163.2</ele>
        <time>1970-01-01T00:56:46.000Z</time>
      </trkpt>
      <trkpt lat="45.04596" lon="5.51864">
        <ele>1162.8</ele>
        <time>1970-01-01T00:56:48.000Z</time>
      </trkpt>
      <trkpt lat="45.046" lon="5.51857">
        <ele>1162.4</ele>
        <time>1970-01-01T00:56:49.000Z</time>
      </trkpt>
      <trkpt lat="45.04604" lon="5.51851">
        <ele>1162</ele>
        <time>1970-01-01T00:56:50.000Z</time>
      </trkpt>
      <trkpt lat="45.04609" lon="5.51844">
        <ele>1161.2</ele>
        <time>1970-01-01T00:56:51.000Z</time>
      </trkpt>
      <trkpt lat="45.04614" lon="5.51838">
        <ele>1160.4</ele>
        <time>1970-01-01T00:56:52.000Z</time>
      </trkpt>
      <trkpt lat="45.04619" lon="5.51829">
        <ele>1159.4</ele>
        <time>1970-01-01T00:56:53.000Z</time>
      </trkpt>
      <trkpt lat="45.04625" lon="5.5182">
        <ele>1158.6</ele>
        <time>1970-01-01T00:56:54.000Z</time>
      </trkpt>
      <trkpt lat="45.04631" lon="5.51809">
        <ele>1157.6</ele>
        <time>1970-01-01T00:56:55.000Z</time>
      </trkpt>
      <trkpt lat="45.04636" lon="5.518">
        <ele>1156.8</ele>
        <time>1970-01-01T00:56:56.000Z</time>
      </trkpt>
      <trkpt lat="45.04641" lon="5.51791">
        <ele>1155.8</ele>
        <time>1970-01-01T00:56:57.000Z</time>
      </trkpt>
      <trkpt lat="45.04646" lon="5.51779">
        <ele>1154</ele>
        <time>1970-01-01T00:56:58.000Z</time>
      </trkpt>
      <trkpt lat="45.04651" lon="5.5177">
        <ele>1153.2</ele>
        <time>1970-01-01T00:56:59.000Z</time>
      </trkpt>
      <trkpt lat="45.04661" lon="5.51751">
        <ele>1152.6</ele>
        <time>1970-01-01T00:57:01.000Z</time>
      </trkpt>
      <trkpt lat="45.04668" lon="5.51741">
        <ele>1152.2</ele>
        <time>1970-01-01T00:57:02.000Z</time>
      </trkpt>
      <trkpt lat="45.04673" lon="5.51731">
        <ele>1151.6</ele>
        <time>1970-01-01T00:57:03.000Z</time>
      </trkpt>
      <trkpt lat="45.04679" lon="5.51722">
        <ele>1151</ele>
        <time>1970-01-01T00:57:04.000Z</time>
      </trkpt>
      <trkpt lat="45.04682" lon="5.5171">
        <ele>1150.2</ele>
        <time>1970-01-01T00:57:05.000Z</time>
      </trkpt>
      <trkpt lat="45.04684" lon="5.51698">
        <ele>1149.6</ele>
        <time>1970-01-01T00:57:06.000Z</time>
      </trkpt>
      <trkpt lat="45.04685" lon="5.51685">
        <ele>1148.8</ele>
        <time>1970-01-01T00:57:07.000Z</time>
      </trkpt>
      <trkpt lat="45.04686" lon="5.51676">
        <ele>1148.2</ele>
        <time>1970-01-01T00:57:08.000Z</time>
      </trkpt>
      <trkpt lat="45.04686" lon="5.51667">
        <ele>1148.2</ele>
        <time>1970-01-01T00:57:09.000Z</time>
      </trkpt>
      <trkpt lat="45.04686" lon="5.5166">
        <ele>1148.2</ele>
        <time>1970-01-01T00:57:10.000Z</time>
      </trkpt>
      <trkpt lat="45.04687" lon="5.51644">
        <ele>1148.8</ele>
        <time>1970-01-01T00:57:14.000Z</time>
      </trkpt>
      <trkpt lat="45.04688" lon="5.5164">
        <ele>1149.2</ele>
        <time>1970-01-01T00:57:15.000Z</time>
      </trkpt>
      <trkpt lat="45.04688" lon="5.51635">
        <ele>1149.8</ele>
        <time>1970-01-01T00:57:16.000Z</time>
      </trkpt>
      <trkpt lat="45.04689" lon="5.51629">
        <ele>1150.2</ele>
        <time>1970-01-01T00:57:17.000Z</time>
      </trkpt>
      <trkpt lat="45.0469" lon="5.51624">
        <ele>1150.8</ele>
        <time>1970-01-01T00:57:18.000Z</time>
      </trkpt>
      <trkpt lat="45.04691" lon="5.51621">
        <ele>1150.8</ele>
        <time>1970-01-01T00:57:19.000Z</time>
      </trkpt>
      <trkpt lat="45.04692" lon="5.51613">
        <ele>1151.2</ele>
        <time>1970-01-01T00:57:21.000Z</time>
      </trkpt>
      <trkpt lat="45.04692" lon="5.5161">
        <ele>1151.6</ele>
        <time>1970-01-01T00:57:22.000Z</time>
      </trkpt>
      <trkpt lat="45.04693" lon="5.51607">
        <ele>1152.4</ele>
        <time>1970-01-01T00:57:23.000Z</time>
      </trkpt>
      <trkpt lat="45.04694" lon="5.51602">
        <ele>1152.8</ele>
        <time>1970-01-01T00:57:24.000Z</time>
      </trkpt>
      <trkpt lat="45.04694" lon="5.51599">
        <ele>1152.8</ele>
        <time>1970-01-01T00:57:25.000Z</time>
      </trkpt>
      <trkpt lat="45.04694" lon="5.51586">
        <ele>1152.8</ele>
        <time>1970-01-01T00:57:29.000Z</time>
      </trkpt>
      <trkpt lat="45.04693" lon="5.51583">
        <ele>1153.4</ele>
        <time>1970-01-01T00:57:30.000Z</time>
      </trkpt>
      <trkpt lat="45.04693" lon="5.51581">
        <ele>1153.8</ele>
        <time>1970-01-01T00:57:31.000Z</time>
      </trkpt>
      <trkpt lat="45.04692" lon="5.51579">
        <ele>1154.2</ele>
        <time>1970-01-01T00:57:32.000Z</time>
      </trkpt>
      <trkpt lat="45.04691" lon="5.51576">
        <ele>1154.8</ele>
        <time>1970-01-01T00:57:33.000Z</time>
      </trkpt>
      <trkpt lat="45.0469" lon="5.51573">
        <ele>1155.4</ele>
        <time>1970-01-01T00:57:34.000Z</time>
      </trkpt>
      <trkpt lat="45.04688" lon="5.5157">
        <ele>1156</ele>
        <time>1970-01-01T00:57:35.000Z</time>
      </trkpt>
      <trkpt lat="45.04686" lon="5.51567">
        <ele>1156.6</ele>
        <time>1970-01-01T00:57:36.000Z</time>
      </trkpt>
      <trkpt lat="45.04685" lon="5.51564">
        <ele>1157.4</ele>
        <time>1970-01-01T00:57:37.000Z</time>
      </trkpt>
      <trkpt lat="45.04676" lon="5.51547">
        <ele>1157.4</ele>
        <time>1970-01-01T00:57:42.000Z</time>
      </trkpt>
      <trkpt lat="45.04664" lon="5.5153">
        <ele>1157.4</ele>
        <time>1970-01-01T00:57:49.000Z</time>
      </trkpt>
      <trkpt lat="45.04656" lon="5.51502">
        <ele>1157</ele>
        <time>1970-01-01T00:57:54.000Z</time>
      </trkpt>
      <trkpt lat="45.04654" lon="5.51496">
        <ele>1156.4</ele>
        <time>1970-01-01T00:57:55.000Z</time>
      </trkpt>
      <trkpt lat="45.04651" lon="5.51489">
        <ele>1156</ele>
        <time>1970-01-01T00:57:56.000Z</time>
      </trkpt>
      <trkpt lat="45.04649" lon="5.51484">
        <ele>1155.6</ele>
        <time>1970-01-01T00:57:57.000Z</time>
      </trkpt>
      <trkpt lat="45.04648" lon="5.51477">
        <ele>1155.2</ele>
        <time>1970-01-01T00:57:58.000Z</time>
      </trkpt>
      <trkpt lat="45.04647" lon="5.51473">
        <ele>1155.2</ele>
        <time>1970-01-01T00:57:59.000Z</time>
      </trkpt>
      <trkpt lat="45.04649" lon="5.51453">
        <ele>1155.2</ele>
        <time>1970-01-01T00:58:04.000Z</time>
      </trkpt>
      <trkpt lat="45.0465" lon="5.51451">
        <ele>1155.2</ele>
        <time>1970-01-01T00:58:05.000Z</time>
      </trkpt>
      <trkpt lat="45.04656" lon="5.51435">
        <ele>1155.6</ele>
        <time>1970-01-01T00:58:10.000Z</time>
      </trkpt>
      <trkpt lat="45.04658" lon="5.51431">
        <ele>1156</ele>
        <time>1970-01-01T00:58:11.000Z</time>
      </trkpt>
      <trkpt lat="45.0466" lon="5.51426">
        <ele>1157</ele>
        <time>1970-01-01T00:58:12.000Z</time>
      </trkpt>
      <trkpt lat="45.04661" lon="5.5142">
        <ele>1157.4</ele>
        <time>1970-01-01T00:58:13.000Z</time>
      </trkpt>
      <trkpt lat="45.04662" lon="5.51415">
        <ele>1157.4</ele>
        <time>1970-01-01T00:58:14.000Z</time>
      </trkpt>
      <trkpt lat="45.04666" lon="5.51406">
        <ele>1157.4</ele>
        <time>1970-01-01T00:58:16.000Z</time>
      </trkpt>
      <trkpt lat="45.04667" lon="5.51401">
        <ele>1157.4</ele>
        <time>1970-01-01T00:58:17.000Z</time>
      </trkpt>
      <trkpt lat="45.04672" lon="5.5139">
        <ele>1157.4</ele>
        <time>1970-01-01T00:58:19.000Z</time>
      </trkpt>
      <trkpt lat="45.04674" lon="5.51382">
        <ele>1157.4</ele>
        <time>1970-01-01T00:58:20.000Z</time>
      </trkpt>
      <trkpt lat="45.04676" lon="5.51374">
        <ele>1157.4</ele>
        <time>1970-01-01T00:58:21.000Z</time>
      </trkpt>
      <trkpt lat="45.04678" lon="5.5135">
        <ele>1157.4</ele>
        <time>1970-01-01T00:58:24.000Z</time>
      </trkpt>
      <trkpt lat="45.04679" lon="5.51335">
        <ele>1156.8</ele>
        <time>1970-01-01T00:58:26.000Z</time>
      </trkpt>
      <trkpt lat="45.0468" lon="5.51327">
        <ele>1156.4</ele>
        <time>1970-01-01T00:58:27.000Z</time>
      </trkpt>
      <trkpt lat="45.04679" lon="5.51321">
        <ele>1156</ele>
        <time>1970-01-01T00:58:28.000Z</time>
      </trkpt>
      <trkpt lat="45.04678" lon="5.51316">
        <ele>1155.6</ele>
        <time>1970-01-01T00:58:29.000Z</time>
      </trkpt>
      <trkpt lat="45.04675" lon="5.51312">
        <ele>1155.2</ele>
        <time>1970-01-01T00:58:30.000Z</time>
      </trkpt>
      <trkpt lat="45.0467" lon="5.51305">
        <ele>1155.2</ele>
        <time>1970-01-01T00:58:32.000Z</time>
      </trkpt>
      <trkpt lat="45.04664" lon="5.513">
        <ele>1155.2</ele>
        <time>1970-01-01T00:58:34.000Z</time>
      </trkpt>
      <trkpt lat="45.0466" lon="5.51298">
        <ele>1155.2</ele>
        <time>1970-01-01T00:58:35.000Z</time>
      </trkpt>
      <trkpt lat="45.04657" lon="5.51294">
        <ele>1154.8</ele>
        <time>1970-01-01T00:58:36.000Z</time>
      </trkpt>
      <trkpt lat="45.04654" lon="5.51291">
        <ele>1154</ele>
        <time>1970-01-01T00:58:37.000Z</time>
      </trkpt>
      <trkpt lat="45.04651" lon="5.51287">
        <ele>1153.6</ele>
        <time>1970-01-01T00:58:38.000Z</time>
      </trkpt>
      <trkpt lat="45.04649" lon="5.51283">
        <ele>1153.2</ele>
        <time>1970-01-01T00:58:39.000Z</time>
      </trkpt>
      <trkpt lat="45.04646" lon="5.51281">
        <ele>1153.2</ele>
        <time>1970-01-01T00:58:40.000Z</time>
      </trkpt>
      <trkpt lat="45.04644" lon="5.51277">
        <ele>1153.2</ele>
        <time>1970-01-01T00:58:41.000Z</time>
      </trkpt>
      <trkpt lat="45.04638" lon="5.51269">
        <ele>1153.2</ele>
        <time>1970-01-01T00:58:45.000Z</time>
      </trkpt>
      <trkpt lat="45.04628" lon="5.51256">
        <ele>1153.2</ele>
        <time>1970-01-01T00:58:49.000Z</time>
      </trkpt>
      <trkpt lat="45.04618" lon="5.51241">
        <ele>1153.2</ele>
        <time>1970-01-01T00:58:54.000Z</time>
      </trkpt>
      <trkpt lat="45.04611" lon="5.51232">
        <ele>1153.2</ele>
        <time>1970-01-01T00:58:59.000Z</time>
      </trkpt>
      <trkpt lat="45.04601" lon="5.51227">
        <ele>1153.2</ele>
        <time>1970-01-01T00:59:06.000Z</time>
      </trkpt>
      <trkpt lat="45.04599" lon="5.51227">
        <ele>1153.6</ele>
        <time>1970-01-01T00:59:07.000Z</time>
      </trkpt>
      <trkpt lat="45.04598" lon="5.51227">
        <ele>1154</ele>
        <time>1970-01-01T00:59:08.000Z</time>
      </trkpt>
      <trkpt lat="45.04596" lon="5.51226">
        <ele>1154.4</ele>
        <time>1970-01-01T00:59:09.000Z</time>
      </trkpt>
      <trkpt lat="45.04594" lon="5.51226">
        <ele>1154.8</ele>
        <time>1970-01-01T00:59:10.000Z</time>
      </trkpt>
      <trkpt lat="45.04592" lon="5.51226">
        <ele>1155.2</ele>
        <time>1970-01-01T00:59:11.000Z</time>
      </trkpt>
      <trkpt lat="45.0459" lon="5.51225">
        <ele>1155.2</ele>
        <time>1970-01-01T00:59:12.000Z</time>
      </trkpt>
      <trkpt lat="45.04571" lon="5.51214">
        <ele>1155.2</ele>
        <time>1970-01-01T00:59:19.000Z</time>
      </trkpt>
      <trkpt lat="45.04563" lon="5.51209">
        <ele>1155.2</ele>
        <time>1970-01-01T00:59:21.000Z</time>
      </trkpt>
      <trkpt lat="45.04556" lon="5.51205">
        <ele>1155.2</ele>
        <time>1970-01-01T00:59:23.000Z</time>
      </trkpt>
      <trkpt lat="45.04547" lon="5.51202">
        <ele>1155.2</ele>
        <time>1970-01-01T00:59:25.000Z</time>
      </trkpt>
      <trkpt lat="45.04537" lon="5.51201">
        <ele>1154.8</ele>
        <time>1970-01-01T00:59:27.000Z</time>
      </trkpt>
      <trkpt lat="45.04531" lon="5.51197">
        <ele>1154.4</ele>
        <time>1970-01-01T00:59:28.000Z</time>
      </trkpt>
      <trkpt lat="45.04526" lon="5.51192">
        <ele>1153.8</ele>
        <time>1970-01-01T00:59:29.000Z</time>
      </trkpt>
      <trkpt lat="45.0452" lon="5.51188">
        <ele>1153.4</ele>
        <time>1970-01-01T00:59:30.000Z</time>
      </trkpt>
      <trkpt lat="45.04516" lon="5.51186">
        <ele>1153</ele>
        <time>1970-01-01T00:59:31.000Z</time>
      </trkpt>
      <trkpt lat="45.04504" lon="5.51184">
        <ele>1153</ele>
        <time>1970-01-01T00:59:35.000Z</time>
      </trkpt>
      <trkpt lat="45.04486" lon="5.51183">
        <ele>1153</ele>
        <time>1970-01-01T00:59:41.000Z</time>
      </trkpt>
      <trkpt lat="45.04472" lon="5.51185">
        <ele>1153</ele>
        <time>1970-01-01T00:59:46.000Z</time>
      </trkpt>
      <trkpt lat="45.04462" lon="5.51184">
        <ele>1153</ele>
        <time>1970-01-01T00:59:49.000Z</time>
      </trkpt>
      <trkpt lat="45.04457" lon="5.5118">
        <ele>1153</ele>
        <time>1970-01-01T00:59:51.000Z</time>
      </trkpt>
      <trkpt lat="45.04453" lon="5.51176">
        <ele>1153</ele>
        <time>1970-01-01T00:59:53.000Z</time>
      </trkpt>
      <trkpt lat="45.04448" lon="5.51171">
        <ele>1153</ele>
        <time>1970-01-01T00:59:56.000Z</time>
      </trkpt>
      <trkpt lat="45.04447" lon="5.51171">
        <ele>1153.4</ele>
        <time>1970-01-01T00:59:57.000Z</time>
      </trkpt>
      <trkpt lat="45.04445" lon="5.5117">
        <ele>1153.8</ele>
        <time>1970-01-01T00:59:58.000Z</time>
      </trkpt>
      <trkpt lat="45.04444" lon="5.5117">
        <ele>1154.2</ele>
        <time>1970-01-01T00:59:59.000Z</time>
      </trkpt>
      <trkpt lat="45.04443" lon="5.5117">
        <ele>1154.6</ele>
        <time>1970-01-01T01:00:00.000Z</time>
      </trkpt>
      <trkpt lat="45.04441" lon="5.5117">
        <ele>1155.2</ele>
        <time>1970-01-01T01:00:01.000Z</time>
      </trkpt>
      <trkpt lat="45.0444" lon="5.51168">
        <ele>1155.2</ele>
        <time>1970-01-01T01:00:02.000Z</time>
      </trkpt>
      <trkpt lat="45.04438" lon="5.51167">
        <ele>1155.6</ele>
        <time>1970-01-01T01:00:03.000Z</time>
      </trkpt>
      <trkpt lat="45.04437" lon="5.51165">
        <ele>1156</ele>
        <time>1970-01-01T01:00:04.000Z</time>
      </trkpt>
      <trkpt lat="45.04438" lon="5.51161">
        <ele>1156.6</ele>
        <time>1970-01-01T01:00:05.000Z</time>
      </trkpt>
      <trkpt lat="45.04438" lon="5.51159">
        <ele>1157</ele>
        <time>1970-01-01T01:00:06.000Z</time>
      </trkpt>
      <trkpt lat="45.04438" lon="5.51157">
        <ele>1157.4</ele>
        <time>1970-01-01T01:00:07.000Z</time>
      </trkpt>
      <trkpt lat="45.04436" lon="5.51148">
        <ele>1157.4</ele>
        <time>1970-01-01T01:00:12.000Z</time>
      </trkpt>
      <trkpt lat="45.04432" lon="5.51145">
        <ele>1157.8</ele>
        <time>1970-01-01T01:00:15.000Z</time>
      </trkpt>
      <trkpt lat="45.0443" lon="5.51144">
        <ele>1158.6</ele>
        <time>1970-01-01T01:00:16.000Z</time>
      </trkpt>
      <trkpt lat="45.04426" lon="5.51142">
        <ele>1159</ele>
        <time>1970-01-01T01:00:17.000Z</time>
      </trkpt>
      <trkpt lat="45.04424" lon="5.51141">
        <ele>1159.6</ele>
        <time>1970-01-01T01:00:18.000Z</time>
      </trkpt>
      <trkpt lat="45.04423" lon="5.5114">
        <ele>1159.6</ele>
        <time>1970-01-01T01:00:19.000Z</time>
      </trkpt>
      <trkpt lat="45.04419" lon="5.51136">
        <ele>1159.6</ele>
        <time>1970-01-01T01:00:22.000Z</time>
      </trkpt>
      <trkpt lat="45.04417" lon="5.51134">
        <ele>1160</ele>
        <time>1970-01-01T01:00:23.000Z</time>
      </trkpt>
      <trkpt lat="45.04415" lon="5.51132">
        <ele>1160.4</ele>
        <time>1970-01-01T01:00:24.000Z</time>
      </trkpt>
      <trkpt lat="45.04412" lon="5.5113">
        <ele>1160.8</ele>
        <time>1970-01-01T01:00:25.000Z</time>
      </trkpt>
      <trkpt lat="45.0441" lon="5.51127">
        <ele>1161.2</ele>
        <time>1970-01-01T01:00:26.000Z</time>
      </trkpt>
      <trkpt lat="45.04408" lon="5.51126">
        <ele>1161.6</ele>
        <time>1970-01-01T01:00:27.000Z</time>
      </trkpt>
      <trkpt lat="45.04406" lon="5.51124">
        <ele>1161.6</ele>
        <time>1970-01-01T01:00:28.000Z</time>
      </trkpt>
      <trkpt lat="45.044" lon="5.5112">
        <ele>1161.6</ele>
        <time>1970-01-01T01:00:31.000Z</time>
      </trkpt>
      <trkpt lat="45.04394" lon="5.51108">
        <ele>1162</ele>
        <time>1970-01-01T01:00:37.000Z</time>
      </trkpt>
      <trkpt lat="45.04392" lon="5.51107">
        <ele>1162.4</ele>
        <time>1970-01-01T01:00:38.000Z</time>
      </trkpt>
      <trkpt lat="45.04389" lon="5.51107">
        <ele>1162.8</ele>
        <time>1970-01-01T01:00:39.000Z</time>
      </trkpt>
      <trkpt lat="45.04386" lon="5.51106">
        <ele>1163.2</ele>
        <time>1970-01-01T01:00:40.000Z</time>
      </trkpt>
      <trkpt lat="45.04382" lon="5.51105">
        <ele>1163.8</ele>
        <time>1970-01-01T01:00:41.000Z</time>
      </trkpt>
      <trkpt lat="45.0438" lon="5.51104">
        <ele>1163.8</ele>
        <time>1970-01-01T01:00:42.000Z</time>
      </trkpt>
      <trkpt lat="45.0437" lon="5.51097">
        <ele>1163.8</ele>
        <time>1970-01-01T01:00:48.000Z</time>
      </trkpt>
      <trkpt lat="45.04368" lon="5.51093">
        <ele>1163.8</ele>
        <time>1970-01-01T01:00:49.000Z</time>
      </trkpt>
      <trkpt lat="45.04361" lon="5.51089">
        <ele>1163.8</ele>
        <time>1970-01-01T01:00:52.000Z</time>
      </trkpt>
      <trkpt lat="45.04359" lon="5.5109">
        <ele>1163.8</ele>
        <time>1970-01-01T01:00:53.000Z</time>
      </trkpt>
      <trkpt lat="45.04353" lon="5.51087">
        <ele>1163.8</ele>
        <time>1970-01-01T01:00:56.000Z</time>
      </trkpt>
      <trkpt lat="45.04353" lon="5.51085">
        <ele>1163.8</ele>
        <time>1970-01-01T01:00:57.000Z</time>
      </trkpt>
      <trkpt lat="45.04344" lon="5.51081">
        <ele>1163.8</ele>
        <time>1970-01-01T01:01:01.000Z</time>
      </trkpt>
      <trkpt lat="45.0434" lon="5.5108">
        <ele>1164.2</ele>
        <time>1970-01-01T01:01:03.000Z</time>
      </trkpt>
      <trkpt lat="45.04339" lon="5.51079">
        <ele>1164.6</ele>
        <time>1970-01-01T01:01:04.000Z</time>
      </trkpt>
      <trkpt lat="45.04337" lon="5.5108">
        <ele>1165.6</ele>
        <time>1970-01-01T01:01:05.000Z</time>
      </trkpt>
      <trkpt lat="45.04336" lon="5.51079">
        <ele>1166</ele>
        <time>1970-01-01T01:01:06.000Z</time>
      </trkpt>
      <trkpt lat="45.04335" lon="5.51078">
        <ele>1166</ele>
        <time>1970-01-01T01:01:07.000Z</time>
      </trkpt>
      <trkpt lat="45.0433" lon="5.51076">
        <ele>1166</ele>
        <time>1970-01-01T01:01:10.000Z</time>
      </trkpt>
      <trkpt lat="45.04323" lon="5.51072">
        <ele>1166</ele>
        <time>1970-01-01T01:01:13.000Z</time>
      </trkpt>
      <trkpt lat="45.04309" lon="5.51068">
        <ele>1166</ele>
        <time>1970-01-01T01:01:19.000Z</time>
      </trkpt>
      <trkpt lat="45.04296" lon="5.51066">
        <ele>1166</ele>
        <time>1970-01-01T01:01:25.000Z</time>
      </trkpt>
      <trkpt lat="45.04286" lon="5.51066">
        <ele>1166.6</ele>
        <time>1970-01-01T01:01:29.000Z</time>
      </trkpt>
      <trkpt lat="45.04284" lon="5.51067">
        <ele>1167.4</ele>
        <time>1970-01-01T01:01:30.000Z</time>
      </trkpt>
      <trkpt lat="45.04283" lon="5.51066">
        <ele>1167.8</ele>
        <time>1970-01-01T01:01:31.000Z</time>
      </trkpt>
      <trkpt lat="45.04281" lon="5.51067">
        <ele>1168.2</ele>
        <time>1970-01-01T01:01:32.000Z</time>
      </trkpt>
      <trkpt lat="45.04272" lon="5.51068">
        <ele>1168.2</ele>
        <time>1970-01-01T01:01:36.000Z</time>
      </trkpt>
      <trkpt lat="45.04269" lon="5.51067">
        <ele>1168.2</ele>
        <time>1970-01-01T01:01:38.000Z</time>
      </trkpt>
      <trkpt lat="45.04264" lon="5.51068">
        <ele>1168.2</ele>
        <time>1970-01-01T01:01:41.000Z</time>
      </trkpt>
      <trkpt lat="45.0426" lon="5.51068">
        <ele>1168.2</ele>
        <time>1970-01-01T01:01:43.000Z</time>
      </trkpt>
      <trkpt lat="45.04248" lon="5.51065">
        <ele>1168.2</ele>
        <time>1970-01-01T01:01:46.000Z</time>
      </trkpt>
      <trkpt lat="45.04233" lon="5.51062">
        <ele>1168.2</ele>
        <time>1970-01-01T01:01:51.000Z</time>
      </trkpt>
      <trkpt lat="45.04214" lon="5.51053">
        <ele>1168.2</ele>
        <time>1970-01-01T01:01:58.000Z</time>
      </trkpt>
      <trkpt lat="45.04209" lon="5.51049">
        <ele>1168.2</ele>
        <time>1970-01-01T01:02:02.000Z</time>
      </trkpt>
      <trkpt lat="45.04203" lon="5.51049">
        <ele>1168.6</ele>
        <time>1970-01-01T01:02:05.000Z</time>
      </trkpt>
      <trkpt lat="45.04201" lon="5.51048">
        <ele>1169.2</ele>
        <time>1970-01-01T01:02:06.000Z</time>
      </trkpt>
      <trkpt lat="45.04199" lon="5.51048">
        <ele>1169.6</ele>
        <time>1970-01-01T01:02:07.000Z</time>
      </trkpt>
      <trkpt lat="45.04198" lon="5.51048">
        <ele>1170</ele>
        <time>1970-01-01T01:02:08.000Z</time>
      </trkpt>
      <trkpt lat="45.04189" lon="5.51049">
        <ele>1170.4</ele>
        <time>1970-01-01T01:02:13.000Z</time>
      </trkpt>
      <trkpt lat="45.04184" lon="5.51046">
        <ele>1170.4</ele>
        <time>1970-01-01T01:02:17.000Z</time>
      </trkpt>
      <trkpt lat="45.0418" lon="5.51043">
        <ele>1171.2</ele>
        <time>1970-01-01T01:02:19.000Z</time>
      </trkpt>
      <trkpt lat="45.04179" lon="5.51042">
        <ele>1171.6</ele>
        <time>1970-01-01T01:02:20.000Z</time>
      </trkpt>
      <trkpt lat="45.04178" lon="5.51041">
        <ele>1172</ele>
        <time>1970-01-01T01:02:21.000Z</time>
      </trkpt>
      <trkpt lat="45.04176" lon="5.5104">
        <ele>1172.4</ele>
        <time>1970-01-01T01:02:22.000Z</time>
      </trkpt>
      <trkpt lat="45.0417" lon="5.51038">
        <ele>1172.4</ele>
        <time>1970-01-01T01:02:24.000Z</time>
      </trkpt>
      <trkpt lat="45.04163" lon="5.51036">
        <ele>1172.4</ele>
        <time>1970-01-01T01:02:27.000Z</time>
      </trkpt>
      <trkpt lat="45.04155" lon="5.51034">
        <ele>1172.8</ele>
        <time>1970-01-01T01:02:30.000Z</time>
      </trkpt>
      <trkpt lat="45.04152" lon="5.51033">
        <ele>1173.2</ele>
        <time>1970-01-01T01:02:31.000Z</time>
      </trkpt>
      <trkpt lat="45.0415" lon="5.51032">
        <ele>1173.6</ele>
        <time>1970-01-01T01:02:32.000Z</time>
      </trkpt>
      <trkpt lat="45.04147" lon="5.51031">
        <ele>1174</ele>
        <time>1970-01-01T01:02:33.000Z</time>
      </trkpt>
      <trkpt lat="45.04146" lon="5.51031">
        <ele>1174.4</ele>
        <time>1970-01-01T01:02:34.000Z</time>
      </trkpt>
      <trkpt lat="45.04141" lon="5.5103">
        <ele>1174.4</ele>
        <time>1970-01-01T01:02:36.000Z</time>
      </trkpt>
      <trkpt lat="45.04127" lon="5.51028">
        <ele>1174.4</ele>
        <time>1970-01-01T01:02:42.000Z</time>
      </trkpt>
      <trkpt lat="45.04115" lon="5.51027">
        <ele>1174.4</ele>
        <time>1970-01-01T01:02:46.000Z</time>
      </trkpt>
      <trkpt lat="45.04109" lon="5.51026">
        <ele>1174.8</ele>
        <time>1970-01-01T01:02:50.000Z</time>
      </trkpt>
      <trkpt lat="45.04107" lon="5.51025">
        <ele>1175.4</ele>
        <time>1970-01-01T01:02:51.000Z</time>
      </trkpt>
      <trkpt lat="45.04105" lon="5.51025">
        <ele>1175.8</ele>
        <time>1970-01-01T01:02:52.000Z</time>
      </trkpt>
      <trkpt lat="45.04103" lon="5.51025">
        <ele>1176.2</ele>
        <time>1970-01-01T01:02:53.000Z</time>
      </trkpt>
      <trkpt lat="45.04101" lon="5.51024">
        <ele>1176.6</ele>
        <time>1970-01-01T01:02:54.000Z</time>
      </trkpt>
      <trkpt lat="45.04093" lon="5.51024">
        <ele>1176.6</ele>
        <time>1970-01-01T01:02:57.000Z</time>
      </trkpt>
      <trkpt lat="45.03973" lon="5.50996">
        <ele>1177.6</ele>
        <time>1970-01-01T01:03:45.000Z</time>
      </trkpt>
      <trkpt lat="45.03854" lon="5.5098">
        <ele>1249</ele>
      </trkpt>
      <trkpt lat="45.03699" lon="5.51243">
        <ele>1263.4</ele>
      </trkpt>
      <trkpt lat="45.03624" lon="5.5132">
        <ele>1253.8</ele>
      </trkpt>
      <trkpt lat="45.03578" lon="5.51424">
        <ele>1249.4</ele>
      </trkpt>
      <trkpt lat="45.03547" lon="5.51432">
        <ele>1248.7</ele>
      </trkpt>
      <trkpt lat="45.03449" lon="5.51294">
        <ele>1246.2</ele>
      </trkpt>
      <trkpt lat="45.03457" lon="5.512">
        <ele>1240.4</ele>
      </trkpt>
      <trkpt lat="45.03469" lon="5.51147">
        <ele>1238.3</ele>
      </trkpt>
      <trkpt lat="45.03493" lon="5.51141">
        <ele>1237.2</ele>
      </trkpt>
      <trkpt lat="45.03501" lon="5.51127">
        <ele>1237</ele>
      </trkpt>
      <trkpt lat="45.0349" lon="5.51076">
        <ele>1237.4</ele>
      </trkpt>
      <trkpt lat="45.03512" lon="5.51061">
        <ele>1237</ele>
      </trkpt>
      <trkpt lat="45.03537" lon="5.50968">
        <ele>1236.2</ele>
      </trkpt>
      <trkpt lat="45.03564" lon="5.50919">
        <ele>1235.7</ele>
      </trkpt>
      <trkpt lat="45.03627" lon="5.50916">
        <ele>1239.5</ele>
      </trkpt>
      <trkpt lat="45.03671" lon="5.50901">
        <ele>1238.1</ele>
      </trkpt>
      <trkpt lat="45.03665" lon="5.50697">
        <ele>1235.8</ele>
      </trkpt>
      <trkpt lat="45.03882" lon="5.50285">
        <ele>1262.9</ele>
      </trkpt>
      <trkpt lat="45.03895" lon="5.50297">
        <ele>1188.4</ele>
        <time>1970-01-01T01:08:30.000Z</time>
      </trkpt>
      <trkpt lat="45.03889" lon="5.50288">
        <ele>1188.4</ele>
        <time>1970-01-01T01:08:34.000Z</time>
      </trkpt>
      <trkpt lat="45.03879" lon="5.50269">
        <ele>1188.4</ele>
        <time>1970-01-01T01:08:41.000Z</time>
      </trkpt>
      <trkpt lat="45.03878" lon="5.50268">
        <ele>1189.2</ele>
        <time>1970-01-01T01:08:42.000Z</time>
      </trkpt>
      <trkpt lat="45.03878" lon="5.50266">
        <ele>1189.6</ele>
        <time>1970-01-01T01:08:43.000Z</time>
      </trkpt>
      <trkpt lat="45.03877" lon="5.50265">
        <ele>1190</ele>
        <time>1970-01-01T01:08:44.000Z</time>
      </trkpt>
      <trkpt lat="45.03876" lon="5.50265">
        <ele>1190.4</ele>
        <time>1970-01-01T01:08:45.000Z</time>
      </trkpt>
      <trkpt lat="45.03877" lon="5.50264">
        <ele>1190.4</ele>
        <time>1970-01-01T01:09:14.000Z</time>
      </trkpt>
      <trkpt lat="45.03881" lon="5.50268">
        <ele>1190.4</ele>
        <time>1970-01-01T01:09:17.000Z</time>
      </trkpt>
      <trkpt lat="45.03883" lon="5.50268">
        <ele>1190.4</ele>
        <time>1970-01-01T01:09:18.000Z</time>
      </trkpt>
      <trkpt lat="45.03889" lon="5.50268">
        <ele>1190.4</ele>
        <time>1970-01-01T01:09:21.000Z</time>
      </trkpt>
      <trkpt lat="45.03894" lon="5.50261">
        <ele>1190.4</ele>
        <time>1970-01-01T01:09:26.000Z</time>
      </trkpt>
      <trkpt lat="45.03896" lon="5.50253">
        <ele>1190.8</ele>
        <time>1970-01-01T01:09:29.000Z</time>
      </trkpt>
      <trkpt lat="45.03896" lon="5.5025">
        <ele>1191.2</ele>
        <time>1970-01-01T01:09:30.000Z</time>
      </trkpt>
      <trkpt lat="45.03896" lon="5.50247">
        <ele>1191.6</ele>
        <time>1970-01-01T01:09:31.000Z</time>
      </trkpt>
      <trkpt lat="45.03896" lon="5.50245">
        <ele>1192</ele>
        <time>1970-01-01T01:09:32.000Z</time>
      </trkpt>
      <trkpt lat="45.03896" lon="5.50243">
        <ele>1192.4</ele>
        <time>1970-01-01T01:09:33.000Z</time>
      </trkpt>
      <trkpt lat="45.03896" lon="5.50234">
        <ele>1193</ele>
        <time>1970-01-01T01:09:37.000Z</time>
      </trkpt>
      <trkpt lat="45.03895" lon="5.50232">
        <ele>1193.4</ele>
        <time>1970-01-01T01:09:38.000Z</time>
      </trkpt>
      <trkpt lat="45.03895" lon="5.50231">
        <ele>1193.8</ele>
        <time>1970-01-01T01:09:39.000Z</time>
      </trkpt>
      <trkpt lat="45.03896" lon="5.50229">
        <ele>1194.2</ele>
        <time>1970-01-01T01:09:40.000Z</time>
      </trkpt>
      <trkpt lat="45.03896" lon="5.50228">
        <ele>1194.8</ele>
        <time>1970-01-01T01:09:41.000Z</time>
      </trkpt>
      <trkpt lat="45.03896" lon="5.50223">
        <ele>1194.8</ele>
        <time>1970-01-01T01:09:43.000Z</time>
      </trkpt>
      <trkpt lat="45.03896" lon="5.50213">
        <ele>1195.2</ele>
        <time>1970-01-01T01:09:47.000Z</time>
      </trkpt>
      <trkpt lat="45.03896" lon="5.50211">
        <ele>1195.6</ele>
        <time>1970-01-01T01:09:48.000Z</time>
      </trkpt>
      <trkpt lat="45.03896" lon="5.50209">
        <ele>1196</ele>
        <time>1970-01-01T01:09:49.000Z</time>
      </trkpt>
      <trkpt lat="45.03896" lon="5.50207">
        <ele>1196.4</ele>
        <time>1970-01-01T01:09:50.000Z</time>
      </trkpt>
      <trkpt lat="45.03896" lon="5.50206">
        <ele>1196.8</ele>
        <time>1970-01-01T01:09:51.000Z</time>
      </trkpt>
      <trkpt lat="45.03898" lon="5.50198">
        <ele>1197.2</ele>
        <time>1970-01-01T01:09:55.000Z</time>
      </trkpt>
      <trkpt lat="45.03897" lon="5.50196">
        <ele>1197.6</ele>
        <time>1970-01-01T01:09:56.000Z</time>
      </trkpt>
      <trkpt lat="45.03897" lon="5.50193">
        <ele>1198.6</ele>
        <time>1970-01-01T01:09:57.000Z</time>
      </trkpt>
      <trkpt lat="45.03898" lon="5.50192">
        <ele>1199</ele>
        <time>1970-01-01T01:09:58.000Z</time>
      </trkpt>
      <trkpt lat="45.03899" lon="5.50185">
        <ele>1199</ele>
        <time>1970-01-01T01:10:02.000Z</time>
      </trkpt>
      <trkpt lat="45.039" lon="5.50184">
        <ele>1199.4</ele>
        <time>1970-01-01T01:10:03.000Z</time>
      </trkpt>
      <trkpt lat="45.03901" lon="5.50182">
        <ele>1199.8</ele>
        <time>1970-01-01T01:10:04.000Z</time>
      </trkpt>
      <trkpt lat="45.03902" lon="5.5018">
        <ele>1200.2</ele>
        <time>1970-01-01T01:10:05.000Z</time>
      </trkpt>
      <trkpt lat="45.03902" lon="5.50179">
        <ele>1200.6</ele>
        <time>1970-01-01T01:10:06.000Z</time>
      </trkpt>
      <trkpt lat="45.03903" lon="5.50177">
        <ele>1201</ele>
        <time>1970-01-01T01:10:07.000Z</time>
      </trkpt>
      <trkpt lat="45.03904" lon="5.50174">
        <ele>1201</ele>
        <time>1970-01-01T01:10:09.000Z</time>
      </trkpt>
      <trkpt lat="45.03906" lon="5.50163">
        <ele>1201.4</ele>
        <time>1970-01-01T01:10:15.000Z</time>
      </trkpt>
      <trkpt lat="45.03907" lon="5.50161">
        <ele>1201.8</ele>
        <time>1970-01-01T01:10:16.000Z</time>
      </trkpt>
      <trkpt lat="45.03906" lon="5.50159">
        <ele>1202.2</ele>
        <time>1970-01-01T01:10:17.000Z</time>
      </trkpt>
      <trkpt lat="45.03906" lon="5.50157">
        <ele>1202.6</ele>
        <time>1970-01-01T01:10:18.000Z</time>
      </trkpt>
      <trkpt lat="45.03906" lon="5.50156">
        <ele>1203.2</ele>
        <time>1970-01-01T01:10:19.000Z</time>
      </trkpt>
      <trkpt lat="45.03906" lon="5.50152">
        <ele>1204</ele>
        <time>1970-01-01T01:10:22.000Z</time>
      </trkpt>
      <trkpt lat="45.03906" lon="5.50151">
        <ele>1204.4</ele>
        <time>1970-01-01T01:10:23.000Z</time>
      </trkpt>
      <trkpt lat="45.03906" lon="5.50149">
        <ele>1204.8</ele>
        <time>1970-01-01T01:10:24.000Z</time>
      </trkpt>
      <trkpt lat="45.03907" lon="5.50149">
        <ele>1205.2</ele>
        <time>1970-01-01T01:10:25.000Z</time>
      </trkpt>
      <trkpt lat="45.0391" lon="5.50147">
        <ele>1205.2</ele>
        <time>1970-01-01T01:10:28.000Z</time>
      </trkpt>
      <trkpt lat="45.03913" lon="5.50145">
        <ele>1205.6</ele>
        <time>1970-01-01T01:10:31.000Z</time>
      </trkpt>
      <trkpt lat="45.03914" lon="5.50144">
        <ele>1206.4</ele>
        <time>1970-01-01T01:10:33.000Z</time>
      </trkpt>
      <trkpt lat="45.03915" lon="5.50143">
        <ele>1206.8</ele>
        <time>1970-01-01T01:10:34.000Z</time>
      </trkpt>
      <trkpt lat="45.03915" lon="5.50141">
        <ele>1207.2</ele>
        <time>1970-01-01T01:10:35.000Z</time>
      </trkpt>
      <trkpt lat="45.03916" lon="5.50139">
        <ele>1207.2</ele>
        <time>1970-01-01T01:10:36.000Z</time>
      </trkpt>
      <trkpt lat="45.03917" lon="5.50137">
        <ele>1207.2</ele>
        <time>1970-01-01T01:10:37.000Z</time>
      </trkpt>
      <trkpt lat="45.03919" lon="5.50133">
        <ele>1207.2</ele>
        <time>1970-01-01T01:10:40.000Z</time>
      </trkpt>
      <trkpt lat="45.03919" lon="5.50131">
        <ele>1207.2</ele>
        <time>1970-01-01T01:10:41.000Z</time>
      </trkpt>
      <trkpt lat="45.0392" lon="5.5013">
        <ele>1207.6</ele>
        <time>1970-01-01T01:10:42.000Z</time>
      </trkpt>
      <trkpt lat="45.03921" lon="5.50129">
        <ele>1208.2</ele>
        <time>1970-01-01T01:10:43.000Z</time>
      </trkpt>
      <trkpt lat="45.03921" lon="5.50128">
        <ele>1208.6</ele>
        <time>1970-01-01T01:10:44.000Z</time>
      </trkpt>
      <trkpt lat="45.03922" lon="5.50126">
        <ele>1209</ele>
        <time>1970-01-01T01:10:45.000Z</time>
      </trkpt>
      <trkpt lat="45.03923" lon="5.50125">
        <ele>1209.4</ele>
        <time>1970-01-01T01:10:46.000Z</time>
      </trkpt>
      <trkpt lat="45.03925" lon="5.50123">
        <ele>1209.4</ele>
        <time>1970-01-01T01:10:48.000Z</time>
      </trkpt>
      <trkpt lat="45.03929" lon="5.50116">
        <ele>1209.4</ele>
        <time>1970-01-01T01:10:54.000Z</time>
      </trkpt>
      <trkpt lat="45.0393" lon="5.50115">
        <ele>1209.8</ele>
        <time>1970-01-01T01:10:55.000Z</time>
      </trkpt>
      <trkpt lat="45.03931" lon="5.50114">
        <ele>1210.4</ele>
        <time>1970-01-01T01:10:56.000Z</time>
      </trkpt>
      <trkpt lat="45.03932" lon="5.50113">
        <ele>1211.2</ele>
        <time>1970-01-01T01:10:58.000Z</time>
      </trkpt>
      <trkpt lat="45.03933" lon="5.50113">
        <ele>1211.6</ele>
        <time>1970-01-01T01:10:59.000Z</time>
      </trkpt>
      <trkpt lat="45.03935" lon="5.50112">
        <ele>1211.6</ele>
        <time>1970-01-01T01:11:00.000Z</time>
      </trkpt>
      <trkpt lat="45.03937" lon="5.50111">
        <ele>1211.6</ele>
        <time>1970-01-01T01:11:01.000Z</time>
      </trkpt>
      <trkpt lat="45.03946" lon="5.50106">
        <ele>1211.6</ele>
        <time>1970-01-01T01:11:07.000Z</time>
      </trkpt>
      <trkpt lat="45.03947" lon="5.50104">
        <ele>1212</ele>
        <time>1970-01-01T01:11:08.000Z</time>
      </trkpt>
      <trkpt lat="45.03949" lon="5.50103">
        <ele>1212.4</ele>
        <time>1970-01-01T01:11:09.000Z</time>
      </trkpt>
      <trkpt lat="45.0395" lon="5.50102">
        <ele>1213</ele>
        <time>1970-01-01T01:11:10.000Z</time>
      </trkpt>
      <trkpt lat="45.03951" lon="5.50101">
        <ele>1213.4</ele>
        <time>1970-01-01T01:11:11.000Z</time>
      </trkpt>
      <trkpt lat="45.03952" lon="5.501">
        <ele>1213.8</ele>
        <time>1970-01-01T01:11:12.000Z</time>
      </trkpt>
      <trkpt lat="45.03953" lon="5.50097">
        <ele>1213.8</ele>
        <time>1970-01-01T01:11:14.000Z</time>
      </trkpt>
      <trkpt lat="45.03965" lon="5.50091">
        <ele>1213.8</ele>
        <time>1970-01-01T01:11:20.000Z</time>
      </trkpt>
      <trkpt lat="45.03981" lon="5.50089">
        <ele>1213.8</ele>
        <time>1970-01-01T01:11:25.000Z</time>
      </trkpt>
      <trkpt lat="45.03998" lon="5.50086">
        <ele>1213.8</ele>
        <time>1970-01-01T01:11:30.000Z</time>
      </trkpt>
      <trkpt lat="45.04009" lon="5.50086">
        <ele>1213.4</ele>
        <time>1970-01-01T01:11:33.000Z</time>
      </trkpt>
      <trkpt lat="45.04014" lon="5.50086">
        <ele>1213</ele>
        <time>1970-01-01T01:11:34.000Z</time>
      </trkpt>
      <trkpt lat="45.04018" lon="5.50086">
        <ele>1212.6</ele>
        <time>1970-01-01T01:11:35.000Z</time>
      </trkpt>
      <trkpt lat="45.04023" lon="5.50087">
        <ele>1212.2</ele>
        <time>1970-01-01T01:11:36.000Z</time>
      </trkpt>
      <trkpt lat="45.04027" lon="5.50087">
        <ele>1211.2</ele>
        <time>1970-01-01T01:11:37.000Z</time>
      </trkpt>
      <trkpt lat="45.0403" lon="5.50088">
        <ele>1210.8</ele>
        <time>1970-01-01T01:11:38.000Z</time>
      </trkpt>
      <trkpt lat="45.04032" lon="5.50089">
        <ele>1210.4</ele>
        <time>1970-01-01T01:11:39.000Z</time>
      </trkpt>
      <trkpt lat="45.04035" lon="5.50089">
        <ele>1210</ele>
        <time>1970-01-01T01:11:40.000Z</time>
      </trkpt>
      <trkpt lat="45.04039" lon="5.50087">
        <ele>1209.6</ele>
        <time>1970-01-01T01:11:41.000Z</time>
      </trkpt>
      <trkpt lat="45.04047" lon="5.50087">
        <ele>1209.6</ele>
        <time>1970-01-01T01:11:43.000Z</time>
      </trkpt>
      <trkpt lat="45.04064" lon="5.50086">
        <ele>1209.2</ele>
        <time>1970-01-01T01:11:47.000Z</time>
      </trkpt>
      <trkpt lat="45.04068" lon="5.50087">
        <ele>1208.8</ele>
        <time>1970-01-01T01:11:48.000Z</time>
      </trkpt>
      <trkpt lat="45.04072" lon="5.50088">
        <ele>1208.4</ele>
        <time>1970-01-01T01:11:49.000Z</time>
      </trkpt>
      <trkpt lat="45.04076" lon="5.50088">
        <ele>1208</ele>
        <time>1970-01-01T01:11:50.000Z</time>
      </trkpt>
      <trkpt lat="45.04081" lon="5.50088">
        <ele>1207.6</ele>
        <time>1970-01-01T01:11:51.000Z</time>
      </trkpt>
      <trkpt lat="45.04087" lon="5.50088">
        <ele>1207.6</ele>
        <time>1970-01-01T01:11:52.000Z</time>
      </trkpt>
      <trkpt lat="45.04096" lon="5.50085">
        <ele>1207</ele>
        <time>1970-01-01T01:11:54.000Z</time>
      </trkpt>
      <trkpt lat="45.04102" lon="5.50084">
        <ele>1206.6</ele>
        <time>1970-01-01T01:11:55.000Z</time>
      </trkpt>
      <trkpt lat="45.04106" lon="5.50084">
        <ele>1206</ele>
        <time>1970-01-01T01:11:56.000Z</time>
      </trkpt>
      <trkpt lat="45.04111" lon="5.50083">
        <ele>1205.6</ele>
        <time>1970-01-01T01:11:57.000Z</time>
      </trkpt>
      <trkpt lat="45.04116" lon="5.50081">
        <ele>1205.2</ele>
        <time>1970-01-01T01:11:58.000Z</time>
      </trkpt>
      <trkpt lat="45.04121" lon="5.50078">
        <ele>1204.6</ele>
        <time>1970-01-01T01:11:59.000Z</time>
      </trkpt>
      <trkpt lat="45.04127" lon="5.50075">
        <ele>1204.2</ele>
        <time>1970-01-01T01:12:00.000Z</time>
      </trkpt>
      <trkpt lat="45.04132" lon="5.50072">
        <ele>1203.8</ele>
        <time>1970-01-01T01:12:01.000Z</time>
      </trkpt>
      <trkpt lat="45.04138" lon="5.50068">
        <ele>1202.8</ele>
        <time>1970-01-01T01:12:02.000Z</time>
      </trkpt>
      <trkpt lat="45.04144" lon="5.50066">
        <ele>1202.4</ele>
        <time>1970-01-01T01:12:03.000Z</time>
      </trkpt>
      <trkpt lat="45.04148" lon="5.50064">
        <ele>1201.8</ele>
        <time>1970-01-01T01:12:04.000Z</time>
      </trkpt>
      <trkpt lat="45.04151" lon="5.50064">
        <ele>1201.4</ele>
        <time>1970-01-01T01:12:05.000Z</time>
      </trkpt>
      <trkpt lat="45.04152" lon="5.50063">
        <ele>1201</ele>
        <time>1970-01-01T01:12:06.000Z</time>
      </trkpt>
      <trkpt lat="45.04153" lon="5.50063">
        <ele>1200.4</ele>
        <time>1970-01-01T01:12:07.000Z</time>
      </trkpt>
      <trkpt lat="45.04154" lon="5.50063">
        <ele>1200.4</ele>
        <time>1970-01-01T01:12:37.000Z</time>
      </trkpt>
      <trkpt lat="45.04156" lon="5.50063">
        <ele>1200.4</ele>
        <time>1970-01-01T01:12:39.000Z</time>
      </trkpt>
      <trkpt lat="45.04168" lon="5.5006">
        <ele>1200.4</ele>
        <time>1970-01-01T01:12:45.000Z</time>
      </trkpt>
      <trkpt lat="45.04178" lon="5.50056">
        <ele>1200.4</ele>
        <time>1970-01-01T01:12:51.000Z</time>
      </trkpt>
      <trkpt lat="45.04191" lon="5.5005">
        <ele>1200.4</ele>
        <time>1970-01-01T01:12:56.000Z</time>
      </trkpt>
      <trkpt lat="45.04204" lon="5.5004">
        <ele>1200.4</ele>
        <time>1970-01-01T01:13:01.000Z</time>
      </trkpt>
      <trkpt lat="45.04216" lon="5.50024">
        <ele>1200.4</ele>
        <time>1970-01-01T01:13:06.000Z</time>
      </trkpt>
      <trkpt lat="45.04227" lon="5.50008">
        <ele>1200.8</ele>
        <time>1970-01-01T01:13:10.000Z</time>
      </trkpt>
      <trkpt lat="45.0423" lon="5.50004">
        <ele>1201.2</ele>
        <time>1970-01-01T01:13:11.000Z</time>
      </trkpt>
      <trkpt lat="45.04233" lon="5.49999">
        <ele>1201.6</ele>
        <time>1970-01-01T01:13:12.000Z</time>
      </trkpt>
      <trkpt lat="45.04236" lon="5.49995">
        <ele>1202.2</ele>
        <time>1970-01-01T01:13:13.000Z</time>
      </trkpt>
      <trkpt lat="45.04239" lon="5.49992">
        <ele>1202.6</ele>
        <time>1970-01-01T01:13:14.000Z</time>
      </trkpt>
      <trkpt lat="45.04249" lon="5.49978">
        <ele>1202.6</ele>
        <time>1970-01-01T01:13:18.000Z</time>
      </trkpt>
      <trkpt lat="45.04264" lon="5.49949">
        <ele>1202.6</ele>
        <time>1970-01-01T01:13:25.000Z</time>
      </trkpt>
      <trkpt lat="45.04265" lon="5.4993">
        <ele>1202.6</ele>
        <time>1970-01-01T01:13:31.000Z</time>
      </trkpt>
      <trkpt lat="45.04265" lon="5.49927">
        <ele>1203</ele>
        <time>1970-01-01T01:13:32.000Z</time>
      </trkpt>
      <trkpt lat="45.04264" lon="5.49923">
        <ele>1203.4</ele>
        <time>1970-01-01T01:13:33.000Z</time>
      </trkpt>
      <trkpt lat="45.04264" lon="5.49919">
        <ele>1203.8</ele>
        <time>1970-01-01T01:13:34.000Z</time>
      </trkpt>
      <trkpt lat="45.04265" lon="5.49915">
        <ele>1204.4</ele>
        <time>1970-01-01T01:13:35.000Z</time>
      </trkpt>
      <trkpt lat="45.04267" lon="5.49911">
        <ele>1204.8</ele>
        <time>1970-01-01T01:13:36.000Z</time>
      </trkpt>
      <trkpt lat="45.04273" lon="5.49899">
        <ele>1204.8</ele>
        <time>1970-01-01T01:13:41.000Z</time>
      </trkpt>
      <trkpt lat="45.04278" lon="5.49886">
        <ele>1205.2</ele>
        <time>1970-01-01T01:13:46.000Z</time>
      </trkpt>
      <trkpt lat="45.0428" lon="5.49883">
        <ele>1205.6</ele>
        <time>1970-01-01T01:13:47.000Z</time>
      </trkpt>
      <trkpt lat="45.04281" lon="5.4988">
        <ele>1206</ele>
        <time>1970-01-01T01:13:48.000Z</time>
      </trkpt>
      <trkpt lat="45.04283" lon="5.49877">
        <ele>1206.4</ele>
        <time>1970-01-01T01:13:49.000Z</time>
      </trkpt>
      <trkpt lat="45.04284" lon="5.49873">
        <ele>1206.8</ele>
        <time>1970-01-01T01:13:50.000Z</time>
      </trkpt>
      <trkpt lat="45.04286" lon="5.4986">
        <ele>1206.8</ele>
        <time>1970-01-01T01:13:54.000Z</time>
      </trkpt>
      <trkpt lat="45.04284" lon="5.49851">
        <ele>1207.2</ele>
        <time>1970-01-01T01:13:57.000Z</time>
      </trkpt>
      <trkpt lat="45.04284" lon="5.49848">
        <ele>1207.6</ele>
        <time>1970-01-01T01:13:58.000Z</time>
      </trkpt>
      <trkpt lat="45.04283" lon="5.49845">
        <ele>1208.2</ele>
        <time>1970-01-01T01:13:59.000Z</time>
      </trkpt>
      <trkpt lat="45.04283" lon="5.49842">
        <ele>1208.6</ele>
        <time>1970-01-01T01:14:00.000Z</time>
      </trkpt>
      <trkpt lat="45.04282" lon="5.4984">
        <ele>1209</ele>
        <time>1970-01-01T01:14:01.000Z</time>
      </trkpt>
      <trkpt lat="45.0428" lon="5.49832">
        <ele>1209</ele>
        <time>1970-01-01T01:14:04.000Z</time>
      </trkpt>
      <trkpt lat="45.04278" lon="5.49827">
        <ele>1209.8</ele>
        <time>1970-01-01T01:14:06.000Z</time>
      </trkpt>
      <trkpt lat="45.04277" lon="5.49825">
        <ele>1210.2</ele>
        <time>1970-01-01T01:14:07.000Z</time>
      </trkpt>
      <trkpt lat="45.04276" lon="5.49823">
        <ele>1210.6</ele>
        <time>1970-01-01T01:14:08.000Z</time>
      </trkpt>
      <trkpt lat="45.04275" lon="5.4982">
        <ele>1211</ele>
        <time>1970-01-01T01:14:09.000Z</time>
      </trkpt>
      <trkpt lat="45.04273" lon="5.49817">
        <ele>1211</ele>
        <time>1970-01-01T01:14:11.000Z</time>
      </trkpt>
      <trkpt lat="45.04269" lon="5.49806">
        <ele>1211.4</ele>
        <time>1970-01-01T01:14:15.000Z</time>
      </trkpt>
      <trkpt lat="45.04269" lon="5.49804">
        <ele>1211.8</ele>
        <time>1970-01-01T01:14:16.000Z</time>
      </trkpt>
      <trkpt lat="45.04268" lon="5.49801">
        <ele>1212.2</ele>
        <time>1970-01-01T01:14:17.000Z</time>
      </trkpt>
      <trkpt lat="45.04268" lon="5.498">
        <ele>1212.6</ele>
        <time>1970-01-01T01:14:18.000Z</time>
      </trkpt>
      <trkpt lat="45.04268" lon="5.49797">
        <ele>1213</ele>
        <time>1970-01-01T01:14:19.000Z</time>
      </trkpt>
      <trkpt lat="45.04265" lon="5.4979">
        <ele>1213</ele>
        <time>1970-01-01T01:14:22.000Z</time>
      </trkpt>
      <trkpt lat="45.04261" lon="5.4978">
        <ele>1213.4</ele>
        <time>1970-01-01T01:14:26.000Z</time>
      </trkpt>
      <trkpt lat="45.04261" lon="5.49776">
        <ele>1213.8</ele>
        <time>1970-01-01T01:14:27.000Z</time>
      </trkpt>
      <trkpt lat="45.0426" lon="5.49774">
        <ele>1214.4</ele>
        <time>1970-01-01T01:14:28.000Z</time>
      </trkpt>
      <trkpt lat="45.04259" lon="5.49772">
        <ele>1214.8</ele>
        <time>1970-01-01T01:14:29.000Z</time>
      </trkpt>
      <trkpt lat="45.04258" lon="5.49769">
        <ele>1215.2</ele>
        <time>1970-01-01T01:14:30.000Z</time>
      </trkpt>
      <trkpt lat="45.04253" lon="5.49758">
        <ele>1215.2</ele>
        <time>1970-01-01T01:14:35.000Z</time>
      </trkpt>
      <trkpt lat="45.0425" lon="5.49755">
        <ele>1215.6</ele>
        <time>1970-01-01T01:14:37.000Z</time>
      </trkpt>
      <trkpt lat="45.04249" lon="5.49753">
        <ele>1216</ele>
        <time>1970-01-01T01:14:38.000Z</time>
      </trkpt>
      <trkpt lat="45.04248" lon="5.49752">
        <ele>1216.4</ele>
        <time>1970-01-01T01:14:39.000Z</time>
      </trkpt>
      <trkpt lat="45.04246" lon="5.49752">
        <ele>1217</ele>
        <time>1970-01-01T01:14:40.000Z</time>
      </trkpt>
      <trkpt lat="45.04245" lon="5.49751">
        <ele>1217.4</ele>
        <time>1970-01-01T01:14:41.000Z</time>
      </trkpt>
      <trkpt lat="45.04243" lon="5.4975">
        <ele>1217.4</ele>
        <time>1970-01-01T01:14:42.000Z</time>
      </trkpt>
      <trkpt lat="45.04237" lon="5.49745">
        <ele>1217.8</ele>
        <time>1970-01-01T01:14:47.000Z</time>
      </trkpt>
      <trkpt lat="45.04235" lon="5.49744">
        <ele>1218.2</ele>
        <time>1970-01-01T01:14:48.000Z</time>
      </trkpt>
      <trkpt lat="45.04234" lon="5.49743">
        <ele>1218.6</ele>
        <time>1970-01-01T01:14:49.000Z</time>
      </trkpt>
      <trkpt lat="45.04232" lon="5.49742">
        <ele>1219</ele>
        <time>1970-01-01T01:14:50.000Z</time>
      </trkpt>
      <trkpt lat="45.04231" lon="5.49741">
        <ele>1219.4</ele>
        <time>1970-01-01T01:14:51.000Z</time>
      </trkpt>
      <trkpt lat="45.04225" lon="5.49739">
        <ele>1219.4</ele>
        <time>1970-01-01T01:14:54.000Z</time>
      </trkpt>
      <trkpt lat="45.04222" lon="5.49737">
        <ele>1219.8</ele>
        <time>1970-01-01T01:14:56.000Z</time>
      </trkpt>
      <trkpt lat="45.0422" lon="5.49738">
        <ele>1220.2</ele>
        <time>1970-01-01T01:14:57.000Z</time>
      </trkpt>
      <trkpt lat="45.04219" lon="5.49739">
        <ele>1220.6</ele>
        <time>1970-01-01T01:14:58.000Z</time>
      </trkpt>
      <trkpt lat="45.04217" lon="5.49739">
        <ele>1221</ele>
        <time>1970-01-01T01:14:59.000Z</time>
      </trkpt>
      <trkpt lat="45.04215" lon="5.49737">
        <ele>1221.6</ele>
        <time>1970-01-01T01:15:00.000Z</time>
      </trkpt>
      <trkpt lat="45.04215" lon="5.49736">
        <ele>1221.6</ele>
        <time>1970-01-01T01:15:01.000Z</time>
      </trkpt>
      <trkpt lat="45.0421" lon="5.49733">
        <ele>1221.6</ele>
        <time>1970-01-01T01:15:04.000Z</time>
      </trkpt>
      <trkpt lat="45.04207" lon="5.49732">
        <ele>1222</ele>
        <time>1970-01-01T01:15:06.000Z</time>
      </trkpt>
      <trkpt lat="45.04205" lon="5.49731">
        <ele>1222.4</ele>
        <time>1970-01-01T01:15:07.000Z</time>
      </trkpt>
      <trkpt lat="45.04203" lon="5.49731">
        <ele>1222.8</ele>
        <time>1970-01-01T01:15:08.000Z</time>
      </trkpt>
      <trkpt lat="45.04202" lon="5.4973">
        <ele>1223.2</ele>
        <time>1970-01-01T01:15:09.000Z</time>
      </trkpt>
      <trkpt lat="45.042" lon="5.49729">
        <ele>1223.6</ele>
        <time>1970-01-01T01:15:10.000Z</time>
      </trkpt>
      <trkpt lat="45.04199" lon="5.49728">
        <ele>1223.6</ele>
        <time>1970-01-01T01:15:11.000Z</time>
      </trkpt>
      <trkpt lat="45.04189" lon="5.49721">
        <ele>1224</ele>
        <time>1970-01-01T01:15:17.000Z</time>
      </trkpt>
      <trkpt lat="45.04187" lon="5.4972">
        <ele>1224.4</ele>
        <time>1970-01-01T01:15:18.000Z</time>
      </trkpt>
      <trkpt lat="45.04186" lon="5.4972">
        <ele>1224.8</ele>
        <time>1970-01-01T01:15:19.000Z</time>
      </trkpt>
      <trkpt lat="45.04184" lon="5.49719">
        <ele>1225.2</ele>
        <time>1970-01-01T01:15:20.000Z</time>
      </trkpt>
      <trkpt lat="45.04183" lon="5.49717">
        <ele>1225.8</ele>
        <time>1970-01-01T01:15:21.000Z</time>
      </trkpt>
      <trkpt lat="45.04179" lon="5.49715">
        <ele>1225.8</ele>
        <time>1970-01-01T01:15:24.000Z</time>
      </trkpt>
      <trkpt lat="45.04176" lon="5.49714">
        <ele>1226.2</ele>
        <time>1970-01-01T01:15:26.000Z</time>
      </trkpt>
      <trkpt lat="45.04177" lon="5.49714">
        <ele>1226.6</ele>
        <time>1970-01-01T01:15:27.000Z</time>
      </trkpt>
      <trkpt lat="45.04175" lon="5.49713">
        <ele>1227</ele>
        <time>1970-01-01T01:15:28.000Z</time>
      </trkpt>
      <trkpt lat="45.04173" lon="5.49713">
        <ele>1227.4</ele>
        <time>1970-01-01T01:15:29.000Z</time>
      </trkpt>
      <trkpt lat="45.04172" lon="5.49713">
        <ele>1227.8</ele>
        <time>1970-01-01T01:15:30.000Z</time>
      </trkpt>
      <trkpt lat="45.04163" lon="5.49708">
        <ele>1227.8</ele>
        <time>1970-01-01T01:15:36.000Z</time>
      </trkpt>
      <trkpt lat="45.04162" lon="5.49707">
        <ele>1228.2</ele>
        <time>1970-01-01T01:15:37.000Z</time>
      </trkpt>
      <trkpt lat="45.04161" lon="5.49707">
        <ele>1228.8</ele>
        <time>1970-01-01T01:15:38.000Z</time>
      </trkpt>
      <trkpt lat="45.0416" lon="5.49707">
        <ele>1229.6</ele>
        <time>1970-01-01T01:15:39.000Z</time>
      </trkpt>
      <trkpt lat="45.04158" lon="5.49705">
        <ele>1230</ele>
        <time>1970-01-01T01:15:40.000Z</time>
      </trkpt>
      <trkpt lat="45.04155" lon="5.49703">
        <ele>1230</ele>
        <time>1970-01-01T01:15:42.000Z</time>
      </trkpt>
      <trkpt lat="45.04147" lon="5.497">
        <ele>1230.4</ele>
        <time>1970-01-01T01:15:47.000Z</time>
      </trkpt>
      <trkpt lat="45.04146" lon="5.497">
        <ele>1230.8</ele>
        <time>1970-01-01T01:15:49.000Z</time>
      </trkpt>
      <trkpt lat="45.04144" lon="5.49699">
        <ele>1231.2</ele>
        <time>1970-01-01T01:15:50.000Z</time>
      </trkpt>
      <trkpt lat="45.04142" lon="5.49698">
        <ele>1231.6</ele>
        <time>1970-01-01T01:15:51.000Z</time>
      </trkpt>
      <trkpt lat="45.0414" lon="5.49696">
        <ele>1232</ele>
        <time>1970-01-01T01:15:52.000Z</time>
      </trkpt>
      <trkpt lat="45.04137" lon="5.49693">
        <ele>1232</ele>
        <time>1970-01-01T01:15:55.000Z</time>
      </trkpt>
      <trkpt lat="45.04133" lon="5.49691">
        <ele>1232.4</ele>
        <time>1970-01-01T01:15:58.000Z</time>
      </trkpt>
      <trkpt lat="45.04131" lon="5.4969">
        <ele>1232.8</ele>
        <time>1970-01-01T01:15:59.000Z</time>
      </trkpt>
      <trkpt lat="45.04129" lon="5.4969">
        <ele>1233.2</ele>
        <time>1970-01-01T01:16:00.000Z</time>
      </trkpt>
      <trkpt lat="45.04127" lon="5.4969">
        <ele>1233.6</ele>
        <time>1970-01-01T01:16:01.000Z</time>
      </trkpt>
      <trkpt lat="45.04126" lon="5.4969">
        <ele>1234</ele>
        <time>1970-01-01T01:16:02.000Z</time>
      </trkpt>
      <trkpt lat="45.04117" lon="5.4969">
        <ele>1234.6</ele>
        <time>1970-01-01T01:16:08.000Z</time>
      </trkpt>
      <trkpt lat="45.04115" lon="5.4969">
        <ele>1235</ele>
        <time>1970-01-01T01:16:09.000Z</time>
      </trkpt>
      <trkpt lat="45.04113" lon="5.49689">
        <ele>1235.4</ele>
        <time>1970-01-01T01:16:10.000Z</time>
      </trkpt>
      <trkpt lat="45.04112" lon="5.49688">
        <ele>1235.8</ele>
        <time>1970-01-01T01:16:11.000Z</time>
      </trkpt>
      <trkpt lat="45.04112" lon="5.49687">
        <ele>1236.2</ele>
        <time>1970-01-01T01:16:12.000Z</time>
      </trkpt>
      <trkpt lat="45.04109" lon="5.49684">
        <ele>1236.2</ele>
        <time>1970-01-01T01:16:15.000Z</time>
      </trkpt>
      <trkpt lat="45.041" lon="5.49681">
        <ele>1236.6</ele>
        <time>1970-01-01T01:16:20.000Z</time>
      </trkpt>
      <trkpt lat="45.04098" lon="5.49681">
        <ele>1237</ele>
        <time>1970-01-01T01:16:21.000Z</time>
      </trkpt>
      <trkpt lat="45.04097" lon="5.49681">
        <ele>1237.4</ele>
        <time>1970-01-01T01:16:22.000Z</time>
      </trkpt>
      <trkpt lat="45.04095" lon="5.49681">
        <ele>1237.8</ele>
        <time>1970-01-01T01:16:23.000Z</time>
      </trkpt>
      <trkpt lat="45.04094" lon="5.49681">
        <ele>1238.4</ele>
        <time>1970-01-01T01:16:24.000Z</time>
      </trkpt>
      <trkpt lat="45.0409" lon="5.4968">
        <ele>1238.4</ele>
        <time>1970-01-01T01:16:27.000Z</time>
      </trkpt>
      <trkpt lat="45.04084" lon="5.49678">
        <ele>1238.8</ele>
        <time>1970-01-01T01:16:30.000Z</time>
      </trkpt>
      <trkpt lat="45.04082" lon="5.49678">
        <ele>1239.2</ele>
        <time>1970-01-01T01:16:31.000Z</time>
      </trkpt>
      <trkpt lat="45.04081" lon="5.49677">
        <ele>1239.6</ele>
        <time>1970-01-01T01:16:32.000Z</time>
      </trkpt>
      <trkpt lat="45.0408" lon="5.49677">
        <ele>1240</ele>
        <time>1970-01-01T01:16:33.000Z</time>
      </trkpt>
      <trkpt lat="45.04079" lon="5.49676">
        <ele>1240.4</ele>
        <time>1970-01-01T01:16:34.000Z</time>
      </trkpt>
      <trkpt lat="45.04078" lon="5.49676">
        <ele>1240.4</ele>
        <time>1970-01-01T01:16:35.000Z</time>
      </trkpt>
      <trkpt lat="45.04071" lon="5.49673">
        <ele>1240.4</ele>
        <time>1970-01-01T01:16:39.000Z</time>
      </trkpt>
      <trkpt lat="45.04067" lon="5.49673">
        <ele>1240.8</ele>
        <time>1970-01-01T01:16:42.000Z</time>
      </trkpt>
      <trkpt lat="45.04065" lon="5.49672">
        <ele>1241.6</ele>
        <time>1970-01-01T01:16:44.000Z</time>
      </trkpt>
      <trkpt lat="45.04064" lon="5.49671">
        <ele>1242</ele>
        <time>1970-01-01T01:16:45.000Z</time>
      </trkpt>
      <trkpt lat="45.04063" lon="5.4967">
        <ele>1242.4</ele>
        <time>1970-01-01T01:16:46.000Z</time>
      </trkpt>
      <trkpt lat="45.04057" lon="5.49667">
        <ele>1242.4</ele>
        <time>1970-01-01T01:16:51.000Z</time>
      </trkpt>
      <trkpt lat="45.04054" lon="5.49664">
        <ele>1243</ele>
        <time>1970-01-01T01:16:53.000Z</time>
      </trkpt>
      <trkpt lat="45.04053" lon="5.49663">
        <ele>1243.8</ele>
        <time>1970-01-01T01:16:54.000Z</time>
      </trkpt>
      <trkpt lat="45.04052" lon="5.49662">
        <ele>1244.2</ele>
        <time>1970-01-01T01:16:55.000Z</time>
      </trkpt>
      <trkpt lat="45.0405" lon="5.49662">
        <ele>1244.6</ele>
        <time>1970-01-01T01:16:56.000Z</time>
      </trkpt>
      <trkpt lat="45.04049" lon="5.49661">
        <ele>1244.6</ele>
        <time>1970-01-01T01:16:57.000Z</time>
      </trkpt>
      <trkpt lat="45.04042" lon="5.49657">
        <ele>1245</ele>
        <time>1970-01-01T01:17:02.000Z</time>
      </trkpt>
      <trkpt lat="45.0404" lon="5.49656">
        <ele>1245.4</ele>
        <time>1970-01-01T01:17:03.000Z</time>
      </trkpt>
      <trkpt lat="45.04039" lon="5.49656">
        <ele>1245.8</ele>
        <time>1970-01-01T01:17:04.000Z</time>
      </trkpt>
      <trkpt lat="45.04038" lon="5.49655">
        <ele>1246.4</ele>
        <time>1970-01-01T01:17:05.000Z</time>
      </trkpt>
      <trkpt lat="45.04036" lon="5.49655">
        <ele>1246.8</ele>
        <time>1970-01-01T01:17:06.000Z</time>
      </trkpt>
      <trkpt lat="45.04031" lon="5.49651">
        <ele>1246.8</ele>
        <time>1970-01-01T01:17:10.000Z</time>
      </trkpt>
      <trkpt lat="45.04025" lon="5.49647">
        <ele>1247.2</ele>
        <time>1970-01-01T01:17:14.000Z</time>
      </trkpt>
      <trkpt lat="45.04024" lon="5.49646">
        <ele>1247.6</ele>
        <time>1970-01-01T01:17:15.000Z</time>
      </trkpt>
      <trkpt lat="45.04022" lon="5.49646">
        <ele>1248</ele>
        <time>1970-01-01T01:17:16.000Z</time>
      </trkpt>
      <trkpt lat="45.0402" lon="5.49646">
        <ele>1248.4</ele>
        <time>1970-01-01T01:17:17.000Z</time>
      </trkpt>
      <trkpt lat="45.04019" lon="5.49645">
        <ele>1249</ele>
        <time>1970-01-01T01:17:18.000Z</time>
      </trkpt>
      <trkpt lat="45.04011" lon="5.49643">
        <ele>1249</ele>
        <time>1970-01-01T01:17:23.000Z</time>
      </trkpt>
      <trkpt lat="45.0401" lon="5.49642">
        <ele>1249.4</ele>
        <time>1970-01-01T01:17:24.000Z</time>
      </trkpt>
      <trkpt lat="45.04008" lon="5.49641">
        <ele>1249.8</ele>
        <time>1970-01-01T01:17:25.000Z</time>
      </trkpt>
      <trkpt lat="45.04006" lon="5.49641">
        <ele>1250.2</ele>
        <time>1970-01-01T01:17:26.000Z</time>
      </trkpt>
      <trkpt lat="45.04005" lon="5.49641">
        <ele>1250.6</ele>
        <time>1970-01-01T01:17:27.000Z</time>
      </trkpt>
      <trkpt lat="45.04003" lon="5.49641">
        <ele>1251</ele>
        <time>1970-01-01T01:17:28.000Z</time>
      </trkpt>
      <trkpt lat="45.04002" lon="5.49641">
        <ele>1251</ele>
        <time>1970-01-01T01:17:29.000Z</time>
      </trkpt>
      <trkpt lat="45.03992" lon="5.4964">
        <ele>1251</ele>
        <time>1970-01-01T01:17:35.000Z</time>
      </trkpt>
      <trkpt lat="45.03991" lon="5.4964">
        <ele>1251.4</ele>
        <time>1970-01-01T01:17:36.000Z</time>
      </trkpt>
      <trkpt lat="45.03989" lon="5.4964">
        <ele>1252</ele>
        <time>1970-01-01T01:17:37.000Z</time>
      </trkpt>
      <trkpt lat="45.03987" lon="5.4964">
        <ele>1252.4</ele>
        <time>1970-01-01T01:17:38.000Z</time>
      </trkpt>
      <trkpt lat="45.03986" lon="5.49639">
        <ele>1252.8</ele>
        <time>1970-01-01T01:17:39.000Z</time>
      </trkpt>
      <trkpt lat="45.03985" lon="5.49639">
        <ele>1253.2</ele>
        <time>1970-01-01T01:17:40.000Z</time>
      </trkpt>
      <trkpt lat="45.03982" lon="5.49638">
        <ele>1253.2</ele>
        <time>1970-01-01T01:17:42.000Z</time>
      </trkpt>
      <trkpt lat="45.0398" lon="5.49636">
        <ele>1253.2</ele>
        <time>1970-01-01T01:17:44.000Z</time>
      </trkpt>
      <trkpt lat="45.03977" lon="5.49635">
        <ele>1253.6</ele>
        <time>1970-01-01T01:17:46.000Z</time>
      </trkpt>
      <trkpt lat="45.03975" lon="5.49635">
        <ele>1254.2</ele>
        <time>1970-01-01T01:17:47.000Z</time>
      </trkpt>
      <trkpt lat="45.03974" lon="5.49635">
        <ele>1254.6</ele>
        <time>1970-01-01T01:17:48.000Z</time>
      </trkpt>
      <trkpt lat="45.03973" lon="5.49635">
        <ele>1255</ele>
        <time>1970-01-01T01:17:49.000Z</time>
      </trkpt>
      <trkpt lat="45.03972" lon="5.49634">
        <ele>1255.4</ele>
        <time>1970-01-01T01:17:50.000Z</time>
      </trkpt>
      <trkpt lat="45.03968" lon="5.49634">
        <ele>1255.4</ele>
        <time>1970-01-01T01:17:53.000Z</time>
      </trkpt>
      <trkpt lat="45.03961" lon="5.49631">
        <ele>1255.8</ele>
        <time>1970-01-01T01:17:57.000Z</time>
      </trkpt>
      <trkpt lat="45.0396" lon="5.49631">
        <ele>1256.2</ele>
        <time>1970-01-01T01:17:58.000Z</time>
      </trkpt>
      <trkpt lat="45.03959" lon="5.4963">
        <ele>1256.6</ele>
        <time>1970-01-01T01:17:59.000Z</time>
      </trkpt>
      <trkpt lat="45.03958" lon="5.49629">
        <ele>1257</ele>
        <time>1970-01-01T01:18:00.000Z</time>
      </trkpt>
      <trkpt lat="45.03956" lon="5.49628">
        <ele>1257.4</ele>
        <time>1970-01-01T01:18:01.000Z</time>
      </trkpt>
      <trkpt lat="45.0395" lon="5.49625">
        <ele>1257.4</ele>
        <time>1970-01-01T01:18:06.000Z</time>
      </trkpt>
      <trkpt lat="45.03948" lon="5.49625">
        <ele>1258.2</ele>
        <time>1970-01-01T01:18:08.000Z</time>
      </trkpt>
      <trkpt lat="45.03946" lon="5.49625">
        <ele>1258.6</ele>
        <time>1970-01-01T01:18:09.000Z</time>
      </trkpt>
      <trkpt lat="45.03945" lon="5.49624">
        <ele>1259.2</ele>
        <time>1970-01-01T01:18:10.000Z</time>
      </trkpt>
      <trkpt lat="45.03943" lon="5.49624">
        <ele>1259.6</ele>
        <time>1970-01-01T01:18:11.000Z</time>
      </trkpt>
      <trkpt lat="45.03939" lon="5.49623">
        <ele>1259.6</ele>
        <time>1970-01-01T01:18:13.000Z</time>
      </trkpt>
      <trkpt lat="45.03931" lon="5.4962">
        <ele>1260</ele>
        <time>1970-01-01T01:18:19.000Z</time>
      </trkpt>
      <trkpt lat="45.0393" lon="5.4962">
        <ele>1260.4</ele>
        <time>1970-01-01T01:18:20.000Z</time>
      </trkpt>
      <trkpt lat="45.03929" lon="5.49618">
        <ele>1260.8</ele>
        <time>1970-01-01T01:18:21.000Z</time>
      </trkpt>
      <trkpt lat="45.03928" lon="5.49616">
        <ele>1261.2</ele>
        <time>1970-01-01T01:18:22.000Z</time>
      </trkpt>
      <trkpt lat="45.03927" lon="5.49615">
        <ele>1261.6</ele>
        <time>1970-01-01T01:18:23.000Z</time>
      </trkpt>
      <trkpt lat="45.03923" lon="5.49613">
        <ele>1261.6</ele>
        <time>1970-01-01T01:18:25.000Z</time>
      </trkpt>
      <trkpt lat="45.03915" lon="5.49606">
        <ele>1262</ele>
        <time>1970-01-01T01:18:31.000Z</time>
      </trkpt>
      <trkpt lat="45.03914" lon="5.49605">
        <ele>1262.4</ele>
        <time>1970-01-01T01:18:32.000Z</time>
      </trkpt>
      <trkpt lat="45.03913" lon="5.49604">
        <ele>1263.4</ele>
        <time>1970-01-01T01:18:33.000Z</time>
      </trkpt>
      <trkpt lat="45.03913" lon="5.49603">
        <ele>1263.8</ele>
        <time>1970-01-01T01:18:34.000Z</time>
      </trkpt>
      <trkpt lat="45.0391" lon="5.49598">
        <ele>1263.8</ele>
        <time>1970-01-01T01:18:37.000Z</time>
      </trkpt>
      <trkpt lat="45.03904" lon="5.4959">
        <ele>1264.2</ele>
        <time>1970-01-01T01:18:43.000Z</time>
      </trkpt>
      <trkpt lat="45.03903" lon="5.49589">
        <ele>1264.6</ele>
        <time>1970-01-01T01:18:44.000Z</time>
      </trkpt>
      <trkpt lat="45.03902" lon="5.49589">
        <ele>1265</ele>
        <time>1970-01-01T01:18:45.000Z</time>
      </trkpt>
      <trkpt lat="45.03901" lon="5.49588">
        <ele>1265.4</ele>
        <time>1970-01-01T01:18:46.000Z</time>
      </trkpt>
      <trkpt lat="45.039" lon="5.49587">
        <ele>1265.8</ele>
        <time>1970-01-01T01:18:47.000Z</time>
      </trkpt>
      <trkpt lat="45.03897" lon="5.49583">
        <ele>1265.8</ele>
        <time>1970-01-01T01:18:50.000Z</time>
      </trkpt>
      <trkpt lat="45.03896" lon="5.49582">
        <ele>1265.8</ele>
        <time>1970-01-01T01:18:51.000Z</time>
      </trkpt>
      <trkpt lat="45.03892" lon="5.49581">
        <ele>1265.8</ele>
        <time>1970-01-01T01:18:54.000Z</time>
      </trkpt>
      <trkpt lat="45.03889" lon="5.49579">
        <ele>1266.6</ele>
        <time>1970-01-01T01:18:57.000Z</time>
      </trkpt>
      <trkpt lat="45.03888" lon="5.49578">
        <ele>1267</ele>
        <time>1970-01-01T01:18:58.000Z</time>
      </trkpt>
      <trkpt lat="45.03887" lon="5.49577">
        <ele>1267.4</ele>
        <time>1970-01-01T01:18:59.000Z</time>
      </trkpt>
      <trkpt lat="45.03886" lon="5.49577">
        <ele>1268</ele>
        <time>1970-01-01T01:19:00.000Z</time>
      </trkpt>
      <trkpt lat="45.03884" lon="5.49574">
        <ele>1268</ele>
        <time>1970-01-01T01:19:03.000Z</time>
      </trkpt>
      <trkpt lat="45.03878" lon="5.4957">
        <ele>1268.4</ele>
        <time>1970-01-01T01:19:08.000Z</time>
      </trkpt>
      <trkpt lat="45.03877" lon="5.49568">
        <ele>1268.8</ele>
        <time>1970-01-01T01:19:09.000Z</time>
      </trkpt>
      <trkpt lat="45.03875" lon="5.49567">
        <ele>1269.2</ele>
        <time>1970-01-01T01:19:10.000Z</time>
      </trkpt>
      <trkpt lat="45.03874" lon="5.49567">
        <ele>1269.6</ele>
        <time>1970-01-01T01:19:11.000Z</time>
      </trkpt>
      <trkpt lat="45.03873" lon="5.49566">
        <ele>1270</ele>
        <time>1970-01-01T01:19:12.000Z</time>
      </trkpt>
      <trkpt lat="45.0387" lon="5.49564">
        <ele>1270</ele>
        <time>1970-01-01T01:19:14.000Z</time>
      </trkpt>
      <trkpt lat="45.03869" lon="5.49563">
        <ele>1270</ele>
        <time>1970-01-01T01:19:15.000Z</time>
      </trkpt>
      <trkpt lat="45.03864" lon="5.49558">
        <ele>1270.4</ele>
        <time>1970-01-01T01:19:19.000Z</time>
      </trkpt>
      <trkpt lat="45.03863" lon="5.49557">
        <ele>1270.8</ele>
        <time>1970-01-01T01:19:20.000Z</time>
      </trkpt>
      <trkpt lat="45.03862" lon="5.49556">
        <ele>1271.2</ele>
        <time>1970-01-01T01:19:21.000Z</time>
      </trkpt>
      <trkpt lat="45.0386" lon="5.49554">
        <ele>1272</ele>
        <time>1970-01-01T01:19:22.000Z</time>
      </trkpt>
      <trkpt lat="45.03858" lon="5.49553">
        <ele>1272</ele>
        <time>1970-01-01T01:19:23.000Z</time>
      </trkpt>
      <trkpt lat="45.0385" lon="5.49547">
        <ele>1272.4</ele>
        <time>1970-01-01T01:19:29.000Z</time>
      </trkpt>
      <trkpt lat="45.03848" lon="5.49546">
        <ele>1272.8</ele>
        <time>1970-01-01T01:19:30.000Z</time>
      </trkpt>
      <trkpt lat="45.03847" lon="5.49545">
        <ele>1273.2</ele>
        <time>1970-01-01T01:19:31.000Z</time>
      </trkpt>
      <trkpt lat="45.03845" lon="5.49544">
        <ele>1273.6</ele>
        <time>1970-01-01T01:19:32.000Z</time>
      </trkpt>
      <trkpt lat="45.03844" lon="5.49543">
        <ele>1274</ele>
        <time>1970-01-01T01:19:33.000Z</time>
      </trkpt>
      <trkpt lat="45.03835" lon="5.49536">
        <ele>1274.6</ele>
        <time>1970-01-01T01:19:39.000Z</time>
      </trkpt>
      <trkpt lat="45.03833" lon="5.49534">
        <ele>1275</ele>
        <time>1970-01-01T01:19:40.000Z</time>
      </trkpt>
      <trkpt lat="45.03832" lon="5.49533">
        <ele>1275.4</ele>
        <time>1970-01-01T01:19:41.000Z</time>
      </trkpt>
      <trkpt lat="45.03831" lon="5.49531">
        <ele>1275.8</ele>
        <time>1970-01-01T01:19:42.000Z</time>
      </trkpt>
      <trkpt lat="45.0383" lon="5.4953">
        <ele>1276.2</ele>
        <time>1970-01-01T01:19:43.000Z</time>
      </trkpt>
      <trkpt lat="45.03829" lon="5.49526">
        <ele>1276.2</ele>
        <time>1970-01-01T01:19:45.000Z</time>
      </trkpt>
      <trkpt lat="45.03827" lon="5.49519">
        <ele>1276.6</ele>
        <time>1970-01-01T01:19:49.000Z</time>
      </trkpt>
      <trkpt lat="45.03826" lon="5.49517">
        <ele>1277</ele>
        <time>1970-01-01T01:19:50.000Z</time>
      </trkpt>
      <trkpt lat="45.03826" lon="5.49516">
        <ele>1277.4</ele>
        <time>1970-01-01T01:19:51.000Z</time>
      </trkpt>
      <trkpt lat="45.03826" lon="5.49514">
        <ele>1277.8</ele>
        <time>1970-01-01T01:19:52.000Z</time>
      </trkpt>
      <trkpt lat="45.03826" lon="5.49513">
        <ele>1278.2</ele>
        <time>1970-01-01T01:19:53.000Z</time>
      </trkpt>
      <trkpt lat="45.03823" lon="5.49507">
        <ele>1278.2</ele>
        <time>1970-01-01T01:19:56.000Z</time>
      </trkpt>
      <trkpt lat="45.03822" lon="5.49505">
        <ele>1278.2</ele>
        <time>1970-01-01T01:19:57.000Z</time>
      </trkpt>
      <trkpt lat="45.03821" lon="5.495">
        <ele>1278.6</ele>
        <time>1970-01-01T01:20:00.000Z</time>
      </trkpt>
      <trkpt lat="45.03821" lon="5.49497">
        <ele>1279</ele>
        <time>1970-01-01T01:20:01.000Z</time>
      </trkpt>
      <trkpt lat="45.0382" lon="5.49495">
        <ele>1279.4</ele>
        <time>1970-01-01T01:20:02.000Z</time>
      </trkpt>
      <trkpt lat="45.03819" lon="5.49493">
        <ele>1279.8</ele>
        <time>1970-01-01T01:20:03.000Z</time>
      </trkpt>
      <trkpt lat="45.03818" lon="5.49491">
        <ele>1280.2</ele>
        <time>1970-01-01T01:20:04.000Z</time>
      </trkpt>
      <trkpt lat="45.03816" lon="5.49483">
        <ele>1280.2</ele>
        <time>1970-01-01T01:20:09.000Z</time>
      </trkpt>
      <trkpt lat="45.03816" lon="5.49479">
        <ele>1281</ele>
        <time>1970-01-01T01:20:11.000Z</time>
      </trkpt>
      <trkpt lat="45.03815" lon="5.49477">
        <ele>1281.4</ele>
        <time>1970-01-01T01:20:12.000Z</time>
      </trkpt>
      <trkpt lat="45.03815" lon="5.49475">
        <ele>1281.8</ele>
        <time>1970-01-01T01:20:13.000Z</time>
      </trkpt>
      <trkpt lat="45.03815" lon="5.49473">
        <ele>1282.2</ele>
        <time>1970-01-01T01:20:14.000Z</time>
      </trkpt>
      <trkpt lat="45.03814" lon="5.49469">
        <ele>1282.2</ele>
        <time>1970-01-01T01:20:17.000Z</time>
      </trkpt>
      <trkpt lat="45.03813" lon="5.49464">
        <ele>1282.2</ele>
        <time>1970-01-01T01:20:20.000Z</time>
      </trkpt>
      <trkpt lat="45.03811" lon="5.49461">
        <ele>1282.6</ele>
        <time>1970-01-01T01:20:22.000Z</time>
      </trkpt>
      <trkpt lat="45.03811" lon="5.49459">
        <ele>1283</ele>
        <time>1970-01-01T01:20:23.000Z</time>
      </trkpt>
      <trkpt lat="45.0381" lon="5.49458">
        <ele>1283.4</ele>
        <time>1970-01-01T01:20:24.000Z</time>
      </trkpt>
      <trkpt lat="45.0381" lon="5.49456">
        <ele>1283.8</ele>
        <time>1970-01-01T01:20:25.000Z</time>
      </trkpt>
      <trkpt lat="45.03808" lon="5.49455">
        <ele>1284.2</ele>
        <time>1970-01-01T01:20:26.000Z</time>
      </trkpt>
      <trkpt lat="45.03806" lon="5.49453">
        <ele>1284.2</ele>
        <time>1970-01-01T01:20:28.000Z</time>
      </trkpt>
      <trkpt lat="45.03805" lon="5.49452">
        <ele>1284.2</ele>
        <time>1970-01-01T01:20:29.000Z</time>
      </trkpt>
      <trkpt lat="45.03801" lon="5.49448">
        <ele>1284.2</ele>
        <time>1970-01-01T01:20:33.000Z</time>
      </trkpt>
      <trkpt lat="45.038" lon="5.49447">
        <ele>1284.6</ele>
        <time>1970-01-01T01:20:34.000Z</time>
      </trkpt>
      <trkpt lat="45.03799" lon="5.49446">
        <ele>1285.2</ele>
        <time>1970-01-01T01:20:35.000Z</time>
      </trkpt>
      <trkpt lat="45.03798" lon="5.49446">
        <ele>1286</ele>
        <time>1970-01-01T01:20:36.000Z</time>
      </trkpt>
      <trkpt lat="45.03796" lon="5.49446">
        <ele>1286.4</ele>
        <time>1970-01-01T01:20:37.000Z</time>
      </trkpt>
      <trkpt lat="45.03791" lon="5.49446">
        <ele>1286.4</ele>
        <time>1970-01-01T01:20:40.000Z</time>
      </trkpt>
      <trkpt lat="45.03784" lon="5.49446">
        <ele>1286.8</ele>
        <time>1970-01-01T01:20:45.000Z</time>
      </trkpt>
      <trkpt lat="45.03782" lon="5.49446">
        <ele>1287.4</ele>
        <time>1970-01-01T01:20:46.000Z</time>
      </trkpt>
      <trkpt lat="45.03781" lon="5.49446">
        <ele>1287.8</ele>
        <time>1970-01-01T01:20:47.000Z</time>
      </trkpt>
      <trkpt lat="45.03779" lon="5.49447">
        <ele>1288.2</ele>
        <time>1970-01-01T01:20:48.000Z</time>
      </trkpt>
      <trkpt lat="45.03778" lon="5.49447">
        <ele>1288.6</ele>
        <time>1970-01-01T01:20:49.000Z</time>
      </trkpt>
      <trkpt lat="45.03769" lon="5.49451">
        <ele>1288.6</ele>
        <time>1970-01-01T01:20:54.000Z</time>
      </trkpt>
      <trkpt lat="45.03765" lon="5.49452">
        <ele>1289</ele>
        <time>1970-01-01T01:20:57.000Z</time>
      </trkpt>
      <trkpt lat="45.03764" lon="5.49452">
        <ele>1289.4</ele>
        <time>1970-01-01T01:20:58.000Z</time>
      </trkpt>
      <trkpt lat="45.03762" lon="5.49452">
        <ele>1289.8</ele>
        <time>1970-01-01T01:20:59.000Z</time>
      </trkpt>
      <trkpt lat="45.03761" lon="5.49451">
        <ele>1290.2</ele>
        <time>1970-01-01T01:21:00.000Z</time>
      </trkpt>
      <trkpt lat="45.0376" lon="5.49451">
        <ele>1290.6</ele>
        <time>1970-01-01T01:21:01.000Z</time>
      </trkpt>
      <trkpt lat="45.03754" lon="5.49453">
        <ele>1290.6</ele>
        <time>1970-01-01T01:21:07.000Z</time>
      </trkpt>
      <trkpt lat="45.03753" lon="5.49455">
        <ele>1290.6</ele>
        <time>1970-01-01T01:21:11.000Z</time>
      </trkpt>
      <trkpt lat="45.03753" lon="5.49456">
        <ele>1290.6</ele>
        <time>1970-01-01T01:22:21.000Z</time>
      </trkpt>
      <trkpt lat="45.03752" lon="5.49456">
        <ele>1290.6</ele>
        <time>1970-01-01T01:22:23.000Z</time>
      </trkpt>
      <trkpt lat="45.03751" lon="5.49456">
        <ele>1290.6</ele>
        <time>1970-01-01T01:22:24.000Z</time>
      </trkpt>
      <trkpt lat="45.03752" lon="5.49455">
        <ele>1290.6</ele>
        <time>1970-01-01T01:22:26.000Z</time>
      </trkpt>
      <trkpt lat="45.03751" lon="5.49453">
        <ele>1290.6</ele>
        <time>1970-01-01T01:22:27.000Z</time>
      </trkpt>
      <trkpt lat="45.03748" lon="5.49452">
        <ele>1291</ele>
        <time>1970-01-01T01:22:29.000Z</time>
      </trkpt>
      <trkpt lat="45.03747" lon="5.49452">
        <ele>1291.6</ele>
        <time>1970-01-01T01:22:30.000Z</time>
      </trkpt>
      <trkpt lat="45.03746" lon="5.4945">
        <ele>1292</ele>
        <time>1970-01-01T01:22:31.000Z</time>
      </trkpt>
      <trkpt lat="45.03744" lon="5.49449">
        <ele>1292.8</ele>
        <time>1970-01-01T01:22:33.000Z</time>
      </trkpt>
      <trkpt lat="45.03736" lon="5.49444">
        <ele>1293.2</ele>
        <time>1970-01-01T01:22:38.000Z</time>
      </trkpt>
      <trkpt lat="45.03735" lon="5.49442">
        <ele>1293.6</ele>
        <time>1970-01-01T01:22:39.000Z</time>
      </trkpt>
      <trkpt lat="45.03734" lon="5.4944">
        <ele>1294.4</ele>
        <time>1970-01-01T01:22:40.000Z</time>
      </trkpt>
      <trkpt lat="45.03733" lon="5.49438">
        <ele>1294.8</ele>
        <time>1970-01-01T01:22:41.000Z</time>
      </trkpt>
      <trkpt lat="45.03727" lon="5.49434">
        <ele>1294.8</ele>
        <time>1970-01-01T01:22:45.000Z</time>
      </trkpt>
      <trkpt lat="45.03725" lon="5.49433">
        <ele>1294.8</ele>
        <time>1970-01-01T01:22:46.000Z</time>
      </trkpt>
      <trkpt lat="45.03722" lon="5.49431">
        <ele>1295.2</ele>
        <time>1970-01-01T01:22:48.000Z</time>
      </trkpt>
      <trkpt lat="45.03721" lon="5.49429">
        <ele>1295.6</ele>
        <time>1970-01-01T01:22:49.000Z</time>
      </trkpt>
      <trkpt lat="45.0372" lon="5.49428">
        <ele>1296.2</ele>
        <time>1970-01-01T01:22:50.000Z</time>
      </trkpt>
      <trkpt lat="45.03719" lon="5.49426">
        <ele>1296.6</ele>
        <time>1970-01-01T01:22:51.000Z</time>
      </trkpt>
      <trkpt lat="45.03718" lon="5.49425">
        <ele>1297</ele>
        <time>1970-01-01T01:22:52.000Z</time>
      </trkpt>
      <trkpt lat="45.03711" lon="5.49418">
        <ele>1297</ele>
        <time>1970-01-01T01:22:57.000Z</time>
      </trkpt>
      <trkpt lat="45.03705" lon="5.49415">
        <ele>1297.4</ele>
        <time>1970-01-01T01:23:01.000Z</time>
      </trkpt>
      <trkpt lat="45.03704" lon="5.49414">
        <ele>1297.8</ele>
        <time>1970-01-01T01:23:02.000Z</time>
      </trkpt>
      <trkpt lat="45.03703" lon="5.49414">
        <ele>1298.4</ele>
        <time>1970-01-01T01:23:03.000Z</time>
      </trkpt>
      <trkpt lat="45.03701" lon="5.49413">
        <ele>1298.8</ele>
        <time>1970-01-01T01:23:04.000Z</time>
      </trkpt>
      <trkpt lat="45.037" lon="5.49412">
        <ele>1299.2</ele>
        <time>1970-01-01T01:23:05.000Z</time>
      </trkpt>
      <trkpt lat="45.03694" lon="5.49408">
        <ele>1299.2</ele>
        <time>1970-01-01T01:23:09.000Z</time>
      </trkpt>
      <trkpt lat="45.0369" lon="5.49404">
        <ele>1299.6</ele>
        <time>1970-01-01T01:23:12.000Z</time>
      </trkpt>
      <trkpt lat="45.03689" lon="5.49403">
        <ele>1300</ele>
        <time>1970-01-01T01:23:13.000Z</time>
      </trkpt>
      <trkpt lat="45.03688" lon="5.49403">
        <ele>1300.4</ele>
        <time>1970-01-01T01:23:14.000Z</time>
      </trkpt>
      <trkpt lat="45.03686" lon="5.49403">
        <ele>1300.8</ele>
        <time>1970-01-01T01:23:15.000Z</time>
      </trkpt>
      <trkpt lat="45.03684" lon="5.49402">
        <ele>1301.2</ele>
        <time>1970-01-01T01:23:16.000Z</time>
      </trkpt>
      <trkpt lat="45.03682" lon="5.49399">
        <ele>1301.2</ele>
        <time>1970-01-01T01:23:18.000Z</time>
      </trkpt>
      <trkpt lat="45.03681" lon="5.49391">
        <ele>1301.2</ele>
        <time>1970-01-01T01:23:21.000Z</time>
      </trkpt>
      <trkpt lat="45.03683" lon="5.49386">
        <ele>1301.6</ele>
        <time>1970-01-01T01:23:25.000Z</time>
      </trkpt>
      <trkpt lat="45.03684" lon="5.49386">
        <ele>1302</ele>
        <time>1970-01-01T01:23:26.000Z</time>
      </trkpt>
      <trkpt lat="45.03686" lon="5.49386">
        <ele>1302.4</ele>
        <time>1970-01-01T01:23:27.000Z</time>
      </trkpt>
      <trkpt lat="45.03687" lon="5.49386">
        <ele>1302.8</ele>
        <time>1970-01-01T01:23:28.000Z</time>
      </trkpt>
      <trkpt lat="45.03688" lon="5.49386">
        <ele>1303.2</ele>
        <time>1970-01-01T01:23:29.000Z</time>
      </trkpt>
      <trkpt lat="45.03691" lon="5.49385">
        <ele>1303.2</ele>
        <time>1970-01-01T01:23:31.000Z</time>
      </trkpt>
      <trkpt lat="45.03701" lon="5.49387">
        <ele>1303.2</ele>
        <time>1970-01-01T01:23:38.000Z</time>
      </trkpt>
      <trkpt lat="45.03712" lon="5.49387">
        <ele>1303.2</ele>
        <time>1970-01-01T01:23:45.000Z</time>
      </trkpt>
      <trkpt lat="45.03713" lon="5.49386">
        <ele>1303.6</ele>
        <time>1970-01-01T01:23:46.000Z</time>
      </trkpt>
      <trkpt lat="45.03714" lon="5.49386">
        <ele>1304.2</ele>
        <time>1970-01-01T01:23:47.000Z</time>
      </trkpt>
      <trkpt lat="45.03715" lon="5.49385">
        <ele>1304.6</ele>
        <time>1970-01-01T01:23:48.000Z</time>
      </trkpt>
      <trkpt lat="45.03716" lon="5.49386">
        <ele>1305</ele>
        <time>1970-01-01T01:23:49.000Z</time>
      </trkpt>
      <trkpt lat="45.03718" lon="5.49386">
        <ele>1305.4</ele>
        <time>1970-01-01T01:23:50.000Z</time>
      </trkpt>
      <trkpt lat="45.03719" lon="5.49386">
        <ele>1305.4</ele>
        <time>1970-01-01T01:23:51.000Z</time>
      </trkpt>
      <trkpt lat="45.03725" lon="5.49381">
        <ele>1305.8</ele>
        <time>1970-01-01T01:23:55.000Z</time>
      </trkpt>
      <trkpt lat="45.03727" lon="5.4938">
        <ele>1306.2</ele>
        <time>1970-01-01T01:23:56.000Z</time>
      </trkpt>
      <trkpt lat="45.0373" lon="5.4938">
        <ele>1307</ele>
        <time>1970-01-01T01:23:58.000Z</time>
      </trkpt>
      <trkpt lat="45.03731" lon="5.49379">
        <ele>1307.4</ele>
        <time>1970-01-01T01:23:59.000Z</time>
      </trkpt>
      <trkpt lat="45.03735" lon="5.4938">
        <ele>1307.4</ele>
        <time>1970-01-01T01:24:02.000Z</time>
      </trkpt>
      <trkpt lat="45.03744" lon="5.49379">
        <ele>1307.4</ele>
        <time>1970-01-01T01:24:06.000Z</time>
      </trkpt>
      <trkpt lat="45.03746" lon="5.49379">
        <ele>1307.4</ele>
        <time>1970-01-01T01:24:07.000Z</time>
      </trkpt>
      <trkpt lat="45.03764" lon="5.4938">
        <ele>1307.4</ele>
        <time>1970-01-01T01:24:14.000Z</time>
      </trkpt>
      <trkpt lat="45.03784" lon="5.49384">
        <ele>1307.4</ele>
        <time>1970-01-01T01:24:21.000Z</time>
      </trkpt>
      <trkpt lat="45.03803" lon="5.49389">
        <ele>1307.4</ele>
        <time>1970-01-01T01:24:25.000Z</time>
      </trkpt>
      <trkpt lat="45.03808" lon="5.49391">
        <ele>1307.4</ele>
        <time>1970-01-01T01:24:26.000Z</time>
      </trkpt>
      <trkpt lat="45.03812" lon="5.49393">
        <ele>1306.8</ele>
        <time>1970-01-01T01:24:27.000Z</time>
      </trkpt>
      <trkpt lat="45.03817" lon="5.49395">
        <ele>1306.4</ele>
        <time>1970-01-01T01:24:28.000Z</time>
      </trkpt>
      <trkpt lat="45.03823" lon="5.49397">
        <ele>1305.8</ele>
        <time>1970-01-01T01:24:29.000Z</time>
      </trkpt>
      <trkpt lat="45.03831" lon="5.494">
        <ele>1305.2</ele>
        <time>1970-01-01T01:24:30.000Z</time>
      </trkpt>
      <trkpt lat="45.03837" lon="5.49401">
        <ele>1304.4</ele>
        <time>1970-01-01T01:24:31.000Z</time>
      </trkpt>
      <trkpt lat="45.03844" lon="5.49401">
        <ele>1303.6</ele>
        <time>1970-01-01T01:24:32.000Z</time>
      </trkpt>
      <trkpt lat="45.03849" lon="5.49402">
        <ele>1302.8</ele>
        <time>1970-01-01T01:24:33.000Z</time>
      </trkpt>
      <trkpt lat="45.03855" lon="5.49401">
        <ele>1302.2</ele>
        <time>1970-01-01T01:24:34.000Z</time>
      </trkpt>
      <trkpt lat="45.03875" lon="5.49401">
        <ele>1302.2</ele>
        <time>1970-01-01T01:24:39.000Z</time>
      </trkpt>
      <trkpt lat="45.03877" lon="5.49402">
        <ele>1302.2</ele>
        <time>1970-01-01T01:24:40.000Z</time>
      </trkpt>
      <trkpt lat="45.03883" lon="5.49404">
        <ele>1302.2</ele>
        <time>1970-01-01T01:24:41.000Z</time>
      </trkpt>
      <trkpt lat="45.03891" lon="5.49407">
        <ele>1302.2</ele>
        <time>1970-01-01T01:24:43.000Z</time>
      </trkpt>
      <trkpt lat="45.03901" lon="5.49407">
        <ele>1302.2</ele>
        <time>1970-01-01T01:24:45.000Z</time>
      </trkpt>
      <trkpt lat="45.03911" lon="5.49407">
        <ele>1302.2</ele>
        <time>1970-01-01T01:24:47.000Z</time>
      </trkpt>
      <trkpt lat="45.03917" lon="5.49407">
        <ele>1302.2</ele>
        <time>1970-01-01T01:24:49.000Z</time>
      </trkpt>
      <trkpt lat="45.03937" lon="5.49404">
        <ele>1302.2</ele>
        <time>1970-01-01T01:24:56.000Z</time>
      </trkpt>
      <trkpt lat="45.03953" lon="5.49404">
        <ele>1302.2</ele>
        <time>1970-01-01T01:25:04.000Z</time>
      </trkpt>
      <trkpt lat="45.0396" lon="5.49403">
        <ele>1302.2</ele>
        <time>1970-01-01T01:25:08.000Z</time>
      </trkpt>
      <trkpt lat="45.03962" lon="5.49402">
        <ele>1302.6</ele>
        <time>1970-01-01T01:25:09.000Z</time>
      </trkpt>
      <trkpt lat="45.03963" lon="5.49402">
        <ele>1303</ele>
        <time>1970-01-01T01:25:10.000Z</time>
      </trkpt>
      <trkpt lat="45.03964" lon="5.49402">
        <ele>1303.4</ele>
        <time>1970-01-01T01:25:11.000Z</time>
      </trkpt>
      <trkpt lat="45.03965" lon="5.49401">
        <ele>1303.8</ele>
        <time>1970-01-01T01:25:12.000Z</time>
      </trkpt>
      <trkpt lat="45.03966" lon="5.49401">
        <ele>1304.2</ele>
        <time>1970-01-01T01:25:13.000Z</time>
      </trkpt>
      <trkpt lat="45.03968" lon="5.49401">
        <ele>1304.2</ele>
        <time>1970-01-01T01:25:14.000Z</time>
      </trkpt>
      <trkpt lat="45.03973" lon="5.49401">
        <ele>1304.2</ele>
        <time>1970-01-01T01:25:17.000Z</time>
      </trkpt>
      <trkpt lat="45.03978" lon="5.49401">
        <ele>1304.8</ele>
        <time>1970-01-01T01:25:20.000Z</time>
      </trkpt>
      <trkpt lat="45.03979" lon="5.49401">
        <ele>1305.2</ele>
        <time>1970-01-01T01:25:21.000Z</time>
      </trkpt>
      <trkpt lat="45.0398" lon="5.49401">
        <ele>1305.6</ele>
        <time>1970-01-01T01:25:22.000Z</time>
      </trkpt>
      <trkpt lat="45.03981" lon="5.494">
        <ele>1306</ele>
        <time>1970-01-01T01:25:23.000Z</time>
      </trkpt>
      <trkpt lat="45.03983" lon="5.494">
        <ele>1306.4</ele>
        <time>1970-01-01T01:25:24.000Z</time>
      </trkpt>
      <trkpt lat="45.03986" lon="5.49398">
        <ele>1306.4</ele>
        <time>1970-01-01T01:25:25.000Z</time>
      </trkpt>
      <trkpt lat="45.03991" lon="5.49396">
        <ele>1306.4</ele>
        <time>1970-01-01T01:25:29.000Z</time>
      </trkpt>
      <trkpt lat="45.03995" lon="5.49396">
        <ele>1306.8</ele>
        <time>1970-01-01T01:25:32.000Z</time>
      </trkpt>
      <trkpt lat="45.03996" lon="5.49396">
        <ele>1307.6</ele>
        <time>1970-01-01T01:25:33.000Z</time>
      </trkpt>
      <trkpt lat="45.03997" lon="5.49394">
        <ele>1308</ele>
        <time>1970-01-01T01:25:34.000Z</time>
      </trkpt>
      <trkpt lat="45.03999" lon="5.49392">
        <ele>1308.6</ele>
        <time>1970-01-01T01:25:35.000Z</time>
      </trkpt>
      <trkpt lat="45.04001" lon="5.49389">
        <ele>1308.6</ele>
        <time>1970-01-01T01:25:37.000Z</time>
      </trkpt>
      <trkpt lat="45.04007" lon="5.49387">
        <ele>1308.6</ele>
        <time>1970-01-01T01:25:40.000Z</time>
      </trkpt>
      <trkpt lat="45.04009" lon="5.49386">
        <ele>1309</ele>
        <time>1970-01-01T01:25:41.000Z</time>
      </trkpt>
      <trkpt lat="45.0401" lon="5.49386">
        <ele>1309.4</ele>
        <time>1970-01-01T01:25:42.000Z</time>
      </trkpt>
      <trkpt lat="45.04011" lon="5.49385">
        <ele>1309.8</ele>
        <time>1970-01-01T01:25:43.000Z</time>
      </trkpt>
      <trkpt lat="45.04012" lon="5.49384">
        <ele>1310.2</ele>
        <time>1970-01-01T01:25:44.000Z</time>
      </trkpt>
      <trkpt lat="45.04013" lon="5.49383">
        <ele>1310.6</ele>
        <time>1970-01-01T01:25:45.000Z</time>
      </trkpt>
      <trkpt lat="45.0402" lon="5.49381">
        <ele>1310.6</ele>
        <time>1970-01-01T01:25:49.000Z</time>
      </trkpt>
      <trkpt lat="45.04022" lon="5.4938">
        <ele>1311</ele>
        <time>1970-01-01T01:25:51.000Z</time>
      </trkpt>
      <trkpt lat="45.04024" lon="5.49379">
        <ele>1311.6</ele>
        <time>1970-01-01T01:25:52.000Z</time>
      </trkpt>
      <trkpt lat="45.04025" lon="5.49379">
        <ele>1312</ele>
        <time>1970-01-01T01:25:53.000Z</time>
      </trkpt>
      <trkpt lat="45.04027" lon="5.49378">
        <ele>1312.4</ele>
        <time>1970-01-01T01:25:54.000Z</time>
      </trkpt>
      <trkpt lat="45.04029" lon="5.49378">
        <ele>1312.8</ele>
        <time>1970-01-01T01:25:55.000Z</time>
      </trkpt>
      <trkpt lat="45.0403" lon="5.49378">
        <ele>1312.8</ele>
        <time>1970-01-01T01:25:56.000Z</time>
      </trkpt>
      <trkpt lat="45.04034" lon="5.49374">
        <ele>1313.2</ele>
        <time>1970-01-01T01:26:00.000Z</time>
      </trkpt>
      <trkpt lat="45.04035" lon="5.49374">
        <ele>1313.6</ele>
        <time>1970-01-01T01:26:01.000Z</time>
      </trkpt>
      <trkpt lat="45.04036" lon="5.49373">
        <ele>1314</ele>
        <time>1970-01-01T01:26:02.000Z</time>
      </trkpt>
      <trkpt lat="45.04037" lon="5.49373">
        <ele>1314.4</ele>
        <time>1970-01-01T01:26:03.000Z</time>
      </trkpt>
      <trkpt lat="45.04038" lon="5.49372">
        <ele>1314.8</ele>
        <time>1970-01-01T01:26:04.000Z</time>
      </trkpt>
      <trkpt lat="45.04044" lon="5.4937">
        <ele>1314.8</ele>
        <time>1970-01-01T01:26:09.000Z</time>
      </trkpt>
      <trkpt lat="45.04047" lon="5.49369">
        <ele>1314.8</ele>
        <time>1970-01-01T01:26:12.000Z</time>
      </trkpt>
      <trkpt lat="45.04048" lon="5.49369">
        <ele>1315.2</ele>
        <time>1970-01-01T01:26:14.000Z</time>
      </trkpt>
      <trkpt lat="45.04049" lon="5.49369">
        <ele>1315.6</ele>
        <time>1970-01-01T01:26:15.000Z</time>
      </trkpt>
      <trkpt lat="45.0405" lon="5.49369">
        <ele>1316</ele>
        <time>1970-01-01T01:26:16.000Z</time>
      </trkpt>
      <trkpt lat="45.04051" lon="5.49368">
        <ele>1316.8</ele>
        <time>1970-01-01T01:26:18.000Z</time>
      </trkpt>
      <trkpt lat="45.04052" lon="5.49367">
        <ele>1316.8</ele>
        <time>1970-01-01T01:26:19.000Z</time>
      </trkpt>
      <trkpt lat="45.04055" lon="5.49369">
        <ele>1316.8</ele>
        <time>1970-01-01T01:26:21.000Z</time>
      </trkpt>
      <trkpt lat="45.04058" lon="5.49369">
        <ele>1316.8</ele>
        <time>1970-01-01T01:26:23.000Z</time>
      </trkpt>
      <trkpt lat="45.04067" lon="5.49369">
        <ele>1316.8</ele>
        <time>1970-01-01T01:27:09.000Z</time>
      </trkpt>
      <trkpt lat="45.04069" lon="5.49368">
        <ele>1316.8</ele>
        <time>1970-01-01T01:27:11.000Z</time>
      </trkpt>
      <trkpt lat="45.04074" lon="5.49367">
        <ele>1316.8</ele>
        <time>1970-01-01T01:27:15.000Z</time>
      </trkpt>
      <trkpt lat="45.04078" lon="5.49366">
        <ele>1317.4</ele>
        <time>1970-01-01T01:27:18.000Z</time>
      </trkpt>
      <trkpt lat="45.0408" lon="5.49366">
        <ele>1317.8</ele>
        <time>1970-01-01T01:27:19.000Z</time>
      </trkpt>
      <trkpt lat="45.04082" lon="5.49365">
        <ele>1318.2</ele>
        <time>1970-01-01T01:27:20.000Z</time>
      </trkpt>
      <trkpt lat="45.04083" lon="5.49365">
        <ele>1318.8</ele>
        <time>1970-01-01T01:27:21.000Z</time>
      </trkpt>
      <trkpt lat="45.04085" lon="5.49365">
        <ele>1319.2</ele>
        <time>1970-01-01T01:27:22.000Z</time>
      </trkpt>
      <trkpt lat="45.04088" lon="5.49362">
        <ele>1321.4</ele>
        <time>1970-01-01T01:27:34.000Z</time>
      </trkpt>
      <trkpt lat="45.0409" lon="5.49362">
        <ele>1321.4</ele>
        <time>1970-01-01T01:27:35.000Z</time>
      </trkpt>
      <trkpt lat="45.04096" lon="5.4936">
        <ele>1321.8</ele>
        <time>1970-01-01T01:27:38.000Z</time>
      </trkpt>
      <trkpt lat="45.04098" lon="5.4936">
        <ele>1322.2</ele>
        <time>1970-01-01T01:27:39.000Z</time>
      </trkpt>
      <trkpt lat="45.041" lon="5.4936">
        <ele>1322.6</ele>
        <time>1970-01-01T01:27:40.000Z</time>
      </trkpt>
      <trkpt lat="45.04101" lon="5.49359">
        <ele>1323</ele>
        <time>1970-01-01T01:27:41.000Z</time>
      </trkpt>
      <trkpt lat="45.04103" lon="5.49358">
        <ele>1323.4</ele>
        <time>1970-01-01T01:27:42.000Z</time>
      </trkpt>
      <trkpt lat="45.04105" lon="5.49357">
        <ele>1323.4</ele>
        <time>1970-01-01T01:27:43.000Z</time>
      </trkpt>
      <trkpt lat="45.0411" lon="5.49354">
        <ele>1323.8</ele>
        <time>1970-01-01T01:27:46.000Z</time>
      </trkpt>
      <trkpt lat="45.04111" lon="5.49353">
        <ele>1324.4</ele>
        <time>1970-01-01T01:27:47.000Z</time>
      </trkpt>
      <trkpt lat="45.04112" lon="5.49352">
        <ele>1324.8</ele>
        <time>1970-01-01T01:27:48.000Z</time>
      </trkpt>
      <trkpt lat="45.04114" lon="5.49351">
        <ele>1325.6</ele>
        <time>1970-01-01T01:27:50.000Z</time>
      </trkpt>
      <trkpt lat="45.04122" lon="5.4935">
        <ele>1325.6</ele>
        <time>1970-01-01T01:27:56.000Z</time>
      </trkpt>
      <trkpt lat="45.04127" lon="5.49349">
        <ele>1325.6</ele>
        <time>1970-01-01T01:27:59.000Z</time>
      </trkpt>
      <trkpt lat="45.04128" lon="5.49348">
        <ele>1326</ele>
        <time>1970-01-01T01:28:00.000Z</time>
      </trkpt>
      <trkpt lat="45.04129" lon="5.49348">
        <ele>1326.6</ele>
        <time>1970-01-01T01:28:01.000Z</time>
      </trkpt>
      <trkpt lat="45.04131" lon="5.49348">
        <ele>1327.4</ele>
        <time>1970-01-01T01:28:02.000Z</time>
      </trkpt>
      <trkpt lat="45.04132" lon="5.49349">
        <ele>1327.8</ele>
        <time>1970-01-01T01:28:03.000Z</time>
      </trkpt>
      <trkpt lat="45.04137" lon="5.4935">
        <ele>1327.8</ele>
        <time>1970-01-01T01:28:07.000Z</time>
      </trkpt>
      <trkpt lat="45.04144" lon="5.49351">
        <ele>1327.8</ele>
        <time>1970-01-01T01:28:12.000Z</time>
      </trkpt>
      <trkpt lat="45.04148" lon="5.49352">
        <ele>1328.6</ele>
        <time>1970-01-01T01:28:17.000Z</time>
      </trkpt>
      <trkpt lat="45.0415" lon="5.49353">
        <ele>1329</ele>
        <time>1970-01-01T01:28:18.000Z</time>
      </trkpt>
      <trkpt lat="45.04152" lon="5.49353">
        <ele>1329.4</ele>
        <time>1970-01-01T01:28:19.000Z</time>
      </trkpt>
      <trkpt lat="45.04153" lon="5.49352">
        <ele>1329.8</ele>
        <time>1970-01-01T01:28:20.000Z</time>
      </trkpt>
      <trkpt lat="45.04158" lon="5.49352">
        <ele>1329.8</ele>
        <time>1970-01-01T01:28:23.000Z</time>
      </trkpt>
      <trkpt lat="45.04163" lon="5.4935">
        <ele>1329.8</ele>
        <time>1970-01-01T01:28:27.000Z</time>
      </trkpt>
      <trkpt lat="45.04165" lon="5.49349">
        <ele>1329.8</ele>
        <time>1970-01-01T01:28:29.000Z</time>
      </trkpt>
      <trkpt lat="45.04168" lon="5.4935">
        <ele>1330.2</ele>
        <time>1970-01-01T01:28:31.000Z</time>
      </trkpt>
      <trkpt lat="45.0417" lon="5.49349">
        <ele>1330.6</ele>
        <time>1970-01-01T01:28:32.000Z</time>
      </trkpt>
      <trkpt lat="45.04171" lon="5.49349">
        <ele>1331</ele>
        <time>1970-01-01T01:28:33.000Z</time>
      </trkpt>
      <trkpt lat="45.04172" lon="5.49348">
        <ele>1331.4</ele>
        <time>1970-01-01T01:28:34.000Z</time>
      </trkpt>
      <trkpt lat="45.04173" lon="5.49348">
        <ele>1331.8</ele>
        <time>1970-01-01T01:28:35.000Z</time>
      </trkpt>
      <trkpt lat="45.04175" lon="5.49347">
        <ele>1331.8</ele>
        <time>1970-01-01T01:28:37.000Z</time>
      </trkpt>
      <trkpt lat="45.04178" lon="5.49346">
        <ele>1332.2</ele>
        <time>1970-01-01T01:28:39.000Z</time>
      </trkpt>
      <trkpt lat="45.04179" lon="5.49345">
        <ele>1332.6</ele>
        <time>1970-01-01T01:28:40.000Z</time>
      </trkpt>
      <trkpt lat="45.04179" lon="5.49344">
        <ele>1333</ele>
        <time>1970-01-01T01:28:41.000Z</time>
      </trkpt>
      <trkpt lat="45.0418" lon="5.49344">
        <ele>1333.6</ele>
        <time>1970-01-01T01:28:42.000Z</time>
      </trkpt>
      <trkpt lat="45.04182" lon="5.49344">
        <ele>1334</ele>
        <time>1970-01-01T01:28:43.000Z</time>
      </trkpt>
      <trkpt lat="45.04183" lon="5.49345">
        <ele>1334</ele>
        <time>1970-01-01T01:28:44.000Z</time>
      </trkpt>
      <trkpt lat="45.04186" lon="5.49345">
        <ele>1334</ele>
        <time>1970-01-01T01:28:46.000Z</time>
      </trkpt>
      <trkpt lat="45.04189" lon="5.49344">
        <ele>1334</ele>
        <time>1970-01-01T01:28:48.000Z</time>
      </trkpt>
      <trkpt lat="45.04194" lon="5.49344">
        <ele>1334.8</ele>
        <time>1970-01-01T01:28:51.000Z</time>
      </trkpt>
      <trkpt lat="45.04195" lon="5.49344">
        <ele>1335.2</ele>
        <time>1970-01-01T01:28:52.000Z</time>
      </trkpt>
      <trkpt lat="45.04196" lon="5.49343">
        <ele>1335.6</ele>
        <time>1970-01-01T01:28:53.000Z</time>
      </trkpt>
      <trkpt lat="45.04198" lon="5.49343">
        <ele>1336</ele>
        <time>1970-01-01T01:28:54.000Z</time>
      </trkpt>
      <trkpt lat="45.04199" lon="5.49343">
        <ele>1336</ele>
        <time>1970-01-01T01:28:55.000Z</time>
      </trkpt>
      <trkpt lat="45.04201" lon="5.49342">
        <ele>1336</ele>
        <time>1970-01-01T01:28:57.000Z</time>
      </trkpt>
      <trkpt lat="45.04208" lon="5.49343">
        <ele>1336.4</ele>
        <time>1970-01-01T01:29:02.000Z</time>
      </trkpt>
      <trkpt lat="45.0421" lon="5.49343">
        <ele>1336.8</ele>
        <time>1970-01-01T01:29:03.000Z</time>
      </trkpt>
      <trkpt lat="45.04211" lon="5.49342">
        <ele>1337.2</ele>
        <time>1970-01-01T01:29:04.000Z</time>
      </trkpt>
      <trkpt lat="45.04213" lon="5.49341">
        <ele>1337.6</ele>
        <time>1970-01-01T01:29:05.000Z</time>
      </trkpt>
      <trkpt lat="45.04214" lon="5.4934">
        <ele>1338</ele>
        <time>1970-01-01T01:29:06.000Z</time>
      </trkpt>
      <trkpt lat="45.04217" lon="5.49338">
        <ele>1338</ele>
        <time>1970-01-01T01:29:08.000Z</time>
      </trkpt>
      <trkpt lat="45.04229" lon="5.49336">
        <ele>1338</ele>
        <time>1970-01-01T01:29:15.000Z</time>
      </trkpt>
      <trkpt lat="45.04237" lon="5.49333">
        <ele>1338.4</ele>
        <time>1970-01-01T01:29:21.000Z</time>
      </trkpt>
      <trkpt lat="45.04239" lon="5.49333">
        <ele>1338.8</ele>
        <time>1970-01-01T01:29:22.000Z</time>
      </trkpt>
      <trkpt lat="45.04241" lon="5.49332">
        <ele>1339.2</ele>
        <time>1970-01-01T01:29:23.000Z</time>
      </trkpt>
      <trkpt lat="45.04244" lon="5.49333">
        <ele>1339.6</ele>
        <time>1970-01-01T01:29:24.000Z</time>
      </trkpt>
      <trkpt lat="45.04247" lon="5.49333">
        <ele>1340</ele>
        <time>1970-01-01T01:29:25.000Z</time>
      </trkpt>
      <trkpt lat="45.0425" lon="5.49333">
        <ele>1340</ele>
        <time>1970-01-01T01:29:26.000Z</time>
      </trkpt>
      <trkpt lat="45.0426" lon="5.49332">
        <ele>1340</ele>
        <time>1970-01-01T01:29:31.000Z</time>
      </trkpt>
      <trkpt lat="45.04266" lon="5.49332">
        <ele>1340</ele>
        <time>1970-01-01T01:29:35.000Z</time>
      </trkpt>
      <trkpt lat="45.04271" lon="5.49331">
        <ele>1340</ele>
        <time>1970-01-01T01:29:38.000Z</time>
      </trkpt>
      <trkpt lat="45.04285" lon="5.49333">
        <ele>1340</ele>
        <time>1970-01-01T01:29:44.000Z</time>
      </trkpt>
      <trkpt lat="45.043" lon="5.49332">
        <ele>1340</ele>
        <time>1970-01-01T01:29:50.000Z</time>
      </trkpt>
      <trkpt lat="45.04312" lon="5.49329">
        <ele>1340</ele>
        <time>1970-01-01T01:29:55.000Z</time>
      </trkpt>
      <trkpt lat="45.04314" lon="5.49328">
        <ele>1340.6</ele>
        <time>1970-01-01T01:29:56.000Z</time>
      </trkpt>
      <trkpt lat="45.04316" lon="5.49328">
        <ele>1341</ele>
        <time>1970-01-01T01:29:57.000Z</time>
      </trkpt>
      <trkpt lat="45.04318" lon="5.49328">
        <ele>1341.4</ele>
        <time>1970-01-01T01:29:58.000Z</time>
      </trkpt>
      <trkpt lat="45.0432" lon="5.49328">
        <ele>1341.8</ele>
        <time>1970-01-01T01:29:59.000Z</time>
      </trkpt>
      <trkpt lat="45.04321" lon="5.49329">
        <ele>1342.2</ele>
        <time>1970-01-01T01:30:00.000Z</time>
      </trkpt>
      <trkpt lat="45.04331" lon="5.49331">
        <ele>1342.2</ele>
        <time>1970-01-01T01:30:06.000Z</time>
      </trkpt>
      <trkpt lat="45.04333" lon="5.49331">
        <ele>1342.6</ele>
        <time>1970-01-01T01:30:07.000Z</time>
      </trkpt>
      <trkpt lat="45.04335" lon="5.49332">
        <ele>1343</ele>
        <time>1970-01-01T01:30:08.000Z</time>
      </trkpt>
      <trkpt lat="45.04336" lon="5.49332">
        <ele>1343.4</ele>
        <time>1970-01-01T01:30:09.000Z</time>
      </trkpt>
      <trkpt lat="45.04337" lon="5.49332">
        <ele>1343.8</ele>
        <time>1970-01-01T01:30:10.000Z</time>
      </trkpt>
      <trkpt lat="45.04339" lon="5.49333">
        <ele>1344.4</ele>
        <time>1970-01-01T01:30:11.000Z</time>
      </trkpt>
      <trkpt lat="45.04348" lon="5.49329">
        <ele>1344.4</ele>
        <time>1970-01-01T01:30:17.000Z</time>
      </trkpt>
      <trkpt lat="45.04353" lon="5.49326">
        <ele>1344.8</ele>
        <time>1970-01-01T01:30:22.000Z</time>
      </trkpt>
      <trkpt lat="45.04355" lon="5.49325">
        <ele>1345.2</ele>
        <time>1970-01-01T01:30:23.000Z</time>
      </trkpt>
      <trkpt lat="45.04356" lon="5.49325">
        <ele>1345.6</ele>
        <time>1970-01-01T01:30:24.000Z</time>
      </trkpt>
      <trkpt lat="45.04358" lon="5.49324">
        <ele>1346</ele>
        <time>1970-01-01T01:30:25.000Z</time>
      </trkpt>
      <trkpt lat="45.04361" lon="5.49324">
        <ele>1346.4</ele>
        <time>1970-01-01T01:30:26.000Z</time>
      </trkpt>
      <trkpt lat="45.04367" lon="5.49323">
        <ele>1346.4</ele>
        <time>1970-01-01T01:30:29.000Z</time>
      </trkpt>
      <trkpt lat="45.04369" lon="5.49323">
        <ele>1346.8</ele>
        <time>1970-01-01T01:30:30.000Z</time>
      </trkpt>
      <trkpt lat="45.04371" lon="5.49323">
        <ele>1347.2</ele>
        <time>1970-01-01T01:30:31.000Z</time>
      </trkpt>
      <trkpt lat="45.04373" lon="5.49322">
        <ele>1347.6</ele>
        <time>1970-01-01T01:30:32.000Z</time>
      </trkpt>
      <trkpt lat="45.04375" lon="5.49321">
        <ele>1348</ele>
        <time>1970-01-01T01:30:33.000Z</time>
      </trkpt>
      <trkpt lat="45.04376" lon="5.49319">
        <ele>1348.4</ele>
        <time>1970-01-01T01:30:34.000Z</time>
      </trkpt>
      <trkpt lat="45.04378" lon="5.49318">
        <ele>1348.4</ele>
        <time>1970-01-01T01:30:35.000Z</time>
      </trkpt>
      <trkpt lat="45.04388" lon="5.49311">
        <ele>1348.4</ele>
        <time>1970-01-01T01:30:41.000Z</time>
      </trkpt>
      <trkpt lat="45.04396" lon="5.49306">
        <ele>1348.4</ele>
        <time>1970-01-01T01:30:46.000Z</time>
      </trkpt>
      <trkpt lat="45.04398" lon="5.49307">
        <ele>1348.8</ele>
        <time>1970-01-01T01:30:47.000Z</time>
      </trkpt>
      <trkpt lat="45.04399" lon="5.49307">
        <ele>1349.2</ele>
        <time>1970-01-01T01:30:48.000Z</time>
      </trkpt>
      <trkpt lat="45.04401" lon="5.49307">
        <ele>1349.6</ele>
        <time>1970-01-01T01:30:49.000Z</time>
      </trkpt>
      <trkpt lat="45.04403" lon="5.49307">
        <ele>1350</ele>
        <time>1970-01-01T01:30:50.000Z</time>
      </trkpt>
      <trkpt lat="45.04404" lon="5.49306">
        <ele>1350.4</ele>
        <time>1970-01-01T01:30:51.000Z</time>
      </trkpt>
      <trkpt lat="45.04407" lon="5.49306">
        <ele>1350.4</ele>
        <time>1970-01-01T01:30:53.000Z</time>
      </trkpt>
      <trkpt lat="45.04413" lon="5.49304">
        <ele>1350.4</ele>
        <time>1970-01-01T01:30:57.000Z</time>
      </trkpt>
      <trkpt lat="45.04414" lon="5.49304">
        <ele>1350.8</ele>
        <time>1970-01-01T01:30:58.000Z</time>
      </trkpt>
      <trkpt lat="45.04416" lon="5.49303">
        <ele>1351.2</ele>
        <time>1970-01-01T01:30:59.000Z</time>
      </trkpt>
      <trkpt lat="45.04417" lon="5.49303">
        <ele>1351.6</ele>
        <time>1970-01-01T01:31:00.000Z</time>
      </trkpt>
      <trkpt lat="45.04419" lon="5.49303">
        <ele>1352.2</ele>
        <time>1970-01-01T01:31:01.000Z</time>
      </trkpt>
      <trkpt lat="45.04421" lon="5.49301">
        <ele>1352.6</ele>
        <time>1970-01-01T01:31:02.000Z</time>
      </trkpt>
      <trkpt lat="45.0443" lon="5.49297">
        <ele>1353</ele>
        <time>1970-01-01T01:31:08.000Z</time>
      </trkpt>
      <trkpt lat="45.04431" lon="5.49296">
        <ele>1353.4</ele>
        <time>1970-01-01T01:31:09.000Z</time>
      </trkpt>
      <trkpt lat="45.04432" lon="5.49296">
        <ele>1353.8</ele>
        <time>1970-01-01T01:31:10.000Z</time>
      </trkpt>
      <trkpt lat="45.04433" lon="5.49296">
        <ele>1354.2</ele>
        <time>1970-01-01T01:31:11.000Z</time>
      </trkpt>
      <trkpt lat="45.04434" lon="5.49296">
        <ele>1354.6</ele>
        <time>1970-01-01T01:31:12.000Z</time>
      </trkpt>
      <trkpt lat="45.04436" lon="5.49295">
        <ele>1354.6</ele>
        <time>1970-01-01T01:31:13.000Z</time>
      </trkpt>
      <trkpt lat="45.04442" lon="5.49291">
        <ele>1354.6</ele>
        <time>1970-01-01T01:31:17.000Z</time>
      </trkpt>
      <trkpt lat="45.0445" lon="5.49285">
        <ele>1355</ele>
        <time>1970-01-01T01:31:23.000Z</time>
      </trkpt>
      <trkpt lat="45.04451" lon="5.49284">
        <ele>1355.4</ele>
        <time>1970-01-01T01:31:24.000Z</time>
      </trkpt>
      <trkpt lat="45.04452" lon="5.49283">
        <ele>1355.8</ele>
        <time>1970-01-01T01:31:25.000Z</time>
      </trkpt>
      <trkpt lat="45.04453" lon="5.49283">
        <ele>1356.2</ele>
        <time>1970-01-01T01:31:26.000Z</time>
      </trkpt>
      <trkpt lat="45.04453" lon="5.49282">
        <ele>1356.6</ele>
        <time>1970-01-01T01:31:27.000Z</time>
      </trkpt>
      <trkpt lat="45.04457" lon="5.49279">
        <ele>1356.6</ele>
        <time>1970-01-01T01:31:31.000Z</time>
      </trkpt>
      <trkpt lat="45.0446" lon="5.49279">
        <ele>1357</ele>
        <time>1970-01-01T01:31:33.000Z</time>
      </trkpt>
      <trkpt lat="45.04461" lon="5.49278">
        <ele>1357.6</ele>
        <time>1970-01-01T01:31:34.000Z</time>
      </trkpt>
      <trkpt lat="45.04462" lon="5.49277">
        <ele>1358</ele>
        <time>1970-01-01T01:31:35.000Z</time>
      </trkpt>
      <trkpt lat="45.04463" lon="5.49276">
        <ele>1358.4</ele>
        <time>1970-01-01T01:31:36.000Z</time>
      </trkpt>
      <trkpt lat="45.04464" lon="5.49275">
        <ele>1358.8</ele>
        <time>1970-01-01T01:31:37.000Z</time>
      </trkpt>
      <trkpt lat="45.04465" lon="5.49274">
        <ele>1358.8</ele>
        <time>1970-01-01T01:31:38.000Z</time>
      </trkpt>
      <trkpt lat="45.04472" lon="5.49273">
        <ele>1359.2</ele>
        <time>1970-01-01T01:31:43.000Z</time>
      </trkpt>
      <trkpt lat="45.04473" lon="5.49272">
        <ele>1359.6</ele>
        <time>1970-01-01T01:31:44.000Z</time>
      </trkpt>
      <trkpt lat="45.04474" lon="5.49271">
        <ele>1360.6</ele>
        <time>1970-01-01T01:31:45.000Z</time>
      </trkpt>
      <trkpt lat="45.04475" lon="5.4927">
        <ele>1361</ele>
        <time>1970-01-01T01:31:46.000Z</time>
      </trkpt>
      <trkpt lat="45.0448" lon="5.49267">
        <ele>1361</ele>
        <time>1970-01-01T01:31:50.000Z</time>
      </trkpt>
      <trkpt lat="45.04483" lon="5.49265">
        <ele>1361</ele>
        <time>1970-01-01T01:31:52.000Z</time>
      </trkpt>
      <trkpt lat="45.04488" lon="5.49261">
        <ele>1361</ele>
        <time>1970-01-01T01:31:57.000Z</time>
      </trkpt>
      <trkpt lat="45.04489" lon="5.4926">
        <ele>1361.4</ele>
        <time>1970-01-01T01:31:58.000Z</time>
      </trkpt>
      <trkpt lat="45.0449" lon="5.49258">
        <ele>1361.8</ele>
        <time>1970-01-01T01:31:59.000Z</time>
      </trkpt>
      <trkpt lat="45.0449" lon="5.49256">
        <ele>1362.2</ele>
        <time>1970-01-01T01:32:00.000Z</time>
      </trkpt>
      <trkpt lat="45.04491" lon="5.49255">
        <ele>1362.6</ele>
        <time>1970-01-01T01:32:01.000Z</time>
      </trkpt>
      <trkpt lat="45.04492" lon="5.49253">
        <ele>1363.2</ele>
        <time>1970-01-01T01:32:02.000Z</time>
      </trkpt>
      <trkpt lat="45.04492" lon="5.4925">
        <ele>1363.2</ele>
        <time>1970-01-01T01:32:03.000Z</time>
      </trkpt>
      <trkpt lat="45.04494" lon="5.49248">
        <ele>1363.2</ele>
        <time>1970-01-01T01:32:05.000Z</time>
      </trkpt>
      <trkpt lat="45.04499" lon="5.49245">
        <ele>1364</ele>
        <time>1970-01-01T01:32:09.000Z</time>
      </trkpt>
      <trkpt lat="45.045" lon="5.49244">
        <ele>1364.4</ele>
        <time>1970-01-01T01:32:10.000Z</time>
      </trkpt>
      <trkpt lat="45.04501" lon="5.49243">
        <ele>1364.8</ele>
        <time>1970-01-01T01:32:11.000Z</time>
      </trkpt>
      <trkpt lat="45.04501" lon="5.49242">
        <ele>1365.2</ele>
        <time>1970-01-01T01:32:12.000Z</time>
      </trkpt>
      <trkpt lat="45.04506" lon="5.49236">
        <ele>1365.2</ele>
        <time>1970-01-01T01:32:16.000Z</time>
      </trkpt>
      <trkpt lat="45.04511" lon="5.49224">
        <ele>1365.2</ele>
        <time>1970-01-01T01:32:23.000Z</time>
      </trkpt>
      <trkpt lat="45.04513" lon="5.49219">
        <ele>1365.2</ele>
        <time>1970-01-01T01:32:27.000Z</time>
      </trkpt>
      <trkpt lat="45.04514" lon="5.49215">
        <ele>1365.2</ele>
        <time>1970-01-01T01:32:29.000Z</time>
      </trkpt>
      <trkpt lat="45.04515" lon="5.49213">
        <ele>1365.6</ele>
        <time>1970-01-01T01:32:31.000Z</time>
      </trkpt>
      <trkpt lat="45.04515" lon="5.49212">
        <ele>1366</ele>
        <time>1970-01-01T01:32:32.000Z</time>
      </trkpt>
      <trkpt lat="45.04517" lon="5.49211">
        <ele>1366.4</ele>
        <time>1970-01-01T01:32:33.000Z</time>
      </trkpt>
      <trkpt lat="45.04519" lon="5.49211">
        <ele>1367.4</ele>
        <time>1970-01-01T01:32:34.000Z</time>
      </trkpt>
      <trkpt lat="45.04522" lon="5.4921">
        <ele>1367.4</ele>
        <time>1970-01-01T01:32:36.000Z</time>
      </trkpt>
      <trkpt lat="45.04526" lon="5.49207">
        <ele>1367.8</ele>
        <time>1970-01-01T01:32:40.000Z</time>
      </trkpt>
      <trkpt lat="45.04527" lon="5.49205">
        <ele>1368.2</ele>
        <time>1970-01-01T01:32:41.000Z</time>
      </trkpt>
      <trkpt lat="45.04527" lon="5.49203">
        <ele>1368.6</ele>
        <time>1970-01-01T01:32:42.000Z</time>
      </trkpt>
      <trkpt lat="45.04527" lon="5.492">
        <ele>1369</ele>
        <time>1970-01-01T01:32:43.000Z</time>
      </trkpt>
      <trkpt lat="45.04527" lon="5.49197">
        <ele>1369.4</ele>
        <time>1970-01-01T01:32:44.000Z</time>
      </trkpt>
      <trkpt lat="45.04527" lon="5.49195">
        <ele>1369.4</ele>
        <time>1970-01-01T01:32:45.000Z</time>
      </trkpt>
      <trkpt lat="45.04527" lon="5.4919">
        <ele>1369.4</ele>
        <time>1970-01-01T01:32:49.000Z</time>
      </trkpt>
      <trkpt lat="45.04529" lon="5.49187">
        <ele>1369.8</ele>
        <time>1970-01-01T01:33:04.000Z</time>
      </trkpt>
      <trkpt lat="45.04529" lon="5.49185">
        <ele>1370.2</ele>
        <time>1970-01-01T01:33:05.000Z</time>
      </trkpt>
      <trkpt lat="45.0453" lon="5.49182">
        <ele>1370.6</ele>
        <time>1970-01-01T01:33:06.000Z</time>
      </trkpt>
      <trkpt lat="45.04529" lon="5.4918">
        <ele>1371</ele>
        <time>1970-01-01T01:33:07.000Z</time>
      </trkpt>
      <trkpt lat="45.04529" lon="5.49177">
        <ele>1371.4</ele>
        <time>1970-01-01T01:33:08.000Z</time>
      </trkpt>
      <trkpt lat="45.04529" lon="5.49175">
        <ele>1371.4</ele>
        <time>1970-01-01T01:33:09.000Z</time>
      </trkpt>
      <trkpt lat="45.04529" lon="5.49161">
        <ele>1371.8</ele>
        <time>1970-01-01T01:33:15.000Z</time>
      </trkpt>
      <trkpt lat="45.0453" lon="5.49159">
        <ele>1372.2</ele>
        <time>1970-01-01T01:33:16.000Z</time>
      </trkpt>
      <trkpt lat="45.04531" lon="5.49157">
        <ele>1372.6</ele>
        <time>1970-01-01T01:33:17.000Z</time>
      </trkpt>
      <trkpt lat="45.04532" lon="5.49155">
        <ele>1373</ele>
        <time>1970-01-01T01:33:18.000Z</time>
      </trkpt>
      <trkpt lat="45.04533" lon="5.49153">
        <ele>1373.4</ele>
        <time>1970-01-01T01:33:19.000Z</time>
      </trkpt>
      <trkpt lat="45.04533" lon="5.49151">
        <ele>1373.4</ele>
        <time>1970-01-01T01:33:20.000Z</time>
      </trkpt>
      <trkpt lat="45.04534" lon="5.4915">
        <ele>1373.4</ele>
        <time>1970-01-01T01:33:21.000Z</time>
      </trkpt>
      <trkpt lat="45.04535" lon="5.49148">
        <ele>1374</ele>
        <time>1970-01-01T01:33:22.000Z</time>
      </trkpt>
      <trkpt lat="45.04536" lon="5.49146">
        <ele>1374.8</ele>
        <time>1970-01-01T01:33:23.000Z</time>
      </trkpt>
      <trkpt lat="45.04535" lon="5.49145">
        <ele>1375.2</ele>
        <time>1970-01-01T01:33:24.000Z</time>
      </trkpt>
      <trkpt lat="45.04536" lon="5.49141">
        <ele>1377.8</ele>
        <time>1970-01-01T01:33:46.000Z</time>
      </trkpt>
      <trkpt lat="45.04537" lon="5.49141">
        <ele>1377.8</ele>
        <time>1970-01-01T01:33:47.000Z</time>
      </trkpt>
      <trkpt lat="45.04536" lon="5.49137">
        <ele>1377.8</ele>
        <time>1970-01-01T01:33:52.000Z</time>
      </trkpt>
      <trkpt lat="45.04535" lon="5.4913">
        <ele>1378.4</ele>
        <time>1970-01-01T01:33:57.000Z</time>
      </trkpt>
      <trkpt lat="45.04535" lon="5.49128">
        <ele>1380</ele>
        <time>1970-01-01T01:34:02.000Z</time>
      </trkpt>
      <trkpt lat="45.04535" lon="5.49124">
        <ele>1380</ele>
        <time>1970-01-01T01:34:06.000Z</time>
      </trkpt>
      <trkpt lat="45.04535" lon="5.49122">
        <ele>1380</ele>
        <time>1970-01-01T01:34:08.000Z</time>
      </trkpt>
      <trkpt lat="45.04535" lon="5.49116">
        <ele>1380</ele>
        <time>1970-01-01T01:34:12.000Z</time>
      </trkpt>
      <trkpt lat="45.04535" lon="5.49106">
        <ele>1380</ele>
        <time>1970-01-01T01:34:19.000Z</time>
      </trkpt>
      <trkpt lat="45.04536" lon="5.49103">
        <ele>1380.6</ele>
        <time>1970-01-01T01:34:20.000Z</time>
      </trkpt>
      <trkpt lat="45.04536" lon="5.491">
        <ele>1381</ele>
        <time>1970-01-01T01:34:21.000Z</time>
      </trkpt>
      <trkpt lat="45.04536" lon="5.49097">
        <ele>1381.4</ele>
        <time>1970-01-01T01:34:22.000Z</time>
      </trkpt>
      <trkpt lat="45.04537" lon="5.49095">
        <ele>1381.8</ele>
        <time>1970-01-01T01:34:23.000Z</time>
      </trkpt>
      <trkpt lat="45.04538" lon="5.49092">
        <ele>1382.2</ele>
        <time>1970-01-01T01:34:24.000Z</time>
      </trkpt>
      <trkpt lat="45.04538" lon="5.4909">
        <ele>1382.2</ele>
        <time>1970-01-01T01:34:25.000Z</time>
      </trkpt>
      <trkpt lat="45.04541" lon="5.49082">
        <ele>1382.6</ele>
        <time>1970-01-01T01:34:28.000Z</time>
      </trkpt>
      <trkpt lat="45.04541" lon="5.4908">
        <ele>1383</ele>
        <time>1970-01-01T01:34:29.000Z</time>
      </trkpt>
      <trkpt lat="45.04542" lon="5.49078">
        <ele>1383.4</ele>
        <time>1970-01-01T01:34:30.000Z</time>
      </trkpt>
      <trkpt lat="45.04543" lon="5.49076">
        <ele>1384</ele>
        <time>1970-01-01T01:34:31.000Z</time>
      </trkpt>
      <trkpt lat="45.04544" lon="5.49075">
        <ele>1384.4</ele>
        <time>1970-01-01T01:34:32.000Z</time>
      </trkpt>
      <trkpt lat="45.04545" lon="5.49071">
        <ele>1384.4</ele>
        <time>1970-01-01T01:34:34.000Z</time>
      </trkpt>
      <trkpt lat="45.04547" lon="5.49067">
        <ele>1384.4</ele>
        <time>1970-01-01T01:34:37.000Z</time>
      </trkpt>
      <trkpt lat="45.04552" lon="5.4906">
        <ele>1384.4</ele>
        <time>1970-01-01T01:34:43.000Z</time>
      </trkpt>
      <trkpt lat="45.04556" lon="5.49055">
        <ele>1384.8</ele>
        <time>1970-01-01T01:34:48.000Z</time>
      </trkpt>
      <trkpt lat="45.04557" lon="5.49054">
        <ele>1385.2</ele>
        <time>1970-01-01T01:34:49.000Z</time>
      </trkpt>
      <trkpt lat="45.04558" lon="5.49054">
        <ele>1385.6</ele>
        <time>1970-01-01T01:34:50.000Z</time>
      </trkpt>
      <trkpt lat="45.04558" lon="5.49053">
        <ele>1386</ele>
        <time>1970-01-01T01:34:51.000Z</time>
      </trkpt>
      <trkpt lat="45.04559" lon="5.49052">
        <ele>1386.4</ele>
        <time>1970-01-01T01:34:52.000Z</time>
      </trkpt>
      <trkpt lat="45.04561" lon="5.4905">
        <ele>1386.4</ele>
        <time>1970-01-01T01:34:54.000Z</time>
      </trkpt>
      <trkpt lat="45.0457" lon="5.49045">
        <ele>1386.8</ele>
        <time>1970-01-01T01:35:01.000Z</time>
      </trkpt>
      <trkpt lat="45.04571" lon="5.49044">
        <ele>1387.6</ele>
        <time>1970-01-01T01:35:02.000Z</time>
      </trkpt>
      <trkpt lat="45.04572" lon="5.49044">
        <ele>1388</ele>
        <time>1970-01-01T01:35:03.000Z</time>
      </trkpt>
      <trkpt lat="45.04574" lon="5.49043">
        <ele>1388.4</ele>
        <time>1970-01-01T01:35:04.000Z</time>
      </trkpt>
      <trkpt lat="45.04578" lon="5.49042">
        <ele>1388.4</ele>
        <time>1970-01-01T01:35:07.000Z</time>
      </trkpt>
      <trkpt lat="45.04587" lon="5.49034">
        <ele>1388.8</ele>
        <time>1970-01-01T01:35:15.000Z</time>
      </trkpt>
      <trkpt lat="45.04588" lon="5.49034">
        <ele>1389.2</ele>
        <time>1970-01-01T01:35:16.000Z</time>
      </trkpt>
      <trkpt lat="45.04589" lon="5.49033">
        <ele>1389.8</ele>
        <time>1970-01-01T01:35:17.000Z</time>
      </trkpt>
      <trkpt lat="45.04591" lon="5.49033">
        <ele>1390.2</ele>
        <time>1970-01-01T01:35:18.000Z</time>
      </trkpt>
      <trkpt lat="45.04592" lon="5.49033">
        <ele>1390.6</ele>
        <time>1970-01-01T01:35:19.000Z</time>
      </trkpt>
      <trkpt lat="45.04593" lon="5.49032">
        <ele>1390.6</ele>
        <time>1970-01-01T01:35:20.000Z</time>
      </trkpt>
      <trkpt lat="45.04594" lon="5.49031">
        <ele>1390.6</ele>
        <time>1970-01-01T01:35:21.000Z</time>
      </trkpt>
      <trkpt lat="45.04597" lon="5.49028">
        <ele>1391</ele>
        <time>1970-01-01T01:35:24.000Z</time>
      </trkpt>
      <trkpt lat="45.04598" lon="5.49027">
        <ele>1391.4</ele>
        <time>1970-01-01T01:35:25.000Z</time>
      </trkpt>
      <trkpt lat="45.046" lon="5.49026">
        <ele>1391.8</ele>
        <time>1970-01-01T01:35:26.000Z</time>
      </trkpt>
      <trkpt lat="45.04601" lon="5.49025">
        <ele>1392.8</ele>
        <time>1970-01-01T01:35:27.000Z</time>
      </trkpt>
      <trkpt lat="45.04605" lon="5.49025">
        <ele>1392.8</ele>
        <time>1970-01-01T01:35:32.000Z</time>
      </trkpt>
      <trkpt lat="45.04608" lon="5.49025">
        <ele>1392.8</ele>
        <time>1970-01-01T01:35:34.000Z</time>
      </trkpt>
      <trkpt lat="45.04609" lon="5.49025">
        <ele>1393.2</ele>
        <time>1970-01-01T01:35:35.000Z</time>
      </trkpt>
      <trkpt lat="45.0461" lon="5.49026">
        <ele>1393.6</ele>
        <time>1970-01-01T01:35:36.000Z</time>
      </trkpt>
      <trkpt lat="45.04611" lon="5.49026">
        <ele>1394</ele>
        <time>1970-01-01T01:35:37.000Z</time>
      </trkpt>
      <trkpt lat="45.04612" lon="5.49026">
        <ele>1394.4</ele>
        <time>1970-01-01T01:35:38.000Z</time>
      </trkpt>
      <trkpt lat="45.04613" lon="5.49026">
        <ele>1394.8</ele>
        <time>1970-01-01T01:35:39.000Z</time>
      </trkpt>
      <trkpt lat="45.04619" lon="5.49024">
        <ele>1394.8</ele>
        <time>1970-01-01T01:35:45.000Z</time>
      </trkpt>
      <trkpt lat="45.0462" lon="5.49024">
        <ele>1395.2</ele>
        <time>1970-01-01T01:35:46.000Z</time>
      </trkpt>
      <trkpt lat="45.04621" lon="5.49023">
        <ele>1395.6</ele>
        <time>1970-01-01T01:35:47.000Z</time>
      </trkpt>
      <trkpt lat="45.04621" lon="5.49022">
        <ele>1396</ele>
        <time>1970-01-01T01:35:48.000Z</time>
      </trkpt>
      <trkpt lat="45.04622" lon="5.49022">
        <ele>1396.6</ele>
        <time>1970-01-01T01:35:49.000Z</time>
      </trkpt>
      <trkpt lat="45.04623" lon="5.49022">
        <ele>1397</ele>
        <time>1970-01-01T01:35:50.000Z</time>
      </trkpt>
      <trkpt lat="45.04626" lon="5.49023">
        <ele>1397</ele>
        <time>1970-01-01T01:35:53.000Z</time>
      </trkpt>
      <trkpt lat="45.0463" lon="5.49024">
        <ele>1397.4</ele>
        <time>1970-01-01T01:35:55.000Z</time>
      </trkpt>
      <trkpt lat="45.04631" lon="5.49025">
        <ele>1397.8</ele>
        <time>1970-01-01T01:35:56.000Z</time>
      </trkpt>
      <trkpt lat="45.04632" lon="5.49025">
        <ele>1398.2</ele>
        <time>1970-01-01T01:35:57.000Z</time>
      </trkpt>
      <trkpt lat="45.04633" lon="5.49025">
        <ele>1398.6</ele>
        <time>1970-01-01T01:35:58.000Z</time>
      </trkpt>
      <trkpt lat="45.04634" lon="5.49025">
        <ele>1399</ele>
        <time>1970-01-01T01:35:59.000Z</time>
      </trkpt>
      <trkpt lat="45.04635" lon="5.49024">
        <ele>1399</ele>
        <time>1970-01-01T01:36:00.000Z</time>
      </trkpt>
      <trkpt lat="45.04642" lon="5.49022">
        <ele>1399</ele>
        <time>1970-01-01T01:36:05.000Z</time>
      </trkpt>
      <trkpt lat="45.04643" lon="5.49021">
        <ele>1399</ele>
        <time>1970-01-01T01:36:06.000Z</time>
      </trkpt>
      <trkpt lat="45.04644" lon="5.49021">
        <ele>1399.4</ele>
        <time>1970-01-01T01:36:07.000Z</time>
      </trkpt>
      <trkpt lat="45.04645" lon="5.4902">
        <ele>1399.8</ele>
        <time>1970-01-01T01:36:08.000Z</time>
      </trkpt>
      <trkpt lat="45.04646" lon="5.4902">
        <ele>1400.2</ele>
        <time>1970-01-01T01:36:09.000Z</time>
      </trkpt>
      <trkpt lat="45.04646" lon="5.49019">
        <ele>1401</ele>
        <time>1970-01-01T01:36:11.000Z</time>
      </trkpt>
      <trkpt lat="45.04651" lon="5.49016">
        <ele>1401.4</ele>
        <time>1970-01-01T01:36:16.000Z</time>
      </trkpt>
      <trkpt lat="45.04652" lon="5.49016">
        <ele>1401.8</ele>
        <time>1970-01-01T01:36:17.000Z</time>
      </trkpt>
      <trkpt lat="45.04653" lon="5.49016">
        <ele>1402.2</ele>
        <time>1970-01-01T01:36:18.000Z</time>
      </trkpt>
      <trkpt lat="45.04654" lon="5.49015">
        <ele>1402.6</ele>
        <time>1970-01-01T01:36:19.000Z</time>
      </trkpt>
      <trkpt lat="45.04655" lon="5.49015">
        <ele>1403.2</ele>
        <time>1970-01-01T01:36:20.000Z</time>
      </trkpt>
      <trkpt lat="45.0466" lon="5.49014">
        <ele>1403.2</ele>
        <time>1970-01-01T01:36:23.000Z</time>
      </trkpt>
      <trkpt lat="45.04663" lon="5.49012">
        <ele>1403.6</ele>
        <time>1970-01-01T01:36:26.000Z</time>
      </trkpt>
      <trkpt lat="45.04664" lon="5.49012">
        <ele>1404</ele>
        <time>1970-01-01T01:36:27.000Z</time>
      </trkpt>
      <trkpt lat="45.04665" lon="5.49011">
        <ele>1404.4</ele>
        <time>1970-01-01T01:36:28.000Z</time>
      </trkpt>
      <trkpt lat="45.04666" lon="5.4901">
        <ele>1404.8</ele>
        <time>1970-01-01T01:36:29.000Z</time>
      </trkpt>
      <trkpt lat="45.04667" lon="5.49009">
        <ele>1405.4</ele>
        <time>1970-01-01T01:36:30.000Z</time>
      </trkpt>
      <trkpt lat="45.04672" lon="5.49003">
        <ele>1405.8</ele>
        <time>1970-01-01T01:36:36.000Z</time>
      </trkpt>
      <trkpt lat="45.04673" lon="5.49003">
        <ele>1406.2</ele>
        <time>1970-01-01T01:36:37.000Z</time>
      </trkpt>
      <trkpt lat="45.04674" lon="5.49003">
        <ele>1406.6</ele>
        <time>1970-01-01T01:36:38.000Z</time>
      </trkpt>
      <trkpt lat="45.04675" lon="5.49002">
        <ele>1407</ele>
        <time>1970-01-01T01:36:39.000Z</time>
      </trkpt>
      <trkpt lat="45.04676" lon="5.49002">
        <ele>1407.4</ele>
        <time>1970-01-01T01:36:40.000Z</time>
      </trkpt>
      <trkpt lat="45.04679" lon="5.49002">
        <ele>1407.4</ele>
        <time>1970-01-01T01:36:42.000Z</time>
      </trkpt>
      <trkpt lat="45.0468" lon="5.49002">
        <ele>1407.4</ele>
        <time>1970-01-01T01:36:43.000Z</time>
      </trkpt>
      <trkpt lat="45.04683" lon="5.49">
        <ele>1407.4</ele>
        <time>1970-01-01T01:36:46.000Z</time>
      </trkpt>
      <trkpt lat="45.04685" lon="5.48998">
        <ele>1407.4</ele>
        <time>1970-01-01T01:36:48.000Z</time>
      </trkpt>
      <trkpt lat="45.04688" lon="5.48997">
        <ele>1407.8</ele>
        <time>1970-01-01T01:36:50.000Z</time>
      </trkpt>
      <trkpt lat="45.04688" lon="5.48995">
        <ele>1408.2</ele>
        <time>1970-01-01T01:36:51.000Z</time>
      </trkpt>
      <trkpt lat="45.04689" lon="5.48994">
        <ele>1408.6</ele>
        <time>1970-01-01T01:36:52.000Z</time>
      </trkpt>
      <trkpt lat="45.0469" lon="5.48992">
        <ele>1409</ele>
        <time>1970-01-01T01:36:53.000Z</time>
      </trkpt>
      <trkpt lat="45.04692" lon="5.48991">
        <ele>1409.4</ele>
        <time>1970-01-01T01:36:54.000Z</time>
      </trkpt>
      <trkpt lat="45.04692" lon="5.48989">
        <ele>1409.4</ele>
        <time>1970-01-01T01:36:55.000Z</time>
      </trkpt>
      <trkpt lat="45.04695" lon="5.48983">
        <ele>1409.4</ele>
        <time>1970-01-01T01:36:59.000Z</time>
      </trkpt>
      <trkpt lat="45.04696" lon="5.48977">
        <ele>1409.8</ele>
        <time>1970-01-01T01:37:03.000Z</time>
      </trkpt>
      <trkpt lat="45.04697" lon="5.48976">
        <ele>1410.2</ele>
        <time>1970-01-01T01:37:04.000Z</time>
      </trkpt>
      <trkpt lat="45.04698" lon="5.48974">
        <ele>1410.6</ele>
        <time>1970-01-01T01:37:05.000Z</time>
      </trkpt>
      <trkpt lat="45.04699" lon="5.48973">
        <ele>1411.4</ele>
        <time>1970-01-01T01:37:06.000Z</time>
      </trkpt>
      <trkpt lat="45.04704" lon="5.48968">
        <ele>1411.4</ele>
        <time>1970-01-01T01:37:10.000Z</time>
      </trkpt>
      <trkpt lat="45.04708" lon="5.48962">
        <ele>1412</ele>
        <time>1970-01-01T01:37:14.000Z</time>
      </trkpt>
      <trkpt lat="45.04709" lon="5.48961">
        <ele>1412.4</ele>
        <time>1970-01-01T01:37:15.000Z</time>
      </trkpt>
      <trkpt lat="45.04711" lon="5.4896">
        <ele>1412.8</ele>
        <time>1970-01-01T01:37:16.000Z</time>
      </trkpt>
      <trkpt lat="45.04712" lon="5.48959">
        <ele>1413.2</ele>
        <time>1970-01-01T01:37:17.000Z</time>
      </trkpt>
      <trkpt lat="45.04714" lon="5.48958">
        <ele>1413.6</ele>
        <time>1970-01-01T01:37:18.000Z</time>
      </trkpt>
      <trkpt lat="45.04718" lon="5.48953">
        <ele>1413.6</ele>
        <time>1970-01-01T01:37:22.000Z</time>
      </trkpt>
      <trkpt lat="45.04724" lon="5.48944">
        <ele>1413.6</ele>
        <time>1970-01-01T01:37:27.000Z</time>
      </trkpt>
      <trkpt lat="45.04725" lon="5.48942">
        <ele>1414</ele>
        <time>1970-01-01T01:37:28.000Z</time>
      </trkpt>
      <trkpt lat="45.04726" lon="5.48941">
        <ele>1414.4</ele>
        <time>1970-01-01T01:37:29.000Z</time>
      </trkpt>
      <trkpt lat="45.04728" lon="5.4894">
        <ele>1414.8</ele>
        <time>1970-01-01T01:37:30.000Z</time>
      </trkpt>
      <trkpt lat="45.0473" lon="5.48938">
        <ele>1415.6</ele>
        <time>1970-01-01T01:37:31.000Z</time>
      </trkpt>
      <trkpt lat="45.04735" lon="5.48933">
        <ele>1415.6</ele>
        <time>1970-01-01T01:37:35.000Z</time>
      </trkpt>
      <trkpt lat="45.04743" lon="5.48926">
        <ele>1416</ele>
        <time>1970-01-01T01:37:40.000Z</time>
      </trkpt>
      <trkpt lat="45.04744" lon="5.48925">
        <ele>1416.4</ele>
        <time>1970-01-01T01:37:41.000Z</time>
      </trkpt>
      <trkpt lat="45.04746" lon="5.48924">
        <ele>1416.8</ele>
        <time>1970-01-01T01:37:42.000Z</time>
      </trkpt>
      <trkpt lat="45.04747" lon="5.48922">
        <ele>1417.2</ele>
        <time>1970-01-01T01:37:43.000Z</time>
      </trkpt>
      <trkpt lat="45.04749" lon="5.4892">
        <ele>1417.8</ele>
        <time>1970-01-01T01:37:44.000Z</time>
      </trkpt>
      <trkpt lat="45.0475" lon="5.48918">
        <ele>1417.8</ele>
        <time>1970-01-01T01:37:45.000Z</time>
      </trkpt>
      <trkpt lat="45.04758" lon="5.48911">
        <ele>1417.8</ele>
        <time>1970-01-01T01:37:51.000Z</time>
      </trkpt>
      <trkpt lat="45.04762" lon="5.48907">
        <ele>1418.2</ele>
        <time>1970-01-01T01:37:54.000Z</time>
      </trkpt>
      <trkpt lat="45.04763" lon="5.48906">
        <ele>1419</ele>
        <time>1970-01-01T01:37:55.000Z</time>
      </trkpt>
      <trkpt lat="45.04764" lon="5.48905">
        <ele>1419.4</ele>
        <time>1970-01-01T01:37:56.000Z</time>
      </trkpt>
      <trkpt lat="45.04765" lon="5.48904">
        <ele>1419.8</ele>
        <time>1970-01-01T01:37:57.000Z</time>
      </trkpt>
      <trkpt lat="45.04773" lon="5.48895">
        <ele>1420.2</ele>
        <time>1970-01-01T01:38:04.000Z</time>
      </trkpt>
      <trkpt lat="45.04774" lon="5.48893">
        <ele>1420.6</ele>
        <time>1970-01-01T01:38:05.000Z</time>
      </trkpt>
      <trkpt lat="45.04776" lon="5.48892">
        <ele>1421.2</ele>
        <time>1970-01-01T01:38:06.000Z</time>
      </trkpt>
      <trkpt lat="45.04777" lon="5.48891">
        <ele>1421.6</ele>
        <time>1970-01-01T01:38:07.000Z</time>
      </trkpt>
      <trkpt lat="45.04778" lon="5.48889">
        <ele>1422</ele>
        <time>1970-01-01T01:38:08.000Z</time>
      </trkpt>
      <trkpt lat="45.04778" lon="5.48888">
        <ele>1422</ele>
        <time>1970-01-01T01:38:09.000Z</time>
      </trkpt>
      <trkpt lat="45.0478" lon="5.48884">
        <ele>1422</ele>
        <time>1970-01-01T01:38:11.000Z</time>
      </trkpt>
      <trkpt lat="45.04783" lon="5.48881">
        <ele>1422</ele>
        <time>1970-01-01T01:38:13.000Z</time>
      </trkpt>
      <trkpt lat="45.04787" lon="5.48876">
        <ele>1422.4</ele>
        <time>1970-01-01T01:38:16.000Z</time>
      </trkpt>
      <trkpt lat="45.04788" lon="5.48875">
        <ele>1422.8</ele>
        <time>1970-01-01T01:38:17.000Z</time>
      </trkpt>
      <trkpt lat="45.0479" lon="5.48874">
        <ele>1423.2</ele>
        <time>1970-01-01T01:38:18.000Z</time>
      </trkpt>
      <trkpt lat="45.04791" lon="5.48872">
        <ele>1423.6</ele>
        <time>1970-01-01T01:38:19.000Z</time>
      </trkpt>
      <trkpt lat="45.04793" lon="5.48871">
        <ele>1424</ele>
        <time>1970-01-01T01:38:20.000Z</time>
      </trkpt>
      <trkpt lat="45.04795" lon="5.48867">
        <ele>1424</ele>
        <time>1970-01-01T01:38:22.000Z</time>
      </trkpt>
      <trkpt lat="45.048" lon="5.48862">
        <ele>1424.4</ele>
        <time>1970-01-01T01:38:26.000Z</time>
      </trkpt>
      <trkpt lat="45.04802" lon="5.4886">
        <ele>1425</ele>
        <time>1970-01-01T01:38:27.000Z</time>
      </trkpt>
      <trkpt lat="45.04803" lon="5.48859">
        <ele>1425.4</ele>
        <time>1970-01-01T01:38:28.000Z</time>
      </trkpt>
      <trkpt lat="45.04805" lon="5.48858">
        <ele>1425.8</ele>
        <time>1970-01-01T01:38:29.000Z</time>
      </trkpt>
      <trkpt lat="45.04806" lon="5.48856">
        <ele>1426.2</ele>
        <time>1970-01-01T01:38:30.000Z</time>
      </trkpt>
      <trkpt lat="45.0481" lon="5.48851">
        <ele>1426.2</ele>
        <time>1970-01-01T01:38:33.000Z</time>
      </trkpt>
      <trkpt lat="45.04812" lon="5.48848">
        <ele>1426.2</ele>
        <time>1970-01-01T01:38:35.000Z</time>
      </trkpt>
      <trkpt lat="45.04816" lon="5.48843">
        <ele>1426.2</ele>
        <time>1970-01-01T01:38:38.000Z</time>
      </trkpt>
      <trkpt lat="45.04817" lon="5.48842">
        <ele>1426.6</ele>
        <time>1970-01-01T01:38:39.000Z</time>
      </trkpt>
      <trkpt lat="45.04818" lon="5.48841">
        <ele>1427</ele>
        <time>1970-01-01T01:38:40.000Z</time>
      </trkpt>
      <trkpt lat="45.04819" lon="5.48839">
        <ele>1427.4</ele>
        <time>1970-01-01T01:38:41.000Z</time>
      </trkpt>
      <trkpt lat="45.0482" lon="5.48838">
        <ele>1428</ele>
        <time>1970-01-01T01:38:42.000Z</time>
      </trkpt>
      <trkpt lat="45.04822" lon="5.48836">
        <ele>1428.4</ele>
        <time>1970-01-01T01:38:43.000Z</time>
      </trkpt>
      <trkpt lat="45.04824" lon="5.48832">
        <ele>1428.4</ele>
        <time>1970-01-01T01:38:46.000Z</time>
      </trkpt>
      <trkpt lat="45.04827" lon="5.4883">
        <ele>1428.8</ele>
        <time>1970-01-01T01:38:48.000Z</time>
      </trkpt>
      <trkpt lat="45.04828" lon="5.48829">
        <ele>1429.2</ele>
        <time>1970-01-01T01:38:49.000Z</time>
      </trkpt>
      <trkpt lat="45.04829" lon="5.48827">
        <ele>1429.6</ele>
        <time>1970-01-01T01:38:50.000Z</time>
      </trkpt>
      <trkpt lat="45.0483" lon="5.48825">
        <ele>1430</ele>
        <time>1970-01-01T01:38:51.000Z</time>
      </trkpt>
      <trkpt lat="45.04831" lon="5.48823">
        <ele>1430.4</ele>
        <time>1970-01-01T01:38:52.000Z</time>
      </trkpt>
      <trkpt lat="45.04837" lon="5.48817">
        <ele>1430.4</ele>
        <time>1970-01-01T01:38:56.000Z</time>
      </trkpt>
      <trkpt lat="45.04839" lon="5.48814">
        <ele>1430.8</ele>
        <time>1970-01-01T01:38:58.000Z</time>
      </trkpt>
      <trkpt lat="45.0484" lon="5.48812">
        <ele>1431.2</ele>
        <time>1970-01-01T01:38:59.000Z</time>
      </trkpt>
      <trkpt lat="45.04841" lon="5.48811">
        <ele>1431.6</ele>
        <time>1970-01-01T01:39:00.000Z</time>
      </trkpt>
      <trkpt lat="45.04843" lon="5.4881">
        <ele>1432.2</ele>
        <time>1970-01-01T01:39:01.000Z</time>
      </trkpt>
      <trkpt lat="45.04844" lon="5.48809">
        <ele>1432.6</ele>
        <time>1970-01-01T01:39:02.000Z</time>
      </trkpt>
      <trkpt lat="45.04845" lon="5.48807">
        <ele>1432.6</ele>
        <time>1970-01-01T01:39:03.000Z</time>
      </trkpt>
      <trkpt lat="45.0485" lon="5.48795">
        <ele>1433.4</ele>
        <time>1970-01-01T01:39:09.000Z</time>
      </trkpt>
      <trkpt lat="45.04851" lon="5.48793">
        <ele>1433.8</ele>
        <time>1970-01-01T01:39:10.000Z</time>
      </trkpt>
      <trkpt lat="45.04852" lon="5.48791">
        <ele>1434.2</ele>
        <time>1970-01-01T01:39:11.000Z</time>
      </trkpt>
      <trkpt lat="45.04852" lon="5.48789">
        <ele>1434.6</ele>
        <time>1970-01-01T01:39:12.000Z</time>
      </trkpt>
      <trkpt lat="45.04857" lon="5.48776">
        <ele>1434.6</ele>
        <time>1970-01-01T01:39:17.000Z</time>
      </trkpt>
      <trkpt lat="45.0486" lon="5.48763">
        <ele>1434.6</ele>
        <time>1970-01-01T01:39:23.000Z</time>
      </trkpt>
      <trkpt lat="45.04862" lon="5.48747">
        <ele>1434.6</ele>
        <time>1970-01-01T01:39:28.000Z</time>
      </trkpt>
      <trkpt lat="45.0487" lon="5.48724">
        <ele>1434.6</ele>
        <time>1970-01-01T01:39:32.000Z</time>
      </trkpt>
      <trkpt lat="45.04873" lon="5.48717">
        <ele>1434.6</ele>
        <time>1970-01-01T01:39:33.000Z</time>
      </trkpt>
      <trkpt lat="45.04876" lon="5.48709">
        <ele>1434.2</ele>
        <time>1970-01-01T01:39:34.000Z</time>
      </trkpt>
      <trkpt lat="45.04879" lon="5.48702">
        <ele>1433.8</ele>
        <time>1970-01-01T01:39:35.000Z</time>
      </trkpt>
      <trkpt lat="45.04881" lon="5.48695">
        <ele>1433.2</ele>
        <time>1970-01-01T01:39:36.000Z</time>
      </trkpt>
      <trkpt lat="45.04882" lon="5.48689">
        <ele>1432.8</ele>
        <time>1970-01-01T01:39:37.000Z</time>
      </trkpt>
      <trkpt lat="45.04884" lon="5.48682">
        <ele>1432.2</ele>
        <time>1970-01-01T01:39:38.000Z</time>
      </trkpt>
      <trkpt lat="45.0489" lon="5.48661">
        <ele>1432.2</ele>
        <time>1970-01-01T01:39:42.000Z</time>
      </trkpt>
      <trkpt lat="45.04891" lon="5.48657">
        <ele>1432.2</ele>
        <time>1970-01-01T01:39:43.000Z</time>
      </trkpt>
      <trkpt lat="45.04896" lon="5.48642">
        <ele>1432.2</ele>
        <time>1970-01-01T01:39:48.000Z</time>
      </trkpt>
      <trkpt lat="45.04901" lon="5.48632">
        <ele>1432.2</ele>
        <time>1970-01-01T01:39:52.000Z</time>
      </trkpt>
      <trkpt lat="45.04902" lon="5.4863">
        <ele>1432.2</ele>
        <time>1970-01-01T01:39:53.000Z</time>
      </trkpt>
      <trkpt lat="45.04911" lon="5.48614">
        <ele>1432.2</ele>
        <time>1970-01-01T01:40:00.000Z</time>
      </trkpt>
      <trkpt lat="45.0492" lon="5.48602">
        <ele>1432.2</ele>
        <time>1970-01-01T01:40:06.000Z</time>
      </trkpt>
      <trkpt lat="45.04923" lon="5.48592">
        <ele>1432.2</ele>
        <time>1970-01-01T01:40:11.000Z</time>
      </trkpt>
      <trkpt lat="45.04931" lon="5.4858">
        <ele>1432.2</ele>
        <time>1970-01-01T01:40:18.000Z</time>
      </trkpt>
      <trkpt lat="45.04935" lon="5.48566">
        <ele>1432.8</ele>
        <time>1970-01-01T01:40:24.000Z</time>
      </trkpt>
      <trkpt lat="45.04935" lon="5.48564">
        <ele>1433.2</ele>
        <time>1970-01-01T01:40:25.000Z</time>
      </trkpt>
      <trkpt lat="45.04936" lon="5.48561">
        <ele>1433.6</ele>
        <time>1970-01-01T01:40:26.000Z</time>
      </trkpt>
      <trkpt lat="45.04937" lon="5.48559">
        <ele>1434</ele>
        <time>1970-01-01T01:40:27.000Z</time>
      </trkpt>
      <trkpt lat="45.04938" lon="5.48556">
        <ele>1434.4</ele>
        <time>1970-01-01T01:40:28.000Z</time>
      </trkpt>
      <trkpt lat="45.04938" lon="5.48552">
        <ele>1434.4</ele>
        <time>1970-01-01T01:40:30.000Z</time>
      </trkpt>
      <trkpt lat="45.04941" lon="5.48546">
        <ele>1434.4</ele>
        <time>1970-01-01T01:40:35.000Z</time>
      </trkpt>
      <trkpt lat="45.04941" lon="5.48547">
        <ele>1434.4</ele>
        <time>1970-01-01T01:40:36.000Z</time>
      </trkpt>
      <trkpt lat="45.04941" lon="5.48546">
        <ele>1434.4</ele>
        <time>1970-01-01T01:41:07.000Z</time>
      </trkpt>
      <trkpt lat="45.04941" lon="5.48544">
        <ele>1434.4</ele>
        <time>1970-01-01T01:41:08.000Z</time>
      </trkpt>
      <trkpt lat="45.04941" lon="5.48539">
        <ele>1434.4</ele>
        <time>1970-01-01T01:41:10.000Z</time>
      </trkpt>
      <trkpt lat="45.04945" lon="5.48528">
        <ele>1434.4</ele>
        <time>1970-01-01T01:41:15.000Z</time>
      </trkpt>
      <trkpt lat="45.04947" lon="5.48523">
        <ele>1434.8</ele>
        <time>1970-01-01T01:41:17.000Z</time>
      </trkpt>
      <trkpt lat="45.04948" lon="5.48521">
        <ele>1435.2</ele>
        <time>1970-01-01T01:41:18.000Z</time>
      </trkpt>
      <trkpt lat="45.04949" lon="5.4852">
        <ele>1435.6</ele>
        <time>1970-01-01T01:41:19.000Z</time>
      </trkpt>
      <trkpt lat="45.04949" lon="5.48518">
        <ele>1436</ele>
        <time>1970-01-01T01:41:20.000Z</time>
      </trkpt>
      <trkpt lat="45.0495" lon="5.48516">
        <ele>1436.6</ele>
        <time>1970-01-01T01:41:21.000Z</time>
      </trkpt>
      <trkpt lat="45.04953" lon="5.48504">
        <ele>1436.6</ele>
        <time>1970-01-01T01:41:27.000Z</time>
      </trkpt>
      <trkpt lat="45.04957" lon="5.48491">
        <ele>1436.6</ele>
        <time>1970-01-01T01:41:33.000Z</time>
      </trkpt>
      <trkpt lat="45.04959" lon="5.48488">
        <ele>1437</ele>
        <time>1970-01-01T01:41:35.000Z</time>
      </trkpt>
      <trkpt lat="45.04959" lon="5.48486">
        <ele>1437.8</ele>
        <time>1970-01-01T01:41:36.000Z</time>
      </trkpt>
      <trkpt lat="45.0496" lon="5.48484">
        <ele>1438.2</ele>
        <time>1970-01-01T01:41:37.000Z</time>
      </trkpt>
      <trkpt lat="45.0496" lon="5.48482">
        <ele>1438.6</ele>
        <time>1970-01-01T01:41:38.000Z</time>
      </trkpt>
      <trkpt lat="45.04962" lon="5.48478">
        <ele>1438.6</ele>
        <time>1970-01-01T01:41:40.000Z</time>
      </trkpt>
      <trkpt lat="45.04965" lon="5.48468">
        <ele>1438.6</ele>
        <time>1970-01-01T01:41:45.000Z</time>
      </trkpt>
      <trkpt lat="45.04968" lon="5.4846">
        <ele>1439</ele>
        <time>1970-01-01T01:41:49.000Z</time>
      </trkpt>
      <trkpt lat="45.04968" lon="5.48458">
        <ele>1439.4</ele>
        <time>1970-01-01T01:41:50.000Z</time>
      </trkpt>
      <trkpt lat="45.04969" lon="5.48456">
        <ele>1439.8</ele>
        <time>1970-01-01T01:41:51.000Z</time>
      </trkpt>
      <trkpt lat="45.0497" lon="5.48454">
        <ele>1440.2</ele>
        <time>1970-01-01T01:41:52.000Z</time>
      </trkpt>
      <trkpt lat="45.0497" lon="5.48452">
        <ele>1440.6</ele>
        <time>1970-01-01T01:41:53.000Z</time>
      </trkpt>
      <trkpt lat="45.04973" lon="5.48438">
        <ele>1440.6</ele>
        <time>1970-01-01T01:42:00.000Z</time>
      </trkpt>
      <trkpt lat="45.04973" lon="5.48434">
        <ele>1441</ele>
        <time>1970-01-01T01:42:02.000Z</time>
      </trkpt>
      <trkpt lat="45.04974" lon="5.48433">
        <ele>1441.4</ele>
        <time>1970-01-01T01:42:03.000Z</time>
      </trkpt>
      <trkpt lat="45.04974" lon="5.48431">
        <ele>1441.8</ele>
        <time>1970-01-01T01:42:04.000Z</time>
      </trkpt>
      <trkpt lat="45.04974" lon="5.48429">
        <ele>1442.4</ele>
        <time>1970-01-01T01:42:05.000Z</time>
      </trkpt>
      <trkpt lat="45.04975" lon="5.48427">
        <ele>1442.8</ele>
        <time>1970-01-01T01:42:06.000Z</time>
      </trkpt>
      <trkpt lat="45.04978" lon="5.48419">
        <ele>1443.2</ele>
        <time>1970-01-01T01:42:11.000Z</time>
      </trkpt>
      <trkpt lat="45.04978" lon="5.48418">
        <ele>1443.6</ele>
        <time>1970-01-01T01:42:12.000Z</time>
      </trkpt>
      <trkpt lat="45.0498" lon="5.48417">
        <ele>1444</ele>
        <time>1970-01-01T01:42:13.000Z</time>
      </trkpt>
      <trkpt lat="45.0498" lon="5.48416">
        <ele>1444.4</ele>
        <time>1970-01-01T01:42:14.000Z</time>
      </trkpt>
      <trkpt lat="45.04981" lon="5.48414">
        <ele>1444.8</ele>
        <time>1970-01-01T01:42:15.000Z</time>
      </trkpt>
      <trkpt lat="45.04983" lon="5.48411">
        <ele>1444.8</ele>
        <time>1970-01-01T01:42:19.000Z</time>
      </trkpt>
      <trkpt lat="45.04984" lon="5.48411">
        <ele>1444.8</ele>
        <time>1970-01-01T01:42:20.000Z</time>
      </trkpt>
      <trkpt lat="45.04985" lon="5.48409">
        <ele>1445.6</ele>
        <time>1970-01-01T01:42:22.000Z</time>
      </trkpt>
      <trkpt lat="45.04986" lon="5.48408">
        <ele>1446</ele>
        <time>1970-01-01T01:42:23.000Z</time>
      </trkpt>
      <trkpt lat="45.04987" lon="5.48408">
        <ele>1446.4</ele>
        <time>1970-01-01T01:42:24.000Z</time>
      </trkpt>
      <trkpt lat="45.04988" lon="5.48407">
        <ele>1446.8</ele>
        <time>1970-01-01T01:42:25.000Z</time>
      </trkpt>
      <trkpt lat="45.04989" lon="5.48406">
        <ele>1446.8</ele>
        <time>1970-01-01T01:42:26.000Z</time>
      </trkpt>
      <trkpt lat="45.04993" lon="5.48403">
        <ele>1447.2</ele>
        <time>1970-01-01T01:42:30.000Z</time>
      </trkpt>
      <trkpt lat="45.04994" lon="5.48402">
        <ele>1447.6</ele>
        <time>1970-01-01T01:42:31.000Z</time>
      </trkpt>
      <trkpt lat="45.04995" lon="5.484">
        <ele>1448</ele>
        <time>1970-01-01T01:42:32.000Z</time>
      </trkpt>
      <trkpt lat="45.04997" lon="5.48398">
        <ele>1448.4</ele>
        <time>1970-01-01T01:42:33.000Z</time>
      </trkpt>
      <trkpt lat="45.04998" lon="5.48397">
        <ele>1448.8</ele>
        <time>1970-01-01T01:42:34.000Z</time>
      </trkpt>
      <trkpt lat="45.05" lon="5.48393">
        <ele>1448.8</ele>
        <time>1970-01-01T01:42:38.000Z</time>
      </trkpt>
      <trkpt lat="45.05003" lon="5.48393">
        <ele>1449.2</ele>
        <time>1970-01-01T01:42:41.000Z</time>
      </trkpt>
      <trkpt lat="45.05004" lon="5.48392">
        <ele>1449.6</ele>
        <time>1970-01-01T01:42:42.000Z</time>
      </trkpt>
      <trkpt lat="45.05006" lon="5.48391">
        <ele>1450</ele>
        <time>1970-01-01T01:42:43.000Z</time>
      </trkpt>
      <trkpt lat="45.05008" lon="5.4839">
        <ele>1450.6</ele>
        <time>1970-01-01T01:42:44.000Z</time>
      </trkpt>
      <trkpt lat="45.0501" lon="5.4839">
        <ele>1451</ele>
        <time>1970-01-01T01:42:45.000Z</time>
      </trkpt>
      <trkpt lat="45.05017" lon="5.48388">
        <ele>1451</ele>
        <time>1970-01-01T01:42:50.000Z</time>
      </trkpt>
      <trkpt lat="45.05021" lon="5.48386">
        <ele>1451</ele>
        <time>1970-01-01T01:42:54.000Z</time>
      </trkpt>
      <trkpt lat="45.05023" lon="5.48384">
        <ele>1451.4</ele>
        <time>1970-01-01T01:42:55.000Z</time>
      </trkpt>
      <trkpt lat="45.05024" lon="5.48382">
        <ele>1451.8</ele>
        <time>1970-01-01T01:42:56.000Z</time>
      </trkpt>
      <trkpt lat="45.05025" lon="5.48381">
        <ele>1452.2</ele>
        <time>1970-01-01T01:42:57.000Z</time>
      </trkpt>
      <trkpt lat="45.05025" lon="5.48379">
        <ele>1452.6</ele>
        <time>1970-01-01T01:42:58.000Z</time>
      </trkpt>
      <trkpt lat="45.05026" lon="5.48378">
        <ele>1453.2</ele>
        <time>1970-01-01T01:42:59.000Z</time>
      </trkpt>
      <trkpt lat="45.05026" lon="5.48375">
        <ele>1453.2</ele>
        <time>1970-01-01T01:43:01.000Z</time>
      </trkpt>
      <trkpt lat="45.05027" lon="5.48372">
        <ele>1453.2</ele>
        <time>1970-01-01T01:43:03.000Z</time>
      </trkpt>
      <trkpt lat="45.05027" lon="5.48369">
        <ele>1453.6</ele>
        <time>1970-01-01T01:43:05.000Z</time>
      </trkpt>
      <trkpt lat="45.05027" lon="5.48367">
        <ele>1454</ele>
        <time>1970-01-01T01:43:06.000Z</time>
      </trkpt>
      <trkpt lat="45.05028" lon="5.48365">
        <ele>1454.4</ele>
        <time>1970-01-01T01:43:07.000Z</time>
      </trkpt>
      <trkpt lat="45.05028" lon="5.48363">
        <ele>1454.8</ele>
        <time>1970-01-01T01:43:08.000Z</time>
      </trkpt>
      <trkpt lat="45.05028" lon="5.4836">
        <ele>1455.2</ele>
        <time>1970-01-01T01:43:09.000Z</time>
      </trkpt>
      <trkpt lat="45.05029" lon="5.48355">
        <ele>1455.2</ele>
        <time>1970-01-01T01:43:11.000Z</time>
      </trkpt>
      <trkpt lat="45.05029" lon="5.48349">
        <ele>1455.2</ele>
        <time>1970-01-01T01:43:15.000Z</time>
      </trkpt>
      <trkpt lat="45.05028" lon="5.48347">
        <ele>1455.2</ele>
        <time>1970-01-01T01:43:17.000Z</time>
      </trkpt>
      <trkpt lat="45.05025" lon="5.48343">
        <ele>1455.6</ele>
        <time>1970-01-01T01:43:21.000Z</time>
      </trkpt>
      <trkpt lat="45.05024" lon="5.48343">
        <ele>1456</ele>
        <time>1970-01-01T01:43:22.000Z</time>
      </trkpt>
      <trkpt lat="45.05023" lon="5.48342">
        <ele>1456.4</ele>
        <time>1970-01-01T01:43:23.000Z</time>
      </trkpt>
      <trkpt lat="45.05021" lon="5.48341">
        <ele>1457</ele>
        <time>1970-01-01T01:43:24.000Z</time>
      </trkpt>
      <trkpt lat="45.0502" lon="5.48341">
        <ele>1457.4</ele>
        <time>1970-01-01T01:43:25.000Z</time>
      </trkpt>
      <trkpt lat="45.05013" lon="5.48339">
        <ele>1457.4</ele>
        <time>1970-01-01T01:43:30.000Z</time>
      </trkpt>
      <trkpt lat="45.05007" lon="5.48337">
        <ele>1457.4</ele>
        <time>1970-01-01T01:43:35.000Z</time>
      </trkpt>
      <trkpt lat="45.05006" lon="5.48336">
        <ele>1457.4</ele>
        <time>1970-01-01T01:43:36.000Z</time>
      </trkpt>
      <trkpt lat="45.05001" lon="5.48334">
        <ele>1457.8</ele>
        <time>1970-01-01T01:43:39.000Z</time>
      </trkpt>
      <trkpt lat="45.05" lon="5.48334">
        <ele>1458.6</ele>
        <time>1970-01-01T01:43:40.000Z</time>
      </trkpt>
      <trkpt lat="45.04998" lon="5.48333">
        <ele>1459</ele>
        <time>1970-01-01T01:43:41.000Z</time>
      </trkpt>
      <trkpt lat="45.04997" lon="5.48333">
        <ele>1459.4</ele>
        <time>1970-01-01T01:43:42.000Z</time>
      </trkpt>
      <trkpt lat="45.0499" lon="5.48327">
        <ele>1459.4</ele>
        <time>1970-01-01T01:43:48.000Z</time>
      </trkpt>
      <trkpt lat="45.04985" lon="5.48319">
        <ele>1459.8</ele>
        <time>1970-01-01T01:43:53.000Z</time>
      </trkpt>
      <trkpt lat="45.04984" lon="5.48318">
        <ele>1460.4</ele>
        <time>1970-01-01T01:43:54.000Z</time>
      </trkpt>
      <trkpt lat="45.04983" lon="5.48316">
        <ele>1460.8</ele>
        <time>1970-01-01T01:43:55.000Z</time>
      </trkpt>
      <trkpt lat="45.04982" lon="5.48315">
        <ele>1461.2</ele>
        <time>1970-01-01T01:43:56.000Z</time>
      </trkpt>
      <trkpt lat="45.04981" lon="5.48313">
        <ele>1461.6</ele>
        <time>1970-01-01T01:43:57.000Z</time>
      </trkpt>
      <trkpt lat="45.04977" lon="5.4831">
        <ele>1461.6</ele>
        <time>1970-01-01T01:44:00.000Z</time>
      </trkpt>
      <trkpt lat="45.04971" lon="5.48305">
        <ele>1462</ele>
        <time>1970-01-01T01:44:04.000Z</time>
      </trkpt>
      <trkpt lat="45.04969" lon="5.48303">
        <ele>1463</ele>
        <time>1970-01-01T01:44:05.000Z</time>
      </trkpt>
      <trkpt lat="45.04968" lon="5.48302">
        <ele>1463.4</ele>
        <time>1970-01-01T01:44:06.000Z</time>
      </trkpt>
      <trkpt lat="45.04967" lon="5.48301">
        <ele>1463.8</ele>
        <time>1970-01-01T01:44:07.000Z</time>
      </trkpt>
      <trkpt lat="45.04966" lon="5.48297">
        <ele>1463.8</ele>
        <time>1970-01-01T01:44:11.000Z</time>
      </trkpt>
      <trkpt lat="45.04967" lon="5.48298">
        <ele>1463.8</ele>
        <time>1970-01-01T01:45:08.000Z</time>
      </trkpt>
      <trkpt lat="45.04967" lon="5.48297">
        <ele>1463.8</ele>
        <time>1970-01-01T01:45:09.000Z</time>
      </trkpt>
      <trkpt lat="45.04965" lon="5.48294">
        <ele>1463.8</ele>
        <time>1970-01-01T01:45:11.000Z</time>
      </trkpt>
      <trkpt lat="45.04962" lon="5.48292">
        <ele>1463.8</ele>
        <time>1970-01-01T01:45:13.000Z</time>
      </trkpt>
      <trkpt lat="45.04956" lon="5.48283">
        <ele>1463.8</ele>
        <time>1970-01-01T01:45:17.000Z</time>
      </trkpt>
      <trkpt lat="45.04947" lon="5.48271">
        <ele>1463.8</ele>
        <time>1970-01-01T01:45:23.000Z</time>
      </trkpt>
      <trkpt lat="45.04941" lon="5.48265">
        <ele>1464.2</ele>
        <time>1970-01-01T01:45:26.000Z</time>
      </trkpt>
      <trkpt lat="45.0494" lon="5.48264">
        <ele>1464.6</ele>
        <time>1970-01-01T01:45:27.000Z</time>
      </trkpt>
      <trkpt lat="45.04938" lon="5.48262">
        <ele>1465</ele>
        <time>1970-01-01T01:45:28.000Z</time>
      </trkpt>
      <trkpt lat="45.04936" lon="5.48262">
        <ele>1465.4</ele>
        <time>1970-01-01T01:45:29.000Z</time>
      </trkpt>
      <trkpt lat="45.04934" lon="5.48261">
        <ele>1465.8</ele>
        <time>1970-01-01T01:45:30.000Z</time>
      </trkpt>
      <trkpt lat="45.04925" lon="5.48255">
        <ele>1465.8</ele>
        <time>1970-01-01T01:45:35.000Z</time>
      </trkpt>
      <trkpt lat="45.04913" lon="5.48252">
        <ele>1465.8</ele>
        <time>1970-01-01T01:45:41.000Z</time>
      </trkpt>
      <trkpt lat="45.04909" lon="5.4825">
        <ele>1466.2</ele>
        <time>1970-01-01T01:45:43.000Z</time>
      </trkpt>
      <trkpt lat="45.04908" lon="5.4825">
        <ele>1467</ele>
        <time>1970-01-01T01:45:44.000Z</time>
      </trkpt>
      <trkpt lat="45.04906" lon="5.48249">
        <ele>1467.6</ele>
        <time>1970-01-01T01:45:45.000Z</time>
      </trkpt>
      <trkpt lat="45.04904" lon="5.48248">
        <ele>1468</ele>
        <time>1970-01-01T01:45:46.000Z</time>
      </trkpt>
      <trkpt lat="45.04903" lon="5.48248">
        <ele>1468</ele>
        <time>1970-01-01T01:45:47.000Z</time>
      </trkpt>
      <trkpt lat="45.04891" lon="5.48242">
        <ele>1468</ele>
        <time>1970-01-01T01:45:54.000Z</time>
      </trkpt>
      <trkpt lat="45.04884" lon="5.48239">
        <ele>1468.4</ele>
        <time>1970-01-01T01:45:58.000Z</time>
      </trkpt>
      <trkpt lat="45.04883" lon="5.48239">
        <ele>1468.8</ele>
        <time>1970-01-01T01:45:59.000Z</time>
      </trkpt>
      <trkpt lat="45.04882" lon="5.48238">
        <ele>1469.2</ele>
        <time>1970-01-01T01:46:00.000Z</time>
      </trkpt>
      <trkpt lat="45.0488" lon="5.48237">
        <ele>1469.6</ele>
        <time>1970-01-01T01:46:01.000Z</time>
      </trkpt>
      <trkpt lat="45.04879" lon="5.48236">
        <ele>1470</ele>
        <time>1970-01-01T01:46:02.000Z</time>
      </trkpt>
      <trkpt lat="45.04874" lon="5.48234">
        <ele>1470</ele>
        <time>1970-01-01T01:46:06.000Z</time>
      </trkpt>
      <trkpt lat="45.0487" lon="5.48231">
        <ele>1470.4</ele>
        <time>1970-01-01T01:46:09.000Z</time>
      </trkpt>
      <trkpt lat="45.04869" lon="5.48231">
        <ele>1470.8</ele>
        <time>1970-01-01T01:46:10.000Z</time>
      </trkpt>
      <trkpt lat="45.04868" lon="5.4823">
        <ele>1471.4</ele>
        <time>1970-01-01T01:46:11.000Z</time>
      </trkpt>
      <trkpt lat="45.04867" lon="5.4823">
        <ele>1471.8</ele>
        <time>1970-01-01T01:46:12.000Z</time>
      </trkpt>
      <trkpt lat="45.04866" lon="5.48229">
        <ele>1472.2</ele>
        <time>1970-01-01T01:46:13.000Z</time>
      </trkpt>
      <trkpt lat="45.04865" lon="5.48229">
        <ele>1472.2</ele>
        <time>1970-01-01T01:46:14.000Z</time>
      </trkpt>
      <trkpt lat="45.04859" lon="5.48225">
        <ele>1472.2</ele>
        <time>1970-01-01T01:46:19.000Z</time>
      </trkpt>
      <trkpt lat="45.04859" lon="5.48224">
        <ele>1472.6</ele>
        <time>1970-01-01T01:46:20.000Z</time>
      </trkpt>
      <trkpt lat="45.04858" lon="5.48223">
        <ele>1473.2</ele>
        <time>1970-01-01T01:46:21.000Z</time>
      </trkpt>
      <trkpt lat="45.04857" lon="5.48222">
        <ele>1473.6</ele>
        <time>1970-01-01T01:46:22.000Z</time>
      </trkpt>
      <trkpt lat="45.04856" lon="5.48221">
        <ele>1474</ele>
        <time>1970-01-01T01:46:23.000Z</time>
      </trkpt>
      <trkpt lat="45.04854" lon="5.4822">
        <ele>1474.4</ele>
        <time>1970-01-01T01:46:24.000Z</time>
      </trkpt>
      <trkpt lat="45.04853" lon="5.48219">
        <ele>1474.4</ele>
        <time>1970-01-01T01:46:25.000Z</time>
      </trkpt>
      <trkpt lat="45.04848" lon="5.48216">
        <ele>1474.8</ele>
        <time>1970-01-01T01:46:30.000Z</time>
      </trkpt>
      <trkpt lat="45.04847" lon="5.48215">
        <ele>1475.4</ele>
        <time>1970-01-01T01:46:31.000Z</time>
      </trkpt>
      <trkpt lat="45.04846" lon="5.48215">
        <ele>1475.8</ele>
        <time>1970-01-01T01:46:32.000Z</time>
      </trkpt>
      <trkpt lat="45.04845" lon="5.48214">
        <ele>1476.6</ele>
        <time>1970-01-01T01:46:33.000Z</time>
      </trkpt>
      <trkpt lat="45.0484" lon="5.48209">
        <ele>1476.6</ele>
        <time>1970-01-01T01:46:38.000Z</time>
      </trkpt>
      <trkpt lat="45.04836" lon="5.48207">
        <ele>1477</ele>
        <time>1970-01-01T01:46:41.000Z</time>
      </trkpt>
      <trkpt lat="45.04835" lon="5.48206">
        <ele>1477.4</ele>
        <time>1970-01-01T01:46:42.000Z</time>
      </trkpt>
      <trkpt lat="45.04834" lon="5.48205">
        <ele>1478</ele>
        <time>1970-01-01T01:46:43.000Z</time>
      </trkpt>
      <trkpt lat="45.04833" lon="5.48205">
        <ele>1478.4</ele>
        <time>1970-01-01T01:46:44.000Z</time>
      </trkpt>
      <trkpt lat="45.04832" lon="5.48204">
        <ele>1478.8</ele>
        <time>1970-01-01T01:46:45.000Z</time>
      </trkpt>
      <trkpt lat="45.04827" lon="5.48201">
        <ele>1478.8</ele>
        <time>1970-01-01T01:46:50.000Z</time>
      </trkpt>
      <trkpt lat="45.04822" lon="5.48198">
        <ele>1479.2</ele>
        <time>1970-01-01T01:46:53.000Z</time>
      </trkpt>
      <trkpt lat="45.04821" lon="5.48198">
        <ele>1479.6</ele>
        <time>1970-01-01T01:46:54.000Z</time>
      </trkpt>
      <trkpt lat="45.0482" lon="5.48197">
        <ele>1480</ele>
        <time>1970-01-01T01:46:55.000Z</time>
      </trkpt>
      <trkpt lat="45.04819" lon="5.48196">
        <ele>1480.4</ele>
        <time>1970-01-01T01:46:56.000Z</time>
      </trkpt>
      <trkpt lat="45.04818" lon="5.48196">
        <ele>1480.8</ele>
        <time>1970-01-01T01:46:57.000Z</time>
      </trkpt>
      <trkpt lat="45.04817" lon="5.48195">
        <ele>1480.8</ele>
        <time>1970-01-01T01:46:58.000Z</time>
      </trkpt>
      <trkpt lat="45.04811" lon="5.4819">
        <ele>1480.8</ele>
        <time>1970-01-01T01:47:04.000Z</time>
      </trkpt>
      <trkpt lat="45.04806" lon="5.48188">
        <ele>1481.2</ele>
        <time>1970-01-01T01:47:08.000Z</time>
      </trkpt>
      <trkpt lat="45.04805" lon="5.48187">
        <ele>1481.6</ele>
        <time>1970-01-01T01:47:09.000Z</time>
      </trkpt>
      <trkpt lat="45.04804" lon="5.48187">
        <ele>1482</ele>
        <time>1970-01-01T01:47:10.000Z</time>
      </trkpt>
      <trkpt lat="45.04803" lon="5.48187">
        <ele>1482.4</ele>
        <time>1970-01-01T01:47:11.000Z</time>
      </trkpt>
      <trkpt lat="45.04802" lon="5.48187">
        <ele>1482.8</ele>
        <time>1970-01-01T01:47:12.000Z</time>
      </trkpt>
      <trkpt lat="45.04796" lon="5.48186">
        <ele>1482.8</ele>
        <time>1970-01-01T01:47:17.000Z</time>
      </trkpt>
      <trkpt lat="45.04795" lon="5.48186">
        <ele>1482.8</ele>
        <time>1970-01-01T01:47:19.000Z</time>
      </trkpt>
      <trkpt lat="45.04794" lon="5.48186">
        <ele>1482.8</ele>
        <time>1970-01-01T01:47:21.000Z</time>
      </trkpt>
      <trkpt lat="45.04795" lon="5.48186">
        <ele>1482.8</ele>
        <time>1970-01-01T01:49:11.000Z</time>
      </trkpt>
      <trkpt lat="45.04794" lon="5.48186">
        <ele>1482.8</ele>
        <time>1970-01-01T01:49:36.000Z</time>
      </trkpt>
      <trkpt lat="45.04792" lon="5.48182">
        <ele>1482.8</ele>
        <time>1970-01-01T01:49:38.000Z</time>
      </trkpt>
      <trkpt lat="45.04789" lon="5.48178">
        <ele>1482.8</ele>
        <time>1970-01-01T01:49:42.000Z</time>
      </trkpt>
      <trkpt lat="45.04788" lon="5.48178">
        <ele>1482.8</ele>
        <time>1970-01-01T01:50:19.000Z</time>
      </trkpt>
      <trkpt lat="45.04788" lon="5.48179">
        <ele>1482.8</ele>
        <time>1970-01-01T01:51:38.000Z</time>
      </trkpt>
      <trkpt lat="45.04791" lon="5.48183">
        <ele>1482.8</ele>
        <time>1970-01-01T01:51:44.000Z</time>
      </trkpt>
      <trkpt lat="45.04793" lon="5.48185">
        <ele>1482.8</ele>
        <time>1970-01-01T01:51:46.000Z</time>
      </trkpt>
      <trkpt lat="45.04794" lon="5.48187">
        <ele>1482.8</ele>
        <time>1970-01-01T01:52:02.000Z</time>
      </trkpt>
      <trkpt lat="45.04794" lon="5.48189">
        <ele>1482.8</ele>
        <time>1970-01-01T01:52:03.000Z</time>
      </trkpt>
      <trkpt lat="45.04792" lon="5.48194">
        <ele>1482.8</ele>
        <time>1970-01-01T01:52:06.000Z</time>
      </trkpt>
      <trkpt lat="45.04787" lon="5.48196">
        <ele>1482.8</ele>
        <time>1970-01-01T01:52:10.000Z</time>
      </trkpt>
      <trkpt lat="45.04787" lon="5.48197">
        <ele>1482.8</ele>
        <time>1970-01-01T01:52:11.000Z</time>
      </trkpt>
      <trkpt lat="45.04783" lon="5.48206">
        <ele>1482.8</ele>
        <time>1970-01-01T01:52:14.000Z</time>
      </trkpt>
      <trkpt lat="45.04773" lon="5.48228">
        <ele>1482.8</ele>
        <time>1970-01-01T01:52:17.000Z</time>
      </trkpt>
      <trkpt lat="45.04768" lon="5.48239">
        <ele>1481.8</ele>
        <time>1970-01-01T01:52:18.000Z</time>
      </trkpt>
      <trkpt lat="45.04763" lon="5.4825">
        <ele>1480.8</ele>
        <time>1970-01-01T01:52:19.000Z</time>
      </trkpt>
      <trkpt lat="45.04758" lon="5.48261">
        <ele>1480</ele>
        <time>1970-01-01T01:52:20.000Z</time>
      </trkpt>
      <trkpt lat="45.04753" lon="5.48271">
        <ele>1478.8</ele>
        <time>1970-01-01T01:52:21.000Z</time>
      </trkpt>
      <trkpt lat="45.04748" lon="5.4828">
        <ele>1477.6</ele>
        <time>1970-01-01T01:52:22.000Z</time>
      </trkpt>
      <trkpt lat="45.04742" lon="5.48286">
        <ele>1476.4</ele>
        <time>1970-01-01T01:52:23.000Z</time>
      </trkpt>
      <trkpt lat="45.04736" lon="5.48288">
        <ele>1475.2</ele>
        <time>1970-01-01T01:52:24.000Z</time>
      </trkpt>
      <trkpt lat="45.0473" lon="5.48293">
        <ele>1474</ele>
        <time>1970-01-01T01:52:25.000Z</time>
      </trkpt>
      <trkpt lat="45.04725" lon="5.48299">
        <ele>1472.8</ele>
        <time>1970-01-01T01:52:26.000Z</time>
      </trkpt>
      <trkpt lat="45.04719" lon="5.48304">
        <ele>1471.6</ele>
        <time>1970-01-01T01:52:27.000Z</time>
      </trkpt>
      <trkpt lat="45.0471" lon="5.48309">
        <ele>1471</ele>
        <time>1970-01-01T01:52:28.000Z</time>
      </trkpt>
      <trkpt lat="45.04701" lon="5.48315">
        <ele>1470.4</ele>
        <time>1970-01-01T01:52:29.000Z</time>
      </trkpt>
      <trkpt lat="45.04691" lon="5.48318">
        <ele>1469.6</ele>
        <time>1970-01-01T01:52:30.000Z</time>
      </trkpt>
      <trkpt lat="45.0468" lon="5.48317">
        <ele>1468.6</ele>
        <time>1970-01-01T01:52:31.000Z</time>
      </trkpt>
      <trkpt lat="45.04669" lon="5.48313">
        <ele>1467.4</ele>
        <time>1970-01-01T01:52:32.000Z</time>
      </trkpt>
      <trkpt lat="45.04661" lon="5.48308">
        <ele>1466.4</ele>
        <time>1970-01-01T01:52:33.000Z</time>
      </trkpt>
      <trkpt lat="45.04653" lon="5.48303">
        <ele>1465.2</ele>
        <time>1970-01-01T01:52:34.000Z</time>
      </trkpt>
      <trkpt lat="45.04647" lon="5.48296">
        <ele>1464</ele>
        <time>1970-01-01T01:52:35.000Z</time>
      </trkpt>
      <trkpt lat="45.0464" lon="5.48293">
        <ele>1462.8</ele>
        <time>1970-01-01T01:52:36.000Z</time>
      </trkpt>
      <trkpt lat="45.04621" lon="5.48293">
        <ele>1462.8</ele>
        <time>1970-01-01T01:52:39.000Z</time>
      </trkpt>
      <trkpt lat="45.04602" lon="5.48299">
        <ele>1462.4</ele>
        <time>1970-01-01T01:52:41.000Z</time>
      </trkpt>
      <trkpt lat="45.04592" lon="5.483">
        <ele>1461.8</ele>
        <time>1970-01-01T01:52:42.000Z</time>
      </trkpt>
      <trkpt lat="45.04582" lon="5.48301">
        <ele>1459.6</ele>
        <time>1970-01-01T01:52:43.000Z</time>
      </trkpt>
      <trkpt lat="45.04574" lon="5.48306">
        <ele>1458.4</ele>
        <time>1970-01-01T01:52:44.000Z</time>
      </trkpt>
      <trkpt lat="45.04567" lon="5.48314">
        <ele>1457</ele>
        <time>1970-01-01T01:52:45.000Z</time>
      </trkpt>
      <trkpt lat="45.04559" lon="5.48319">
        <ele>1455.6</ele>
        <time>1970-01-01T01:52:46.000Z</time>
      </trkpt>
      <trkpt lat="45.04551" lon="5.48323">
        <ele>1454.2</ele>
        <time>1970-01-01T01:52:47.000Z</time>
      </trkpt>
      <trkpt lat="45.04543" lon="5.48325">
        <ele>1452.8</ele>
        <time>1970-01-01T01:52:48.000Z</time>
      </trkpt>
      <trkpt lat="45.04535" lon="5.48323">
        <ele>1451.4</ele>
        <time>1970-01-01T01:52:49.000Z</time>
      </trkpt>
      <trkpt lat="45.04529" lon="5.48321">
        <ele>1450.2</ele>
        <time>1970-01-01T01:52:50.000Z</time>
      </trkpt>
      <trkpt lat="45.04522" lon="5.48321">
        <ele>1448.8</ele>
        <time>1970-01-01T01:52:51.000Z</time>
      </trkpt>
      <trkpt lat="45.04506" lon="5.4831">
        <ele>1448.8</ele>
        <time>1970-01-01T01:52:54.000Z</time>
      </trkpt>
      <trkpt lat="45.04502" lon="5.48306">
        <ele>1448.8</ele>
        <time>1970-01-01T01:52:55.000Z</time>
      </trkpt>
      <trkpt lat="45.04499" lon="5.48301">
        <ele>1448.8</ele>
        <time>1970-01-01T01:52:57.000Z</time>
      </trkpt>
      <trkpt lat="45.04496" lon="5.48299">
        <ele>1448.4</ele>
        <time>1970-01-01T01:52:58.000Z</time>
      </trkpt>
      <trkpt lat="45.04493" lon="5.48297">
        <ele>1448</ele>
        <time>1970-01-01T01:52:59.000Z</time>
      </trkpt>
      <trkpt lat="45.0449" lon="5.48294">
        <ele>1447.6</ele>
        <time>1970-01-01T01:53:00.000Z</time>
      </trkpt>
      <trkpt lat="45.04487" lon="5.48292">
        <ele>1447.2</ele>
        <time>1970-01-01T01:53:01.000Z</time>
      </trkpt>
      <trkpt lat="45.04484" lon="5.48295">
        <ele>1446.8</ele>
        <time>1970-01-01T01:53:02.000Z</time>
      </trkpt>
      <trkpt lat="45.04484" lon="5.48315">
        <ele>1446.2</ele>
        <time>1970-01-01T01:53:05.000Z</time>
      </trkpt>
      <trkpt lat="45.04487" lon="5.48323">
        <ele>1445.6</ele>
        <time>1970-01-01T01:53:06.000Z</time>
      </trkpt>
      <trkpt lat="45.04491" lon="5.4833">
        <ele>1444.4</ele>
        <time>1970-01-01T01:53:07.000Z</time>
      </trkpt>
      <trkpt lat="45.04495" lon="5.4834">
        <ele>1443.6</ele>
        <time>1970-01-01T01:53:08.000Z</time>
      </trkpt>
      <trkpt lat="45.04499" lon="5.48349">
        <ele>1442.8</ele>
        <time>1970-01-01T01:53:09.000Z</time>
      </trkpt>
      <trkpt lat="45.04502" lon="5.48357">
        <ele>1442</ele>
        <time>1970-01-01T01:53:10.000Z</time>
      </trkpt>
      <trkpt lat="45.04505" lon="5.48364">
        <ele>1441.2</ele>
        <time>1970-01-01T01:53:11.000Z</time>
      </trkpt>
      <trkpt lat="45.04505" lon="5.48369">
        <ele>1440.4</ele>
        <time>1970-01-01T01:53:12.000Z</time>
      </trkpt>
      <trkpt lat="45.04502" lon="5.48372">
        <ele>1439.6</ele>
        <time>1970-01-01T01:53:13.000Z</time>
      </trkpt>
      <trkpt lat="45.045" lon="5.48373">
        <ele>1438.8</ele>
        <time>1970-01-01T01:53:14.000Z</time>
      </trkpt>
      <trkpt lat="45.04496" lon="5.4837">
        <ele>1438</ele>
        <time>1970-01-01T01:53:15.000Z</time>
      </trkpt>
      <trkpt lat="45.04492" lon="5.48365">
        <ele>1437.4</ele>
        <time>1970-01-01T01:53:16.000Z</time>
      </trkpt>
      <trkpt lat="45.04489" lon="5.48358">
        <ele>1436.6</ele>
        <time>1970-01-01T01:53:17.000Z</time>
      </trkpt>
      <trkpt lat="45.04484" lon="5.48352">
        <ele>1436.2</ele>
        <time>1970-01-01T01:53:18.000Z</time>
      </trkpt>
      <trkpt lat="45.04479" lon="5.48346">
        <ele>1435.6</ele>
        <time>1970-01-01T01:53:19.000Z</time>
      </trkpt>
      <trkpt lat="45.04472" lon="5.4834">
        <ele>1435.2</ele>
        <time>1970-01-01T01:53:20.000Z</time>
      </trkpt>
      <trkpt lat="45.04465" lon="5.48335">
        <ele>1434.6</ele>
        <time>1970-01-01T01:53:21.000Z</time>
      </trkpt>
      <trkpt lat="45.04458" lon="5.48329">
        <ele>1433.8</ele>
        <time>1970-01-01T01:53:22.000Z</time>
      </trkpt>
      <trkpt lat="45.04452" lon="5.48322">
        <ele>1433.2</ele>
        <time>1970-01-01T01:53:23.000Z</time>
      </trkpt>
      <trkpt lat="45.04445" lon="5.48314">
        <ele>1432.4</ele>
        <time>1970-01-01T01:53:24.000Z</time>
      </trkpt>
      <trkpt lat="45.04438" lon="5.48305">
        <ele>1431.4</ele>
        <time>1970-01-01T01:53:25.000Z</time>
      </trkpt>
      <trkpt lat="45.0443" lon="5.48295">
        <ele>1430.4</ele>
        <time>1970-01-01T01:53:26.000Z</time>
      </trkpt>
      <trkpt lat="45.04423" lon="5.48287">
        <ele>1429.4</ele>
        <time>1970-01-01T01:53:27.000Z</time>
      </trkpt>
      <trkpt lat="45.04416" lon="5.48279">
        <ele>1428.2</ele>
        <time>1970-01-01T01:53:28.000Z</time>
      </trkpt>
      <trkpt lat="45.0441" lon="5.48268">
        <ele>1426.8</ele>
        <time>1970-01-01T01:53:29.000Z</time>
      </trkpt>
      <trkpt lat="45.04405" lon="5.48256">
        <ele>1425.6</ele>
        <time>1970-01-01T01:53:30.000Z</time>
      </trkpt>
      <trkpt lat="45.04401" lon="5.48246">
        <ele>1424.4</ele>
        <time>1970-01-01T01:53:31.000Z</time>
      </trkpt>
      <trkpt lat="45.04395" lon="5.48236">
        <ele>1422.2</ele>
        <time>1970-01-01T01:53:32.000Z</time>
      </trkpt>
      <trkpt lat="45.04389" lon="5.48226">
        <ele>1421</ele>
        <time>1970-01-01T01:53:33.000Z</time>
      </trkpt>
      <trkpt lat="45.04386" lon="5.48215">
        <ele>1419.6</ele>
        <time>1970-01-01T01:53:34.000Z</time>
      </trkpt>
      <trkpt lat="45.04384" lon="5.48201">
        <ele>1418.4</ele>
        <time>1970-01-01T01:53:35.000Z</time>
      </trkpt>
      <trkpt lat="45.04384" lon="5.48187">
        <ele>1417.2</ele>
        <time>1970-01-01T01:53:36.000Z</time>
      </trkpt>
      <trkpt lat="45.04385" lon="5.48172">
        <ele>1416</ele>
        <time>1970-01-01T01:53:37.000Z</time>
      </trkpt>
      <trkpt lat="45.04386" lon="5.48158">
        <ele>1414.8</ele>
        <time>1970-01-01T01:53:38.000Z</time>
      </trkpt>
      <trkpt lat="45.0439" lon="5.48145">
        <ele>1413.6</ele>
        <time>1970-01-01T01:53:39.000Z</time>
      </trkpt>
      <trkpt lat="45.04396" lon="5.48134">
        <ele>1412.4</ele>
        <time>1970-01-01T01:53:40.000Z</time>
      </trkpt>
      <trkpt lat="45.04403" lon="5.48126">
        <ele>1411.4</ele>
        <time>1970-01-01T01:53:41.000Z</time>
      </trkpt>
      <trkpt lat="45.04409" lon="5.48118">
        <ele>1410.2</ele>
        <time>1970-01-01T01:53:42.000Z</time>
      </trkpt>
      <trkpt lat="45.04417" lon="5.48111">
        <ele>1409.2</ele>
        <time>1970-01-01T01:53:43.000Z</time>
      </trkpt>
      <trkpt lat="45.04425" lon="5.48106">
        <ele>1408</ele>
        <time>1970-01-01T01:53:44.000Z</time>
      </trkpt>
      <trkpt lat="45.04433" lon="5.48102">
        <ele>1406.8</ele>
        <time>1970-01-01T01:53:45.000Z</time>
      </trkpt>
      <trkpt lat="45.04441" lon="5.48099">
        <ele>1405.6</ele>
        <time>1970-01-01T01:53:46.000Z</time>
      </trkpt>
      <trkpt lat="45.0445" lon="5.48095">
        <ele>1404.6</ele>
        <time>1970-01-01T01:53:47.000Z</time>
      </trkpt>
      <trkpt lat="45.04458" lon="5.48092">
        <ele>1403.4</ele>
        <time>1970-01-01T01:53:48.000Z</time>
      </trkpt>
      <trkpt lat="45.04467" lon="5.4809">
        <ele>1402.4</ele>
        <time>1970-01-01T01:53:49.000Z</time>
      </trkpt>
      <trkpt lat="45.04477" lon="5.48087">
        <ele>1401.4</ele>
        <time>1970-01-01T01:53:50.000Z</time>
      </trkpt>
      <trkpt lat="45.04486" lon="5.48084">
        <ele>1400.6</ele>
        <time>1970-01-01T01:53:51.000Z</time>
      </trkpt>
      <trkpt lat="45.04496" lon="5.48082">
        <ele>1399.6</ele>
        <time>1970-01-01T01:53:52.000Z</time>
      </trkpt>
      <trkpt lat="45.04505" lon="5.48079">
        <ele>1398.6</ele>
        <time>1970-01-01T01:53:53.000Z</time>
      </trkpt>
      <trkpt lat="45.04514" lon="5.48076">
        <ele>1397.8</ele>
        <time>1970-01-01T01:53:54.000Z</time>
      </trkpt>
      <trkpt lat="45.04525" lon="5.48073">
        <ele>1396.8</ele>
        <time>1970-01-01T01:53:55.000Z</time>
      </trkpt>
      <trkpt lat="45.04535" lon="5.4807">
        <ele>1396</ele>
        <time>1970-01-01T01:53:56.000Z</time>
      </trkpt>
      <trkpt lat="45.04545" lon="5.48067">
        <ele>1394.2</ele>
        <time>1970-01-01T01:53:57.000Z</time>
      </trkpt>
      <trkpt lat="45.04555" lon="5.48064">
        <ele>1393.2</ele>
        <time>1970-01-01T01:53:58.000Z</time>
      </trkpt>
      <trkpt lat="45.04566" lon="5.4806">
        <ele>1392.2</ele>
        <time>1970-01-01T01:53:59.000Z</time>
      </trkpt>
      <trkpt lat="45.04576" lon="5.48058">
        <ele>1391.4</ele>
        <time>1970-01-01T01:54:00.000Z</time>
      </trkpt>
      <trkpt lat="45.04586" lon="5.48056">
        <ele>1390.4</ele>
        <time>1970-01-01T01:54:01.000Z</time>
      </trkpt>
      <trkpt lat="45.04597" lon="5.48053">
        <ele>1389.6</ele>
        <time>1970-01-01T01:54:02.000Z</time>
      </trkpt>
      <trkpt lat="45.04608" lon="5.48051">
        <ele>1388.6</ele>
        <time>1970-01-01T01:54:03.000Z</time>
      </trkpt>
      <trkpt lat="45.04618" lon="5.48049">
        <ele>1387.6</ele>
        <time>1970-01-01T01:54:04.000Z</time>
      </trkpt>
      <trkpt lat="45.04628" lon="5.48047">
        <ele>1386.8</ele>
        <time>1970-01-01T01:54:05.000Z</time>
      </trkpt>
      <trkpt lat="45.04639" lon="5.48046">
        <ele>1385.8</ele>
        <time>1970-01-01T01:54:06.000Z</time>
      </trkpt>
      <trkpt lat="45.04649" lon="5.48043">
        <ele>1385</ele>
        <time>1970-01-01T01:54:07.000Z</time>
      </trkpt>
      <trkpt lat="45.04659" lon="5.48042">
        <ele>1384</ele>
        <time>1970-01-01T01:54:08.000Z</time>
      </trkpt>
      <trkpt lat="45.04669" lon="5.4804">
        <ele>1383.2</ele>
        <time>1970-01-01T01:54:09.000Z</time>
      </trkpt>
      <trkpt lat="45.04679" lon="5.48037">
        <ele>1382.4</ele>
        <time>1970-01-01T01:54:10.000Z</time>
      </trkpt>
      <trkpt lat="45.04689" lon="5.48035">
        <ele>1381.6</ele>
        <time>1970-01-01T01:54:11.000Z</time>
      </trkpt>
      <trkpt lat="45.04699" lon="5.48033">
        <ele>1380.6</ele>
        <time>1970-01-01T01:54:12.000Z</time>
      </trkpt>
      <trkpt lat="45.04708" lon="5.48031">
        <ele>1379.8</ele>
        <time>1970-01-01T01:54:13.000Z</time>
      </trkpt>
      <trkpt lat="45.04718" lon="5.48029">
        <ele>1378.8</ele>
        <time>1970-01-01T01:54:14.000Z</time>
      </trkpt>
      <trkpt lat="45.04728" lon="5.48028">
        <ele>1377.8</ele>
        <time>1970-01-01T01:54:15.000Z</time>
      </trkpt>
      <trkpt lat="45.04737" lon="5.48027">
        <ele>1376.8</ele>
        <time>1970-01-01T01:54:16.000Z</time>
      </trkpt>
      <trkpt lat="45.04747" lon="5.48025">
        <ele>1375.8</ele>
        <time>1970-01-01T01:54:17.000Z</time>
      </trkpt>
      <trkpt lat="45.04758" lon="5.48023">
        <ele>1374.8</ele>
        <time>1970-01-01T01:54:18.000Z</time>
      </trkpt>
      <trkpt lat="45.04768" lon="5.48022">
        <ele>1374</ele>
        <time>1970-01-01T01:54:19.000Z</time>
      </trkpt>
      <trkpt lat="45.04778" lon="5.48021">
        <ele>1373</ele>
        <time>1970-01-01T01:54:20.000Z</time>
      </trkpt>
      <trkpt lat="45.04788" lon="5.4802">
        <ele>1372</ele>
        <time>1970-01-01T01:54:21.000Z</time>
      </trkpt>
      <trkpt lat="45.04798" lon="5.48018">
        <ele>1370.2</ele>
        <time>1970-01-01T01:54:22.000Z</time>
      </trkpt>
      <trkpt lat="45.04808" lon="5.48014">
        <ele>1369.2</ele>
        <time>1970-01-01T01:54:23.000Z</time>
      </trkpt>
      <trkpt lat="45.04818" lon="5.48011">
        <ele>1368.4</ele>
        <time>1970-01-01T01:54:24.000Z</time>
      </trkpt>
      <trkpt lat="45.04829" lon="5.48008">
        <ele>1367.4</ele>
        <time>1970-01-01T01:54:25.000Z</time>
      </trkpt>
      <trkpt lat="45.04839" lon="5.48007">
        <ele>1366.6</ele>
        <time>1970-01-01T01:54:26.000Z</time>
      </trkpt>
      <trkpt lat="45.04849" lon="5.48005">
        <ele>1365.8</ele>
        <time>1970-01-01T01:54:27.000Z</time>
      </trkpt>
      <trkpt lat="45.04859" lon="5.48005">
        <ele>1365</ele>
        <time>1970-01-01T01:54:28.000Z</time>
      </trkpt>
      <trkpt lat="45.0487" lon="5.48005">
        <ele>1364</ele>
        <time>1970-01-01T01:54:29.000Z</time>
      </trkpt>
      <trkpt lat="45.0488" lon="5.48005">
        <ele>1363.2</ele>
        <time>1970-01-01T01:54:30.000Z</time>
      </trkpt>
      <trkpt lat="45.04892" lon="5.48006">
        <ele>1362.2</ele>
        <time>1970-01-01T01:54:31.000Z</time>
      </trkpt>
      <trkpt lat="45.04902" lon="5.48005">
        <ele>1361.4</ele>
        <time>1970-01-01T01:54:32.000Z</time>
      </trkpt>
      <trkpt lat="45.04913" lon="5.48006">
        <ele>1360.6</ele>
        <time>1970-01-01T01:54:33.000Z</time>
      </trkpt>
      <trkpt lat="45.04923" lon="5.48006">
        <ele>1359.6</ele>
        <time>1970-01-01T01:54:34.000Z</time>
      </trkpt>
      <trkpt lat="45.04934" lon="5.48005">
        <ele>1358.8</ele>
        <time>1970-01-01T01:54:35.000Z</time>
      </trkpt>
      <trkpt lat="45.04945" lon="5.48003">
        <ele>1357.8</ele>
        <time>1970-01-01T01:54:36.000Z</time>
      </trkpt>
      <trkpt lat="45.04955" lon="5.48001">
        <ele>1356.8</ele>
        <time>1970-01-01T01:54:37.000Z</time>
      </trkpt>
      <trkpt lat="45.04965" lon="5.47999">
        <ele>1355.8</ele>
        <time>1970-01-01T01:54:38.000Z</time>
      </trkpt>
      <trkpt lat="45.04976" lon="5.47997">
        <ele>1354.6</ele>
        <time>1970-01-01T01:54:39.000Z</time>
      </trkpt>
      <trkpt lat="45.04986" lon="5.47995">
        <ele>1353.6</ele>
        <time>1970-01-01T01:54:40.000Z</time>
      </trkpt>
      <trkpt lat="45.04996" lon="5.47994">
        <ele>1352.4</ele>
        <time>1970-01-01T01:54:41.000Z</time>
      </trkpt>
      <trkpt lat="45.05005" lon="5.47993">
        <ele>1351.6</ele>
        <time>1970-01-01T01:54:42.000Z</time>
      </trkpt>
      <trkpt lat="45.05014" lon="5.47992">
        <ele>1350.6</ele>
        <time>1970-01-01T01:54:43.000Z</time>
      </trkpt>
      <trkpt lat="45.05023" lon="5.47991">
        <ele>1349.6</ele>
        <time>1970-01-01T01:54:44.000Z</time>
      </trkpt>
      <trkpt lat="45.05032" lon="5.47991">
        <ele>1348.8</ele>
        <time>1970-01-01T01:54:45.000Z</time>
      </trkpt>
      <trkpt lat="45.05041" lon="5.47993">
        <ele>1347.2</ele>
        <time>1970-01-01T01:54:46.000Z</time>
      </trkpt>
      <trkpt lat="45.0505" lon="5.47995">
        <ele>1346.4</ele>
        <time>1970-01-01T01:54:47.000Z</time>
      </trkpt>
      <trkpt lat="45.05059" lon="5.47996">
        <ele>1345.4</ele>
        <time>1970-01-01T01:54:48.000Z</time>
      </trkpt>
      <trkpt lat="45.05068" lon="5.47997">
        <ele>1344.6</ele>
        <time>1970-01-01T01:54:49.000Z</time>
      </trkpt>
      <trkpt lat="45.05075" lon="5.47998">
        <ele>1343.6</ele>
        <time>1970-01-01T01:54:50.000Z</time>
      </trkpt>
      <trkpt lat="45.05082" lon="5.48">
        <ele>1342.8</ele>
        <time>1970-01-01T01:54:51.000Z</time>
      </trkpt>
      <trkpt lat="45.05088" lon="5.48003">
        <ele>1342.8</ele>
        <time>1970-01-01T01:54:52.000Z</time>
      </trkpt>
      <trkpt lat="45.05101" lon="5.48006">
        <ele>1342.8</ele>
        <time>1970-01-01T01:54:55.000Z</time>
      </trkpt>
      <trkpt lat="45.05095" lon="5.47998">
        <ele>1342.8</ele>
        <time>1970-01-01T01:54:57.000Z</time>
      </trkpt>
      <trkpt lat="45.0509" lon="5.47995">
        <ele>1342.4</ele>
        <time>1970-01-01T01:54:58.000Z</time>
      </trkpt>
      <trkpt lat="45.05085" lon="5.47994">
        <ele>1342</ele>
        <time>1970-01-01T01:54:59.000Z</time>
      </trkpt>
      <trkpt lat="45.05079" lon="5.47992">
        <ele>1341.4</ele>
        <time>1970-01-01T01:55:00.000Z</time>
      </trkpt>
      <trkpt lat="45.05073" lon="5.47989">
        <ele>1341</ele>
        <time>1970-01-01T01:55:01.000Z</time>
      </trkpt>
      <trkpt lat="45.05067" lon="5.47987">
        <ele>1340.6</ele>
        <time>1970-01-01T01:55:02.000Z</time>
      </trkpt>
      <trkpt lat="45.0506" lon="5.47986">
        <ele>1340.2</ele>
        <time>1970-01-01T01:55:03.000Z</time>
      </trkpt>
      <trkpt lat="45.05052" lon="5.47985">
        <ele>1339.6</ele>
        <time>1970-01-01T01:55:04.000Z</time>
      </trkpt>
      <trkpt lat="45.05045" lon="5.47983">
        <ele>1339.2</ele>
        <time>1970-01-01T01:55:05.000Z</time>
      </trkpt>
      <trkpt lat="45.05039" lon="5.4798">
        <ele>1338.6</ele>
        <time>1970-01-01T01:55:06.000Z</time>
      </trkpt>
      <trkpt lat="45.05032" lon="5.47978">
        <ele>1338.2</ele>
        <time>1970-01-01T01:55:07.000Z</time>
      </trkpt>
      <trkpt lat="45.05025" lon="5.47976">
        <ele>1337.6</ele>
        <time>1970-01-01T01:55:08.000Z</time>
      </trkpt>
      <trkpt lat="45.05017" lon="5.47977">
        <ele>1337</ele>
        <time>1970-01-01T01:55:09.000Z</time>
      </trkpt>
      <trkpt lat="45.0501" lon="5.47976">
        <ele>1336.4</ele>
        <time>1970-01-01T01:55:10.000Z</time>
      </trkpt>
      <trkpt lat="45.05003" lon="5.47976">
        <ele>1335.2</ele>
        <time>1970-01-01T01:55:11.000Z</time>
      </trkpt>
      <trkpt lat="45.04995" lon="5.47974">
        <ele>1334.6</ele>
        <time>1970-01-01T01:55:12.000Z</time>
      </trkpt>
      <trkpt lat="45.04987" lon="5.47973">
        <ele>1334</ele>
        <time>1970-01-01T01:55:13.000Z</time>
      </trkpt>
      <trkpt lat="45.04979" lon="5.47971">
        <ele>1333.4</ele>
        <time>1970-01-01T01:55:14.000Z</time>
      </trkpt>
      <trkpt lat="45.04971" lon="5.47969">
        <ele>1332.8</ele>
        <time>1970-01-01T01:55:15.000Z</time>
      </trkpt>
      <trkpt lat="45.04962" lon="5.47966">
        <ele>1332.2</ele>
        <time>1970-01-01T01:55:16.000Z</time>
      </trkpt>
      <trkpt lat="45.04954" lon="5.47963">
        <ele>1331.6</ele>
        <time>1970-01-01T01:55:17.000Z</time>
      </trkpt>
      <trkpt lat="45.04945" lon="5.47959">
        <ele>1331</ele>
        <time>1970-01-01T01:55:18.000Z</time>
      </trkpt>
      <trkpt lat="45.04935" lon="5.47956">
        <ele>1330.4</ele>
        <time>1970-01-01T01:55:19.000Z</time>
      </trkpt>
      <trkpt lat="45.04926" lon="5.47952">
        <ele>1329.6</ele>
        <time>1970-01-01T01:55:20.000Z</time>
      </trkpt>
      <trkpt lat="45.04916" lon="5.47948">
        <ele>1328.8</ele>
        <time>1970-01-01T01:55:21.000Z</time>
      </trkpt>
      <trkpt lat="45.04906" lon="5.47943">
        <ele>1328</ele>
        <time>1970-01-01T01:55:22.000Z</time>
      </trkpt>
      <trkpt lat="45.04897" lon="5.4794">
        <ele>1327</ele>
        <time>1970-01-01T01:55:23.000Z</time>
      </trkpt>
      <trkpt lat="45.04887" lon="5.47935">
        <ele>1326.2</ele>
        <time>1970-01-01T01:55:24.000Z</time>
      </trkpt>
      <trkpt lat="45.04878" lon="5.47931">
        <ele>1325.4</ele>
        <time>1970-01-01T01:55:25.000Z</time>
      </trkpt>
      <trkpt lat="45.04868" lon="5.47928">
        <ele>1324.6</ele>
        <time>1970-01-01T01:55:26.000Z</time>
      </trkpt>
      <trkpt lat="45.04857" lon="5.47924">
        <ele>1323.6</ele>
        <time>1970-01-01T01:55:27.000Z</time>
      </trkpt>
      <trkpt lat="45.04848" lon="5.4792">
        <ele>1322.8</ele>
        <time>1970-01-01T01:55:28.000Z</time>
      </trkpt>
      <trkpt lat="45.04839" lon="5.47916">
        <ele>1322</ele>
        <time>1970-01-01T01:55:29.000Z</time>
      </trkpt>
      <trkpt lat="45.04829" lon="5.47909">
        <ele>1321.2</ele>
        <time>1970-01-01T01:55:30.000Z</time>
      </trkpt>
      <trkpt lat="45.04819" lon="5.47904">
        <ele>1320.2</ele>
        <time>1970-01-01T01:55:31.000Z</time>
      </trkpt>
      <trkpt lat="45.04809" lon="5.47898">
        <ele>1319.4</ele>
        <time>1970-01-01T01:55:32.000Z</time>
      </trkpt>
      <trkpt lat="45.04798" lon="5.47893">
        <ele>1318.4</ele>
        <time>1970-01-01T01:55:33.000Z</time>
      </trkpt>
      <trkpt lat="45.04788" lon="5.47887">
        <ele>1317.6</ele>
        <time>1970-01-01T01:55:34.000Z</time>
      </trkpt>
      <trkpt lat="45.04777" lon="5.47882">
        <ele>1316.6</ele>
        <time>1970-01-01T01:55:35.000Z</time>
      </trkpt>
      <trkpt lat="45.04766" lon="5.47878">
        <ele>1314.6</ele>
        <time>1970-01-01T01:55:36.000Z</time>
      </trkpt>
      <trkpt lat="45.04755" lon="5.47874">
        <ele>1313.4</ele>
        <time>1970-01-01T01:55:37.000Z</time>
      </trkpt>
      <trkpt lat="45.04745" lon="5.4787">
        <ele>1312.4</ele>
        <time>1970-01-01T01:55:38.000Z</time>
      </trkpt>
      <trkpt lat="45.04735" lon="5.47865">
        <ele>1311.4</ele>
        <time>1970-01-01T01:55:39.000Z</time>
      </trkpt>
      <trkpt lat="45.04724" lon="5.4786">
        <ele>1310.4</ele>
        <time>1970-01-01T01:55:40.000Z</time>
      </trkpt>
      <trkpt lat="45.04715" lon="5.47855">
        <ele>1309.6</ele>
        <time>1970-01-01T01:55:41.000Z</time>
      </trkpt>
      <trkpt lat="45.04704" lon="5.47851">
        <ele>1308.6</ele>
        <time>1970-01-01T01:55:42.000Z</time>
      </trkpt>
      <trkpt lat="45.04694" lon="5.47846">
        <ele>1307.8</ele>
        <time>1970-01-01T01:55:43.000Z</time>
      </trkpt>
      <trkpt lat="45.04684" lon="5.47843">
        <ele>1307.2</ele>
        <time>1970-01-01T01:55:44.000Z</time>
      </trkpt>
      <trkpt lat="45.04675" lon="5.47839">
        <ele>1306.6</ele>
        <time>1970-01-01T01:55:45.000Z</time>
      </trkpt>
      <trkpt lat="45.04665" lon="5.47836">
        <ele>1305.8</ele>
        <time>1970-01-01T01:55:46.000Z</time>
      </trkpt>
      <trkpt lat="45.04655" lon="5.47832">
        <ele>1305.2</ele>
        <time>1970-01-01T01:55:47.000Z</time>
      </trkpt>
      <trkpt lat="45.04646" lon="5.47827">
        <ele>1304.4</ele>
        <time>1970-01-01T01:55:48.000Z</time>
      </trkpt>
      <trkpt lat="45.04636" lon="5.47822">
        <ele>1303.8</ele>
        <time>1970-01-01T01:55:49.000Z</time>
      </trkpt>
      <trkpt lat="45.04627" lon="5.47818">
        <ele>1303.2</ele>
        <time>1970-01-01T01:55:50.000Z</time>
      </trkpt>
      <trkpt lat="45.04618" lon="5.47814">
        <ele>1302.4</ele>
        <time>1970-01-01T01:55:51.000Z</time>
      </trkpt>
      <trkpt lat="45.04609" lon="5.47807">
        <ele>1301.8</ele>
        <time>1970-01-01T01:55:52.000Z</time>
      </trkpt>
      <trkpt lat="45.04601" lon="5.478">
        <ele>1301.2</ele>
        <time>1970-01-01T01:55:53.000Z</time>
      </trkpt>
      <trkpt lat="45.04593" lon="5.47793">
        <ele>1300.6</ele>
        <time>1970-01-01T01:55:54.000Z</time>
      </trkpt>
      <trkpt lat="45.04585" lon="5.47786">
        <ele>1300</ele>
        <time>1970-01-01T01:55:55.000Z</time>
      </trkpt>
      <trkpt lat="45.04578" lon="5.47779">
        <ele>1299.4</ele>
        <time>1970-01-01T01:55:56.000Z</time>
      </trkpt>
      <trkpt lat="45.04572" lon="5.47772">
        <ele>1299</ele>
        <time>1970-01-01T01:55:57.000Z</time>
      </trkpt>
      <trkpt lat="45.04564" lon="5.47764">
        <ele>1298.4</ele>
        <time>1970-01-01T01:55:58.000Z</time>
      </trkpt>
      <trkpt lat="45.04558" lon="5.47757">
        <ele>1297.8</ele>
        <time>1970-01-01T01:55:59.000Z</time>
      </trkpt>
      <trkpt lat="45.0455" lon="5.47749">
        <ele>1297.4</ele>
        <time>1970-01-01T01:56:00.000Z</time>
      </trkpt>
      <trkpt lat="45.04544" lon="5.47741">
        <ele>1296.4</ele>
        <time>1970-01-01T01:56:01.000Z</time>
      </trkpt>
      <trkpt lat="45.04539" lon="5.47732">
        <ele>1296</ele>
        <time>1970-01-01T01:56:02.000Z</time>
      </trkpt>
      <trkpt lat="45.04535" lon="5.47722">
        <ele>1295.6</ele>
        <time>1970-01-01T01:56:03.000Z</time>
      </trkpt>
      <trkpt lat="45.04533" lon="5.47713">
        <ele>1295</ele>
        <time>1970-01-01T01:56:04.000Z</time>
      </trkpt>
      <trkpt lat="45.04534" lon="5.47705">
        <ele>1294.6</ele>
        <time>1970-01-01T01:56:05.000Z</time>
      </trkpt>
      <trkpt lat="45.04534" lon="5.47699">
        <ele>1294</ele>
        <time>1970-01-01T01:56:06.000Z</time>
      </trkpt>
      <trkpt lat="45.04534" lon="5.47694">
        <ele>1293.6</ele>
        <time>1970-01-01T01:56:07.000Z</time>
      </trkpt>
      <trkpt lat="45.04534" lon="5.47689">
        <ele>1293</ele>
        <time>1970-01-01T01:56:08.000Z</time>
      </trkpt>
      <trkpt lat="45.04535" lon="5.47661">
        <ele>1293</ele>
        <time>1970-01-01T01:56:13.000Z</time>
      </trkpt>
      <trkpt lat="45.04542" lon="5.47656">
        <ele>1292.6</ele>
        <time>1970-01-01T01:56:15.000Z</time>
      </trkpt>
      <trkpt lat="45.04546" lon="5.47655">
        <ele>1292.2</ele>
        <time>1970-01-01T01:56:16.000Z</time>
      </trkpt>
      <trkpt lat="45.0455" lon="5.47655">
        <ele>1291.8</ele>
        <time>1970-01-01T01:56:17.000Z</time>
      </trkpt>
      <trkpt lat="45.04555" lon="5.47657">
        <ele>1291.4</ele>
        <time>1970-01-01T01:56:18.000Z</time>
      </trkpt>
      <trkpt lat="45.04558" lon="5.47659">
        <ele>1291</ele>
        <time>1970-01-01T01:56:19.000Z</time>
      </trkpt>
      <trkpt lat="45.04561" lon="5.47663">
        <ele>1291</ele>
        <time>1970-01-01T01:56:20.000Z</time>
      </trkpt>
      <trkpt lat="45.04565" lon="5.47666">
        <ele>1291</ele>
        <time>1970-01-01T01:56:21.000Z</time>
      </trkpt>
      <trkpt lat="45.04569" lon="5.47668">
        <ele>1291</ele>
        <time>1970-01-01T01:56:22.000Z</time>
      </trkpt>
      <trkpt lat="45.04578" lon="5.47673">
        <ele>1291</ele>
        <time>1970-01-01T01:56:24.000Z</time>
      </trkpt>
      <trkpt lat="45.04589" lon="5.47679">
        <ele>1290.2</ele>
        <time>1970-01-01T01:56:26.000Z</time>
      </trkpt>
      <trkpt lat="45.04594" lon="5.47681">
        <ele>1289.6</ele>
        <time>1970-01-01T01:56:27.000Z</time>
      </trkpt>
      <trkpt lat="45.046" lon="5.47682">
        <ele>1289.2</ele>
        <time>1970-01-01T01:56:28.000Z</time>
      </trkpt>
      <trkpt lat="45.04606" lon="5.47684">
        <ele>1288.8</ele>
        <time>1970-01-01T01:56:29.000Z</time>
      </trkpt>
      <trkpt lat="45.04612" lon="5.47686">
        <ele>1288.8</ele>
        <time>1970-01-01T01:56:30.000Z</time>
      </trkpt>
      <trkpt lat="45.04625" lon="5.4769">
        <ele>1288.4</ele>
        <time>1970-01-01T01:56:32.000Z</time>
      </trkpt>
      <trkpt lat="45.04632" lon="5.47691">
        <ele>1287.8</ele>
        <time>1970-01-01T01:56:33.000Z</time>
      </trkpt>
      <trkpt lat="45.04639" lon="5.47692">
        <ele>1287.4</ele>
        <time>1970-01-01T01:56:34.000Z</time>
      </trkpt>
      <trkpt lat="45.04646" lon="5.47694">
        <ele>1287</ele>
        <time>1970-01-01T01:56:35.000Z</time>
      </trkpt>
      <trkpt lat="45.04653" lon="5.47694">
        <ele>1286.4</ele>
        <time>1970-01-01T01:56:36.000Z</time>
      </trkpt>
      <trkpt lat="45.0466" lon="5.47694">
        <ele>1286</ele>
        <time>1970-01-01T01:56:37.000Z</time>
      </trkpt>
      <trkpt lat="45.04666" lon="5.47697">
        <ele>1285.6</ele>
        <time>1970-01-01T01:56:38.000Z</time>
      </trkpt>
      <trkpt lat="45.04673" lon="5.47698">
        <ele>1285.2</ele>
        <time>1970-01-01T01:56:39.000Z</time>
      </trkpt>
      <trkpt lat="45.04678" lon="5.47699">
        <ele>1284.8</ele>
        <time>1970-01-01T01:56:40.000Z</time>
      </trkpt>
      <trkpt lat="45.04685" lon="5.47698">
        <ele>1284.2</ele>
        <time>1970-01-01T01:56:41.000Z</time>
      </trkpt>
      <trkpt lat="45.04706" lon="5.47698">
        <ele>1283.8</ele>
        <time>1970-01-01T01:56:44.000Z</time>
      </trkpt>
      <trkpt lat="45.04713" lon="5.47698">
        <ele>1283.2</ele>
        <time>1970-01-01T01:56:45.000Z</time>
      </trkpt>
      <trkpt lat="45.04721" lon="5.47698">
        <ele>1282.6</ele>
        <time>1970-01-01T01:56:46.000Z</time>
      </trkpt>
      <trkpt lat="45.04729" lon="5.47698">
        <ele>1282</ele>
        <time>1970-01-01T01:56:47.000Z</time>
      </trkpt>
      <trkpt lat="45.04736" lon="5.47697">
        <ele>1281.4</ele>
        <time>1970-01-01T01:56:48.000Z</time>
      </trkpt>
      <trkpt lat="45.04744" lon="5.47696">
        <ele>1280.8</ele>
        <time>1970-01-01T01:56:49.000Z</time>
      </trkpt>
      <trkpt lat="45.04752" lon="5.47695">
        <ele>1279.4</ele>
        <time>1970-01-01T01:56:50.000Z</time>
      </trkpt>
      <trkpt lat="45.0476" lon="5.47694">
        <ele>1278.8</ele>
        <time>1970-01-01T01:56:51.000Z</time>
      </trkpt>
      <trkpt lat="45.04769" lon="5.47692">
        <ele>1278</ele>
        <time>1970-01-01T01:56:52.000Z</time>
      </trkpt>
      <trkpt lat="45.04777" lon="5.4769">
        <ele>1277.4</ele>
        <time>1970-01-01T01:56:53.000Z</time>
      </trkpt>
      <trkpt lat="45.04785" lon="5.47688">
        <ele>1276.6</ele>
        <time>1970-01-01T01:56:54.000Z</time>
      </trkpt>
      <trkpt lat="45.04792" lon="5.47685">
        <ele>1275.8</ele>
        <time>1970-01-01T01:56:55.000Z</time>
      </trkpt>
      <trkpt lat="45.048" lon="5.47682">
        <ele>1275.2</ele>
        <time>1970-01-01T01:56:56.000Z</time>
      </trkpt>
      <trkpt lat="45.04808" lon="5.47679">
        <ele>1274.6</ele>
        <time>1970-01-01T01:56:57.000Z</time>
      </trkpt>
      <trkpt lat="45.04815" lon="5.47677">
        <ele>1273.8</ele>
        <time>1970-01-01T01:56:58.000Z</time>
      </trkpt>
      <trkpt lat="45.04823" lon="5.47677">
        <ele>1273.2</ele>
        <time>1970-01-01T01:56:59.000Z</time>
      </trkpt>
      <trkpt lat="45.04831" lon="5.47676">
        <ele>1272.6</ele>
        <time>1970-01-01T01:57:00.000Z</time>
      </trkpt>
      <trkpt lat="45.04838" lon="5.47674">
        <ele>1272</ele>
        <time>1970-01-01T01:57:01.000Z</time>
      </trkpt>
      <trkpt lat="45.04846" lon="5.47673">
        <ele>1271.4</ele>
        <time>1970-01-01T01:57:02.000Z</time>
      </trkpt>
      <trkpt lat="45.04855" lon="5.47671">
        <ele>1270.8</ele>
        <time>1970-01-01T01:57:03.000Z</time>
      </trkpt>
      <trkpt lat="45.04863" lon="5.4767">
        <ele>1270</ele>
        <time>1970-01-01T01:57:04.000Z</time>
      </trkpt>
      <trkpt lat="45.04872" lon="5.47669">
        <ele>1269.4</ele>
        <time>1970-01-01T01:57:05.000Z</time>
      </trkpt>
      <trkpt lat="45.04881" lon="5.4767">
        <ele>1268.8</ele>
        <time>1970-01-01T01:57:06.000Z</time>
      </trkpt>
      <trkpt lat="45.04892" lon="5.4767">
        <ele>1268</ele>
        <time>1970-01-01T01:57:07.000Z</time>
      </trkpt>
      <trkpt lat="45.04901" lon="5.47669">
        <ele>1267.4</ele>
        <time>1970-01-01T01:57:08.000Z</time>
      </trkpt>
      <trkpt lat="45.0491" lon="5.47668">
        <ele>1266.6</ele>
        <time>1970-01-01T01:57:09.000Z</time>
      </trkpt>
      <trkpt lat="45.04919" lon="5.47668">
        <ele>1266</ele>
        <time>1970-01-01T01:57:10.000Z</time>
      </trkpt>
      <trkpt lat="45.04929" lon="5.47667">
        <ele>1265.2</ele>
        <time>1970-01-01T01:57:11.000Z</time>
      </trkpt>
      <trkpt lat="45.04939" lon="5.47665">
        <ele>1264.4</ele>
        <time>1970-01-01T01:57:12.000Z</time>
      </trkpt>
      <trkpt lat="45.04949" lon="5.47662">
        <ele>1263.8</ele>
        <time>1970-01-01T01:57:13.000Z</time>
      </trkpt>
      <trkpt lat="45.04958" lon="5.47659">
        <ele>1263</ele>
        <time>1970-01-01T01:57:14.000Z</time>
      </trkpt>
      <trkpt lat="45.04967" lon="5.47654">
        <ele>1261.2</ele>
        <time>1970-01-01T01:57:15.000Z</time>
      </trkpt>
      <trkpt lat="45.04976" lon="5.47648">
        <ele>1260.2</ele>
        <time>1970-01-01T01:57:16.000Z</time>
      </trkpt>
      <trkpt lat="45.04985" lon="5.47642">
        <ele>1259.4</ele>
        <time>1970-01-01T01:57:17.000Z</time>
      </trkpt>
      <trkpt lat="45.04994" lon="5.47638">
        <ele>1258.4</ele>
        <time>1970-01-01T01:57:18.000Z</time>
      </trkpt>
      <trkpt lat="45.05003" lon="5.47635">
        <ele>1257.6</ele>
        <time>1970-01-01T01:57:19.000Z</time>
      </trkpt>
      <trkpt lat="45.05013" lon="5.47631">
        <ele>1256.6</ele>
        <time>1970-01-01T01:57:20.000Z</time>
      </trkpt>
      <trkpt lat="45.05022" lon="5.47626">
        <ele>1255.6</ele>
        <time>1970-01-01T01:57:21.000Z</time>
      </trkpt>
      <trkpt lat="45.05033" lon="5.47621">
        <ele>1254.6</ele>
        <time>1970-01-01T01:57:22.000Z</time>
      </trkpt>
      <trkpt lat="45.05042" lon="5.47615">
        <ele>1253.6</ele>
        <time>1970-01-01T01:57:23.000Z</time>
      </trkpt>
      <trkpt lat="45.05051" lon="5.47609">
        <ele>1252.6</ele>
        <time>1970-01-01T01:57:24.000Z</time>
      </trkpt>
      <trkpt lat="45.05061" lon="5.47604">
        <ele>1251.6</ele>
        <time>1970-01-01T01:57:25.000Z</time>
      </trkpt>
      <trkpt lat="45.05069" lon="5.47597">
        <ele>1250.6</ele>
        <time>1970-01-01T01:57:26.000Z</time>
      </trkpt>
      <trkpt lat="45.05075" lon="5.47594">
        <ele>1249.6</ele>
        <time>1970-01-01T01:57:27.000Z</time>
      </trkpt>
      <trkpt lat="45.05081" lon="5.47591">
        <ele>1248.6</ele>
        <time>1970-01-01T01:57:28.000Z</time>
      </trkpt>
      <trkpt lat="45.05084" lon="5.47589">
        <ele>1247.6</ele>
        <time>1970-01-01T01:57:29.000Z</time>
      </trkpt>
      <trkpt lat="45.05087" lon="5.47588">
        <ele>1246.8</ele>
        <time>1970-01-01T01:57:30.000Z</time>
      </trkpt>
      <trkpt lat="45.05089" lon="5.47587">
        <ele>1246</ele>
        <time>1970-01-01T01:57:31.000Z</time>
      </trkpt>
      <trkpt lat="45.05091" lon="5.47586">
        <ele>1245</ele>
        <time>1970-01-01T01:57:32.000Z</time>
      </trkpt>
      <trkpt lat="45.05093" lon="5.47584">
        <ele>1244.2</ele>
        <time>1970-01-01T01:57:33.000Z</time>
      </trkpt>
      <trkpt lat="45.05096" lon="5.47579">
        <ele>1244.2</ele>
        <time>1970-01-01T01:57:35.000Z</time>
      </trkpt>
      <trkpt lat="45.05099" lon="5.47571">
        <ele>1243.6</ele>
        <time>1970-01-01T01:57:37.000Z</time>
      </trkpt>
      <trkpt lat="45.05101" lon="5.47564">
        <ele>1243.2</ele>
        <time>1970-01-01T01:57:38.000Z</time>
      </trkpt>
      <trkpt lat="45.05104" lon="5.47557">
        <ele>1242.8</ele>
        <time>1970-01-01T01:57:39.000Z</time>
      </trkpt>
      <trkpt lat="45.05105" lon="5.47547">
        <ele>1242</ele>
        <time>1970-01-01T01:57:40.000Z</time>
      </trkpt>
      <trkpt lat="45.05105" lon="5.47538">
        <ele>1241.6</ele>
        <time>1970-01-01T01:57:41.000Z</time>
      </trkpt>
      <trkpt lat="45.05107" lon="5.47529">
        <ele>1241</ele>
        <time>1970-01-01T01:57:42.000Z</time>
      </trkpt>
      <trkpt lat="45.0511" lon="5.47519">
        <ele>1240.6</ele>
        <time>1970-01-01T01:57:43.000Z</time>
      </trkpt>
      <trkpt lat="45.05114" lon="5.4751">
        <ele>1240</ele>
        <time>1970-01-01T01:57:44.000Z</time>
      </trkpt>
      <trkpt lat="45.05117" lon="5.47503">
        <ele>1239.4</ele>
        <time>1970-01-01T01:57:45.000Z</time>
      </trkpt>
      <trkpt lat="45.05121" lon="5.47495">
        <ele>1238.6</ele>
        <time>1970-01-01T01:57:46.000Z</time>
      </trkpt>
      <trkpt lat="45.05125" lon="5.4749">
        <ele>1238</ele>
        <time>1970-01-01T01:57:47.000Z</time>
      </trkpt>
      <trkpt lat="45.05129" lon="5.47486">
        <ele>1237.2</ele>
        <time>1970-01-01T01:57:48.000Z</time>
      </trkpt>
      <trkpt lat="45.05133" lon="5.47482">
        <ele>1236.6</ele>
        <time>1970-01-01T01:57:49.000Z</time>
      </trkpt>
      <trkpt lat="45.05138" lon="5.47482">
        <ele>1235.8</ele>
        <time>1970-01-01T01:57:50.000Z</time>
      </trkpt>
      <trkpt lat="45.05142" lon="5.47479">
        <ele>1235</ele>
        <time>1970-01-01T01:57:51.000Z</time>
      </trkpt>
      <trkpt lat="45.05147" lon="5.47474">
        <ele>1234.2</ele>
        <time>1970-01-01T01:57:52.000Z</time>
      </trkpt>
      <trkpt lat="45.05147" lon="5.4747">
        <ele>1233.4</ele>
        <time>1970-01-01T01:57:53.000Z</time>
      </trkpt>
      <trkpt lat="45.0515" lon="5.47465">
        <ele>1232.6</ele>
        <time>1970-01-01T01:57:54.000Z</time>
      </trkpt>
      <trkpt lat="45.05153" lon="5.47464">
        <ele>1231.8</ele>
        <time>1970-01-01T01:57:55.000Z</time>
      </trkpt>
      <trkpt lat="45.05159" lon="5.47469">
        <ele>1230.2</ele>
        <time>1970-01-01T01:57:56.000Z</time>
      </trkpt>
      <trkpt lat="45.05162" lon="5.47471">
        <ele>1229.2</ele>
        <time>1970-01-01T01:57:57.000Z</time>
      </trkpt>
      <trkpt lat="45.05166" lon="5.47472">
        <ele>1228.4</ele>
        <time>1970-01-01T01:57:58.000Z</time>
      </trkpt>
      <trkpt lat="45.0517" lon="5.47474">
        <ele>1227.6</ele>
        <time>1970-01-01T01:57:59.000Z</time>
      </trkpt>
      <trkpt lat="45.05173" lon="5.47476">
        <ele>1227.2</ele>
        <time>1970-01-01T01:58:00.000Z</time>
      </trkpt>
      <trkpt lat="45.05177" lon="5.47478">
        <ele>1226.8</ele>
        <time>1970-01-01T01:58:01.000Z</time>
      </trkpt>
      <trkpt lat="45.05181" lon="5.4748">
        <ele>1226.4</ele>
        <time>1970-01-01T01:58:02.000Z</time>
      </trkpt>
      <trkpt lat="45.05186" lon="5.47481">
        <ele>1226</ele>
        <time>1970-01-01T01:58:03.000Z</time>
      </trkpt>
      <trkpt lat="45.05191" lon="5.47483">
        <ele>1225.6</ele>
        <time>1970-01-01T01:58:04.000Z</time>
      </trkpt>
      <trkpt lat="45.05197" lon="5.47486">
        <ele>1225.2</ele>
        <time>1970-01-01T01:58:05.000Z</time>
      </trkpt>
      <trkpt lat="45.05203" lon="5.47489">
        <ele>1224.8</ele>
        <time>1970-01-01T01:58:06.000Z</time>
      </trkpt>
      <trkpt lat="45.05208" lon="5.47492">
        <ele>1224.4</ele>
        <time>1970-01-01T01:58:07.000Z</time>
      </trkpt>
      <trkpt lat="45.05214" lon="5.47494">
        <ele>1223.8</ele>
        <time>1970-01-01T01:58:08.000Z</time>
      </trkpt>
      <trkpt lat="45.05218" lon="5.47497">
        <ele>1223.2</ele>
        <time>1970-01-01T01:58:09.000Z</time>
      </trkpt>
      <trkpt lat="45.05221" lon="5.47499">
        <ele>1222.8</ele>
        <time>1970-01-01T01:58:10.000Z</time>
      </trkpt>
      <trkpt lat="45.05223" lon="5.47501">
        <ele>1222.2</ele>
        <time>1970-01-01T01:58:11.000Z</time>
      </trkpt>
      <trkpt lat="45.05223" lon="5.47502">
        <ele>1221.6</ele>
        <time>1970-01-01T01:58:12.000Z</time>
      </trkpt>
      <trkpt lat="45.05226" lon="5.47503">
        <ele>1218.8</ele>
        <time>1970-01-01T01:58:31.000Z</time>
      </trkpt>
      <trkpt lat="45.05234" lon="5.47505">
        <ele>1218.8</ele>
        <time>1970-01-01T01:58:33.000Z</time>
      </trkpt>
      <trkpt lat="45.05248" lon="5.4751">
        <ele>1218.4</ele>
        <time>1970-01-01T01:58:37.000Z</time>
      </trkpt>
      <trkpt lat="45.05251" lon="5.47512">
        <ele>1218</ele>
        <time>1970-01-01T01:58:38.000Z</time>
      </trkpt>
      <trkpt lat="45.05254" lon="5.47514">
        <ele>1217.6</ele>
        <time>1970-01-01T01:58:39.000Z</time>
      </trkpt>
      <trkpt lat="45.05258" lon="5.47516">
        <ele>1217</ele>
        <time>1970-01-01T01:58:40.000Z</time>
      </trkpt>
      <trkpt lat="45.05261" lon="5.47517">
        <ele>1216.6</ele>
        <time>1970-01-01T01:58:41.000Z</time>
      </trkpt>
      <trkpt lat="45.05266" lon="5.47519">
        <ele>1216.2</ele>
        <time>1970-01-01T01:58:42.000Z</time>
      </trkpt>
      <trkpt lat="45.05271" lon="5.4752">
        <ele>1215.8</ele>
        <time>1970-01-01T01:58:43.000Z</time>
      </trkpt>
      <trkpt lat="45.05277" lon="5.47522">
        <ele>1215.4</ele>
        <time>1970-01-01T01:58:44.000Z</time>
      </trkpt>
      <trkpt lat="45.05283" lon="5.47525">
        <ele>1214.6</ele>
        <time>1970-01-01T01:58:45.000Z</time>
      </trkpt>
      <trkpt lat="45.05293" lon="5.47532">
        <ele>1214</ele>
        <time>1970-01-01T01:58:47.000Z</time>
      </trkpt>
      <trkpt lat="45.053" lon="5.47536">
        <ele>1213.6</ele>
        <time>1970-01-01T01:58:48.000Z</time>
      </trkpt>
      <trkpt lat="45.05306" lon="5.4754">
        <ele>1213.2</ele>
        <time>1970-01-01T01:58:49.000Z</time>
      </trkpt>
      <trkpt lat="45.05311" lon="5.47544">
        <ele>1212.6</ele>
        <time>1970-01-01T01:58:50.000Z</time>
      </trkpt>
      <trkpt lat="45.05318" lon="5.47549">
        <ele>1212</ele>
        <time>1970-01-01T01:58:51.000Z</time>
      </trkpt>
      <trkpt lat="45.05324" lon="5.47554">
        <ele>1211.6</ele>
        <time>1970-01-01T01:58:52.000Z</time>
      </trkpt>
      <trkpt lat="45.05332" lon="5.47559">
        <ele>1211</ele>
        <time>1970-01-01T01:58:53.000Z</time>
      </trkpt>
      <trkpt lat="45.05339" lon="5.47566">
        <ele>1210.2</ele>
        <time>1970-01-01T01:58:54.000Z</time>
      </trkpt>
      <trkpt lat="45.05346" lon="5.47572">
        <ele>1209.4</ele>
        <time>1970-01-01T01:58:55.000Z</time>
      </trkpt>
      <trkpt lat="45.05355" lon="5.47577">
        <ele>1208.8</ele>
        <time>1970-01-01T01:58:56.000Z</time>
      </trkpt>
      <trkpt lat="45.05363" lon="5.47582">
        <ele>1208</ele>
        <time>1970-01-01T01:58:57.000Z</time>
      </trkpt>
      <trkpt lat="45.05372" lon="5.47586">
        <ele>1207.2</ele>
        <time>1970-01-01T01:58:58.000Z</time>
      </trkpt>
      <trkpt lat="45.05381" lon="5.4759">
        <ele>1206.4</ele>
        <time>1970-01-01T01:58:59.000Z</time>
      </trkpt>
      <trkpt lat="45.05389" lon="5.47593">
        <ele>1205.8</ele>
        <time>1970-01-01T01:59:00.000Z</time>
      </trkpt>
      <trkpt lat="45.05397" lon="5.47596">
        <ele>1205</ele>
        <time>1970-01-01T01:59:01.000Z</time>
      </trkpt>
      <trkpt lat="45.05405" lon="5.47599">
        <ele>1204.2</ele>
        <time>1970-01-01T01:59:02.000Z</time>
      </trkpt>
      <trkpt lat="45.05414" lon="5.47603">
        <ele>1203.4</ele>
        <time>1970-01-01T01:59:03.000Z</time>
      </trkpt>
      <trkpt lat="45.05423" lon="5.47606">
        <ele>1202.6</ele>
        <time>1970-01-01T01:59:04.000Z</time>
      </trkpt>
      <trkpt lat="45.05432" lon="5.4761">
        <ele>1201.6</ele>
        <time>1970-01-01T01:59:05.000Z</time>
      </trkpt>
      <trkpt lat="45.05442" lon="5.47614">
        <ele>1200.6</ele>
        <time>1970-01-01T01:59:06.000Z</time>
      </trkpt>
      <trkpt lat="45.05452" lon="5.47617">
        <ele>1199.8</ele>
        <time>1970-01-01T01:59:07.000Z</time>
      </trkpt>
      <trkpt lat="45.05463" lon="5.4762">
        <ele>1198.8</ele>
        <time>1970-01-01T01:59:08.000Z</time>
      </trkpt>
      <trkpt lat="45.05473" lon="5.47623">
        <ele>1197.8</ele>
        <time>1970-01-01T01:59:09.000Z</time>
      </trkpt>
      <trkpt lat="45.05483" lon="5.47627">
        <ele>1196.8</ele>
        <time>1970-01-01T01:59:10.000Z</time>
      </trkpt>
      <trkpt lat="45.05494" lon="5.47631">
        <ele>1194.6</ele>
        <time>1970-01-01T01:59:11.000Z</time>
      </trkpt>
      <trkpt lat="45.05503" lon="5.47635">
        <ele>1193.6</ele>
        <time>1970-01-01T01:59:12.000Z</time>
      </trkpt>
      <trkpt lat="45.05511" lon="5.47641">
        <ele>1192.6</ele>
        <time>1970-01-01T01:59:13.000Z</time>
      </trkpt>
      <trkpt lat="45.05517" lon="5.47649">
        <ele>1191.4</ele>
        <time>1970-01-01T01:59:14.000Z</time>
      </trkpt>
      <trkpt lat="45.05523" lon="5.47656">
        <ele>1190.6</ele>
        <time>1970-01-01T01:59:15.000Z</time>
      </trkpt>
      <trkpt lat="45.05528" lon="5.47662">
        <ele>1189.8</ele>
        <time>1970-01-01T01:59:16.000Z</time>
      </trkpt>
      <trkpt lat="45.05532" lon="5.47666">
        <ele>1189</ele>
        <time>1970-01-01T01:59:17.000Z</time>
      </trkpt>
      <trkpt lat="45.05535" lon="5.47668">
        <ele>1188.2</ele>
        <time>1970-01-01T01:59:18.000Z</time>
      </trkpt>
      <trkpt lat="45.05539" lon="5.4767">
        <ele>1187.4</ele>
        <time>1970-01-01T01:59:19.000Z</time>
      </trkpt>
      <trkpt lat="45.05547" lon="5.47677">
        <ele>1187.4</ele>
        <time>1970-01-01T01:59:23.000Z</time>
      </trkpt>
      <trkpt lat="45.05549" lon="5.47678">
        <ele>1186.8</ele>
        <time>1970-01-01T01:59:24.000Z</time>
      </trkpt>
      <trkpt lat="45.0555" lon="5.47679">
        <ele>1186.4</ele>
        <time>1970-01-01T01:59:25.000Z</time>
      </trkpt>
      <trkpt lat="45.05553" lon="5.47681">
        <ele>1186</ele>
        <time>1970-01-01T01:59:26.000Z</time>
      </trkpt>
      <trkpt lat="45.05555" lon="5.47682">
        <ele>1185.6</ele>
        <time>1970-01-01T01:59:27.000Z</time>
      </trkpt>
      <trkpt lat="45.05557" lon="5.47683">
        <ele>1185.2</ele>
        <time>1970-01-01T01:59:28.000Z</time>
      </trkpt>
      <trkpt lat="45.05568" lon="5.47689">
        <ele>1184.6</ele>
        <time>1970-01-01T01:59:31.000Z</time>
      </trkpt>
      <trkpt lat="45.05573" lon="5.47693">
        <ele>1184.2</ele>
        <time>1970-01-01T01:59:32.000Z</time>
      </trkpt>
      <trkpt lat="45.05577" lon="5.47697">
        <ele>1183.6</ele>
        <time>1970-01-01T01:59:33.000Z</time>
      </trkpt>
      <trkpt lat="45.05582" lon="5.47701">
        <ele>1183.2</ele>
        <time>1970-01-01T01:59:34.000Z</time>
      </trkpt>
      <trkpt lat="45.05587" lon="5.47706">
        <ele>1182.6</ele>
        <time>1970-01-01T01:59:35.000Z</time>
      </trkpt>
      <trkpt lat="45.05592" lon="5.47711">
        <ele>1182.2</ele>
        <time>1970-01-01T01:59:36.000Z</time>
      </trkpt>
      <trkpt lat="45.05598" lon="5.47716">
        <ele>1181.2</ele>
        <time>1970-01-01T01:59:37.000Z</time>
      </trkpt>
      <trkpt lat="45.05603" lon="5.47722">
        <ele>1180.6</ele>
        <time>1970-01-01T01:59:38.000Z</time>
      </trkpt>
      <trkpt lat="45.05612" lon="5.47732">
        <ele>1180.6</ele>
        <time>1970-01-01T01:59:40.000Z</time>
      </trkpt>
      <trkpt lat="45.05625" lon="5.47749">
        <ele>1180.2</ele>
        <time>1970-01-01T01:59:43.000Z</time>
      </trkpt>
      <trkpt lat="45.0563" lon="5.47755">
        <ele>1179.2</ele>
        <time>1970-01-01T01:59:44.000Z</time>
      </trkpt>
      <trkpt lat="45.05636" lon="5.47762">
        <ele>1178.8</ele>
        <time>1970-01-01T01:59:45.000Z</time>
      </trkpt>
      <trkpt lat="45.05642" lon="5.47769">
        <ele>1178.4</ele>
        <time>1970-01-01T01:59:46.000Z</time>
      </trkpt>
      <trkpt lat="45.05646" lon="5.47775">
        <ele>1178</ele>
        <time>1970-01-01T01:59:47.000Z</time>
      </trkpt>
      <trkpt lat="45.05652" lon="5.47782">
        <ele>1177.6</ele>
        <time>1970-01-01T01:59:49.000Z</time>
      </trkpt>
      <trkpt lat="45.05658" lon="5.4779">
        <ele>1177.2</ele>
        <time>1970-01-01T01:59:50.000Z</time>
      </trkpt>
      <trkpt lat="45.05664" lon="5.47797">
        <ele>1176.8</ele>
        <time>1970-01-01T01:59:51.000Z</time>
      </trkpt>
      <trkpt lat="45.05668" lon="5.47805">
        <ele>1176.4</ele>
        <time>1970-01-01T01:59:52.000Z</time>
      </trkpt>
      <trkpt lat="45.05683" lon="5.47828">
        <ele>1176.4</ele>
        <time>1970-01-01T01:59:55.000Z</time>
      </trkpt>
      <trkpt lat="45.05694" lon="5.47842">
        <ele>1176</ele>
        <time>1970-01-01T01:59:57.000Z</time>
      </trkpt>
      <trkpt lat="45.057" lon="5.47849">
        <ele>1175.6</ele>
        <time>1970-01-01T01:59:58.000Z</time>
      </trkpt>
      <trkpt lat="45.05706" lon="5.47855">
        <ele>1175.2</ele>
        <time>1970-01-01T01:59:59.000Z</time>
      </trkpt>
      <trkpt lat="45.05713" lon="5.47858">
        <ele>1174.6</ele>
        <time>1970-01-01T02:00:00.000Z</time>
      </trkpt>
      <trkpt lat="45.05719" lon="5.47863">
        <ele>1174.2</ele>
        <time>1970-01-01T02:00:01.000Z</time>
      </trkpt>
      <trkpt lat="45.05728" lon="5.47877">
        <ele>1173.8</ele>
        <time>1970-01-01T02:00:03.000Z</time>
      </trkpt>
      <trkpt lat="45.05732" lon="5.47884">
        <ele>1173.4</ele>
        <time>1970-01-01T02:00:04.000Z</time>
      </trkpt>
      <trkpt lat="45.05734" lon="5.4789">
        <ele>1173</ele>
        <time>1970-01-01T02:00:05.000Z</time>
      </trkpt>
      <trkpt lat="45.05737" lon="5.47896">
        <ele>1172.6</ele>
        <time>1970-01-01T02:00:06.000Z</time>
      </trkpt>
      <trkpt lat="45.05741" lon="5.47904">
        <ele>1172.2</ele>
        <time>1970-01-01T02:00:07.000Z</time>
      </trkpt>
      <trkpt lat="45.05744" lon="5.47909">
        <ele>1171.8</ele>
        <time>1970-01-01T02:00:08.000Z</time>
      </trkpt>
      <trkpt lat="45.05746" lon="5.47917">
        <ele>1171.4</ele>
        <time>1970-01-01T02:00:09.000Z</time>
      </trkpt>
      <trkpt lat="45.05748" lon="5.47923">
        <ele>1170.6</ele>
        <time>1970-01-01T02:00:10.000Z</time>
      </trkpt>
      <trkpt lat="45.0575" lon="5.47929">
        <ele>1170.2</ele>
        <time>1970-01-01T02:00:11.000Z</time>
      </trkpt>
      <trkpt lat="45.05758" lon="5.47941">
        <ele>1170.2</ele>
        <time>1970-01-01T02:00:13.000Z</time>
      </trkpt>
      <trkpt lat="45.05764" lon="5.47953">
        <ele>1169.8</ele>
        <time>1970-01-01T02:00:15.000Z</time>
      </trkpt>
      <trkpt lat="45.05768" lon="5.47959">
        <ele>1169.2</ele>
        <time>1970-01-01T02:00:16.000Z</time>
      </trkpt>
      <trkpt lat="45.0577" lon="5.47965">
        <ele>1168.8</ele>
        <time>1970-01-01T02:00:17.000Z</time>
      </trkpt>
      <trkpt lat="45.05774" lon="5.47969">
        <ele>1168.4</ele>
        <time>1970-01-01T02:00:18.000Z</time>
      </trkpt>
      <trkpt lat="45.05778" lon="5.47973">
        <ele>1168</ele>
        <time>1970-01-01T02:00:19.000Z</time>
      </trkpt>
      <trkpt lat="45.05781" lon="5.47978">
        <ele>1167.6</ele>
        <time>1970-01-01T02:00:20.000Z</time>
      </trkpt>
      <trkpt lat="45.05784" lon="5.47984">
        <ele>1167</ele>
        <time>1970-01-01T02:00:21.000Z</time>
      </trkpt>
      <trkpt lat="45.05788" lon="5.4799">
        <ele>1166.6</ele>
        <time>1970-01-01T02:00:22.000Z</time>
      </trkpt>
      <trkpt lat="45.05791" lon="5.47997">
        <ele>1166</ele>
        <time>1970-01-01T02:00:23.000Z</time>
      </trkpt>
      <trkpt lat="45.05794" lon="5.48004">
        <ele>1165.6</ele>
        <time>1970-01-01T02:00:24.000Z</time>
      </trkpt>
      <trkpt lat="45.05798" lon="5.48011">
        <ele>1165</ele>
        <time>1970-01-01T02:00:25.000Z</time>
      </trkpt>
      <trkpt lat="45.05801" lon="5.48017">
        <ele>1164.6</ele>
        <time>1970-01-01T02:00:26.000Z</time>
      </trkpt>
      <trkpt lat="45.05803" lon="5.48022">
        <ele>1164</ele>
        <time>1970-01-01T02:00:27.000Z</time>
      </trkpt>
      <trkpt lat="45.05805" lon="5.48027">
        <ele>1163.6</ele>
        <time>1970-01-01T02:00:28.000Z</time>
      </trkpt>
      <trkpt lat="45.05807" lon="5.48032">
        <ele>1163</ele>
        <time>1970-01-01T02:00:29.000Z</time>
      </trkpt>
      <trkpt lat="45.0581" lon="5.48035">
        <ele>1162.4</ele>
        <time>1970-01-01T02:00:30.000Z</time>
      </trkpt>
      <trkpt lat="45.05813" lon="5.48039">
        <ele>1161.8</ele>
        <time>1970-01-01T02:00:31.000Z</time>
      </trkpt>
      <trkpt lat="45.05816" lon="5.48043">
        <ele>1161.2</ele>
        <time>1970-01-01T02:00:32.000Z</time>
      </trkpt>
      <trkpt lat="45.05819" lon="5.48048">
        <ele>1160.4</ele>
        <time>1970-01-01T02:00:33.000Z</time>
      </trkpt>
      <trkpt lat="45.05822" lon="5.48054">
        <ele>1159</ele>
        <time>1970-01-01T02:00:34.000Z</time>
      </trkpt>
      <trkpt lat="45.05825" lon="5.48059">
        <ele>1158.4</ele>
        <time>1970-01-01T02:00:35.000Z</time>
      </trkpt>
      <trkpt lat="45.05829" lon="5.48064">
        <ele>1157.4</ele>
        <time>1970-01-01T02:00:36.000Z</time>
      </trkpt>
      <trkpt lat="45.05832" lon="5.4807">
        <ele>1156.6</ele>
        <time>1970-01-01T02:00:37.000Z</time>
      </trkpt>
      <trkpt lat="45.05836" lon="5.48075">
        <ele>1155.6</ele>
        <time>1970-01-01T02:00:38.000Z</time>
      </trkpt>
      <trkpt lat="45.0584" lon="5.48079">
        <ele>1154.8</ele>
        <time>1970-01-01T02:00:39.000Z</time>
      </trkpt>
      <trkpt lat="45.05846" lon="5.48087">
        <ele>1154</ele>
        <time>1970-01-01T02:00:40.000Z</time>
      </trkpt>
      <trkpt lat="45.05852" lon="5.48092">
        <ele>1153</ele>
        <time>1970-01-01T02:00:41.000Z</time>
      </trkpt>
      <trkpt lat="45.05858" lon="5.48097">
        <ele>1152.2</ele>
        <time>1970-01-01T02:00:42.000Z</time>
      </trkpt>
      <trkpt lat="45.05864" lon="5.481">
        <ele>1151.2</ele>
        <time>1970-01-01T02:00:43.000Z</time>
      </trkpt>
      <trkpt lat="45.05869" lon="5.48105">
        <ele>1150.4</ele>
        <time>1970-01-01T02:00:44.000Z</time>
      </trkpt>
      <trkpt lat="45.05874" lon="5.48108">
        <ele>1149.6</ele>
        <time>1970-01-01T02:00:45.000Z</time>
      </trkpt>
      <trkpt lat="45.05878" lon="5.48113">
        <ele>1148.6</ele>
        <time>1970-01-01T02:00:46.000Z</time>
      </trkpt>
      <trkpt lat="45.05881" lon="5.48117">
        <ele>1147.6</ele>
        <time>1970-01-01T02:00:47.000Z</time>
      </trkpt>
      <trkpt lat="45.05884" lon="5.48121">
        <ele>1146.8</ele>
        <time>1970-01-01T02:00:48.000Z</time>
      </trkpt>
      <trkpt lat="45.05886" lon="5.48124">
        <ele>1145.8</ele>
        <time>1970-01-01T02:00:49.000Z</time>
      </trkpt>
      <trkpt lat="45.05887" lon="5.48127">
        <ele>1144.8</ele>
        <time>1970-01-01T02:00:50.000Z</time>
      </trkpt>
      <trkpt lat="45.05889" lon="5.48131">
        <ele>1144</ele>
        <time>1970-01-01T02:00:51.000Z</time>
      </trkpt>
      <trkpt lat="45.05892" lon="5.48135">
        <ele>1143</ele>
        <time>1970-01-01T02:00:52.000Z</time>
      </trkpt>
      <trkpt lat="45.05894" lon="5.48138">
        <ele>1142.2</ele>
        <time>1970-01-01T02:00:53.000Z</time>
      </trkpt>
      <trkpt lat="45.05898" lon="5.48143">
        <ele>1141.4</ele>
        <time>1970-01-01T02:00:54.000Z</time>
      </trkpt>
      <trkpt lat="45.05902" lon="5.48147">
        <ele>1140.8</ele>
        <time>1970-01-01T02:00:55.000Z</time>
      </trkpt>
      <trkpt lat="45.05906" lon="5.48149">
        <ele>1140</ele>
        <time>1970-01-01T02:00:56.000Z</time>
      </trkpt>
      <trkpt lat="45.05909" lon="5.48151">
        <ele>1139.4</ele>
        <time>1970-01-01T02:00:57.000Z</time>
      </trkpt>
      <trkpt lat="45.05913" lon="5.48156">
        <ele>1138.6</ele>
        <time>1970-01-01T02:00:58.000Z</time>
      </trkpt>
      <trkpt lat="45.05916" lon="5.48161">
        <ele>1137</ele>
        <time>1970-01-01T02:00:59.000Z</time>
      </trkpt>
      <trkpt lat="45.0592" lon="5.48165">
        <ele>1136.2</ele>
        <time>1970-01-01T02:01:00.000Z</time>
      </trkpt>
      <trkpt lat="45.05925" lon="5.4817">
        <ele>1135.4</ele>
        <time>1970-01-01T02:01:01.000Z</time>
      </trkpt>
      <trkpt lat="45.05929" lon="5.48171">
        <ele>1134.8</ele>
        <time>1970-01-01T02:01:02.000Z</time>
      </trkpt>
      <trkpt lat="45.05933" lon="5.48172">
        <ele>1134</ele>
        <time>1970-01-01T02:01:03.000Z</time>
      </trkpt>
      <trkpt lat="45.05936" lon="5.48175">
        <ele>1133.2</ele>
        <time>1970-01-01T02:01:04.000Z</time>
      </trkpt>
      <trkpt lat="45.05939" lon="5.48179">
        <ele>1132.6</ele>
        <time>1970-01-01T02:01:05.000Z</time>
      </trkpt>
      <trkpt lat="45.05941" lon="5.48182">
        <ele>1131.8</ele>
        <time>1970-01-01T02:01:06.000Z</time>
      </trkpt>
      <trkpt lat="45.05944" lon="5.48186">
        <ele>1131.2</ele>
        <time>1970-01-01T02:01:07.000Z</time>
      </trkpt>
      <trkpt lat="45.05946" lon="5.4819">
        <ele>1130.4</ele>
        <time>1970-01-01T02:01:08.000Z</time>
      </trkpt>
      <trkpt lat="45.05949" lon="5.48194">
        <ele>1129.4</ele>
        <time>1970-01-01T02:01:09.000Z</time>
      </trkpt>
      <trkpt lat="45.05952" lon="5.48198">
        <ele>1128.6</ele>
        <time>1970-01-01T02:01:10.000Z</time>
      </trkpt>
      <trkpt lat="45.05956" lon="5.48201">
        <ele>1127.8</ele>
        <time>1970-01-01T02:01:11.000Z</time>
      </trkpt>
      <trkpt lat="45.05959" lon="5.48203">
        <ele>1127</ele>
        <time>1970-01-01T02:01:12.000Z</time>
      </trkpt>
      <trkpt lat="45.05962" lon="5.48205">
        <ele>1126.2</ele>
        <time>1970-01-01T02:01:13.000Z</time>
      </trkpt>
      <trkpt lat="45.05965" lon="5.48208">
        <ele>1125.4</ele>
        <time>1970-01-01T02:01:14.000Z</time>
      </trkpt>
      <trkpt lat="45.05968" lon="5.48211">
        <ele>1124.4</ele>
        <time>1970-01-01T02:01:15.000Z</time>
      </trkpt>
      <trkpt lat="45.05972" lon="5.48214">
        <ele>1123.6</ele>
        <time>1970-01-01T02:01:16.000Z</time>
      </trkpt>
      <trkpt lat="45.05975" lon="5.48218">
        <ele>1122.6</ele>
        <time>1970-01-01T02:01:17.000Z</time>
      </trkpt>
      <trkpt lat="45.05978" lon="5.4822">
        <ele>1121.8</ele>
        <time>1970-01-01T02:01:18.000Z</time>
      </trkpt>
      <trkpt lat="45.05982" lon="5.48223">
        <ele>1120.8</ele>
        <time>1970-01-01T02:01:19.000Z</time>
      </trkpt>
      <trkpt lat="45.05985" lon="5.48227">
        <ele>1119.8</ele>
        <time>1970-01-01T02:01:20.000Z</time>
      </trkpt>
      <trkpt lat="45.0599" lon="5.4823">
        <ele>1118.8</ele>
        <time>1970-01-01T02:01:21.000Z</time>
      </trkpt>
      <trkpt lat="45.05993" lon="5.48234">
        <ele>1118</ele>
        <time>1970-01-01T02:01:22.000Z</time>
      </trkpt>
      <trkpt lat="45.05998" lon="5.48236">
        <ele>1117</ele>
        <time>1970-01-01T02:01:23.000Z</time>
      </trkpt>
      <trkpt lat="45.06002" lon="5.48238">
        <ele>1115.4</ele>
        <time>1970-01-01T02:01:24.000Z</time>
      </trkpt>
      <trkpt lat="45.06007" lon="5.4824">
        <ele>1114.4</ele>
        <time>1970-01-01T02:01:25.000Z</time>
      </trkpt>
      <trkpt lat="45.06012" lon="5.48242">
        <ele>1113.6</ele>
        <time>1970-01-01T02:01:26.000Z</time>
      </trkpt>
      <trkpt lat="45.06018" lon="5.48244">
        <ele>1112.8</ele>
        <time>1970-01-01T02:01:27.000Z</time>
      </trkpt>
      <trkpt lat="45.06023" lon="5.48245">
        <ele>1112</ele>
        <time>1970-01-01T02:01:28.000Z</time>
      </trkpt>
      <trkpt lat="45.06027" lon="5.48247">
        <ele>1111.2</ele>
        <time>1970-01-01T02:01:29.000Z</time>
      </trkpt>
      <trkpt lat="45.06032" lon="5.4825">
        <ele>1110.4</ele>
        <time>1970-01-01T02:01:30.000Z</time>
      </trkpt>
      <trkpt lat="45.06037" lon="5.48253">
        <ele>1109.6</ele>
        <time>1970-01-01T02:01:31.000Z</time>
      </trkpt>
      <trkpt lat="45.06042" lon="5.48254">
        <ele>1108.8</ele>
        <time>1970-01-01T02:01:32.000Z</time>
      </trkpt>
      <trkpt lat="45.06046" lon="5.48257">
        <ele>1108</ele>
        <time>1970-01-01T02:01:33.000Z</time>
      </trkpt>
      <trkpt lat="45.06049" lon="5.4826">
        <ele>1107.2</ele>
        <time>1970-01-01T02:01:34.000Z</time>
      </trkpt>
      <trkpt lat="45.06053" lon="5.48263">
        <ele>1106.6</ele>
        <time>1970-01-01T02:01:35.000Z</time>
      </trkpt>
      <trkpt lat="45.06057" lon="5.48264">
        <ele>1105.8</ele>
        <time>1970-01-01T02:01:36.000Z</time>
      </trkpt>
      <trkpt lat="45.06061" lon="5.48267">
        <ele>1105.2</ele>
        <time>1970-01-01T02:01:37.000Z</time>
      </trkpt>
      <trkpt lat="45.06066" lon="5.48272">
        <ele>1104.4</ele>
        <time>1970-01-01T02:01:38.000Z</time>
      </trkpt>
      <trkpt lat="45.0607" lon="5.48277">
        <ele>1103.8</ele>
        <time>1970-01-01T02:01:39.000Z</time>
      </trkpt>
      <trkpt lat="45.06074" lon="5.48281">
        <ele>1103</ele>
        <time>1970-01-01T02:01:40.000Z</time>
      </trkpt>
      <trkpt lat="45.06078" lon="5.48284">
        <ele>1102.2</ele>
        <time>1970-01-01T02:01:41.000Z</time>
      </trkpt>
      <trkpt lat="45.06082" lon="5.48285">
        <ele>1101.6</ele>
        <time>1970-01-01T02:01:42.000Z</time>
      </trkpt>
      <trkpt lat="45.06086" lon="5.48288">
        <ele>1101</ele>
        <time>1970-01-01T02:01:43.000Z</time>
      </trkpt>
      <trkpt lat="45.0609" lon="5.4829">
        <ele>1100.2</ele>
        <time>1970-01-01T02:01:44.000Z</time>
      </trkpt>
      <trkpt lat="45.06096" lon="5.48292">
        <ele>1099.6</ele>
        <time>1970-01-01T02:01:45.000Z</time>
      </trkpt>
      <trkpt lat="45.06101" lon="5.48295">
        <ele>1098.8</ele>
        <time>1970-01-01T02:01:46.000Z</time>
      </trkpt>
      <trkpt lat="45.06108" lon="5.48299">
        <ele>1098</ele>
        <time>1970-01-01T02:01:47.000Z</time>
      </trkpt>
      <trkpt lat="45.06115" lon="5.48303">
        <ele>1097.2</ele>
        <time>1970-01-01T02:01:48.000Z</time>
      </trkpt>
      <trkpt lat="45.0612" lon="5.48304">
        <ele>1095.6</ele>
        <time>1970-01-01T02:01:49.000Z</time>
      </trkpt>
      <trkpt lat="45.06127" lon="5.48304">
        <ele>1095</ele>
        <time>1970-01-01T02:01:50.000Z</time>
      </trkpt>
      <trkpt lat="45.06135" lon="5.48308">
        <ele>1094.2</ele>
        <time>1970-01-01T02:01:51.000Z</time>
      </trkpt>
      <trkpt lat="45.06141" lon="5.48313">
        <ele>1093.6</ele>
        <time>1970-01-01T02:01:52.000Z</time>
      </trkpt>
      <trkpt lat="45.06147" lon="5.48314">
        <ele>1093</ele>
        <time>1970-01-01T02:01:53.000Z</time>
      </trkpt>
      <trkpt lat="45.06155" lon="5.48318">
        <ele>1092.4</ele>
        <time>1970-01-01T02:01:54.000Z</time>
      </trkpt>
      <trkpt lat="45.0616" lon="5.48321">
        <ele>1091.8</ele>
        <time>1970-01-01T02:01:55.000Z</time>
      </trkpt>
      <trkpt lat="45.0617" lon="5.48327">
        <ele>1091.2</ele>
        <time>1970-01-01T02:01:56.000Z</time>
      </trkpt>
      <trkpt lat="45.06177" lon="5.48333">
        <ele>1090.6</ele>
        <time>1970-01-01T02:01:57.000Z</time>
      </trkpt>
      <trkpt lat="45.06184" lon="5.48341">
        <ele>1089.8</ele>
        <time>1970-01-01T02:01:58.000Z</time>
      </trkpt>
      <trkpt lat="45.06192" lon="5.48349">
        <ele>1089</ele>
        <time>1970-01-01T02:01:59.000Z</time>
      </trkpt>
      <trkpt lat="45.06201" lon="5.48356">
        <ele>1088.2</ele>
        <time>1970-01-01T02:02:00.000Z</time>
      </trkpt>
      <trkpt lat="45.0621" lon="5.4836">
        <ele>1087.4</ele>
        <time>1970-01-01T02:02:01.000Z</time>
      </trkpt>
      <trkpt lat="45.06217" lon="5.48368">
        <ele>1086.6</ele>
        <time>1970-01-01T02:02:02.000Z</time>
      </trkpt>
      <trkpt lat="45.06223" lon="5.48373">
        <ele>1085.6</ele>
        <time>1970-01-01T02:02:03.000Z</time>
      </trkpt>
      <trkpt lat="45.06228" lon="5.48379">
        <ele>1084.8</ele>
        <time>1970-01-01T02:02:04.000Z</time>
      </trkpt>
      <trkpt lat="45.06234" lon="5.48386">
        <ele>1083.8</ele>
        <time>1970-01-01T02:02:05.000Z</time>
      </trkpt>
      <trkpt lat="45.06239" lon="5.48395">
        <ele>1082.8</ele>
        <time>1970-01-01T02:02:06.000Z</time>
      </trkpt>
      <trkpt lat="45.06247" lon="5.48408">
        <ele>1082</ele>
        <time>1970-01-01T02:02:07.000Z</time>
      </trkpt>
      <trkpt lat="45.06254" lon="5.48419">
        <ele>1081</ele>
        <time>1970-01-01T02:02:08.000Z</time>
      </trkpt>
      <trkpt lat="45.06262" lon="5.4843">
        <ele>1080.2</ele>
        <time>1970-01-01T02:02:09.000Z</time>
      </trkpt>
      <trkpt lat="45.06268" lon="5.48441">
        <ele>1079.2</ele>
        <time>1970-01-01T02:02:10.000Z</time>
      </trkpt>
      <trkpt lat="45.06273" lon="5.48451">
        <ele>1078.4</ele>
        <time>1970-01-01T02:02:11.000Z</time>
      </trkpt>
      <trkpt lat="45.06276" lon="5.48464">
        <ele>1077.4</ele>
        <time>1970-01-01T02:02:12.000Z</time>
      </trkpt>
      <trkpt lat="45.0628" lon="5.48476">
        <ele>1075.8</ele>
        <time>1970-01-01T02:02:13.000Z</time>
      </trkpt>
      <trkpt lat="45.06285" lon="5.48482">
        <ele>1075</ele>
        <time>1970-01-01T02:02:14.000Z</time>
      </trkpt>
      <trkpt lat="45.06292" lon="5.48493">
        <ele>1074.2</ele>
        <time>1970-01-01T02:02:15.000Z</time>
      </trkpt>
      <trkpt lat="45.06297" lon="5.48505">
        <ele>1073.4</ele>
        <time>1970-01-01T02:02:16.000Z</time>
      </trkpt>
      <trkpt lat="45.06301" lon="5.48513">
        <ele>1072.6</ele>
        <time>1970-01-01T02:02:17.000Z</time>
      </trkpt>
      <trkpt lat="45.06307" lon="5.48522">
        <ele>1071.8</ele>
        <time>1970-01-01T02:02:18.000Z</time>
      </trkpt>
      <trkpt lat="45.06313" lon="5.48532">
        <ele>1071</ele>
        <time>1970-01-01T02:02:19.000Z</time>
      </trkpt>
      <trkpt lat="45.06318" lon="5.48541">
        <ele>1070.4</ele>
        <time>1970-01-01T02:02:20.000Z</time>
      </trkpt>
      <trkpt lat="45.06324" lon="5.4855">
        <ele>1069.6</ele>
        <time>1970-01-01T02:02:21.000Z</time>
      </trkpt>
      <trkpt lat="45.0633" lon="5.48561">
        <ele>1068.8</ele>
        <time>1970-01-01T02:02:22.000Z</time>
      </trkpt>
      <trkpt lat="45.06335" lon="5.48573">
        <ele>1067.8</ele>
        <time>1970-01-01T02:02:23.000Z</time>
      </trkpt>
      <trkpt lat="45.06338" lon="5.48585">
        <ele>1067</ele>
        <time>1970-01-01T02:02:24.000Z</time>
      </trkpt>
      <trkpt lat="45.06342" lon="5.48595">
        <ele>1066.2</ele>
        <time>1970-01-01T02:02:25.000Z</time>
      </trkpt>
      <trkpt lat="45.06345" lon="5.48605">
        <ele>1065.4</ele>
        <time>1970-01-01T02:02:26.000Z</time>
      </trkpt>
      <trkpt lat="45.06349" lon="5.48615">
        <ele>1064.6</ele>
        <time>1970-01-01T02:02:27.000Z</time>
      </trkpt>
      <trkpt lat="45.06353" lon="5.48624">
        <ele>1063.6</ele>
        <time>1970-01-01T02:02:28.000Z</time>
      </trkpt>
      <trkpt lat="45.06356" lon="5.48632">
        <ele>1062.8</ele>
        <time>1970-01-01T02:02:29.000Z</time>
      </trkpt>
      <trkpt lat="45.06376" lon="5.4868">
        <ele>1062.8</ele>
        <time>1970-01-01T02:02:35.000Z</time>
      </trkpt>
      <trkpt lat="45.06378" lon="5.48686">
        <ele>1062.8</ele>
        <time>1970-01-01T02:02:36.000Z</time>
      </trkpt>
      <trkpt lat="45.06391" lon="5.48718">
        <ele>1062.8</ele>
        <time>1970-01-01T02:02:41.000Z</time>
      </trkpt>
      <trkpt lat="45.06394" lon="5.48727">
        <ele>1062.4</ele>
        <time>1970-01-01T02:02:43.000Z</time>
      </trkpt>
      <trkpt lat="45.06396" lon="5.4873">
        <ele>1062</ele>
        <time>1970-01-01T02:02:44.000Z</time>
      </trkpt>
      <trkpt lat="45.06397" lon="5.48734">
        <ele>1061.4</ele>
        <time>1970-01-01T02:02:45.000Z</time>
      </trkpt>
      <trkpt lat="45.06398" lon="5.48737">
        <ele>1061</ele>
        <time>1970-01-01T02:02:46.000Z</time>
      </trkpt>
      <trkpt lat="45.064" lon="5.48741">
        <ele>1060.6</ele>
        <time>1970-01-01T02:02:47.000Z</time>
      </trkpt>
      <trkpt lat="45.06403" lon="5.48748">
        <ele>1061</ele>
        <time>1970-01-01T02:02:49.000Z</time>
      </trkpt>
      <trkpt lat="45.06404" lon="5.48751">
        <ele>1061.4</ele>
        <time>1970-01-01T02:02:50.000Z</time>
      </trkpt>
      <trkpt lat="45.06406" lon="5.48755">
        <ele>1061.8</ele>
        <time>1970-01-01T02:02:51.000Z</time>
      </trkpt>
      <trkpt lat="45.06406" lon="5.48756">
        <ele>1062.2</ele>
        <time>1970-01-01T02:02:52.000Z</time>
      </trkpt>
      <trkpt lat="45.06407" lon="5.48758">
        <ele>1062.6</ele>
        <time>1970-01-01T02:02:53.000Z</time>
      </trkpt>
      <trkpt lat="45.0641" lon="5.48769">
        <ele>1062.6</ele>
        <time>1970-01-01T02:02:58.000Z</time>
      </trkpt>
      <trkpt lat="45.06414" lon="5.48786">
        <ele>1063.6</ele>
        <time>1970-01-01T02:03:03.000Z</time>
      </trkpt>
      <trkpt lat="45.06415" lon="5.48789">
        <ele>1064.2</ele>
        <time>1970-01-01T02:03:04.000Z</time>
      </trkpt>
      <trkpt lat="45.06416" lon="5.48792">
        <ele>1064.6</ele>
        <time>1970-01-01T02:03:05.000Z</time>
      </trkpt>
      <trkpt lat="45.06416" lon="5.48794">
        <ele>1065.2</ele>
        <time>1970-01-01T02:03:06.000Z</time>
      </trkpt>
      <trkpt lat="45.06416" lon="5.48804">
        <ele>1065.2</ele>
        <time>1970-01-01T02:03:10.000Z</time>
      </trkpt>
      <trkpt lat="45.0642" lon="5.48827">
        <ele>1065.2</ele>
        <time>1970-01-01T02:03:18.000Z</time>
      </trkpt>
      <trkpt lat="45.06422" lon="5.48842">
        <ele>1065.6</ele>
        <time>1970-01-01T02:03:24.000Z</time>
      </trkpt>
      <trkpt lat="45.06422" lon="5.48845">
        <ele>1066</ele>
        <time>1970-01-01T02:03:25.000Z</time>
      </trkpt>
      <trkpt lat="45.06422" lon="5.48848">
        <ele>1066.4</ele>
        <time>1970-01-01T02:03:26.000Z</time>
      </trkpt>
      <trkpt lat="45.06421" lon="5.4885">
        <ele>1066.8</ele>
        <time>1970-01-01T02:03:27.000Z</time>
      </trkpt>
      <trkpt lat="45.06422" lon="5.48852">
        <ele>1067.2</ele>
        <time>1970-01-01T02:03:28.000Z</time>
      </trkpt>
      <trkpt lat="45.06422" lon="5.48854">
        <ele>1067.2</ele>
        <time>1970-01-01T02:03:29.000Z</time>
      </trkpt>
      <trkpt lat="45.06423" lon="5.48858">
        <ele>1067.2</ele>
        <time>1970-01-01T02:03:30.000Z</time>
      </trkpt>
      <trkpt lat="45.06423" lon="5.48868">
        <ele>1067.2</ele>
        <time>1970-01-01T02:03:33.000Z</time>
      </trkpt>
      <trkpt lat="45.06423" lon="5.48878">
        <ele>1067.6</ele>
        <time>1970-01-01T02:03:36.000Z</time>
      </trkpt>
      <trkpt lat="45.06422" lon="5.48881">
        <ele>1068</ele>
        <time>1970-01-01T02:03:37.000Z</time>
      </trkpt>
      <trkpt lat="45.06421" lon="5.48885">
        <ele>1068.4</ele>
        <time>1970-01-01T02:03:38.000Z</time>
      </trkpt>
      <trkpt lat="45.06421" lon="5.4889">
        <ele>1068.8</ele>
        <time>1970-01-01T02:03:39.000Z</time>
      </trkpt>
      <trkpt lat="45.06421" lon="5.48894">
        <ele>1069.4</ele>
        <time>1970-01-01T02:03:40.000Z</time>
      </trkpt>
      <trkpt lat="45.06419" lon="5.48909">
        <ele>1069.4</ele>
        <time>1970-01-01T02:03:44.000Z</time>
      </trkpt>
      <trkpt lat="45.06416" lon="5.48928">
        <ele>1069.4</ele>
        <time>1970-01-01T02:03:50.000Z</time>
      </trkpt>
      <trkpt lat="45.06415" lon="5.48933">
        <ele>1069.8</ele>
        <time>1970-01-01T02:03:52.000Z</time>
      </trkpt>
      <trkpt lat="45.06414" lon="5.48936">
        <ele>1070.6</ele>
        <time>1970-01-01T02:03:53.000Z</time>
      </trkpt>
      <trkpt lat="45.06414" lon="5.4894">
        <ele>1071</ele>
        <time>1970-01-01T02:03:54.000Z</time>
      </trkpt>
      <trkpt lat="45.06414" lon="5.48944">
        <ele>1071.4</ele>
        <time>1970-01-01T02:03:55.000Z</time>
      </trkpt>
      <trkpt lat="45.06414" lon="5.4895">
        <ele>1071.4</ele>
        <time>1970-01-01T02:03:56.000Z</time>
      </trkpt>
      <trkpt lat="45.06411" lon="5.48966">
        <ele>1071.4</ele>
        <time>1970-01-01T02:04:01.000Z</time>
      </trkpt>
      <trkpt lat="45.06408" lon="5.4898">
        <ele>1071.4</ele>
        <time>1970-01-01T02:04:06.000Z</time>
      </trkpt>
      <trkpt lat="45.06407" lon="5.48987">
        <ele>1071.8</ele>
        <time>1970-01-01T02:04:08.000Z</time>
      </trkpt>
      <trkpt lat="45.06406" lon="5.48991">
        <ele>1072.2</ele>
        <time>1970-01-01T02:04:09.000Z</time>
      </trkpt>
      <trkpt lat="45.06406" lon="5.48993">
        <ele>1072.6</ele>
        <time>1970-01-01T02:04:10.000Z</time>
      </trkpt>
      <trkpt lat="45.06405" lon="5.48997">
        <ele>1073</ele>
        <time>1970-01-01T02:04:11.000Z</time>
      </trkpt>
      <trkpt lat="45.06404" lon="5.49001">
        <ele>1073.4</ele>
        <time>1970-01-01T02:04:12.000Z</time>
      </trkpt>
      <trkpt lat="45.06398" lon="5.4902">
        <ele>1073.4</ele>
        <time>1970-01-01T02:04:18.000Z</time>
      </trkpt>
      <trkpt lat="45.06393" lon="5.49035">
        <ele>1073.8</ele>
        <time>1970-01-01T02:04:23.000Z</time>
      </trkpt>
      <trkpt lat="45.06393" lon="5.49039">
        <ele>1074.2</ele>
        <time>1970-01-01T02:04:24.000Z</time>
      </trkpt>
      <trkpt lat="45.06392" lon="5.49042">
        <ele>1074.6</ele>
        <time>1970-01-01T02:04:25.000Z</time>
      </trkpt>
      <trkpt lat="45.06391" lon="5.49044">
        <ele>1075.2</ele>
        <time>1970-01-01T02:04:26.000Z</time>
      </trkpt>
      <trkpt lat="45.0639" lon="5.49046">
        <ele>1075.6</ele>
        <time>1970-01-01T02:04:27.000Z</time>
      </trkpt>
      <trkpt lat="45.06385" lon="5.49055">
        <ele>1075.6</ele>
        <time>1970-01-01T02:04:31.000Z</time>
      </trkpt>
      <trkpt lat="45.0638" lon="5.49068">
        <ele>1075.6</ele>
        <time>1970-01-01T02:04:36.000Z</time>
      </trkpt>
      <trkpt lat="45.06379" lon="5.4907">
        <ele>1075.6</ele>
        <time>1970-01-01T02:04:37.000Z</time>
      </trkpt>
      <trkpt lat="45.06379" lon="5.49071">
        <ele>1076</ele>
        <time>1970-01-01T02:04:38.000Z</time>
      </trkpt>
      <trkpt lat="45.06379" lon="5.49074">
        <ele>1076.4</ele>
        <time>1970-01-01T02:04:39.000Z</time>
      </trkpt>
      <trkpt lat="45.06378" lon="5.49076">
        <ele>1076.8</ele>
        <time>1970-01-01T02:04:40.000Z</time>
      </trkpt>
      <trkpt lat="45.06377" lon="5.49079">
        <ele>1077.6</ele>
        <time>1970-01-01T02:04:42.000Z</time>
      </trkpt>
      <trkpt lat="45.0637" lon="5.49096">
        <ele>1077.6</ele>
        <time>1970-01-01T02:04:48.000Z</time>
      </trkpt>
      <trkpt lat="45.06368" lon="5.49105">
        <ele>1078</ele>
        <time>1970-01-01T02:04:51.000Z</time>
      </trkpt>
      <trkpt lat="45.06367" lon="5.49108">
        <ele>1078.4</ele>
        <time>1970-01-01T02:04:52.000Z</time>
      </trkpt>
      <trkpt lat="45.06365" lon="5.49111">
        <ele>1078.8</ele>
        <time>1970-01-01T02:04:53.000Z</time>
      </trkpt>
      <trkpt lat="45.06363" lon="5.49113">
        <ele>1079.4</ele>
        <time>1970-01-01T02:04:54.000Z</time>
      </trkpt>
      <trkpt lat="45.06362" lon="5.49116">
        <ele>1079.8</ele>
        <time>1970-01-01T02:04:55.000Z</time>
      </trkpt>
      <trkpt lat="45.06349" lon="5.49133">
        <ele>1079.8</ele>
        <time>1970-01-01T02:05:02.000Z</time>
      </trkpt>
      <trkpt lat="45.06346" lon="5.4914">
        <ele>1080.2</ele>
        <time>1970-01-01T02:05:05.000Z</time>
      </trkpt>
      <trkpt lat="45.06345" lon="5.49142">
        <ele>1080.6</ele>
        <time>1970-01-01T02:05:06.000Z</time>
      </trkpt>
      <trkpt lat="45.06344" lon="5.49144">
        <ele>1081.4</ele>
        <time>1970-01-01T02:05:07.000Z</time>
      </trkpt>
      <trkpt lat="45.06342" lon="5.49146">
        <ele>1081.8</ele>
        <time>1970-01-01T02:05:08.000Z</time>
      </trkpt>
      <trkpt lat="45.06336" lon="5.49159">
        <ele>1081.8</ele>
        <time>1970-01-01T02:05:13.000Z</time>
      </trkpt>
      <trkpt lat="45.06327" lon="5.49177">
        <ele>1082.2</ele>
        <time>1970-01-01T02:05:20.000Z</time>
      </trkpt>
      <trkpt lat="45.06326" lon="5.4918">
        <ele>1082.6</ele>
        <time>1970-01-01T02:05:21.000Z</time>
      </trkpt>
      <trkpt lat="45.06325" lon="5.49182">
        <ele>1083</ele>
        <time>1970-01-01T02:05:22.000Z</time>
      </trkpt>
      <trkpt lat="45.06324" lon="5.49184">
        <ele>1083.4</ele>
        <time>1970-01-01T02:05:23.000Z</time>
      </trkpt>
      <trkpt lat="45.06323" lon="5.49186">
        <ele>1084</ele>
        <time>1970-01-01T02:05:24.000Z</time>
      </trkpt>
      <trkpt lat="45.06319" lon="5.49189">
        <ele>1084</ele>
        <time>1970-01-01T02:05:26.000Z</time>
      </trkpt>
      <trkpt lat="45.06312" lon="5.49198">
        <ele>1084.8</ele>
        <time>1970-01-01T02:05:32.000Z</time>
      </trkpt>
      <trkpt lat="45.06311" lon="5.49202">
        <ele>1085.2</ele>
        <time>1970-01-01T02:05:33.000Z</time>
      </trkpt>
      <trkpt lat="45.06309" lon="5.49204">
        <ele>1085.6</ele>
        <time>1970-01-01T02:05:34.000Z</time>
      </trkpt>
      <trkpt lat="45.06309" lon="5.49206">
        <ele>1086</ele>
        <time>1970-01-01T02:05:35.000Z</time>
      </trkpt>
      <trkpt lat="45.06301" lon="5.49217">
        <ele>1086</ele>
        <time>1970-01-01T02:05:40.000Z</time>
      </trkpt>
      <trkpt lat="45.06291" lon="5.49235">
        <ele>1086</ele>
        <time>1970-01-01T02:05:46.000Z</time>
      </trkpt>
      <trkpt lat="45.0629" lon="5.49239">
        <ele>1086.4</ele>
        <time>1970-01-01T02:05:48.000Z</time>
      </trkpt>
      <trkpt lat="45.06291" lon="5.49242">
        <ele>1086.8</ele>
        <time>1970-01-01T02:05:49.000Z</time>
      </trkpt>
      <trkpt lat="45.06291" lon="5.49244">
        <ele>1087.2</ele>
        <time>1970-01-01T02:05:50.000Z</time>
      </trkpt>
      <trkpt lat="45.06291" lon="5.49246">
        <ele>1087.6</ele>
        <time>1970-01-01T02:05:51.000Z</time>
      </trkpt>
      <trkpt lat="45.06291" lon="5.4925">
        <ele>1088</ele>
        <time>1970-01-01T02:05:52.000Z</time>
      </trkpt>
      <trkpt lat="45.06294" lon="5.49263">
        <ele>1088</ele>
        <time>1970-01-01T02:05:57.000Z</time>
      </trkpt>
      <trkpt lat="45.06299" lon="5.49272">
        <ele>1088.4</ele>
        <time>1970-01-01T02:06:00.000Z</time>
      </trkpt>
      <trkpt lat="45.063" lon="5.49274">
        <ele>1088.8</ele>
        <time>1970-01-01T02:06:01.000Z</time>
      </trkpt>
      <trkpt lat="45.06301" lon="5.49277">
        <ele>1089.2</ele>
        <time>1970-01-01T02:06:02.000Z</time>
      </trkpt>
      <trkpt lat="45.06302" lon="5.49279">
        <ele>1089.6</ele>
        <time>1970-01-01T02:06:03.000Z</time>
      </trkpt>
      <trkpt lat="45.06302" lon="5.49282">
        <ele>1090</ele>
        <time>1970-01-01T02:06:04.000Z</time>
      </trkpt>
      <trkpt lat="45.06308" lon="5.49294">
        <ele>1090</ele>
        <time>1970-01-01T02:06:08.000Z</time>
      </trkpt>
      <trkpt lat="45.06314" lon="5.49308">
        <ele>1090.4</ele>
        <time>1970-01-01T02:06:14.000Z</time>
      </trkpt>
      <trkpt lat="45.06316" lon="5.49311">
        <ele>1091</ele>
        <time>1970-01-01T02:06:15.000Z</time>
      </trkpt>
      <trkpt lat="45.06317" lon="5.49313">
        <ele>1091.4</ele>
        <time>1970-01-01T02:06:16.000Z</time>
      </trkpt>
      <trkpt lat="45.06317" lon="5.49315">
        <ele>1092.2</ele>
        <time>1970-01-01T02:06:18.000Z</time>
      </trkpt>
      <trkpt lat="45.06323" lon="5.49326">
        <ele>1092.2</ele>
        <time>1970-01-01T02:06:22.000Z</time>
      </trkpt>
      <trkpt lat="45.06324" lon="5.49331">
        <ele>1092.2</ele>
        <time>1970-01-01T02:06:25.000Z</time>
      </trkpt>
      <trkpt lat="45.06324" lon="5.49334">
        <ele>1092.2</ele>
        <time>1970-01-01T02:06:37.000Z</time>
      </trkpt>
      <trkpt lat="45.06323" lon="5.49333">
        <ele>1092.2</ele>
        <time>1970-01-01T02:06:39.000Z</time>
      </trkpt>
      <trkpt lat="45.06323" lon="5.4933">
        <ele>1092.2</ele>
        <time>1970-01-01T02:06:40.000Z</time>
      </trkpt>
      <trkpt lat="45.06322" lon="5.49328">
        <ele>1092.2</ele>
        <time>1970-01-01T02:06:43.000Z</time>
      </trkpt>
      <trkpt lat="45.06322" lon="5.49331">
        <ele>1092.2</ele>
        <time>1970-01-01T02:07:38.000Z</time>
      </trkpt>
      <trkpt lat="45.06331" lon="5.49345">
        <ele>1092.2</ele>
        <time>1970-01-01T02:07:44.000Z</time>
      </trkpt>
      <trkpt lat="45.06334" lon="5.49353">
        <ele>1092.2</ele>
        <time>1970-01-01T02:07:46.000Z</time>
      </trkpt>
      <trkpt lat="45.06337" lon="5.49359">
        <ele>1092.6</ele>
        <time>1970-01-01T02:07:48.000Z</time>
      </trkpt>
      <trkpt lat="45.06339" lon="5.49363">
        <ele>1093.2</ele>
        <time>1970-01-01T02:07:49.000Z</time>
      </trkpt>
      <trkpt lat="45.0634" lon="5.49365">
        <ele>1093.6</ele>
        <time>1970-01-01T02:07:50.000Z</time>
      </trkpt>
      <trkpt lat="45.06341" lon="5.49367">
        <ele>1094</ele>
        <time>1970-01-01T02:07:51.000Z</time>
      </trkpt>
      <trkpt lat="45.06342" lon="5.4937">
        <ele>1094.4</ele>
        <time>1970-01-01T02:07:52.000Z</time>
      </trkpt>
      <trkpt lat="45.06345" lon="5.49377">
        <ele>1094.4</ele>
        <time>1970-01-01T02:07:54.000Z</time>
      </trkpt>
      <trkpt lat="45.0635" lon="5.49398">
        <ele>1095.2</ele>
        <time>1970-01-01T02:08:00.000Z</time>
      </trkpt>
      <trkpt lat="45.06351" lon="5.49401">
        <ele>1095.6</ele>
        <time>1970-01-01T02:08:01.000Z</time>
      </trkpt>
      <trkpt lat="45.06353" lon="5.49405">
        <ele>1096</ele>
        <time>1970-01-01T02:08:02.000Z</time>
      </trkpt>
      <trkpt lat="45.06354" lon="5.49409">
        <ele>1096.4</ele>
        <time>1970-01-01T02:08:03.000Z</time>
      </trkpt>
      <trkpt lat="45.06359" lon="5.49425">
        <ele>1096.4</ele>
        <time>1970-01-01T02:08:09.000Z</time>
      </trkpt>
      <trkpt lat="45.06363" lon="5.49437">
        <ele>1096.8</ele>
        <time>1970-01-01T02:08:13.000Z</time>
      </trkpt>
      <trkpt lat="45.06365" lon="5.4944">
        <ele>1097.2</ele>
        <time>1970-01-01T02:08:14.000Z</time>
      </trkpt>
      <trkpt lat="45.06366" lon="5.49443">
        <ele>1097.6</ele>
        <time>1970-01-01T02:08:15.000Z</time>
      </trkpt>
      <trkpt lat="45.06367" lon="5.49446">
        <ele>1098</ele>
        <time>1970-01-01T02:08:16.000Z</time>
      </trkpt>
      <trkpt lat="45.06369" lon="5.49448">
        <ele>1098.4</ele>
        <time>1970-01-01T02:08:17.000Z</time>
      </trkpt>
      <trkpt lat="45.06374" lon="5.49456">
        <ele>1098.4</ele>
        <time>1970-01-01T02:08:21.000Z</time>
      </trkpt>
      <trkpt lat="45.06385" lon="5.49466">
        <ele>1098.8</ele>
        <time>1970-01-01T02:08:27.000Z</time>
      </trkpt>
      <trkpt lat="45.06388" lon="5.49467">
        <ele>1099.2</ele>
        <time>1970-01-01T02:08:28.000Z</time>
      </trkpt>
      <trkpt lat="45.06391" lon="5.49469">
        <ele>1099.6</ele>
        <time>1970-01-01T02:08:29.000Z</time>
      </trkpt>
      <trkpt lat="45.06393" lon="5.4947">
        <ele>1100</ele>
        <time>1970-01-01T02:08:30.000Z</time>
      </trkpt>
      <trkpt lat="45.06395" lon="5.4947">
        <ele>1100.6</ele>
        <time>1970-01-01T02:08:31.000Z</time>
      </trkpt>
      <trkpt lat="45.06398" lon="5.49471">
        <ele>1100.6</ele>
        <time>1970-01-01T02:08:32.000Z</time>
      </trkpt>
      <trkpt lat="45.06406" lon="5.4947">
        <ele>1100.6</ele>
        <time>1970-01-01T02:08:36.000Z</time>
      </trkpt>
      <trkpt lat="45.06419" lon="5.49475">
        <ele>1100.6</ele>
        <time>1970-01-01T02:08:40.000Z</time>
      </trkpt>
      <trkpt lat="45.06421" lon="5.49477">
        <ele>1101</ele>
        <time>1970-01-01T02:08:41.000Z</time>
      </trkpt>
      <trkpt lat="45.06424" lon="5.4948">
        <ele>1101.4</ele>
        <time>1970-01-01T02:08:42.000Z</time>
      </trkpt>
      <trkpt lat="45.06427" lon="5.49482">
        <ele>1101.8</ele>
        <time>1970-01-01T02:08:43.000Z</time>
      </trkpt>
      <trkpt lat="45.0643" lon="5.49485">
        <ele>1102.2</ele>
        <time>1970-01-01T02:08:44.000Z</time>
      </trkpt>
      <trkpt lat="45.06432" lon="5.49487">
        <ele>1102.6</ele>
        <time>1970-01-01T02:08:45.000Z</time>
      </trkpt>
      <trkpt lat="45.06446" lon="5.49502">
        <ele>1102.6</ele>
        <time>1970-01-01T02:08:51.000Z</time>
      </trkpt>
      <trkpt lat="45.06448" lon="5.49505">
        <ele>1103</ele>
        <time>1970-01-01T02:08:52.000Z</time>
      </trkpt>
      <trkpt lat="45.0645" lon="5.49507">
        <ele>1103.4</ele>
        <time>1970-01-01T02:08:53.000Z</time>
      </trkpt>
      <trkpt lat="45.06452" lon="5.49508">
        <ele>1103.8</ele>
        <time>1970-01-01T02:08:54.000Z</time>
      </trkpt>
      <trkpt lat="45.06454" lon="5.4951">
        <ele>1104.2</ele>
        <time>1970-01-01T02:08:55.000Z</time>
      </trkpt>
      <trkpt lat="45.06456" lon="5.4951">
        <ele>1104.6</ele>
        <time>1970-01-01T02:08:56.000Z</time>
      </trkpt>
      <trkpt lat="45.06458" lon="5.49511">
        <ele>1104.6</ele>
        <time>1970-01-01T02:08:57.000Z</time>
      </trkpt>
      <trkpt lat="45.06461" lon="5.4951">
        <ele>1104.6</ele>
        <time>1970-01-01T02:08:59.000Z</time>
      </trkpt>
      <trkpt lat="45.06463" lon="5.49508">
        <ele>1104.6</ele>
        <time>1970-01-01T02:09:02.000Z</time>
      </trkpt>
      <trkpt lat="45.06463" lon="5.49513">
        <ele>1104.6</ele>
        <time>1970-01-01T02:10:01.000Z</time>
      </trkpt>
      <trkpt lat="45.06462" lon="5.49515">
        <ele>1104.6</ele>
        <time>1970-01-01T02:10:02.000Z</time>
      </trkpt>
      <trkpt lat="45.06456" lon="5.49522">
        <ele>1104.6</ele>
        <time>1970-01-01T02:10:06.000Z</time>
      </trkpt>
      <trkpt lat="45.06455" lon="5.49524">
        <ele>1104.6</ele>
        <time>1970-01-01T02:10:07.000Z</time>
      </trkpt>
      <trkpt lat="45.06457" lon="5.49536">
        <ele>1104.6</ele>
        <time>1970-01-01T02:10:11.000Z</time>
      </trkpt>
      <trkpt lat="45.06464" lon="5.49553">
        <ele>1105</ele>
        <time>1970-01-01T02:10:16.000Z</time>
      </trkpt>
      <trkpt lat="45.06465" lon="5.49557">
        <ele>1105.4</ele>
        <time>1970-01-01T02:10:17.000Z</time>
      </trkpt>
      <trkpt lat="45.06467" lon="5.4956">
        <ele>1106</ele>
        <time>1970-01-01T02:10:18.000Z</time>
      </trkpt>
      <trkpt lat="45.06469" lon="5.49562">
        <ele>1106.4</ele>
        <time>1970-01-01T02:10:19.000Z</time>
      </trkpt>
      <trkpt lat="45.06471" lon="5.49566">
        <ele>1106.8</ele>
        <time>1970-01-01T02:10:20.000Z</time>
      </trkpt>
      <trkpt lat="45.06476" lon="5.49575">
        <ele>1106.8</ele>
        <time>1970-01-01T02:10:23.000Z</time>
      </trkpt>
      <trkpt lat="45.06486" lon="5.49592">
        <ele>1106.8</ele>
        <time>1970-01-01T02:10:28.000Z</time>
      </trkpt>
      <trkpt lat="45.06502" lon="5.49612">
        <ele>1106.8</ele>
        <time>1970-01-01T02:10:35.000Z</time>
      </trkpt>
      <trkpt lat="45.06517" lon="5.4963">
        <ele>1107.2</ele>
        <time>1970-01-01T02:10:41.000Z</time>
      </trkpt>
      <trkpt lat="45.0652" lon="5.49632">
        <ele>1107.6</ele>
        <time>1970-01-01T02:10:42.000Z</time>
      </trkpt>
      <trkpt lat="45.06523" lon="5.49635">
        <ele>1108</ele>
        <time>1970-01-01T02:10:43.000Z</time>
      </trkpt>
      <trkpt lat="45.06526" lon="5.49638">
        <ele>1108.4</ele>
        <time>1970-01-01T02:10:44.000Z</time>
      </trkpt>
      <trkpt lat="45.06529" lon="5.4964">
        <ele>1108.8</ele>
        <time>1970-01-01T02:10:45.000Z</time>
      </trkpt>
      <trkpt lat="45.06531" lon="5.49642">
        <ele>1108.8</ele>
        <time>1970-01-01T02:10:46.000Z</time>
      </trkpt>
      <trkpt lat="45.06551" lon="5.49653">
        <ele>1108.8</ele>
        <time>1970-01-01T02:10:52.000Z</time>
      </trkpt>
      <trkpt lat="45.06565" lon="5.49661">
        <ele>1108.8</ele>
        <time>1970-01-01T02:10:57.000Z</time>
      </trkpt>
      <trkpt lat="45.06568" lon="5.49667">
        <ele>1108.8</ele>
        <time>1970-01-01T02:10:58.000Z</time>
      </trkpt>
      <trkpt lat="45.06571" lon="5.49673">
        <ele>1109.2</ele>
        <time>1970-01-01T02:10:59.000Z</time>
      </trkpt>
      <trkpt lat="45.06574" lon="5.49678">
        <ele>1109.6</ele>
        <time>1970-01-01T02:11:00.000Z</time>
      </trkpt>
      <trkpt lat="45.06576" lon="5.49683">
        <ele>1110</ele>
        <time>1970-01-01T02:11:01.000Z</time>
      </trkpt>
      <trkpt lat="45.06578" lon="5.49689">
        <ele>1110.4</ele>
        <time>1970-01-01T02:11:02.000Z</time>
      </trkpt>
      <trkpt lat="45.0658" lon="5.49695">
        <ele>1110.8</ele>
        <time>1970-01-01T02:11:03.000Z</time>
      </trkpt>
      <trkpt lat="45.06584" lon="5.4971">
        <ele>1110.8</ele>
        <time>1970-01-01T02:11:06.000Z</time>
      </trkpt>
      <trkpt lat="45.06595" lon="5.49747">
        <ele>1110.8</ele>
        <time>1970-01-01T02:11:13.000Z</time>
      </trkpt>
      <trkpt lat="45.06613" lon="5.4979">
        <ele>1110.8</ele>
        <time>1970-01-01T02:11:21.000Z</time>
      </trkpt>
      <trkpt lat="45.06623" lon="5.49809">
        <ele>1110.8</ele>
        <time>1970-01-01T02:11:25.000Z</time>
      </trkpt>
      <trkpt lat="45.06628" lon="5.49825">
        <ele>1110.8</ele>
        <time>1970-01-01T02:11:28.000Z</time>
      </trkpt>
      <trkpt lat="45.06629" lon="5.49836">
        <ele>1110.8</ele>
        <time>1970-01-01T02:11:30.000Z</time>
      </trkpt>
      <trkpt lat="45.06626" lon="5.49847">
        <ele>1110.8</ele>
        <time>1970-01-01T02:11:32.000Z</time>
      </trkpt>
      <trkpt lat="45.06615" lon="5.49859">
        <ele>1110.8</ele>
        <time>1970-01-01T02:11:35.000Z</time>
      </trkpt>
      <trkpt lat="45.06605" lon="5.49872">
        <ele>1110.8</ele>
        <time>1970-01-01T02:11:38.000Z</time>
      </trkpt>
      <trkpt lat="45.06595" lon="5.499">
        <ele>1110.8</ele>
        <time>1970-01-01T02:11:43.000Z</time>
      </trkpt>
      <trkpt lat="45.066" lon="5.49923">
        <ele>1110.8</ele>
        <time>1970-01-01T02:11:47.000Z</time>
      </trkpt>
      <trkpt lat="45.06615" lon="5.49945">
        <ele>1110.8</ele>
        <time>1970-01-01T02:11:53.000Z</time>
      </trkpt>
      <trkpt lat="45.06629" lon="5.49969">
        <ele>1110.8</ele>
        <time>1970-01-01T02:11:58.000Z</time>
      </trkpt>
      <trkpt lat="45.06629" lon="5.49981">
        <ele>1110.8</ele>
        <time>1970-01-01T02:12:00.000Z</time>
      </trkpt>
      <trkpt lat="45.06626" lon="5.49991">
        <ele>1110.8</ele>
        <time>1970-01-01T02:12:02.000Z</time>
      </trkpt>
      <trkpt lat="45.06616" lon="5.50001">
        <ele>1110.8</ele>
        <time>1970-01-01T02:12:05.000Z</time>
      </trkpt>
      <trkpt lat="45.06609" lon="5.50007">
        <ele>1110.8</ele>
        <time>1970-01-01T02:12:07.000Z</time>
      </trkpt>
      <trkpt lat="45.066" lon="5.50024">
        <ele>1110.8</ele>
        <time>1970-01-01T02:12:11.000Z</time>
      </trkpt>
      <trkpt lat="45.06597" lon="5.50028">
        <ele>1110.8</ele>
        <time>1970-01-01T02:12:12.000Z</time>
      </trkpt>
      <trkpt lat="45.06592" lon="5.50034">
        <ele>1110.4</ele>
        <time>1970-01-01T02:12:13.000Z</time>
      </trkpt>
      <trkpt lat="45.06587" lon="5.50039">
        <ele>1110</ele>
        <time>1970-01-01T02:12:14.000Z</time>
      </trkpt>
      <trkpt lat="45.06582" lon="5.50045">
        <ele>1109.6</ele>
        <time>1970-01-01T02:12:15.000Z</time>
      </trkpt>
      <trkpt lat="45.06578" lon="5.50052">
        <ele>1108.8</ele>
        <time>1970-01-01T02:12:16.000Z</time>
      </trkpt>
      <trkpt lat="45.06573" lon="5.50058">
        <ele>1108.2</ele>
        <time>1970-01-01T02:12:17.000Z</time>
      </trkpt>
      <trkpt lat="45.06568" lon="5.50063">
        <ele>1107.2</ele>
        <time>1970-01-01T02:12:18.000Z</time>
      </trkpt>
      <trkpt lat="45.06563" lon="5.50068">
        <ele>1106.2</ele>
        <time>1970-01-01T02:12:19.000Z</time>
      </trkpt>
      <trkpt lat="45.06558" lon="5.50072">
        <ele>1105.2</ele>
        <time>1970-01-01T02:12:20.000Z</time>
      </trkpt>
      <trkpt lat="45.06553" lon="5.50075">
        <ele>1104.4</ele>
        <time>1970-01-01T02:12:21.000Z</time>
      </trkpt>
      <trkpt lat="45.06547" lon="5.50079">
        <ele>1103.6</ele>
        <time>1970-01-01T02:12:22.000Z</time>
      </trkpt>
      <trkpt lat="45.06541" lon="5.50082">
        <ele>1102.8</ele>
        <time>1970-01-01T02:12:23.000Z</time>
      </trkpt>
      <trkpt lat="45.06536" lon="5.50085">
        <ele>1102</ele>
        <time>1970-01-01T02:12:24.000Z</time>
      </trkpt>
      <trkpt lat="45.06531" lon="5.50089">
        <ele>1101.2</ele>
        <time>1970-01-01T02:12:25.000Z</time>
      </trkpt>
      <trkpt lat="45.06517" lon="5.50098">
        <ele>1101.2</ele>
        <time>1970-01-01T02:12:28.000Z</time>
      </trkpt>
      <trkpt lat="45.06513" lon="5.50102">
        <ele>1100.8</ele>
        <time>1970-01-01T02:12:29.000Z</time>
      </trkpt>
      <trkpt lat="45.06509" lon="5.50105">
        <ele>1100.4</ele>
        <time>1970-01-01T02:12:30.000Z</time>
      </trkpt>
      <trkpt lat="45.06505" lon="5.5011">
        <ele>1099.2</ele>
        <time>1970-01-01T02:12:31.000Z</time>
      </trkpt>
      <trkpt lat="45.06501" lon="5.50114">
        <ele>1098.4</ele>
        <time>1970-01-01T02:12:32.000Z</time>
      </trkpt>
      <trkpt lat="45.06498" lon="5.50119">
        <ele>1097.6</ele>
        <time>1970-01-01T02:12:33.000Z</time>
      </trkpt>
      <trkpt lat="45.06494" lon="5.50125">
        <ele>1096.6</ele>
        <time>1970-01-01T02:12:34.000Z</time>
      </trkpt>
      <trkpt lat="45.06488" lon="5.50134">
        <ele>1095.8</ele>
        <time>1970-01-01T02:12:35.000Z</time>
      </trkpt>
      <trkpt lat="45.06484" lon="5.50142">
        <ele>1095</ele>
        <time>1970-01-01T02:12:36.000Z</time>
      </trkpt>
      <trkpt lat="45.06479" lon="5.50152">
        <ele>1094</ele>
        <time>1970-01-01T02:12:37.000Z</time>
      </trkpt>
      <trkpt lat="45.06475" lon="5.50163">
        <ele>1093.2</ele>
        <time>1970-01-01T02:12:38.000Z</time>
      </trkpt>
      <trkpt lat="45.06472" lon="5.50174">
        <ele>1092.4</ele>
        <time>1970-01-01T02:12:39.000Z</time>
      </trkpt>
      <trkpt lat="45.0647" lon="5.50183">
        <ele>1091.6</ele>
        <time>1970-01-01T02:12:40.000Z</time>
      </trkpt>
      <trkpt lat="45.06468" lon="5.50196">
        <ele>1090.8</ele>
        <time>1970-01-01T02:12:41.000Z</time>
      </trkpt>
      <trkpt lat="45.06466" lon="5.50207">
        <ele>1089.8</ele>
        <time>1970-01-01T02:12:42.000Z</time>
      </trkpt>
      <trkpt lat="45.06463" lon="5.50218">
        <ele>1089</ele>
        <time>1970-01-01T02:12:43.000Z</time>
      </trkpt>
      <trkpt lat="45.0646" lon="5.50227">
        <ele>1088.2</ele>
        <time>1970-01-01T02:12:44.000Z</time>
      </trkpt>
      <trkpt lat="45.06458" lon="5.50234">
        <ele>1087.2</ele>
        <time>1970-01-01T02:12:45.000Z</time>
      </trkpt>
      <trkpt lat="45.06455" lon="5.50241">
        <ele>1086.2</ele>
        <time>1970-01-01T02:12:46.000Z</time>
      </trkpt>
      <trkpt lat="45.06452" lon="5.50246">
        <ele>1085.4</ele>
        <time>1970-01-01T02:12:47.000Z</time>
      </trkpt>
      <trkpt lat="45.06449" lon="5.50252">
        <ele>1084.4</ele>
        <time>1970-01-01T02:12:48.000Z</time>
      </trkpt>
      <trkpt lat="45.06445" lon="5.50257">
        <ele>1083.6</ele>
        <time>1970-01-01T02:12:49.000Z</time>
      </trkpt>
      <trkpt lat="45.06443" lon="5.50263">
        <ele>1083.6</ele>
        <time>1970-01-01T02:12:50.000Z</time>
      </trkpt>
      <trkpt lat="45.0644" lon="5.50269">
        <ele>1083.6</ele>
        <time>1970-01-01T02:12:51.000Z</time>
      </trkpt>
      <trkpt lat="45.06431" lon="5.50289">
        <ele>1083.6</ele>
        <time>1970-01-01T02:12:54.000Z</time>
      </trkpt>
      <trkpt lat="45.06426" lon="5.503">
        <ele>1083.6</ele>
        <time>1970-01-01T02:12:56.000Z</time>
      </trkpt>
      <trkpt lat="45.0642" lon="5.50312">
        <ele>1083.6</ele>
        <time>1970-01-01T02:12:59.000Z</time>
      </trkpt>
      <trkpt lat="45.06407" lon="5.50329">
        <ele>1083.6</ele>
        <time>1970-01-01T02:13:04.000Z</time>
      </trkpt>
      <trkpt lat="45.064" lon="5.50338">
        <ele>1083.6</ele>
        <time>1970-01-01T02:13:06.000Z</time>
      </trkpt>
      <trkpt lat="45.06394" lon="5.50349">
        <ele>1083</ele>
        <time>1970-01-01T02:13:08.000Z</time>
      </trkpt>
      <trkpt lat="45.06391" lon="5.50354">
        <ele>1082.6</ele>
        <time>1970-01-01T02:13:09.000Z</time>
      </trkpt>
      <trkpt lat="45.06389" lon="5.50359">
        <ele>1082.2</ele>
        <time>1970-01-01T02:13:10.000Z</time>
      </trkpt>
      <trkpt lat="45.06387" lon="5.50364">
        <ele>1081.6</ele>
        <time>1970-01-01T02:13:11.000Z</time>
      </trkpt>
      <trkpt lat="45.06385" lon="5.50367">
        <ele>1081.2</ele>
        <time>1970-01-01T02:13:12.000Z</time>
      </trkpt>
      <trkpt lat="45.06381" lon="5.50374">
        <ele>1081.2</ele>
        <time>1970-01-01T02:13:14.000Z</time>
      </trkpt>
      <trkpt lat="45.0637" lon="5.50393">
        <ele>1081.2</ele>
        <time>1970-01-01T02:13:20.000Z</time>
      </trkpt>
      <trkpt lat="45.06369" lon="5.50397">
        <ele>1081.2</ele>
        <time>1970-01-01T02:13:21.000Z</time>
      </trkpt>
      <trkpt lat="45.06367" lon="5.50406">
        <ele>1081.2</ele>
        <time>1970-01-01T02:13:23.000Z</time>
      </trkpt>
      <trkpt lat="45.06361" lon="5.50424">
        <ele>1081.2</ele>
        <time>1970-01-01T02:13:28.000Z</time>
      </trkpt>
      <trkpt lat="45.06359" lon="5.50428">
        <ele>1081.2</ele>
        <time>1970-01-01T02:13:29.000Z</time>
      </trkpt>
      <trkpt lat="45.06356" lon="5.50435">
        <ele>1081.6</ele>
        <time>1970-01-01T02:13:31.000Z</time>
      </trkpt>
      <trkpt lat="45.06355" lon="5.50439">
        <ele>1082</ele>
        <time>1970-01-01T02:13:32.000Z</time>
      </trkpt>
      <trkpt lat="45.06353" lon="5.50442">
        <ele>1082.6</ele>
        <time>1970-01-01T02:13:33.000Z</time>
      </trkpt>
      <trkpt lat="45.06352" lon="5.50445">
        <ele>1083</ele>
        <time>1970-01-01T02:13:34.000Z</time>
      </trkpt>
      <trkpt lat="45.06351" lon="5.50448">
        <ele>1083.4</ele>
        <time>1970-01-01T02:13:35.000Z</time>
      </trkpt>
      <trkpt lat="45.06349" lon="5.50456">
        <ele>1083.4</ele>
        <time>1970-01-01T02:13:38.000Z</time>
      </trkpt>
      <trkpt lat="45.06348" lon="5.50461">
        <ele>1083.4</ele>
        <time>1970-01-01T02:13:40.000Z</time>
      </trkpt>
      <trkpt lat="45.06343" lon="5.50467">
        <ele>1083.4</ele>
        <time>1970-01-01T02:13:43.000Z</time>
      </trkpt>
      <trkpt lat="45.06341" lon="5.50469">
        <ele>1083.8</ele>
        <time>1970-01-01T02:13:44.000Z</time>
      </trkpt>
      <trkpt lat="45.06339" lon="5.50472">
        <ele>1084.2</ele>
        <time>1970-01-01T02:13:45.000Z</time>
      </trkpt>
      <trkpt lat="45.06338" lon="5.50475">
        <ele>1084.6</ele>
        <time>1970-01-01T02:13:46.000Z</time>
      </trkpt>
      <trkpt lat="45.06336" lon="5.50476">
        <ele>1085.4</ele>
        <time>1970-01-01T02:13:47.000Z</time>
      </trkpt>
      <trkpt lat="45.06335" lon="5.50479">
        <ele>1085.4</ele>
        <time>1970-01-01T02:13:48.000Z</time>
      </trkpt>
      <trkpt lat="45.06328" lon="5.5049">
        <ele>1085.4</ele>
        <time>1970-01-01T02:13:54.000Z</time>
      </trkpt>
      <trkpt lat="45.06325" lon="5.50494">
        <ele>1085.8</ele>
        <time>1970-01-01T02:13:56.000Z</time>
      </trkpt>
      <trkpt lat="45.06324" lon="5.50496">
        <ele>1086.4</ele>
        <time>1970-01-01T02:13:57.000Z</time>
      </trkpt>
      <trkpt lat="45.06323" lon="5.50497">
        <ele>1086.8</ele>
        <time>1970-01-01T02:13:58.000Z</time>
      </trkpt>
      <trkpt lat="45.06322" lon="5.50499">
        <ele>1087.2</ele>
        <time>1970-01-01T02:13:59.000Z</time>
      </trkpt>
      <trkpt lat="45.06321" lon="5.50501">
        <ele>1087.6</ele>
        <time>1970-01-01T02:14:00.000Z</time>
      </trkpt>
      <trkpt lat="45.06311" lon="5.50507">
        <ele>1087.6</ele>
        <time>1970-01-01T02:14:06.000Z</time>
      </trkpt>
      <trkpt lat="45.06309" lon="5.50508">
        <ele>1088</ele>
        <time>1970-01-01T02:14:07.000Z</time>
      </trkpt>
      <trkpt lat="45.06308" lon="5.50509">
        <ele>1088.4</ele>
        <time>1970-01-01T02:14:08.000Z</time>
      </trkpt>
      <trkpt lat="45.06306" lon="5.5051">
        <ele>1088.8</ele>
        <time>1970-01-01T02:14:09.000Z</time>
      </trkpt>
      <trkpt lat="45.06304" lon="5.50511">
        <ele>1089.2</ele>
        <time>1970-01-01T02:14:10.000Z</time>
      </trkpt>
      <trkpt lat="45.06302" lon="5.50512">
        <ele>1089.6</ele>
        <time>1970-01-01T02:14:11.000Z</time>
      </trkpt>
      <trkpt lat="45.06295" lon="5.5052">
        <ele>1090.2</ele>
        <time>1970-01-01T02:14:17.000Z</time>
      </trkpt>
      <trkpt lat="45.06293" lon="5.50521">
        <ele>1090.6</ele>
        <time>1970-01-01T02:14:18.000Z</time>
      </trkpt>
      <trkpt lat="45.06292" lon="5.50521">
        <ele>1091</ele>
        <time>1970-01-01T02:14:19.000Z</time>
      </trkpt>
      <trkpt lat="45.06291" lon="5.50522">
        <ele>1091.4</ele>
        <time>1970-01-01T02:14:20.000Z</time>
      </trkpt>
      <trkpt lat="45.0629" lon="5.50523">
        <ele>1091.8</ele>
        <time>1970-01-01T02:14:21.000Z</time>
      </trkpt>
      <trkpt lat="45.06285" lon="5.50526">
        <ele>1091.8</ele>
        <time>1970-01-01T02:14:24.000Z</time>
      </trkpt>
      <trkpt lat="45.06279" lon="5.50533">
        <ele>1091.8</ele>
        <time>1970-01-01T02:14:30.000Z</time>
      </trkpt>
      <trkpt lat="45.06278" lon="5.50534">
        <ele>1092.2</ele>
        <time>1970-01-01T02:14:31.000Z</time>
      </trkpt>
      <trkpt lat="45.06277" lon="5.50534">
        <ele>1092.6</ele>
        <time>1970-01-01T02:14:32.000Z</time>
      </trkpt>
      <trkpt lat="45.06275" lon="5.50535">
        <ele>1093</ele>
        <time>1970-01-01T02:14:33.000Z</time>
      </trkpt>
      <trkpt lat="45.06274" lon="5.50536">
        <ele>1093.4</ele>
        <time>1970-01-01T02:14:34.000Z</time>
      </trkpt>
      <trkpt lat="45.06272" lon="5.50536">
        <ele>1093.8</ele>
        <time>1970-01-01T02:14:35.000Z</time>
      </trkpt>
      <trkpt lat="45.06268" lon="5.50539">
        <ele>1093.8</ele>
        <time>1970-01-01T02:14:37.000Z</time>
      </trkpt>
      <trkpt lat="45.06261" lon="5.50542">
        <ele>1093.8</ele>
        <time>1970-01-01T02:14:42.000Z</time>
      </trkpt>
      <trkpt lat="45.06259" lon="5.50542">
        <ele>1093.8</ele>
        <time>1970-01-01T02:14:43.000Z</time>
      </trkpt>
      <trkpt lat="45.06258" lon="5.50542">
        <ele>1093.8</ele>
        <time>1970-01-01T02:14:44.000Z</time>
      </trkpt>
      <trkpt lat="45.06256" lon="5.50543">
        <ele>1094.4</ele>
        <time>1970-01-01T02:14:45.000Z</time>
      </trkpt>
      <trkpt lat="45.06255" lon="5.50543">
        <ele>1094.8</ele>
        <time>1970-01-01T02:14:46.000Z</time>
      </trkpt>
      <trkpt lat="45.06254" lon="5.50544">
        <ele>1095.2</ele>
        <time>1970-01-01T02:14:47.000Z</time>
      </trkpt>
      <trkpt lat="45.06252" lon="5.50545">
        <ele>1095.6</ele>
        <time>1970-01-01T02:14:48.000Z</time>
      </trkpt>
      <trkpt lat="45.06251" lon="5.50547">
        <ele>1096</ele>
        <time>1970-01-01T02:14:49.000Z</time>
      </trkpt>
      <trkpt lat="45.06249" lon="5.50548">
        <ele>1096</ele>
        <time>1970-01-01T02:14:50.000Z</time>
      </trkpt>
      <trkpt lat="45.06239" lon="5.50557">
        <ele>1096.4</ele>
        <time>1970-01-01T02:14:56.000Z</time>
      </trkpt>
      <trkpt lat="45.06238" lon="5.50559">
        <ele>1096.8</ele>
        <time>1970-01-01T02:14:57.000Z</time>
      </trkpt>
      <trkpt lat="45.06237" lon="5.5056">
        <ele>1097.2</ele>
        <time>1970-01-01T02:14:58.000Z</time>
      </trkpt>
      <trkpt lat="45.06236" lon="5.5056">
        <ele>1097.8</ele>
        <time>1970-01-01T02:14:59.000Z</time>
      </trkpt>
      <trkpt lat="45.06235" lon="5.5056">
        <ele>1098.2</ele>
        <time>1970-01-01T02:15:00.000Z</time>
      </trkpt>
      <trkpt lat="45.06232" lon="5.5056">
        <ele>1098.2</ele>
        <time>1970-01-01T02:15:02.000Z</time>
      </trkpt>
      <trkpt lat="45.06225" lon="5.50562">
        <ele>1098.6</ele>
        <time>1970-01-01T02:15:06.000Z</time>
      </trkpt>
      <trkpt lat="45.06224" lon="5.50563">
        <ele>1099</ele>
        <time>1970-01-01T02:15:07.000Z</time>
      </trkpt>
      <trkpt lat="45.06222" lon="5.50564">
        <ele>1099.4</ele>
        <time>1970-01-01T02:15:08.000Z</time>
      </trkpt>
      <trkpt lat="45.0622" lon="5.50564">
        <ele>1099.8</ele>
        <time>1970-01-01T02:15:09.000Z</time>
      </trkpt>
      <trkpt lat="45.06219" lon="5.50565">
        <ele>1100.2</ele>
        <time>1970-01-01T02:15:10.000Z</time>
      </trkpt>
      <trkpt lat="45.06211" lon="5.5057">
        <ele>1100.2</ele>
        <time>1970-01-01T02:15:16.000Z</time>
      </trkpt>
      <trkpt lat="45.06208" lon="5.50572">
        <ele>1100.2</ele>
        <time>1970-01-01T02:15:18.000Z</time>
      </trkpt>
      <trkpt lat="45.06207" lon="5.50572">
        <ele>1100.8</ele>
        <time>1970-01-01T02:15:19.000Z</time>
      </trkpt>
      <trkpt lat="45.06206" lon="5.50571">
        <ele>1101.2</ele>
        <time>1970-01-01T02:15:20.000Z</time>
      </trkpt>
      <trkpt lat="45.06205" lon="5.50571">
        <ele>1101.6</ele>
        <time>1970-01-01T02:15:21.000Z</time>
      </trkpt>
      <trkpt lat="45.06201" lon="5.50573">
        <ele>1102.4</ele>
        <time>1970-01-01T02:15:24.000Z</time>
      </trkpt>
      <trkpt lat="45.06197" lon="5.50575">
        <ele>1102.4</ele>
        <time>1970-01-01T02:15:27.000Z</time>
      </trkpt>
      <trkpt lat="45.06196" lon="5.50575">
        <ele>1102.4</ele>
        <time>1970-01-01T02:15:28.000Z</time>
      </trkpt>
      <trkpt lat="45.06193" lon="5.50577">
        <ele>1102.8</ele>
        <time>1970-01-01T02:15:32.000Z</time>
      </trkpt>
      <trkpt lat="45.06192" lon="5.50578">
        <ele>1103.2</ele>
        <time>1970-01-01T02:15:33.000Z</time>
      </trkpt>
      <trkpt lat="45.06191" lon="5.5058">
        <ele>1103.6</ele>
        <time>1970-01-01T02:15:34.000Z</time>
      </trkpt>
      <trkpt lat="45.0619" lon="5.50582">
        <ele>1104</ele>
        <time>1970-01-01T02:15:35.000Z</time>
      </trkpt>
      <trkpt lat="45.06189" lon="5.50585">
        <ele>1104.6</ele>
        <time>1970-01-01T02:15:36.000Z</time>
      </trkpt>
      <trkpt lat="45.06188" lon="5.50589">
        <ele>1104.6</ele>
        <time>1970-01-01T02:15:38.000Z</time>
      </trkpt>
      <trkpt lat="45.06187" lon="5.50591">
        <ele>1104.6</ele>
        <time>1970-01-01T02:15:39.000Z</time>
      </trkpt>
      <trkpt lat="45.06183" lon="5.50601">
        <ele>1104.6</ele>
        <time>1970-01-01T02:15:43.000Z</time>
      </trkpt>
      <trkpt lat="45.0618" lon="5.50602">
        <ele>1104.6</ele>
        <time>1970-01-01T02:15:45.000Z</time>
      </trkpt>
      <trkpt lat="45.06174" lon="5.50606">
        <ele>1105</ele>
        <time>1970-01-01T02:15:49.000Z</time>
      </trkpt>
      <trkpt lat="45.06172" lon="5.50607">
        <ele>1105.4</ele>
        <time>1970-01-01T02:15:50.000Z</time>
      </trkpt>
      <trkpt lat="45.0617" lon="5.50608">
        <ele>1105.8</ele>
        <time>1970-01-01T02:15:51.000Z</time>
      </trkpt>
      <trkpt lat="45.06169" lon="5.5061">
        <ele>1106.2</ele>
        <time>1970-01-01T02:15:52.000Z</time>
      </trkpt>
      <trkpt lat="45.06167" lon="5.50612">
        <ele>1106.6</ele>
        <time>1970-01-01T02:15:53.000Z</time>
      </trkpt>
      <trkpt lat="45.06165" lon="5.50618">
        <ele>1106.6</ele>
        <time>1970-01-01T02:15:55.000Z</time>
      </trkpt>
      <trkpt lat="45.06164" lon="5.50621">
        <ele>1106.6</ele>
        <time>1970-01-01T02:15:56.000Z</time>
      </trkpt>
      <trkpt lat="45.06159" lon="5.50634">
        <ele>1106.6</ele>
        <time>1970-01-01T02:16:01.000Z</time>
      </trkpt>
      <trkpt lat="45.0615" lon="5.50651">
        <ele>1106.6</ele>
        <time>1970-01-01T02:16:07.000Z</time>
      </trkpt>
      <trkpt lat="45.06139" lon="5.50668">
        <ele>1106.6</ele>
        <time>1970-01-01T02:16:13.000Z</time>
      </trkpt>
      <trkpt lat="45.06125" lon="5.50683">
        <ele>1106.6</ele>
        <time>1970-01-01T02:16:18.000Z</time>
      </trkpt>
      <trkpt lat="45.06123" lon="5.50688">
        <ele>1106.6</ele>
        <time>1970-01-01T02:16:19.000Z</time>
      </trkpt>
      <trkpt lat="45.0612" lon="5.50694">
        <ele>1106</ele>
        <time>1970-01-01T02:16:20.000Z</time>
      </trkpt>
      <trkpt lat="45.06119" lon="5.507">
        <ele>1105.4</ele>
        <time>1970-01-01T02:16:21.000Z</time>
      </trkpt>
      <trkpt lat="45.06118" lon="5.50706">
        <ele>1104.4</ele>
        <time>1970-01-01T02:16:22.000Z</time>
      </trkpt>
      <trkpt lat="45.06117" lon="5.50711">
        <ele>1103.4</ele>
        <time>1970-01-01T02:16:23.000Z</time>
      </trkpt>
      <trkpt lat="45.06117" lon="5.50715">
        <ele>1102.4</ele>
        <time>1970-01-01T02:16:24.000Z</time>
      </trkpt>
      <trkpt lat="45.06117" lon="5.50717">
        <ele>1101.2</ele>
        <time>1970-01-01T02:16:25.000Z</time>
      </trkpt>
      <trkpt lat="45.06118" lon="5.50718">
        <ele>1100.2</ele>
        <time>1970-01-01T02:16:26.000Z</time>
      </trkpt>
      <trkpt lat="45.0612" lon="5.50719">
        <ele>1099.2</ele>
        <time>1970-01-01T02:16:27.000Z</time>
      </trkpt>
      <trkpt lat="45.06123" lon="5.5072">
        <ele>1098.2</ele>
        <time>1970-01-01T02:16:28.000Z</time>
      </trkpt>
      <trkpt lat="45.06126" lon="5.5072">
        <ele>1097.4</ele>
        <time>1970-01-01T02:16:29.000Z</time>
      </trkpt>
      <trkpt lat="45.0613" lon="5.50721">
        <ele>1096.4</ele>
        <time>1970-01-01T02:16:30.000Z</time>
      </trkpt>
      <trkpt lat="45.06136" lon="5.50722">
        <ele>1095.8</ele>
        <time>1970-01-01T02:16:31.000Z</time>
      </trkpt>
      <trkpt lat="45.06142" lon="5.50723">
        <ele>1095</ele>
        <time>1970-01-01T02:16:32.000Z</time>
      </trkpt>
      <trkpt lat="45.06148" lon="5.50726">
        <ele>1094.4</ele>
        <time>1970-01-01T02:16:33.000Z</time>
      </trkpt>
      <trkpt lat="45.06153" lon="5.50728">
        <ele>1093.8</ele>
        <time>1970-01-01T02:16:34.000Z</time>
      </trkpt>
      <trkpt lat="45.06159" lon="5.50731">
        <ele>1093.2</ele>
        <time>1970-01-01T02:16:35.000Z</time>
      </trkpt>
      <trkpt lat="45.06164" lon="5.50735">
        <ele>1092.4</ele>
        <time>1970-01-01T02:16:36.000Z</time>
      </trkpt>
      <trkpt lat="45.0617" lon="5.50738">
        <ele>1091.8</ele>
        <time>1970-01-01T02:16:37.000Z</time>
      </trkpt>
      <trkpt lat="45.06177" lon="5.5074">
        <ele>1091.2</ele>
        <time>1970-01-01T02:16:38.000Z</time>
      </trkpt>
      <trkpt lat="45.06183" lon="5.50743">
        <ele>1089.8</ele>
        <time>1970-01-01T02:16:39.000Z</time>
      </trkpt>
      <trkpt lat="45.06189" lon="5.50747">
        <ele>1089.2</ele>
        <time>1970-01-01T02:16:40.000Z</time>
      </trkpt>
      <trkpt lat="45.06194" lon="5.50751">
        <ele>1088.6</ele>
        <time>1970-01-01T02:16:41.000Z</time>
      </trkpt>
      <trkpt lat="45.06198" lon="5.50756">
        <ele>1088</ele>
        <time>1970-01-01T02:16:42.000Z</time>
      </trkpt>
      <trkpt lat="45.06198" lon="5.50761">
        <ele>1087.6</ele>
        <time>1970-01-01T02:16:43.000Z</time>
      </trkpt>
      <trkpt lat="45.06197" lon="5.50764">
        <ele>1087.2</ele>
        <time>1970-01-01T02:16:44.000Z</time>
      </trkpt>
      <trkpt lat="45.06194" lon="5.50767">
        <ele>1086.6</ele>
        <time>1970-01-01T02:16:45.000Z</time>
      </trkpt>
      <trkpt lat="45.0619" lon="5.50768">
        <ele>1086</ele>
        <time>1970-01-01T02:16:46.000Z</time>
      </trkpt>
      <trkpt lat="45.06186" lon="5.50768">
        <ele>1085.4</ele>
        <time>1970-01-01T02:16:47.000Z</time>
      </trkpt>
      <trkpt lat="45.06182" lon="5.50767">
        <ele>1084.8</ele>
        <time>1970-01-01T02:16:48.000Z</time>
      </trkpt>
      <trkpt lat="45.06177" lon="5.50767">
        <ele>1084.2</ele>
        <time>1970-01-01T02:16:49.000Z</time>
      </trkpt>
      <trkpt lat="45.06173" lon="5.50766">
        <ele>1083.6</ele>
        <time>1970-01-01T02:16:50.000Z</time>
      </trkpt>
      <trkpt lat="45.06167" lon="5.50766">
        <ele>1083</ele>
        <time>1970-01-01T02:16:51.000Z</time>
      </trkpt>
      <trkpt lat="45.06162" lon="5.50767">
        <ele>1082.4</ele>
        <time>1970-01-01T02:16:52.000Z</time>
      </trkpt>
      <trkpt lat="45.06157" lon="5.50767">
        <ele>1081.8</ele>
        <time>1970-01-01T02:16:53.000Z</time>
      </trkpt>
      <trkpt lat="45.06151" lon="5.50768">
        <ele>1081</ele>
        <time>1970-01-01T02:16:54.000Z</time>
      </trkpt>
      <trkpt lat="45.06146" lon="5.5077">
        <ele>1080.4</ele>
        <time>1970-01-01T02:16:55.000Z</time>
      </trkpt>
      <trkpt lat="45.06142" lon="5.50773">
        <ele>1079.8</ele>
        <time>1970-01-01T02:16:56.000Z</time>
      </trkpt>
      <trkpt lat="45.06138" lon="5.50776">
        <ele>1079</ele>
        <time>1970-01-01T02:16:57.000Z</time>
      </trkpt>
      <trkpt lat="45.06134" lon="5.50779">
        <ele>1078.4</ele>
        <time>1970-01-01T02:16:58.000Z</time>
      </trkpt>
      <trkpt lat="45.0613" lon="5.50781">
        <ele>1077.6</ele>
        <time>1970-01-01T02:16:59.000Z</time>
      </trkpt>
      <trkpt lat="45.06126" lon="5.50786">
        <ele>1076.6</ele>
        <time>1970-01-01T02:17:00.000Z</time>
      </trkpt>
      <trkpt lat="45.06122" lon="5.50793">
        <ele>1075.8</ele>
        <time>1970-01-01T02:17:01.000Z</time>
      </trkpt>
      <trkpt lat="45.06118" lon="5.50803">
        <ele>1074.8</ele>
        <time>1970-01-01T02:17:02.000Z</time>
      </trkpt>
      <trkpt lat="45.06116" lon="5.50812">
        <ele>1073.6</ele>
        <time>1970-01-01T02:17:03.000Z</time>
      </trkpt>
      <trkpt lat="45.06115" lon="5.5082">
        <ele>1071.6</ele>
        <time>1970-01-01T02:17:04.000Z</time>
      </trkpt>
      <trkpt lat="45.06115" lon="5.50828">
        <ele>1070.4</ele>
        <time>1970-01-01T02:17:05.000Z</time>
      </trkpt>
      <trkpt lat="45.06116" lon="5.50837">
        <ele>1069.4</ele>
        <time>1970-01-01T02:17:06.000Z</time>
      </trkpt>
      <trkpt lat="45.06117" lon="5.50847">
        <ele>1068.2</ele>
        <time>1970-01-01T02:17:07.000Z</time>
      </trkpt>
      <trkpt lat="45.0612" lon="5.50857">
        <ele>1067.2</ele>
        <time>1970-01-01T02:17:08.000Z</time>
      </trkpt>
      <trkpt lat="45.06122" lon="5.50866">
        <ele>1066.4</ele>
        <time>1970-01-01T02:17:09.000Z</time>
      </trkpt>
      <trkpt lat="45.06125" lon="5.50876">
        <ele>1065.4</ele>
        <time>1970-01-01T02:17:10.000Z</time>
      </trkpt>
      <trkpt lat="45.06127" lon="5.50885">
        <ele>1064.4</ele>
        <time>1970-01-01T02:17:11.000Z</time>
      </trkpt>
      <trkpt lat="45.06129" lon="5.50892">
        <ele>1063.4</ele>
        <time>1970-01-01T02:17:12.000Z</time>
      </trkpt>
      <trkpt lat="45.06129" lon="5.50901">
        <ele>1062.4</ele>
        <time>1970-01-01T02:17:13.000Z</time>
      </trkpt>
      <trkpt lat="45.0613" lon="5.50911">
        <ele>1061.2</ele>
        <time>1970-01-01T02:17:14.000Z</time>
      </trkpt>
      <trkpt lat="45.06131" lon="5.50921">
        <ele>1060.2</ele>
        <time>1970-01-01T02:17:15.000Z</time>
      </trkpt>
      <trkpt lat="45.0613" lon="5.50931">
        <ele>1059</ele>
        <time>1970-01-01T02:17:16.000Z</time>
      </trkpt>
      <trkpt lat="45.06126" lon="5.5094">
        <ele>1057.8</ele>
        <time>1970-01-01T02:17:17.000Z</time>
      </trkpt>
      <trkpt lat="45.06121" lon="5.50948">
        <ele>1057</ele>
        <time>1970-01-01T02:17:18.000Z</time>
      </trkpt>
      <trkpt lat="45.06115" lon="5.50953">
        <ele>1056</ele>
        <time>1970-01-01T02:17:19.000Z</time>
      </trkpt>
      <trkpt lat="45.06109" lon="5.50958">
        <ele>1055.2</ele>
        <time>1970-01-01T02:17:20.000Z</time>
      </trkpt>
      <trkpt lat="45.06103" lon="5.50964">
        <ele>1054.2</ele>
        <time>1970-01-01T02:17:21.000Z</time>
      </trkpt>
      <trkpt lat="45.06097" lon="5.50969">
        <ele>1053.2</ele>
        <time>1970-01-01T02:17:22.000Z</time>
      </trkpt>
      <trkpt lat="45.06091" lon="5.50974">
        <ele>1052.4</ele>
        <time>1970-01-01T02:17:23.000Z</time>
      </trkpt>
      <trkpt lat="45.06084" lon="5.5098">
        <ele>1051.4</ele>
        <time>1970-01-01T02:17:24.000Z</time>
      </trkpt>
      <trkpt lat="45.06078" lon="5.50985">
        <ele>1050.6</ele>
        <time>1970-01-01T02:17:25.000Z</time>
      </trkpt>
      <trkpt lat="45.06065" lon="5.50996">
        <ele>1050.6</ele>
        <time>1970-01-01T02:17:27.000Z</time>
      </trkpt>
      <trkpt lat="45.0606" lon="5.51003">
        <ele>1050.2</ele>
        <time>1970-01-01T02:17:28.000Z</time>
      </trkpt>
      <trkpt lat="45.06055" lon="5.51011">
        <ele>1049.2</ele>
        <time>1970-01-01T02:17:29.000Z</time>
      </trkpt>
      <trkpt lat="45.06052" lon="5.51018">
        <ele>1048.8</ele>
        <time>1970-01-01T02:17:30.000Z</time>
      </trkpt>
      <trkpt lat="45.06049" lon="5.51025">
        <ele>1048.4</ele>
        <time>1970-01-01T02:17:31.000Z</time>
      </trkpt>
      <trkpt lat="45.06044" lon="5.51039">
        <ele>1048.4</ele>
        <time>1970-01-01T02:17:33.000Z</time>
      </trkpt>
      <trkpt lat="45.0604" lon="5.51051">
        <ele>1048.4</ele>
        <time>1970-01-01T02:17:35.000Z</time>
      </trkpt>
      <trkpt lat="45.06034" lon="5.5107">
        <ele>1048.4</ele>
        <time>1970-01-01T02:17:38.000Z</time>
      </trkpt>
      <trkpt lat="45.06032" lon="5.51075">
        <ele>1048.4</ele>
        <time>1970-01-01T02:17:39.000Z</time>
      </trkpt>
      <trkpt lat="45.06024" lon="5.51091">
        <ele>1048.4</ele>
        <time>1970-01-01T02:17:42.000Z</time>
      </trkpt>
      <trkpt lat="45.06017" lon="5.51099">
        <ele>1048.4</ele>
        <time>1970-01-01T02:17:44.000Z</time>
      </trkpt>
      <trkpt lat="45.06004" lon="5.51125">
        <ele>1048.4</ele>
        <time>1970-01-01T02:17:49.000Z</time>
      </trkpt>
      <trkpt lat="45.06001" lon="5.51131">
        <ele>1048.4</ele>
        <time>1970-01-01T02:17:50.000Z</time>
      </trkpt>
      <trkpt lat="45.05998" lon="5.51136">
        <ele>1048.4</ele>
        <time>1970-01-01T02:17:51.000Z</time>
      </trkpt>
      <trkpt lat="45.05989" lon="5.51151">
        <ele>1048.4</ele>
        <time>1970-01-01T02:17:54.000Z</time>
      </trkpt>
      <trkpt lat="45.05979" lon="5.5117">
        <ele>1048.4</ele>
        <time>1970-01-01T02:17:57.000Z</time>
      </trkpt>
      <trkpt lat="45.05974" lon="5.51184">
        <ele>1048.4</ele>
        <time>1970-01-01T02:17:59.000Z</time>
      </trkpt>
      <trkpt lat="45.05971" lon="5.512">
        <ele>1048</ele>
        <time>1970-01-01T02:18:01.000Z</time>
      </trkpt>
      <trkpt lat="45.05969" lon="5.51209">
        <ele>1047.6</ele>
        <time>1970-01-01T02:18:02.000Z</time>
      </trkpt>
      <trkpt lat="45.05966" lon="5.51218">
        <ele>1047</ele>
        <time>1970-01-01T02:18:03.000Z</time>
      </trkpt>
      <trkpt lat="45.05963" lon="5.51228">
        <ele>1046.6</ele>
        <time>1970-01-01T02:18:04.000Z</time>
      </trkpt>
      <trkpt lat="45.05959" lon="5.51237">
        <ele>1046</ele>
        <time>1970-01-01T02:18:05.000Z</time>
      </trkpt>
      <trkpt lat="45.05954" lon="5.51246">
        <ele>1045.2</ele>
        <time>1970-01-01T02:18:06.000Z</time>
      </trkpt>
      <trkpt lat="45.05948" lon="5.51254">
        <ele>1044.6</ele>
        <time>1970-01-01T02:18:07.000Z</time>
      </trkpt>
      <trkpt lat="45.05942" lon="5.51263">
        <ele>1043.6</ele>
        <time>1970-01-01T02:18:08.000Z</time>
      </trkpt>
      <trkpt lat="45.05935" lon="5.51271">
        <ele>1042.8</ele>
        <time>1970-01-01T02:18:09.000Z</time>
      </trkpt>
      <trkpt lat="45.05927" lon="5.51278">
        <ele>1041.4</ele>
        <time>1970-01-01T02:18:10.000Z</time>
      </trkpt>
      <trkpt lat="45.05918" lon="5.51288">
        <ele>1040.2</ele>
        <time>1970-01-01T02:18:11.000Z</time>
      </trkpt>
      <trkpt lat="45.0591" lon="5.51299">
        <ele>1039</ele>
        <time>1970-01-01T02:18:12.000Z</time>
      </trkpt>
      <trkpt lat="45.05903" lon="5.51311">
        <ele>1037.6</ele>
        <time>1970-01-01T02:18:13.000Z</time>
      </trkpt>
      <trkpt lat="45.05898" lon="5.51324">
        <ele>1036.2</ele>
        <time>1970-01-01T02:18:14.000Z</time>
      </trkpt>
      <trkpt lat="45.05893" lon="5.51337">
        <ele>1035.2</ele>
        <time>1970-01-01T02:18:15.000Z</time>
      </trkpt>
      <trkpt lat="45.0589" lon="5.5135">
        <ele>1034.2</ele>
        <time>1970-01-01T02:18:16.000Z</time>
      </trkpt>
      <trkpt lat="45.05889" lon="5.51362">
        <ele>1033</ele>
        <time>1970-01-01T02:18:17.000Z</time>
      </trkpt>
      <trkpt lat="45.05888" lon="5.51374">
        <ele>1031</ele>
        <time>1970-01-01T02:18:18.000Z</time>
      </trkpt>
      <trkpt lat="45.05891" lon="5.51385">
        <ele>1031</ele>
        <time>1970-01-01T02:18:19.000Z</time>
      </trkpt>
      <trkpt lat="45.05896" lon="5.51397">
        <ele>1031</ele>
        <time>1970-01-01T02:18:20.000Z</time>
      </trkpt>
      <trkpt lat="45.059" lon="5.51408">
        <ele>1031</ele>
        <time>1970-01-01T02:18:21.000Z</time>
      </trkpt>
      <trkpt lat="45.05906" lon="5.51427">
        <ele>1031</ele>
        <time>1970-01-01T02:18:23.000Z</time>
      </trkpt>
      <trkpt lat="45.05907" lon="5.51438">
        <ele>1030.4</ele>
        <time>1970-01-01T02:18:24.000Z</time>
      </trkpt>
      <trkpt lat="45.05908" lon="5.5145">
        <ele>1030</ele>
        <time>1970-01-01T02:18:25.000Z</time>
      </trkpt>
      <trkpt lat="45.05909" lon="5.51461">
        <ele>1029.6</ele>
        <time>1970-01-01T02:18:26.000Z</time>
      </trkpt>
      <trkpt lat="45.0591" lon="5.51473">
        <ele>1029</ele>
        <time>1970-01-01T02:18:27.000Z</time>
      </trkpt>
      <trkpt lat="45.05911" lon="5.51484">
        <ele>1028.6</ele>
        <time>1970-01-01T02:18:28.000Z</time>
      </trkpt>
      <trkpt lat="45.05913" lon="5.51495">
        <ele>1028.2</ele>
        <time>1970-01-01T02:18:29.000Z</time>
      </trkpt>
      <trkpt lat="45.05916" lon="5.51506">
        <ele>1027.8</ele>
        <time>1970-01-01T02:18:30.000Z</time>
      </trkpt>
      <trkpt lat="45.05919" lon="5.51518">
        <ele>1027.2</ele>
        <time>1970-01-01T02:18:31.000Z</time>
      </trkpt>
      <trkpt lat="45.05922" lon="5.51529">
        <ele>1026.8</ele>
        <time>1970-01-01T02:18:32.000Z</time>
      </trkpt>
      <trkpt lat="45.05925" lon="5.51542">
        <ele>1026.2</ele>
        <time>1970-01-01T02:18:33.000Z</time>
      </trkpt>
      <trkpt lat="45.05926" lon="5.51555">
        <ele>1025.6</ele>
        <time>1970-01-01T02:18:34.000Z</time>
      </trkpt>
      <trkpt lat="45.05927" lon="5.51569">
        <ele>1024.8</ele>
        <time>1970-01-01T02:18:35.000Z</time>
      </trkpt>
      <trkpt lat="45.05927" lon="5.51582">
        <ele>1024</ele>
        <time>1970-01-01T02:18:36.000Z</time>
      </trkpt>
      <trkpt lat="45.05927" lon="5.51593">
        <ele>1023.2</ele>
        <time>1970-01-01T02:18:37.000Z</time>
      </trkpt>
      <trkpt lat="45.05926" lon="5.51604">
        <ele>1022.4</ele>
        <time>1970-01-01T02:18:38.000Z</time>
      </trkpt>
      <trkpt lat="45.05926" lon="5.51614">
        <ele>1021.8</ele>
        <time>1970-01-01T02:18:39.000Z</time>
      </trkpt>
      <trkpt lat="45.05927" lon="5.51623">
        <ele>1021.8</ele>
        <time>1970-01-01T02:18:40.000Z</time>
      </trkpt>
      <trkpt lat="45.05928" lon="5.51639">
        <ele>1021.8</ele>
        <time>1970-01-01T02:18:42.000Z</time>
      </trkpt>
      <trkpt lat="45.05935" lon="5.51666">
        <ele>1021.8</ele>
        <time>1970-01-01T02:18:47.000Z</time>
      </trkpt>
      <trkpt lat="45.05939" lon="5.51686">
        <ele>1021.8</ele>
        <time>1970-01-01T02:18:52.000Z</time>
      </trkpt>
      <trkpt lat="45.05945" lon="5.51707">
        <ele>1021.8</ele>
        <time>1970-01-01T02:18:57.000Z</time>
      </trkpt>
      <trkpt lat="45.05947" lon="5.51715">
        <ele>1022.2</ele>
        <time>1970-01-01T02:18:59.000Z</time>
      </trkpt>
      <trkpt lat="45.05948" lon="5.51718">
        <ele>1022.6</ele>
        <time>1970-01-01T02:19:00.000Z</time>
      </trkpt>
      <trkpt lat="45.05949" lon="5.51722">
        <ele>1023</ele>
        <time>1970-01-01T02:19:01.000Z</time>
      </trkpt>
      <trkpt lat="45.0595" lon="5.51725">
        <ele>1023.4</ele>
        <time>1970-01-01T02:19:02.000Z</time>
      </trkpt>
      <trkpt lat="45.05951" lon="5.51729">
        <ele>1023.8</ele>
        <time>1970-01-01T02:19:03.000Z</time>
      </trkpt>
      <trkpt lat="45.05956" lon="5.51748">
        <ele>1023.8</ele>
        <time>1970-01-01T02:19:08.000Z</time>
      </trkpt>
      <trkpt lat="45.05956" lon="5.51752">
        <ele>1024.2</ele>
        <time>1970-01-01T02:19:09.000Z</time>
      </trkpt>
      <trkpt lat="45.05957" lon="5.51756">
        <ele>1024.6</ele>
        <time>1970-01-01T02:19:10.000Z</time>
      </trkpt>
      <trkpt lat="45.05958" lon="5.51759">
        <ele>1025</ele>
        <time>1970-01-01T02:19:11.000Z</time>
      </trkpt>
      <trkpt lat="45.05959" lon="5.51763">
        <ele>1025.4</ele>
        <time>1970-01-01T02:19:12.000Z</time>
      </trkpt>
      <trkpt lat="45.0596" lon="5.51766">
        <ele>1025.8</ele>
        <time>1970-01-01T02:19:13.000Z</time>
      </trkpt>
      <trkpt lat="45.05969" lon="5.51788">
        <ele>1025.8</ele>
        <time>1970-01-01T02:19:19.000Z</time>
      </trkpt>
      <trkpt lat="45.05973" lon="5.51798">
        <ele>1025.8</ele>
        <time>1970-01-01T02:19:23.000Z</time>
      </trkpt>
      <trkpt lat="45.05973" lon="5.51802">
        <ele>1025.8</ele>
        <time>1970-01-01T02:19:27.000Z</time>
      </trkpt>
      <trkpt lat="45.05972" lon="5.51797">
        <ele>1025.8</ele>
        <time>1970-01-01T02:19:31.000Z</time>
      </trkpt>
      <trkpt lat="45.05971" lon="5.51794">
        <ele>1025.8</ele>
        <time>1970-01-01T02:19:32.000Z</time>
      </trkpt>
      <trkpt lat="45.05965" lon="5.51775">
        <ele>1025.8</ele>
        <time>1970-01-01T02:19:38.000Z</time>
      </trkpt>
      <trkpt lat="45.05959" lon="5.51755">
        <ele>1025.8</ele>
        <time>1970-01-01T02:19:43.000Z</time>
      </trkpt>
      <trkpt lat="45.05956" lon="5.51749">
        <ele>1025.8</ele>
        <time>1970-01-01T02:19:45.000Z</time>
      </trkpt>
      <trkpt lat="45.05952" lon="5.51748">
        <ele>1025.8</ele>
        <time>1970-01-01T02:19:47.000Z</time>
      </trkpt>
      <trkpt lat="45.05948" lon="5.5175">
        <ele>1025.8</ele>
        <time>1970-01-01T02:19:49.000Z</time>
      </trkpt>
      <trkpt lat="45.05943" lon="5.51756">
        <ele>1025.8</ele>
        <time>1970-01-01T02:19:52.000Z</time>
      </trkpt>
      <trkpt lat="45.05937" lon="5.51771">
        <ele>1026.2</ele>
        <time>1970-01-01T02:19:58.000Z</time>
      </trkpt>
      <trkpt lat="45.05937" lon="5.51774">
        <ele>1026.6</ele>
        <time>1970-01-01T02:19:59.000Z</time>
      </trkpt>
      <trkpt lat="45.05937" lon="5.51777">
        <ele>1027</ele>
        <time>1970-01-01T02:20:00.000Z</time>
      </trkpt>
      <trkpt lat="45.05937" lon="5.5178">
        <ele>1027.4</ele>
        <time>1970-01-01T02:20:01.000Z</time>
      </trkpt>
      <trkpt lat="45.05936" lon="5.51783">
        <ele>1027.8</ele>
        <time>1970-01-01T02:20:02.000Z</time>
      </trkpt>
      <trkpt lat="45.05936" lon="5.51789">
        <ele>1027.8</ele>
        <time>1970-01-01T02:20:04.000Z</time>
      </trkpt>
      <trkpt lat="45.05937" lon="5.51806">
        <ele>1027.8</ele>
        <time>1970-01-01T02:20:09.000Z</time>
      </trkpt>
      <trkpt lat="45.05936" lon="5.51821">
        <ele>1027.8</ele>
        <time>1970-01-01T02:20:15.000Z</time>
      </trkpt>
      <trkpt lat="45.05936" lon="5.51823">
        <ele>1028.2</ele>
        <time>1970-01-01T02:20:16.000Z</time>
      </trkpt>
      <trkpt lat="45.05936" lon="5.51826">
        <ele>1028.6</ele>
        <time>1970-01-01T02:20:17.000Z</time>
      </trkpt>
      <trkpt lat="45.05936" lon="5.51828">
        <ele>1029.2</ele>
        <time>1970-01-01T02:20:18.000Z</time>
      </trkpt>
      <trkpt lat="45.05936" lon="5.51831">
        <ele>1029.6</ele>
        <time>1970-01-01T02:20:19.000Z</time>
      </trkpt>
      <trkpt lat="45.05935" lon="5.51833">
        <ele>1030</ele>
        <time>1970-01-01T02:20:20.000Z</time>
      </trkpt>
      <trkpt lat="45.05935" lon="5.51835">
        <ele>1030</ele>
        <time>1970-01-01T02:20:21.000Z</time>
      </trkpt>
      <trkpt lat="45.05933" lon="5.51837">
        <ele>1030</ele>
        <time>1970-01-01T02:20:22.000Z</time>
      </trkpt>
      <trkpt lat="45.05928" lon="5.51845">
        <ele>1030</ele>
        <time>1970-01-01T02:20:26.000Z</time>
      </trkpt>
      <trkpt lat="45.05925" lon="5.51854">
        <ele>1030.4</ele>
        <time>1970-01-01T02:20:31.000Z</time>
      </trkpt>
      <trkpt lat="45.05924" lon="5.51855">
        <ele>1030.8</ele>
        <time>1970-01-01T02:20:32.000Z</time>
      </trkpt>
      <trkpt lat="45.05924" lon="5.51857">
        <ele>1031.2</ele>
        <time>1970-01-01T02:20:33.000Z</time>
      </trkpt>
      <trkpt lat="45.05923" lon="5.51859">
        <ele>1031.6</ele>
        <time>1970-01-01T02:20:34.000Z</time>
      </trkpt>
      <trkpt lat="45.05923" lon="5.51861">
        <ele>1032</ele>
        <time>1970-01-01T02:20:35.000Z</time>
      </trkpt>
      <trkpt lat="45.05921" lon="5.51874">
        <ele>1032</ele>
        <time>1970-01-01T02:20:40.000Z</time>
      </trkpt>
      <trkpt lat="45.05917" lon="5.51888">
        <ele>1032.4</ele>
        <time>1970-01-01T02:20:47.000Z</time>
      </trkpt>
      <trkpt lat="45.05916" lon="5.51889">
        <ele>1033.2</ele>
        <time>1970-01-01T02:20:49.000Z</time>
      </trkpt>
      <trkpt lat="45.05915" lon="5.5189">
        <ele>1033.6</ele>
        <time>1970-01-01T02:20:50.000Z</time>
      </trkpt>
      <trkpt lat="45.05914" lon="5.51892">
        <ele>1034</ele>
        <time>1970-01-01T02:20:51.000Z</time>
      </trkpt>
      <trkpt lat="45.05912" lon="5.51896">
        <ele>1034</ele>
        <time>1970-01-01T02:20:53.000Z</time>
      </trkpt>
      <trkpt lat="45.05913" lon="5.519">
        <ele>1034</ele>
        <time>1970-01-01T02:20:54.000Z</time>
      </trkpt>
      <trkpt lat="45.05913" lon="5.51911">
        <ele>1034</ele>
        <time>1970-01-01T02:20:58.000Z</time>
      </trkpt>
      <trkpt lat="45.05913" lon="5.51914">
        <ele>1034</ele>
        <time>1970-01-01T02:20:59.000Z</time>
      </trkpt>
      <trkpt lat="45.05912" lon="5.51919">
        <ele>1034.4</ele>
        <time>1970-01-01T02:21:02.000Z</time>
      </trkpt>
      <trkpt lat="45.05912" lon="5.5192">
        <ele>1035</ele>
        <time>1970-01-01T02:21:03.000Z</time>
      </trkpt>
      <trkpt lat="45.05911" lon="5.51922">
        <ele>1035.4</ele>
        <time>1970-01-01T02:21:04.000Z</time>
      </trkpt>
      <trkpt lat="45.0591" lon="5.51925">
        <ele>1035.8</ele>
        <time>1970-01-01T02:21:05.000Z</time>
      </trkpt>
      <trkpt lat="45.05909" lon="5.51928">
        <ele>1036.2</ele>
        <time>1970-01-01T02:21:06.000Z</time>
      </trkpt>
      <trkpt lat="45.05905" lon="5.51941">
        <ele>1036.6</ele>
        <time>1970-01-01T02:21:12.000Z</time>
      </trkpt>
      <trkpt lat="45.05904" lon="5.51943">
        <ele>1037</ele>
        <time>1970-01-01T02:21:13.000Z</time>
      </trkpt>
      <trkpt lat="45.05903" lon="5.51945">
        <ele>1037.4</ele>
        <time>1970-01-01T02:21:14.000Z</time>
      </trkpt>
      <trkpt lat="45.05902" lon="5.51947">
        <ele>1037.8</ele>
        <time>1970-01-01T02:21:15.000Z</time>
      </trkpt>
      <trkpt lat="45.05902" lon="5.5195">
        <ele>1038.2</ele>
        <time>1970-01-01T02:21:16.000Z</time>
      </trkpt>
      <trkpt lat="45.05903" lon="5.51952">
        <ele>1038.2</ele>
        <time>1970-01-01T02:21:18.000Z</time>
      </trkpt>
      <trkpt lat="45.05902" lon="5.51956">
        <ele>1038.2</ele>
        <time>1970-01-01T02:21:20.000Z</time>
      </trkpt>
      <trkpt lat="45.05902" lon="5.51964">
        <ele>1038.2</ele>
        <time>1970-01-01T02:21:24.000Z</time>
      </trkpt>
      <trkpt lat="45.05905" lon="5.51977">
        <ele>1038.2</ele>
        <time>1970-01-01T02:21:30.000Z</time>
      </trkpt>
      <trkpt lat="45.05906" lon="5.51979">
        <ele>1038.6</ele>
        <time>1970-01-01T02:21:31.000Z</time>
      </trkpt>
      <trkpt lat="45.05906" lon="5.51981">
        <ele>1039.2</ele>
        <time>1970-01-01T02:21:32.000Z</time>
      </trkpt>
      <trkpt lat="45.05906" lon="5.51983">
        <ele>1039.6</ele>
        <time>1970-01-01T02:21:33.000Z</time>
      </trkpt>
      <trkpt lat="45.05905" lon="5.51985">
        <ele>1040.4</ele>
        <time>1970-01-01T02:21:34.000Z</time>
      </trkpt>
      <trkpt lat="45.05904" lon="5.51987">
        <ele>1040.4</ele>
        <time>1970-01-01T02:21:35.000Z</time>
      </trkpt>
      <trkpt lat="45.059" lon="5.51995">
        <ele>1040.4</ele>
        <time>1970-01-01T02:21:39.000Z</time>
      </trkpt>
      <trkpt lat="45.05898" lon="5.52">
        <ele>1040.4</ele>
        <time>1970-01-01T02:21:41.000Z</time>
      </trkpt>
      <trkpt lat="45.05889" lon="5.52018">
        <ele>1040.4</ele>
        <time>1970-01-01T02:21:48.000Z</time>
      </trkpt>
      <trkpt lat="45.05885" lon="5.52026">
        <ele>1040.8</ele>
        <time>1970-01-01T02:21:52.000Z</time>
      </trkpt>
      <trkpt lat="45.05885" lon="5.52027">
        <ele>1041.2</ele>
        <time>1970-01-01T02:21:53.000Z</time>
      </trkpt>
      <trkpt lat="45.05884" lon="5.52029">
        <ele>1041.6</ele>
        <time>1970-01-01T02:21:54.000Z</time>
      </trkpt>
      <trkpt lat="45.05883" lon="5.5203">
        <ele>1042</ele>
        <time>1970-01-01T02:21:55.000Z</time>
      </trkpt>
      <trkpt lat="45.05883" lon="5.52032">
        <ele>1042.4</ele>
        <time>1970-01-01T02:21:56.000Z</time>
      </trkpt>
      <trkpt lat="45.05883" lon="5.52045">
        <ele>1042.4</ele>
        <time>1970-01-01T02:22:01.000Z</time>
      </trkpt>
      <trkpt lat="45.05882" lon="5.52054">
        <ele>1042.8</ele>
        <time>1970-01-01T02:22:05.000Z</time>
      </trkpt>
      <trkpt lat="45.05882" lon="5.52056">
        <ele>1043.2</ele>
        <time>1970-01-01T02:22:06.000Z</time>
      </trkpt>
      <trkpt lat="45.05881" lon="5.52058">
        <ele>1043.6</ele>
        <time>1970-01-01T02:22:07.000Z</time>
      </trkpt>
      <trkpt lat="45.0588" lon="5.5206">
        <ele>1044.2</ele>
        <time>1970-01-01T02:22:08.000Z</time>
      </trkpt>
      <trkpt lat="45.05878" lon="5.52062">
        <ele>1044.6</ele>
        <time>1970-01-01T02:22:09.000Z</time>
      </trkpt>
      <trkpt lat="45.05875" lon="5.52066">
        <ele>1044.6</ele>
        <time>1970-01-01T02:22:11.000Z</time>
      </trkpt>
      <trkpt lat="45.05871" lon="5.52069">
        <ele>1044.6</ele>
        <time>1970-01-01T02:22:13.000Z</time>
      </trkpt>
      <trkpt lat="45.0587" lon="5.5207">
        <ele>1045</ele>
        <time>1970-01-01T02:22:14.000Z</time>
      </trkpt>
      <trkpt lat="45.05868" lon="5.52071">
        <ele>1045.4</ele>
        <time>1970-01-01T02:22:15.000Z</time>
      </trkpt>
      <trkpt lat="45.05867" lon="5.52072">
        <ele>1045.8</ele>
        <time>1970-01-01T02:22:16.000Z</time>
      </trkpt>
      <trkpt lat="45.05865" lon="5.52074">
        <ele>1046.2</ele>
        <time>1970-01-01T02:22:17.000Z</time>
      </trkpt>
      <trkpt lat="45.05864" lon="5.52075">
        <ele>1046.6</ele>
        <time>1970-01-01T02:22:18.000Z</time>
      </trkpt>
      <trkpt lat="45.05862" lon="5.52077">
        <ele>1046.6</ele>
        <time>1970-01-01T02:22:20.000Z</time>
      </trkpt>
      <trkpt lat="45.05857" lon="5.52082">
        <ele>1047</ele>
        <time>1970-01-01T02:22:24.000Z</time>
      </trkpt>
      <trkpt lat="45.05855" lon="5.52084">
        <ele>1047.4</ele>
        <time>1970-01-01T02:22:25.000Z</time>
      </trkpt>
      <trkpt lat="45.05854" lon="5.52085">
        <ele>1048</ele>
        <time>1970-01-01T02:22:26.000Z</time>
      </trkpt>
      <trkpt lat="45.05853" lon="5.52086">
        <ele>1048.4</ele>
        <time>1970-01-01T02:22:27.000Z</time>
      </trkpt>
      <trkpt lat="45.05852" lon="5.52087">
        <ele>1048.8</ele>
        <time>1970-01-01T02:22:28.000Z</time>
      </trkpt>
      <trkpt lat="45.05847" lon="5.52091">
        <ele>1048.8</ele>
        <time>1970-01-01T02:22:32.000Z</time>
      </trkpt>
      <trkpt lat="45.05846" lon="5.52093">
        <ele>1048.8</ele>
        <time>1970-01-01T02:22:33.000Z</time>
      </trkpt>
      <trkpt lat="45.05842" lon="5.52098">
        <ele>1049.2</ele>
        <time>1970-01-01T02:22:37.000Z</time>
      </trkpt>
      <trkpt lat="45.05841" lon="5.52099">
        <ele>1049.6</ele>
        <time>1970-01-01T02:22:38.000Z</time>
      </trkpt>
      <trkpt lat="45.0584" lon="5.52101">
        <ele>1050</ele>
        <time>1970-01-01T02:22:39.000Z</time>
      </trkpt>
      <trkpt lat="45.05839" lon="5.52103">
        <ele>1050.4</ele>
        <time>1970-01-01T02:22:40.000Z</time>
      </trkpt>
      <trkpt lat="45.05838" lon="5.52105">
        <ele>1050.8</ele>
        <time>1970-01-01T02:22:41.000Z</time>
      </trkpt>
      <trkpt lat="45.05837" lon="5.52112">
        <ele>1050.8</ele>
        <time>1970-01-01T02:22:45.000Z</time>
      </trkpt>
      <trkpt lat="45.05839" lon="5.5212">
        <ele>1051.2</ele>
        <time>1970-01-01T02:22:49.000Z</time>
      </trkpt>
      <trkpt lat="45.05839" lon="5.52123">
        <ele>1051.6</ele>
        <time>1970-01-01T02:22:50.000Z</time>
      </trkpt>
      <trkpt lat="45.0584" lon="5.52126">
        <ele>1052.2</ele>
        <time>1970-01-01T02:22:51.000Z</time>
      </trkpt>
      <trkpt lat="45.05841" lon="5.5213">
        <ele>1052.6</ele>
        <time>1970-01-01T02:22:52.000Z</time>
      </trkpt>
      <trkpt lat="45.05842" lon="5.52133">
        <ele>1053</ele>
        <time>1970-01-01T02:22:53.000Z</time>
      </trkpt>
      <trkpt lat="45.05851" lon="5.52146">
        <ele>1053</ele>
        <time>1970-01-01T02:22:58.000Z</time>
      </trkpt>
      <trkpt lat="45.05866" lon="5.52156">
        <ele>1053</ele>
        <time>1970-01-01T02:23:04.000Z</time>
      </trkpt>
      <trkpt lat="45.0589" lon="5.52169">
        <ele>1053</ele>
        <time>1970-01-01T02:23:13.000Z</time>
      </trkpt>
      <trkpt lat="45.05905" lon="5.52177">
        <ele>1053</ele>
        <time>1970-01-01T02:23:20.000Z</time>
      </trkpt>
      <trkpt lat="45.05918" lon="5.52183">
        <ele>1053.4</ele>
        <time>1970-01-01T02:23:26.000Z</time>
      </trkpt>
      <trkpt lat="45.05921" lon="5.52184">
        <ele>1053.8</ele>
        <time>1970-01-01T02:23:27.000Z</time>
      </trkpt>
      <trkpt lat="45.05923" lon="5.52185">
        <ele>1054.2</ele>
        <time>1970-01-01T02:23:28.000Z</time>
      </trkpt>
      <trkpt lat="45.05924" lon="5.52186">
        <ele>1054.6</ele>
        <time>1970-01-01T02:23:29.000Z</time>
      </trkpt>
      <trkpt lat="45.05926" lon="5.52188">
        <ele>1055</ele>
        <time>1970-01-01T02:23:30.000Z</time>
      </trkpt>
      <trkpt lat="45.05934" lon="5.52195">
        <ele>1055</ele>
        <time>1970-01-01T02:23:34.000Z</time>
      </trkpt>
      <trkpt lat="45.05946" lon="5.52203">
        <ele>1055.4</ele>
        <time>1970-01-01T02:23:40.000Z</time>
      </trkpt>
      <trkpt lat="45.05948" lon="5.52204">
        <ele>1055.8</ele>
        <time>1970-01-01T02:23:41.000Z</time>
      </trkpt>
      <trkpt lat="45.0595" lon="5.52205">
        <ele>1056.2</ele>
        <time>1970-01-01T02:23:42.000Z</time>
      </trkpt>
      <trkpt lat="45.05951" lon="5.52206">
        <ele>1056.6</ele>
        <time>1970-01-01T02:23:43.000Z</time>
      </trkpt>
      <trkpt lat="45.05953" lon="5.52207">
        <ele>1057</ele>
        <time>1970-01-01T02:23:44.000Z</time>
      </trkpt>
      <trkpt lat="45.05955" lon="5.52211">
        <ele>1057</ele>
        <time>1970-01-01T02:23:46.000Z</time>
      </trkpt>
      <trkpt lat="45.05962" lon="5.52223">
        <ele>1057</ele>
        <time>1970-01-01T02:23:52.000Z</time>
      </trkpt>
      <trkpt lat="45.05966" lon="5.52234">
        <ele>1057</ele>
        <time>1970-01-01T02:23:57.000Z</time>
      </trkpt>
      <trkpt lat="45.05965" lon="5.52236">
        <ele>1057.4</ele>
        <time>1970-01-01T02:23:58.000Z</time>
      </trkpt>
      <trkpt lat="45.05964" lon="5.52238">
        <ele>1057.8</ele>
        <time>1970-01-01T02:23:59.000Z</time>
      </trkpt>
      <trkpt lat="45.05962" lon="5.52239">
        <ele>1058.4</ele>
        <time>1970-01-01T02:24:00.000Z</time>
      </trkpt>
      <trkpt lat="45.0596" lon="5.52241">
        <ele>1058.8</ele>
        <time>1970-01-01T02:24:01.000Z</time>
      </trkpt>
      <trkpt lat="45.05959" lon="5.52242">
        <ele>1059.2</ele>
        <time>1970-01-01T02:24:02.000Z</time>
      </trkpt>
      <trkpt lat="45.05957" lon="5.52243">
        <ele>1059.2</ele>
        <time>1970-01-01T02:24:03.000Z</time>
      </trkpt>
      <trkpt lat="45.05949" lon="5.52246">
        <ele>1059.2</ele>
        <time>1970-01-01T02:24:08.000Z</time>
      </trkpt>
      <trkpt lat="45.05947" lon="5.52247">
        <ele>1059.2</ele>
        <time>1970-01-01T02:24:09.000Z</time>
      </trkpt>
      <trkpt lat="45.05943" lon="5.52248">
        <ele>1059.6</ele>
        <time>1970-01-01T02:24:11.000Z</time>
      </trkpt>
      <trkpt lat="45.05942" lon="5.52248">
        <ele>1060</ele>
        <time>1970-01-01T02:24:12.000Z</time>
      </trkpt>
      <trkpt lat="45.0594" lon="5.52249">
        <ele>1060.4</ele>
        <time>1970-01-01T02:24:13.000Z</time>
      </trkpt>
      <trkpt lat="45.05938" lon="5.52249">
        <ele>1060.8</ele>
        <time>1970-01-01T02:24:14.000Z</time>
      </trkpt>
      <trkpt lat="45.05937" lon="5.5225">
        <ele>1061.2</ele>
        <time>1970-01-01T02:24:15.000Z</time>
      </trkpt>
      <trkpt lat="45.05935" lon="5.52251">
        <ele>1061.2</ele>
        <time>1970-01-01T02:24:16.000Z</time>
      </trkpt>
      <trkpt lat="45.05935" lon="5.52253">
        <ele>1061.2</ele>
        <time>1970-01-01T02:24:17.000Z</time>
      </trkpt>
      <trkpt lat="45.05933" lon="5.52262">
        <ele>1061.2</ele>
        <time>1970-01-01T02:24:21.000Z</time>
      </trkpt>
      <trkpt lat="45.05937" lon="5.52271">
        <ele>1061.2</ele>
        <time>1970-01-01T02:24:25.000Z</time>
      </trkpt>
      <trkpt lat="45.05939" lon="5.52275">
        <ele>1061.2</ele>
        <time>1970-01-01T02:24:27.000Z</time>
      </trkpt>
      <trkpt lat="45.0594" lon="5.52279">
        <ele>1061.6</ele>
        <time>1970-01-01T02:24:29.000Z</time>
      </trkpt>
      <trkpt lat="45.0594" lon="5.52282">
        <ele>1062</ele>
        <time>1970-01-01T02:24:30.000Z</time>
      </trkpt>
      <trkpt lat="45.05941" lon="5.52284">
        <ele>1062.6</ele>
        <time>1970-01-01T02:24:31.000Z</time>
      </trkpt>
      <trkpt lat="45.05941" lon="5.52286">
        <ele>1063</ele>
        <time>1970-01-01T02:24:32.000Z</time>
      </trkpt>
      <trkpt lat="45.05941" lon="5.52288">
        <ele>1063.4</ele>
        <time>1970-01-01T02:24:33.000Z</time>
      </trkpt>
      <trkpt lat="45.05949" lon="5.52292">
        <ele>1063.4</ele>
        <time>1970-01-01T02:24:38.000Z</time>
      </trkpt>
      <trkpt lat="45.05958" lon="5.52293">
        <ele>1063.4</ele>
        <time>1970-01-01T02:24:42.000Z</time>
      </trkpt>
      <trkpt lat="45.05962" lon="5.52295">
        <ele>1063.4</ele>
        <time>1970-01-01T02:24:44.000Z</time>
      </trkpt>
      <trkpt lat="45.05973" lon="5.52298">
        <ele>1063.4</ele>
        <time>1970-01-01T02:24:49.000Z</time>
      </trkpt>
      <trkpt lat="45.05989" lon="5.52299">
        <ele>1063.4</ele>
        <time>1970-01-01T02:24:55.000Z</time>
      </trkpt>
      <trkpt lat="45.0601" lon="5.52303">
        <ele>1063.4</ele>
        <time>1970-01-01T02:25:02.000Z</time>
      </trkpt>
      <trkpt lat="45.06027" lon="5.52304">
        <ele>1063.8</ele>
        <time>1970-01-01T02:25:07.000Z</time>
      </trkpt>
      <trkpt lat="45.06031" lon="5.52305">
        <ele>1064.2</ele>
        <time>1970-01-01T02:25:08.000Z</time>
      </trkpt>
      <trkpt lat="45.06034" lon="5.52306">
        <ele>1064.6</ele>
        <time>1970-01-01T02:25:09.000Z</time>
      </trkpt>
      <trkpt lat="45.06037" lon="5.52308">
        <ele>1065</ele>
        <time>1970-01-01T02:25:10.000Z</time>
      </trkpt>
      <trkpt lat="45.0604" lon="5.52309">
        <ele>1065.4</ele>
        <time>1970-01-01T02:25:11.000Z</time>
      </trkpt>
      <trkpt lat="45.06048" lon="5.52316">
        <ele>1065.4</ele>
        <time>1970-01-01T02:25:15.000Z</time>
      </trkpt>
      <trkpt lat="45.06048" lon="5.52319">
        <ele>1065.4</ele>
        <time>1970-01-01T02:25:16.000Z</time>
      </trkpt>
      <trkpt lat="45.0605" lon="5.52322">
        <ele>1065.4</ele>
        <time>1970-01-01T02:25:18.000Z</time>
      </trkpt>
      <trkpt lat="45.06055" lon="5.52337">
        <ele>1065.4</ele>
        <time>1970-01-01T02:25:23.000Z</time>
      </trkpt>
      <trkpt lat="45.0606" lon="5.52364">
        <ele>1065.4</ele>
        <time>1970-01-01T02:25:31.000Z</time>
      </trkpt>
      <trkpt lat="45.06058" lon="5.52367">
        <ele>1065.4</ele>
        <time>1970-01-01T02:25:32.000Z</time>
      </trkpt>
      <trkpt lat="45.06051" lon="5.52373">
        <ele>1065.4</ele>
        <time>1970-01-01T02:25:35.000Z</time>
      </trkpt>
      <trkpt lat="45.06047" lon="5.52378">
        <ele>1065.4</ele>
        <time>1970-01-01T02:25:38.000Z</time>
      </trkpt>
      <trkpt lat="45.06045" lon="5.52384">
        <ele>1065.4</ele>
        <time>1970-01-01T02:25:40.000Z</time>
      </trkpt>
      <trkpt lat="45.06044" lon="5.52396">
        <ele>1065.8</ele>
        <time>1970-01-01T02:25:44.000Z</time>
      </trkpt>
      <trkpt lat="45.06044" lon="5.52397">
        <ele>1066.2</ele>
        <time>1970-01-01T02:25:45.000Z</time>
      </trkpt>
      <trkpt lat="45.06044" lon="5.524">
        <ele>1066.6</ele>
        <time>1970-01-01T02:25:46.000Z</time>
      </trkpt>
      <trkpt lat="45.06044" lon="5.52403">
        <ele>1067</ele>
        <time>1970-01-01T02:25:47.000Z</time>
      </trkpt>
      <trkpt lat="45.06044" lon="5.52405">
        <ele>1067.6</ele>
        <time>1970-01-01T02:25:48.000Z</time>
      </trkpt>
      <trkpt lat="45.06044" lon="5.52413">
        <ele>1067.6</ele>
        <time>1970-01-01T02:25:51.000Z</time>
      </trkpt>
      <trkpt lat="45.06045" lon="5.52427">
        <ele>1067.6</ele>
        <time>1970-01-01T02:25:57.000Z</time>
      </trkpt>
      <trkpt lat="45.06046" lon="5.52431">
        <ele>1068</ele>
        <time>1970-01-01T02:25:59.000Z</time>
      </trkpt>
      <trkpt lat="45.06047" lon="5.52433">
        <ele>1068.4</ele>
        <time>1970-01-01T02:26:00.000Z</time>
      </trkpt>
      <trkpt lat="45.06047" lon="5.52436">
        <ele>1068.8</ele>
        <time>1970-01-01T02:26:01.000Z</time>
      </trkpt>
      <trkpt lat="45.06048" lon="5.52438">
        <ele>1069.2</ele>
        <time>1970-01-01T02:26:02.000Z</time>
      </trkpt>
      <trkpt lat="45.06049" lon="5.5244">
        <ele>1069.6</ele>
        <time>1970-01-01T02:26:03.000Z</time>
      </trkpt>
      <trkpt lat="45.0605" lon="5.52444">
        <ele>1069.6</ele>
        <time>1970-01-01T02:26:05.000Z</time>
      </trkpt>
      <trkpt lat="45.06054" lon="5.5245">
        <ele>1069.6</ele>
        <time>1970-01-01T02:26:08.000Z</time>
      </trkpt>
      <trkpt lat="45.06056" lon="5.52451">
        <ele>1069.6</ele>
        <time>1970-01-01T02:26:10.000Z</time>
      </trkpt>
      <trkpt lat="45.06061" lon="5.52454">
        <ele>1069.6</ele>
        <time>1970-01-01T02:26:14.000Z</time>
      </trkpt>
      <trkpt lat="45.06063" lon="5.52456">
        <ele>1070.6</ele>
        <time>1970-01-01T02:26:16.000Z</time>
      </trkpt>
      <trkpt lat="45.06065" lon="5.52457">
        <ele>1071</ele>
        <time>1970-01-01T02:26:17.000Z</time>
      </trkpt>
      <trkpt lat="45.06066" lon="5.52458">
        <ele>1071.4</ele>
        <time>1970-01-01T02:26:18.000Z</time>
      </trkpt>
      <trkpt lat="45.0607" lon="5.5246">
        <ele>1071.8</ele>
        <time>1970-01-01T02:26:22.000Z</time>
      </trkpt>
      <trkpt lat="45.06077" lon="5.52463">
        <ele>1072.2</ele>
        <time>1970-01-01T02:26:27.000Z</time>
      </trkpt>
      <trkpt lat="45.06078" lon="5.52464">
        <ele>1072.6</ele>
        <time>1970-01-01T02:26:28.000Z</time>
      </trkpt>
      <trkpt lat="45.0608" lon="5.52464">
        <ele>1073</ele>
        <time>1970-01-01T02:26:29.000Z</time>
      </trkpt>
      <trkpt lat="45.06081" lon="5.52465">
        <ele>1073.4</ele>
        <time>1970-01-01T02:26:30.000Z</time>
      </trkpt>
      <trkpt lat="45.06082" lon="5.52466">
        <ele>1073.8</ele>
        <time>1970-01-01T02:26:31.000Z</time>
      </trkpt>
      <trkpt lat="45.06091" lon="5.5247">
        <ele>1073.8</ele>
        <time>1970-01-01T02:26:36.000Z</time>
      </trkpt>
      <trkpt lat="45.06108" lon="5.52472">
        <ele>1073.8</ele>
        <time>1970-01-01T02:26:45.000Z</time>
      </trkpt>
      <trkpt lat="45.0612" lon="5.5247">
        <ele>1073.8</ele>
        <time>1970-01-01T02:26:50.000Z</time>
      </trkpt>
      <trkpt lat="45.0613" lon="5.5247">
        <ele>1074.4</ele>
        <time>1970-01-01T02:26:55.000Z</time>
      </trkpt>
      <trkpt lat="45.06132" lon="5.5247">
        <ele>1074.8</ele>
        <time>1970-01-01T02:26:56.000Z</time>
      </trkpt>
      <trkpt lat="45.06133" lon="5.5247">
        <ele>1075.2</ele>
        <time>1970-01-01T02:26:57.000Z</time>
      </trkpt>
      <trkpt lat="45.06134" lon="5.52471">
        <ele>1075.6</ele>
        <time>1970-01-01T02:26:58.000Z</time>
      </trkpt>
      <trkpt lat="45.06136" lon="5.52472">
        <ele>1076</ele>
        <time>1970-01-01T02:26:59.000Z</time>
      </trkpt>
      <trkpt lat="45.06144" lon="5.52474">
        <ele>1076</ele>
        <time>1970-01-01T02:27:03.000Z</time>
      </trkpt>
      <trkpt lat="45.06147" lon="5.52476">
        <ele>1076</ele>
        <time>1970-01-01T02:27:05.000Z</time>
      </trkpt>
      <trkpt lat="45.06154" lon="5.5248">
        <ele>1076</ele>
        <time>1970-01-01T02:27:09.000Z</time>
      </trkpt>
      <trkpt lat="45.06157" lon="5.52481">
        <ele>1076</ele>
        <time>1970-01-01T02:27:10.000Z</time>
      </trkpt>
      <trkpt lat="45.06167" lon="5.52488">
        <ele>1076</ele>
        <time>1970-01-01T02:27:16.000Z</time>
      </trkpt>
      <trkpt lat="45.06168" lon="5.5249">
        <ele>1076.4</ele>
        <time>1970-01-01T02:27:17.000Z</time>
      </trkpt>
      <trkpt lat="45.0617" lon="5.52491">
        <ele>1076.8</ele>
        <time>1970-01-01T02:27:18.000Z</time>
      </trkpt>
      <trkpt lat="45.06171" lon="5.52492">
        <ele>1077.2</ele>
        <time>1970-01-01T02:27:19.000Z</time>
      </trkpt>
      <trkpt lat="45.06172" lon="5.52493">
        <ele>1077.6</ele>
        <time>1970-01-01T02:27:20.000Z</time>
      </trkpt>
      <trkpt lat="45.06173" lon="5.52495">
        <ele>1078</ele>
        <time>1970-01-01T02:27:21.000Z</time>
      </trkpt>
      <trkpt lat="45.06175" lon="5.52499">
        <ele>1078</ele>
        <time>1970-01-01T02:27:23.000Z</time>
      </trkpt>
      <trkpt lat="45.06179" lon="5.52508">
        <ele>1078</ele>
        <time>1970-01-01T02:27:28.000Z</time>
      </trkpt>
      <trkpt lat="45.0618" lon="5.52513">
        <ele>1078.4</ele>
        <time>1970-01-01T02:27:30.000Z</time>
      </trkpt>
      <trkpt lat="45.0618" lon="5.52515">
        <ele>1079</ele>
        <time>1970-01-01T02:27:31.000Z</time>
      </trkpt>
      <trkpt lat="45.0618" lon="5.52516">
        <ele>1079.4</ele>
        <time>1970-01-01T02:27:32.000Z</time>
      </trkpt>
      <trkpt lat="45.06181" lon="5.52519">
        <ele>1079.8</ele>
        <time>1970-01-01T02:27:33.000Z</time>
      </trkpt>
      <trkpt lat="45.06181" lon="5.52521">
        <ele>1080.2</ele>
        <time>1970-01-01T02:27:34.000Z</time>
      </trkpt>
      <trkpt lat="45.06181" lon="5.52523">
        <ele>1080.2</ele>
        <time>1970-01-01T02:27:35.000Z</time>
      </trkpt>
      <trkpt lat="45.06183" lon="5.5253">
        <ele>1080.6</ele>
        <time>1970-01-01T02:27:39.000Z</time>
      </trkpt>
      <trkpt lat="45.06183" lon="5.52532">
        <ele>1081</ele>
        <time>1970-01-01T02:27:40.000Z</time>
      </trkpt>
      <trkpt lat="45.06183" lon="5.52534">
        <ele>1081.4</ele>
        <time>1970-01-01T02:27:41.000Z</time>
      </trkpt>
      <trkpt lat="45.06183" lon="5.52535">
        <ele>1081.8</ele>
        <time>1970-01-01T02:27:42.000Z</time>
      </trkpt>
      <trkpt lat="45.06183" lon="5.52537">
        <ele>1082.2</ele>
        <time>1970-01-01T02:27:43.000Z</time>
      </trkpt>
      <trkpt lat="45.06185" lon="5.52543">
        <ele>1082.2</ele>
        <time>1970-01-01T02:27:47.000Z</time>
      </trkpt>
      <trkpt lat="45.06185" lon="5.52551">
        <ele>1082.8</ele>
        <time>1970-01-01T02:27:51.000Z</time>
      </trkpt>
      <trkpt lat="45.06184" lon="5.52553">
        <ele>1083.2</ele>
        <time>1970-01-01T02:27:52.000Z</time>
      </trkpt>
      <trkpt lat="45.06185" lon="5.52555">
        <ele>1083.6</ele>
        <time>1970-01-01T02:27:53.000Z</time>
      </trkpt>
      <trkpt lat="45.06185" lon="5.52556">
        <ele>1084</ele>
        <time>1970-01-01T02:27:54.000Z</time>
      </trkpt>
      <trkpt lat="45.06185" lon="5.52558">
        <ele>1084.6</ele>
        <time>1970-01-01T02:27:55.000Z</time>
      </trkpt>
      <trkpt lat="45.0619" lon="5.52573">
        <ele>1084.6</ele>
        <time>1970-01-01T02:28:01.000Z</time>
      </trkpt>
      <trkpt lat="45.06199" lon="5.52587">
        <ele>1084.6</ele>
        <time>1970-01-01T02:28:08.000Z</time>
      </trkpt>
      <trkpt lat="45.06209" lon="5.52598">
        <ele>1084.6</ele>
        <time>1970-01-01T02:28:15.000Z</time>
      </trkpt>
      <trkpt lat="45.06221" lon="5.52607">
        <ele>1085</ele>
        <time>1970-01-01T02:28:22.000Z</time>
      </trkpt>
      <trkpt lat="45.06222" lon="5.52609">
        <ele>1085.4</ele>
        <time>1970-01-01T02:28:23.000Z</time>
      </trkpt>
      <trkpt lat="45.06225" lon="5.52609">
        <ele>1085.8</ele>
        <time>1970-01-01T02:28:24.000Z</time>
      </trkpt>
      <trkpt lat="45.06226" lon="5.5261">
        <ele>1086.2</ele>
        <time>1970-01-01T02:28:25.000Z</time>
      </trkpt>
      <trkpt lat="45.06228" lon="5.52611">
        <ele>1086.6</ele>
        <time>1970-01-01T02:28:26.000Z</time>
      </trkpt>
      <trkpt lat="45.0623" lon="5.52612">
        <ele>1086.6</ele>
        <time>1970-01-01T02:28:28.000Z</time>
      </trkpt>
      <trkpt lat="45.0624" lon="5.52615">
        <ele>1086.6</ele>
        <time>1970-01-01T02:28:34.000Z</time>
      </trkpt>
      <trkpt lat="45.0625" lon="5.52618">
        <ele>1087</ele>
        <time>1970-01-01T02:28:39.000Z</time>
      </trkpt>
      <trkpt lat="45.06253" lon="5.52619">
        <ele>1087.4</ele>
        <time>1970-01-01T02:28:40.000Z</time>
      </trkpt>
      <trkpt lat="45.06254" lon="5.5262">
        <ele>1087.8</ele>
        <time>1970-01-01T02:28:41.000Z</time>
      </trkpt>
      <trkpt lat="45.06257" lon="5.5262">
        <ele>1088.2</ele>
        <time>1970-01-01T02:28:42.000Z</time>
      </trkpt>
      <trkpt lat="45.06259" lon="5.5262">
        <ele>1088.6</ele>
        <time>1970-01-01T02:28:43.000Z</time>
      </trkpt>
      <trkpt lat="45.06268" lon="5.52621">
        <ele>1088.6</ele>
        <time>1970-01-01T02:28:48.000Z</time>
      </trkpt>
      <trkpt lat="45.06274" lon="5.52621">
        <ele>1089.2</ele>
        <time>1970-01-01T02:28:52.000Z</time>
      </trkpt>
      <trkpt lat="45.06275" lon="5.52621">
        <ele>1089.6</ele>
        <time>1970-01-01T02:28:53.000Z</time>
      </trkpt>
      <trkpt lat="45.06277" lon="5.52621">
        <ele>1090</ele>
        <time>1970-01-01T02:28:54.000Z</time>
      </trkpt>
      <trkpt lat="45.06279" lon="5.52622">
        <ele>1090.6</ele>
        <time>1970-01-01T02:28:55.000Z</time>
      </trkpt>
      <trkpt lat="45.0628" lon="5.52622">
        <ele>1091</ele>
        <time>1970-01-01T02:28:56.000Z</time>
      </trkpt>
      <trkpt lat="45.06282" lon="5.52623">
        <ele>1091</ele>
        <time>1970-01-01T02:28:57.000Z</time>
      </trkpt>
      <trkpt lat="45.06284" lon="5.52624">
        <ele>1091</ele>
        <time>1970-01-01T02:28:59.000Z</time>
      </trkpt>
      <trkpt lat="45.06289" lon="5.52624">
        <ele>1091</ele>
        <time>1970-01-01T02:29:02.000Z</time>
      </trkpt>
      <trkpt lat="45.06291" lon="5.52625">
        <ele>1091.4</ele>
        <time>1970-01-01T02:29:03.000Z</time>
      </trkpt>
      <trkpt lat="45.06292" lon="5.52625">
        <ele>1091.8</ele>
        <time>1970-01-01T02:29:04.000Z</time>
      </trkpt>
      <trkpt lat="45.06294" lon="5.52626">
        <ele>1092.6</ele>
        <time>1970-01-01T02:29:05.000Z</time>
      </trkpt>
      <trkpt lat="45.06296" lon="5.52627">
        <ele>1093</ele>
        <time>1970-01-01T02:29:07.000Z</time>
      </trkpt>
      <trkpt lat="45.063" lon="5.52628">
        <ele>1093</ele>
        <time>1970-01-01T02:29:10.000Z</time>
      </trkpt>
      <trkpt lat="45.06307" lon="5.52628">
        <ele>1093.6</ele>
        <time>1970-01-01T02:29:15.000Z</time>
      </trkpt>
      <trkpt lat="45.06308" lon="5.52629">
        <ele>1094</ele>
        <time>1970-01-01T02:29:16.000Z</time>
      </trkpt>
      <trkpt lat="45.0631" lon="5.52629">
        <ele>1094.4</ele>
        <time>1970-01-01T02:29:17.000Z</time>
      </trkpt>
      <trkpt lat="45.06311" lon="5.5263">
        <ele>1094.8</ele>
        <time>1970-01-01T02:29:18.000Z</time>
      </trkpt>
      <trkpt lat="45.06313" lon="5.5263">
        <ele>1095.2</ele>
        <time>1970-01-01T02:29:19.000Z</time>
      </trkpt>
      <trkpt lat="45.0632" lon="5.52632">
        <ele>1095.2</ele>
        <time>1970-01-01T02:29:25.000Z</time>
      </trkpt>
      <trkpt lat="45.06321" lon="5.52631">
        <ele>1095.6</ele>
        <time>1970-01-01T02:29:26.000Z</time>
      </trkpt>
      <trkpt lat="45.06323" lon="5.52631">
        <ele>1096</ele>
        <time>1970-01-01T02:29:27.000Z</time>
      </trkpt>
      <trkpt lat="45.06324" lon="5.52632">
        <ele>1096.4</ele>
        <time>1970-01-01T02:29:28.000Z</time>
      </trkpt>
      <trkpt lat="45.06325" lon="5.52632">
        <ele>1096.8</ele>
        <time>1970-01-01T02:29:29.000Z</time>
      </trkpt>
      <trkpt lat="45.06327" lon="5.52634">
        <ele>1097.2</ele>
        <time>1970-01-01T02:29:30.000Z</time>
      </trkpt>
      <trkpt lat="45.06328" lon="5.52634">
        <ele>1097.2</ele>
        <time>1970-01-01T02:29:31.000Z</time>
      </trkpt>
      <trkpt lat="45.06331" lon="5.52638">
        <ele>1097.6</ele>
        <time>1970-01-01T02:29:33.000Z</time>
      </trkpt>
      <trkpt lat="45.06333" lon="5.52639">
        <ele>1098</ele>
        <time>1970-01-01T02:29:34.000Z</time>
      </trkpt>
      <trkpt lat="45.06335" lon="5.5264">
        <ele>1098.6</ele>
        <time>1970-01-01T02:29:35.000Z</time>
      </trkpt>
      <trkpt lat="45.06336" lon="5.52642">
        <ele>1099</ele>
        <time>1970-01-01T02:29:36.000Z</time>
      </trkpt>
      <trkpt lat="45.06338" lon="5.52643">
        <ele>1099.4</ele>
        <time>1970-01-01T02:29:37.000Z</time>
      </trkpt>
      <trkpt lat="45.06338" lon="5.5265">
        <ele>1099.4</ele>
        <time>1970-01-01T02:29:41.000Z</time>
      </trkpt>
      <trkpt lat="45.06334" lon="5.52665">
        <ele>1099.4</ele>
        <time>1970-01-01T02:29:49.000Z</time>
      </trkpt>
      <trkpt lat="45.06332" lon="5.52669">
        <ele>1099.8</ele>
        <time>1970-01-01T02:29:51.000Z</time>
      </trkpt>
      <trkpt lat="45.06331" lon="5.52671">
        <ele>1100.2</ele>
        <time>1970-01-01T02:29:52.000Z</time>
      </trkpt>
      <trkpt lat="45.0633" lon="5.52673">
        <ele>1100.6</ele>
        <time>1970-01-01T02:29:53.000Z</time>
      </trkpt>
      <trkpt lat="45.06329" lon="5.52675">
        <ele>1101</ele>
        <time>1970-01-01T02:29:54.000Z</time>
      </trkpt>
      <trkpt lat="45.06328" lon="5.52676">
        <ele>1101.4</ele>
        <time>1970-01-01T02:29:55.000Z</time>
      </trkpt>
      <trkpt lat="45.06326" lon="5.52679">
        <ele>1101.4</ele>
        <time>1970-01-01T02:29:57.000Z</time>
      </trkpt>
      <trkpt lat="45.06322" lon="5.52682">
        <ele>1101.4</ele>
        <time>1970-01-01T02:30:00.000Z</time>
      </trkpt>
      <trkpt lat="45.0632" lon="5.52684">
        <ele>1101.4</ele>
        <time>1970-01-01T02:30:02.000Z</time>
      </trkpt>
      <trkpt lat="45.06314" lon="5.52688">
        <ele>1101.8</ele>
        <time>1970-01-01T02:30:06.000Z</time>
      </trkpt>
      <trkpt lat="45.06313" lon="5.52689">
        <ele>1102.2</ele>
        <time>1970-01-01T02:30:07.000Z</time>
      </trkpt>
      <trkpt lat="45.06311" lon="5.5269">
        <ele>1102.6</ele>
        <time>1970-01-01T02:30:08.000Z</time>
      </trkpt>
      <trkpt lat="45.0631" lon="5.52691">
        <ele>1103</ele>
        <time>1970-01-01T02:30:09.000Z</time>
      </trkpt>
      <trkpt lat="45.06309" lon="5.52692">
        <ele>1103.4</ele>
        <time>1970-01-01T02:30:10.000Z</time>
      </trkpt>
      <trkpt lat="45.06308" lon="5.52693">
        <ele>1103.4</ele>
        <time>1970-01-01T02:30:11.000Z</time>
      </trkpt>
      <trkpt lat="45.06307" lon="5.52694">
        <ele>1103.4</ele>
        <time>1970-01-01T02:30:12.000Z</time>
      </trkpt>
      <trkpt lat="45.06301" lon="5.52701">
        <ele>1103.4</ele>
        <time>1970-01-01T02:30:17.000Z</time>
      </trkpt>
      <trkpt lat="45.06296" lon="5.52707">
        <ele>1103.8</ele>
        <time>1970-01-01T02:30:21.000Z</time>
      </trkpt>
      <trkpt lat="45.06295" lon="5.52708">
        <ele>1104.8</ele>
        <time>1970-01-01T02:30:22.000Z</time>
      </trkpt>
      <trkpt lat="45.06294" lon="5.5271">
        <ele>1105.2</ele>
        <time>1970-01-01T02:30:23.000Z</time>
      </trkpt>
      <trkpt lat="45.06293" lon="5.52712">
        <ele>1105.6</ele>
        <time>1970-01-01T02:30:24.000Z</time>
      </trkpt>
      <trkpt lat="45.06284" lon="5.52725">
        <ele>1105.6</ele>
        <time>1970-01-01T02:30:32.000Z</time>
      </trkpt>
      <trkpt lat="45.0628" lon="5.52733">
        <ele>1106</ele>
        <time>1970-01-01T02:30:36.000Z</time>
      </trkpt>
      <trkpt lat="45.06279" lon="5.52735">
        <ele>1106.4</ele>
        <time>1970-01-01T02:30:37.000Z</time>
      </trkpt>
      <trkpt lat="45.06279" lon="5.52736">
        <ele>1106.8</ele>
        <time>1970-01-01T02:30:38.000Z</time>
      </trkpt>
      <trkpt lat="45.06278" lon="5.52738">
        <ele>1107.2</ele>
        <time>1970-01-01T02:30:39.000Z</time>
      </trkpt>
      <trkpt lat="45.06278" lon="5.5274">
        <ele>1107.6</ele>
        <time>1970-01-01T02:30:40.000Z</time>
      </trkpt>
      <trkpt lat="45.06274" lon="5.52748">
        <ele>1107.6</ele>
        <time>1970-01-01T02:30:45.000Z</time>
      </trkpt>
      <trkpt lat="45.06271" lon="5.52753">
        <ele>1108</ele>
        <time>1970-01-01T02:30:48.000Z</time>
      </trkpt>
      <trkpt lat="45.0627" lon="5.52755">
        <ele>1108.4</ele>
        <time>1970-01-01T02:30:49.000Z</time>
      </trkpt>
      <trkpt lat="45.06269" lon="5.52757">
        <ele>1108.8</ele>
        <time>1970-01-01T02:30:50.000Z</time>
      </trkpt>
      <trkpt lat="45.06269" lon="5.52758">
        <ele>1109.2</ele>
        <time>1970-01-01T02:30:51.000Z</time>
      </trkpt>
      <trkpt lat="45.06268" lon="5.5276">
        <ele>1109.6</ele>
        <time>1970-01-01T02:30:52.000Z</time>
      </trkpt>
      <trkpt lat="45.06263" lon="5.5277">
        <ele>1109.6</ele>
        <time>1970-01-01T02:30:58.000Z</time>
      </trkpt>
      <trkpt lat="45.0626" lon="5.52776">
        <ele>1110</ele>
        <time>1970-01-01T02:31:02.000Z</time>
      </trkpt>
      <trkpt lat="45.0626" lon="5.52778">
        <ele>1110.6</ele>
        <time>1970-01-01T02:31:03.000Z</time>
      </trkpt>
      <trkpt lat="45.06259" lon="5.5278">
        <ele>1111</ele>
        <time>1970-01-01T02:31:04.000Z</time>
      </trkpt>
      <trkpt lat="45.06259" lon="5.52782">
        <ele>1111.4</ele>
        <time>1970-01-01T02:31:05.000Z</time>
      </trkpt>
      <trkpt lat="45.06258" lon="5.52784">
        <ele>1111.8</ele>
        <time>1970-01-01T02:31:06.000Z</time>
      </trkpt>
      <trkpt lat="45.06254" lon="5.52801">
        <ele>1112.2</ele>
        <time>1970-01-01T02:31:15.000Z</time>
      </trkpt>
      <trkpt lat="45.06254" lon="5.52802">
        <ele>1112.6</ele>
        <time>1970-01-01T02:31:16.000Z</time>
      </trkpt>
      <trkpt lat="45.06253" lon="5.52804">
        <ele>1113</ele>
        <time>1970-01-01T02:31:17.000Z</time>
      </trkpt>
      <trkpt lat="45.06252" lon="5.52805">
        <ele>1113.4</ele>
        <time>1970-01-01T02:31:18.000Z</time>
      </trkpt>
      <trkpt lat="45.06252" lon="5.52808">
        <ele>1113.8</ele>
        <time>1970-01-01T02:31:19.000Z</time>
      </trkpt>
      <trkpt lat="45.06249" lon="5.52815">
        <ele>1113.8</ele>
        <time>1970-01-01T02:31:23.000Z</time>
      </trkpt>
      <trkpt lat="45.06248" lon="5.52816">
        <ele>1113.8</ele>
        <time>1970-01-01T02:31:24.000Z</time>
      </trkpt>
      <trkpt lat="45.06247" lon="5.52823">
        <ele>1114.4</ele>
        <time>1970-01-01T02:31:28.000Z</time>
      </trkpt>
      <trkpt lat="45.06246" lon="5.52824">
        <ele>1114.8</ele>
        <time>1970-01-01T02:31:29.000Z</time>
      </trkpt>
      <trkpt lat="45.06246" lon="5.52826">
        <ele>1115.2</ele>
        <time>1970-01-01T02:31:30.000Z</time>
      </trkpt>
      <trkpt lat="45.06245" lon="5.52827">
        <ele>1115.6</ele>
        <time>1970-01-01T02:31:31.000Z</time>
      </trkpt>
      <trkpt lat="45.06244" lon="5.52828">
        <ele>1116</ele>
        <time>1970-01-01T02:31:32.000Z</time>
      </trkpt>
      <trkpt lat="45.06242" lon="5.52833">
        <ele>1116</ele>
        <time>1970-01-01T02:31:36.000Z</time>
      </trkpt>
      <trkpt lat="45.06236" lon="5.52836">
        <ele>1116</ele>
        <time>1970-01-01T02:31:42.000Z</time>
      </trkpt>
      <trkpt lat="45.06235" lon="5.52837">
        <ele>1116</ele>
        <time>1970-01-01T02:31:43.000Z</time>
      </trkpt>
      <trkpt lat="45.06229" lon="5.52842">
        <ele>1116</ele>
        <time>1970-01-01T02:31:48.000Z</time>
      </trkpt>
      <trkpt lat="45.06221" lon="5.5285">
        <ele>1116</ele>
        <time>1970-01-01T02:31:55.000Z</time>
      </trkpt>
      <trkpt lat="45.06214" lon="5.52857">
        <ele>1116</ele>
        <time>1970-01-01T02:32:02.000Z</time>
      </trkpt>
      <trkpt lat="45.06206" lon="5.52865">
        <ele>1116</ele>
        <time>1970-01-01T02:32:09.000Z</time>
      </trkpt>
      <trkpt lat="45.062" lon="5.52867">
        <ele>1116</ele>
        <time>1970-01-01T02:32:15.000Z</time>
      </trkpt>
      <trkpt lat="45.06199" lon="5.52868">
        <ele>1116</ele>
        <time>1970-01-01T02:32:16.000Z</time>
      </trkpt>
      <trkpt lat="45.06188" lon="5.52872">
        <ele>1116</ele>
        <time>1970-01-01T02:32:26.000Z</time>
      </trkpt>
      <trkpt lat="45.06179" lon="5.52874">
        <ele>1116</ele>
        <time>1970-01-01T02:32:33.000Z</time>
      </trkpt>
      <trkpt lat="45.0617" lon="5.52873">
        <ele>1116</ele>
        <time>1970-01-01T02:32:40.000Z</time>
      </trkpt>
      <trkpt lat="45.06163" lon="5.52869">
        <ele>1116</ele>
        <time>1970-01-01T02:32:47.000Z</time>
      </trkpt>
      <trkpt lat="45.06153" lon="5.52872">
        <ele>1116</ele>
        <time>1970-01-01T02:32:53.000Z</time>
      </trkpt>
      <trkpt lat="45.06143" lon="5.52872">
        <ele>1116</ele>
        <time>1970-01-01T02:32:59.000Z</time>
      </trkpt>
      <trkpt lat="45.06142" lon="5.52872">
        <ele>1116</ele>
        <time>1970-01-01T02:33:00.000Z</time>
      </trkpt>
      <trkpt lat="45.0614" lon="5.52873">
        <ele>1116.4</ele>
        <time>1970-01-01T02:33:02.000Z</time>
      </trkpt>
      <trkpt lat="45.06139" lon="5.52872">
        <ele>1116.8</ele>
        <time>1970-01-01T02:33:03.000Z</time>
      </trkpt>
      <trkpt lat="45.06138" lon="5.52872">
        <ele>1117.4</ele>
        <time>1970-01-01T02:33:04.000Z</time>
      </trkpt>
      <trkpt lat="45.06137" lon="5.52873">
        <ele>1117.8</ele>
        <time>1970-01-01T02:33:05.000Z</time>
      </trkpt>
      <trkpt lat="45.06136" lon="5.52873">
        <ele>1118.2</ele>
        <time>1970-01-01T02:33:06.000Z</time>
      </trkpt>
      <trkpt lat="45.06129" lon="5.52877">
        <ele>1118.2</ele>
        <time>1970-01-01T02:33:12.000Z</time>
      </trkpt>
      <trkpt lat="45.06128" lon="5.52879">
        <ele>1118.2</ele>
        <time>1970-01-01T02:33:13.000Z</time>
      </trkpt>
      <trkpt lat="45.06125" lon="5.52881">
        <ele>1118.6</ele>
        <time>1970-01-01T02:33:15.000Z</time>
      </trkpt>
      <trkpt lat="45.06124" lon="5.52882">
        <ele>1119.4</ele>
        <time>1970-01-01T02:33:16.000Z</time>
      </trkpt>
      <trkpt lat="45.06123" lon="5.52883">
        <ele>1119.8</ele>
        <time>1970-01-01T02:33:17.000Z</time>
      </trkpt>
      <trkpt lat="45.06122" lon="5.52884">
        <ele>1120.2</ele>
        <time>1970-01-01T02:33:18.000Z</time>
      </trkpt>
      <trkpt lat="45.06121" lon="5.52884">
        <ele>1120.2</ele>
        <time>1970-01-01T02:33:19.000Z</time>
      </trkpt>
      <trkpt lat="45.06117" lon="5.52887">
        <ele>1120.2</ele>
        <time>1970-01-01T02:33:23.000Z</time>
      </trkpt>
      <trkpt lat="45.06116" lon="5.5289">
        <ele>1120.2</ele>
        <time>1970-01-01T02:33:25.000Z</time>
      </trkpt>
      <trkpt lat="45.06114" lon="5.5289">
        <ele>1120.2</ele>
        <time>1970-01-01T02:33:26.000Z</time>
      </trkpt>
      <trkpt lat="45.06111" lon="5.52891">
        <ele>1120.6</ele>
        <time>1970-01-01T02:33:28.000Z</time>
      </trkpt>
      <trkpt lat="45.0611" lon="5.52891">
        <ele>1121</ele>
        <time>1970-01-01T02:33:29.000Z</time>
      </trkpt>
      <trkpt lat="45.06109" lon="5.52891">
        <ele>1121.4</ele>
        <time>1970-01-01T02:33:30.000Z</time>
      </trkpt>
      <trkpt lat="45.06108" lon="5.52891">
        <ele>1121.8</ele>
        <time>1970-01-01T02:33:31.000Z</time>
      </trkpt>
      <trkpt lat="45.06107" lon="5.52892">
        <ele>1122.4</ele>
        <time>1970-01-01T02:33:32.000Z</time>
      </trkpt>
      <trkpt lat="45.06096" lon="5.52891">
        <ele>1122.4</ele>
        <time>1970-01-01T02:33:41.000Z</time>
      </trkpt>
      <trkpt lat="45.06095" lon="5.52892">
        <ele>1122.8</ele>
        <time>1970-01-01T02:33:42.000Z</time>
      </trkpt>
      <trkpt lat="45.06094" lon="5.52892">
        <ele>1123.2</ele>
        <time>1970-01-01T02:33:43.000Z</time>
      </trkpt>
      <trkpt lat="45.06093" lon="5.52893">
        <ele>1123.6</ele>
        <time>1970-01-01T02:33:44.000Z</time>
      </trkpt>
      <trkpt lat="45.06092" lon="5.52893">
        <ele>1124</ele>
        <time>1970-01-01T02:33:45.000Z</time>
      </trkpt>
      <trkpt lat="45.06091" lon="5.52893">
        <ele>1124.4</ele>
        <time>1970-01-01T02:33:46.000Z</time>
      </trkpt>
      <trkpt lat="45.06088" lon="5.52893">
        <ele>1124.4</ele>
        <time>1970-01-01T02:33:49.000Z</time>
      </trkpt>
      <trkpt lat="45.06087" lon="5.52893">
        <ele>1124.4</ele>
        <time>1970-01-01T02:33:50.000Z</time>
      </trkpt>
      <trkpt lat="45.06084" lon="5.52894">
        <ele>1124.4</ele>
        <time>1970-01-01T02:33:55.000Z</time>
      </trkpt>
      <trkpt lat="45.06082" lon="5.52895">
        <ele>1124.8</ele>
        <time>1970-01-01T02:33:57.000Z</time>
      </trkpt>
      <trkpt lat="45.0608" lon="5.52896">
        <ele>1126.6</ele>
        <time>1970-01-01T02:34:03.000Z</time>
      </trkpt>
      <trkpt lat="45.06077" lon="5.52896">
        <ele>1126.6</ele>
        <time>1970-01-01T02:34:06.000Z</time>
      </trkpt>
      <trkpt lat="45.06074" lon="5.52896">
        <ele>1126.6</ele>
        <time>1970-01-01T02:34:09.000Z</time>
      </trkpt>
      <trkpt lat="45.06072" lon="5.52896">
        <ele>1126.6</ele>
        <time>1970-01-01T02:34:10.000Z</time>
      </trkpt>
      <trkpt lat="45.0607" lon="5.52897">
        <ele>1126.6</ele>
        <time>1970-01-01T02:34:12.000Z</time>
      </trkpt>
      <trkpt lat="45.06068" lon="5.52897">
        <ele>1127</ele>
        <time>1970-01-01T02:34:14.000Z</time>
      </trkpt>
      <trkpt lat="45.06067" lon="5.52898">
        <ele>1127.4</ele>
        <time>1970-01-01T02:34:15.000Z</time>
      </trkpt>
      <trkpt lat="45.06066" lon="5.52899">
        <ele>1127.8</ele>
        <time>1970-01-01T02:34:16.000Z</time>
      </trkpt>
      <trkpt lat="45.06064" lon="5.52899">
        <ele>1128.2</ele>
        <time>1970-01-01T02:34:17.000Z</time>
      </trkpt>
      <trkpt lat="45.06063" lon="5.529">
        <ele>1128.6</ele>
        <time>1970-01-01T02:34:18.000Z</time>
      </trkpt>
      <trkpt lat="45.0606" lon="5.52902">
        <ele>1128.6</ele>
        <time>1970-01-01T02:34:21.000Z</time>
      </trkpt>
      <trkpt lat="45.06058" lon="5.52904">
        <ele>1128.6</ele>
        <time>1970-01-01T02:34:23.000Z</time>
      </trkpt>
      <trkpt lat="45.06054" lon="5.52908">
        <ele>1129</ele>
        <time>1970-01-01T02:34:28.000Z</time>
      </trkpt>
      <trkpt lat="45.06053" lon="5.52909">
        <ele>1129.4</ele>
        <time>1970-01-01T02:34:29.000Z</time>
      </trkpt>
      <trkpt lat="45.06052" lon="5.52909">
        <ele>1130.2</ele>
        <time>1970-01-01T02:34:30.000Z</time>
      </trkpt>
      <trkpt lat="45.06051" lon="5.52909">
        <ele>1130.6</ele>
        <time>1970-01-01T02:34:31.000Z</time>
      </trkpt>
      <trkpt lat="45.06048" lon="5.5291">
        <ele>1130.6</ele>
        <time>1970-01-01T02:34:35.000Z</time>
      </trkpt>
      <trkpt lat="45.06047" lon="5.5291">
        <ele>1131</ele>
        <time>1970-01-01T02:34:36.000Z</time>
      </trkpt>
      <trkpt lat="45.06046" lon="5.52911">
        <ele>1131.4</ele>
        <time>1970-01-01T02:34:37.000Z</time>
      </trkpt>
      <trkpt lat="45.06045" lon="5.5291">
        <ele>1131.8</ele>
        <time>1970-01-01T02:34:38.000Z</time>
      </trkpt>
      <trkpt lat="45.06044" lon="5.52911">
        <ele>1132.2</ele>
        <time>1970-01-01T02:34:39.000Z</time>
      </trkpt>
      <trkpt lat="45.06041" lon="5.52911">
        <ele>1132.6</ele>
        <time>1970-01-01T02:34:43.000Z</time>
      </trkpt>
      <trkpt lat="45.0604" lon="5.52911">
        <ele>1132.6</ele>
        <time>1970-01-01T02:34:44.000Z</time>
      </trkpt>
      <trkpt lat="45.06033" lon="5.52914">
        <ele>1132.6</ele>
        <time>1970-01-01T02:34:50.000Z</time>
      </trkpt>
      <trkpt lat="45.0603" lon="5.52916">
        <ele>1133</ele>
        <time>1970-01-01T02:34:52.000Z</time>
      </trkpt>
      <trkpt lat="45.06029" lon="5.52917">
        <ele>1133.6</ele>
        <time>1970-01-01T02:34:53.000Z</time>
      </trkpt>
      <trkpt lat="45.06028" lon="5.52917">
        <ele>1134</ele>
        <time>1970-01-01T02:34:54.000Z</time>
      </trkpt>
      <trkpt lat="45.06027" lon="5.52918">
        <ele>1134.8</ele>
        <time>1970-01-01T02:34:56.000Z</time>
      </trkpt>
      <trkpt lat="45.06026" lon="5.52918">
        <ele>1134.8</ele>
        <time>1970-01-01T02:34:57.000Z</time>
      </trkpt>
      <trkpt lat="45.06024" lon="5.52921">
        <ele>1134.8</ele>
        <time>1970-01-01T02:34:59.000Z</time>
      </trkpt>
      <trkpt lat="45.0602" lon="5.52925">
        <ele>1134.8</ele>
        <time>1970-01-01T02:35:03.000Z</time>
      </trkpt>
      <trkpt lat="45.06018" lon="5.52931">
        <ele>1134.8</ele>
        <time>1970-01-01T02:35:08.000Z</time>
      </trkpt>
      <trkpt lat="45.06017" lon="5.52933">
        <ele>1135.2</ele>
        <time>1970-01-01T02:35:09.000Z</time>
      </trkpt>
      <trkpt lat="45.06017" lon="5.52934">
        <ele>1135.6</ele>
        <time>1970-01-01T02:35:10.000Z</time>
      </trkpt>
      <trkpt lat="45.06016" lon="5.52935">
        <ele>1136</ele>
        <time>1970-01-01T02:35:11.000Z</time>
      </trkpt>
      <trkpt lat="45.06016" lon="5.52937">
        <ele>1136.4</ele>
        <time>1970-01-01T02:35:12.000Z</time>
      </trkpt>
      <trkpt lat="45.06015" lon="5.52938">
        <ele>1136.8</ele>
        <time>1970-01-01T02:35:13.000Z</time>
      </trkpt>
      <trkpt lat="45.06013" lon="5.52941">
        <ele>1136.8</ele>
        <time>1970-01-01T02:35:15.000Z</time>
      </trkpt>
      <trkpt lat="45.06012" lon="5.52942">
        <ele>1136.8</ele>
        <time>1970-01-01T02:35:16.000Z</time>
      </trkpt>
      <trkpt lat="45.06009" lon="5.52946">
        <ele>1137.4</ele>
        <time>1970-01-01T02:35:20.000Z</time>
      </trkpt>
      <trkpt lat="45.06009" lon="5.52948">
        <ele>1137.8</ele>
        <time>1970-01-01T02:35:21.000Z</time>
      </trkpt>
      <trkpt lat="45.06008" lon="5.5295">
        <ele>1138.2</ele>
        <time>1970-01-01T02:35:22.000Z</time>
      </trkpt>
      <trkpt lat="45.06008" lon="5.52951">
        <ele>1138.6</ele>
        <time>1970-01-01T02:35:23.000Z</time>
      </trkpt>
      <trkpt lat="45.06007" lon="5.52952">
        <ele>1139</ele>
        <time>1970-01-01T02:35:24.000Z</time>
      </trkpt>
      <trkpt lat="45.06006" lon="5.52955">
        <ele>1139</ele>
        <time>1970-01-01T02:35:27.000Z</time>
      </trkpt>
      <trkpt lat="45.06004" lon="5.52959">
        <ele>1140.6</ele>
        <time>1970-01-01T02:35:33.000Z</time>
      </trkpt>
      <trkpt lat="45.06003" lon="5.52961">
        <ele>1141</ele>
        <time>1970-01-01T02:35:34.000Z</time>
      </trkpt>
      <trkpt lat="45.06" lon="5.52963">
        <ele>1141</ele>
        <time>1970-01-01T02:35:37.000Z</time>
      </trkpt>
      <trkpt lat="45.05999" lon="5.52963">
        <ele>1141</ele>
        <time>1970-01-01T02:35:38.000Z</time>
      </trkpt>
      <trkpt lat="45.05998" lon="5.52966">
        <ele>1141.6</ele>
        <time>1970-01-01T02:35:41.000Z</time>
      </trkpt>
      <trkpt lat="45.05997" lon="5.52967">
        <ele>1142</ele>
        <time>1970-01-01T02:35:42.000Z</time>
      </trkpt>
      <trkpt lat="45.05997" lon="5.52969">
        <ele>1143.2</ele>
        <time>1970-01-01T02:35:44.000Z</time>
      </trkpt>
      <trkpt lat="45.05994" lon="5.52973">
        <ele>1143.2</ele>
        <time>1970-01-01T02:35:48.000Z</time>
      </trkpt>
      <trkpt lat="45.05993" lon="5.52975">
        <ele>1143.8</ele>
        <time>1970-01-01T02:35:49.000Z</time>
      </trkpt>
      <trkpt lat="45.05992" lon="5.52976">
        <ele>1144.2</ele>
        <time>1970-01-01T02:35:50.000Z</time>
      </trkpt>
      <trkpt lat="45.05992" lon="5.52977">
        <ele>1144.6</ele>
        <time>1970-01-01T02:35:51.000Z</time>
      </trkpt>
      <trkpt lat="45.05991" lon="5.52979">
        <ele>1145.4</ele>
        <time>1970-01-01T02:35:53.000Z</time>
      </trkpt>
      <trkpt lat="45.05991" lon="5.52981">
        <ele>1145.4</ele>
        <time>1970-01-01T02:35:54.000Z</time>
      </trkpt>
      <trkpt lat="45.05989" lon="5.52985">
        <ele>1145.4</ele>
        <time>1970-01-01T02:35:58.000Z</time>
      </trkpt>
      <trkpt lat="45.05989" lon="5.52986">
        <ele>1146.4</ele>
        <time>1970-01-01T02:36:00.000Z</time>
      </trkpt>
      <trkpt lat="45.05989" lon="5.52988">
        <ele>1146.8</ele>
        <time>1970-01-01T02:36:01.000Z</time>
      </trkpt>
      <trkpt lat="45.05989" lon="5.52991">
        <ele>1147.6</ele>
        <time>1970-01-01T02:36:03.000Z</time>
      </trkpt>
      <trkpt lat="45.05989" lon="5.52993">
        <ele>1147.6</ele>
        <time>1970-01-01T02:36:04.000Z</time>
      </trkpt>
      <trkpt lat="45.05987" lon="5.53">
        <ele>1148.6</ele>
        <time>1970-01-01T02:36:08.000Z</time>
      </trkpt>
      <trkpt lat="45.05986" lon="5.53002">
        <ele>1149</ele>
        <time>1970-01-01T02:36:09.000Z</time>
      </trkpt>
      <trkpt lat="45.05986" lon="5.53004">
        <ele>1149.4</ele>
        <time>1970-01-01T02:36:10.000Z</time>
      </trkpt>
      <trkpt lat="45.05985" lon="5.53026">
        <ele>1156.2</ele>
        <time>1970-01-01T02:37:44.000Z</time>
      </trkpt>
      <trkpt lat="45.05985" lon="5.53028">
        <ele>1156.2</ele>
        <time>1970-01-01T02:37:45.000Z</time>
      </trkpt>
      <trkpt lat="45.05985" lon="5.53031">
        <ele>1156.2</ele>
        <time>1970-01-01T02:37:47.000Z</time>
      </trkpt>
      <trkpt lat="45.05984" lon="5.53037">
        <ele>1156.6</ele>
        <time>1970-01-01T02:37:51.000Z</time>
      </trkpt>
      <trkpt lat="45.05984" lon="5.53039">
        <ele>1157</ele>
        <time>1970-01-01T02:37:52.000Z</time>
      </trkpt>
      <trkpt lat="45.05984" lon="5.53041">
        <ele>1157.4</ele>
        <time>1970-01-01T02:37:53.000Z</time>
      </trkpt>
      <trkpt lat="45.05983" lon="5.53043">
        <ele>1157.8</ele>
        <time>1970-01-01T02:37:54.000Z</time>
      </trkpt>
      <trkpt lat="45.05982" lon="5.53045">
        <ele>1158.2</ele>
        <time>1970-01-01T02:37:55.000Z</time>
      </trkpt>
      <trkpt lat="45.05981" lon="5.5305">
        <ele>1158.2</ele>
        <time>1970-01-01T02:37:58.000Z</time>
      </trkpt>
      <trkpt lat="45.05981" lon="5.53052">
        <ele>1158.2</ele>
        <time>1970-01-01T02:37:59.000Z</time>
      </trkpt>
      <trkpt lat="45.05979" lon="5.53065">
        <ele>1160.2</ele>
        <time>1970-01-01T02:38:09.000Z</time>
      </trkpt>
      <trkpt lat="45.05978" lon="5.53069">
        <ele>1162</ele>
        <time>1970-01-01T02:38:13.000Z</time>
      </trkpt>
      <trkpt lat="45.05978" lon="5.53071">
        <ele>1162.4</ele>
        <time>1970-01-01T02:38:14.000Z</time>
      </trkpt>
      <trkpt lat="45.0598" lon="5.53079">
        <ele>1162.4</ele>
        <time>1970-01-01T02:38:18.000Z</time>
      </trkpt>
      <trkpt lat="45.05981" lon="5.53088">
        <ele>1162.4</ele>
        <time>1970-01-01T02:38:24.000Z</time>
      </trkpt>
      <trkpt lat="45.05982" lon="5.53098">
        <ele>1162.8</ele>
        <time>1970-01-01T02:38:29.000Z</time>
      </trkpt>
      <trkpt lat="45.05982" lon="5.531">
        <ele>1163.2</ele>
        <time>1970-01-01T02:38:30.000Z</time>
      </trkpt>
      <trkpt lat="45.05983" lon="5.53101">
        <ele>1163.6</ele>
        <time>1970-01-01T02:38:31.000Z</time>
      </trkpt>
      <trkpt lat="45.05983" lon="5.53104">
        <ele>1164</ele>
        <time>1970-01-01T02:38:32.000Z</time>
      </trkpt>
      <trkpt lat="45.05984" lon="5.53106">
        <ele>1164.4</ele>
        <time>1970-01-01T02:38:33.000Z</time>
      </trkpt>
      <trkpt lat="45.05984" lon="5.53112">
        <ele>1164.4</ele>
        <time>1970-01-01T02:38:36.000Z</time>
      </trkpt>
      <trkpt lat="45.05984" lon="5.53123">
        <ele>1164.4</ele>
        <time>1970-01-01T02:38:43.000Z</time>
      </trkpt>
      <trkpt lat="45.05985" lon="5.53126">
        <ele>1164.8</ele>
        <time>1970-01-01T02:38:45.000Z</time>
      </trkpt>
      <trkpt lat="45.05985" lon="5.53127">
        <ele>1165.2</ele>
        <time>1970-01-01T02:38:46.000Z</time>
      </trkpt>
      <trkpt lat="45.05985" lon="5.53128">
        <ele>1165.6</ele>
        <time>1970-01-01T02:38:47.000Z</time>
      </trkpt>
      <trkpt lat="45.05985" lon="5.5313">
        <ele>1166</ele>
        <time>1970-01-01T02:38:48.000Z</time>
      </trkpt>
      <trkpt lat="45.05986" lon="5.53131">
        <ele>1166.4</ele>
        <time>1970-01-01T02:38:49.000Z</time>
      </trkpt>
      <trkpt lat="45.05985" lon="5.53132">
        <ele>1166.4</ele>
        <time>1970-01-01T02:38:50.000Z</time>
      </trkpt>
      <trkpt lat="45.05985" lon="5.53136">
        <ele>1166.4</ele>
        <time>1970-01-01T02:38:53.000Z</time>
      </trkpt>
      <trkpt lat="45.05985" lon="5.53137">
        <ele>1166.4</ele>
        <time>1970-01-01T02:38:54.000Z</time>
      </trkpt>
      <trkpt lat="45.05985" lon="5.53138">
        <ele>1167.2</ele>
        <time>1970-01-01T02:38:56.000Z</time>
      </trkpt>
      <trkpt lat="45.05984" lon="5.53139">
        <ele>1167.6</ele>
        <time>1970-01-01T02:38:57.000Z</time>
      </trkpt>
      <trkpt lat="45.05983" lon="5.53141">
        <ele>1168</ele>
        <time>1970-01-01T02:38:58.000Z</time>
      </trkpt>
      <trkpt lat="45.05983" lon="5.53142">
        <ele>1168.4</ele>
        <time>1970-01-01T02:38:59.000Z</time>
      </trkpt>
      <trkpt lat="45.05983" lon="5.53154">
        <ele>1168.8</ele>
        <time>1970-01-01T02:39:04.000Z</time>
      </trkpt>
      <trkpt lat="45.05983" lon="5.53155">
        <ele>1169.4</ele>
        <time>1970-01-01T02:39:05.000Z</time>
      </trkpt>
      <trkpt lat="45.05982" lon="5.53157">
        <ele>1169.8</ele>
        <time>1970-01-01T02:39:06.000Z</time>
      </trkpt>
      <trkpt lat="45.05982" lon="5.53158">
        <ele>1170.2</ele>
        <time>1970-01-01T02:39:07.000Z</time>
      </trkpt>
      <trkpt lat="45.05982" lon="5.53159">
        <ele>1170.6</ele>
        <time>1970-01-01T02:39:08.000Z</time>
      </trkpt>
      <trkpt lat="45.05982" lon="5.53161">
        <ele>1170.6</ele>
        <time>1970-01-01T02:39:09.000Z</time>
      </trkpt>
      <trkpt lat="45.05982" lon="5.53166">
        <ele>1171</ele>
        <time>1970-01-01T02:39:12.000Z</time>
      </trkpt>
      <trkpt lat="45.05982" lon="5.53167">
        <ele>1171.4</ele>
        <time>1970-01-01T02:39:13.000Z</time>
      </trkpt>
      <trkpt lat="45.05982" lon="5.53169">
        <ele>1171.8</ele>
        <time>1970-01-01T02:39:14.000Z</time>
      </trkpt>
      <trkpt lat="45.05982" lon="5.53174">
        <ele>1173.2</ele>
        <time>1970-01-01T02:39:19.000Z</time>
      </trkpt>
      <trkpt lat="45.05982" lon="5.53176">
        <ele>1173.6</ele>
        <time>1970-01-01T02:39:20.000Z</time>
      </trkpt>
      <trkpt lat="45.05982" lon="5.53178">
        <ele>1174</ele>
        <time>1970-01-01T02:39:21.000Z</time>
      </trkpt>
      <trkpt lat="45.05982" lon="5.5318">
        <ele>1174.4</ele>
        <time>1970-01-01T02:39:22.000Z</time>
      </trkpt>
      <trkpt lat="45.05982" lon="5.53182">
        <ele>1174.8</ele>
        <time>1970-01-01T02:39:23.000Z</time>
      </trkpt>
      <trkpt lat="45.05981" lon="5.53183">
        <ele>1174.8</ele>
        <time>1970-01-01T02:39:24.000Z</time>
      </trkpt>
      <trkpt lat="45.05983" lon="5.53189">
        <ele>1176.8</ele>
        <time>1970-01-01T02:39:54.000Z</time>
      </trkpt>
      <trkpt lat="45.0598" lon="5.53197">
        <ele>1177.2</ele>
        <time>1970-01-01T02:39:58.000Z</time>
      </trkpt>
      <trkpt lat="45.05979" lon="5.53199">
        <ele>1177.6</ele>
        <time>1970-01-01T02:39:59.000Z</time>
      </trkpt>
      <trkpt lat="45.05978" lon="5.53201">
        <ele>1178.2</ele>
        <time>1970-01-01T02:40:00.000Z</time>
      </trkpt>
      <trkpt lat="45.05978" lon="5.53203">
        <ele>1179</ele>
        <time>1970-01-01T02:40:02.000Z</time>
      </trkpt>
      <trkpt lat="45.05976" lon="5.53207">
        <ele>1179</ele>
        <time>1970-01-01T02:40:05.000Z</time>
      </trkpt>
      <trkpt lat="45.05977" lon="5.53209">
        <ele>1179</ele>
        <time>1970-01-01T02:40:06.000Z</time>
      </trkpt>
      <trkpt lat="45.05977" lon="5.53212">
        <ele>1179.4</ele>
        <time>1970-01-01T02:40:07.000Z</time>
      </trkpt>
      <trkpt lat="45.05977" lon="5.53214">
        <ele>1179.8</ele>
        <time>1970-01-01T02:40:08.000Z</time>
      </trkpt>
      <trkpt lat="45.05978" lon="5.53217">
        <ele>1180.4</ele>
        <time>1970-01-01T02:40:09.000Z</time>
      </trkpt>
      <trkpt lat="45.05979" lon="5.53219">
        <ele>1180.8</ele>
        <time>1970-01-01T02:40:10.000Z</time>
      </trkpt>
      <trkpt lat="45.05979" lon="5.53221">
        <ele>1181.2</ele>
        <time>1970-01-01T02:40:11.000Z</time>
      </trkpt>
      <trkpt lat="45.05979" lon="5.53224">
        <ele>1181.2</ele>
        <time>1970-01-01T02:40:12.000Z</time>
      </trkpt>
      <trkpt lat="45.05979" lon="5.53228">
        <ele>1182</ele>
        <time>1970-01-01T02:40:15.000Z</time>
      </trkpt>
      <trkpt lat="45.05978" lon="5.53229">
        <ele>1182.6</ele>
        <time>1970-01-01T02:40:16.000Z</time>
      </trkpt>
      <trkpt lat="45.05978" lon="5.53231">
        <ele>1183</ele>
        <time>1970-01-01T02:40:17.000Z</time>
      </trkpt>
      <trkpt lat="45.05978" lon="5.53233">
        <ele>1183.4</ele>
        <time>1970-01-01T02:40:18.000Z</time>
      </trkpt>
      <trkpt lat="45.05979" lon="5.53237">
        <ele>1183.4</ele>
        <time>1970-01-01T02:40:20.000Z</time>
      </trkpt>
      <trkpt lat="45.05983" lon="5.53252">
        <ele>1183.4</ele>
        <time>1970-01-01T02:40:26.000Z</time>
      </trkpt>
      <trkpt lat="45.05986" lon="5.53267">
        <ele>1183.4</ele>
        <time>1970-01-01T02:40:32.000Z</time>
      </trkpt>
      <trkpt lat="45.05987" lon="5.53282">
        <ele>1183.4</ele>
        <time>1970-01-01T02:40:39.000Z</time>
      </trkpt>
      <trkpt lat="45.05988" lon="5.53289">
        <ele>1183.8</ele>
        <time>1970-01-01T02:40:43.000Z</time>
      </trkpt>
      <trkpt lat="45.05987" lon="5.5329">
        <ele>1184.2</ele>
        <time>1970-01-01T02:40:44.000Z</time>
      </trkpt>
      <trkpt lat="45.05987" lon="5.53292">
        <ele>1185</ele>
        <time>1970-01-01T02:40:46.000Z</time>
      </trkpt>
      <trkpt lat="45.05988" lon="5.53293">
        <ele>1185.4</ele>
        <time>1970-01-01T02:40:47.000Z</time>
      </trkpt>
      <trkpt lat="45.05989" lon="5.53299">
        <ele>1185.4</ele>
        <time>1970-01-01T02:40:50.000Z</time>
      </trkpt>
      <trkpt lat="45.05989" lon="5.53302">
        <ele>1185.4</ele>
        <time>1970-01-01T02:40:51.000Z</time>
      </trkpt>
      <trkpt lat="45.05992" lon="5.53313">
        <ele>1185.8</ele>
        <time>1970-01-01T02:40:57.000Z</time>
      </trkpt>
      <trkpt lat="45.05992" lon="5.53314">
        <ele>1186.2</ele>
        <time>1970-01-01T02:40:58.000Z</time>
      </trkpt>
      <trkpt lat="45.05992" lon="5.53315">
        <ele>1186.6</ele>
        <time>1970-01-01T02:40:59.000Z</time>
      </trkpt>
      <trkpt lat="45.05992" lon="5.53316">
        <ele>1187</ele>
        <time>1970-01-01T02:41:00.000Z</time>
      </trkpt>
      <trkpt lat="45.05992" lon="5.53317">
        <ele>1187.4</ele>
        <time>1970-01-01T02:41:01.000Z</time>
      </trkpt>
      <trkpt lat="45.05992" lon="5.53323">
        <ele>1187.4</ele>
        <time>1970-01-01T02:41:05.000Z</time>
      </trkpt>
      <trkpt lat="45.05994" lon="5.53335">
        <ele>1187.8</ele>
        <time>1970-01-01T02:41:13.000Z</time>
      </trkpt>
      <trkpt lat="45.05995" lon="5.53337">
        <ele>1188.2</ele>
        <time>1970-01-01T02:41:14.000Z</time>
      </trkpt>
      <trkpt lat="45.05995" lon="5.53338">
        <ele>1188.6</ele>
        <time>1970-01-01T02:41:15.000Z</time>
      </trkpt>
      <trkpt lat="45.05995" lon="5.5334">
        <ele>1189</ele>
        <time>1970-01-01T02:41:16.000Z</time>
      </trkpt>
      <trkpt lat="45.05996" lon="5.53342">
        <ele>1189.4</ele>
        <time>1970-01-01T02:41:17.000Z</time>
      </trkpt>
      <trkpt lat="45.05997" lon="5.53347">
        <ele>1189.4</ele>
        <time>1970-01-01T02:41:20.000Z</time>
      </trkpt>
      <trkpt lat="45.06" lon="5.53358">
        <ele>1189.4</ele>
        <time>1970-01-01T02:41:26.000Z</time>
      </trkpt>
      <trkpt lat="45.06" lon="5.5336">
        <ele>1189.8</ele>
        <time>1970-01-01T02:41:27.000Z</time>
      </trkpt>
      <trkpt lat="45.06" lon="5.53362">
        <ele>1190.2</ele>
        <time>1970-01-01T02:41:28.000Z</time>
      </trkpt>
      <trkpt lat="45.06001" lon="5.53364">
        <ele>1191</ele>
        <time>1970-01-01T02:41:29.000Z</time>
      </trkpt>
      <trkpt lat="45.06001" lon="5.53365">
        <ele>1191.6</ele>
        <time>1970-01-01T02:41:30.000Z</time>
      </trkpt>
      <trkpt lat="45.06003" lon="5.5337">
        <ele>1191.6</ele>
        <time>1970-01-01T02:41:33.000Z</time>
      </trkpt>
      <trkpt lat="45.06009" lon="5.53386">
        <ele>1191.6</ele>
        <time>1970-01-01T02:41:39.000Z</time>
      </trkpt>
      <trkpt lat="45.06016" lon="5.53399">
        <ele>1191.6</ele>
        <time>1970-01-01T02:41:45.000Z</time>
      </trkpt>
      <trkpt lat="45.06017" lon="5.53403">
        <ele>1191.6</ele>
        <time>1970-01-01T02:41:48.000Z</time>
      </trkpt>
      <trkpt lat="45.06018" lon="5.53405">
        <ele>1191.6</ele>
        <time>1970-01-01T02:41:50.000Z</time>
      </trkpt>
      <trkpt lat="45.06023" lon="5.53414">
        <ele>1191.6</ele>
        <time>1970-01-01T02:41:55.000Z</time>
      </trkpt>
      <trkpt lat="45.06034" lon="5.53432">
        <ele>1191.6</ele>
        <time>1970-01-01T02:42:02.000Z</time>
      </trkpt>
      <trkpt lat="45.06047" lon="5.53447">
        <ele>1191.6</ele>
        <time>1970-01-01T02:42:07.000Z</time>
      </trkpt>
      <trkpt lat="45.0606" lon="5.53463">
        <ele>1191.6</ele>
        <time>1970-01-01T02:42:11.000Z</time>
      </trkpt>
      <trkpt lat="45.06072" lon="5.53478">
        <ele>1191.2</ele>
        <time>1970-01-01T02:42:15.000Z</time>
      </trkpt>
      <trkpt lat="45.06075" lon="5.53481">
        <ele>1190.8</ele>
        <time>1970-01-01T02:42:16.000Z</time>
      </trkpt>
      <trkpt lat="45.06078" lon="5.53484">
        <ele>1190.4</ele>
        <time>1970-01-01T02:42:17.000Z</time>
      </trkpt>
      <trkpt lat="45.06083" lon="5.53489">
        <ele>1190</ele>
        <time>1970-01-01T02:42:18.000Z</time>
      </trkpt>
      <trkpt lat="45.06087" lon="5.53493">
        <ele>1189.4</ele>
        <time>1970-01-01T02:42:19.000Z</time>
      </trkpt>
      <trkpt lat="45.06091" lon="5.53499">
        <ele>1189</ele>
        <time>1970-01-01T02:42:20.000Z</time>
      </trkpt>
      <trkpt lat="45.06094" lon="5.53504">
        <ele>1188.6</ele>
        <time>1970-01-01T02:42:21.000Z</time>
      </trkpt>
      <trkpt lat="45.06098" lon="5.53509">
        <ele>1188.2</ele>
        <time>1970-01-01T02:42:22.000Z</time>
      </trkpt>
      <trkpt lat="45.06101" lon="5.53514">
        <ele>1187.8</ele>
        <time>1970-01-01T02:42:23.000Z</time>
      </trkpt>
      <trkpt lat="45.06104" lon="5.53519">
        <ele>1187.4</ele>
        <time>1970-01-01T02:42:24.000Z</time>
      </trkpt>
      <trkpt lat="45.06108" lon="5.53526">
        <ele>1187.4</ele>
        <time>1970-01-01T02:42:26.000Z</time>
      </trkpt>
      <trkpt lat="45.0611" lon="5.53529">
        <ele>1187.4</ele>
        <time>1970-01-01T02:42:27.000Z</time>
      </trkpt>
      <trkpt lat="45.06113" lon="5.53531">
        <ele>1187.4</ele>
        <time>1970-01-01T02:42:28.000Z</time>
      </trkpt>
      <trkpt lat="45.0612" lon="5.53543">
        <ele>1187</ele>
        <time>1970-01-01T02:42:31.000Z</time>
      </trkpt>
      <trkpt lat="45.06122" lon="5.53548">
        <ele>1186.6</ele>
        <time>1970-01-01T02:42:32.000Z</time>
      </trkpt>
      <trkpt lat="45.06125" lon="5.53552">
        <ele>1186.2</ele>
        <time>1970-01-01T02:42:33.000Z</time>
      </trkpt>
      <trkpt lat="45.06127" lon="5.53556">
        <ele>1185.8</ele>
        <time>1970-01-01T02:42:34.000Z</time>
      </trkpt>
      <trkpt lat="45.06129" lon="5.53559">
        <ele>1185.4</ele>
        <time>1970-01-01T02:42:35.000Z</time>
      </trkpt>
      <trkpt lat="45.06134" lon="5.53565">
        <ele>1185.4</ele>
        <time>1970-01-01T02:42:37.000Z</time>
      </trkpt>
      <trkpt lat="45.06137" lon="5.53569">
        <ele>1185.4</ele>
        <time>1970-01-01T02:42:39.000Z</time>
      </trkpt>
      <trkpt lat="45.06137" lon="5.53571">
        <ele>1185.4</ele>
        <time>1970-01-01T02:42:40.000Z</time>
      </trkpt>
      <trkpt lat="45.06144" lon="5.53584">
        <ele>1185.4</ele>
        <time>1970-01-01T02:42:48.000Z</time>
      </trkpt>
      <trkpt lat="45.06148" lon="5.5359">
        <ele>1185.4</ele>
        <time>1970-01-01T02:42:52.000Z</time>
      </trkpt>
      <trkpt lat="45.0615" lon="5.53596">
        <ele>1186.2</ele>
        <time>1970-01-01T02:42:56.000Z</time>
      </trkpt>
      <trkpt lat="45.06152" lon="5.53598">
        <ele>1186.6</ele>
        <time>1970-01-01T02:42:57.000Z</time>
      </trkpt>
      <trkpt lat="45.06153" lon="5.53599">
        <ele>1187</ele>
        <time>1970-01-01T02:42:58.000Z</time>
      </trkpt>
      <trkpt lat="45.06153" lon="5.53602">
        <ele>1187.4</ele>
        <time>1970-01-01T02:42:59.000Z</time>
      </trkpt>
      <trkpt lat="45.06156" lon="5.53609">
        <ele>1187.4</ele>
        <time>1970-01-01T02:43:03.000Z</time>
      </trkpt>
      <trkpt lat="45.06159" lon="5.53613">
        <ele>1187.8</ele>
        <time>1970-01-01T02:43:06.000Z</time>
      </trkpt>
      <trkpt lat="45.06159" lon="5.53614">
        <ele>1188.2</ele>
        <time>1970-01-01T02:43:07.000Z</time>
      </trkpt>
      <trkpt lat="45.0616" lon="5.53615">
        <ele>1188.6</ele>
        <time>1970-01-01T02:43:08.000Z</time>
      </trkpt>
      <trkpt lat="45.0616" lon="5.53617">
        <ele>1189.4</ele>
        <time>1970-01-01T02:43:09.000Z</time>
      </trkpt>
      <trkpt lat="45.06165" lon="5.53626">
        <ele>1189.4</ele>
        <time>1970-01-01T02:43:15.000Z</time>
      </trkpt>
      <trkpt lat="45.06166" lon="5.5363">
        <ele>1189.8</ele>
        <time>1970-01-01T02:43:18.000Z</time>
      </trkpt>
      <trkpt lat="45.06167" lon="5.53632">
        <ele>1190.2</ele>
        <time>1970-01-01T02:43:19.000Z</time>
      </trkpt>
      <trkpt lat="45.06168" lon="5.53632">
        <ele>1190.6</ele>
        <time>1970-01-01T02:43:20.000Z</time>
      </trkpt>
      <trkpt lat="45.06169" lon="5.53635">
        <ele>1191</ele>
        <time>1970-01-01T02:43:21.000Z</time>
      </trkpt>
      <trkpt lat="45.0617" lon="5.53637">
        <ele>1191.6</ele>
        <time>1970-01-01T02:43:22.000Z</time>
      </trkpt>
      <trkpt lat="45.06175" lon="5.53649">
        <ele>1191.6</ele>
        <time>1970-01-01T02:43:29.000Z</time>
      </trkpt>
      <trkpt lat="45.06175" lon="5.5365">
        <ele>1191.6</ele>
        <time>1970-01-01T02:43:30.000Z</time>
      </trkpt>
      <trkpt lat="45.06177" lon="5.53655">
        <ele>1193.6</ele>
        <time>1970-01-01T02:43:46.000Z</time>
      </trkpt>
      <trkpt lat="45.06178" lon="5.53656">
        <ele>1193.6</ele>
        <time>1970-01-01T02:43:47.000Z</time>
      </trkpt>
      <trkpt lat="45.0618" lon="5.5366">
        <ele>1193.6</ele>
        <time>1970-01-01T02:43:49.000Z</time>
      </trkpt>
      <trkpt lat="45.06183" lon="5.53666">
        <ele>1194</ele>
        <time>1970-01-01T02:43:52.000Z</time>
      </trkpt>
      <trkpt lat="45.06184" lon="5.53668">
        <ele>1194.4</ele>
        <time>1970-01-01T02:43:53.000Z</time>
      </trkpt>
      <trkpt lat="45.06185" lon="5.5367">
        <ele>1195</ele>
        <time>1970-01-01T02:43:54.000Z</time>
      </trkpt>
      <trkpt lat="45.06185" lon="5.53672">
        <ele>1195.4</ele>
        <time>1970-01-01T02:43:55.000Z</time>
      </trkpt>
      <trkpt lat="45.06185" lon="5.53674">
        <ele>1195.8</ele>
        <time>1970-01-01T02:43:56.000Z</time>
      </trkpt>
      <trkpt lat="45.06186" lon="5.53679">
        <ele>1196.2</ele>
        <time>1970-01-01T02:44:00.000Z</time>
      </trkpt>
      <trkpt lat="45.06186" lon="5.53681">
        <ele>1196.6</ele>
        <time>1970-01-01T02:44:01.000Z</time>
      </trkpt>
      <trkpt lat="45.06186" lon="5.53683">
        <ele>1197.4</ele>
        <time>1970-01-01T02:44:03.000Z</time>
      </trkpt>
      <trkpt lat="45.06187" lon="5.53683">
        <ele>1198</ele>
        <time>1970-01-01T02:44:04.000Z</time>
      </trkpt>
      <trkpt lat="45.06189" lon="5.53685">
        <ele>1198</ele>
        <time>1970-01-01T02:44:07.000Z</time>
      </trkpt>
      <trkpt lat="45.0619" lon="5.53686">
        <ele>1198</ele>
        <time>1970-01-01T02:44:08.000Z</time>
      </trkpt>
      <trkpt lat="45.0619" lon="5.5369">
        <ele>1198</ele>
        <time>1970-01-01T02:45:57.000Z</time>
      </trkpt>
      <trkpt lat="45.06191" lon="5.53692">
        <ele>1198</ele>
        <time>1970-01-01T02:45:58.000Z</time>
      </trkpt>
      <trkpt lat="45.06195" lon="5.53697">
        <ele>1198</ele>
        <time>1970-01-01T02:46:00.000Z</time>
      </trkpt>
      <trkpt lat="45.06199" lon="5.53701">
        <ele>1197.4</ele>
        <time>1970-01-01T02:46:01.000Z</time>
      </trkpt>
      <trkpt lat="45.06202" lon="5.53706">
        <ele>1196.6</ele>
        <time>1970-01-01T02:46:02.000Z</time>
      </trkpt>
      <trkpt lat="45.06207" lon="5.53711">
        <ele>1196.2</ele>
        <time>1970-01-01T02:46:03.000Z</time>
      </trkpt>
      <trkpt lat="45.06212" lon="5.53716">
        <ele>1195.4</ele>
        <time>1970-01-01T02:46:04.000Z</time>
      </trkpt>
      <trkpt lat="45.06216" lon="5.53721">
        <ele>1194.8</ele>
        <time>1970-01-01T02:46:05.000Z</time>
      </trkpt>
      <trkpt lat="45.0622" lon="5.53727">
        <ele>1194</ele>
        <time>1970-01-01T02:46:06.000Z</time>
      </trkpt>
      <trkpt lat="45.06226" lon="5.53734">
        <ele>1193.2</ele>
        <time>1970-01-01T02:46:07.000Z</time>
      </trkpt>
      <trkpt lat="45.06232" lon="5.53739">
        <ele>1192.4</ele>
        <time>1970-01-01T02:46:08.000Z</time>
      </trkpt>
      <trkpt lat="45.06239" lon="5.53743">
        <ele>1191.4</ele>
        <time>1970-01-01T02:46:09.000Z</time>
      </trkpt>
      <trkpt lat="45.06246" lon="5.53748">
        <ele>1190.4</ele>
        <time>1970-01-01T02:46:10.000Z</time>
      </trkpt>
      <trkpt lat="45.06252" lon="5.53754">
        <ele>1189.2</ele>
        <time>1970-01-01T02:46:11.000Z</time>
      </trkpt>
      <trkpt lat="45.06258" lon="5.53761">
        <ele>1188.2</ele>
        <time>1970-01-01T02:46:12.000Z</time>
      </trkpt>
      <trkpt lat="45.06265" lon="5.53767">
        <ele>1187.2</ele>
        <time>1970-01-01T02:46:13.000Z</time>
      </trkpt>
      <trkpt lat="45.06271" lon="5.53773">
        <ele>1186.2</ele>
        <time>1970-01-01T02:46:14.000Z</time>
      </trkpt>
      <trkpt lat="45.06279" lon="5.53779">
        <ele>1185</ele>
        <time>1970-01-01T02:46:15.000Z</time>
      </trkpt>
      <trkpt lat="45.06286" lon="5.53785">
        <ele>1184</ele>
        <time>1970-01-01T02:46:16.000Z</time>
      </trkpt>
      <trkpt lat="45.06294" lon="5.53791">
        <ele>1182.8</ele>
        <time>1970-01-01T02:46:17.000Z</time>
      </trkpt>
      <trkpt lat="45.06303" lon="5.53797">
        <ele>1181.6</ele>
        <time>1970-01-01T02:46:18.000Z</time>
      </trkpt>
      <trkpt lat="45.06311" lon="5.53802">
        <ele>1180.4</ele>
        <time>1970-01-01T02:46:19.000Z</time>
      </trkpt>
      <trkpt lat="45.0632" lon="5.53808">
        <ele>1179.4</ele>
        <time>1970-01-01T02:46:20.000Z</time>
      </trkpt>
      <trkpt lat="45.06329" lon="5.53812">
        <ele>1178.4</ele>
        <time>1970-01-01T02:46:21.000Z</time>
      </trkpt>
      <trkpt lat="45.06338" lon="5.53816">
        <ele>1177.4</ele>
        <time>1970-01-01T02:46:22.000Z</time>
      </trkpt>
      <trkpt lat="45.06347" lon="5.5382">
        <ele>1176.2</ele>
        <time>1970-01-01T02:46:23.000Z</time>
      </trkpt>
      <trkpt lat="45.06355" lon="5.53825">
        <ele>1175.2</ele>
        <time>1970-01-01T02:46:24.000Z</time>
      </trkpt>
      <trkpt lat="45.06363" lon="5.53829">
        <ele>1174.2</ele>
        <time>1970-01-01T02:46:25.000Z</time>
      </trkpt>
      <trkpt lat="45.0637" lon="5.53834">
        <ele>1173</ele>
        <time>1970-01-01T02:46:26.000Z</time>
      </trkpt>
      <trkpt lat="45.06377" lon="5.53841">
        <ele>1170.2</ele>
        <time>1970-01-01T02:46:27.000Z</time>
      </trkpt>
      <trkpt lat="45.06384" lon="5.53847">
        <ele>1168.6</ele>
        <time>1970-01-01T02:46:28.000Z</time>
      </trkpt>
      <trkpt lat="45.06391" lon="5.53852">
        <ele>1167</ele>
        <time>1970-01-01T02:46:29.000Z</time>
      </trkpt>
      <trkpt lat="45.06398" lon="5.53857">
        <ele>1165.2</ele>
        <time>1970-01-01T02:46:30.000Z</time>
      </trkpt>
      <trkpt lat="45.06404" lon="5.53862">
        <ele>1163.4</ele>
        <time>1970-01-01T02:46:31.000Z</time>
      </trkpt>
      <trkpt lat="45.06412" lon="5.53866">
        <ele>1161.6</ele>
        <time>1970-01-01T02:46:32.000Z</time>
      </trkpt>
      <trkpt lat="45.0642" lon="5.53871">
        <ele>1159.8</ele>
        <time>1970-01-01T02:46:33.000Z</time>
      </trkpt>
      <trkpt lat="45.06429" lon="5.53876">
        <ele>1158.2</ele>
        <time>1970-01-01T02:46:34.000Z</time>
      </trkpt>
      <trkpt lat="45.06438" lon="5.53882">
        <ele>1156.6</ele>
        <time>1970-01-01T02:46:35.000Z</time>
      </trkpt>
      <trkpt lat="45.06447" lon="5.53888">
        <ele>1154.8</ele>
        <time>1970-01-01T02:46:36.000Z</time>
      </trkpt>
      <trkpt lat="45.06456" lon="5.53894">
        <ele>1153.4</ele>
        <time>1970-01-01T02:46:37.000Z</time>
      </trkpt>
      <trkpt lat="45.06466" lon="5.53901">
        <ele>1151.8</ele>
        <time>1970-01-01T02:46:38.000Z</time>
      </trkpt>
      <trkpt lat="45.06475" lon="5.53907">
        <ele>1150.4</ele>
        <time>1970-01-01T02:46:39.000Z</time>
      </trkpt>
      <trkpt lat="45.06483" lon="5.53913">
        <ele>1149</ele>
        <time>1970-01-01T02:46:40.000Z</time>
      </trkpt>
      <trkpt lat="45.06491" lon="5.53919">
        <ele>1147.6</ele>
        <time>1970-01-01T02:46:41.000Z</time>
      </trkpt>
      <trkpt lat="45.06499" lon="5.53924">
        <ele>1146.2</ele>
        <time>1970-01-01T02:46:42.000Z</time>
      </trkpt>
      <trkpt lat="45.06509" lon="5.53929">
        <ele>1145.4</ele>
        <time>1970-01-01T02:46:43.000Z</time>
      </trkpt>
      <trkpt lat="45.06517" lon="5.53932">
        <ele>1144.6</ele>
        <time>1970-01-01T02:46:44.000Z</time>
      </trkpt>
      <trkpt lat="45.06525" lon="5.53936">
        <ele>1143.6</ele>
        <time>1970-01-01T02:46:45.000Z</time>
      </trkpt>
      <trkpt lat="45.06534" lon="5.5394">
        <ele>1142.8</ele>
        <time>1970-01-01T02:46:46.000Z</time>
      </trkpt>
      <trkpt lat="45.06542" lon="5.53944">
        <ele>1141.8</ele>
        <time>1970-01-01T02:46:47.000Z</time>
      </trkpt>
      <trkpt lat="45.06551" lon="5.53948">
        <ele>1140.8</ele>
        <time>1970-01-01T02:46:48.000Z</time>
      </trkpt>
      <trkpt lat="45.0656" lon="5.53952">
        <ele>1139.8</ele>
        <time>1970-01-01T02:46:49.000Z</time>
      </trkpt>
      <trkpt lat="45.06569" lon="5.53956">
        <ele>1138.6</ele>
        <time>1970-01-01T02:46:50.000Z</time>
      </trkpt>
      <trkpt lat="45.06578" lon="5.53961">
        <ele>1136.2</ele>
        <time>1970-01-01T02:46:51.000Z</time>
      </trkpt>
      <trkpt lat="45.06586" lon="5.53965">
        <ele>1134.8</ele>
        <time>1970-01-01T02:46:52.000Z</time>
      </trkpt>
      <trkpt lat="45.06592" lon="5.5397">
        <ele>1133.4</ele>
        <time>1970-01-01T02:46:53.000Z</time>
      </trkpt>
      <trkpt lat="45.06598" lon="5.53975">
        <ele>1132</ele>
        <time>1970-01-01T02:46:54.000Z</time>
      </trkpt>
      <trkpt lat="45.06606" lon="5.53978">
        <ele>1130.6</ele>
        <time>1970-01-01T02:46:55.000Z</time>
      </trkpt>
      <trkpt lat="45.06613" lon="5.53981">
        <ele>1129.2</ele>
        <time>1970-01-01T02:46:56.000Z</time>
      </trkpt>
      <trkpt lat="45.0662" lon="5.53986">
        <ele>1127.6</ele>
        <time>1970-01-01T02:46:57.000Z</time>
      </trkpt>
      <trkpt lat="45.06625" lon="5.53991">
        <ele>1126</ele>
        <time>1970-01-01T02:46:58.000Z</time>
      </trkpt>
      <trkpt lat="45.06631" lon="5.53997">
        <ele>1124.2</ele>
        <time>1970-01-01T02:46:59.000Z</time>
      </trkpt>
      <trkpt lat="45.06636" lon="5.54003">
        <ele>1122.4</ele>
        <time>1970-01-01T02:47:00.000Z</time>
      </trkpt>
      <trkpt lat="45.0664" lon="5.54009">
        <ele>1120.6</ele>
        <time>1970-01-01T02:47:01.000Z</time>
      </trkpt>
      <trkpt lat="45.06645" lon="5.54017">
        <ele>1118.6</ele>
        <time>1970-01-01T02:47:02.000Z</time>
      </trkpt>
      <trkpt lat="45.0665" lon="5.54024">
        <ele>1116.4</ele>
        <time>1970-01-01T02:47:03.000Z</time>
      </trkpt>
      <trkpt lat="45.06655" lon="5.5403">
        <ele>1114</ele>
        <time>1970-01-01T02:47:04.000Z</time>
      </trkpt>
      <trkpt lat="45.06661" lon="5.54036">
        <ele>1111.4</ele>
        <time>1970-01-01T02:47:05.000Z</time>
      </trkpt>
      <trkpt lat="45.06668" lon="5.54043">
        <ele>1108.8</ele>
        <time>1970-01-01T02:47:06.000Z</time>
      </trkpt>
      <trkpt lat="45.06676" lon="5.54051">
        <ele>1106.4</ele>
        <time>1970-01-01T02:47:07.000Z</time>
      </trkpt>
      <trkpt lat="45.06684" lon="5.5406">
        <ele>1103.8</ele>
        <time>1970-01-01T02:47:08.000Z</time>
      </trkpt>
      <trkpt lat="45.06694" lon="5.54069">
        <ele>1101.2</ele>
        <time>1970-01-01T02:47:09.000Z</time>
      </trkpt>
      <trkpt lat="45.06704" lon="5.54079">
        <ele>1098.8</ele>
        <time>1970-01-01T02:47:10.000Z</time>
      </trkpt>
      <trkpt lat="45.06714" lon="5.54091">
        <ele>1096.2</ele>
        <time>1970-01-01T02:47:11.000Z</time>
      </trkpt>
      <trkpt lat="45.06723" lon="5.541">
        <ele>1093.8</ele>
        <time>1970-01-01T02:47:12.000Z</time>
      </trkpt>
      <trkpt lat="45.0673" lon="5.54105">
        <ele>1091.4</ele>
        <time>1970-01-01T02:47:13.000Z</time>
      </trkpt>
      <trkpt lat="45.06737" lon="5.54112">
        <ele>1089</ele>
        <time>1970-01-01T02:47:14.000Z</time>
      </trkpt>
      <trkpt lat="45.06741" lon="5.54118">
        <ele>1086.6</ele>
        <time>1970-01-01T02:47:15.000Z</time>
      </trkpt>
      <trkpt lat="45.06744" lon="5.54122">
        <ele>1082.4</ele>
        <time>1970-01-01T02:47:16.000Z</time>
      </trkpt>
      <trkpt lat="45.06746" lon="5.54126">
        <ele>1080.4</ele>
        <time>1970-01-01T02:47:17.000Z</time>
      </trkpt>
      <trkpt lat="45.06748" lon="5.54129">
        <ele>1078.6</ele>
        <time>1970-01-01T02:47:18.000Z</time>
      </trkpt>
      <trkpt lat="45.0675" lon="5.54131">
        <ele>1076.6</ele>
        <time>1970-01-01T02:47:19.000Z</time>
      </trkpt>
      <trkpt lat="45.06752" lon="5.54134">
        <ele>1074.8</ele>
        <time>1970-01-01T02:47:20.000Z</time>
      </trkpt>
      <trkpt lat="45.06755" lon="5.54138">
        <ele>1074</ele>
        <time>1970-01-01T02:47:21.000Z</time>
      </trkpt>
      <trkpt lat="45.06758" lon="5.54142">
        <ele>1073.2</ele>
        <time>1970-01-01T02:47:22.000Z</time>
      </trkpt>
      <trkpt lat="45.06761" lon="5.54146">
        <ele>1072.4</ele>
        <time>1970-01-01T02:47:23.000Z</time>
      </trkpt>
      <trkpt lat="45.06763" lon="5.54152">
        <ele>1071.4</ele>
        <time>1970-01-01T02:47:24.000Z</time>
      </trkpt>
      <trkpt lat="45.06766" lon="5.54159">
        <ele>1070.4</ele>
        <time>1970-01-01T02:47:25.000Z</time>
      </trkpt>
      <trkpt lat="45.06772" lon="5.54168">
        <ele>1069</ele>
        <time>1970-01-01T02:47:26.000Z</time>
      </trkpt>
      <trkpt lat="45.06778" lon="5.54178">
        <ele>1067.4</ele>
        <time>1970-01-01T02:47:27.000Z</time>
      </trkpt>
      <trkpt lat="45.06783" lon="5.54186">
        <ele>1065.6</ele>
        <time>1970-01-01T02:47:28.000Z</time>
      </trkpt>
      <trkpt lat="45.06787" lon="5.54192">
        <ele>1063.8</ele>
        <time>1970-01-01T02:47:29.000Z</time>
      </trkpt>
      <trkpt lat="45.06792" lon="5.542">
        <ele>1061.8</ele>
        <time>1970-01-01T02:47:30.000Z</time>
      </trkpt>
      <trkpt lat="45.06797" lon="5.54208">
        <ele>1060</ele>
        <time>1970-01-01T02:47:31.000Z</time>
      </trkpt>
      <trkpt lat="45.06803" lon="5.54216">
        <ele>1058</ele>
        <time>1970-01-01T02:47:32.000Z</time>
      </trkpt>
      <trkpt lat="45.06809" lon="5.54222">
        <ele>1056.2</ele>
        <time>1970-01-01T02:47:33.000Z</time>
      </trkpt>
      <trkpt lat="45.06815" lon="5.54229">
        <ele>1054.4</ele>
        <time>1970-01-01T02:47:34.000Z</time>
      </trkpt>
      <trkpt lat="45.06821" lon="5.54234">
        <ele>1052.4</ele>
        <time>1970-01-01T02:47:35.000Z</time>
      </trkpt>
      <trkpt lat="45.06827" lon="5.5424">
        <ele>1050.6</ele>
        <time>1970-01-01T02:47:36.000Z</time>
      </trkpt>
      <trkpt lat="45.06831" lon="5.54248">
        <ele>1048.6</ele>
        <time>1970-01-01T02:47:37.000Z</time>
      </trkpt>
      <trkpt lat="45.06835" lon="5.54255">
        <ele>1046.8</ele>
        <time>1970-01-01T02:47:38.000Z</time>
      </trkpt>
      <trkpt lat="45.0684" lon="5.54261">
        <ele>1045</ele>
        <time>1970-01-01T02:47:39.000Z</time>
      </trkpt>
      <trkpt lat="45.06845" lon="5.54267">
        <ele>1043.4</ele>
        <time>1970-01-01T02:47:40.000Z</time>
      </trkpt>
      <trkpt lat="45.0685" lon="5.54271">
        <ele>1040</ele>
        <time>1970-01-01T02:47:41.000Z</time>
      </trkpt>
      <trkpt lat="45.06852" lon="5.54273">
        <ele>1038.4</ele>
        <time>1970-01-01T02:47:42.000Z</time>
      </trkpt>
      <trkpt lat="45.06854" lon="5.54277">
        <ele>1037</ele>
        <time>1970-01-01T02:47:43.000Z</time>
      </trkpt>
      <trkpt lat="45.06855" lon="5.54279">
        <ele>1035.4</ele>
        <time>1970-01-01T02:47:44.000Z</time>
      </trkpt>
      <trkpt lat="45.06854" lon="5.54283">
        <ele>1034.2</ele>
        <time>1970-01-01T02:47:45.000Z</time>
      </trkpt>
      <trkpt lat="45.06852" lon="5.54284">
        <ele>1033.2</ele>
        <time>1970-01-01T02:47:46.000Z</time>
      </trkpt>
      <trkpt lat="45.0685" lon="5.54285">
        <ele>1032.2</ele>
        <time>1970-01-01T02:47:47.000Z</time>
      </trkpt>
      <trkpt lat="45.06848" lon="5.54286">
        <ele>1031.2</ele>
        <time>1970-01-01T02:47:48.000Z</time>
      </trkpt>
      <trkpt lat="45.06847" lon="5.54286">
        <ele>1030</ele>
        <time>1970-01-01T02:47:49.000Z</time>
      </trkpt>
      <trkpt lat="45.06843" lon="5.54289">
        <ele>1030</ele>
        <time>1970-01-01T02:47:52.000Z</time>
      </trkpt>
      <trkpt lat="45.06835" lon="5.54295">
        <ele>1029.6</ele>
        <time>1970-01-01T02:47:57.000Z</time>
      </trkpt>
      <trkpt lat="45.06831" lon="5.54298">
        <ele>1029</ele>
        <time>1970-01-01T02:47:58.000Z</time>
      </trkpt>
      <trkpt lat="45.06827" lon="5.54301">
        <ele>1028.4</ele>
        <time>1970-01-01T02:47:59.000Z</time>
      </trkpt>
      <trkpt lat="45.06823" lon="5.54302">
        <ele>1027.8</ele>
        <time>1970-01-01T02:48:00.000Z</time>
      </trkpt>
      <trkpt lat="45.06818" lon="5.54303">
        <ele>1027.4</ele>
        <time>1970-01-01T02:48:01.000Z</time>
      </trkpt>
      <trkpt lat="45.06812" lon="5.54304">
        <ele>1027.4</ele>
        <time>1970-01-01T02:48:02.000Z</time>
      </trkpt>
      <trkpt lat="45.06774" lon="5.54308">
        <ele>1027.4</ele>
        <time>1970-01-01T02:48:09.000Z</time>
      </trkpt>
      <trkpt lat="45.0674" lon="5.54313">
        <ele>1027.4</ele>
        <time>1970-01-01T02:48:16.000Z</time>
      </trkpt>
      <trkpt lat="45.06719" lon="5.54315">
        <ele>1027.4</ele>
        <time>1970-01-01T02:48:21.000Z</time>
      </trkpt>
      <trkpt lat="45.06692" lon="5.54319">
        <ele>1027.4</ele>
        <time>1970-01-01T02:48:27.000Z</time>
      </trkpt>
      <trkpt lat="45.06672" lon="5.54319">
        <ele>1027.4</ele>
        <time>1970-01-01T02:48:32.000Z</time>
      </trkpt>
      <trkpt lat="45.0665" lon="5.54321">
        <ele>1027.4</ele>
        <time>1970-01-01T02:48:38.000Z</time>
      </trkpt>
      <trkpt lat="45.0663" lon="5.54324">
        <ele>1027.4</ele>
        <time>1970-01-01T02:48:43.000Z</time>
      </trkpt>
      <trkpt lat="45.06616" lon="5.54324">
        <ele>1027.4</ele>
        <time>1970-01-01T02:48:46.000Z</time>
      </trkpt>
      <trkpt lat="45.06607" lon="5.54324">
        <ele>1027.4</ele>
        <time>1970-01-01T02:48:48.000Z</time>
      </trkpt>
      <trkpt lat="45.06587" lon="5.54327">
        <ele>1026.8</ele>
        <time>1970-01-01T02:48:52.000Z</time>
      </trkpt>
      <trkpt lat="45.06584" lon="5.54327">
        <ele>1026.4</ele>
        <time>1970-01-01T02:48:53.000Z</time>
      </trkpt>
      <trkpt lat="45.06581" lon="5.54329">
        <ele>1026</ele>
        <time>1970-01-01T02:48:54.000Z</time>
      </trkpt>
      <trkpt lat="45.06581" lon="5.54331">
        <ele>1025.4</ele>
        <time>1970-01-01T02:48:55.000Z</time>
      </trkpt>
      <trkpt lat="45.06581" lon="5.54332">
        <ele>1025</ele>
        <time>1970-01-01T02:48:56.000Z</time>
      </trkpt>
      <trkpt lat="45.06582" lon="5.54335">
        <ele>1024.6</ele>
        <time>1970-01-01T02:48:57.000Z</time>
      </trkpt>
      <trkpt lat="45.06583" lon="5.54337">
        <ele>1024.2</ele>
        <time>1970-01-01T02:48:58.000Z</time>
      </trkpt>
      <trkpt lat="45.06585" lon="5.54338">
        <ele>1023.8</ele>
        <time>1970-01-01T02:48:59.000Z</time>
      </trkpt>
      <trkpt lat="45.06588" lon="5.54339">
        <ele>1023.4</ele>
        <time>1970-01-01T02:49:00.000Z</time>
      </trkpt>
      <trkpt lat="45.06591" lon="5.5434">
        <ele>1023</ele>
        <time>1970-01-01T02:49:01.000Z</time>
      </trkpt>
      <trkpt lat="45.06595" lon="5.54339">
        <ele>1022.6</ele>
        <time>1970-01-01T02:49:02.000Z</time>
      </trkpt>
      <trkpt lat="45.06598" lon="5.5434">
        <ele>1022.2</ele>
        <time>1970-01-01T02:49:03.000Z</time>
      </trkpt>
      <trkpt lat="45.06602" lon="5.54341">
        <ele>1021.8</ele>
        <time>1970-01-01T02:49:04.000Z</time>
      </trkpt>
      <trkpt lat="45.06604" lon="5.54341">
        <ele>1021.4</ele>
        <time>1970-01-01T02:49:05.000Z</time>
      </trkpt>
      <trkpt lat="45.06605" lon="5.54342">
        <ele>1020.8</ele>
        <time>1970-01-01T02:49:06.000Z</time>
      </trkpt>
      <trkpt lat="45.06606" lon="5.54343">
        <ele>1020.8</ele>
        <time>1970-01-01T02:49:07.000Z</time>
      </trkpt>
      <trkpt lat="45.06605" lon="5.54344">
        <ele>1020.8</ele>
        <time>1970-01-01T02:49:29.000Z</time>
      </trkpt>
      <trkpt lat="45.06604" lon="5.54344">
        <ele>1020.8</ele>
        <time>1970-01-01T02:49:31.000Z</time>
      </trkpt>
      <trkpt lat="45.06596" lon="5.54342">
        <ele>1020.8</ele>
        <time>1970-01-01T02:49:37.000Z</time>
      </trkpt>
      <trkpt lat="45.06585" lon="5.54341">
        <ele>1020.8</ele>
        <time>1970-01-01T02:49:42.000Z</time>
      </trkpt>
      <trkpt lat="45.06577" lon="5.54339">
        <ele>1020.8</ele>
        <time>1970-01-01T02:49:48.000Z</time>
      </trkpt>
      <trkpt lat="45.06564" lon="5.54339">
        <ele>1020.8</ele>
        <time>1970-01-01T02:49:56.000Z</time>
      </trkpt>
      <trkpt lat="45.06545" lon="5.54338">
        <ele>1020.8</ele>
        <time>1970-01-01T02:50:01.000Z</time>
      </trkpt>
      <trkpt lat="45.0654" lon="5.54338">
        <ele>1020.8</ele>
        <time>1970-01-01T02:50:02.000Z</time>
      </trkpt>
      <trkpt lat="45.06525" lon="5.54335">
        <ele>1020.4</ele>
        <time>1970-01-01T02:50:05.000Z</time>
      </trkpt>
      <trkpt lat="45.0652" lon="5.54334">
        <ele>1020</ele>
        <time>1970-01-01T02:50:06.000Z</time>
      </trkpt>
      <trkpt lat="45.06516" lon="5.54333">
        <ele>1019.6</ele>
        <time>1970-01-01T02:50:07.000Z</time>
      </trkpt>
      <trkpt lat="45.06513" lon="5.54332">
        <ele>1019.2</ele>
        <time>1970-01-01T02:50:08.000Z</time>
      </trkpt>
      <trkpt lat="45.06509" lon="5.54332">
        <ele>1018.8</ele>
        <time>1970-01-01T02:50:09.000Z</time>
      </trkpt>
      <trkpt lat="45.06506" lon="5.54332">
        <ele>1018.8</ele>
        <time>1970-01-01T02:50:10.000Z</time>
      </trkpt>
      <trkpt lat="45.06489" lon="5.5433">
        <ele>1018.4</ele>
        <time>1970-01-01T02:50:14.000Z</time>
      </trkpt>
      <trkpt lat="45.06483" lon="5.54331">
        <ele>1018</ele>
        <time>1970-01-01T02:50:15.000Z</time>
      </trkpt>
      <trkpt lat="45.06477" lon="5.54332">
        <ele>1017.4</ele>
        <time>1970-01-01T02:50:16.000Z</time>
      </trkpt>
      <trkpt lat="45.0647" lon="5.54334">
        <ele>1016.8</ele>
        <time>1970-01-01T02:50:17.000Z</time>
      </trkpt>
      <trkpt lat="45.06464" lon="5.54334">
        <ele>1016</ele>
        <time>1970-01-01T02:50:18.000Z</time>
      </trkpt>
      <trkpt lat="45.06456" lon="5.54334">
        <ele>1015</ele>
        <time>1970-01-01T02:50:19.000Z</time>
      </trkpt>
      <trkpt lat="45.0645" lon="5.54334">
        <ele>1014.2</ele>
        <time>1970-01-01T02:50:20.000Z</time>
      </trkpt>
      <trkpt lat="45.06445" lon="5.54335">
        <ele>1013</ele>
        <time>1970-01-01T02:50:21.000Z</time>
      </trkpt>
      <trkpt lat="45.06439" lon="5.54336">
        <ele>1011.8</ele>
        <time>1970-01-01T02:50:22.000Z</time>
      </trkpt>
      <trkpt lat="45.06434" lon="5.54338">
        <ele>1010.8</ele>
        <time>1970-01-01T02:50:23.000Z</time>
      </trkpt>
      <trkpt lat="45.06428" lon="5.54339">
        <ele>1009.6</ele>
        <time>1970-01-01T02:50:24.000Z</time>
      </trkpt>
      <trkpt lat="45.06425" lon="5.54342">
        <ele>1008.4</ele>
        <time>1970-01-01T02:50:25.000Z</time>
      </trkpt>
      <trkpt lat="45.06423" lon="5.54344">
        <ele>1007.4</ele>
        <time>1970-01-01T02:50:26.000Z</time>
      </trkpt>
      <trkpt lat="45.06423" lon="5.54346">
        <ele>1006.4</ele>
        <time>1970-01-01T02:50:27.000Z</time>
      </trkpt>
      <trkpt lat="45.06425" lon="5.54348">
        <ele>1005.4</ele>
        <time>1970-01-01T02:50:28.000Z</time>
      </trkpt>
      <trkpt lat="45.06427" lon="5.54349">
        <ele>1004.4</ele>
        <time>1970-01-01T02:50:29.000Z</time>
      </trkpt>
      <trkpt lat="45.06429" lon="5.5435">
        <ele>1003.8</ele>
        <time>1970-01-01T02:50:30.000Z</time>
      </trkpt>
      <trkpt lat="45.06431" lon="5.54351">
        <ele>1003</ele>
        <time>1970-01-01T02:50:31.000Z</time>
      </trkpt>
      <trkpt lat="45.06434" lon="5.54352">
        <ele>1002.4</ele>
        <time>1970-01-01T02:50:32.000Z</time>
      </trkpt>
      <trkpt lat="45.06438" lon="5.54356">
        <ele>1001.8</ele>
        <time>1970-01-01T02:50:33.000Z</time>
      </trkpt>
      <trkpt lat="45.06443" lon="5.54359">
        <ele>1001.2</ele>
        <time>1970-01-01T02:50:34.000Z</time>
      </trkpt>
      <trkpt lat="45.06449" lon="5.54363">
        <ele>999.6</ele>
        <time>1970-01-01T02:50:35.000Z</time>
      </trkpt>
      <trkpt lat="45.06456" lon="5.54367">
        <ele>998.6</ele>
        <time>1970-01-01T02:50:36.000Z</time>
      </trkpt>
      <trkpt lat="45.06464" lon="5.54372">
        <ele>997.2</ele>
        <time>1970-01-01T02:50:37.000Z</time>
      </trkpt>
      <trkpt lat="45.06471" lon="5.54375">
        <ele>995.8</ele>
        <time>1970-01-01T02:50:38.000Z</time>
      </trkpt>
      <trkpt lat="45.06479" lon="5.54379">
        <ele>994.2</ele>
        <time>1970-01-01T02:50:39.000Z</time>
      </trkpt>
      <trkpt lat="45.06487" lon="5.54382">
        <ele>992.8</ele>
        <time>1970-01-01T02:50:40.000Z</time>
      </trkpt>
      <trkpt lat="45.06495" lon="5.54384">
        <ele>991.2</ele>
        <time>1970-01-01T02:50:41.000Z</time>
      </trkpt>
      <trkpt lat="45.06504" lon="5.54387">
        <ele>989.8</ele>
        <time>1970-01-01T02:50:42.000Z</time>
      </trkpt>
      <trkpt lat="45.06513" lon="5.54389">
        <ele>988.2</ele>
        <time>1970-01-01T02:50:43.000Z</time>
      </trkpt>
      <trkpt lat="45.06521" lon="5.54393">
        <ele>986.6</ele>
        <time>1970-01-01T02:50:44.000Z</time>
      </trkpt>
      <trkpt lat="45.06528" lon="5.54398">
        <ele>985.2</ele>
        <time>1970-01-01T02:50:45.000Z</time>
      </trkpt>
      <trkpt lat="45.06537" lon="5.54403">
        <ele>983.6</ele>
        <time>1970-01-01T02:50:46.000Z</time>
      </trkpt>
      <trkpt lat="45.06545" lon="5.54409">
        <ele>982.2</ele>
        <time>1970-01-01T02:50:47.000Z</time>
      </trkpt>
      <trkpt lat="45.06553" lon="5.54414">
        <ele>980.8</ele>
        <time>1970-01-01T02:50:48.000Z</time>
      </trkpt>
      <trkpt lat="45.0656" lon="5.54418">
        <ele>979.2</ele>
        <time>1970-01-01T02:50:49.000Z</time>
      </trkpt>
      <trkpt lat="45.06567" lon="5.5442">
        <ele>977.6</ele>
        <time>1970-01-01T02:50:50.000Z</time>
      </trkpt>
      <trkpt lat="45.06571" lon="5.54422">
        <ele>976</ele>
        <time>1970-01-01T02:50:51.000Z</time>
      </trkpt>
      <trkpt lat="45.06575" lon="5.54424">
        <ele>974.4</ele>
        <time>1970-01-01T02:50:52.000Z</time>
      </trkpt>
      <trkpt lat="45.06576" lon="5.54428">
        <ele>973</ele>
        <time>1970-01-01T02:50:53.000Z</time>
      </trkpt>
      <trkpt lat="45.06576" lon="5.54432">
        <ele>971.4</ele>
        <time>1970-01-01T02:50:54.000Z</time>
      </trkpt>
      <trkpt lat="45.06574" lon="5.54435">
        <ele>970.2</ele>
        <time>1970-01-01T02:50:55.000Z</time>
      </trkpt>
      <trkpt lat="45.06571" lon="5.54437">
        <ele>968.8</ele>
        <time>1970-01-01T02:50:56.000Z</time>
      </trkpt>
      <trkpt lat="45.06566" lon="5.54436">
        <ele>967.4</ele>
        <time>1970-01-01T02:50:57.000Z</time>
      </trkpt>
      <trkpt lat="45.06562" lon="5.54437">
        <ele>966.2</ele>
        <time>1970-01-01T02:50:58.000Z</time>
      </trkpt>
      <trkpt lat="45.06558" lon="5.54437">
        <ele>965.2</ele>
        <time>1970-01-01T02:50:59.000Z</time>
      </trkpt>
      <trkpt lat="45.06556" lon="5.54437">
        <ele>963</ele>
        <time>1970-01-01T02:51:00.000Z</time>
      </trkpt>
      <trkpt lat="45.06555" lon="5.54436">
        <ele>961.8</ele>
        <time>1970-01-01T02:51:01.000Z</time>
      </trkpt>
      <trkpt lat="45.06554" lon="5.54437">
        <ele>957.2</ele>
        <time>1970-01-01T02:51:18.000Z</time>
      </trkpt>
      <trkpt lat="45.06551" lon="5.54439">
        <ele>957.2</ele>
        <time>1970-01-01T02:51:20.000Z</time>
      </trkpt>
      <trkpt lat="45.06536" lon="5.54449">
        <ele>956.6</ele>
        <time>1970-01-01T02:51:25.000Z</time>
      </trkpt>
      <trkpt lat="45.06529" lon="5.54451">
        <ele>956</ele>
        <time>1970-01-01T02:51:26.000Z</time>
      </trkpt>
      <trkpt lat="45.06522" lon="5.54454">
        <ele>955.2</ele>
        <time>1970-01-01T02:51:27.000Z</time>
      </trkpt>
      <trkpt lat="45.06515" lon="5.54455">
        <ele>954.4</ele>
        <time>1970-01-01T02:51:28.000Z</time>
      </trkpt>
      <trkpt lat="45.0651" lon="5.54457">
        <ele>953.2</ele>
        <time>1970-01-01T02:51:29.000Z</time>
      </trkpt>
      <trkpt lat="45.06507" lon="5.54458">
        <ele>952</ele>
        <time>1970-01-01T02:51:30.000Z</time>
      </trkpt>
      <trkpt lat="45.06506" lon="5.54458">
        <ele>950.8</ele>
        <time>1970-01-01T02:51:31.000Z</time>
      </trkpt>
      <trkpt lat="45.06504" lon="5.54459">
        <ele>949.4</ele>
        <time>1970-01-01T02:51:32.000Z</time>
      </trkpt>
      <trkpt lat="45.06503" lon="5.54459">
        <ele>948</ele>
        <time>1970-01-01T02:51:33.000Z</time>
      </trkpt>
      <trkpt lat="45.06502" lon="5.54459">
        <ele>946.8</ele>
        <time>1970-01-01T02:51:34.000Z</time>
      </trkpt>
      <trkpt lat="45.06501" lon="5.5446">
        <ele>945.4</ele>
        <time>1970-01-01T02:51:35.000Z</time>
      </trkpt>
      <trkpt lat="45.06499" lon="5.5446">
        <ele>945</ele>
        <time>1970-01-01T02:51:36.000Z</time>
      </trkpt>
      <trkpt lat="45.06497" lon="5.54461">
        <ele>944</ele>
        <time>1970-01-01T02:51:37.000Z</time>
      </trkpt>
      <trkpt lat="45.06495" lon="5.54462">
        <ele>943.4</ele>
        <time>1970-01-01T02:51:38.000Z</time>
      </trkpt>
      <trkpt lat="45.06492" lon="5.54463">
        <ele>943</ele>
        <time>1970-01-01T02:51:39.000Z</time>
      </trkpt>
      <trkpt lat="45.06484" lon="5.54469">
        <ele>942.4</ele>
        <time>1970-01-01T02:51:41.000Z</time>
      </trkpt>
      <trkpt lat="45.06479" lon="5.54471">
        <ele>941.8</ele>
        <time>1970-01-01T02:51:42.000Z</time>
      </trkpt>
      <trkpt lat="45.06473" lon="5.54474">
        <ele>941</ele>
        <time>1970-01-01T02:51:43.000Z</time>
      </trkpt>
      <trkpt lat="45.06467" lon="5.54478">
        <ele>940.4</ele>
        <time>1970-01-01T02:51:44.000Z</time>
      </trkpt>
      <trkpt lat="45.06462" lon="5.54483">
        <ele>939.4</ele>
        <time>1970-01-01T02:51:45.000Z</time>
      </trkpt>
      <trkpt lat="45.06456" lon="5.5449">
        <ele>938.6</ele>
        <time>1970-01-01T02:51:46.000Z</time>
      </trkpt>
      <trkpt lat="45.06451" lon="5.54496">
        <ele>937.4</ele>
        <time>1970-01-01T02:51:47.000Z</time>
      </trkpt>
      <trkpt lat="45.06447" lon="5.54503">
        <ele>936.4</ele>
        <time>1970-01-01T02:51:48.000Z</time>
      </trkpt>
      <trkpt lat="45.06444" lon="5.54511">
        <ele>935.2</ele>
        <time>1970-01-01T02:51:49.000Z</time>
      </trkpt>
      <trkpt lat="45.06442" lon="5.54518">
        <ele>933.8</ele>
        <time>1970-01-01T02:51:50.000Z</time>
      </trkpt>
      <trkpt lat="45.0644" lon="5.54524">
        <ele>932.6</ele>
        <time>1970-01-01T02:51:51.000Z</time>
      </trkpt>
      <trkpt lat="45.0644" lon="5.54528">
        <ele>931.2</ele>
        <time>1970-01-01T02:51:52.000Z</time>
      </trkpt>
      <trkpt lat="45.06439" lon="5.54532">
        <ele>929.8</ele>
        <time>1970-01-01T02:51:53.000Z</time>
      </trkpt>
      <trkpt lat="45.06438" lon="5.54535">
        <ele>928.8</ele>
        <time>1970-01-01T02:51:54.000Z</time>
      </trkpt>
      <trkpt lat="45.06438" lon="5.54538">
        <ele>927.6</ele>
        <time>1970-01-01T02:51:55.000Z</time>
      </trkpt>
      <trkpt lat="45.06436" lon="5.54542">
        <ele>926.6</ele>
        <time>1970-01-01T02:51:56.000Z</time>
      </trkpt>
      <trkpt lat="45.06435" lon="5.54546">
        <ele>925.8</ele>
        <time>1970-01-01T02:51:57.000Z</time>
      </trkpt>
      <trkpt lat="45.06434" lon="5.54552">
        <ele>924</ele>
        <time>1970-01-01T02:51:58.000Z</time>
      </trkpt>
      <trkpt lat="45.06435" lon="5.54557">
        <ele>923</ele>
        <time>1970-01-01T02:51:59.000Z</time>
      </trkpt>
      <trkpt lat="45.06437" lon="5.54562">
        <ele>922.4</ele>
        <time>1970-01-01T02:52:00.000Z</time>
      </trkpt>
      <trkpt lat="45.06439" lon="5.54567">
        <ele>921.6</ele>
        <time>1970-01-01T02:52:01.000Z</time>
      </trkpt>
      <trkpt lat="45.06441" lon="5.54573">
        <ele>921</ele>
        <time>1970-01-01T02:52:02.000Z</time>
      </trkpt>
      <trkpt lat="45.0644" lon="5.5458">
        <ele>920.4</ele>
        <time>1970-01-01T02:52:03.000Z</time>
      </trkpt>
      <trkpt lat="45.06438" lon="5.54584">
        <ele>919.6</ele>
        <time>1970-01-01T02:52:04.000Z</time>
      </trkpt>
      <trkpt lat="45.06435" lon="5.54588">
        <ele>919</ele>
        <time>1970-01-01T02:52:05.000Z</time>
      </trkpt>
      <trkpt lat="45.06433" lon="5.54592">
        <ele>918.4</ele>
        <time>1970-01-01T02:52:06.000Z</time>
      </trkpt>
      <trkpt lat="45.06431" lon="5.54594">
        <ele>917.8</ele>
        <time>1970-01-01T02:52:07.000Z</time>
      </trkpt>
      <trkpt lat="45.0643" lon="5.54596">
        <ele>917.2</ele>
        <time>1970-01-01T02:52:08.000Z</time>
      </trkpt>
      <trkpt lat="45.06429" lon="5.54597">
        <ele>916.8</ele>
        <time>1970-01-01T02:52:09.000Z</time>
      </trkpt>
      <trkpt lat="45.06429" lon="5.54598">
        <ele>915.8</ele>
        <time>1970-01-01T02:52:11.000Z</time>
      </trkpt>
      <trkpt lat="45.0643" lon="5.546">
        <ele>915.4</ele>
        <time>1970-01-01T02:52:12.000Z</time>
      </trkpt>
      <trkpt lat="45.06431" lon="5.54602">
        <ele>914.8</ele>
        <time>1970-01-01T02:52:13.000Z</time>
      </trkpt>
      <trkpt lat="45.06432" lon="5.54603">
        <ele>914.8</ele>
        <time>1970-01-01T02:52:14.000Z</time>
      </trkpt>
      <trkpt lat="45.06444" lon="5.54605">
        <ele>914.8</ele>
        <time>1970-01-01T02:52:18.000Z</time>
      </trkpt>
      <trkpt lat="45.06462" lon="5.5461">
        <ele>914.8</ele>
        <time>1970-01-01T02:52:22.000Z</time>
      </trkpt>
      <trkpt lat="45.06472" lon="5.54613">
        <ele>914</ele>
        <time>1970-01-01T02:52:24.000Z</time>
      </trkpt>
      <trkpt lat="45.06477" lon="5.54614">
        <ele>913.4</ele>
        <time>1970-01-01T02:52:25.000Z</time>
      </trkpt>
      <trkpt lat="45.06482" lon="5.54615">
        <ele>913</ele>
        <time>1970-01-01T02:52:26.000Z</time>
      </trkpt>
      <trkpt lat="45.06486" lon="5.54616">
        <ele>912.6</ele>
        <time>1970-01-01T02:52:27.000Z</time>
      </trkpt>
      <trkpt lat="45.06496" lon="5.54618">
        <ele>912.2</ele>
        <time>1970-01-01T02:52:29.000Z</time>
      </trkpt>
      <trkpt lat="45.06502" lon="5.54619">
        <ele>911.8</ele>
        <time>1970-01-01T02:52:30.000Z</time>
      </trkpt>
      <trkpt lat="45.06507" lon="5.5462">
        <ele>911.2</ele>
        <time>1970-01-01T02:52:31.000Z</time>
      </trkpt>
      <trkpt lat="45.06514" lon="5.54621">
        <ele>910.8</ele>
        <time>1970-01-01T02:52:32.000Z</time>
      </trkpt>
      <trkpt lat="45.0652" lon="5.54622">
        <ele>910.4</ele>
        <time>1970-01-01T02:52:33.000Z</time>
      </trkpt>
      <trkpt lat="45.06526" lon="5.54625">
        <ele>910</ele>
        <time>1970-01-01T02:52:34.000Z</time>
      </trkpt>
      <trkpt lat="45.06529" lon="5.54632">
        <ele>909.6</ele>
        <time>1970-01-01T02:52:35.000Z</time>
      </trkpt>
      <trkpt lat="45.0653" lon="5.54639">
        <ele>909.2</ele>
        <time>1970-01-01T02:52:36.000Z</time>
      </trkpt>
      <trkpt lat="45.06529" lon="5.54646">
        <ele>908.8</ele>
        <time>1970-01-01T02:52:37.000Z</time>
      </trkpt>
      <trkpt lat="45.06529" lon="5.54653">
        <ele>908.4</ele>
        <time>1970-01-01T02:52:38.000Z</time>
      </trkpt>
      <trkpt lat="45.06528" lon="5.54662">
        <ele>908.4</ele>
        <time>1970-01-01T02:52:40.000Z</time>
      </trkpt>
      <trkpt lat="45.06525" lon="5.5469">
        <ele>908.4</ele>
        <time>1970-01-01T02:52:47.000Z</time>
      </trkpt>
      <trkpt lat="45.06524" lon="5.54707">
        <ele>908.8</ele>
        <time>1970-01-01T02:52:53.000Z</time>
      </trkpt>
      <trkpt lat="45.06524" lon="5.5471">
        <ele>909.2</ele>
        <time>1970-01-01T02:52:54.000Z</time>
      </trkpt>
      <trkpt lat="45.06523" lon="5.54713">
        <ele>909.8</ele>
        <time>1970-01-01T02:52:55.000Z</time>
      </trkpt>
      <trkpt lat="45.06523" lon="5.54716">
        <ele>910.2</ele>
        <time>1970-01-01T02:52:56.000Z</time>
      </trkpt>
      <trkpt lat="45.06522" lon="5.54719">
        <ele>910.6</ele>
        <time>1970-01-01T02:52:57.000Z</time>
      </trkpt>
      <trkpt lat="45.06521" lon="5.54724">
        <ele>910.6</ele>
        <time>1970-01-01T02:52:59.000Z</time>
      </trkpt>
      <trkpt lat="45.06521" lon="5.54731">
        <ele>911</ele>
        <time>1970-01-01T02:53:02.000Z</time>
      </trkpt>
      <trkpt lat="45.06521" lon="5.54734">
        <ele>911.4</ele>
        <time>1970-01-01T02:53:03.000Z</time>
      </trkpt>
      <trkpt lat="45.06521" lon="5.54736">
        <ele>911.8</ele>
        <time>1970-01-01T02:53:04.000Z</time>
      </trkpt>
      <trkpt lat="45.06522" lon="5.54739">
        <ele>912.2</ele>
        <time>1970-01-01T02:53:05.000Z</time>
      </trkpt>
      <trkpt lat="45.06522" lon="5.54741">
        <ele>912.8</ele>
        <time>1970-01-01T02:53:06.000Z</time>
      </trkpt>
      <trkpt lat="45.06523" lon="5.54751">
        <ele>912.8</ele>
        <time>1970-01-01T02:53:10.000Z</time>
      </trkpt>
      <trkpt lat="45.06523" lon="5.54756">
        <ele>913.2</ele>
        <time>1970-01-01T02:53:12.000Z</time>
      </trkpt>
      <trkpt lat="45.06524" lon="5.54758">
        <ele>913.6</ele>
        <time>1970-01-01T02:53:13.000Z</time>
      </trkpt>
      <trkpt lat="45.06524" lon="5.54761">
        <ele>914</ele>
        <time>1970-01-01T02:53:14.000Z</time>
      </trkpt>
      <trkpt lat="45.06524" lon="5.54763">
        <ele>915</ele>
        <time>1970-01-01T02:53:15.000Z</time>
      </trkpt>
      <trkpt lat="45.06524" lon="5.54765">
        <ele>915</ele>
        <time>1970-01-01T02:53:16.000Z</time>
      </trkpt>
      <trkpt lat="45.06524" lon="5.54767">
        <ele>915</ele>
        <time>1970-01-01T02:53:17.000Z</time>
      </trkpt>
      <trkpt lat="45.06524" lon="5.54771">
        <ele>915.4</ele>
        <time>1970-01-01T02:53:19.000Z</time>
      </trkpt>
      <trkpt lat="45.06524" lon="5.54773">
        <ele>915.8</ele>
        <time>1970-01-01T02:53:20.000Z</time>
      </trkpt>
      <trkpt lat="45.06525" lon="5.54775">
        <ele>916.2</ele>
        <time>1970-01-01T02:53:21.000Z</time>
      </trkpt>
      <trkpt lat="45.06525" lon="5.54777">
        <ele>916.6</ele>
        <time>1970-01-01T02:53:22.000Z</time>
      </trkpt>
      <trkpt lat="45.06526" lon="5.54779">
        <ele>917</ele>
        <time>1970-01-01T02:53:23.000Z</time>
      </trkpt>
      <trkpt lat="45.06526" lon="5.54787">
        <ele>917.4</ele>
        <time>1970-01-01T02:53:27.000Z</time>
      </trkpt>
      <trkpt lat="45.06527" lon="5.54789">
        <ele>918</ele>
        <time>1970-01-01T02:53:28.000Z</time>
      </trkpt>
      <trkpt lat="45.06527" lon="5.54791">
        <ele>918.4</ele>
        <time>1970-01-01T02:53:29.000Z</time>
      </trkpt>
      <trkpt lat="45.06527" lon="5.54793">
        <ele>918.8</ele>
        <time>1970-01-01T02:53:30.000Z</time>
      </trkpt>
      <trkpt lat="45.06528" lon="5.54795">
        <ele>919.2</ele>
        <time>1970-01-01T02:53:31.000Z</time>
      </trkpt>
      <trkpt lat="45.0653" lon="5.54802">
        <ele>919.6</ele>
        <time>1970-01-01T02:53:35.000Z</time>
      </trkpt>
      <trkpt lat="45.06531" lon="5.54804">
        <ele>920.2</ele>
        <time>1970-01-01T02:53:36.000Z</time>
      </trkpt>
      <trkpt lat="45.06531" lon="5.54805">
        <ele>920.6</ele>
        <time>1970-01-01T02:53:37.000Z</time>
      </trkpt>
      <trkpt lat="45.0653" lon="5.54807">
        <ele>921</ele>
        <time>1970-01-01T02:53:38.000Z</time>
      </trkpt>
      <trkpt lat="45.06529" lon="5.54809">
        <ele>921.4</ele>
        <time>1970-01-01T02:53:39.000Z</time>
      </trkpt>
      <trkpt lat="45.0653" lon="5.54816">
        <ele>921.8</ele>
        <time>1970-01-01T02:53:43.000Z</time>
      </trkpt>
      <trkpt lat="45.0653" lon="5.54817">
        <ele>922.2</ele>
        <time>1970-01-01T02:53:44.000Z</time>
      </trkpt>
      <trkpt lat="45.0653" lon="5.54819">
        <ele>922.6</ele>
        <time>1970-01-01T02:53:45.000Z</time>
      </trkpt>
      <trkpt lat="45.0653" lon="5.54821">
        <ele>923.2</ele>
        <time>1970-01-01T02:53:46.000Z</time>
      </trkpt>
      <trkpt lat="45.06529" lon="5.54823">
        <ele>923.6</ele>
        <time>1970-01-01T02:53:47.000Z</time>
      </trkpt>
      <trkpt lat="45.06529" lon="5.54824">
        <ele>923.6</ele>
        <time>1970-01-01T02:53:48.000Z</time>
      </trkpt>
      <trkpt lat="45.06529" lon="5.54828">
        <ele>924</ele>
        <time>1970-01-01T02:53:50.000Z</time>
      </trkpt>
      <trkpt lat="45.06528" lon="5.54829">
        <ele>924.4</ele>
        <time>1970-01-01T02:53:51.000Z</time>
      </trkpt>
      <trkpt lat="45.06528" lon="5.5483">
        <ele>924.8</ele>
        <time>1970-01-01T02:53:52.000Z</time>
      </trkpt>
      <trkpt lat="45.06528" lon="5.54831">
        <ele>925.2</ele>
        <time>1970-01-01T02:53:53.000Z</time>
      </trkpt>
      <trkpt lat="45.06528" lon="5.54832">
        <ele>925.6</ele>
        <time>1970-01-01T02:53:54.000Z</time>
      </trkpt>
      <trkpt lat="45.06527" lon="5.54835">
        <ele>925.6</ele>
        <time>1970-01-01T02:53:56.000Z</time>
      </trkpt>
      <trkpt lat="45.06526" lon="5.54835">
        <ele>925.6</ele>
        <time>1970-01-01T02:53:57.000Z</time>
      </trkpt>
      <trkpt lat="45.06521" lon="5.54837">
        <ele>925.6</ele>
        <time>1970-01-01T02:54:01.000Z</time>
      </trkpt>
      <trkpt lat="45.0652" lon="5.54837">
        <ele>925.6</ele>
        <time>1970-01-01T02:54:02.000Z</time>
      </trkpt>
      <trkpt lat="45.06511" lon="5.54839">
        <ele>925.6</ele>
        <time>1970-01-01T02:54:09.000Z</time>
      </trkpt>
      <trkpt lat="45.06507" lon="5.5484">
        <ele>925.6</ele>
        <time>1970-01-01T02:54:12.000Z</time>
      </trkpt>
      <trkpt lat="45.06504" lon="5.54843">
        <ele>925.6</ele>
        <time>1970-01-01T02:54:15.000Z</time>
      </trkpt>
      <trkpt lat="45.06502" lon="5.54845">
        <ele>925.6</ele>
        <time>1970-01-01T02:54:18.000Z</time>
      </trkpt>
      <trkpt lat="45.065" lon="5.54843">
        <ele>925.6</ele>
        <time>1970-01-01T02:54:20.000Z</time>
      </trkpt>
      <trkpt lat="45.06502" lon="5.54839">
        <ele>925.6</ele>
        <time>1970-01-01T02:54:23.000Z</time>
      </trkpt>
      <trkpt lat="45.06503" lon="5.54839">
        <ele>925.6</ele>
        <time>1970-01-01T02:54:24.000Z</time>
      </trkpt>
      <trkpt lat="45.06514" lon="5.5484">
        <ele>925.6</ele>
        <time>1970-01-01T02:54:30.000Z</time>
      </trkpt>
      <trkpt lat="45.06525" lon="5.54838">
        <ele>925.6</ele>
        <time>1970-01-01T02:54:36.000Z</time>
      </trkpt>
      <trkpt lat="45.06541" lon="5.54833">
        <ele>925.6</ele>
        <time>1970-01-01T02:54:42.000Z</time>
      </trkpt>
      <trkpt lat="45.06569" lon="5.54822">
        <ele>925.6</ele>
        <time>1970-01-01T02:54:48.000Z</time>
      </trkpt>
      <trkpt lat="45.066" lon="5.54813">
        <ele>925.6</ele>
        <time>1970-01-01T02:54:55.000Z</time>
      </trkpt>
      <trkpt lat="45.06619" lon="5.54802">
        <ele>925.6</ele>
        <time>1970-01-01T02:55:00.000Z</time>
      </trkpt>
      <trkpt lat="45.06629" lon="5.54798">
        <ele>925.2</ele>
        <time>1970-01-01T02:55:03.000Z</time>
      </trkpt>
      <trkpt lat="45.06632" lon="5.54797">
        <ele>924.8</ele>
        <time>1970-01-01T02:55:04.000Z</time>
      </trkpt>
      <trkpt lat="45.06633" lon="5.54797">
        <ele>924.4</ele>
        <time>1970-01-01T02:55:05.000Z</time>
      </trkpt>
      <trkpt lat="45.06634" lon="5.54796">
        <ele>924</ele>
        <time>1970-01-01T02:55:06.000Z</time>
      </trkpt>
      <trkpt lat="45.06635" lon="5.54797">
        <ele>923.6</ele>
        <time>1970-01-01T02:55:07.000Z</time>
      </trkpt>
      <trkpt lat="45.06636" lon="5.548">
        <ele>923.6</ele>
        <time>1970-01-01T02:55:08.000Z</time>
      </trkpt>
      <trkpt lat="45.06636" lon="5.54816">
        <ele>923.6</ele>
        <time>1970-01-01T02:55:13.000Z</time>
      </trkpt>
      <trkpt lat="45.06637" lon="5.54823">
        <ele>923.6</ele>
        <time>1970-01-01T02:55:16.000Z</time>
      </trkpt>
      <trkpt lat="45.06638" lon="5.54826">
        <ele>924.2</ele>
        <time>1970-01-01T02:55:17.000Z</time>
      </trkpt>
      <trkpt lat="45.06638" lon="5.54829">
        <ele>924.6</ele>
        <time>1970-01-01T02:55:18.000Z</time>
      </trkpt>
      <trkpt lat="45.06638" lon="5.54832">
        <ele>925.4</ele>
        <time>1970-01-01T02:55:19.000Z</time>
      </trkpt>
      <trkpt lat="45.06638" lon="5.54835">
        <ele>926</ele>
        <time>1970-01-01T02:55:20.000Z</time>
      </trkpt>
      <trkpt lat="45.06638" lon="5.54838">
        <ele>926.4</ele>
        <time>1970-01-01T02:55:21.000Z</time>
      </trkpt>
      <trkpt lat="45.06638" lon="5.5484">
        <ele>926.8</ele>
        <time>1970-01-01T02:55:22.000Z</time>
      </trkpt>
      <trkpt lat="45.06638" lon="5.54842">
        <ele>927.2</ele>
        <time>1970-01-01T02:55:23.000Z</time>
      </trkpt>
      <trkpt lat="45.06638" lon="5.54844">
        <ele>927.6</ele>
        <time>1970-01-01T02:55:24.000Z</time>
      </trkpt>
      <trkpt lat="45.06637" lon="5.54846">
        <ele>928</ele>
        <time>1970-01-01T02:55:25.000Z</time>
      </trkpt>
      <trkpt lat="45.06635" lon="5.54854">
        <ele>928.6</ele>
        <time>1970-01-01T02:55:29.000Z</time>
      </trkpt>
      <trkpt lat="45.06635" lon="5.54856">
        <ele>929</ele>
        <time>1970-01-01T02:55:30.000Z</time>
      </trkpt>
      <trkpt lat="45.06635" lon="5.54859">
        <ele>929.4</ele>
        <time>1970-01-01T02:55:31.000Z</time>
      </trkpt>
      <trkpt lat="45.06635" lon="5.54861">
        <ele>929.8</ele>
        <time>1970-01-01T02:55:32.000Z</time>
      </trkpt>
      <trkpt lat="45.06635" lon="5.54864">
        <ele>930.4</ele>
        <time>1970-01-01T02:55:33.000Z</time>
      </trkpt>
      <trkpt lat="45.06635" lon="5.54871">
        <ele>930.4</ele>
        <time>1970-01-01T02:55:36.000Z</time>
      </trkpt>
      <trkpt lat="45.06634" lon="5.54876">
        <ele>930.4</ele>
        <time>1970-01-01T02:55:38.000Z</time>
      </trkpt>
      <trkpt lat="45.06632" lon="5.54893">
        <ele>930.4</ele>
        <time>1970-01-01T02:55:44.000Z</time>
      </trkpt>
      <trkpt lat="45.06631" lon="5.5491">
        <ele>930.4</ele>
        <time>1970-01-01T02:55:49.000Z</time>
      </trkpt>
      <trkpt lat="45.06631" lon="5.54914">
        <ele>930.8</ele>
        <time>1970-01-01T02:55:50.000Z</time>
      </trkpt>
      <trkpt lat="45.0663" lon="5.54918">
        <ele>931.2</ele>
        <time>1970-01-01T02:55:51.000Z</time>
      </trkpt>
      <trkpt lat="45.0663" lon="5.54922">
        <ele>931.6</ele>
        <time>1970-01-01T02:55:52.000Z</time>
      </trkpt>
      <trkpt lat="45.0663" lon="5.54926">
        <ele>932</ele>
        <time>1970-01-01T02:55:53.000Z</time>
      </trkpt>
      <trkpt lat="45.0663" lon="5.54929">
        <ele>932.4</ele>
        <time>1970-01-01T02:55:54.000Z</time>
      </trkpt>
      <trkpt lat="45.0663" lon="5.54933">
        <ele>932.4</ele>
        <time>1970-01-01T02:55:55.000Z</time>
      </trkpt>
      <trkpt lat="45.06628" lon="5.54955">
        <ele>932.4</ele>
        <time>1970-01-01T02:56:02.000Z</time>
      </trkpt>
      <trkpt lat="45.06626" lon="5.54968">
        <ele>932.4</ele>
        <time>1970-01-01T02:56:07.000Z</time>
      </trkpt>
      <trkpt lat="45.06625" lon="5.5497">
        <ele>932.8</ele>
        <time>1970-01-01T02:56:08.000Z</time>
      </trkpt>
      <trkpt lat="45.06625" lon="5.54972">
        <ele>933.6</ele>
        <time>1970-01-01T02:56:09.000Z</time>
      </trkpt>
      <trkpt lat="45.06625" lon="5.54976">
        <ele>934.2</ele>
        <time>1970-01-01T02:56:10.000Z</time>
      </trkpt>
      <trkpt lat="45.06625" lon="5.54979">
        <ele>934.6</ele>
        <time>1970-01-01T02:56:11.000Z</time>
      </trkpt>
      <trkpt lat="45.06626" lon="5.54983">
        <ele>934.6</ele>
        <time>1970-01-01T02:56:12.000Z</time>
      </trkpt>
      <trkpt lat="45.0663" lon="5.55009">
        <ele>934.6</ele>
        <time>1970-01-01T02:56:17.000Z</time>
      </trkpt>
      <trkpt lat="45.06636" lon="5.55045">
        <ele>934.2</ele>
        <time>1970-01-01T02:56:22.000Z</time>
      </trkpt>
      <trkpt lat="45.06636" lon="5.55052">
        <ele>933.8</ele>
        <time>1970-01-01T02:56:23.000Z</time>
      </trkpt>
      <trkpt lat="45.06636" lon="5.55059">
        <ele>933.2</ele>
        <time>1970-01-01T02:56:24.000Z</time>
      </trkpt>
      <trkpt lat="45.06636" lon="5.55066">
        <ele>932.8</ele>
        <time>1970-01-01T02:56:25.000Z</time>
      </trkpt>
      <trkpt lat="45.06636" lon="5.55073">
        <ele>932.4</ele>
        <time>1970-01-01T02:56:26.000Z</time>
      </trkpt>
      <trkpt lat="45.06636" lon="5.55079">
        <ele>932.4</ele>
        <time>1970-01-01T02:56:27.000Z</time>
      </trkpt>
      <trkpt lat="45.0664" lon="5.551">
        <ele>932</ele>
        <time>1970-01-01T02:56:30.000Z</time>
      </trkpt>
      <trkpt lat="45.06641" lon="5.55105">
        <ele>931.6</ele>
        <time>1970-01-01T02:56:31.000Z</time>
      </trkpt>
      <trkpt lat="45.06642" lon="5.5511">
        <ele>931.2</ele>
        <time>1970-01-01T02:56:32.000Z</time>
      </trkpt>
      <trkpt lat="45.06644" lon="5.55113">
        <ele>930.4</ele>
        <time>1970-01-01T02:56:33.000Z</time>
      </trkpt>
      <trkpt lat="45.06645" lon="5.55118">
        <ele>930.4</ele>
        <time>1970-01-01T02:56:34.000Z</time>
      </trkpt>
      <trkpt lat="45.06652" lon="5.55141">
        <ele>930.4</ele>
        <time>1970-01-01T02:56:40.000Z</time>
      </trkpt>
      <trkpt lat="45.06656" lon="5.55147">
        <ele>930.4</ele>
        <time>1970-01-01T02:56:43.000Z</time>
      </trkpt>
      <trkpt lat="45.06659" lon="5.55147">
        <ele>930.4</ele>
        <time>1970-01-01T02:56:44.000Z</time>
      </trkpt>
      <trkpt lat="45.06665" lon="5.55138">
        <ele>930.4</ele>
        <time>1970-01-01T02:56:48.000Z</time>
      </trkpt>
      <trkpt lat="45.06664" lon="5.55126">
        <ele>930.4</ele>
        <time>1970-01-01T02:56:52.000Z</time>
      </trkpt>
      <trkpt lat="45.06664" lon="5.55124">
        <ele>930.4</ele>
        <time>1970-01-01T02:56:53.000Z</time>
      </trkpt>
      <trkpt lat="45.06669" lon="5.5511">
        <ele>930.4</ele>
        <time>1970-01-01T02:56:57.000Z</time>
      </trkpt>
      <trkpt lat="45.06673" lon="5.55106">
        <ele>929.4</ele>
        <time>1970-01-01T02:56:58.000Z</time>
      </trkpt>
      <trkpt lat="45.06679" lon="5.55103">
        <ele>928.8</ele>
        <time>1970-01-01T02:56:59.000Z</time>
      </trkpt>
      <trkpt lat="45.06684" lon="5.55101">
        <ele>928.4</ele>
        <time>1970-01-01T02:57:00.000Z</time>
      </trkpt>
      <trkpt lat="45.0669" lon="5.55101">
        <ele>927.8</ele>
        <time>1970-01-01T02:57:01.000Z</time>
      </trkpt>
      <trkpt lat="45.06696" lon="5.55102">
        <ele>927.4</ele>
        <time>1970-01-01T02:57:02.000Z</time>
      </trkpt>
      <trkpt lat="45.06701" lon="5.55103">
        <ele>926.8</ele>
        <time>1970-01-01T02:57:03.000Z</time>
      </trkpt>
      <trkpt lat="45.06707" lon="5.55104">
        <ele>926.4</ele>
        <time>1970-01-01T02:57:04.000Z</time>
      </trkpt>
      <trkpt lat="45.06712" lon="5.55105">
        <ele>925.8</ele>
        <time>1970-01-01T02:57:05.000Z</time>
      </trkpt>
      <trkpt lat="45.06717" lon="5.55104">
        <ele>925.4</ele>
        <time>1970-01-01T02:57:06.000Z</time>
      </trkpt>
      <trkpt lat="45.06722" lon="5.55102">
        <ele>925.4</ele>
        <time>1970-01-01T02:57:07.000Z</time>
      </trkpt>
      <trkpt lat="45.0674" lon="5.55099">
        <ele>925.4</ele>
        <time>1970-01-01T02:57:11.000Z</time>
      </trkpt>
      <trkpt lat="45.0675" lon="5.55107">
        <ele>925.4</ele>
        <time>1970-01-01T02:57:15.000Z</time>
      </trkpt>
      <trkpt lat="45.0675" lon="5.55116">
        <ele>925.4</ele>
        <time>1970-01-01T02:57:17.000Z</time>
      </trkpt>
      <trkpt lat="45.0675" lon="5.55137">
        <ele>925.4</ele>
        <time>1970-01-01T02:57:21.000Z</time>
      </trkpt>
      <trkpt lat="45.0675" lon="5.55171">
        <ele>925.4</ele>
        <time>1970-01-01T02:57:27.000Z</time>
      </trkpt>
      <trkpt lat="45.06751" lon="5.55208">
        <ele>925.4</ele>
        <time>1970-01-01T02:57:34.000Z</time>
      </trkpt>
      <trkpt lat="45.06752" lon="5.55218">
        <ele>925.8</ele>
        <time>1970-01-01T02:57:36.000Z</time>
      </trkpt>
      <trkpt lat="45.06752" lon="5.55222">
        <ele>926.2</ele>
        <time>1970-01-01T02:57:37.000Z</time>
      </trkpt>
      <trkpt lat="45.06752" lon="5.55227">
        <ele>926.6</ele>
        <time>1970-01-01T02:57:38.000Z</time>
      </trkpt>
      <trkpt lat="45.06753" lon="5.5523">
        <ele>927</ele>
        <time>1970-01-01T02:57:39.000Z</time>
      </trkpt>
      <trkpt lat="45.06754" lon="5.55234">
        <ele>927.4</ele>
        <time>1970-01-01T02:57:40.000Z</time>
      </trkpt>
      <trkpt lat="45.06757" lon="5.55237">
        <ele>927.4</ele>
        <time>1970-01-01T02:57:41.000Z</time>
      </trkpt>
      <trkpt lat="45.06769" lon="5.55238">
        <ele>927.4</ele>
        <time>1970-01-01T02:57:45.000Z</time>
      </trkpt>
      <trkpt lat="45.06788" lon="5.55239">
        <ele>927.4</ele>
        <time>1970-01-01T02:57:51.000Z</time>
      </trkpt>
      <trkpt lat="45.06796" lon="5.55232">
        <ele>927.4</ele>
        <time>1970-01-01T02:57:54.000Z</time>
      </trkpt>
      <trkpt lat="45.06797" lon="5.55227">
        <ele>927.4</ele>
        <time>1970-01-01T02:57:55.000Z</time>
      </trkpt>
      <trkpt lat="45.06799" lon="5.55214">
        <ele>927.4</ele>
        <time>1970-01-01T02:57:57.000Z</time>
      </trkpt>
      <trkpt lat="45.06801" lon="5.55195">
        <ele>927.4</ele>
        <time>1970-01-01T02:58:00.000Z</time>
      </trkpt>
      <trkpt lat="45.06806" lon="5.55175">
        <ele>927.4</ele>
        <time>1970-01-01T02:58:03.000Z</time>
      </trkpt>
      <trkpt lat="45.06809" lon="5.55163">
        <ele>927.4</ele>
        <time>1970-01-01T02:58:05.000Z</time>
      </trkpt>
      <trkpt lat="45.06811" lon="5.55157">
        <ele>926.8</ele>
        <time>1970-01-01T02:58:06.000Z</time>
      </trkpt>
      <trkpt lat="45.06811" lon="5.5515">
        <ele>926.4</ele>
        <time>1970-01-01T02:58:07.000Z</time>
      </trkpt>
      <trkpt lat="45.06808" lon="5.55144">
        <ele>926</ele>
        <time>1970-01-01T02:58:08.000Z</time>
      </trkpt>
      <trkpt lat="45.06805" lon="5.55139">
        <ele>925.6</ele>
        <time>1970-01-01T02:58:09.000Z</time>
      </trkpt>
      <trkpt lat="45.06803" lon="5.55133">
        <ele>925</ele>
        <time>1970-01-01T02:58:10.000Z</time>
      </trkpt>
      <trkpt lat="45.06796" lon="5.55121">
        <ele>925</ele>
        <time>1970-01-01T02:58:12.000Z</time>
      </trkpt>
      <trkpt lat="45.06791" lon="5.551">
        <ele>925</ele>
        <time>1970-01-01T02:58:15.000Z</time>
      </trkpt>
      <trkpt lat="45.0679" lon="5.55092">
        <ele>924.6</ele>
        <time>1970-01-01T02:58:16.000Z</time>
      </trkpt>
      <trkpt lat="45.06791" lon="5.55084">
        <ele>924.2</ele>
        <time>1970-01-01T02:58:17.000Z</time>
      </trkpt>
      <trkpt lat="45.06791" lon="5.55076">
        <ele>923.8</ele>
        <time>1970-01-01T02:58:18.000Z</time>
      </trkpt>
      <trkpt lat="45.06791" lon="5.55068">
        <ele>923.4</ele>
        <time>1970-01-01T02:58:19.000Z</time>
      </trkpt>
      <trkpt lat="45.06792" lon="5.55059">
        <ele>923</ele>
        <time>1970-01-01T02:58:20.000Z</time>
      </trkpt>
      <trkpt lat="45.06792" lon="5.5505">
        <ele>923</ele>
        <time>1970-01-01T02:58:21.000Z</time>
      </trkpt>
      <trkpt lat="45.06793" lon="5.55023">
        <ele>922.6</ele>
        <time>1970-01-01T02:58:24.000Z</time>
      </trkpt>
      <trkpt lat="45.06793" lon="5.55015">
        <ele>922.2</ele>
        <time>1970-01-01T02:58:25.000Z</time>
      </trkpt>
      <trkpt lat="45.06793" lon="5.55009">
        <ele>921.8</ele>
        <time>1970-01-01T02:58:26.000Z</time>
      </trkpt>
      <trkpt lat="45.06793" lon="5.55003">
        <ele>921.2</ele>
        <time>1970-01-01T02:58:27.000Z</time>
      </trkpt>
      <trkpt lat="45.06794" lon="5.55">
        <ele>920.8</ele>
        <time>1970-01-01T02:58:28.000Z</time>
      </trkpt>
      <trkpt lat="45.06793" lon="5.5499">
        <ele>920.8</ele>
        <time>1970-01-01T02:58:31.000Z</time>
      </trkpt>
      <trkpt lat="45.06793" lon="5.54987">
        <ele>920.4</ele>
        <time>1970-01-01T02:58:33.000Z</time>
      </trkpt>
      <trkpt lat="45.06794" lon="5.54986">
        <ele>920</ele>
        <time>1970-01-01T02:58:34.000Z</time>
      </trkpt>
      <trkpt lat="45.06794" lon="5.54984">
        <ele>919.6</ele>
        <time>1970-01-01T02:58:35.000Z</time>
      </trkpt>
      <trkpt lat="45.06795" lon="5.54981">
        <ele>918.8</ele>
        <time>1970-01-01T02:58:36.000Z</time>
      </trkpt>
      <trkpt lat="45.06795" lon="5.54976">
        <ele>918.8</ele>
        <time>1970-01-01T02:58:37.000Z</time>
      </trkpt>
      <trkpt lat="45.06796" lon="5.54964">
        <ele>918.8</ele>
        <time>1970-01-01T02:58:39.000Z</time>
      </trkpt>
      <trkpt lat="45.06797" lon="5.54924">
        <ele>918.8</ele>
        <time>1970-01-01T02:58:44.000Z</time>
      </trkpt>
      <trkpt lat="45.06796" lon="5.54906">
        <ele>918.4</ele>
        <time>1970-01-01T02:58:46.000Z</time>
      </trkpt>
      <trkpt lat="45.06797" lon="5.54897">
        <ele>918</ele>
        <time>1970-01-01T02:58:47.000Z</time>
      </trkpt>
      <trkpt lat="45.06797" lon="5.54888">
        <ele>917.6</ele>
        <time>1970-01-01T02:58:48.000Z</time>
      </trkpt>
      <trkpt lat="45.06797" lon="5.54879">
        <ele>917</ele>
        <time>1970-01-01T02:58:49.000Z</time>
      </trkpt>
      <trkpt lat="45.06798" lon="5.5487">
        <ele>916.6</ele>
        <time>1970-01-01T02:58:50.000Z</time>
      </trkpt>
      <trkpt lat="45.06799" lon="5.54849">
        <ele>916.2</ele>
        <time>1970-01-01T02:58:53.000Z</time>
      </trkpt>
      <trkpt lat="45.06801" lon="5.54847">
        <ele>915.6</ele>
        <time>1970-01-01T02:58:54.000Z</time>
      </trkpt>
      <trkpt lat="45.06804" lon="5.54847">
        <ele>915.2</ele>
        <time>1970-01-01T02:58:55.000Z</time>
      </trkpt>
      <trkpt lat="45.06807" lon="5.54847">
        <ele>914.6</ele>
        <time>1970-01-01T02:58:56.000Z</time>
      </trkpt>
      <trkpt lat="45.06811" lon="5.54846">
        <ele>914.2</ele>
        <time>1970-01-01T02:58:57.000Z</time>
      </trkpt>
      <trkpt lat="45.06815" lon="5.54845">
        <ele>914.2</ele>
        <time>1970-01-01T02:58:58.000Z</time>
      </trkpt>
      <trkpt lat="45.06819" lon="5.54842">
        <ele>914.2</ele>
        <time>1970-01-01T02:58:59.000Z</time>
      </trkpt>
      <trkpt lat="45.06822" lon="5.54838">
        <ele>914.2</ele>
        <time>1970-01-01T02:59:00.000Z</time>
      </trkpt>
      <trkpt lat="45.06907" lon="5.54701">
        <ele>910.6</ele>
        <time>1970-01-01T02:59:17.000Z</time>
      </trkpt>
      <trkpt lat="45.06923" lon="5.54697">
        <ele>909.8</ele>
        <time>1970-01-01T02:59:19.000Z</time>
      </trkpt>
    </trkseg>
  </trk>
</gpx>